<?xml version='1.0' encoding='UTF-8'?><gpx version="1.1" creator="JPX - https://github.com/jenetics/jpx" xmlns="http://www.topografix.com/GPX/1/1"><trk><trkseg><trkpt lat="37.7210467" lon="15.1818233"><ele>106.66666666666666</ele><time>2026-04-28T07:53:19.212Z</time></trkpt><trkpt lat="37.7211267" lon="15.181865"><ele>106.33333333333333</ele><time>2026-04-28T07:53:21.212Z</time></trkpt><trkpt lat="37.7212383" lon="15.1819433"><ele>106.0</ele><time>2026-04-28T07:53:23.212Z</time></trkpt><trkpt lat="37.721295" lon="15.18201"><ele>105.66666666666666</ele><time>2026-04-28T07:53:24.212Z</time></trkpt><trkpt lat="37.7213517" lon="15.182055"><ele>105.33333333333333</ele><time>2026-04-28T07:53:25.212Z</time></trkpt><trkpt lat="37.7214117" lon="15.1820967"><ele>105.0</ele><time>2026-04-28T07:53:26.212Z</time></trkpt><trkpt lat="37.721525" lon="15.1821767"><ele>105.0</ele><time>2026-04-28T07:53:28.212Z</time></trkpt><trkpt lat="37.7216317" lon="15.1822533"><ele>105.0</ele><time>2026-04-28T07:53:30.212Z</time></trkpt><trkpt lat="37.7217417" lon="15.18233"><ele>105.0</ele><time>2026-04-28T07:53:32.213Z</time></trkpt><trkpt lat="37.7218583" lon="15.18241"><ele>105.0</ele><time>2026-04-28T07:53:34.212Z</time></trkpt><trkpt lat="37.72192" lon="15.1824683"><ele>104.5</ele><time>2026-04-28T07:53:35.212Z</time></trkpt><trkpt lat="37.7219783" lon="15.1825283"><ele>104.0</ele><time>2026-04-28T07:53:36.212Z</time></trkpt><trkpt lat="37.72205" lon="15.1825767"><ele>103.5</ele><time>2026-04-28T07:53:37.212Z</time></trkpt><trkpt lat="37.7221283" lon="15.1826367"><ele>103.0</ele><time>2026-04-28T07:53:38.212Z</time></trkpt><trkpt lat="37.7222117" lon="15.182685"><ele>102.5</ele><time>2026-04-28T07:53:39.212Z</time></trkpt><trkpt lat="37.7222917" lon="15.18274"><ele>102.0</ele><time>2026-04-28T07:53:40.212Z</time></trkpt><trkpt lat="37.7223617" lon="15.1827983"><ele>102.0</ele><time>2026-04-28T07:53:41.212Z</time></trkpt><trkpt lat="37.72242" lon="15.1828517"><ele>102.0</ele><time>2026-04-28T07:53:42.212Z</time></trkpt><trkpt lat="37.72248" lon="15.18288"><ele>102.0</ele><time>2026-04-28T07:53:43.212Z</time></trkpt><trkpt lat="37.7225967" lon="15.1829317"><ele>102.0</ele><time>2026-04-28T07:53:45.213Z</time></trkpt><trkpt lat="37.7227067" lon="15.1829917"><ele>102.0</ele><time>2026-04-28T07:53:47.212Z</time></trkpt><trkpt lat="37.7228267" lon="15.1830567"><ele>101.83333333333333</ele><time>2026-04-28T07:53:49.212Z</time></trkpt><trkpt lat="37.7228917" lon="15.1830933"><ele>101.66666666666666</ele><time>2026-04-28T07:53:50.212Z</time></trkpt><trkpt lat="37.7229633" lon="15.1831333"><ele>101.5</ele><time>2026-04-28T07:53:51.212Z</time></trkpt><trkpt lat="37.723035" lon="15.1831733"><ele>101.33333333333333</ele><time>2026-04-28T07:53:52.212Z</time></trkpt><trkpt lat="37.7231217" lon="15.183215"><ele>101.16666666666666</ele><time>2026-04-28T07:53:53.212Z</time></trkpt><trkpt lat="37.723215" lon="15.1832583"><ele>101.0</ele><time>2026-04-28T07:53:54.212Z</time></trkpt><trkpt lat="37.7233217" lon="15.1833117"><ele>100.0</ele><time>2026-04-28T07:53:55.213Z</time></trkpt><trkpt lat="37.72343" lon="15.18337"><ele>99.0</ele><time>2026-04-28T07:53:56.212Z</time></trkpt><trkpt lat="37.7235383" lon="15.1834233"><ele>98.0</ele><time>2026-04-28T07:53:57.212Z</time></trkpt><trkpt lat="37.7236467" lon="15.183485"><ele>97.0</ele><time>2026-04-28T07:53:58.212Z</time></trkpt><trkpt lat="37.7237483" lon="15.18354"><ele>96.39999999999999</ele><time>2026-04-28T07:53:59.212Z</time></trkpt><trkpt lat="37.7238483" lon="15.1835933"><ele>95.8</ele><time>2026-04-28T07:54:00.212Z</time></trkpt><trkpt lat="37.7239467" lon="15.1836283"><ele>95.2</ele><time>2026-04-28T07:54:01.213Z</time></trkpt><trkpt lat="37.7240333" lon="15.1836767"><ele>94.6</ele><time>2026-04-28T07:54:02.212Z</time></trkpt><trkpt lat="37.7241183" lon="15.1837217"><ele>94.0</ele><time>2026-04-28T07:54:03.212Z</time></trkpt><trkpt lat="37.72421" lon="15.1837567"><ele>94.0</ele><time>2026-04-28T07:54:04.212Z</time></trkpt><trkpt lat="37.7243067" lon="15.1838083"><ele>94.0</ele><time>2026-04-28T07:54:05.212Z</time></trkpt><trkpt lat="37.7244267" lon="15.1838683"><ele>94.0</ele><time>2026-04-28T07:54:06.212Z</time></trkpt><trkpt lat="37.724565" lon="15.18392"><ele>94.0</ele><time>2026-04-28T07:54:07.213Z</time></trkpt><trkpt lat="37.7246967" lon="15.1839667"><ele>93.80000000000001</ele><time>2026-04-28T07:54:08.212Z</time></trkpt><trkpt lat="37.724805" lon="15.184"><ele>93.60000000000001</ele><time>2026-04-28T07:54:09.212Z</time></trkpt><trkpt lat="37.7249033" lon="15.184045"><ele>93.4</ele><time>2026-04-28T07:54:10.212Z</time></trkpt><trkpt lat="37.725" lon="15.184085"><ele>93.2</ele><time>2026-04-28T07:54:11.212Z</time></trkpt><trkpt lat="37.7250983" lon="15.1841383"><ele>93.0</ele><time>2026-04-28T07:54:12.212Z</time></trkpt><trkpt lat="37.7251883" lon="15.1841767"><ele>92.66666666666667</ele><time>2026-04-28T07:54:13.212Z</time></trkpt><trkpt lat="37.72525" lon="15.1842117"><ele>92.33333333333333</ele><time>2026-04-28T07:54:14.212Z</time></trkpt><trkpt lat="37.7253333" lon="15.18427"><ele>92.0</ele><time>2026-04-28T07:54:16.212Z</time></trkpt><trkpt lat="37.7254433" lon="15.1843083"><ele>91.66666666666666</ele><time>2026-04-28T07:54:18.212Z</time></trkpt><trkpt lat="37.7255083" lon="15.1843233"><ele>91.33333333333333</ele><time>2026-04-28T07:54:19.212Z</time></trkpt><trkpt lat="37.7255717" lon="15.1843367"><ele>91.0</ele><time>2026-04-28T07:54:20.212Z</time></trkpt><trkpt lat="37.7256383" lon="15.1843333"><ele>91.0</ele><time>2026-04-28T07:54:21.213Z</time></trkpt><trkpt lat="37.7257583" lon="15.1843283"><ele>91.0</ele><time>2026-04-28T07:54:23.212Z</time></trkpt><trkpt lat="37.7258533" lon="15.1843267"><ele>91.0</ele><time>2026-04-28T07:54:25.213Z</time></trkpt><trkpt lat="37.7259233" lon="15.1843267"><ele>91.0</ele><time>2026-04-28T07:54:28.212Z</time></trkpt><trkpt lat="37.7259917" lon="15.184325"><ele>91.0</ele><time>2026-04-28T07:54:33.212Z</time></trkpt><trkpt lat="37.7260917" lon="15.1843117"><ele>90.33333333333333</ele><time>2026-04-28T07:54:36.212Z</time></trkpt><trkpt lat="37.7261767" lon="15.1843133"><ele>89.66666666666666</ele><time>2026-04-28T07:54:38.212Z</time></trkpt><trkpt lat="37.7262717" lon="15.1843"><ele>89.0</ele><time>2026-04-28T07:54:40.212Z</time></trkpt><trkpt lat="37.7263383" lon="15.1842983"><ele>88.33333333333333</ele><time>2026-04-28T07:54:43.212Z</time></trkpt><trkpt lat="37.7264017" lon="15.1842883"><ele>87.66666666666667</ele><time>2026-04-28T07:55:09.212Z</time></trkpt><trkpt lat="37.72648" lon="15.1842867"><ele>87.0</ele><time>2026-04-28T07:55:12.213Z</time></trkpt><trkpt lat="37.72655" lon="15.1842833"><ele>87.0</ele><time>2026-04-28T07:55:14.212Z</time></trkpt><trkpt lat="37.7266217" lon="15.1842867"><ele>87.0</ele><time>2026-04-28T07:55:16.212Z</time></trkpt><trkpt lat="37.726705" lon="15.1842883"><ele>87.0</ele><time>2026-04-28T07:55:19.213Z</time></trkpt><trkpt lat="37.7268" lon="15.1842867"><ele>87.0</ele><time>2026-04-28T07:55:22.212Z</time></trkpt><trkpt lat="37.7268667" lon="15.18429"><ele>87.0</ele><time>2026-04-28T07:55:24.212Z</time></trkpt><trkpt lat="37.7269317" lon="15.1843033"><ele>87.0</ele><time>2026-04-28T07:55:27.213Z</time></trkpt><trkpt lat="37.7270017" lon="15.18434"><ele>86.19999999999999</ele><time>2026-04-28T07:55:31.212Z</time></trkpt><trkpt lat="37.7270383" lon="15.1844333"><ele>85.4</ele><time>2026-04-28T07:55:34.212Z</time></trkpt><trkpt lat="37.7270633" lon="15.1845467"><ele>84.6</ele><time>2026-04-28T07:55:37.212Z</time></trkpt><trkpt lat="37.7270867" lon="15.1846567"><ele>83.80000000000001</ele><time>2026-04-28T07:55:39.212Z</time></trkpt><trkpt lat="37.7271267" lon="15.1847833"><ele>83.0</ele><time>2026-04-28T07:55:41.213Z</time></trkpt><trkpt lat="37.7271567" lon="15.1848867"><ele>83.0</ele><time>2026-04-28T07:55:43.212Z</time></trkpt><trkpt lat="37.7271883" lon="15.1849667"><ele>83.0</ele><time>2026-04-28T07:55:45.212Z</time></trkpt><trkpt lat="37.727215" lon="15.18509"><ele>83.0</ele><time>2026-04-28T07:55:48.212Z</time></trkpt><trkpt lat="37.7272333" lon="15.1851917"><ele>83.0</ele><time>2026-04-28T07:55:50.212Z</time></trkpt><trkpt lat="37.7272683" lon="15.185275"><ele>83.0</ele><time>2026-04-28T07:55:52.213Z</time></trkpt><trkpt lat="37.7272883" lon="15.1853633"><ele>83.0</ele><time>2026-04-28T07:55:54.212Z</time></trkpt><trkpt lat="37.7273067" lon="15.1854633"><ele>83.0</ele><time>2026-04-28T07:55:56.211Z</time></trkpt><trkpt lat="37.7273183" lon="15.18557"><ele>83.0</ele><time>2026-04-28T07:55:58.211Z</time></trkpt><trkpt lat="37.7273433" lon="15.1856733"><ele>83.0</ele><time>2026-04-28T07:56:00.211Z</time></trkpt><trkpt lat="37.7273617" lon="15.1857783"><ele>83.0</ele><time>2026-04-28T07:56:02.211Z</time></trkpt><trkpt lat="37.7273767" lon="15.1858667"><ele>83.0</ele><time>2026-04-28T07:56:04.211Z</time></trkpt><trkpt lat="37.7274" lon="15.1859617"><ele>83.0</ele><time>2026-04-28T07:56:06.211Z</time></trkpt><trkpt lat="37.72742" lon="15.1860483"><ele>82.16666666666667</ele><time>2026-04-28T07:56:08.211Z</time></trkpt><trkpt lat="37.727445" lon="15.1861417"><ele>81.33333333333334</ele><time>2026-04-28T07:56:10.212Z</time></trkpt><trkpt lat="37.7274667" lon="15.1862417"><ele>80.5</ele><time>2026-04-28T07:56:12.211Z</time></trkpt><trkpt lat="37.727485" lon="15.1863333"><ele>79.66666666666667</ele><time>2026-04-28T07:56:14.211Z</time></trkpt><trkpt lat="37.7275033" lon="15.18642"><ele>78.83333333333333</ele><time>2026-04-28T07:56:16.211Z</time></trkpt><trkpt lat="37.7275283" lon="15.1865167"><ele>78.0</ele><time>2026-04-28T07:56:18.212Z</time></trkpt><trkpt lat="37.727555" lon="15.1866017"><ele>77.66666666666667</ele><time>2026-04-28T07:56:20.211Z</time></trkpt><trkpt lat="37.727565" lon="15.186705"><ele>77.33333333333333</ele><time>2026-04-28T07:56:23.211Z</time></trkpt><trkpt lat="37.7275633" lon="15.1867867"><ele>77.0</ele><time>2026-04-28T07:56:26.211Z</time></trkpt><trkpt lat="37.7276017" lon="15.1868983"><ele>76.66666666666666</ele><time>2026-04-28T07:56:29.211Z</time></trkpt><trkpt lat="37.727635" lon="15.1870483"><ele>76.33333333333333</ele><time>2026-04-28T07:56:31.211Z</time></trkpt><trkpt lat="37.7276533" lon="15.187135"><ele>76.0</ele><time>2026-04-28T07:56:32.211Z</time></trkpt><trkpt lat="37.7276733" lon="15.187225"><ele>76.0</ele><time>2026-04-28T07:56:33.211Z</time></trkpt><trkpt lat="37.7276933" lon="15.18732"><ele>76.0</ele><time>2026-04-28T07:56:34.211Z</time></trkpt><trkpt lat="37.72771" lon="15.1874183"><ele>76.0</ele><time>2026-04-28T07:56:35.212Z</time></trkpt><trkpt lat="37.7277317" lon="15.187515"><ele>76.0</ele><time>2026-04-28T07:56:36.211Z</time></trkpt><trkpt lat="37.7277517" lon="15.1876133"><ele>76.0</ele><time>2026-04-28T07:56:37.211Z</time></trkpt><trkpt lat="37.7277683" lon="15.1877133"><ele>76.0</ele><time>2026-04-28T07:56:38.211Z</time></trkpt><trkpt lat="37.72779" lon="15.1878133"><ele>75.0</ele><time>2026-04-28T07:56:39.211Z</time></trkpt><trkpt lat="37.7278117" lon="15.1879133"><ele>74.0</ele><time>2026-04-28T07:56:40.211Z</time></trkpt><trkpt lat="37.7278317" lon="15.1880083"><ele>73.0</ele><time>2026-04-28T07:56:41.211Z</time></trkpt><trkpt lat="37.7278467" lon="15.1881"><ele>72.0</ele><time>2026-04-28T07:56:42.211Z</time></trkpt><trkpt lat="37.7278683" lon="15.1881933"><ele>71.0</ele><time>2026-04-28T07:56:43.211Z</time></trkpt><trkpt lat="37.72789" lon="15.1882833"><ele>70.0</ele><time>2026-04-28T07:56:44.211Z</time></trkpt><trkpt lat="37.7279183" lon="15.18837"><ele>69.16666666666666</ele><time>2026-04-28T07:56:45.211Z</time></trkpt><trkpt lat="37.72795" lon="15.1884667"><ele>68.33333333333333</ele><time>2026-04-28T07:56:46.211Z</time></trkpt><trkpt lat="37.727975" lon="15.1885567"><ele>67.5</ele><time>2026-04-28T07:56:47.212Z</time></trkpt><trkpt lat="37.728005" lon="15.1886467"><ele>66.66666666666667</ele><time>2026-04-28T07:56:48.211Z</time></trkpt><trkpt lat="37.72803" lon="15.1887333"><ele>65.83333333333334</ele><time>2026-04-28T07:56:49.211Z</time></trkpt><trkpt lat="37.72805" lon="15.1888233"><ele>65.0</ele><time>2026-04-28T07:56:50.211Z</time></trkpt><trkpt lat="37.7280667" lon="15.1889133"><ele>65.00000000000001</ele><time>2026-04-28T07:56:51.211Z</time></trkpt><trkpt lat="37.7280883" lon="15.188995"><ele>65.0</ele><time>2026-04-28T07:56:52.211Z</time></trkpt><trkpt lat="37.7281083" lon="15.189085"><ele>65.0</ele><time>2026-04-28T07:56:53.211Z</time></trkpt><trkpt lat="37.7281233" lon="15.1891817"><ele>65.0</ele><time>2026-04-28T07:56:54.211Z</time></trkpt><trkpt lat="37.728145" lon="15.18927"><ele>65.0</ele><time>2026-04-28T07:56:55.211Z</time></trkpt><trkpt lat="37.7281667" lon="15.1893467"><ele>65.00000000000001</ele><time>2026-04-28T07:56:56.211Z</time></trkpt><trkpt lat="37.7281967" lon="15.1894217"><ele>65.0</ele><time>2026-04-28T07:56:57.211Z</time></trkpt><trkpt lat="37.7282433" lon="15.18958"><ele>65.14285714285715</ele><time>2026-04-28T07:56:59.211Z</time></trkpt><trkpt lat="37.7282517" lon="15.1896733"><ele>65.28571428571429</ele><time>2026-04-28T07:57:00.211Z</time></trkpt><trkpt lat="37.7282633" lon="15.1897667"><ele>65.42857142857143</ele><time>2026-04-28T07:57:01.211Z</time></trkpt><trkpt lat="37.7282783" lon="15.189855"><ele>65.57142857142858</ele><time>2026-04-28T07:57:02.211Z</time></trkpt><trkpt lat="37.7282967" lon="15.1899417"><ele>65.71428571428572</ele><time>2026-04-28T07:57:03.211Z</time></trkpt><trkpt lat="37.7283183" lon="15.19003"><ele>65.85714285714286</ele><time>2026-04-28T07:57:04.211Z</time></trkpt><trkpt lat="37.72834" lon="15.190125"><ele>66.0</ele><time>2026-04-28T07:57:05.211Z</time></trkpt><trkpt lat="37.7283683" lon="15.1902217"><ele>65.16666666666667</ele><time>2026-04-28T07:57:06.211Z</time></trkpt><trkpt lat="37.7283883" lon="15.190315"><ele>64.33333333333333</ele><time>2026-04-28T07:57:07.212Z</time></trkpt><trkpt lat="37.7284067" lon="15.190405"><ele>63.5</ele><time>2026-04-28T07:57:08.211Z</time></trkpt><trkpt lat="37.72843" lon="15.1904933"><ele>62.666666666666664</ele><time>2026-04-28T07:57:09.211Z</time></trkpt><trkpt lat="37.72846" lon="15.190585"><ele>61.83333333333333</ele><time>2026-04-28T07:57:10.211Z</time></trkpt><trkpt lat="37.7284817" lon="15.1906817"><ele>61.0</ele><time>2026-04-28T07:57:11.211Z</time></trkpt><trkpt lat="37.7285017" lon="15.1907833"><ele>60.83333333333333</ele><time>2026-04-28T07:57:12.212Z</time></trkpt><trkpt lat="37.72852" lon="15.190885"><ele>60.666666666666664</ele><time>2026-04-28T07:57:13.211Z</time></trkpt><trkpt lat="37.7285383" lon="15.190985"><ele>60.5</ele><time>2026-04-28T07:57:14.211Z</time></trkpt><trkpt lat="37.72856" lon="15.1910817"><ele>60.33333333333333</ele><time>2026-04-28T07:57:15.211Z</time></trkpt><trkpt lat="37.7285783" lon="15.1911683"><ele>60.166666666666664</ele><time>2026-04-28T07:57:16.211Z</time></trkpt><trkpt lat="37.7285983" lon="15.1912517"><ele>60.0</ele><time>2026-04-28T07:57:17.211Z</time></trkpt><trkpt lat="37.7286133" lon="15.1913367"><ele>60.0</ele><time>2026-04-28T07:57:18.211Z</time></trkpt><trkpt lat="37.728625" lon="15.191415"><ele>60.0</ele><time>2026-04-28T07:57:19.211Z</time></trkpt><trkpt lat="37.7286467" lon="15.191575"><ele>60.0</ele><time>2026-04-28T07:57:21.211Z</time></trkpt><trkpt lat="37.7286967" lon="15.1917267"><ele>60.0</ele><time>2026-04-28T07:57:23.211Z</time></trkpt><trkpt lat="37.7287417" lon="15.1918717"><ele>60.0</ele><time>2026-04-28T07:57:25.211Z</time></trkpt><trkpt lat="37.7287617" lon="15.1920083"><ele>59.0</ele><time>2026-04-28T07:57:27.211Z</time></trkpt><trkpt lat="37.728795" lon="15.19215"><ele>58.0</ele><time>2026-04-28T07:57:29.211Z</time></trkpt><trkpt lat="37.7288283" lon="15.1922883"><ele>57.0</ele><time>2026-04-28T07:57:31.211Z</time></trkpt><trkpt lat="37.7288617" lon="15.1924183"><ele>56.0</ele><time>2026-04-28T07:57:33.211Z</time></trkpt><trkpt lat="37.7288933" lon="15.1925483"><ele>55.0</ele><time>2026-04-28T07:57:35.211Z</time></trkpt><trkpt lat="37.72892" lon="15.1926867"><ele>54.6</ele><time>2026-04-28T07:57:37.211Z</time></trkpt><trkpt lat="37.72895" lon="15.19283"><ele>54.2</ele><time>2026-04-28T07:57:39.211Z</time></trkpt><trkpt lat="37.728975" lon="15.192955"><ele>53.8</ele><time>2026-04-28T07:57:41.211Z</time></trkpt><trkpt lat="37.728995" lon="15.1930533"><ele>53.4</ele><time>2026-04-28T07:57:43.211Z</time></trkpt><trkpt lat="37.7290383" lon="15.1931333"><ele>53.0</ele><time>2026-04-28T07:57:51.211Z</time></trkpt><trkpt lat="37.7290917" lon="15.1932017"><ele>52.50000000000001</ele><time>2026-04-28T07:57:54.211Z</time></trkpt><trkpt lat="37.7290933" lon="15.193295"><ele>52.0</ele><time>2026-04-28T08:02:46.21Z</time></trkpt><trkpt lat="37.729135" lon="15.19346"><ele>51.5</ele><time>2026-04-28T08:02:48.21Z</time></trkpt><trkpt lat="37.729155" lon="15.1935517"><ele>51.0</ele><time>2026-04-28T08:02:49.21Z</time></trkpt><trkpt lat="37.7291833" lon="15.1936383"><ele>50.50000000000001</ele><time>2026-04-28T08:02:50.211Z</time></trkpt><trkpt lat="37.729215" lon="15.19372"><ele>50.0</ele><time>2026-04-28T08:02:51.21Z</time></trkpt><trkpt lat="37.7292483" lon="15.1938717"><ele>49.4</ele><time>2026-04-28T08:02:53.21Z</time></trkpt><trkpt lat="37.7292633" lon="15.1940083"><ele>48.8</ele><time>2026-04-28T08:02:55.21Z</time></trkpt><trkpt lat="37.7293267" lon="15.1941133"><ele>48.2</ele><time>2026-04-28T08:02:57.21Z</time></trkpt><trkpt lat="37.7294083" lon="15.1941267"><ele>47.6</ele><time>2026-04-28T08:02:59.21Z</time></trkpt><trkpt lat="37.72951" lon="15.19403"><ele>47.0</ele><time>2026-04-28T08:03:01.211Z</time></trkpt><trkpt lat="37.7296017" lon="15.1939367"><ele>47.0</ele><time>2026-04-28T08:03:03.21Z</time></trkpt><trkpt lat="37.72969" lon="15.1938567"><ele>47.0</ele><time>2026-04-28T08:03:05.21Z</time></trkpt><trkpt lat="37.7297383" lon="15.1937733"><ele>47.0</ele><time>2026-04-28T08:03:07.21Z</time></trkpt><trkpt lat="37.72974" lon="15.19363"><ele>47.0</ele><time>2026-04-28T08:03:09.21Z</time></trkpt><trkpt lat="37.729695" lon="15.1934833"><ele>47.0</ele><time>2026-04-28T08:03:11.21Z</time></trkpt><trkpt lat="37.729655" lon="15.1933467"><ele>47.0</ele><time>2026-04-28T08:03:13.21Z</time></trkpt><trkpt lat="37.7296117" lon="15.19322"><ele>47.0</ele><time>2026-04-28T08:03:15.21Z</time></trkpt><trkpt lat="37.7295917" lon="15.19312"><ele>47.0</ele><time>2026-04-28T08:03:17.21Z</time></trkpt><trkpt lat="37.72957" lon="15.193025"><ele>47.0</ele><time>2026-04-28T08:03:19.21Z</time></trkpt><trkpt lat="37.7295567" lon="15.1929083"><ele>47.0</ele><time>2026-04-28T08:03:21.211Z</time></trkpt><trkpt lat="37.7295417" lon="15.1928267"><ele>47.0</ele><time>2026-04-28T08:03:22.21Z</time></trkpt><trkpt lat="37.7295067" lon="15.192675"><ele>47.285714285714285</ele><time>2026-04-28T08:03:24.21Z</time></trkpt><trkpt lat="37.7294733" lon="15.1925817"><ele>47.57142857142857</ele><time>2026-04-28T08:03:25.21Z</time></trkpt><trkpt lat="37.7294467" lon="15.1924833"><ele>47.85714285714286</ele><time>2026-04-28T08:03:26.21Z</time></trkpt><trkpt lat="37.7294267" lon="15.1924033"><ele>48.14285714285714</ele><time>2026-04-28T08:03:27.21Z</time></trkpt><trkpt lat="37.7294083" lon="15.1923217"><ele>48.42857142857143</ele><time>2026-04-28T08:03:28.21Z</time></trkpt><trkpt lat="37.7293967" lon="15.1922417"><ele>48.714285714285715</ele><time>2026-04-28T08:03:29.21Z</time></trkpt><trkpt lat="37.729385" lon="15.1921567"><ele>49.0</ele><time>2026-04-28T08:03:30.211Z</time></trkpt><trkpt lat="37.7293483" lon="15.1920217"><ele>50.2</ele><time>2026-04-28T08:03:32.21Z</time></trkpt><trkpt lat="37.7293267" lon="15.191945"><ele>51.400000000000006</ele><time>2026-04-28T08:03:33.21Z</time></trkpt><trkpt lat="37.7292933" lon="15.1917967"><ele>52.6</ele><time>2026-04-28T08:03:35.21Z</time></trkpt><trkpt lat="37.729245" lon="15.191675"><ele>53.8</ele><time>2026-04-28T08:03:37.21Z</time></trkpt><trkpt lat="37.7292117" lon="15.1915533"><ele>55.0</ele><time>2026-04-28T08:03:39.21Z</time></trkpt><trkpt lat="37.7291733" lon="15.191415"><ele>55.83333333333333</ele><time>2026-04-28T08:03:41.211Z</time></trkpt><trkpt lat="37.7291567" lon="15.191335"><ele>56.666666666666664</ele><time>2026-04-28T08:03:42.21Z</time></trkpt><trkpt lat="37.7291283" lon="15.1912517"><ele>57.5</ele><time>2026-04-28T08:03:43.21Z</time></trkpt><trkpt lat="37.7291133" lon="15.1911567"><ele>58.33333333333333</ele><time>2026-04-28T08:03:44.21Z</time></trkpt><trkpt lat="37.7291067" lon="15.1910517"><ele>59.166666666666664</ele><time>2026-04-28T08:03:45.21Z</time></trkpt><trkpt lat="37.72909" lon="15.1909433"><ele>60.0</ele><time>2026-04-28T08:03:46.21Z</time></trkpt><trkpt lat="37.7290767" lon="15.1908283"><ele>60.0</ele><time>2026-04-28T08:03:47.21Z</time></trkpt><trkpt lat="37.7290617" lon="15.19074"><ele>60.0</ele><time>2026-04-28T08:03:48.21Z</time></trkpt><trkpt lat="37.7290267" lon="15.1905983"><ele>60.0</ele><time>2026-04-28T08:03:50.21Z</time></trkpt><trkpt lat="37.7289917" lon="15.1904833"><ele>60.0</ele><time>2026-04-28T08:03:52.21Z</time></trkpt><trkpt lat="37.729015" lon="15.1903917"><ele>60.0</ele><time>2026-04-28T08:03:55.211Z</time></trkpt><trkpt lat="37.72912" lon="15.1903383"><ele>59.75</ele><time>2026-04-28T08:03:57.21Z</time></trkpt><trkpt lat="37.7292117" lon="15.1902983"><ele>59.5</ele><time>2026-04-28T08:03:58.21Z</time></trkpt><trkpt lat="37.7293133" lon="15.190255"><ele>59.25</ele><time>2026-04-28T08:03:59.21Z</time></trkpt><trkpt lat="37.7294233" lon="15.1902317"><ele>59.0</ele><time>2026-04-28T08:04:00.211Z</time></trkpt><trkpt lat="37.7295633" lon="15.190225"><ele>59.0</ele><time>2026-04-28T08:04:01.21Z</time></trkpt><trkpt lat="37.7296783" lon="15.1901667"><ele>59.0</ele><time>2026-04-28T08:04:02.21Z</time></trkpt><trkpt lat="37.7297917" lon="15.1901167"><ele>59.0</ele><time>2026-04-28T08:04:03.21Z</time></trkpt><trkpt lat="37.7299067" lon="15.1900767"><ele>59.0</ele><time>2026-04-28T08:04:04.21Z</time></trkpt><trkpt lat="37.7300117" lon="15.1900333"><ele>59.0</ele><time>2026-04-28T08:04:05.21Z</time></trkpt><trkpt lat="37.730105" lon="15.189985"><ele>59.00000000000001</ele><time>2026-04-28T08:04:06.21Z</time></trkpt><trkpt lat="37.7302" lon="15.1899567"><ele>59.00000000000001</ele><time>2026-04-28T08:04:07.21Z</time></trkpt><trkpt lat="37.730265" lon="15.1899233"><ele>59.0</ele><time>2026-04-28T08:04:08.21Z</time></trkpt><trkpt lat="37.7303233" lon="15.1898233"><ele>59.0</ele><time>2026-04-28T08:04:10.21Z</time></trkpt><trkpt lat="37.73031" lon="15.1896583"><ele>58.6</ele><time>2026-04-28T08:04:12.21Z</time></trkpt><trkpt lat="37.7302883" lon="15.1895517"><ele>58.2</ele><time>2026-04-28T08:04:13.21Z</time></trkpt><trkpt lat="37.7302617" lon="15.1894283"><ele>57.800000000000004</ele><time>2026-04-28T08:04:14.21Z</time></trkpt><trkpt lat="37.7302333" lon="15.1893017"><ele>57.400000000000006</ele><time>2026-04-28T08:04:15.211Z</time></trkpt><trkpt lat="37.7301983" lon="15.1891917"><ele>57.0</ele><time>2026-04-28T08:04:16.21Z</time></trkpt><trkpt lat="37.7301717" lon="15.189105"><ele>58.0</ele><time>2026-04-28T08:04:17.21Z</time></trkpt><trkpt lat="37.7301433" lon="15.1890067"><ele>59.0</ele><time>2026-04-28T08:04:19.21Z</time></trkpt><trkpt lat="37.73012" lon="15.188915"><ele>60.0</ele><time>2026-04-28T08:04:22.21Z</time></trkpt><trkpt lat="37.7300983" lon="15.1887867"><ele>61.0</ele><time>2026-04-28T08:04:24.21Z</time></trkpt><trkpt lat="37.730065" lon="15.1886683"><ele>62.0</ele><time>2026-04-28T08:04:26.21Z</time></trkpt><trkpt lat="37.7300883" lon="15.1885767"><ele>63.0</ele><time>2026-04-28T08:04:29.21Z</time></trkpt><trkpt lat="37.73018" lon="15.18856"><ele>61.8</ele><time>2026-04-28T08:04:31.21Z</time></trkpt><trkpt lat="37.7302483" lon="15.1885317"><ele>60.599999999999994</ele><time>2026-04-28T08:04:33.21Z</time></trkpt><trkpt lat="37.7303383" lon="15.18849"><ele>59.400000000000006</ele><time>2026-04-28T08:04:36.21Z</time></trkpt><trkpt lat="37.73042" lon="15.1884733"><ele>58.2</ele><time>2026-04-28T08:04:38.21Z</time></trkpt><trkpt lat="37.730545" lon="15.1884433"><ele>57.0</ele><time>2026-04-28T08:04:40.21Z</time></trkpt><trkpt lat="37.7306633" lon="15.1884067"><ele>57.0</ele><time>2026-04-28T08:04:42.21Z</time></trkpt><trkpt lat="37.7307767" lon="15.188375"><ele>57.0</ele><time>2026-04-28T08:04:44.21Z</time></trkpt><trkpt lat="37.7308733" lon="15.1883183"><ele>57.0</ele><time>2026-04-28T08:04:46.21Z</time></trkpt><trkpt lat="37.7309433" lon="15.1882833"><ele>57.0</ele><time>2026-04-28T08:04:48.21Z</time></trkpt><trkpt lat="37.7310117" lon="15.1882633"><ele>57.0</ele><time>2026-04-28T08:04:53.21Z</time></trkpt><trkpt lat="37.731075" lon="15.1882317"><ele>57.0</ele><time>2026-04-28T08:04:55.21Z</time></trkpt><trkpt lat="37.7311767" lon="15.1881933"><ele>57.0</ele><time>2026-04-28T08:04:57.211Z</time></trkpt><trkpt lat="37.731305" lon="15.188145"><ele>57.0</ele><time>2026-04-28T08:04:59.211Z</time></trkpt><trkpt lat="37.7313817" lon="15.1881117"><ele>57.0</ele><time>2026-04-28T08:05:00.21Z</time></trkpt><trkpt lat="37.7314617" lon="15.188085"><ele>57.0</ele><time>2026-04-28T08:05:01.21Z</time></trkpt><trkpt lat="37.7315383" lon="15.1880617"><ele>57.0</ele><time>2026-04-28T08:05:02.21Z</time></trkpt><trkpt lat="37.7316217" lon="15.1880367"><ele>57.0</ele><time>2026-04-28T08:05:03.21Z</time></trkpt><trkpt lat="37.731715" lon="15.1879883"><ele>57.0</ele><time>2026-04-28T08:05:04.21Z</time></trkpt><trkpt lat="37.731815" lon="15.18796"><ele>57.0</ele><time>2026-04-28T08:05:05.21Z</time></trkpt><trkpt lat="37.7319283" lon="15.1879167"><ele>57.0</ele><time>2026-04-28T08:05:06.21Z</time></trkpt><trkpt lat="37.7320367" lon="15.1878833"><ele>57.0</ele><time>2026-04-28T08:05:07.21Z</time></trkpt><trkpt lat="37.7321417" lon="15.18785"><ele>56.8</ele><time>2026-04-28T08:05:08.21Z</time></trkpt><trkpt lat="37.7322483" lon="15.1878133"><ele>56.6</ele><time>2026-04-28T08:05:09.211Z</time></trkpt><trkpt lat="37.73235" lon="15.18778"><ele>56.39999999999999</ele><time>2026-04-28T08:05:10.21Z</time></trkpt><trkpt lat="37.7324433" lon="15.1877467"><ele>56.199999999999996</ele><time>2026-04-28T08:05:11.21Z</time></trkpt><trkpt lat="37.7325267" lon="15.1877167"><ele>56.0</ele><time>2026-04-28T08:05:12.21Z</time></trkpt><trkpt lat="37.7326033" lon="15.1876867"><ele>56.0</ele><time>2026-04-28T08:05:13.21Z</time></trkpt><trkpt lat="37.7326683" lon="15.18765"><ele>55.99999999999999</ele><time>2026-04-28T08:05:14.21Z</time></trkpt><trkpt lat="37.7327283" lon="15.1876233"><ele>55.99999999999999</ele><time>2026-04-28T08:05:15.21Z</time></trkpt><trkpt lat="37.7328433" lon="15.187585"><ele>56.0</ele><time>2026-04-28T08:05:17.21Z</time></trkpt><trkpt lat="37.7329467" lon="15.1875533"><ele>56.0</ele><time>2026-04-28T08:05:19.211Z</time></trkpt><trkpt lat="37.7330533" lon="15.1875183"><ele>55.199999999999996</ele><time>2026-04-28T08:05:21.211Z</time></trkpt><trkpt lat="37.733115" lon="15.1874983"><ele>54.39999999999999</ele><time>2026-04-28T08:05:22.21Z</time></trkpt><trkpt lat="37.7332283" lon="15.1874617"><ele>53.6</ele><time>2026-04-28T08:05:24.21Z</time></trkpt><trkpt lat="37.7333433" lon="15.1874217"><ele>52.8</ele><time>2026-04-28T08:05:26.21Z</time></trkpt><trkpt lat="37.7334567" lon="15.1873817"><ele>52.0</ele><time>2026-04-28T08:05:28.21Z</time></trkpt><trkpt lat="37.7335817" lon="15.1873467"><ele>51.6</ele><time>2026-04-28T08:05:30.21Z</time></trkpt><trkpt lat="37.73365" lon="15.1873267"><ele>51.2</ele><time>2026-04-28T08:05:31.21Z</time></trkpt><trkpt lat="37.7337217" lon="15.1873"><ele>50.8</ele><time>2026-04-28T08:05:32.21Z</time></trkpt><trkpt lat="37.7338117" lon="15.1872583"><ele>50.4</ele><time>2026-04-28T08:05:33.211Z</time></trkpt><trkpt lat="37.7339117" lon="15.187225"><ele>50.0</ele><time>2026-04-28T08:05:34.21Z</time></trkpt><trkpt lat="37.73402" lon="15.1871967"><ele>50.0</ele><time>2026-04-28T08:05:35.21Z</time></trkpt><trkpt lat="37.73413" lon="15.1871683"><ele>50.0</ele><time>2026-04-28T08:05:36.21Z</time></trkpt><trkpt lat="37.734245" lon="15.1871383"><ele>50.0</ele><time>2026-04-28T08:05:37.21Z</time></trkpt><trkpt lat="37.7343667" lon="15.1871017"><ele>50.0</ele><time>2026-04-28T08:05:38.211Z</time></trkpt><trkpt lat="37.7344933" lon="15.1870667"><ele>49.75</ele><time>2026-04-28T08:05:39.21Z</time></trkpt><trkpt lat="37.734625" lon="15.1870233"><ele>49.5</ele><time>2026-04-28T08:05:40.21Z</time></trkpt><trkpt lat="37.7347517" lon="15.1869883"><ele>49.25</ele><time>2026-04-28T08:05:41.21Z</time></trkpt><trkpt lat="37.73487" lon="15.186955"><ele>49.0</ele><time>2026-04-28T08:05:42.21Z</time></trkpt><trkpt lat="37.7349783" lon="15.1869217"><ele>49.0</ele><time>2026-04-28T08:05:43.21Z</time></trkpt><trkpt lat="37.7350917" lon="15.1868867"><ele>49.0</ele><time>2026-04-28T08:05:44.21Z</time></trkpt><trkpt lat="37.735195" lon="15.1868567"><ele>49.0</ele><time>2026-04-28T08:05:45.21Z</time></trkpt><trkpt lat="37.7352933" lon="15.1868317"><ele>49.0</ele><time>2026-04-28T08:05:46.21Z</time></trkpt><trkpt lat="37.7353867" lon="15.186805"><ele>49.0</ele><time>2026-04-28T08:05:47.21Z</time></trkpt><trkpt lat="37.73547" lon="15.1867867"><ele>48.49999999999999</ele><time>2026-04-28T08:05:48.21Z</time></trkpt><trkpt lat="37.73555" lon="15.1867717"><ele>48.0</ele><time>2026-04-28T08:05:49.21Z</time></trkpt><trkpt lat="37.7356283" lon="15.186745"><ele>47.5</ele><time>2026-04-28T08:05:50.21Z</time></trkpt><trkpt lat="37.7357083" lon="15.186715"><ele>47.0</ele><time>2026-04-28T08:05:51.21Z</time></trkpt><trkpt lat="37.7357883" lon="15.18669"><ele>46.5</ele><time>2026-04-28T08:05:52.21Z</time></trkpt><trkpt lat="37.7358617" lon="15.1866683"><ele>46.0</ele><time>2026-04-28T08:05:53.211Z</time></trkpt><trkpt lat="37.7359383" lon="15.186655"><ele>46.0</ele><time>2026-04-28T08:05:54.21Z</time></trkpt><trkpt lat="37.7360167" lon="15.18665"><ele>46.0</ele><time>2026-04-28T08:05:55.21Z</time></trkpt><trkpt lat="37.7360867" lon="15.1866567"><ele>46.0</ele><time>2026-04-28T08:05:56.21Z</time></trkpt><trkpt lat="37.73616" lon="15.18666"><ele>46.0</ele><time>2026-04-28T08:05:57.21Z</time></trkpt><trkpt lat="37.7362233" lon="15.18666"><ele>46.0</ele><time>2026-04-28T08:05:58.21Z</time></trkpt><trkpt lat="37.73634" lon="15.1866217"><ele>46.0</ele><time>2026-04-28T08:06:00.21Z</time></trkpt><trkpt lat="37.7364033" lon="15.186585"><ele>45.199999999999996</ele><time>2026-04-28T08:06:01.21Z</time></trkpt><trkpt lat="37.7364717" lon="15.1865317"><ele>44.4</ele><time>2026-04-28T08:06:02.21Z</time></trkpt><trkpt lat="37.7365483" lon="15.1864583"><ele>43.6</ele><time>2026-04-28T08:06:03.21Z</time></trkpt><trkpt lat="37.736625" lon="15.1863683"><ele>42.8</ele><time>2026-04-28T08:06:04.21Z</time></trkpt><trkpt lat="37.7367033" lon="15.1862667"><ele>42.0</ele><time>2026-04-28T08:06:05.211Z</time></trkpt><trkpt lat="37.73678" lon="15.1861717"><ele>42.0</ele><time>2026-04-28T08:06:06.21Z</time></trkpt><trkpt lat="37.7368483" lon="15.1860833"><ele>42.0</ele><time>2026-04-28T08:06:07.21Z</time></trkpt><trkpt lat="37.7369067" lon="15.186005"><ele>42.0</ele><time>2026-04-28T08:06:08.211Z</time></trkpt><trkpt lat="37.7369617" lon="15.1859283"><ele>42.0</ele><time>2026-04-28T08:06:09.21Z</time></trkpt><trkpt lat="37.7370167" lon="15.1858583"><ele>42.0</ele><time>2026-04-28T08:06:10.211Z</time></trkpt><trkpt lat="37.7370683" lon="15.185785"><ele>42.0</ele><time>2026-04-28T08:06:11.21Z</time></trkpt><trkpt lat="37.7371183" lon="15.1857183"><ele>42.0</ele><time>2026-04-28T08:06:12.21Z</time></trkpt><trkpt lat="37.7371717" lon="15.1856567"><ele>42.0</ele><time>2026-04-28T08:06:13.21Z</time></trkpt><trkpt lat="37.73724" lon="15.18561"><ele>42.0</ele><time>2026-04-28T08:06:14.211Z</time></trkpt><trkpt lat="37.73732" lon="15.1855883"><ele>42.0</ele><time>2026-04-28T08:06:15.21Z</time></trkpt><trkpt lat="37.7374067" lon="15.1856133"><ele>42.0</ele><time>2026-04-28T08:06:16.21Z</time></trkpt><trkpt lat="37.7375133" lon="15.18566"><ele>42.0</ele><time>2026-04-28T08:06:17.21Z</time></trkpt><trkpt lat="37.7376433" lon="15.1857033"><ele>41.5</ele><time>2026-04-28T08:06:18.21Z</time></trkpt><trkpt lat="37.73777" lon="15.1857483"><ele>41.0</ele><time>2026-04-28T08:06:19.21Z</time></trkpt><trkpt lat="37.7379" lon="15.1858033"><ele>40.5</ele><time>2026-04-28T08:06:20.21Z</time></trkpt><trkpt lat="37.7380333" lon="15.1858517"><ele>40.0</ele><time>2026-04-28T08:06:21.21Z</time></trkpt><trkpt lat="37.7381583" lon="15.1859017"><ele>40.0</ele><time>2026-04-28T08:06:22.21Z</time></trkpt><trkpt lat="37.73827" lon="15.1859517"><ele>40.0</ele><time>2026-04-28T08:06:23.211Z</time></trkpt><trkpt lat="37.73838" lon="15.1859917"><ele>40.0</ele><time>2026-04-28T08:06:24.211Z</time></trkpt><trkpt lat="37.7384833" lon="15.1860267"><ele>40.0</ele><time>2026-04-28T08:06:25.21Z</time></trkpt><trkpt lat="37.738595" lon="15.186065"><ele>39.8</ele><time>2026-04-28T08:06:26.21Z</time></trkpt><trkpt lat="37.7387" lon="15.1861"><ele>39.6</ele><time>2026-04-28T08:06:27.21Z</time></trkpt><trkpt lat="37.738815" lon="15.1861383"><ele>39.4</ele><time>2026-04-28T08:06:28.21Z</time></trkpt><trkpt lat="37.73893" lon="15.1861667"><ele>39.2</ele><time>2026-04-28T08:06:29.21Z</time></trkpt><trkpt lat="37.73903" lon="15.1861933"><ele>39.0</ele><time>2026-04-28T08:06:30.211Z</time></trkpt><trkpt lat="37.7391317" lon="15.186215"><ele>39.0</ele><time>2026-04-28T08:06:31.21Z</time></trkpt><trkpt lat="37.7392283" lon="15.1862367"><ele>39.0</ele><time>2026-04-28T08:06:32.21Z</time></trkpt><trkpt lat="37.7393217" lon="15.186255"><ele>39.0</ele><time>2026-04-28T08:06:33.21Z</time></trkpt><trkpt lat="37.73941" lon="15.1862717"><ele>39.0</ele><time>2026-04-28T08:06:34.211Z</time></trkpt><trkpt lat="37.739495" lon="15.186285"><ele>39.0</ele><time>2026-04-28T08:06:35.211Z</time></trkpt><trkpt lat="37.73957" lon="15.1862967"><ele>39.0</ele><time>2026-04-28T08:06:36.21Z</time></trkpt><trkpt lat="37.7396633" lon="15.186325"><ele>38.4</ele><time>2026-04-28T08:06:38.21Z</time></trkpt><trkpt lat="37.7397467" lon="15.1863383"><ele>37.8</ele><time>2026-04-28T08:06:41.21Z</time></trkpt><trkpt lat="37.739825" lon="15.1863483"><ele>37.2</ele><time>2026-04-28T08:06:43.211Z</time></trkpt><trkpt lat="37.7399267" lon="15.1863667"><ele>36.6</ele><time>2026-04-28T08:06:45.21Z</time></trkpt><trkpt lat="37.7400417" lon="15.186385"><ele>36.0</ele><time>2026-04-28T08:06:47.21Z</time></trkpt><trkpt lat="37.7401633" lon="15.1863983"><ele>36.0</ele><time>2026-04-28T08:06:49.21Z</time></trkpt><trkpt lat="37.7402817" lon="15.1864117"><ele>36.0</ele><time>2026-04-28T08:06:51.21Z</time></trkpt><trkpt lat="37.740395" lon="15.1864017"><ele>36.0</ele><time>2026-04-28T08:06:53.21Z</time></trkpt><trkpt lat="37.7404883" lon="15.1863317"><ele>36.0</ele><time>2026-04-28T08:06:55.211Z</time></trkpt><trkpt lat="37.740545" lon="15.1862717"><ele>36.0</ele><time>2026-04-28T08:06:57.21Z</time></trkpt><trkpt lat="37.7406083" lon="15.186205"><ele>36.0</ele><time>2026-04-28T08:07:26.21Z</time></trkpt><trkpt lat="37.7406817" lon="15.1862367"><ele>36.0</ele><time>2026-04-28T08:07:28.21Z</time></trkpt><trkpt lat="37.7407567" lon="15.1863"><ele>36.0</ele><time>2026-04-28T08:07:30.21Z</time></trkpt><trkpt lat="37.740815" lon="15.1863983"><ele>36.0</ele><time>2026-04-28T08:07:32.21Z</time></trkpt><trkpt lat="37.74086" lon="15.1864583"><ele>36.0</ele><time>2026-04-28T08:07:35.211Z</time></trkpt><trkpt lat="37.74092" lon="15.1865167"><ele>36.0</ele><time>2026-04-28T08:07:37.21Z</time></trkpt><trkpt lat="37.74105" lon="15.1865467"><ele>35.4</ele><time>2026-04-28T08:07:39.21Z</time></trkpt><trkpt lat="37.74114" lon="15.186565"><ele>34.8</ele><time>2026-04-28T08:07:40.21Z</time></trkpt><trkpt lat="37.741245" lon="15.1865883"><ele>34.199999999999996</ele><time>2026-04-28T08:07:41.21Z</time></trkpt><trkpt lat="37.7413483" lon="15.1866083"><ele>33.6</ele><time>2026-04-28T08:07:42.21Z</time></trkpt><trkpt lat="37.741455" lon="15.1866283"><ele>33.0</ele><time>2026-04-28T08:07:43.21Z</time></trkpt><trkpt lat="37.7415667" lon="15.186645"><ele>33.0</ele><time>2026-04-28T08:07:44.21Z</time></trkpt><trkpt lat="37.7416767" lon="15.186665"><ele>33.0</ele><time>2026-04-28T08:07:45.21Z</time></trkpt><trkpt lat="37.741795" lon="15.1866833"><ele>33.0</ele><time>2026-04-28T08:07:46.21Z</time></trkpt><trkpt lat="37.7419067" lon="15.1867117"><ele>33.0</ele><time>2026-04-28T08:07:47.21Z</time></trkpt><trkpt lat="37.7420267" lon="15.1867417"><ele>32.5</ele><time>2026-04-28T08:07:48.21Z</time></trkpt><trkpt lat="37.74215" lon="15.1867817"><ele>32.0</ele><time>2026-04-28T08:07:49.21Z</time></trkpt><trkpt lat="37.742265" lon="15.1868217"><ele>31.5</ele><time>2026-04-28T08:07:50.211Z</time></trkpt><trkpt lat="37.74239" lon="15.1868667"><ele>31.0</ele><time>2026-04-28T08:07:51.21Z</time></trkpt><trkpt lat="37.7425167" lon="15.1869117"><ele>31.0</ele><time>2026-04-28T08:07:52.21Z</time></trkpt><trkpt lat="37.7426383" lon="15.1869483"><ele>31.0</ele><time>2026-04-28T08:07:53.211Z</time></trkpt><trkpt lat="37.742745" lon="15.1869867"><ele>31.0</ele><time>2026-04-28T08:07:54.21Z</time></trkpt><trkpt lat="37.742855" lon="15.1870367"><ele>31.0</ele><time>2026-04-28T08:07:55.21Z</time></trkpt><trkpt lat="37.7429633" lon="15.1870833"><ele>31.200000000000003</ele><time>2026-04-28T08:07:56.21Z</time></trkpt><trkpt lat="37.7430667" lon="15.18714"><ele>31.400000000000002</ele><time>2026-04-28T08:07:57.21Z</time></trkpt><trkpt lat="37.7431583" lon="15.1871883"><ele>31.6</ele><time>2026-04-28T08:07:58.21Z</time></trkpt><trkpt lat="37.7432483" lon="15.187235"><ele>31.8</ele><time>2026-04-28T08:07:59.21Z</time></trkpt><trkpt lat="37.743325" lon="15.1872733"><ele>32.0</ele><time>2026-04-28T08:08:00.21Z</time></trkpt><trkpt lat="37.7433917" lon="15.1873067"><ele>31.999999999999996</ele><time>2026-04-28T08:08:01.21Z</time></trkpt><trkpt lat="37.7434533" lon="15.187325"><ele>32.0</ele><time>2026-04-28T08:08:02.21Z</time></trkpt><trkpt lat="37.7435283" lon="15.18734"><ele>32.0</ele><time>2026-04-28T08:08:04.21Z</time></trkpt><trkpt lat="37.743595" lon="15.18733"><ele>32.0</ele><time>2026-04-28T08:08:09.21Z</time></trkpt><trkpt lat="37.74364" lon="15.187245"><ele>31.999999999999996</ele><time>2026-04-28T08:08:11.21Z</time></trkpt><trkpt lat="37.7436783" lon="15.1871117"><ele>32.0</ele><time>2026-04-28T08:08:13.21Z</time></trkpt><trkpt lat="37.743775" lon="15.1870433"><ele>32.0</ele><time>2026-04-28T08:08:15.211Z</time></trkpt><trkpt lat="37.743915" lon="15.1870633"><ele>32.0</ele><time>2026-04-28T08:08:17.211Z</time></trkpt><trkpt lat="37.744015" lon="15.1870917"><ele>32.0</ele><time>2026-04-28T08:08:18.21Z</time></trkpt><trkpt lat="37.7441283" lon="15.1871233"><ele>32.0</ele><time>2026-04-28T08:08:19.21Z</time></trkpt><trkpt lat="37.7442567" lon="15.187155"><ele>31.75</ele><time>2026-04-28T08:08:20.21Z</time></trkpt><trkpt lat="37.7443867" lon="15.18719"><ele>31.5</ele><time>2026-04-28T08:08:21.211Z</time></trkpt><trkpt lat="37.7445233" lon="15.187225"><ele>31.25</ele><time>2026-04-28T08:08:22.21Z</time></trkpt><trkpt lat="37.74467" lon="15.187255"><ele>31.0</ele><time>2026-04-28T08:08:23.21Z</time></trkpt><trkpt lat="37.7448283" lon="15.187285"><ele>31.0</ele><time>2026-04-28T08:08:24.21Z</time></trkpt><trkpt lat="37.7449867" lon="15.187295"><ele>31.0</ele><time>2026-04-28T08:08:25.21Z</time></trkpt><trkpt lat="37.745145" lon="15.1873083"><ele>31.0</ele><time>2026-04-28T08:08:26.21Z</time></trkpt><trkpt lat="37.745305" lon="15.1873167"><ele>31.5</ele><time>2026-04-28T08:08:27.211Z</time></trkpt><trkpt lat="37.74545" lon="15.187325"><ele>32.0</ele><time>2026-04-28T08:08:28.211Z</time></trkpt><trkpt lat="37.7455967" lon="15.1873433"><ele>32.5</ele><time>2026-04-28T08:08:29.21Z</time></trkpt><trkpt lat="37.745735" lon="15.1873567"><ele>33.0</ele><time>2026-04-28T08:08:30.21Z</time></trkpt><trkpt lat="37.7458783" lon="15.1873683"><ele>33.0</ele><time>2026-04-28T08:08:31.21Z</time></trkpt><trkpt lat="37.7460167" lon="15.1873783"><ele>33.0</ele><time>2026-04-28T08:08:32.21Z</time></trkpt><trkpt lat="37.7461483" lon="15.187395"><ele>33.0</ele><time>2026-04-28T08:08:33.21Z</time></trkpt><trkpt lat="37.746285" lon="15.1874067"><ele>33.0</ele><time>2026-04-28T08:08:34.211Z</time></trkpt><trkpt lat="37.746405" lon="15.1874183"><ele>33.4</ele><time>2026-04-28T08:08:35.21Z</time></trkpt><trkpt lat="37.7465183" lon="15.1874283"><ele>33.8</ele><time>2026-04-28T08:08:36.21Z</time></trkpt><trkpt lat="37.7466167" lon="15.187435"><ele>34.2</ele><time>2026-04-28T08:08:37.21Z</time></trkpt><trkpt lat="37.746705" lon="15.1874367"><ele>34.6</ele><time>2026-04-28T08:08:38.21Z</time></trkpt><trkpt lat="37.74679" lon="15.1874317"><ele>35.0</ele><time>2026-04-28T08:08:39.211Z</time></trkpt><trkpt lat="37.7468767" lon="15.18743"><ele>36.5</ele><time>2026-04-28T08:08:40.21Z</time></trkpt><trkpt lat="37.7469517" lon="15.1873883"><ele>38.0</ele><time>2026-04-28T08:08:41.21Z</time></trkpt><trkpt lat="37.74702" lon="15.1873283"><ele>39.5</ele><time>2026-04-28T08:08:42.21Z</time></trkpt><trkpt lat="37.7470733" lon="15.1872383"><ele>41.0</ele><time>2026-04-28T08:08:43.21Z</time></trkpt><trkpt lat="37.7471067" lon="15.1871283"><ele>42.5</ele><time>2026-04-28T08:08:44.21Z</time></trkpt><trkpt lat="37.74712" lon="15.187"><ele>44.0</ele><time>2026-04-28T08:08:45.21Z</time></trkpt><trkpt lat="37.74712" lon="15.1868733"><ele>44.0</ele><time>2026-04-28T08:08:46.21Z</time></trkpt><trkpt lat="37.747135" lon="15.1867483"><ele>44.0</ele><time>2026-04-28T08:08:47.21Z</time></trkpt><trkpt lat="37.7471817" lon="15.18663"><ele>44.0</ele><time>2026-04-28T08:08:48.211Z</time></trkpt><trkpt lat="37.7472517" lon="15.1865267"><ele>44.0</ele><time>2026-04-28T08:08:49.21Z</time></trkpt><trkpt lat="37.7473367" lon="15.186435"><ele>44.0</ele><time>2026-04-28T08:08:50.209Z</time></trkpt><trkpt lat="37.7474283" lon="15.1863517"><ele>43.25</ele><time>2026-04-28T08:08:51.209Z</time></trkpt><trkpt lat="37.747535" lon="15.1862767"><ele>42.5</ele><time>2026-04-28T08:08:52.209Z</time></trkpt><trkpt lat="37.7476567" lon="15.1862317"><ele>41.75</ele><time>2026-04-28T08:08:53.209Z</time></trkpt><trkpt lat="37.74778" lon="15.1862117"><ele>41.0</ele><time>2026-04-28T08:08:54.209Z</time></trkpt><trkpt lat="37.7479083" lon="15.1862067"><ele>43.25</ele><time>2026-04-28T08:08:55.209Z</time></trkpt><trkpt lat="37.7480317" lon="15.1861983"><ele>45.5</ele><time>2026-04-28T08:08:56.209Z</time></trkpt><trkpt lat="37.7481533" lon="15.18619"><ele>47.75</ele><time>2026-04-28T08:08:57.209Z</time></trkpt><trkpt lat="37.748275" lon="15.1861733"><ele>50.0</ele><time>2026-04-28T08:08:58.209Z</time></trkpt><trkpt lat="37.7484" lon="15.1861617"><ele>50.0</ele><time>2026-04-28T08:08:59.209Z</time></trkpt><trkpt lat="37.7485267" lon="15.1861417"><ele>50.0</ele><time>2026-04-28T08:09:00.21Z</time></trkpt><trkpt lat="37.748655" lon="15.1861233"><ele>50.0</ele><time>2026-04-28T08:09:01.209Z</time></trkpt><trkpt lat="37.7487767" lon="15.1861083"><ele>50.0</ele><time>2026-04-28T08:09:02.209Z</time></trkpt><trkpt lat="37.7489" lon="15.1861"><ele>51.5</ele><time>2026-04-28T08:09:03.209Z</time></trkpt><trkpt lat="37.7490333" lon="15.1860833"><ele>53.0</ele><time>2026-04-28T08:09:04.21Z</time></trkpt><trkpt lat="37.7491683" lon="15.1860717"><ele>54.5</ele><time>2026-04-28T08:09:05.21Z</time></trkpt><trkpt lat="37.7493017" lon="15.1860583"><ele>56.0</ele><time>2026-04-28T08:09:06.209Z</time></trkpt><trkpt lat="37.7494217" lon="15.1860467"><ele>56.75</ele><time>2026-04-28T08:09:07.209Z</time></trkpt><trkpt lat="37.74954" lon="15.1860433"><ele>57.5</ele><time>2026-04-28T08:09:08.21Z</time></trkpt><trkpt lat="37.7496667" lon="15.1860183"><ele>58.25</ele><time>2026-04-28T08:09:09.209Z</time></trkpt><trkpt lat="37.7497883" lon="15.185975"><ele>59.0</ele><time>2026-04-28T08:09:10.209Z</time></trkpt><trkpt lat="37.7499033" lon="15.1858933"><ele>59.0</ele><time>2026-04-28T08:09:11.209Z</time></trkpt><trkpt lat="37.7500283" lon="15.1857767"><ele>59.0</ele><time>2026-04-28T08:09:12.209Z</time></trkpt><trkpt lat="37.7501633" lon="15.1856383"><ele>59.0</ele><time>2026-04-28T08:09:13.209Z</time></trkpt><trkpt lat="37.7503183" lon="15.1854883"><ele>60.333333333333336</ele><time>2026-04-28T08:09:14.209Z</time></trkpt><trkpt lat="37.7504817" lon="15.1853467"><ele>61.66666666666667</ele><time>2026-04-28T08:09:15.209Z</time></trkpt><trkpt lat="37.7506433" lon="15.1852183"><ele>63.0</ele><time>2026-04-28T08:09:16.209Z</time></trkpt><trkpt lat="37.750795" lon="15.18511"><ele>63.0</ele><time>2026-04-28T08:09:17.209Z</time></trkpt><trkpt lat="37.7509333" lon="15.1850067"><ele>63.0</ele><time>2026-04-28T08:09:18.209Z</time></trkpt><trkpt lat="37.751065" lon="15.18489"><ele>63.0</ele><time>2026-04-28T08:09:19.209Z</time></trkpt><trkpt lat="37.7511933" lon="15.1847833"><ele>65.33333333333333</ele><time>2026-04-28T08:09:20.21Z</time></trkpt><trkpt lat="37.751315" lon="15.18467"><ele>67.66666666666666</ele><time>2026-04-28T08:09:21.209Z</time></trkpt><trkpt lat="37.751435" lon="15.18455"><ele>70.0</ele><time>2026-04-28T08:09:22.209Z</time></trkpt><trkpt lat="37.7515617" lon="15.184425"><ele>70.0</ele><time>2026-04-28T08:09:23.209Z</time></trkpt><trkpt lat="37.7516733" lon="15.1842933"><ele>70.0</ele><time>2026-04-28T08:09:24.209Z</time></trkpt><trkpt lat="37.7517817" lon="15.1841633"><ele>70.0</ele><time>2026-04-28T08:09:25.209Z</time></trkpt><trkpt lat="37.7518867" lon="15.184035"><ele>70.0</ele><time>2026-04-28T08:09:26.209Z</time></trkpt><trkpt lat="37.75199" lon="15.183905"><ele>71.25</ele><time>2026-04-28T08:09:27.209Z</time></trkpt><trkpt lat="37.7520933" lon="15.1837683"><ele>72.5</ele><time>2026-04-28T08:09:28.209Z</time></trkpt><trkpt lat="37.7521917" lon="15.183645"><ele>73.75</ele><time>2026-04-28T08:09:29.209Z</time></trkpt><trkpt lat="37.752295" lon="15.1835183"><ele>75.0</ele><time>2026-04-28T08:09:30.209Z</time></trkpt><trkpt lat="37.7523883" lon="15.183395"><ele>75.0</ele><time>2026-04-28T08:09:31.209Z</time></trkpt><trkpt lat="37.752475" lon="15.1832817"><ele>75.0</ele><time>2026-04-28T08:09:32.209Z</time></trkpt><trkpt lat="37.752555" lon="15.1831817"><ele>75.0</ele><time>2026-04-28T08:09:33.209Z</time></trkpt><trkpt lat="37.7526217" lon="15.18309"><ele>75.0</ele><time>2026-04-28T08:09:34.209Z</time></trkpt><trkpt lat="37.7526867" lon="15.1830133"><ele>75.0</ele><time>2026-04-28T08:09:35.21Z</time></trkpt><trkpt lat="37.7527383" lon="15.1829483"><ele>75.6</ele><time>2026-04-28T08:09:36.209Z</time></trkpt><trkpt lat="37.752765" lon="15.1828333"><ele>76.2</ele><time>2026-04-28T08:09:38.21Z</time></trkpt><trkpt lat="37.752745" lon="15.1827517"><ele>76.8</ele><time>2026-04-28T08:09:40.209Z</time></trkpt><trkpt lat="37.752765" lon="15.1826717"><ele>77.4</ele><time>2026-04-28T08:10:53.209Z</time></trkpt><trkpt lat="37.7528033" lon="15.182605"><ele>78.0</ele><time>2026-04-28T08:14:56.209Z</time></trkpt><trkpt lat="37.7529617" lon="15.1826483"><ele>78.0</ele><time>2026-04-28T08:15:17.209Z</time></trkpt><trkpt lat="37.753065" lon="15.1825833"><ele>78.0</ele><time>2026-04-28T08:15:19.209Z</time></trkpt><trkpt lat="37.753135" lon="15.1825083"><ele>78.0</ele><time>2026-04-28T08:15:20.209Z</time></trkpt><trkpt lat="37.75321" lon="15.1824317"><ele>78.0</ele><time>2026-04-28T08:15:21.209Z</time></trkpt><trkpt lat="37.75329" lon="15.1823667"><ele>78.0</ele><time>2026-04-28T08:15:22.209Z</time></trkpt><trkpt lat="37.7533867" lon="15.1822983"><ele>78.25</ele><time>2026-04-28T08:15:23.209Z</time></trkpt><trkpt lat="37.7534833" lon="15.18224"><ele>78.5</ele><time>2026-04-28T08:15:24.21Z</time></trkpt><trkpt lat="37.7535867" lon="15.18218"><ele>78.75</ele><time>2026-04-28T08:15:25.209Z</time></trkpt><trkpt lat="37.7537017" lon="15.1821117"><ele>79.0</ele><time>2026-04-28T08:15:26.21Z</time></trkpt><trkpt lat="37.753815" lon="15.18205"><ele>80.4</ele><time>2026-04-28T08:15:27.209Z</time></trkpt><trkpt lat="37.7539183" lon="15.1819883"><ele>81.80000000000001</ele><time>2026-04-28T08:15:28.209Z</time></trkpt><trkpt lat="37.75401" lon="15.181935"><ele>83.19999999999999</ele><time>2026-04-28T08:15:29.209Z</time></trkpt><trkpt lat="37.7540883" lon="15.1818767"><ele>84.6</ele><time>2026-04-28T08:15:30.209Z</time></trkpt><trkpt lat="37.7541633" lon="15.18181"><ele>86.0</ele><time>2026-04-28T08:15:31.209Z</time></trkpt><trkpt lat="37.7542233" lon="15.1817483"><ele>86.0</ele><time>2026-04-28T08:15:32.209Z</time></trkpt><trkpt lat="37.7542983" lon="15.18161"><ele>86.0</ele><time>2026-04-28T08:15:34.209Z</time></trkpt><trkpt lat="37.7543267" lon="15.1814483"><ele>86.0</ele><time>2026-04-28T08:15:36.209Z</time></trkpt><trkpt lat="37.75432" lon="15.1813617"><ele>86.0</ele><time>2026-04-28T08:15:37.209Z</time></trkpt><trkpt lat="37.7543133" lon="15.1812633"><ele>86.0</ele><time>2026-04-28T08:15:38.209Z</time></trkpt><trkpt lat="37.7542967" lon="15.18118"><ele>86.85714285714286</ele><time>2026-04-28T08:15:39.21Z</time></trkpt><trkpt lat="37.7542817" lon="15.1810967"><ele>87.71428571428572</ele><time>2026-04-28T08:15:40.209Z</time></trkpt><trkpt lat="37.754275" lon="15.1810133"><ele>88.57142857142858</ele><time>2026-04-28T08:15:41.209Z</time></trkpt><trkpt lat="37.75428" lon="15.1809233"><ele>89.42857142857143</ele><time>2026-04-28T08:15:42.209Z</time></trkpt><trkpt lat="37.754295" lon="15.1808333"><ele>90.28571428571428</ele><time>2026-04-28T08:15:43.209Z</time></trkpt><trkpt lat="37.75432" lon="15.1807467"><ele>91.14285714285715</ele><time>2026-04-28T08:15:44.209Z</time></trkpt><trkpt lat="37.7543567" lon="15.1806617"><ele>92.0</ele><time>2026-04-28T08:15:45.209Z</time></trkpt><trkpt lat="37.7544017" lon="15.1805817"><ele>94.6</ele><time>2026-04-28T08:15:46.209Z</time></trkpt><trkpt lat="37.7544467" lon="15.1804883"><ele>97.19999999999999</ele><time>2026-04-28T08:15:47.209Z</time></trkpt><trkpt lat="37.7545" lon="15.1803933"><ele>99.8</ele><time>2026-04-28T08:15:48.209Z</time></trkpt><trkpt lat="37.754555" lon="15.1802983"><ele>102.4</ele><time>2026-04-28T08:15:49.209Z</time></trkpt><trkpt lat="37.75462" lon="15.180195"><ele>105.0</ele><time>2026-04-28T08:15:50.209Z</time></trkpt><trkpt lat="37.754685" lon="15.18009"><ele>105.0</ele><time>2026-04-28T08:15:51.209Z</time></trkpt><trkpt lat="37.75475" lon="15.1799833"><ele>105.0</ele><time>2026-04-28T08:15:52.209Z</time></trkpt><trkpt lat="37.7548183" lon="15.1798667"><ele>105.0</ele><time>2026-04-28T08:15:53.209Z</time></trkpt><trkpt lat="37.7548933" lon="15.17974"><ele>105.0</ele><time>2026-04-28T08:15:54.209Z</time></trkpt><trkpt lat="37.75497" lon="15.1796283"><ele>106.16666666666667</ele><time>2026-04-28T08:15:55.209Z</time></trkpt><trkpt lat="37.7550333" lon="15.1795483"><ele>107.33333333333334</ele><time>2026-04-28T08:15:56.21Z</time></trkpt><trkpt lat="37.7550833" lon="15.1794767"><ele>108.5</ele><time>2026-04-28T08:15:57.209Z</time></trkpt><trkpt lat="37.755135" lon="15.1794017"><ele>109.66666666666667</ele><time>2026-04-28T08:15:58.209Z</time></trkpt><trkpt lat="37.7551817" lon="15.179335"><ele>110.83333333333334</ele><time>2026-04-28T08:15:59.209Z</time></trkpt><trkpt lat="37.755265" lon="15.17923"><ele>112.0</ele><time>2026-04-28T08:16:01.21Z</time></trkpt><trkpt lat="37.7553533" lon="15.1791533"><ele>113.8</ele><time>2026-04-28T08:16:03.209Z</time></trkpt><trkpt lat="37.7554383" lon="15.179075"><ele>115.6</ele><time>2026-04-28T08:16:05.209Z</time></trkpt><trkpt lat="37.7555367" lon="15.179"><ele>117.39999999999999</ele><time>2026-04-28T08:16:07.209Z</time></trkpt><trkpt lat="37.7556383" lon="15.1789167"><ele>119.19999999999999</ele><time>2026-04-28T08:16:09.209Z</time></trkpt><trkpt lat="37.755715" lon="15.1788467"><ele>121.0</ele><time>2026-04-28T08:16:11.21Z</time></trkpt><trkpt lat="37.7557767" lon="15.1787817"><ele>122.0</ele><time>2026-04-28T08:16:13.209Z</time></trkpt><trkpt lat="37.7558433" lon="15.1787133"><ele>123.0</ele><time>2026-04-28T08:16:15.209Z</time></trkpt><trkpt lat="37.755945" lon="15.178625"><ele>124.0</ele><time>2026-04-28T08:16:17.209Z</time></trkpt><trkpt lat="37.7560117" lon="15.1785833"><ele>125.0</ele><time>2026-04-28T08:16:18.21Z</time></trkpt><trkpt lat="37.7560917" lon="15.1785467"><ele>126.0</ele><time>2026-04-28T08:16:19.209Z</time></trkpt><trkpt lat="37.7561783" lon="15.17852"><ele>127.19999999999999</ele><time>2026-04-28T08:16:20.21Z</time></trkpt><trkpt lat="37.7562767" lon="15.1785033"><ele>128.39999999999998</ele><time>2026-04-28T08:16:21.21Z</time></trkpt><trkpt lat="37.7563783" lon="15.1785"><ele>129.6</ele><time>2026-04-28T08:16:22.209Z</time></trkpt><trkpt lat="37.7564817" lon="15.1785183"><ele>130.79999999999998</ele><time>2026-04-28T08:16:23.209Z</time></trkpt><trkpt lat="37.7565867" lon="15.1785483"><ele>132.0</ele><time>2026-04-28T08:16:24.209Z</time></trkpt><trkpt lat="37.7566867" lon="15.178585"><ele>132.0</ele><time>2026-04-28T08:16:25.209Z</time></trkpt><trkpt lat="37.7567883" lon="15.178615"><ele>132.0</ele><time>2026-04-28T08:16:26.209Z</time></trkpt><trkpt lat="37.7568833" lon="15.17864"><ele>132.0</ele><time>2026-04-28T08:16:27.209Z</time></trkpt><trkpt lat="37.7569783" lon="15.1786667"><ele>132.0</ele><time>2026-04-28T08:16:28.209Z</time></trkpt><trkpt lat="37.7570733" lon="15.1786917"><ele>132.0</ele><time>2026-04-28T08:16:29.209Z</time></trkpt><trkpt lat="37.7571817" lon="15.17871"><ele>132.0</ele><time>2026-04-28T08:16:30.209Z</time></trkpt><trkpt lat="37.75729" lon="15.1787267"><ele>132.0</ele><time>2026-04-28T08:16:31.21Z</time></trkpt><trkpt lat="37.7574067" lon="15.17872"><ele>132.0</ele><time>2026-04-28T08:16:32.209Z</time></trkpt><trkpt lat="37.7575267" lon="15.178675"><ele>132.0</ele><time>2026-04-28T08:16:33.209Z</time></trkpt><trkpt lat="37.7576383" lon="15.1785833"><ele>133.25</ele><time>2026-04-28T08:16:34.209Z</time></trkpt><trkpt lat="37.7577267" lon="15.1784533"><ele>134.5</ele><time>2026-04-28T08:16:35.21Z</time></trkpt><trkpt lat="37.757805" lon="15.1783067"><ele>135.75</ele><time>2026-04-28T08:16:36.209Z</time></trkpt><trkpt lat="37.7578733" lon="15.178155"><ele>137.0</ele><time>2026-04-28T08:16:37.209Z</time></trkpt><trkpt lat="37.757945" lon="15.1780117"><ele>137.6</ele><time>2026-04-28T08:16:38.209Z</time></trkpt><trkpt lat="37.7580033" lon="15.1779067"><ele>138.2</ele><time>2026-04-28T08:16:39.209Z</time></trkpt><trkpt lat="37.7580383" lon="15.1778117"><ele>138.8</ele><time>2026-04-28T08:16:40.21Z</time></trkpt><trkpt lat="37.75803" lon="15.1776933"><ele>139.4</ele><time>2026-04-28T08:16:41.21Z</time></trkpt><trkpt lat="37.75798" lon="15.1775683"><ele>140.0</ele><time>2026-04-28T08:16:42.209Z</time></trkpt><trkpt lat="37.75789" lon="15.177465"><ele>140.0</ele><time>2026-04-28T08:16:43.209Z</time></trkpt><trkpt lat="37.7577833" lon="15.17738"><ele>140.0</ele><time>2026-04-28T08:16:44.209Z</time></trkpt><trkpt lat="37.7576717" lon="15.1772933"><ele>140.0</ele><time>2026-04-28T08:16:45.209Z</time></trkpt><trkpt lat="37.7575567" lon="15.17721"><ele>140.0</ele><time>2026-04-28T08:16:46.21Z</time></trkpt><trkpt lat="37.7574483" lon="15.17712"><ele>141.2</ele><time>2026-04-28T08:16:47.209Z</time></trkpt><trkpt lat="37.75735" lon="15.1770317"><ele>142.4</ele><time>2026-04-28T08:16:48.209Z</time></trkpt><trkpt lat="37.7572583" lon="15.176955"><ele>143.6</ele><time>2026-04-28T08:16:49.209Z</time></trkpt><trkpt lat="37.757195" lon="15.1768683"><ele>144.8</ele><time>2026-04-28T08:16:50.209Z</time></trkpt><trkpt lat="37.757155" lon="15.17676"><ele>146.0</ele><time>2026-04-28T08:16:51.209Z</time></trkpt><trkpt lat="37.757155" lon="15.17665"><ele>146.0</ele><time>2026-04-28T08:16:52.209Z</time></trkpt><trkpt lat="37.757195" lon="15.1765483"><ele>146.0</ele><time>2026-04-28T08:16:53.209Z</time></trkpt><trkpt lat="37.7572633" lon="15.1764417"><ele>146.0</ele><time>2026-04-28T08:16:54.209Z</time></trkpt><trkpt lat="37.7573367" lon="15.1763283"><ele>146.0</ele><time>2026-04-28T08:16:55.209Z</time></trkpt><trkpt lat="37.7574183" lon="15.176215"><ele>146.0</ele><time>2026-04-28T08:16:56.209Z</time></trkpt><trkpt lat="37.7575083" lon="15.1761117"><ele>147.75</ele><time>2026-04-28T08:16:57.21Z</time></trkpt><trkpt lat="37.7576033" lon="15.1760067"><ele>149.5</ele><time>2026-04-28T08:16:58.209Z</time></trkpt><trkpt lat="37.7576967" lon="15.1758883"><ele>151.25</ele><time>2026-04-28T08:16:59.209Z</time></trkpt><trkpt lat="37.757785" lon="15.1757667"><ele>153.0</ele><time>2026-04-28T08:17:00.208Z</time></trkpt><trkpt lat="37.7578783" lon="15.1756433"><ele>154.0</ele><time>2026-04-28T08:17:01.208Z</time></trkpt><trkpt lat="37.7579633" lon="15.1755333"><ele>155.0</ele><time>2026-04-28T08:17:02.208Z</time></trkpt><trkpt lat="37.75806" lon="15.1754067"><ele>156.0</ele><time>2026-04-28T08:17:03.208Z</time></trkpt><trkpt lat="37.7581567" lon="15.1752883"><ele>157.0</ele><time>2026-04-28T08:17:04.208Z</time></trkpt><trkpt lat="37.75826" lon="15.1751733"><ele>157.0</ele><time>2026-04-28T08:17:05.208Z</time></trkpt><trkpt lat="37.7583683" lon="15.17505"><ele>157.0</ele><time>2026-04-28T08:17:06.208Z</time></trkpt><trkpt lat="37.75847" lon="15.1749433"><ele>157.0</ele><time>2026-04-28T08:17:07.208Z</time></trkpt><trkpt lat="37.7585683" lon="15.17483"><ele>157.0</ele><time>2026-04-28T08:17:08.208Z</time></trkpt><trkpt lat="37.7586817" lon="15.1747183"><ele>160.0</ele><time>2026-04-28T08:17:09.208Z</time></trkpt><trkpt lat="37.7587967" lon="15.1746233"><ele>163.0</ele><time>2026-04-28T08:17:10.209Z</time></trkpt><trkpt lat="37.75891" lon="15.174545"><ele>166.0</ele><time>2026-04-28T08:17:11.208Z</time></trkpt><trkpt lat="37.7590133" lon="15.174465"><ele>169.0</ele><time>2026-04-28T08:17:12.208Z</time></trkpt><trkpt lat="37.759125" lon="15.1744083"><ele>169.0</ele><time>2026-04-28T08:17:13.208Z</time></trkpt><trkpt lat="37.7592417" lon="15.17435"><ele>169.0</ele><time>2026-04-28T08:17:14.208Z</time></trkpt><trkpt lat="37.7593567" lon="15.1743433"><ele>169.0</ele><time>2026-04-28T08:17:15.208Z</time></trkpt><trkpt lat="37.75947" lon="15.174355"><ele>169.0</ele><time>2026-04-28T08:17:16.208Z</time></trkpt><trkpt lat="37.7595733" lon="15.1743783"><ele>169.39999999999998</ele><time>2026-04-28T08:17:17.208Z</time></trkpt><trkpt lat="37.7596733" lon="15.1744067"><ele>169.8</ele><time>2026-04-28T08:17:18.208Z</time></trkpt><trkpt lat="37.7597667" lon="15.1744483"><ele>170.2</ele><time>2026-04-28T08:17:19.208Z</time></trkpt><trkpt lat="37.7598583" lon="15.1744933"><ele>170.60000000000002</ele><time>2026-04-28T08:17:20.208Z</time></trkpt><trkpt lat="37.759935" lon="15.1745533"><ele>171.0</ele><time>2026-04-28T08:17:21.208Z</time></trkpt><trkpt lat="37.7600017" lon="15.1746217"><ele>171.0</ele><time>2026-04-28T08:17:22.208Z</time></trkpt><trkpt lat="37.7600733" lon="15.174695"><ele>171.0</ele><time>2026-04-28T08:17:23.208Z</time></trkpt><trkpt lat="37.7601417" lon="15.17477"><ele>171.0</ele><time>2026-04-28T08:17:24.209Z</time></trkpt><trkpt lat="37.7602033" lon="15.1748083"><ele>171.0</ele><time>2026-04-28T08:17:25.208Z</time></trkpt><trkpt lat="37.7603117" lon="15.1747867"><ele>171.0</ele><time>2026-04-28T08:17:27.209Z</time></trkpt><trkpt lat="37.7603533" lon="15.17471"><ele>171.0</ele><time>2026-04-28T08:17:28.208Z</time></trkpt><trkpt lat="37.7604083" lon="15.1746333"><ele>170.5</ele><time>2026-04-28T08:17:29.208Z</time></trkpt><trkpt lat="37.76046" lon="15.1745533"><ele>170.0</ele><time>2026-04-28T08:17:30.208Z</time></trkpt><trkpt lat="37.7605167" lon="15.174465"><ele>169.5</ele><time>2026-04-28T08:17:31.208Z</time></trkpt><trkpt lat="37.76057" lon="15.17438"><ele>169.0</ele><time>2026-04-28T08:17:32.208Z</time></trkpt><trkpt lat="37.76063" lon="15.1742967"><ele>168.5</ele><time>2026-04-28T08:17:33.208Z</time></trkpt><trkpt lat="37.7606967" lon="15.1742217"><ele>168.0</ele><time>2026-04-28T08:17:34.208Z</time></trkpt><trkpt lat="37.7607683" lon="15.1741483"><ele>168.0</ele><time>2026-04-28T08:17:35.208Z</time></trkpt><trkpt lat="37.7608283" lon="15.1740717"><ele>168.0</ele><time>2026-04-28T08:17:36.208Z</time></trkpt><trkpt lat="37.7608833" lon="15.1740017"><ele>168.0</ele><time>2026-04-28T08:17:37.208Z</time></trkpt><trkpt lat="37.7609333" lon="15.1739417"><ele>168.0</ele><time>2026-04-28T08:17:38.208Z</time></trkpt><trkpt lat="37.7609883" lon="15.1738583"><ele>168.0</ele><time>2026-04-28T08:17:40.209Z</time></trkpt><trkpt lat="37.761065" lon="15.1739117"><ele>168.0</ele><time>2026-04-28T08:17:44.208Z</time></trkpt><trkpt lat="37.761115" lon="15.1739767"><ele>167.75</ele><time>2026-04-28T08:17:45.208Z</time></trkpt><trkpt lat="37.761185" lon="15.174065"><ele>167.5</ele><time>2026-04-28T08:17:46.208Z</time></trkpt><trkpt lat="37.7612717" lon="15.17417"><ele>167.25</ele><time>2026-04-28T08:17:47.208Z</time></trkpt><trkpt lat="37.7613583" lon="15.1742867"><ele>167.0</ele><time>2026-04-28T08:17:48.208Z</time></trkpt><trkpt lat="37.7614533" lon="15.174405"><ele>167.0</ele><time>2026-04-28T08:17:49.208Z</time></trkpt><trkpt lat="37.7615567" lon="15.17452"><ele>167.0</ele><time>2026-04-28T08:17:50.208Z</time></trkpt><trkpt lat="37.7616633" lon="15.1746383"><ele>167.0</ele><time>2026-04-28T08:17:51.208Z</time></trkpt><trkpt lat="37.7617683" lon="15.1747617"><ele>167.0</ele><time>2026-04-28T08:17:52.208Z</time></trkpt><trkpt lat="37.76187" lon="15.1748933"><ele>166.75</ele><time>2026-04-28T08:17:53.208Z</time></trkpt><trkpt lat="37.7619667" lon="15.175015"><ele>166.5</ele><time>2026-04-28T08:17:54.209Z</time></trkpt><trkpt lat="37.7620667" lon="15.1751317"><ele>166.25</ele><time>2026-04-28T08:17:55.208Z</time></trkpt><trkpt lat="37.7621717" lon="15.175225"><ele>166.0</ele><time>2026-04-28T08:17:56.209Z</time></trkpt><trkpt lat="37.7622883" lon="15.1753033"><ele>166.0</ele><time>2026-04-28T08:17:57.208Z</time></trkpt><trkpt lat="37.762415" lon="15.17535"><ele>166.0</ele><time>2026-04-28T08:17:58.208Z</time></trkpt><trkpt lat="37.7625417" lon="15.1753783"><ele>166.0</ele><time>2026-04-28T08:17:59.208Z</time></trkpt><trkpt lat="37.7626683" lon="15.1753867"><ele>166.0</ele><time>2026-04-28T08:18:00.208Z</time></trkpt><trkpt lat="37.7627833" lon="15.1753983"><ele>166.8</ele><time>2026-04-28T08:18:01.208Z</time></trkpt><trkpt lat="37.7628933" lon="15.1754233"><ele>167.60000000000002</ele><time>2026-04-28T08:18:02.208Z</time></trkpt><trkpt lat="37.7629867" lon="15.1754567"><ele>168.4</ele><time>2026-04-28T08:18:03.208Z</time></trkpt><trkpt lat="37.7630733" lon="15.17549"><ele>169.2</ele><time>2026-04-28T08:18:04.208Z</time></trkpt><trkpt lat="37.7631583" lon="15.175525"><ele>170.0</ele><time>2026-04-28T08:18:05.208Z</time></trkpt><trkpt lat="37.7632417" lon="15.1755533"><ele>170.0</ele><time>2026-04-28T08:18:06.209Z</time></trkpt><trkpt lat="37.763325" lon="15.1755967"><ele>170.0</ele><time>2026-04-28T08:18:07.209Z</time></trkpt><trkpt lat="37.7634133" lon="15.1756717"><ele>170.0</ele><time>2026-04-28T08:18:08.208Z</time></trkpt><trkpt lat="37.7635017" lon="15.1757567"><ele>170.0</ele><time>2026-04-28T08:18:09.208Z</time></trkpt><trkpt lat="37.7635917" lon="15.175855"><ele>170.0</ele><time>2026-04-28T08:18:10.208Z</time></trkpt><trkpt lat="37.7636917" lon="15.175955"><ele>170.75</ele><time>2026-04-28T08:18:11.208Z</time></trkpt><trkpt lat="37.7638033" lon="15.1760533"><ele>171.5</ele><time>2026-04-28T08:18:12.208Z</time></trkpt><trkpt lat="37.7639267" lon="15.1761383"><ele>172.25</ele><time>2026-04-28T08:18:13.208Z</time></trkpt><trkpt lat="37.76405" lon="15.1762217"><ele>173.0</ele><time>2026-04-28T08:18:14.208Z</time></trkpt><trkpt lat="37.7641933" lon="15.1762933"><ele>173.0</ele><time>2026-04-28T08:18:15.209Z</time></trkpt><trkpt lat="37.7643083" lon="15.1763733"><ele>173.0</ele><time>2026-04-28T08:18:16.208Z</time></trkpt><trkpt lat="37.7644117" lon="15.1764633"><ele>173.0</ele><time>2026-04-28T08:18:17.209Z</time></trkpt><trkpt lat="37.764505" lon="15.1765533"><ele>173.0</ele><time>2026-04-28T08:18:18.209Z</time></trkpt><trkpt lat="37.7645933" lon="15.1766233"><ele>171.2</ele><time>2026-04-28T08:18:19.208Z</time></trkpt><trkpt lat="37.76467" lon="15.1766767"><ele>169.4</ele><time>2026-04-28T08:18:20.209Z</time></trkpt><trkpt lat="37.7647533" lon="15.1766967"><ele>167.6</ele><time>2026-04-28T08:18:21.208Z</time></trkpt><trkpt lat="37.764835" lon="15.1766767"><ele>165.79999999999998</ele><time>2026-04-28T08:18:22.208Z</time></trkpt><trkpt lat="37.76492" lon="15.1766383"><ele>164.0</ele><time>2026-04-28T08:18:23.209Z</time></trkpt><trkpt lat="37.7650167" lon="15.1765817"><ele>164.0</ele><time>2026-04-28T08:18:24.209Z</time></trkpt><trkpt lat="37.7651267" lon="15.17652"><ele>164.0</ele><time>2026-04-28T08:18:25.208Z</time></trkpt><trkpt lat="37.76524" lon="15.1764567"><ele>164.0</ele><time>2026-04-28T08:18:26.209Z</time></trkpt><trkpt lat="37.7653533" lon="15.1763833"><ele>164.0</ele><time>2026-04-28T08:18:27.208Z</time></trkpt><trkpt lat="37.765475" lon="15.176315"><ele>166.25</ele><time>2026-04-28T08:18:28.208Z</time></trkpt><trkpt lat="37.765605" lon="15.17624"><ele>168.5</ele><time>2026-04-28T08:18:29.209Z</time></trkpt><trkpt lat="37.7657233" lon="15.176175"><ele>170.75</ele><time>2026-04-28T08:18:30.208Z</time></trkpt><trkpt lat="37.76584" lon="15.17611"><ele>173.0</ele><time>2026-04-28T08:18:31.208Z</time></trkpt><trkpt lat="37.76595" lon="15.1760567"><ele>172.2</ele><time>2026-04-28T08:18:32.208Z</time></trkpt><trkpt lat="37.7660567" lon="15.1760033"><ele>171.4</ele><time>2026-04-28T08:18:33.208Z</time></trkpt><trkpt lat="37.766155" lon="15.1759783"><ele>170.6</ele><time>2026-04-28T08:18:34.209Z</time></trkpt><trkpt lat="37.766255" lon="15.1759517"><ele>169.79999999999998</ele><time>2026-04-28T08:18:35.208Z</time></trkpt><trkpt lat="37.7663433" lon="15.1759433"><ele>169.0</ele><time>2026-04-28T08:18:36.208Z</time></trkpt><trkpt lat="37.766435" lon="15.17592"><ele>169.0</ele><time>2026-04-28T08:18:37.208Z</time></trkpt><trkpt lat="37.7665117" lon="15.1759067"><ele>169.0</ele><time>2026-04-28T08:18:38.208Z</time></trkpt><trkpt lat="37.7666033" lon="15.1758833"><ele>169.0</ele><time>2026-04-28T08:18:39.209Z</time></trkpt><trkpt lat="37.76668" lon="15.1758683"><ele>169.0</ele><time>2026-04-28T08:18:40.209Z</time></trkpt><trkpt lat="37.7667567" lon="15.1758367"><ele>169.0</ele><time>2026-04-28T08:18:41.208Z</time></trkpt><trkpt lat="37.7668267" lon="15.1758"><ele>169.0</ele><time>2026-04-28T08:18:42.208Z</time></trkpt><trkpt lat="37.7668967" lon="15.175755"><ele>168.83333333333334</ele><time>2026-04-28T08:18:43.208Z</time></trkpt><trkpt lat="37.7669533" lon="15.175705"><ele>168.66666666666669</ele><time>2026-04-28T08:18:44.209Z</time></trkpt><trkpt lat="37.7670083" lon="15.1756617"><ele>168.5</ele><time>2026-04-28T08:18:45.208Z</time></trkpt><trkpt lat="37.7670633" lon="15.17562"><ele>168.33333333333334</ele><time>2026-04-28T08:18:46.209Z</time></trkpt><trkpt lat="37.767165" lon="15.1755267"><ele>168.16666666666666</ele><time>2026-04-28T08:18:48.208Z</time></trkpt><trkpt lat="37.7672267" lon="15.1754717"><ele>168.0</ele><time>2026-04-28T08:18:49.208Z</time></trkpt><trkpt lat="37.7672833" lon="15.175435"><ele>170.8</ele><time>2026-04-28T08:18:50.208Z</time></trkpt><trkpt lat="37.7673517" lon="15.1754017"><ele>173.60000000000002</ele><time>2026-04-28T08:18:51.209Z</time></trkpt><trkpt lat="37.7674267" lon="15.1753833"><ele>176.39999999999998</ele><time>2026-04-28T08:18:52.208Z</time></trkpt><trkpt lat="37.76752" lon="15.1753667"><ele>179.2</ele><time>2026-04-28T08:18:53.208Z</time></trkpt><trkpt lat="37.76762" lon="15.17534"><ele>182.0</ele><time>2026-04-28T08:18:54.208Z</time></trkpt><trkpt lat="37.767725" lon="15.175315"><ele>182.6</ele><time>2026-04-28T08:18:55.208Z</time></trkpt><trkpt lat="37.7678317" lon="15.17529"><ele>183.2</ele><time>2026-04-28T08:18:56.209Z</time></trkpt><trkpt lat="37.76794" lon="15.17527"><ele>183.8</ele><time>2026-04-28T08:18:57.208Z</time></trkpt><trkpt lat="37.7680467" lon="15.1752483"><ele>184.4</ele><time>2026-04-28T08:18:58.209Z</time></trkpt><trkpt lat="37.7681517" lon="15.175215"><ele>185.0</ele><time>2026-04-28T08:18:59.208Z</time></trkpt><trkpt lat="37.768265" lon="15.1751983"><ele>185.0</ele><time>2026-04-28T08:19:00.208Z</time></trkpt><trkpt lat="37.7683817" lon="15.1751917"><ele>185.0</ele><time>2026-04-28T08:19:01.209Z</time></trkpt><trkpt lat="37.7685" lon="15.1751867"><ele>185.0</ele><time>2026-04-28T08:19:02.208Z</time></trkpt><trkpt lat="37.76862" lon="15.17518"><ele>185.0</ele><time>2026-04-28T08:19:03.208Z</time></trkpt><trkpt lat="37.76875" lon="15.175175"><ele>186.5</ele><time>2026-04-28T08:19:04.208Z</time></trkpt><trkpt lat="37.7689" lon="15.1751717"><ele>188.0</ele><time>2026-04-28T08:19:05.208Z</time></trkpt><trkpt lat="37.7690383" lon="15.175155"><ele>189.5</ele><time>2026-04-28T08:19:06.208Z</time></trkpt><trkpt lat="37.7691733" lon="15.1751483"><ele>191.0</ele><time>2026-04-28T08:19:07.208Z</time></trkpt><trkpt lat="37.76932" lon="15.175145"><ele>190.75</ele><time>2026-04-28T08:19:08.208Z</time></trkpt><trkpt lat="37.7694533" lon="15.17514"><ele>190.5</ele><time>2026-04-28T08:19:09.209Z</time></trkpt><trkpt lat="37.7696033" lon="15.1751267"><ele>190.25</ele><time>2026-04-28T08:19:10.208Z</time></trkpt><trkpt lat="37.76975" lon="15.1751183"><ele>190.0</ele><time>2026-04-28T08:19:11.208Z</time></trkpt><trkpt lat="37.7698883" lon="15.1751217"><ele>190.0</ele><time>2026-04-28T08:19:12.208Z</time></trkpt><trkpt lat="37.77004" lon="15.1751283"><ele>190.0</ele><time>2026-04-28T08:19:13.208Z</time></trkpt><trkpt lat="37.77019" lon="15.17512"><ele>190.0</ele><time>2026-04-28T08:19:14.208Z</time></trkpt><trkpt lat="37.77032" lon="15.17513"><ele>190.0</ele><time>2026-04-28T08:19:15.208Z</time></trkpt><trkpt lat="37.7704483" lon="15.1751233"><ele>190.0</ele><time>2026-04-28T08:19:16.208Z</time></trkpt><trkpt lat="37.7705667" lon="15.1751183"><ele>190.0</ele><time>2026-04-28T08:19:17.208Z</time></trkpt><trkpt lat="37.7706683" lon="15.1751117"><ele>190.0</ele><time>2026-04-28T08:19:18.208Z</time></trkpt><trkpt lat="37.7707617" lon="15.175065"><ele>190.0</ele><time>2026-04-28T08:19:19.208Z</time></trkpt><trkpt lat="37.77084" lon="15.17497"><ele>190.0</ele><time>2026-04-28T08:19:20.208Z</time></trkpt><trkpt lat="37.7709" lon="15.17484"><ele>191.0</ele><time>2026-04-28T08:19:21.208Z</time></trkpt><trkpt lat="37.7709583" lon="15.174695"><ele>192.0</ele><time>2026-04-28T08:19:22.208Z</time></trkpt><trkpt lat="37.7710133" lon="15.174555"><ele>193.0</ele><time>2026-04-28T08:19:23.208Z</time></trkpt><trkpt lat="37.7710917" lon="15.1744283"><ele>194.0</ele><time>2026-04-28T08:19:24.208Z</time></trkpt><trkpt lat="37.771185" lon="15.1743367"><ele>194.0</ele><time>2026-04-28T08:19:25.208Z</time></trkpt><trkpt lat="37.7713033" lon="15.1742667"><ele>194.0</ele><time>2026-04-28T08:19:26.208Z</time></trkpt><trkpt lat="37.7714283" lon="15.17424"><ele>194.0</ele><time>2026-04-28T08:19:27.208Z</time></trkpt><trkpt lat="37.7715633" lon="15.1742317"><ele>194.0</ele><time>2026-04-28T08:19:28.209Z</time></trkpt><trkpt lat="37.7716917" lon="15.1742283"><ele>194.0</ele><time>2026-04-28T08:19:29.208Z</time></trkpt><trkpt lat="37.7718283" lon="15.1742117"><ele>194.0</ele><time>2026-04-28T08:19:30.208Z</time></trkpt><trkpt lat="37.7719667" lon="15.1742"><ele>194.0</ele><time>2026-04-28T08:19:31.208Z</time></trkpt><trkpt lat="37.77209" lon="15.1742033"><ele>194.0</ele><time>2026-04-28T08:19:32.208Z</time></trkpt><trkpt lat="37.7722283" lon="15.1742183"><ele>194.75</ele><time>2026-04-28T08:19:33.208Z</time></trkpt><trkpt lat="37.77236" lon="15.1742617"><ele>195.5</ele><time>2026-04-28T08:19:34.208Z</time></trkpt><trkpt lat="37.7724917" lon="15.1743067"><ele>196.25</ele><time>2026-04-28T08:19:35.208Z</time></trkpt><trkpt lat="37.7726033" lon="15.1743633"><ele>197.0</ele><time>2026-04-28T08:19:36.208Z</time></trkpt><trkpt lat="37.7727083" lon="15.1744233"><ele>197.5</ele><time>2026-04-28T08:19:37.208Z</time></trkpt><trkpt lat="37.77282" lon="15.1744367"><ele>198.0</ele><time>2026-04-28T08:19:38.209Z</time></trkpt><trkpt lat="37.772935" lon="15.17441"><ele>198.5</ele><time>2026-04-28T08:19:39.208Z</time></trkpt><trkpt lat="37.773045" lon="15.1743433"><ele>199.0</ele><time>2026-04-28T08:19:40.208Z</time></trkpt><trkpt lat="37.77315" lon="15.174255"><ele>199.0</ele><time>2026-04-28T08:19:41.208Z</time></trkpt><trkpt lat="37.7732567" lon="15.1741633"><ele>199.0</ele><time>2026-04-28T08:19:42.208Z</time></trkpt><trkpt lat="37.7733583" lon="15.1740683"><ele>199.0</ele><time>2026-04-28T08:19:43.208Z</time></trkpt><trkpt lat="37.77346" lon="15.1739783"><ele>199.0</ele><time>2026-04-28T08:19:44.208Z</time></trkpt><trkpt lat="37.7735617" lon="15.1738767"><ele>200.0</ele><time>2026-04-28T08:19:45.208Z</time></trkpt><trkpt lat="37.7736483" lon="15.173765"><ele>201.0</ele><time>2026-04-28T08:19:46.208Z</time></trkpt><trkpt lat="37.7737233" lon="15.1736417"><ele>202.0</ele><time>2026-04-28T08:19:47.208Z</time></trkpt><trkpt lat="37.77379" lon="15.1735"><ele>203.0</ele><time>2026-04-28T08:19:48.208Z</time></trkpt><trkpt lat="37.773845" lon="15.1733433"><ele>204.5</ele><time>2026-04-28T08:19:49.208Z</time></trkpt><trkpt lat="37.7739033" lon="15.1731883"><ele>206.0</ele><time>2026-04-28T08:19:50.208Z</time></trkpt><trkpt lat="37.7739517" lon="15.173055"><ele>207.5</ele><time>2026-04-28T08:19:51.209Z</time></trkpt><trkpt lat="37.7740117" lon="15.17295"><ele>209.0</ele><time>2026-04-28T08:19:52.208Z</time></trkpt><trkpt lat="37.7741167" lon="15.1728633"><ele>209.0</ele><time>2026-04-28T08:19:53.208Z</time></trkpt><trkpt lat="37.7742417" lon="15.1728267"><ele>209.0</ele><time>2026-04-28T08:19:54.208Z</time></trkpt><trkpt lat="37.774365" lon="15.1728417"><ele>209.0</ele><time>2026-04-28T08:19:55.208Z</time></trkpt><trkpt lat="37.7745033" lon="15.1728867"><ele>209.0</ele><time>2026-04-28T08:19:56.209Z</time></trkpt><trkpt lat="37.7746417" lon="15.1729367"><ele>209.5</ele><time>2026-04-28T08:19:57.208Z</time></trkpt><trkpt lat="37.77478" lon="15.1729933"><ele>210.0</ele><time>2026-04-28T08:19:58.208Z</time></trkpt><trkpt lat="37.77492" lon="15.17304"><ele>210.5</ele><time>2026-04-28T08:19:59.208Z</time></trkpt><trkpt lat="37.7750617" lon="15.1730833"><ele>211.0</ele><time>2026-04-28T08:20:00.208Z</time></trkpt><trkpt lat="37.7752067" lon="15.1731317"><ele>212.5</ele><time>2026-04-28T08:20:01.208Z</time></trkpt><trkpt lat="37.77535" lon="15.17317"><ele>214.0</ele><time>2026-04-28T08:20:02.208Z</time></trkpt><trkpt lat="37.7754933" lon="15.1732217"><ele>215.5</ele><time>2026-04-28T08:20:03.208Z</time></trkpt><trkpt lat="37.7756433" lon="15.173265"><ele>217.0</ele><time>2026-04-28T08:20:04.208Z</time></trkpt><trkpt lat="37.7757817" lon="15.173315"><ele>214.75</ele><time>2026-04-28T08:20:05.208Z</time></trkpt><trkpt lat="37.7759133" lon="15.1733683"><ele>212.5</ele><time>2026-04-28T08:20:06.209Z</time></trkpt><trkpt lat="37.77604" lon="15.1734183"><ele>210.25</ele><time>2026-04-28T08:20:07.208Z</time></trkpt><trkpt lat="37.7761567" lon="15.17345"><ele>208.0</ele><time>2026-04-28T08:20:08.208Z</time></trkpt><trkpt lat="37.776275" lon="15.173465"><ele>208.0</ele><time>2026-04-28T08:20:09.208Z</time></trkpt><trkpt lat="37.776385" lon="15.1734417"><ele>208.0</ele><time>2026-04-28T08:20:10.209Z</time></trkpt><trkpt lat="37.77649" lon="15.1733767"><ele>208.0</ele><time>2026-04-28T08:20:11.208Z</time></trkpt><trkpt lat="37.7765883" lon="15.1732917"><ele>208.0</ele><time>2026-04-28T08:20:12.208Z</time></trkpt><trkpt lat="37.7766983" lon="15.1731883"><ele>210.25</ele><time>2026-04-28T08:20:13.208Z</time></trkpt><trkpt lat="37.776815" lon="15.1730817"><ele>212.5</ele><time>2026-04-28T08:20:14.208Z</time></trkpt><trkpt lat="37.77693" lon="15.1729967"><ele>214.75</ele><time>2026-04-28T08:20:15.208Z</time></trkpt><trkpt lat="37.7770383" lon="15.172905"><ele>217.0</ele><time>2026-04-28T08:20:16.208Z</time></trkpt><trkpt lat="37.77714" lon="15.1728117"><ele>217.0</ele><time>2026-04-28T08:20:17.208Z</time></trkpt><trkpt lat="37.7772333" lon="15.1727267"><ele>217.0</ele><time>2026-04-28T08:20:18.208Z</time></trkpt><trkpt lat="37.7773233" lon="15.17268"><ele>217.0</ele><time>2026-04-28T08:20:19.209Z</time></trkpt><trkpt lat="37.777415" lon="15.172655"><ele>217.0</ele><time>2026-04-28T08:20:20.209Z</time></trkpt><trkpt lat="37.7775217" lon="15.1726283"><ele>217.0</ele><time>2026-04-28T08:20:21.208Z</time></trkpt><trkpt lat="37.7776333" lon="15.1726083"><ele>217.25</ele><time>2026-04-28T08:20:22.208Z</time></trkpt><trkpt lat="37.777755" lon="15.1726017"><ele>217.5</ele><time>2026-04-28T08:20:23.208Z</time></trkpt><trkpt lat="37.777885" lon="15.1725867"><ele>217.75</ele><time>2026-04-28T08:20:24.208Z</time></trkpt><trkpt lat="37.7780167" lon="15.1725683"><ele>218.0</ele><time>2026-04-28T08:20:25.208Z</time></trkpt><trkpt lat="37.7781517" lon="15.17255"><ele>218.0</ele><time>2026-04-28T08:20:26.208Z</time></trkpt><trkpt lat="37.7782883" lon="15.1725233"><ele>218.0</ele><time>2026-04-28T08:20:27.208Z</time></trkpt><trkpt lat="37.7784267" lon="15.172505"><ele>218.0</ele><time>2026-04-28T08:20:28.209Z</time></trkpt><trkpt lat="37.778575" lon="15.1724867"><ele>218.0</ele><time>2026-04-28T08:20:29.208Z</time></trkpt><trkpt lat="37.77873" lon="15.1724767"><ele>217.25</ele><time>2026-04-28T08:20:30.208Z</time></trkpt><trkpt lat="37.77888" lon="15.1724533"><ele>216.5</ele><time>2026-04-28T08:20:31.208Z</time></trkpt><trkpt lat="37.7790317" lon="15.1724317"><ele>215.75</ele><time>2026-04-28T08:20:32.208Z</time></trkpt><trkpt lat="37.779175" lon="15.1724183"><ele>215.0</ele><time>2026-04-28T08:20:33.208Z</time></trkpt><trkpt lat="37.779325" lon="15.172395"><ele>214.66666666666669</ele><time>2026-04-28T08:20:34.208Z</time></trkpt><trkpt lat="37.7794783" lon="15.1723767"><ele>214.33333333333331</ele><time>2026-04-28T08:20:35.208Z</time></trkpt><trkpt lat="37.77962" lon="15.1723633"><ele>214.0</ele><time>2026-04-28T08:20:36.208Z</time></trkpt><trkpt lat="37.7797733" lon="15.1723517"><ele>217.75</ele><time>2026-04-28T08:20:37.208Z</time></trkpt><trkpt lat="37.77992" lon="15.172335"><ele>221.5</ele><time>2026-04-28T08:20:38.208Z</time></trkpt><trkpt lat="37.7800583" lon="15.1723217"><ele>225.25</ele><time>2026-04-28T08:20:39.208Z</time></trkpt><trkpt lat="37.780185" lon="15.172305"><ele>229.0</ele><time>2026-04-28T08:20:40.209Z</time></trkpt><trkpt lat="37.7803067" lon="15.1722867"><ele>228.99999999999997</ele><time>2026-04-28T08:20:41.208Z</time></trkpt><trkpt lat="37.7804117" lon="15.1722833"><ele>229.0</ele><time>2026-04-28T08:20:42.208Z</time></trkpt><trkpt lat="37.7805" lon="15.17225"><ele>229.0</ele><time>2026-04-28T08:20:43.208Z</time></trkpt><trkpt lat="37.780565" lon="15.1722017"><ele>229.0</ele><time>2026-04-28T08:20:44.208Z</time></trkpt><trkpt lat="37.7806117" lon="15.1721217"><ele>228.99999999999997</ele><time>2026-04-28T08:20:45.208Z</time></trkpt><trkpt lat="37.7806533" lon="15.172015"><ele>229.0</ele><time>2026-04-28T08:20:46.208Z</time></trkpt><trkpt lat="37.7807067" lon="15.1719017"><ele>229.0</ele><time>2026-04-28T08:20:47.208Z</time></trkpt><trkpt lat="37.7807883" lon="15.1718017"><ele>229.0</ele><time>2026-04-28T08:20:48.208Z</time></trkpt><trkpt lat="37.7808917" lon="15.1717117"><ele>229.0</ele><time>2026-04-28T08:20:49.209Z</time></trkpt><trkpt lat="37.7810083" lon="15.17163"><ele>229.0</ele><time>2026-04-28T08:20:50.208Z</time></trkpt><trkpt lat="37.7811183" lon="15.171575"><ele>229.75</ele><time>2026-04-28T08:20:51.208Z</time></trkpt><trkpt lat="37.78123" lon="15.17154"><ele>230.5</ele><time>2026-04-28T08:20:52.208Z</time></trkpt><trkpt lat="37.781355" lon="15.17152"><ele>231.25</ele><time>2026-04-28T08:20:53.208Z</time></trkpt><trkpt lat="37.7814767" lon="15.171545"><ele>232.0</ele><time>2026-04-28T08:20:54.209Z</time></trkpt><trkpt lat="37.7816067" lon="15.1715767"><ele>232.0</ele><time>2026-04-28T08:20:55.208Z</time></trkpt><trkpt lat="37.7817417" lon="15.1715917"><ele>232.0</ele><time>2026-04-28T08:20:56.208Z</time></trkpt><trkpt lat="37.78186" lon="15.17158"><ele>232.0</ele><time>2026-04-28T08:20:57.209Z</time></trkpt><trkpt lat="37.7819833" lon="15.1715367"><ele>232.0</ele><time>2026-04-28T08:20:58.208Z</time></trkpt><trkpt lat="37.7820933" lon="15.1714583"><ele>234.5</ele><time>2026-04-28T08:20:59.208Z</time></trkpt><trkpt lat="37.782205" lon="15.1713883"><ele>237.0</ele><time>2026-04-28T08:21:00.208Z</time></trkpt><trkpt lat="37.7823233" lon="15.1713567"><ele>239.5</ele><time>2026-04-28T08:21:01.208Z</time></trkpt><trkpt lat="37.78245" lon="15.1713667"><ele>242.0</ele><time>2026-04-28T08:21:02.208Z</time></trkpt><trkpt lat="37.7825783" lon="15.17143"><ele>242.75</ele><time>2026-04-28T08:21:03.208Z</time></trkpt><trkpt lat="37.7827133" lon="15.1715033"><ele>243.5</ele><time>2026-04-28T08:21:04.208Z</time></trkpt><trkpt lat="37.78284" lon="15.1715967"><ele>244.25</ele><time>2026-04-28T08:21:05.208Z</time></trkpt><trkpt lat="37.7829683" lon="15.171685"><ele>245.0</ele><time>2026-04-28T08:21:06.208Z</time></trkpt><trkpt lat="37.7830983" lon="15.1717717"><ele>245.5</ele><time>2026-04-28T08:21:07.209Z</time></trkpt><trkpt lat="37.7832217" lon="15.1718633"><ele>246.0</ele><time>2026-04-28T08:21:08.208Z</time></trkpt><trkpt lat="37.78334" lon="15.1719733"><ele>246.5</ele><time>2026-04-28T08:21:09.208Z</time></trkpt><trkpt lat="37.7834483" lon="15.1721"><ele>247.0</ele><time>2026-04-28T08:21:10.208Z</time></trkpt><trkpt lat="37.783555" lon="15.1722267"><ele>243.5</ele><time>2026-04-28T08:21:11.208Z</time></trkpt><trkpt lat="37.7836583" lon="15.17236"><ele>240.0</ele><time>2026-04-28T08:21:12.208Z</time></trkpt><trkpt lat="37.7837617" lon="15.172485"><ele>236.5</ele><time>2026-04-28T08:21:13.208Z</time></trkpt><trkpt lat="37.7838633" lon="15.1725983"><ele>233.0</ele><time>2026-04-28T08:21:14.208Z</time></trkpt><trkpt lat="37.7839533" lon="15.1727167"><ele>233.0</ele><time>2026-04-28T08:21:15.208Z</time></trkpt><trkpt lat="37.7840383" lon="15.172825"><ele>233.0</ele><time>2026-04-28T08:21:16.209Z</time></trkpt><trkpt lat="37.7841217" lon="15.172925"><ele>233.0</ele><time>2026-04-28T08:21:17.209Z</time></trkpt><trkpt lat="37.7842083" lon="15.1730017"><ele>233.0</ele><time>2026-04-28T08:21:18.208Z</time></trkpt><trkpt lat="37.784295" lon="15.1730467"><ele>233.0</ele><time>2026-04-28T08:21:19.209Z</time></trkpt><trkpt lat="37.7843783" lon="15.173045"><ele>232.0</ele><time>2026-04-28T08:21:20.208Z</time></trkpt><trkpt lat="37.784485" lon="15.1730283"><ele>231.0</ele><time>2026-04-28T08:21:21.208Z</time></trkpt><trkpt lat="37.784585" lon="15.1730667"><ele>230.0</ele><time>2026-04-28T08:21:22.208Z</time></trkpt><trkpt lat="37.7846833" lon="15.1731267"><ele>229.0</ele><time>2026-04-28T08:21:23.208Z</time></trkpt><trkpt lat="37.7847833" lon="15.17319"><ele>228.0</ele><time>2026-04-28T08:21:24.208Z</time></trkpt><trkpt lat="37.7848817" lon="15.1731933"><ele>232.0</ele><time>2026-04-28T08:21:25.208Z</time></trkpt><trkpt lat="37.7850017" lon="15.1731483"><ele>236.0</ele><time>2026-04-28T08:21:26.208Z</time></trkpt><trkpt lat="37.7851167" lon="15.1730783"><ele>240.0</ele><time>2026-04-28T08:21:27.209Z</time></trkpt><trkpt lat="37.7852167" lon="15.1730017"><ele>244.0</ele><time>2026-04-28T08:21:28.208Z</time></trkpt><trkpt lat="37.7853367" lon="15.172945"><ele>245.5</ele><time>2026-04-28T08:21:29.208Z</time></trkpt><trkpt lat="37.785455" lon="15.17294"><ele>247.0</ele><time>2026-04-28T08:21:30.208Z</time></trkpt><trkpt lat="37.7855767" lon="15.1729767"><ele>248.5</ele><time>2026-04-28T08:21:31.208Z</time></trkpt><trkpt lat="37.7857017" lon="15.17303"><ele>250.0</ele><time>2026-04-28T08:21:32.208Z</time></trkpt><trkpt lat="37.785825" lon="15.1730983"><ele>250.0</ele><time>2026-04-28T08:21:33.208Z</time></trkpt><trkpt lat="37.7859567" lon="15.173155"><ele>250.0</ele><time>2026-04-28T08:21:34.208Z</time></trkpt><trkpt lat="37.7861067" lon="15.1731883"><ele>250.0</ele><time>2026-04-28T08:21:35.208Z</time></trkpt><trkpt lat="37.78625" lon="15.1732"><ele>250.0</ele><time>2026-04-28T08:21:36.208Z</time></trkpt><trkpt lat="37.786405" lon="15.17321"><ele>245.66666666666666</ele><time>2026-04-28T08:21:37.208Z</time></trkpt><trkpt lat="37.7865783" lon="15.1732317"><ele>241.33333333333331</ele><time>2026-04-28T08:21:38.208Z</time></trkpt><trkpt lat="37.78674" lon="15.1732733"><ele>237.0</ele><time>2026-04-28T08:21:39.208Z</time></trkpt><trkpt lat="37.786905" lon="15.1733117"><ele>237.0</ele><time>2026-04-28T08:21:40.208Z</time></trkpt><trkpt lat="37.7870733" lon="15.1733383"><ele>237.0</ele><time>2026-04-28T08:21:41.208Z</time></trkpt><trkpt lat="37.7872333" lon="15.1733833"><ele>237.0</ele><time>2026-04-28T08:21:42.208Z</time></trkpt><trkpt lat="37.7873817" lon="15.173425"><ele>237.0</ele><time>2026-04-28T08:21:43.208Z</time></trkpt><trkpt lat="37.7875467" lon="15.1734717"><ele>237.0</ele><time>2026-04-28T08:21:44.208Z</time></trkpt><trkpt lat="37.7877083" lon="15.1735183"><ele>237.0</ele><time>2026-04-28T08:21:45.208Z</time></trkpt><trkpt lat="37.78786" lon="15.173565"><ele>238.5</ele><time>2026-04-28T08:21:46.208Z</time></trkpt><trkpt lat="37.7880117" lon="15.1736133"><ele>240.0</ele><time>2026-04-28T08:21:47.209Z</time></trkpt><trkpt lat="37.788145" lon="15.17368"><ele>241.5</ele><time>2026-04-28T08:21:48.208Z</time></trkpt><trkpt lat="37.7882767" lon="15.1737667"><ele>243.0</ele><time>2026-04-28T08:21:49.208Z</time></trkpt><trkpt lat="37.78841" lon="15.1738633"><ele>242.75</ele><time>2026-04-28T08:21:50.208Z</time></trkpt><trkpt lat="37.78852" lon="15.173975"><ele>242.5</ele><time>2026-04-28T08:21:51.208Z</time></trkpt><trkpt lat="37.78862" lon="15.17411"><ele>242.25</ele><time>2026-04-28T08:21:52.208Z</time></trkpt><trkpt lat="37.7887083" lon="15.174255"><ele>242.0</ele><time>2026-04-28T08:21:53.208Z</time></trkpt><trkpt lat="37.78878" lon="15.1744117"><ele>242.0</ele><time>2026-04-28T08:21:54.208Z</time></trkpt><trkpt lat="37.788855" lon="15.1745683"><ele>242.0</ele><time>2026-04-28T08:21:55.208Z</time></trkpt><trkpt lat="37.7889317" lon="15.1747183"><ele>242.0</ele><time>2026-04-28T08:21:56.208Z</time></trkpt><trkpt lat="37.7890267" lon="15.174845"><ele>242.0</ele><time>2026-04-28T08:21:57.209Z</time></trkpt><trkpt lat="37.7891483" lon="15.174945"><ele>241.5</ele><time>2026-04-28T08:21:58.209Z</time></trkpt><trkpt lat="37.78928" lon="15.1750083"><ele>241.0</ele><time>2026-04-28T08:21:59.209Z</time></trkpt><trkpt lat="37.789425" lon="15.1750417"><ele>240.5</ele><time>2026-04-28T08:22:00.208Z</time></trkpt><trkpt lat="37.7895617" lon="15.175075"><ele>240.0</ele><time>2026-04-28T08:22:01.208Z</time></trkpt><trkpt lat="37.7897033" lon="15.1751267"><ele>240.0</ele><time>2026-04-28T08:22:02.208Z</time></trkpt><trkpt lat="37.7898367" lon="15.1751983"><ele>240.0</ele><time>2026-04-28T08:22:03.208Z</time></trkpt><trkpt lat="37.7899617" lon="15.1752633"><ele>240.0</ele><time>2026-04-28T08:22:04.208Z</time></trkpt><trkpt lat="37.7900917" lon="15.1753333"><ele>240.0</ele><time>2026-04-28T08:22:05.208Z</time></trkpt><trkpt lat="37.7902033" lon="15.1754283"><ele>239.5</ele><time>2026-04-28T08:22:06.208Z</time></trkpt><trkpt lat="37.7903133" lon="15.175545"><ele>239.0</ele><time>2026-04-28T08:22:07.208Z</time></trkpt><trkpt lat="37.7904033" lon="15.1756817"><ele>238.5</ele><time>2026-04-28T08:22:08.209Z</time></trkpt><trkpt lat="37.7904867" lon="15.1758217"><ele>238.0</ele><time>2026-04-28T08:22:09.208Z</time></trkpt><trkpt lat="37.7905667" lon="15.1759617"><ele>238.0</ele><time>2026-04-28T08:22:10.208Z</time></trkpt><trkpt lat="37.790635" lon="15.1761067"><ele>238.0</ele><time>2026-04-28T08:22:11.208Z</time></trkpt><trkpt lat="37.790685" lon="15.17624"><ele>238.0</ele><time>2026-04-28T08:22:12.209Z</time></trkpt><trkpt lat="37.79071" lon="15.17637"><ele>238.0</ele><time>2026-04-28T08:22:13.208Z</time></trkpt><trkpt lat="37.7907317" lon="15.1764833"><ele>238.0</ele><time>2026-04-28T08:22:14.208Z</time></trkpt><trkpt lat="37.7907383" lon="15.1765867"><ele>236.16666666666666</ele><time>2026-04-28T08:22:15.208Z</time></trkpt><trkpt lat="37.790715" lon="15.1766783"><ele>234.33333333333331</ele><time>2026-04-28T08:22:16.208Z</time></trkpt><trkpt lat="37.7906667" lon="15.176755"><ele>232.5</ele><time>2026-04-28T08:22:17.209Z</time></trkpt><trkpt lat="37.7906017" lon="15.1768283"><ele>230.66666666666669</ele><time>2026-04-28T08:22:18.208Z</time></trkpt><trkpt lat="37.790545" lon="15.1768967"><ele>228.83333333333334</ele><time>2026-04-28T08:22:19.208Z</time></trkpt><trkpt lat="37.790525" lon="15.1769933"><ele>227.0</ele><time>2026-04-28T08:22:20.209Z</time></trkpt><trkpt lat="37.7905433" lon="15.1771067"><ele>227.0</ele><time>2026-04-28T08:22:21.208Z</time></trkpt><trkpt lat="37.790575" lon="15.1772433"><ele>227.0</ele><time>2026-04-28T08:22:22.208Z</time></trkpt><trkpt lat="37.79063" lon="15.1773733"><ele>227.0</ele><time>2026-04-28T08:22:23.208Z</time></trkpt><trkpt lat="37.7907083" lon="15.1774867"><ele>227.0</ele><time>2026-04-28T08:22:24.208Z</time></trkpt><trkpt lat="37.7908" lon="15.1775767"><ele>228.0</ele><time>2026-04-28T08:22:25.208Z</time></trkpt><trkpt lat="37.790895" lon="15.1776683"><ele>229.0</ele><time>2026-04-28T08:22:26.208Z</time></trkpt><trkpt lat="37.7909817" lon="15.177755"><ele>230.0</ele><time>2026-04-28T08:22:27.209Z</time></trkpt><trkpt lat="37.7910617" lon="15.1778267"><ele>231.0</ele><time>2026-04-28T08:22:28.208Z</time></trkpt><trkpt lat="37.7911417" lon="15.1778567"><ele>232.0</ele><time>2026-04-28T08:22:29.208Z</time></trkpt><trkpt lat="37.7912317" lon="15.17785"><ele>234.2</ele><time>2026-04-28T08:22:30.208Z</time></trkpt><trkpt lat="37.7913217" lon="15.177805"><ele>236.39999999999998</ele><time>2026-04-28T08:22:31.209Z</time></trkpt><trkpt lat="37.7914133" lon="15.17773"><ele>238.60000000000002</ele><time>2026-04-28T08:22:32.208Z</time></trkpt><trkpt lat="37.7915117" lon="15.1776467"><ele>240.8</ele><time>2026-04-28T08:22:33.209Z</time></trkpt><trkpt lat="37.7916167" lon="15.1775683"><ele>243.0</ele><time>2026-04-28T08:22:34.208Z</time></trkpt><trkpt lat="37.791735" lon="15.1775117"><ele>244.25</ele><time>2026-04-28T08:22:35.208Z</time></trkpt><trkpt lat="37.79187" lon="15.17746"><ele>245.5</ele><time>2026-04-28T08:22:36.208Z</time></trkpt><trkpt lat="37.79201" lon="15.1774183"><ele>246.75</ele><time>2026-04-28T08:22:37.208Z</time></trkpt><trkpt lat="37.7921633" lon="15.1773783"><ele>248.0</ele><time>2026-04-28T08:22:38.208Z</time></trkpt><trkpt lat="37.79232" lon="15.17733"><ele>249.0</ele><time>2026-04-28T08:22:39.208Z</time></trkpt><trkpt lat="37.7924783" lon="15.1772783"><ele>250.0</ele><time>2026-04-28T08:22:40.208Z</time></trkpt><trkpt lat="37.7926417" lon="15.1772283"><ele>251.0</ele><time>2026-04-28T08:22:41.208Z</time></trkpt><trkpt lat="37.7927917" lon="15.1771717"><ele>251.5</ele><time>2026-04-28T08:22:42.208Z</time></trkpt><trkpt lat="37.7929383" lon="15.1771117"><ele>252.0</ele><time>2026-04-28T08:22:43.208Z</time></trkpt><trkpt lat="37.7930733" lon="15.1770417"><ele>252.5</ele><time>2026-04-28T08:22:44.208Z</time></trkpt><trkpt lat="37.7932083" lon="15.1769617"><ele>253.0</ele><time>2026-04-28T08:22:45.208Z</time></trkpt><trkpt lat="37.793345" lon="15.1769017"><ele>253.0</ele><time>2026-04-28T08:22:46.208Z</time></trkpt><trkpt lat="37.7934833" lon="15.1768717"><ele>253.0</ele><time>2026-04-28T08:22:47.208Z</time></trkpt><trkpt lat="37.7936117" lon="15.176885"><ele>253.0</ele><time>2026-04-28T08:22:48.208Z</time></trkpt><trkpt lat="37.7937467" lon="15.1769133"><ele>253.0</ele><time>2026-04-28T08:22:49.208Z</time></trkpt><trkpt lat="37.79388" lon="15.1769617"><ele>255.33333333333331</ele><time>2026-04-28T08:22:50.209Z</time></trkpt><trkpt lat="37.7940167" lon="15.1770317"><ele>257.6666666666667</ele><time>2026-04-28T08:22:51.209Z</time></trkpt><trkpt lat="37.794165" lon="15.1771183"><ele>260.0</ele><time>2026-04-28T08:22:52.208Z</time></trkpt><trkpt lat="37.7943183" lon="15.177205"><ele>261.6666666666667</ele><time>2026-04-28T08:22:53.208Z</time></trkpt><trkpt lat="37.7944717" lon="15.177295"><ele>263.3333333333333</ele><time>2026-04-28T08:22:54.209Z</time></trkpt><trkpt lat="37.79463" lon="15.1773867"><ele>265.0</ele><time>2026-04-28T08:22:55.208Z</time></trkpt><trkpt lat="37.794785" lon="15.1774817"><ele>265.0</ele><time>2026-04-28T08:22:56.208Z</time></trkpt><trkpt lat="37.7949233" lon="15.1775583"><ele>265.0</ele><time>2026-04-28T08:22:57.208Z</time></trkpt><trkpt lat="37.7950583" lon="15.1776"><ele>265.0</ele><time>2026-04-28T08:22:58.209Z</time></trkpt><trkpt lat="37.7951983" lon="15.1776183"><ele>265.0</ele><time>2026-04-28T08:22:59.208Z</time></trkpt><trkpt lat="37.795345" lon="15.1776017"><ele>267.75</ele><time>2026-04-28T08:23:00.208Z</time></trkpt><trkpt lat="37.7954933" lon="15.1775833"><ele>270.5</ele><time>2026-04-28T08:23:01.208Z</time></trkpt><trkpt lat="37.795615" lon="15.1775683"><ele>273.25</ele><time>2026-04-28T08:23:02.208Z</time></trkpt><trkpt lat="37.7957333" lon="15.177545"><ele>276.0</ele><time>2026-04-28T08:23:03.208Z</time></trkpt><trkpt lat="37.7958417" lon="15.1774917"><ele>276.0</ele><time>2026-04-28T08:23:04.208Z</time></trkpt><trkpt lat="37.7959283" lon="15.177395"><ele>276.0</ele><time>2026-04-28T08:23:05.208Z</time></trkpt><trkpt lat="37.7960083" lon="15.17726"><ele>276.0</ele><time>2026-04-28T08:23:06.208Z</time></trkpt><trkpt lat="37.796085" lon="15.1770983"><ele>276.0</ele><time>2026-04-28T08:23:07.208Z</time></trkpt><trkpt lat="37.7961683" lon="15.1769317"><ele>280.0</ele><time>2026-04-28T08:23:08.208Z</time></trkpt><trkpt lat="37.79625" lon="15.1767633"><ele>284.0</ele><time>2026-04-28T08:23:09.204Z</time></trkpt><trkpt lat="37.7963283" lon="15.1765983"><ele>288.0</ele><time>2026-04-28T08:23:10.208Z</time></trkpt><trkpt lat="37.7964067" lon="15.1764417"><ele>288.2</ele><time>2026-04-28T08:23:11.208Z</time></trkpt><trkpt lat="37.7964783" lon="15.1762967"><ele>288.4</ele><time>2026-04-28T08:23:12.208Z</time></trkpt><trkpt lat="37.796535" lon="15.17617"><ele>288.59999999999997</ele><time>2026-04-28T08:23:13.208Z</time></trkpt><trkpt lat="37.7965933" lon="15.1760633"><ele>288.8</ele><time>2026-04-28T08:23:14.208Z</time></trkpt><trkpt lat="37.79665" lon="15.1759933"><ele>289.0</ele><time>2026-04-28T08:23:15.208Z</time></trkpt><trkpt lat="37.79672" lon="15.17596"><ele>289.0</ele><time>2026-04-28T08:23:16.209Z</time></trkpt><trkpt lat="37.796785" lon="15.175955"><ele>289.0</ele><time>2026-04-28T08:23:17.208Z</time></trkpt><trkpt lat="37.796855" lon="15.1760017"><ele>289.0</ele><time>2026-04-28T08:23:18.208Z</time></trkpt><trkpt lat="37.7969133" lon="15.176105"><ele>289.0</ele><time>2026-04-28T08:23:19.209Z</time></trkpt><trkpt lat="37.7969683" lon="15.1762417"><ele>289.0</ele><time>2026-04-28T08:23:20.208Z</time></trkpt><trkpt lat="37.7970267" lon="15.1764133"><ele>292.66666666666663</ele><time>2026-04-28T08:23:21.208Z</time></trkpt><trkpt lat="37.7970983" lon="15.1765833"><ele>296.3333333333333</ele><time>2026-04-28T08:23:22.209Z</time></trkpt><trkpt lat="37.7971733" lon="15.1767567"><ele>300.0</ele><time>2026-04-28T08:23:23.208Z</time></trkpt><trkpt lat="37.7972383" lon="15.1769233"><ele>300.0</ele><time>2026-04-28T08:23:24.208Z</time></trkpt><trkpt lat="37.7972967" lon="15.17706"><ele>300.0</ele><time>2026-04-28T08:23:25.208Z</time></trkpt><trkpt lat="37.7973517" lon="15.177175"><ele>300.0</ele><time>2026-04-28T08:23:26.208Z</time></trkpt><trkpt lat="37.7974233" lon="15.1772433"><ele>300.0</ele><time>2026-04-28T08:23:27.208Z</time></trkpt><trkpt lat="37.7975233" lon="15.17725"><ele>300.0</ele><time>2026-04-28T08:23:28.208Z</time></trkpt><trkpt lat="37.7976267" lon="15.1772183"><ele>300.75</ele><time>2026-04-28T08:23:29.208Z</time></trkpt><trkpt lat="37.797745" lon="15.177135"><ele>301.5</ele><time>2026-04-28T08:23:30.208Z</time></trkpt><trkpt lat="37.797875" lon="15.17704"><ele>302.25</ele><time>2026-04-28T08:23:31.208Z</time></trkpt><trkpt lat="37.7980083" lon="15.1769483"><ele>303.0</ele><time>2026-04-28T08:23:32.208Z</time></trkpt><trkpt lat="37.798145" lon="15.1768683"><ele>303.0</ele><time>2026-04-28T08:23:33.208Z</time></trkpt><trkpt lat="37.7982883" lon="15.1767833"><ele>303.0</ele><time>2026-04-28T08:23:34.208Z</time></trkpt><trkpt lat="37.79843" lon="15.1766983"><ele>303.0</ele><time>2026-04-28T08:23:35.208Z</time></trkpt><trkpt lat="37.7985633" lon="15.1766067"><ele>304.75</ele><time>2026-04-28T08:23:36.208Z</time></trkpt><trkpt lat="37.7986867" lon="15.17653"><ele>306.5</ele><time>2026-04-28T08:23:37.209Z</time></trkpt><trkpt lat="37.79881" lon="15.17648"><ele>308.25</ele><time>2026-04-28T08:23:38.208Z</time></trkpt><trkpt lat="37.7989233" lon="15.17647"><ele>310.0</ele><time>2026-04-28T08:23:39.208Z</time></trkpt><trkpt lat="37.7990267" lon="15.1764433"><ele>313.0</ele><time>2026-04-28T08:23:40.208Z</time></trkpt><trkpt lat="37.7991333" lon="15.1763633"><ele>316.0</ele><time>2026-04-28T08:23:41.208Z</time></trkpt><trkpt lat="37.7992133" lon="15.1762483"><ele>319.0</ele><time>2026-04-28T08:23:42.208Z</time></trkpt><trkpt lat="37.7993133" lon="15.1761467"><ele>322.0</ele><time>2026-04-28T08:23:43.208Z</time></trkpt><trkpt lat="37.79943" lon="15.1760867"><ele>323.66666666666663</ele><time>2026-04-28T08:23:44.209Z</time></trkpt><trkpt lat="37.7995667" lon="15.17602"><ele>325.3333333333333</ele><time>2026-04-28T08:23:45.208Z</time></trkpt><trkpt lat="37.7997133" lon="15.175985"><ele>327.0</ele><time>2026-04-28T08:23:46.208Z</time></trkpt><trkpt lat="37.799865" lon="15.1759417"><ele>327.0</ele><time>2026-04-28T08:23:47.209Z</time></trkpt><trkpt lat="37.8000167" lon="15.1758917"><ele>327.0</ele><time>2026-04-28T08:23:48.208Z</time></trkpt><trkpt lat="37.800155" lon="15.175855"><ele>327.0</ele><time>2026-04-28T08:23:49.208Z</time></trkpt><trkpt lat="37.8002983" lon="15.1758167"><ele>327.0</ele><time>2026-04-28T08:23:50.208Z</time></trkpt><trkpt lat="37.80043" lon="15.1757617"><ele>327.75</ele><time>2026-04-28T08:23:51.208Z</time></trkpt><trkpt lat="37.8005567" lon="15.17572"><ele>328.5</ele><time>2026-04-28T08:23:52.208Z</time></trkpt><trkpt lat="37.8006917" lon="15.1756833"><ele>329.25</ele><time>2026-04-28T08:23:53.208Z</time></trkpt><trkpt lat="37.8008183" lon="15.1756683"><ele>330.0</ele><time>2026-04-28T08:23:54.208Z</time></trkpt><trkpt lat="37.8009367" lon="15.1756983"><ele>330.8</ele><time>2026-04-28T08:23:55.208Z</time></trkpt><trkpt lat="37.80105" lon="15.17574"><ele>331.6</ele><time>2026-04-28T08:23:56.208Z</time></trkpt><trkpt lat="37.80116" lon="15.17579"><ele>332.4</ele><time>2026-04-28T08:23:57.208Z</time></trkpt><trkpt lat="37.8012667" lon="15.1758283"><ele>333.2</ele><time>2026-04-28T08:23:58.208Z</time></trkpt><trkpt lat="37.801355" lon="15.1758767"><ele>334.0</ele><time>2026-04-28T08:23:59.209Z</time></trkpt><trkpt lat="37.8014383" lon="15.175945"><ele>334.0</ele><time>2026-04-28T08:24:00.208Z</time></trkpt><trkpt lat="37.8015033" lon="15.1760283"><ele>334.0</ele><time>2026-04-28T08:24:01.208Z</time></trkpt><trkpt lat="37.8015767" lon="15.1760967"><ele>334.0</ele><time>2026-04-28T08:24:02.208Z</time></trkpt><trkpt lat="37.801645" lon="15.176155"><ele>334.0</ele><time>2026-04-28T08:24:03.208Z</time></trkpt><trkpt lat="37.8017167" lon="15.176215"><ele>334.0</ele><time>2026-04-28T08:24:04.208Z</time></trkpt><trkpt lat="37.801795" lon="15.1762533"><ele>334.0</ele><time>2026-04-28T08:24:05.209Z</time></trkpt><trkpt lat="37.80187" lon="15.1762433"><ele>333.66666666666663</ele><time>2026-04-28T08:24:06.209Z</time></trkpt><trkpt lat="37.8019383" lon="15.176225"><ele>333.3333333333333</ele><time>2026-04-28T08:24:07.208Z</time></trkpt><trkpt lat="37.8020083" lon="15.1762083"><ele>333.0</ele><time>2026-04-28T08:24:08.208Z</time></trkpt><trkpt lat="37.8020967" lon="15.1761933"><ele>332.6666666666667</ele><time>2026-04-28T08:24:10.209Z</time></trkpt><trkpt lat="37.8022167" lon="15.176185"><ele>332.33333333333337</ele><time>2026-04-28T08:24:12.208Z</time></trkpt><trkpt lat="37.802295" lon="15.1761667"><ele>332.0</ele><time>2026-04-28T08:24:13.209Z</time></trkpt><trkpt lat="37.802385" lon="15.1761467"><ele>332.0</ele><time>2026-04-28T08:24:14.209Z</time></trkpt><trkpt lat="37.8024833" lon="15.1761283"><ele>332.0</ele><time>2026-04-28T08:24:15.208Z</time></trkpt><trkpt lat="37.802585" lon="15.1761083"><ele>332.0</ele><time>2026-04-28T08:24:16.208Z</time></trkpt><trkpt lat="37.80269" lon="15.17609"><ele>332.0</ele><time>2026-04-28T08:24:17.208Z</time></trkpt><trkpt lat="37.8027967" lon="15.1760683"><ele>332.0</ele><time>2026-04-28T08:24:18.209Z</time></trkpt><trkpt lat="37.8029067" lon="15.1760467"><ele>332.25</ele><time>2026-04-28T08:24:19.208Z</time></trkpt><trkpt lat="37.8030217" lon="15.1760283"><ele>332.5</ele><time>2026-04-28T08:24:20.208Z</time></trkpt><trkpt lat="37.8031433" lon="15.1760117"><ele>332.75</ele><time>2026-04-28T08:24:21.208Z</time></trkpt><trkpt lat="37.8032633" lon="15.1759883"><ele>333.0</ele><time>2026-04-28T08:24:22.208Z</time></trkpt><trkpt lat="37.8033867" lon="15.175955"><ele>333.59999999999997</ele><time>2026-04-28T08:24:23.208Z</time></trkpt><trkpt lat="37.8035017" lon="15.1759283"><ele>334.2</ele><time>2026-04-28T08:24:24.208Z</time></trkpt><trkpt lat="37.803605" lon="15.1759017"><ele>334.8</ele><time>2026-04-28T08:24:25.209Z</time></trkpt><trkpt lat="37.8037" lon="15.1758917"><ele>335.4</ele><time>2026-04-28T08:24:26.208Z</time></trkpt><trkpt lat="37.8037883" lon="15.1758783"><ele>336.0</ele><time>2026-04-28T08:24:27.208Z</time></trkpt><trkpt lat="37.803875" lon="15.175855"><ele>336.0</ele><time>2026-04-28T08:24:28.209Z</time></trkpt><trkpt lat="37.8039667" lon="15.1758417"><ele>336.0</ele><time>2026-04-28T08:24:29.208Z</time></trkpt><trkpt lat="37.8040517" lon="15.1758283"><ele>336.0</ele><time>2026-04-28T08:24:30.208Z</time></trkpt><trkpt lat="37.8041483" lon="15.1758083"><ele>336.0</ele><time>2026-04-28T08:24:31.208Z</time></trkpt><trkpt lat="37.8042483" lon="15.1757833"><ele>336.0</ele><time>2026-04-28T08:24:32.208Z</time></trkpt><trkpt lat="37.80437" lon="15.1757583"><ele>337.5</ele><time>2026-04-28T08:24:33.209Z</time></trkpt><trkpt lat="37.8044933" lon="15.1757333"><ele>339.0</ele><time>2026-04-28T08:24:34.208Z</time></trkpt><trkpt lat="37.8046317" lon="15.1756967"><ele>340.5</ele><time>2026-04-28T08:24:35.208Z</time></trkpt><trkpt lat="37.8047617" lon="15.1756717"><ele>342.0</ele><time>2026-04-28T08:24:36.209Z</time></trkpt><trkpt lat="37.8048883" lon="15.17566"><ele>342.0</ele><time>2026-04-28T08:24:37.208Z</time></trkpt><trkpt lat="37.80503" lon="15.17563"><ele>342.0</ele><time>2026-04-28T08:24:38.208Z</time></trkpt><trkpt lat="37.805175" lon="15.1756017"><ele>342.0</ele><time>2026-04-28T08:24:39.208Z</time></trkpt><trkpt lat="37.8053133" lon="15.175565"><ele>342.0</ele><time>2026-04-28T08:24:40.209Z</time></trkpt><trkpt lat="37.8054483" lon="15.1755283"><ele>342.75</ele><time>2026-04-28T08:24:41.208Z</time></trkpt><trkpt lat="37.8055867" lon="15.1755017"><ele>343.5</ele><time>2026-04-28T08:24:42.209Z</time></trkpt><trkpt lat="37.80572" lon="15.175475"><ele>344.25</ele><time>2026-04-28T08:24:43.208Z</time></trkpt><trkpt lat="37.8058483" lon="15.1754317"><ele>345.0</ele><time>2026-04-28T08:24:44.208Z</time></trkpt><trkpt lat="37.8059783" lon="15.1754117"><ele>347.0</ele><time>2026-04-28T08:24:45.208Z</time></trkpt><trkpt lat="37.806115" lon="15.1753967"><ele>349.0</ele><time>2026-04-28T08:24:46.208Z</time></trkpt><trkpt lat="37.8062533" lon="15.1753783"><ele>351.0</ele><time>2026-04-28T08:24:47.209Z</time></trkpt><trkpt lat="37.80639" lon="15.175355"><ele>353.0</ele><time>2026-04-28T08:24:48.208Z</time></trkpt><trkpt lat="37.8065267" lon="15.1753283"><ele>353.0</ele><time>2026-04-28T08:24:49.209Z</time></trkpt><trkpt lat="37.80667" lon="15.1753"><ele>353.0</ele><time>2026-04-28T08:24:50.208Z</time></trkpt><trkpt lat="37.806805" lon="15.1752733"><ele>353.0</ele><time>2026-04-28T08:24:51.208Z</time></trkpt><trkpt lat="37.8069317" lon="15.1752467"><ele>353.0</ele><time>2026-04-28T08:24:52.208Z</time></trkpt><trkpt lat="37.80705" lon="15.1752233"><ele>354.0</ele><time>2026-04-28T08:24:53.208Z</time></trkpt><trkpt lat="37.8071633" lon="15.1752083"><ele>355.0</ele><time>2026-04-28T08:24:54.208Z</time></trkpt><trkpt lat="37.8072517" lon="15.1751983"><ele>356.0</ele><time>2026-04-28T08:24:55.208Z</time></trkpt><trkpt lat="37.8073217" lon="15.17519"><ele>357.0</ele><time>2026-04-28T08:24:56.208Z</time></trkpt><trkpt lat="37.8074167" lon="15.1752483"><ele>358.0</ele><time>2026-04-28T08:24:58.208Z</time></trkpt><trkpt lat="37.8074417" lon="15.1754083"><ele>358.0</ele><time>2026-04-28T08:25:00.208Z</time></trkpt><trkpt lat="37.8074417" lon="15.1754983"><ele>358.0</ele><time>2026-04-28T08:25:01.209Z</time></trkpt><trkpt lat="37.80743" lon="15.1755967"><ele>358.0</ele><time>2026-04-28T08:25:02.208Z</time></trkpt><trkpt lat="37.80742" lon="15.1756883"><ele>358.0</ele><time>2026-04-28T08:25:03.209Z</time></trkpt><trkpt lat="37.807435" lon="15.1757833"><ele>358.0</ele><time>2026-04-28T08:25:04.208Z</time></trkpt><trkpt lat="37.8074483" lon="15.1758683"><ele>358.0</ele><time>2026-04-28T08:25:05.208Z</time></trkpt><trkpt lat="37.8075017" lon="15.1759883"><ele>357.8333333333333</ele><time>2026-04-28T08:25:07.208Z</time></trkpt><trkpt lat="37.8075733" lon="15.1760333"><ele>357.66666666666663</ele><time>2026-04-28T08:25:09.208Z</time></trkpt><trkpt lat="37.8076333" lon="15.176005"><ele>357.5</ele><time>2026-04-28T08:25:10.208Z</time></trkpt><trkpt lat="37.807705" lon="15.1759667"><ele>357.3333333333333</ele><time>2026-04-28T08:25:11.209Z</time></trkpt><trkpt lat="37.80779" lon="15.17592"><ele>357.1666666666667</ele><time>2026-04-28T08:25:12.208Z</time></trkpt><trkpt lat="37.8078683" lon="15.17587"><ele>357.0</ele><time>2026-04-28T08:25:13.208Z</time></trkpt><trkpt lat="37.8079583" lon="15.1758267"><ele>357.0</ele><time>2026-04-28T08:25:14.208Z</time></trkpt><trkpt lat="37.8080317" lon="15.1758017"><ele>357.0</ele><time>2026-04-28T08:25:15.208Z</time></trkpt><trkpt lat="37.808095" lon="15.1757733"><ele>357.0</ele><time>2026-04-28T08:25:16.208Z</time></trkpt><trkpt lat="37.8081633" lon="15.1757483"><ele>357.0</ele><time>2026-04-28T08:25:17.208Z</time></trkpt><trkpt lat="37.8082733" lon="15.17573"><ele>357.0</ele><time>2026-04-28T08:25:19.208Z</time></trkpt><trkpt lat="37.808355" lon="15.175735"><ele>357.0</ele><time>2026-04-28T08:25:21.207Z</time></trkpt><trkpt lat="37.80841" lon="15.1758033"><ele>357.0</ele><time>2026-04-28T08:25:23.207Z</time></trkpt><trkpt lat="37.808445" lon="15.1758967"><ele>357.0</ele><time>2026-04-28T08:25:25.208Z</time></trkpt><trkpt lat="37.8084783" lon="15.1759917"><ele>357.0</ele><time>2026-04-28T08:25:27.207Z</time></trkpt><trkpt lat="37.8085083" lon="15.1760733"><ele>357.0</ele><time>2026-04-28T08:25:29.208Z</time></trkpt><trkpt lat="37.8085317" lon="15.1761517"><ele>357.0</ele><time>2026-04-28T08:25:31.207Z</time></trkpt><trkpt lat="37.808555" lon="15.176235"><ele>357.0</ele><time>2026-04-28T08:25:33.207Z</time></trkpt><trkpt lat="37.808575" lon="15.176325"><ele>357.0</ele><time>2026-04-28T08:25:36.207Z</time></trkpt><trkpt lat="37.8086" lon="15.176435"><ele>357.0</ele><time>2026-04-28T08:25:39.207Z</time></trkpt><trkpt lat="37.808625" lon="15.176525"><ele>357.0</ele><time>2026-04-28T08:25:41.207Z</time></trkpt><trkpt lat="37.8086683" lon="15.1766267"><ele>357.0</ele><time>2026-04-28T08:25:47.207Z</time></trkpt><trkpt lat="37.8086867" lon="15.1767417"><ele>357.0</ele><time>2026-04-28T08:25:58.207Z</time></trkpt><trkpt lat="37.8087267" lon="15.1768083"><ele>357.0</ele><time>2026-04-28T08:26:01.207Z</time></trkpt><trkpt lat="37.8088183" lon="15.1768233"><ele>357.0</ele><time>2026-04-28T08:26:06.207Z</time></trkpt><trkpt lat="37.8089183" lon="15.1767417"><ele>357.0</ele><time>2026-04-28T08:26:08.207Z</time></trkpt><trkpt lat="37.80897" lon="15.17669"><ele>357.0</ele><time>2026-04-28T08:26:09.207Z</time></trkpt><trkpt lat="37.80903" lon="15.1766333"><ele>357.0</ele><time>2026-04-28T08:26:10.207Z</time></trkpt><trkpt lat="37.8090917" lon="15.17657"><ele>357.0</ele><time>2026-04-28T08:26:11.207Z</time></trkpt><trkpt lat="37.80915" lon="15.1765067"><ele>357.0</ele><time>2026-04-28T08:26:12.207Z</time></trkpt><trkpt lat="37.8092017" lon="15.1764483"><ele>357.0</ele><time>2026-04-28T08:26:13.207Z</time></trkpt><trkpt lat="37.8092967" lon="15.1763583"><ele>357.42857142857144</ele><time>2026-04-28T08:26:15.207Z</time></trkpt><trkpt lat="37.8093383" lon="15.1762983"><ele>357.8571428571429</ele><time>2026-04-28T08:26:16.208Z</time></trkpt><trkpt lat="37.8093717" lon="15.1762217"><ele>358.2857142857143</ele><time>2026-04-28T08:26:17.207Z</time></trkpt><trkpt lat="37.8094317" lon="15.1761733"><ele>358.7142857142857</ele><time>2026-04-28T08:26:18.207Z</time></trkpt><trkpt lat="37.8094917" lon="15.176125"><ele>359.14285714285717</ele><time>2026-04-28T08:26:19.207Z</time></trkpt><trkpt lat="37.80955" lon="15.17608"><ele>359.57142857142856</ele><time>2026-04-28T08:26:20.207Z</time></trkpt><trkpt lat="37.8096083" lon="15.1760183"><ele>360.0</ele><time>2026-04-28T08:26:21.208Z</time></trkpt><trkpt lat="37.80967" lon="15.175965"><ele>360.0</ele><time>2026-04-28T08:26:22.207Z</time></trkpt><trkpt lat="37.8097167" lon="15.1758933"><ele>360.0</ele><time>2026-04-28T08:26:23.207Z</time></trkpt><trkpt lat="37.8097783" lon="15.1758367"><ele>360.0</ele><time>2026-04-28T08:26:24.207Z</time></trkpt><trkpt lat="37.8098467" lon="15.17578"><ele>360.0</ele><time>2026-04-28T08:26:25.208Z</time></trkpt><trkpt lat="37.8099167" lon="15.1757167"><ele>360.0</ele><time>2026-04-28T08:26:26.207Z</time></trkpt><trkpt lat="37.80998" lon="15.1756483"><ele>360.0</ele><time>2026-04-28T08:26:27.207Z</time></trkpt><trkpt lat="37.81004" lon="15.17558"><ele>360.4</ele><time>2026-04-28T08:26:28.207Z</time></trkpt><trkpt lat="37.8100917" lon="15.175495"><ele>360.8</ele><time>2026-04-28T08:26:29.207Z</time></trkpt><trkpt lat="37.810145" lon="15.1754117"><ele>361.20000000000005</ele><time>2026-04-28T08:26:30.207Z</time></trkpt><trkpt lat="37.810195" lon="15.1753183"><ele>361.6</ele><time>2026-04-28T08:26:31.207Z</time></trkpt><trkpt lat="37.810255" lon="15.175225"><ele>362.0</ele><time>2026-04-28T08:26:32.207Z</time></trkpt><trkpt lat="37.810315" lon="15.1751217"><ele>362.0</ele><time>2026-04-28T08:26:33.208Z</time></trkpt><trkpt lat="37.81037" lon="15.1750233"><ele>362.0</ele><time>2026-04-28T08:26:34.207Z</time></trkpt><trkpt lat="37.81042" lon="15.1749183"><ele>362.0</ele><time>2026-04-28T08:26:35.207Z</time></trkpt><trkpt lat="37.81048" lon="15.17481"><ele>362.0</ele><time>2026-04-28T08:26:36.207Z</time></trkpt><trkpt lat="37.810535" lon="15.1747033"><ele>362.0</ele><time>2026-04-28T08:26:37.208Z</time></trkpt><trkpt lat="37.810585" lon="15.174595"><ele>362.8</ele><time>2026-04-28T08:26:38.207Z</time></trkpt><trkpt lat="37.8106333" lon="15.1744933"><ele>363.6</ele><time>2026-04-28T08:26:39.208Z</time></trkpt><trkpt lat="37.8106867" lon="15.1743933"><ele>364.40000000000003</ele><time>2026-04-28T08:26:40.208Z</time></trkpt><trkpt lat="37.81073" lon="15.1742983"><ele>365.20000000000005</ele><time>2026-04-28T08:26:41.207Z</time></trkpt><trkpt lat="37.81078" lon="15.1742033"><ele>366.0</ele><time>2026-04-28T08:26:42.207Z</time></trkpt><trkpt lat="37.810825" lon="15.174105"><ele>366.8333333333333</ele><time>2026-04-28T08:26:43.207Z</time></trkpt><trkpt lat="37.810875" lon="15.17402"><ele>367.6666666666667</ele><time>2026-04-28T08:26:44.207Z</time></trkpt><trkpt lat="37.8109233" lon="15.1739283"><ele>368.5</ele><time>2026-04-28T08:26:45.207Z</time></trkpt><trkpt lat="37.8109583" lon="15.1738533"><ele>369.33333333333337</ele><time>2026-04-28T08:26:46.207Z</time></trkpt><trkpt lat="37.8110133" lon="15.17374"><ele>370.1666666666667</ele><time>2026-04-28T08:26:48.207Z</time></trkpt><trkpt lat="37.8110483" lon="15.1736683"><ele>371.0</ele><time>2026-04-28T08:26:50.207Z</time></trkpt><trkpt lat="37.8111017" lon="15.17359"><ele>371.0</ele><time>2026-04-28T08:27:16.207Z</time></trkpt><trkpt lat="37.8111467" lon="15.17352"><ele>371.0</ele><time>2026-04-28T08:27:19.207Z</time></trkpt><trkpt lat="37.8111983" lon="15.1734567"><ele>371.0</ele><time>2026-04-28T08:27:23.208Z</time></trkpt><trkpt lat="37.8112717" lon="15.1733"><ele>371.0</ele><time>2026-04-28T08:28:21.207Z</time></trkpt><trkpt lat="37.8113117" lon="15.1732233"><ele>371.0</ele><time>2026-04-28T08:28:24.207Z</time></trkpt><trkpt lat="37.8113633" lon="15.1731333"><ele>371.0</ele><time>2026-04-28T08:28:26.207Z</time></trkpt><trkpt lat="37.8114267" lon="15.1730117"><ele>371.83333333333337</ele><time>2026-04-28T08:28:28.207Z</time></trkpt><trkpt lat="37.811475" lon="15.1728817"><ele>372.6666666666667</ele><time>2026-04-28T08:28:30.207Z</time></trkpt><trkpt lat="37.81152" lon="15.1727467"><ele>373.5</ele><time>2026-04-28T08:28:32.207Z</time></trkpt><trkpt lat="37.8115567" lon="15.1726767"><ele>374.3333333333333</ele><time>2026-04-28T08:28:33.207Z</time></trkpt><trkpt lat="37.8115967" lon="15.1726083"><ele>375.16666666666663</ele><time>2026-04-28T08:28:34.207Z</time></trkpt><trkpt lat="37.8116517" lon="15.1725267"><ele>376.0</ele><time>2026-04-28T08:28:35.208Z</time></trkpt><trkpt lat="37.8117033" lon="15.1724383"><ele>376.8</ele><time>2026-04-28T08:28:36.207Z</time></trkpt><trkpt lat="37.8117517" lon="15.1723217"><ele>377.6</ele><time>2026-04-28T08:28:37.207Z</time></trkpt><trkpt lat="37.8118" lon="15.172205"><ele>378.4</ele><time>2026-04-28T08:28:38.207Z</time></trkpt><trkpt lat="37.81185" lon="15.1720833"><ele>379.2</ele><time>2026-04-28T08:28:39.207Z</time></trkpt><trkpt lat="37.8118917" lon="15.171945"><ele>380.0</ele><time>2026-04-28T08:28:40.207Z</time></trkpt><trkpt lat="37.81194" lon="15.1718333"><ele>380.1666666666667</ele><time>2026-04-28T08:28:41.207Z</time></trkpt><trkpt lat="37.8119967" lon="15.1717533"><ele>380.33333333333337</ele><time>2026-04-28T08:28:42.207Z</time></trkpt><trkpt lat="37.8120617" lon="15.1716983"><ele>380.5</ele><time>2026-04-28T08:28:43.207Z</time></trkpt><trkpt lat="37.8121267" lon="15.17167"><ele>380.6666666666667</ele><time>2026-04-28T08:28:44.207Z</time></trkpt><trkpt lat="37.812205" lon="15.1716567"><ele>380.8333333333333</ele><time>2026-04-28T08:28:45.207Z</time></trkpt><trkpt lat="37.812285" lon="15.1716417"><ele>381.0</ele><time>2026-04-28T08:28:46.207Z</time></trkpt><trkpt lat="37.8123583" lon="15.1716133"><ele>381.0</ele><time>2026-04-28T08:28:47.207Z</time></trkpt><trkpt lat="37.8124167" lon="15.1715533"><ele>381.0</ele><time>2026-04-28T08:28:48.208Z</time></trkpt><trkpt lat="37.8124767" lon="15.1714433"><ele>381.0</ele><time>2026-04-28T08:28:49.207Z</time></trkpt><trkpt lat="37.8125283" lon="15.1713017"><ele>381.0</ele><time>2026-04-28T08:28:50.207Z</time></trkpt><trkpt lat="37.8125783" lon="15.1711217"><ele>381.6666666666667</ele><time>2026-04-28T08:28:51.207Z</time></trkpt><trkpt lat="37.812645" lon="15.1709167"><ele>382.33333333333337</ele><time>2026-04-28T08:28:52.207Z</time></trkpt><trkpt lat="37.8127333" lon="15.1707283"><ele>383.0</ele><time>2026-04-28T08:28:53.207Z</time></trkpt><trkpt lat="37.8128367" lon="15.1705283"><ele>385.6666666666667</ele><time>2026-04-28T08:28:54.208Z</time></trkpt><trkpt lat="37.81295" lon="15.1703317"><ele>388.33333333333337</ele><time>2026-04-28T08:28:55.207Z</time></trkpt><trkpt lat="37.813065" lon="15.17015"><ele>391.0</ele><time>2026-04-28T08:28:56.207Z</time></trkpt><trkpt lat="37.8131683" lon="15.1699617"><ele>392.33333333333337</ele><time>2026-04-28T08:28:57.207Z</time></trkpt><trkpt lat="37.81325" lon="15.1697767"><ele>393.66666666666663</ele><time>2026-04-28T08:28:58.208Z</time></trkpt><trkpt lat="37.8133167" lon="15.1695817"><ele>395.0</ele><time>2026-04-28T08:28:59.207Z</time></trkpt><trkpt lat="37.8133517" lon="15.16938"><ele>395.0</ele><time>2026-04-28T08:29:00.207Z</time></trkpt><trkpt lat="37.813365" lon="15.16916"><ele>395.0</ele><time>2026-04-28T08:29:01.207Z</time></trkpt><trkpt lat="37.81338" lon="15.168925"><ele>395.0</ele><time>2026-04-28T08:29:02.207Z</time></trkpt><trkpt lat="37.813395" lon="15.1686833"><ele>395.0</ele><time>2026-04-28T08:29:03.207Z</time></trkpt><trkpt lat="37.8134133" lon="15.1684433"><ele>395.0</ele><time>2026-04-28T08:29:04.208Z</time></trkpt><trkpt lat="37.81342" lon="15.168185"><ele>395.0</ele><time>2026-04-28T08:29:05.207Z</time></trkpt><trkpt lat="37.8134383" lon="15.1679333"><ele>396.3333333333333</ele><time>2026-04-28T08:29:06.207Z</time></trkpt><trkpt lat="37.8134517" lon="15.1676817"><ele>397.66666666666663</ele><time>2026-04-28T08:29:07.207Z</time></trkpt><trkpt lat="37.8134717" lon="15.167425"><ele>399.0</ele><time>2026-04-28T08:29:08.207Z</time></trkpt><trkpt lat="37.8134883" lon="15.16717"><ele>401.66666666666663</ele><time>2026-04-28T08:29:09.207Z</time></trkpt><trkpt lat="37.8135" lon="15.1669117"><ele>404.3333333333333</ele><time>2026-04-28T08:29:10.207Z</time></trkpt><trkpt lat="37.813515" lon="15.1666467"><ele>407.0</ele><time>2026-04-28T08:29:11.207Z</time></trkpt><trkpt lat="37.81352" lon="15.1663817"><ele>408.66666666666663</ele><time>2026-04-28T08:29:12.207Z</time></trkpt><trkpt lat="37.8135317" lon="15.166105"><ele>410.33333333333337</ele><time>2026-04-28T08:29:13.207Z</time></trkpt><trkpt lat="37.8135383" lon="15.1658317"><ele>412.0</ele><time>2026-04-28T08:29:14.208Z</time></trkpt><trkpt lat="37.8135617" lon="15.165555"><ele>412.33333333333337</ele><time>2026-04-28T08:29:15.207Z</time></trkpt><trkpt lat="37.8135633" lon="15.1652983"><ele>412.66666666666663</ele><time>2026-04-28T08:29:16.207Z</time></trkpt><trkpt lat="37.8135717" lon="15.1650417"><ele>413.0</ele><time>2026-04-28T08:29:17.207Z</time></trkpt><trkpt lat="37.8135833" lon="15.164785"><ele>414.66666666666663</ele><time>2026-04-28T08:29:18.208Z</time></trkpt><trkpt lat="37.8136133" lon="15.1645383"><ele>416.33333333333337</ele><time>2026-04-28T08:29:19.207Z</time></trkpt><trkpt lat="37.8136333" lon="15.1643183"><ele>418.0</ele><time>2026-04-28T08:29:20.208Z</time></trkpt><trkpt lat="37.8136633" lon="15.16411"><ele>418.33333333333337</ele><time>2026-04-28T08:29:21.207Z</time></trkpt><trkpt lat="37.8137083" lon="15.1639083"><ele>418.66666666666663</ele><time>2026-04-28T08:29:22.208Z</time></trkpt><trkpt lat="37.813775" lon="15.16373"><ele>419.0</ele><time>2026-04-28T08:29:23.207Z</time></trkpt><trkpt lat="37.8138567" lon="15.1635367"><ele>419.0</ele><time>2026-04-28T08:29:24.207Z</time></trkpt><trkpt lat="37.81393" lon="15.16334"><ele>419.0</ele><time>2026-04-28T08:29:25.207Z</time></trkpt><trkpt lat="37.8139883" lon="15.1631333"><ele>419.0</ele><time>2026-04-28T08:29:26.207Z</time></trkpt><trkpt lat="37.8140467" lon="15.16291"><ele>419.66666666666663</ele><time>2026-04-28T08:29:27.207Z</time></trkpt><trkpt lat="37.8140917" lon="15.1626967"><ele>420.33333333333337</ele><time>2026-04-28T08:29:28.207Z</time></trkpt><trkpt lat="37.8141433" lon="15.1624983"><ele>421.0</ele><time>2026-04-28T08:29:29.208Z</time></trkpt><trkpt lat="37.8142017" lon="15.1623333"><ele>424.33333333333337</ele><time>2026-04-28T08:29:30.207Z</time></trkpt><trkpt lat="37.8142867" lon="15.1621933"><ele>427.66666666666663</ele><time>2026-04-28T08:29:31.207Z</time></trkpt><trkpt lat="37.8144083" lon="15.162075"><ele>431.0</ele><time>2026-04-28T08:29:32.207Z</time></trkpt><trkpt lat="37.8145617" lon="15.16196"><ele>432.3333333333333</ele><time>2026-04-28T08:29:33.208Z</time></trkpt><trkpt lat="37.8147133" lon="15.161845"><ele>433.66666666666663</ele><time>2026-04-28T08:29:34.208Z</time></trkpt><trkpt lat="37.8148667" lon="15.16176"><ele>435.0</ele><time>2026-04-28T08:29:35.207Z</time></trkpt><trkpt lat="37.8150333" lon="15.161685"><ele>437.0</ele><time>2026-04-28T08:29:36.207Z</time></trkpt><trkpt lat="37.815185" lon="15.1616317"><ele>439.0</ele><time>2026-04-28T08:29:37.208Z</time></trkpt><trkpt lat="37.81533" lon="15.1615867"><ele>441.0</ele><time>2026-04-28T08:29:38.207Z</time></trkpt><trkpt lat="37.81549" lon="15.1615667"><ele>441.0</ele><time>2026-04-28T08:29:39.207Z</time></trkpt><trkpt lat="37.8156233" lon="15.161615"><ele>441.0</ele><time>2026-04-28T08:29:40.207Z</time></trkpt><trkpt lat="37.81578" lon="15.1616933"><ele>441.0</ele><time>2026-04-28T08:29:41.207Z</time></trkpt><trkpt lat="37.8159517" lon="15.1617733"><ele>442.0</ele><time>2026-04-28T08:29:42.207Z</time></trkpt><trkpt lat="37.81612" lon="15.1618083"><ele>443.0</ele><time>2026-04-28T08:29:43.207Z</time></trkpt><trkpt lat="37.8162883" lon="15.16182"><ele>444.0</ele><time>2026-04-28T08:29:44.208Z</time></trkpt><trkpt lat="37.8164667" lon="15.1617767"><ele>444.0</ele><time>2026-04-28T08:29:45.207Z</time></trkpt><trkpt lat="37.8166333" lon="15.1617333"><ele>444.0</ele><time>2026-04-28T08:29:46.207Z</time></trkpt><trkpt lat="37.8167783" lon="15.1616933"><ele>444.0</ele><time>2026-04-28T08:29:47.207Z</time></trkpt><trkpt lat="37.81691" lon="15.16163"><ele>445.66666666666663</ele><time>2026-04-28T08:29:48.207Z</time></trkpt><trkpt lat="37.8170183" lon="15.16152"><ele>447.3333333333333</ele><time>2026-04-28T08:29:49.207Z</time></trkpt><trkpt lat="37.8171133" lon="15.1613467"><ele>449.0</ele><time>2026-04-28T08:29:50.208Z</time></trkpt><trkpt lat="37.8171983" lon="15.161155"><ele>449.0</ele><time>2026-04-28T08:29:51.207Z</time></trkpt><trkpt lat="37.8172833" lon="15.1609467"><ele>449.0</ele><time>2026-04-28T08:29:52.207Z</time></trkpt><trkpt lat="37.81739" lon="15.1607283"><ele>449.0</ele><time>2026-04-28T08:29:53.207Z</time></trkpt><trkpt lat="37.8175017" lon="15.16051"><ele>451.0</ele><time>2026-04-28T08:29:54.207Z</time></trkpt><trkpt lat="37.8176267" lon="15.1602967"><ele>453.0</ele><time>2026-04-28T08:29:55.207Z</time></trkpt><trkpt lat="37.817745" lon="15.160085"><ele>455.0</ele><time>2026-04-28T08:29:56.207Z</time></trkpt><trkpt lat="37.8178667" lon="15.1598767"><ele>456.66666666666663</ele><time>2026-04-28T08:29:57.207Z</time></trkpt><trkpt lat="37.8179767" lon="15.159685"><ele>458.33333333333337</ele><time>2026-04-28T08:29:58.207Z</time></trkpt><trkpt lat="37.8180717" lon="15.159515"><ele>460.0</ele><time>2026-04-28T08:29:59.207Z</time></trkpt><trkpt lat="37.81818" lon="15.159385"><ele>460.0</ele><time>2026-04-28T08:30:00.207Z</time></trkpt><trkpt lat="37.818315" lon="15.15927"><ele>460.0</ele><time>2026-04-28T08:30:01.207Z</time></trkpt><trkpt lat="37.8184817" lon="15.15919"><ele>460.0</ele><time>2026-04-28T08:30:02.208Z</time></trkpt><trkpt lat="37.8186683" lon="15.1591383"><ele>460.33333333333337</ele><time>2026-04-28T08:30:03.207Z</time></trkpt><trkpt lat="37.81886" lon="15.159095"><ele>460.66666666666663</ele><time>2026-04-28T08:30:04.207Z</time></trkpt><trkpt lat="37.8190533" lon="15.1590417"><ele>461.0</ele><time>2026-04-28T08:30:05.207Z</time></trkpt><trkpt lat="37.8192367" lon="15.1589817"><ele>463.66666666666663</ele><time>2026-04-28T08:30:06.207Z</time></trkpt><trkpt lat="37.8194183" lon="15.1589167"><ele>466.33333333333337</ele><time>2026-04-28T08:30:07.207Z</time></trkpt><trkpt lat="37.819595" lon="15.1588517"><ele>469.0</ele><time>2026-04-28T08:30:08.207Z</time></trkpt><trkpt lat="37.81977" lon="15.15879"><ele>469.0</ele><time>2026-04-28T08:30:09.207Z</time></trkpt><trkpt lat="37.8199383" lon="15.1587317"><ele>469.0</ele><time>2026-04-28T08:30:10.207Z</time></trkpt><trkpt lat="37.820095" lon="15.1586517"><ele>469.0</ele><time>2026-04-28T08:30:11.207Z</time></trkpt><trkpt lat="37.8202567" lon="15.158555"><ele>470.0</ele><time>2026-04-28T08:30:12.207Z</time></trkpt><trkpt lat="37.8204267" lon="15.1584233"><ele>471.0</ele><time>2026-04-28T08:30:13.207Z</time></trkpt><trkpt lat="37.8206067" lon="15.1582933"><ele>472.0</ele><time>2026-04-28T08:30:14.207Z</time></trkpt><trkpt lat="37.8207783" lon="15.1581583"><ele>472.6666666666667</ele><time>2026-04-28T08:30:15.207Z</time></trkpt><trkpt lat="37.820955" lon="15.1580267"><ele>473.33333333333337</ele><time>2026-04-28T08:30:16.207Z</time></trkpt><trkpt lat="37.8211233" lon="15.1579017"><ele>474.0</ele><time>2026-04-28T08:30:17.207Z</time></trkpt><trkpt lat="37.8212883" lon="15.15779"><ele>475.33333333333337</ele><time>2026-04-28T08:30:18.207Z</time></trkpt><trkpt lat="37.8214533" lon="15.15768"><ele>476.6666666666667</ele><time>2026-04-28T08:30:19.207Z</time></trkpt><trkpt lat="37.8216117" lon="15.157575"><ele>478.0</ele><time>2026-04-28T08:30:20.207Z</time></trkpt><trkpt lat="37.8217817" lon="15.15746"><ele>480.33333333333337</ele><time>2026-04-28T08:30:21.208Z</time></trkpt><trkpt lat="37.8219367" lon="15.15736"><ele>482.66666666666663</ele><time>2026-04-28T08:30:22.207Z</time></trkpt><trkpt lat="37.8220833" lon="15.1572533"><ele>485.0</ele><time>2026-04-28T08:30:23.208Z</time></trkpt><trkpt lat="37.8222067" lon="15.1571267"><ele>485.0</ele><time>2026-04-28T08:30:24.207Z</time></trkpt><trkpt lat="37.8223067" lon="15.1569817"><ele>485.0</ele><time>2026-04-28T08:30:25.207Z</time></trkpt><trkpt lat="37.822405" lon="15.1568117"><ele>485.0</ele><time>2026-04-28T08:30:26.207Z</time></trkpt><trkpt lat="37.8224917" lon="15.1566467"><ele>486.0</ele><time>2026-04-28T08:30:27.208Z</time></trkpt><trkpt lat="37.8225817" lon="15.1564917"><ele>487.0</ele><time>2026-04-28T08:30:28.207Z</time></trkpt><trkpt lat="37.82267" lon="15.156335"><ele>488.0</ele><time>2026-04-28T08:30:29.207Z</time></trkpt><trkpt lat="37.8227517" lon="15.1561817"><ele>488.0</ele><time>2026-04-28T08:30:30.207Z</time></trkpt><trkpt lat="37.822835" lon="15.156015"><ele>488.0</ele><time>2026-04-28T08:30:31.207Z</time></trkpt><trkpt lat="37.8228983" lon="15.1558267"><ele>488.0</ele><time>2026-04-28T08:30:32.207Z</time></trkpt><trkpt lat="37.82294" lon="15.1556067"><ele>488.3333333333333</ele><time>2026-04-28T08:30:33.207Z</time></trkpt><trkpt lat="37.8229583" lon="15.155365"><ele>488.66666666666663</ele><time>2026-04-28T08:30:34.207Z</time></trkpt><trkpt lat="37.8229667" lon="15.1551033"><ele>489.0</ele><time>2026-04-28T08:30:35.208Z</time></trkpt><trkpt lat="37.8229983" lon="15.1548167"><ele>491.0</ele><time>2026-04-28T08:30:36.207Z</time></trkpt><trkpt lat="37.8230283" lon="15.1545283"><ele>493.0</ele><time>2026-04-28T08:30:37.207Z</time></trkpt><trkpt lat="37.82306" lon="15.154245"><ele>494.0</ele><time>2026-04-28T08:30:38.207Z</time></trkpt><trkpt lat="37.8230933" lon="15.153965"><ele>495.0</ele><time>2026-04-28T08:30:39.207Z</time></trkpt><trkpt lat="37.8231167" lon="15.1536983"><ele>496.0</ele><time>2026-04-28T08:30:40.207Z</time></trkpt><trkpt lat="37.82314" lon="15.1534467"><ele>496.0</ele><time>2026-04-28T08:30:41.207Z</time></trkpt><trkpt lat="37.8231667" lon="15.153225"><ele>496.0</ele><time>2026-04-28T08:30:42.207Z</time></trkpt><trkpt lat="37.8232017" lon="15.15301"><ele>496.0</ele><time>2026-04-28T08:30:43.207Z</time></trkpt><trkpt lat="37.823265" lon="15.1528"><ele>495.33333333333337</ele><time>2026-04-28T08:30:44.207Z</time></trkpt><trkpt lat="37.8233633" lon="15.1526067"><ele>494.66666666666663</ele><time>2026-04-28T08:30:45.208Z</time></trkpt><trkpt lat="37.8234667" lon="15.1524033"><ele>494.0</ele><time>2026-04-28T08:30:46.207Z</time></trkpt><trkpt lat="37.823575" lon="15.15218"><ele>493.66666666666663</ele><time>2026-04-28T08:30:47.207Z</time></trkpt><trkpt lat="37.8236833" lon="15.1519483"><ele>493.33333333333337</ele><time>2026-04-28T08:30:48.207Z</time></trkpt><trkpt lat="37.8237933" lon="15.1517233"><ele>493.0</ele><time>2026-04-28T08:30:49.207Z</time></trkpt><trkpt lat="37.8239217" lon="15.1515"><ele>494.0</ele><time>2026-04-28T08:30:50.207Z</time></trkpt><trkpt lat="37.8240433" lon="15.15128"><ele>495.0</ele><time>2026-04-28T08:30:51.208Z</time></trkpt><trkpt lat="37.8241533" lon="15.151055"><ele>496.0</ele><time>2026-04-28T08:30:52.207Z</time></trkpt><trkpt lat="37.8242633" lon="15.1508333"><ele>496.33333333333337</ele><time>2026-04-28T08:30:53.207Z</time></trkpt><trkpt lat="37.82437" lon="15.1506133"><ele>496.66666666666663</ele><time>2026-04-28T08:30:54.207Z</time></trkpt><trkpt lat="37.824475" lon="15.1504"><ele>497.0</ele><time>2026-04-28T08:30:55.207Z</time></trkpt><trkpt lat="37.8245767" lon="15.1501867"><ele>497.0</ele><time>2026-04-28T08:30:56.207Z</time></trkpt><trkpt lat="37.8246767" lon="15.14998"><ele>497.0</ele><time>2026-04-28T08:30:57.207Z</time></trkpt><trkpt lat="37.8247717" lon="15.1497767"><ele>497.0</ele><time>2026-04-28T08:30:58.207Z</time></trkpt><trkpt lat="37.8248733" lon="15.149595"><ele>497.3333333333333</ele><time>2026-04-28T08:30:59.208Z</time></trkpt><trkpt lat="37.8249917" lon="15.14942"><ele>497.66666666666663</ele><time>2026-04-28T08:31:00.207Z</time></trkpt><trkpt lat="37.8251267" lon="15.1492633"><ele>498.0</ele><time>2026-04-28T08:31:01.207Z</time></trkpt><trkpt lat="37.8252683" lon="15.1491283"><ele>498.33333333333337</ele><time>2026-04-28T08:31:02.207Z</time></trkpt><trkpt lat="37.8254133" lon="15.1489933"><ele>498.6666666666667</ele><time>2026-04-28T08:31:03.207Z</time></trkpt><trkpt lat="37.8255583" lon="15.1488467"><ele>499.0</ele><time>2026-04-28T08:31:04.207Z</time></trkpt><trkpt lat="37.82571" lon="15.1487033"><ele>499.0</ele><time>2026-04-28T08:31:05.207Z</time></trkpt><trkpt lat="37.82586" lon="15.1485517"><ele>499.0</ele><time>2026-04-28T08:31:06.207Z</time></trkpt><trkpt lat="37.82601" lon="15.148395"><ele>499.0</ele><time>2026-04-28T08:31:07.208Z</time></trkpt><trkpt lat="37.82616" lon="15.1482433"><ele>498.6666666666667</ele><time>2026-04-28T08:31:08.207Z</time></trkpt><trkpt lat="37.82631" lon="15.1480917"><ele>498.33333333333337</ele><time>2026-04-28T08:31:09.208Z</time></trkpt><trkpt lat="37.8264483" lon="15.1479417"><ele>498.0</ele><time>2026-04-28T08:31:10.207Z</time></trkpt><trkpt lat="37.8265917" lon="15.147795"><ele>498.0</ele><time>2026-04-28T08:31:11.207Z</time></trkpt><trkpt lat="37.826735" lon="15.1476483"><ele>498.0</ele><time>2026-04-28T08:31:12.207Z</time></trkpt><trkpt lat="37.826875" lon="15.147495"><ele>498.0</ele><time>2026-04-28T08:31:13.207Z</time></trkpt><trkpt lat="37.8270017" lon="15.147335"><ele>498.66666666666663</ele><time>2026-04-28T08:31:14.207Z</time></trkpt><trkpt lat="37.8271267" lon="15.1471733"><ele>499.3333333333333</ele><time>2026-04-28T08:31:15.207Z</time></trkpt><trkpt lat="37.827255" lon="15.1470217"><ele>500.0</ele><time>2026-04-28T08:31:16.207Z</time></trkpt><trkpt lat="37.82739" lon="15.146885"><ele>500.0</ele><time>2026-04-28T08:31:17.208Z</time></trkpt><trkpt lat="37.8275417" lon="15.1467633"><ele>500.0</ele><time>2026-04-28T08:31:18.207Z</time></trkpt><trkpt lat="37.827705" lon="15.1466633"><ele>500.0</ele><time>2026-04-28T08:31:19.208Z</time></trkpt><trkpt lat="37.827875" lon="15.1465617"><ele>501.66666666666663</ele><time>2026-04-28T08:31:20.207Z</time></trkpt><trkpt lat="37.82804" lon="15.1464467"><ele>503.33333333333337</ele><time>2026-04-28T08:31:21.207Z</time></trkpt><trkpt lat="37.82819" lon="15.1463183"><ele>505.0</ele><time>2026-04-28T08:31:22.207Z</time></trkpt><trkpt lat="37.8283417" lon="15.1461883"><ele>504.6666666666667</ele><time>2026-04-28T08:31:23.207Z</time></trkpt><trkpt lat="37.8284983" lon="15.1460617"><ele>504.33333333333337</ele><time>2026-04-28T08:31:24.207Z</time></trkpt><trkpt lat="37.828655" lon="15.1459467"><ele>504.0</ele><time>2026-04-28T08:31:25.207Z</time></trkpt><trkpt lat="37.8288133" lon="15.1458483"><ele>504.0</ele><time>2026-04-28T08:31:26.207Z</time></trkpt><trkpt lat="37.8289783" lon="15.145765"><ele>504.0</ele><time>2026-04-28T08:31:27.207Z</time></trkpt><trkpt lat="37.8291333" lon="15.145695"><ele>504.0</ele><time>2026-04-28T08:31:28.207Z</time></trkpt><trkpt lat="37.82928" lon="15.1456283"><ele>505.75</ele><time>2026-04-28T08:31:29.207Z</time></trkpt><trkpt lat="37.8294183" lon="15.145555"><ele>507.5</ele><time>2026-04-28T08:31:30.207Z</time></trkpt><trkpt lat="37.82954" lon="15.14549"><ele>509.25</ele><time>2026-04-28T08:31:31.207Z</time></trkpt><trkpt lat="37.82966" lon="15.1454167"><ele>511.0</ele><time>2026-04-28T08:31:32.207Z</time></trkpt><trkpt lat="37.82977" lon="15.1453467"><ele>511.0</ele><time>2026-04-28T08:31:33.207Z</time></trkpt><trkpt lat="37.8298717" lon="15.1452817"><ele>511.0</ele><time>2026-04-28T08:31:34.208Z</time></trkpt><trkpt lat="37.8299717" lon="15.1452283"><ele>511.0</ele><time>2026-04-28T08:31:35.207Z</time></trkpt><trkpt lat="37.830075" lon="15.1451733"><ele>511.0</ele><time>2026-04-28T08:31:36.207Z</time></trkpt><trkpt lat="37.830185" lon="15.1451233"><ele>512.25</ele><time>2026-04-28T08:31:37.207Z</time></trkpt><trkpt lat="37.8303" lon="15.1450783"><ele>513.5</ele><time>2026-04-28T08:31:38.207Z</time></trkpt><trkpt lat="37.8304217" lon="15.1450333"><ele>514.75</ele><time>2026-04-28T08:31:39.207Z</time></trkpt><trkpt lat="37.8305417" lon="15.1449967"><ele>516.0</ele><time>2026-04-28T08:31:40.208Z</time></trkpt><trkpt lat="37.8306733" lon="15.1449533"><ele>516.0</ele><time>2026-04-28T08:31:41.207Z</time></trkpt><trkpt lat="37.830805" lon="15.1449217"><ele>516.0</ele><time>2026-04-28T08:31:42.207Z</time></trkpt><trkpt lat="37.8309317" lon="15.144895"><ele>516.0</ele><time>2026-04-28T08:31:43.208Z</time></trkpt><trkpt lat="37.83107" lon="15.1448667"><ele>516.0</ele><time>2026-04-28T08:31:44.208Z</time></trkpt><trkpt lat="37.831205" lon="15.14484"><ele>516.75</ele><time>2026-04-28T08:31:45.207Z</time></trkpt><trkpt lat="37.8313417" lon="15.1448033"><ele>517.5</ele><time>2026-04-28T08:31:46.207Z</time></trkpt><trkpt lat="37.83148" lon="15.1447617"><ele>518.25</ele><time>2026-04-28T08:31:47.207Z</time></trkpt><trkpt lat="37.8316083" lon="15.14472"><ele>519.0</ele><time>2026-04-28T08:31:48.207Z</time></trkpt><trkpt lat="37.8317333" lon="15.1446767"><ele>517.75</ele><time>2026-04-28T08:31:49.207Z</time></trkpt><trkpt lat="37.8318583" lon="15.1446333"><ele>516.5</ele><time>2026-04-28T08:31:50.207Z</time></trkpt><trkpt lat="37.8319833" lon="15.14458"><ele>515.25</ele><time>2026-04-28T08:31:51.207Z</time></trkpt><trkpt lat="37.8321133" lon="15.1445433"><ele>514.0</ele><time>2026-04-28T08:31:52.207Z</time></trkpt><trkpt lat="37.8322383" lon="15.1445"><ele>514.0</ele><time>2026-04-28T08:31:53.208Z</time></trkpt><trkpt lat="37.8323633" lon="15.1444633"><ele>514.0</ele><time>2026-04-28T08:31:54.207Z</time></trkpt><trkpt lat="37.83248" lon="15.1444283"><ele>514.0</ele><time>2026-04-28T08:31:55.207Z</time></trkpt><trkpt lat="37.83259" lon="15.144405"><ele>514.0</ele><time>2026-04-28T08:31:56.207Z</time></trkpt><trkpt lat="37.8326933" lon="15.1443933"><ele>513.8</ele><time>2026-04-28T08:31:57.207Z</time></trkpt><trkpt lat="37.8327883" lon="15.1444033"><ele>513.5999999999999</ele><time>2026-04-28T08:31:58.207Z</time></trkpt><trkpt lat="37.8328817" lon="15.144425"><ele>513.4</ele><time>2026-04-28T08:31:59.207Z</time></trkpt><trkpt lat="37.83297" lon="15.1444617"><ele>513.1999999999999</ele><time>2026-04-28T08:32:00.207Z</time></trkpt><trkpt lat="37.8330617" lon="15.1444833"><ele>513.0</ele><time>2026-04-28T08:32:01.207Z</time></trkpt><trkpt lat="37.833165" lon="15.144475"><ele>513.0</ele><time>2026-04-28T08:32:02.207Z</time></trkpt><trkpt lat="37.8332917" lon="15.1444317"><ele>513.0</ele><time>2026-04-28T08:32:03.207Z</time></trkpt><trkpt lat="37.8334433" lon="15.144375"><ele>513.0</ele><time>2026-04-28T08:32:04.207Z</time></trkpt><trkpt lat="37.8336033" lon="15.1443217"><ele>514.6666666666666</ele><time>2026-04-28T08:32:05.207Z</time></trkpt><trkpt lat="37.833775" lon="15.14428"><ele>516.3333333333333</ele><time>2026-04-28T08:32:06.208Z</time></trkpt><trkpt lat="37.8339367" lon="15.14424"><ele>518.0</ele><time>2026-04-28T08:32:07.207Z</time></trkpt><trkpt lat="37.8340917" lon="15.1441983"><ele>518.0</ele><time>2026-04-28T08:32:08.207Z</time></trkpt><trkpt lat="37.8342467" lon="15.144145"><ele>518.0</ele><time>2026-04-28T08:32:09.208Z</time></trkpt><trkpt lat="37.834395" lon="15.144075"><ele>518.0</ele><time>2026-04-28T08:32:10.207Z</time></trkpt><trkpt lat="37.8345467" lon="15.144"><ele>519.0</ele><time>2026-04-28T08:32:11.207Z</time></trkpt><trkpt lat="37.8346917" lon="15.143915"><ele>520.0</ele><time>2026-04-28T08:32:12.207Z</time></trkpt><trkpt lat="37.8348383" lon="15.14383"><ele>521.0</ele><time>2026-04-28T08:32:13.207Z</time></trkpt><trkpt lat="37.8349683" lon="15.1437733"><ele>521.0</ele><time>2026-04-28T08:32:14.207Z</time></trkpt><trkpt lat="37.8351233" lon="15.1437183"><ele>521.0</ele><time>2026-04-28T08:32:15.207Z</time></trkpt><trkpt lat="37.8352833" lon="15.1436833"><ele>521.0</ele><time>2026-04-28T08:32:16.207Z</time></trkpt><trkpt lat="37.8354433" lon="15.143685"><ele>522.3333333333333</ele><time>2026-04-28T08:32:17.207Z</time></trkpt><trkpt lat="37.835595" lon="15.14371"><ele>523.6666666666666</ele><time>2026-04-28T08:32:18.207Z</time></trkpt><trkpt lat="37.8357467" lon="15.143745"><ele>525.0</ele><time>2026-04-28T08:32:19.207Z</time></trkpt><trkpt lat="37.835905" lon="15.1437867"><ele>526.3333333333334</ele><time>2026-04-28T08:32:20.207Z</time></trkpt><trkpt lat="37.836055" lon="15.14384"><ele>527.6666666666667</ele><time>2026-04-28T08:32:21.208Z</time></trkpt><trkpt lat="37.836195" lon="15.1439017"><ele>529.0</ele><time>2026-04-28T08:32:22.208Z</time></trkpt><trkpt lat="37.836325" lon="15.143995"><ele>528.75</ele><time>2026-04-28T08:32:23.207Z</time></trkpt><trkpt lat="37.836455" lon="15.144095"><ele>528.5</ele><time>2026-04-28T08:32:24.207Z</time></trkpt><trkpt lat="37.8365883" lon="15.1441933"><ele>528.25</ele><time>2026-04-28T08:32:25.207Z</time></trkpt><trkpt lat="37.8367067" lon="15.1442783"><ele>528.0</ele><time>2026-04-28T08:32:26.208Z</time></trkpt><trkpt lat="37.83681" lon="15.1443667"><ele>529.0</ele><time>2026-04-28T08:32:27.207Z</time></trkpt><trkpt lat="37.8368917" lon="15.144435"><ele>530.0</ele><time>2026-04-28T08:32:28.207Z</time></trkpt><trkpt lat="37.8369783" lon="15.1445067"><ele>531.0</ele><time>2026-04-28T08:32:29.207Z</time></trkpt><trkpt lat="37.837055" lon="15.1445717"><ele>532.0</ele><time>2026-04-28T08:32:30.207Z</time></trkpt><trkpt lat="37.8371317" lon="15.1446233"><ele>533.0</ele><time>2026-04-28T08:32:31.208Z</time></trkpt><trkpt lat="37.8372417" lon="15.144675"><ele>533.0</ele><time>2026-04-28T08:32:32.207Z</time></trkpt><trkpt lat="37.8373533" lon="15.14472"><ele>533.0</ele><time>2026-04-28T08:32:33.207Z</time></trkpt><trkpt lat="37.837455" lon="15.144735"><ele>533.0</ele><time>2026-04-28T08:32:34.207Z</time></trkpt><trkpt lat="37.8375633" lon="15.1447567"><ele>533.0</ele><time>2026-04-28T08:32:35.207Z</time></trkpt><trkpt lat="37.8376767" lon="15.1447633"><ele>533.0</ele><time>2026-04-28T08:32:36.207Z</time></trkpt><trkpt lat="37.8377867" lon="15.1447733"><ele>533.4</ele><time>2026-04-28T08:32:37.207Z</time></trkpt><trkpt lat="37.8378917" lon="15.14477"><ele>533.8</ele><time>2026-04-28T08:32:38.208Z</time></trkpt><trkpt lat="37.8379917" lon="15.1447683"><ele>534.2</ele><time>2026-04-28T08:32:39.207Z</time></trkpt><trkpt lat="37.8381083" lon="15.1447833"><ele>534.6</ele><time>2026-04-28T08:32:40.207Z</time></trkpt><trkpt lat="37.8382083" lon="15.14479"><ele>535.0</ele><time>2026-04-28T08:32:41.207Z</time></trkpt><trkpt lat="37.8382983" lon="15.1447933"><ele>535.0</ele><time>2026-04-28T08:32:42.208Z</time></trkpt><trkpt lat="37.8383967" lon="15.1447917"><ele>535.0</ele><time>2026-04-28T08:32:43.207Z</time></trkpt><trkpt lat="37.83851" lon="15.1447683"><ele>535.0</ele><time>2026-04-28T08:32:44.207Z</time></trkpt><trkpt lat="37.8386367" lon="15.1447633"><ele>535.0</ele><time>2026-04-28T08:32:45.207Z</time></trkpt><trkpt lat="37.8387767" lon="15.1447467"><ele>535.0</ele><time>2026-04-28T08:32:46.208Z</time></trkpt><trkpt lat="37.8389217" lon="15.144735"><ele>535.0</ele><time>2026-04-28T08:32:47.208Z</time></trkpt><trkpt lat="37.8390783" lon="15.1447233"><ele>535.0</ele><time>2026-04-28T08:32:48.207Z</time></trkpt><trkpt lat="37.839225" lon="15.144705"><ele>535.6666666666667</ele><time>2026-04-28T08:32:49.207Z</time></trkpt><trkpt lat="37.8393683" lon="15.1446867"><ele>536.3333333333334</ele><time>2026-04-28T08:32:50.208Z</time></trkpt><trkpt lat="37.8395217" lon="15.1446617"><ele>537.0</ele><time>2026-04-28T08:32:51.208Z</time></trkpt><trkpt lat="37.8396717" lon="15.1446417"><ele>537.0</ele><time>2026-04-28T08:32:52.207Z</time></trkpt><trkpt lat="37.8398333" lon="15.1446283"><ele>537.0</ele><time>2026-04-28T08:32:53.207Z</time></trkpt><trkpt lat="37.8399783" lon="15.144605"><ele>537.0</ele><time>2026-04-28T08:32:54.207Z</time></trkpt><trkpt lat="37.8401167" lon="15.1445833"><ele>537.0</ele><time>2026-04-28T08:32:55.207Z</time></trkpt><trkpt lat="37.8402467" lon="15.1445583"><ele>537.2</ele><time>2026-04-28T08:32:56.207Z</time></trkpt><trkpt lat="37.8403683" lon="15.1445333"><ele>537.4000000000001</ele><time>2026-04-28T08:32:57.207Z</time></trkpt><trkpt lat="37.8404817" lon="15.1444983"><ele>537.5999999999999</ele><time>2026-04-28T08:32:58.207Z</time></trkpt><trkpt lat="37.8405683" lon="15.1444367"><ele>537.8</ele><time>2026-04-28T08:32:59.207Z</time></trkpt><trkpt lat="37.8406367" lon="15.14436"><ele>538.0</ele><time>2026-04-28T08:33:00.207Z</time></trkpt><trkpt lat="37.8406967" lon="15.14428"><ele>538.0</ele><time>2026-04-28T08:33:01.207Z</time></trkpt><trkpt lat="37.8407583" lon="15.1441967"><ele>538.0</ele><time>2026-04-28T08:33:02.207Z</time></trkpt><trkpt lat="37.8408217" lon="15.1441283"><ele>538.0</ele><time>2026-04-28T08:33:03.207Z</time></trkpt><trkpt lat="37.8408967" lon="15.14406"><ele>538.0</ele><time>2026-04-28T08:33:04.207Z</time></trkpt><trkpt lat="37.840965" lon="15.14398"><ele>538.0</ele><time>2026-04-28T08:33:05.207Z</time></trkpt><trkpt lat="37.8410267" lon="15.1439067"><ele>538.0</ele><time>2026-04-28T08:33:06.207Z</time></trkpt><trkpt lat="37.841095" lon="15.1438233"><ele>538.4</ele><time>2026-04-28T08:33:07.207Z</time></trkpt><trkpt lat="37.841155" lon="15.14373"><ele>538.8</ele><time>2026-04-28T08:33:08.207Z</time></trkpt><trkpt lat="37.8412167" lon="15.14363"><ele>539.2</ele><time>2026-04-28T08:33:09.207Z</time></trkpt><trkpt lat="37.8412667" lon="15.1435283"><ele>539.6</ele><time>2026-04-28T08:33:10.207Z</time></trkpt><trkpt lat="37.8413233" lon="15.1434383"><ele>540.0</ele><time>2026-04-28T08:33:11.207Z</time></trkpt><trkpt lat="37.8413867" lon="15.14336"><ele>540.0</ele><time>2026-04-28T08:33:12.207Z</time></trkpt><trkpt lat="37.8414367" lon="15.14329"><ele>540.0</ele><time>2026-04-28T08:33:13.208Z</time></trkpt><trkpt lat="37.84148" lon="15.1432267"><ele>540.0</ele><time>2026-04-28T08:33:14.207Z</time></trkpt><trkpt lat="37.841515" lon="15.1431583"><ele>540.0</ele><time>2026-04-28T08:33:15.207Z</time></trkpt><trkpt lat="37.841585" lon="15.1430433"><ele>540.0</ele><time>2026-04-28T08:33:17.207Z</time></trkpt><trkpt lat="37.841645" lon="15.142915"><ele>540.0</ele><time>2026-04-28T08:33:19.207Z</time></trkpt><trkpt lat="37.8417133" lon="15.1428033"><ele>540.6</ele><time>2026-04-28T08:33:21.208Z</time></trkpt><trkpt lat="37.84181" lon="15.1427117"><ele>541.2</ele><time>2026-04-28T08:33:23.207Z</time></trkpt><trkpt lat="37.8419067" lon="15.1426383"><ele>541.8</ele><time>2026-04-28T08:33:25.208Z</time></trkpt><trkpt lat="37.8419767" lon="15.1425617"><ele>542.4</ele><time>2026-04-28T08:33:27.207Z</time></trkpt><trkpt lat="37.8420533" lon="15.142475"><ele>543.0</ele><time>2026-04-28T08:33:29.207Z</time></trkpt><trkpt lat="37.8421467" lon="15.1424267"><ele>543.0</ele><time>2026-04-28T08:33:31.207Z</time></trkpt><trkpt lat="37.842215" lon="15.1423833"><ele>543.0</ele><time>2026-04-28T08:33:33.207Z</time></trkpt><trkpt lat="37.8422733" lon="15.1423417"><ele>543.0</ele><time>2026-04-28T08:33:35.207Z</time></trkpt><trkpt lat="37.84235" lon="15.1422867"><ele>543.0</ele><time>2026-04-28T08:33:37.207Z</time></trkpt><trkpt lat="37.84242" lon="15.1422133"><ele>543.0</ele><time>2026-04-28T08:33:39.207Z</time></trkpt><trkpt lat="37.8424817" lon="15.1421383"><ele>543.0</ele><time>2026-04-28T08:33:41.207Z</time></trkpt><trkpt lat="37.84255" lon="15.1420833"><ele>543.0</ele><time>2026-04-28T08:33:43.207Z</time></trkpt><trkpt lat="37.8426017" lon="15.1420267"><ele>543.0</ele><time>2026-04-28T08:33:45.207Z</time></trkpt><trkpt lat="37.8426383" lon="15.1419433"><ele>543.0</ele><time>2026-04-28T08:33:50.207Z</time></trkpt><trkpt lat="37.842665" lon="15.1418683"><ele>543.0</ele><time>2026-04-28T08:33:52.207Z</time></trkpt><trkpt lat="37.8426533" lon="15.1417317"><ele>543.0</ele><time>2026-04-28T08:33:54.207Z</time></trkpt><trkpt lat="37.84263" lon="15.1416433"><ele>543.0</ele><time>2026-04-28T08:33:55.207Z</time></trkpt><trkpt lat="37.8426083" lon="15.1415433"><ele>544.1999999999999</ele><time>2026-04-28T08:33:56.207Z</time></trkpt><trkpt lat="37.8425783" lon="15.1414417"><ele>545.4</ele><time>2026-04-28T08:33:57.207Z</time></trkpt><trkpt lat="37.8425367" lon="15.1413417"><ele>546.5999999999999</ele><time>2026-04-28T08:33:58.207Z</time></trkpt><trkpt lat="37.8424967" lon="15.14123"><ele>547.8</ele><time>2026-04-28T08:33:59.207Z</time></trkpt><trkpt lat="37.8424667" lon="15.1411167"><ele>549.0</ele><time>2026-04-28T08:34:00.207Z</time></trkpt><trkpt lat="37.8424433" lon="15.141005"><ele>549.0</ele><time>2026-04-28T08:34:01.207Z</time></trkpt><trkpt lat="37.8424217" lon="15.1409"><ele>549.0</ele><time>2026-04-28T08:34:02.207Z</time></trkpt><trkpt lat="37.842395" lon="15.1408033"><ele>549.0</ele><time>2026-04-28T08:34:03.207Z</time></trkpt><trkpt lat="37.84237" lon="15.14071"><ele>549.0</ele><time>2026-04-28T08:34:04.208Z</time></trkpt><trkpt lat="37.8423483" lon="15.1406167"><ele>549.0</ele><time>2026-04-28T08:34:05.207Z</time></trkpt><trkpt lat="37.842325" lon="15.14053"><ele>549.0</ele><time>2026-04-28T08:34:06.207Z</time></trkpt><trkpt lat="37.8423083" lon="15.1404483"><ele>549.6</ele><time>2026-04-28T08:34:07.208Z</time></trkpt><trkpt lat="37.8422767" lon="15.14032"><ele>550.2</ele><time>2026-04-28T08:34:09.207Z</time></trkpt><trkpt lat="37.842245" lon="15.1402367"><ele>550.8000000000001</ele><time>2026-04-28T08:34:11.207Z</time></trkpt><trkpt lat="37.84221" lon="15.140325"><ele>551.4</ele><time>2026-04-28T08:43:42.206Z</time></trkpt><trkpt lat="37.8422683" lon="15.14043"><ele>552.0</ele><time>2026-04-28T08:43:44.206Z</time></trkpt><trkpt lat="37.8423067" lon="15.140565"><ele>552.0</ele><time>2026-04-28T08:43:46.207Z</time></trkpt><trkpt lat="37.842345" lon="15.1406833"><ele>552.0</ele><time>2026-04-28T08:43:48.206Z</time></trkpt><trkpt lat="37.8423883" lon="15.1407967"><ele>552.0</ele><time>2026-04-28T08:43:50.206Z</time></trkpt><trkpt lat="37.8424717" lon="15.14093"><ele>552.0</ele><time>2026-04-28T08:43:52.206Z</time></trkpt><trkpt lat="37.8425" lon="15.1410033"><ele>552.0</ele><time>2026-04-28T08:43:53.206Z</time></trkpt><trkpt lat="37.8425267" lon="15.1411533"><ele>551.4</ele><time>2026-04-28T08:43:55.206Z</time></trkpt><trkpt lat="37.8425417" lon="15.1412967"><ele>550.8000000000001</ele><time>2026-04-28T08:43:57.207Z</time></trkpt><trkpt lat="37.8425567" lon="15.1414367"><ele>550.2</ele><time>2026-04-28T08:43:59.206Z</time></trkpt><trkpt lat="37.8425783" lon="15.14156"><ele>549.6</ele><time>2026-04-28T08:44:01.206Z</time></trkpt><trkpt lat="37.8426" lon="15.14166"><ele>549.0</ele><time>2026-04-28T08:44:03.206Z</time></trkpt><trkpt lat="37.8426233" lon="15.1417417"><ele>548.0</ele><time>2026-04-28T08:44:05.207Z</time></trkpt><trkpt lat="37.8426617" lon="15.14183"><ele>547.0</ele><time>2026-04-28T08:44:08.206Z</time></trkpt><trkpt lat="37.842705" lon="15.1419033"><ele>546.0</ele><time>2026-04-28T08:44:13.207Z</time></trkpt><trkpt lat="37.842815" lon="15.1418767"><ele>545.0</ele><time>2026-04-28T08:44:15.207Z</time></trkpt><trkpt lat="37.8428833" lon="15.1418417"><ele>544.0</ele><time>2026-04-28T08:44:16.206Z</time></trkpt><trkpt lat="37.8429483" lon="15.141795"><ele>543.0</ele><time>2026-04-28T08:44:17.206Z</time></trkpt><trkpt lat="37.8430217" lon="15.1417617"><ele>543.0</ele><time>2026-04-28T08:44:18.206Z</time></trkpt><trkpt lat="37.8430967" lon="15.14173"><ele>543.0</ele><time>2026-04-28T08:44:19.206Z</time></trkpt><trkpt lat="37.84317" lon="15.1417117"><ele>543.0</ele><time>2026-04-28T08:44:20.206Z</time></trkpt><trkpt lat="37.8432317" lon="15.1416867"><ele>543.0</ele><time>2026-04-28T08:44:21.205Z</time></trkpt><trkpt lat="37.8433517" lon="15.1416267"><ele>543.0</ele><time>2026-04-28T08:44:23.206Z</time></trkpt><trkpt lat="37.843415" lon="15.141595"><ele>543.0</ele><time>2026-04-28T08:44:24.205Z</time></trkpt><trkpt lat="37.843485" lon="15.14156"><ele>542.6666666666666</ele><time>2026-04-28T08:44:25.205Z</time></trkpt><trkpt lat="37.8435633" lon="15.1415233"><ele>542.3333333333334</ele><time>2026-04-28T08:44:26.205Z</time></trkpt><trkpt lat="37.8436467" lon="15.14149"><ele>542.0</ele><time>2026-04-28T08:44:27.206Z</time></trkpt><trkpt lat="37.84373" lon="15.1414567"><ele>541.6666666666667</ele><time>2026-04-28T08:44:28.205Z</time></trkpt><trkpt lat="37.8438117" lon="15.141425"><ele>541.3333333333334</ele><time>2026-04-28T08:44:29.205Z</time></trkpt><trkpt lat="37.84389" lon="15.141385"><ele>541.0</ele><time>2026-04-28T08:44:30.205Z</time></trkpt><trkpt lat="37.8439533" lon="15.1413283"><ele>541.0</ele><time>2026-04-28T08:44:31.205Z</time></trkpt><trkpt lat="37.8440133" lon="15.1412633"><ele>541.0</ele><time>2026-04-28T08:44:32.205Z</time></trkpt><trkpt lat="37.8440683" lon="15.141195"><ele>541.0</ele><time>2026-04-28T08:44:33.206Z</time></trkpt><trkpt lat="37.84413" lon="15.1411233"><ele>541.0</ele><time>2026-04-28T08:44:34.206Z</time></trkpt><trkpt lat="37.8441883" lon="15.141045"><ele>541.0</ele><time>2026-04-28T08:44:35.206Z</time></trkpt><trkpt lat="37.844245" lon="15.1409633"><ele>541.0</ele><time>2026-04-28T08:44:36.205Z</time></trkpt><trkpt lat="37.844295" lon="15.14087"><ele>540.4</ele><time>2026-04-28T08:44:37.205Z</time></trkpt><trkpt lat="37.8443383" lon="15.1407667"><ele>539.8</ele><time>2026-04-28T08:44:38.205Z</time></trkpt><trkpt lat="37.844365" lon="15.1406417"><ele>539.1999999999999</ele><time>2026-04-28T08:44:39.205Z</time></trkpt><trkpt lat="37.8443933" lon="15.1405033"><ele>538.6</ele><time>2026-04-28T08:44:40.205Z</time></trkpt><trkpt lat="37.844425" lon="15.1403667"><ele>538.0</ele><time>2026-04-28T08:44:41.205Z</time></trkpt><trkpt lat="37.8444517" lon="15.1402267"><ele>538.0</ele><time>2026-04-28T08:44:42.206Z</time></trkpt><trkpt lat="37.84448" lon="15.1400917"><ele>538.0</ele><time>2026-04-28T08:44:43.205Z</time></trkpt><trkpt lat="37.8445117" lon="15.1399533"><ele>538.0</ele><time>2026-04-28T08:44:44.206Z</time></trkpt><trkpt lat="37.8445517" lon="15.1398183"><ele>538.0</ele><time>2026-04-28T08:44:45.205Z</time></trkpt><trkpt lat="37.844605" lon="15.139675"><ele>539.0</ele><time>2026-04-28T08:44:46.205Z</time></trkpt><trkpt lat="37.8446517" lon="15.139515"><ele>540.0</ele><time>2026-04-28T08:44:47.206Z</time></trkpt><trkpt lat="37.8446967" lon="15.13935"><ele>541.0</ele><time>2026-04-28T08:44:48.205Z</time></trkpt><trkpt lat="37.8447367" lon="15.13918"><ele>542.0</ele><time>2026-04-28T08:44:49.206Z</time></trkpt><trkpt lat="37.84478" lon="15.1389983"><ele>542.75</ele><time>2026-04-28T08:44:50.205Z</time></trkpt><trkpt lat="37.84482" lon="15.1388333"><ele>543.5</ele><time>2026-04-28T08:44:51.206Z</time></trkpt><trkpt lat="37.8448767" lon="15.1386683"><ele>544.25</ele><time>2026-04-28T08:44:52.205Z</time></trkpt><trkpt lat="37.8449433" lon="15.1384883"><ele>545.0</ele><time>2026-04-28T08:44:53.205Z</time></trkpt><trkpt lat="37.845005" lon="15.1383033"><ele>545.75</ele><time>2026-04-28T08:44:54.205Z</time></trkpt><trkpt lat="37.8450567" lon="15.138125"><ele>546.5</ele><time>2026-04-28T08:44:55.205Z</time></trkpt><trkpt lat="37.8451083" lon="15.1379533"><ele>547.25</ele><time>2026-04-28T08:44:56.205Z</time></trkpt><trkpt lat="37.8451567" lon="15.1377917"><ele>548.0</ele><time>2026-04-28T08:44:57.205Z</time></trkpt><trkpt lat="37.8452033" lon="15.1376267"><ele>548.5</ele><time>2026-04-28T08:44:58.205Z</time></trkpt><trkpt lat="37.845255" lon="15.137475"><ele>549.0</ele><time>2026-04-28T08:44:59.205Z</time></trkpt><trkpt lat="37.8453133" lon="15.137325"><ele>549.5</ele><time>2026-04-28T08:45:00.205Z</time></trkpt><trkpt lat="37.8453733" lon="15.13718"><ele>550.0</ele><time>2026-04-28T08:45:01.205Z</time></trkpt><trkpt lat="37.8454283" lon="15.1370117"><ele>551.25</ele><time>2026-04-28T08:45:02.206Z</time></trkpt><trkpt lat="37.845465" lon="15.1368533"><ele>552.5</ele><time>2026-04-28T08:45:03.205Z</time></trkpt><trkpt lat="37.84551" lon="15.13669"><ele>553.75</ele><time>2026-04-28T08:45:04.205Z</time></trkpt><trkpt lat="37.845555" lon="15.136535"><ele>555.0</ele><time>2026-04-28T08:45:05.205Z</time></trkpt><trkpt lat="37.8455967" lon="15.1363767"><ele>555.25</ele><time>2026-04-28T08:45:06.205Z</time></trkpt><trkpt lat="37.8456433" lon="15.1362267"><ele>555.5</ele><time>2026-04-28T08:45:07.205Z</time></trkpt><trkpt lat="37.84569" lon="15.1360767"><ele>555.75</ele><time>2026-04-28T08:45:08.205Z</time></trkpt><trkpt lat="37.84574" lon="15.1359267"><ele>556.0</ele><time>2026-04-28T08:45:09.205Z</time></trkpt><trkpt lat="37.8457917" lon="15.13576"><ele>557.0</ele><time>2026-04-28T08:45:10.205Z</time></trkpt><trkpt lat="37.84584" lon="15.1355967"><ele>558.0</ele><time>2026-04-28T08:45:11.205Z</time></trkpt><trkpt lat="37.8458733" lon="15.135435"><ele>559.0</ele><time>2026-04-28T08:45:12.205Z</time></trkpt><trkpt lat="37.84593" lon="15.135275"><ele>560.0</ele><time>2026-04-28T08:45:13.206Z</time></trkpt><trkpt lat="37.8459817" lon="15.135105"><ele>560.0</ele><time>2026-04-28T08:45:14.205Z</time></trkpt><trkpt lat="37.846025" lon="15.1349383"><ele>560.0</ele><time>2026-04-28T08:45:15.206Z</time></trkpt><trkpt lat="37.8460667" lon="15.1347633"><ele>560.0</ele><time>2026-04-28T08:45:16.205Z</time></trkpt><trkpt lat="37.8461083" lon="15.1345867"><ele>560.0</ele><time>2026-04-28T08:45:17.205Z</time></trkpt><trkpt lat="37.84615" lon="15.1344183"><ele>560.5</ele><time>2026-04-28T08:45:18.205Z</time></trkpt><trkpt lat="37.8461767" lon="15.13424"><ele>561.0</ele><time>2026-04-28T08:45:19.206Z</time></trkpt><trkpt lat="37.8462067" lon="15.1340567"><ele>561.5</ele><time>2026-04-28T08:45:20.205Z</time></trkpt><trkpt lat="37.846235" lon="15.133875"><ele>562.0</ele><time>2026-04-28T08:45:21.205Z</time></trkpt><trkpt lat="37.8462717" lon="15.1336833"><ele>563.0</ele><time>2026-04-28T08:45:22.205Z</time></trkpt><trkpt lat="37.8463067" lon="15.133495"><ele>564.0</ele><time>2026-04-28T08:45:23.205Z</time></trkpt><trkpt lat="37.84634" lon="15.1333117"><ele>565.0</ele><time>2026-04-28T08:45:24.205Z</time></trkpt><trkpt lat="37.8463783" lon="15.1331117"><ele>565.3333333333334</ele><time>2026-04-28T08:45:25.205Z</time></trkpt><trkpt lat="37.84642" lon="15.1328967"><ele>565.6666666666666</ele><time>2026-04-28T08:45:26.206Z</time></trkpt><trkpt lat="37.8464633" lon="15.1326767"><ele>566.0</ele><time>2026-04-28T08:45:27.205Z</time></trkpt><trkpt lat="37.846505" lon="15.132455"><ele>566.6666666666666</ele><time>2026-04-28T08:45:28.205Z</time></trkpt><trkpt lat="37.8465517" lon="15.1322217"><ele>567.3333333333334</ele><time>2026-04-28T08:45:29.205Z</time></trkpt><trkpt lat="37.8465983" lon="15.131985"><ele>568.0</ele><time>2026-04-28T08:45:30.205Z</time></trkpt><trkpt lat="37.84664" lon="15.131755"><ele>568.6666666666667</ele><time>2026-04-28T08:45:31.205Z</time></trkpt><trkpt lat="37.8466833" lon="15.1315183"><ele>569.3333333333334</ele><time>2026-04-28T08:45:32.206Z</time></trkpt><trkpt lat="37.8467167" lon="15.131285"><ele>570.0</ele><time>2026-04-28T08:45:33.205Z</time></trkpt><trkpt lat="37.8467583" lon="15.131045"><ele>569.6666666666666</ele><time>2026-04-28T08:45:34.205Z</time></trkpt><trkpt lat="37.846805" lon="15.1308033"><ele>569.3333333333333</ele><time>2026-04-28T08:45:35.205Z</time></trkpt><trkpt lat="37.8468483" lon="15.1305683"><ele>569.0</ele><time>2026-04-28T08:45:36.206Z</time></trkpt><trkpt lat="37.846895" lon="15.1303267"><ele>570.0</ele><time>2026-04-28T08:45:37.206Z</time></trkpt><trkpt lat="37.8469383" lon="15.130085"><ele>571.0</ele><time>2026-04-28T08:45:38.206Z</time></trkpt><trkpt lat="37.8469783" lon="15.1298333"><ele>572.0</ele><time>2026-04-28T08:45:39.205Z</time></trkpt><trkpt lat="37.8470317" lon="15.1295833"><ele>573.3333333333333</ele><time>2026-04-28T08:45:40.205Z</time></trkpt><trkpt lat="37.8470717" lon="15.12934"><ele>574.6666666666666</ele><time>2026-04-28T08:45:41.205Z</time></trkpt><trkpt lat="37.8471133" lon="15.1290967"><ele>576.0</ele><time>2026-04-28T08:45:42.205Z</time></trkpt><trkpt lat="37.8471567" lon="15.1288467"><ele>576.6666666666666</ele><time>2026-04-28T08:45:43.205Z</time></trkpt><trkpt lat="37.8471917" lon="15.128605"><ele>577.3333333333333</ele><time>2026-04-28T08:45:44.205Z</time></trkpt><trkpt lat="37.847215" lon="15.1283583"><ele>578.0</ele><time>2026-04-28T08:45:45.205Z</time></trkpt><trkpt lat="37.8472317" lon="15.1280983"><ele>579.0</ele><time>2026-04-28T08:45:46.205Z</time></trkpt><trkpt lat="37.847255" lon="15.1278417"><ele>580.0</ele><time>2026-04-28T08:45:47.205Z</time></trkpt><trkpt lat="37.84727" lon="15.1275833"><ele>581.0</ele><time>2026-04-28T08:45:48.205Z</time></trkpt><trkpt lat="37.8472933" lon="15.1273283"><ele>582.3333333333333</ele><time>2026-04-28T08:45:49.205Z</time></trkpt><trkpt lat="37.8473217" lon="15.1271"><ele>583.6666666666666</ele><time>2026-04-28T08:45:50.206Z</time></trkpt><trkpt lat="37.8473483" lon="15.12688"><ele>585.0</ele><time>2026-04-28T08:45:51.205Z</time></trkpt><trkpt lat="37.8473617" lon="15.1266717"><ele>585.6666666666666</ele><time>2026-04-28T08:45:52.205Z</time></trkpt><trkpt lat="37.8473433" lon="15.126465"><ele>586.3333333333333</ele><time>2026-04-28T08:45:53.205Z</time></trkpt><trkpt lat="37.8473083" lon="15.1262533"><ele>587.0</ele><time>2026-04-28T08:45:54.205Z</time></trkpt><trkpt lat="37.847265" lon="15.1260383"><ele>587.0</ele><time>2026-04-28T08:45:55.206Z</time></trkpt><trkpt lat="37.8472233" lon="15.1258383"><ele>587.0</ele><time>2026-04-28T08:45:56.205Z</time></trkpt><trkpt lat="37.8471867" lon="15.1256567"><ele>587.0</ele><time>2026-04-28T08:45:57.205Z</time></trkpt><trkpt lat="37.847165" lon="15.12549"><ele>587.0</ele><time>2026-04-28T08:45:58.205Z</time></trkpt><trkpt lat="37.8471683" lon="15.1253383"><ele>588.4</ele><time>2026-04-28T08:45:59.205Z</time></trkpt><trkpt lat="37.847205" lon="15.1252183"><ele>589.8000000000001</ele><time>2026-04-28T08:46:00.205Z</time></trkpt><trkpt lat="37.8472783" lon="15.12512"><ele>591.2</ele><time>2026-04-28T08:46:01.205Z</time></trkpt><trkpt lat="37.8473733" lon="15.125055"><ele>592.6</ele><time>2026-04-28T08:46:02.205Z</time></trkpt><trkpt lat="37.8474917" lon="15.1250383"><ele>594.0</ele><time>2026-04-28T08:46:03.206Z</time></trkpt><trkpt lat="37.84761" lon="15.1250667"><ele>594.75</ele><time>2026-04-28T08:46:04.205Z</time></trkpt><trkpt lat="37.8477117" lon="15.1251367"><ele>595.5</ele><time>2026-04-28T08:46:05.205Z</time></trkpt><trkpt lat="37.847805" lon="15.1252383"><ele>596.25</ele><time>2026-04-28T08:46:06.205Z</time></trkpt><trkpt lat="37.84788" lon="15.1253533"><ele>597.0</ele><time>2026-04-28T08:46:07.205Z</time></trkpt><trkpt lat="37.8479517" lon="15.1254433"><ele>597.0</ele><time>2026-04-28T08:46:08.205Z</time></trkpt><trkpt lat="37.8480433" lon="15.12548"><ele>597.0</ele><time>2026-04-28T08:46:09.205Z</time></trkpt><trkpt lat="37.8481433" lon="15.1254533"><ele>597.0</ele><time>2026-04-28T08:46:10.205Z</time></trkpt><trkpt lat="37.84823" lon="15.12538"><ele>597.0</ele><time>2026-04-28T08:46:11.205Z</time></trkpt><trkpt lat="37.8482917" lon="15.125265"><ele>597.0</ele><time>2026-04-28T08:46:12.205Z</time></trkpt><trkpt lat="37.8483483" lon="15.1251317"><ele>597.0</ele><time>2026-04-28T08:46:13.205Z</time></trkpt><trkpt lat="37.8484033" lon="15.1249783"><ele>597.0</ele><time>2026-04-28T08:46:14.205Z</time></trkpt><trkpt lat="37.8484833" lon="15.1248217"><ele>597.0</ele><time>2026-04-28T08:46:15.206Z</time></trkpt><trkpt lat="37.8485683" lon="15.1246483"><ele>597.0</ele><time>2026-04-28T08:46:16.205Z</time></trkpt><trkpt lat="37.8486517" lon="15.1244683"><ele>600.3333333333334</ele><time>2026-04-28T08:46:17.205Z</time></trkpt><trkpt lat="37.8487383" lon="15.1242817"><ele>603.6666666666667</ele><time>2026-04-28T08:46:18.205Z</time></trkpt><trkpt lat="37.848835" lon="15.1240883"><ele>607.0</ele><time>2026-04-28T08:46:19.205Z</time></trkpt><trkpt lat="37.8489283" lon="15.12389"><ele>608.0</ele><time>2026-04-28T08:46:20.205Z</time></trkpt><trkpt lat="37.8490217" lon="15.1236983"><ele>609.0</ele><time>2026-04-28T08:46:21.205Z</time></trkpt><trkpt lat="37.8491083" lon="15.1235"><ele>610.0</ele><time>2026-04-28T08:46:22.205Z</time></trkpt><trkpt lat="37.849195" lon="15.1233083"><ele>611.3333333333334</ele><time>2026-04-28T08:46:23.205Z</time></trkpt><trkpt lat="37.8492783" lon="15.1231183"><ele>612.6666666666666</ele><time>2026-04-28T08:46:24.205Z</time></trkpt><trkpt lat="37.849365" lon="15.1229233"><ele>614.0</ele><time>2026-04-28T08:46:25.205Z</time></trkpt><trkpt lat="37.8494383" lon="15.12273"><ele>614.3333333333333</ele><time>2026-04-28T08:46:26.205Z</time></trkpt><trkpt lat="37.8495183" lon="15.1225367"><ele>614.6666666666666</ele><time>2026-04-28T08:46:27.205Z</time></trkpt><trkpt lat="37.8496" lon="15.122345"><ele>615.0</ele><time>2026-04-28T08:46:28.205Z</time></trkpt><trkpt lat="37.84967" lon="15.1221533"><ele>617.0</ele><time>2026-04-28T08:46:29.205Z</time></trkpt><trkpt lat="37.8497383" lon="15.1219617"><ele>619.0</ele><time>2026-04-28T08:46:30.205Z</time></trkpt><trkpt lat="37.8498083" lon="15.1217783"><ele>621.0</ele><time>2026-04-28T08:46:31.205Z</time></trkpt><trkpt lat="37.8498683" lon="15.1215883"><ele>621.6666666666666</ele><time>2026-04-28T08:46:32.205Z</time></trkpt><trkpt lat="37.8499217" lon="15.1214"><ele>622.3333333333333</ele><time>2026-04-28T08:46:33.205Z</time></trkpt><trkpt lat="37.8499767" lon="15.1212233"><ele>623.0</ele><time>2026-04-28T08:46:34.206Z</time></trkpt><trkpt lat="37.8500283" lon="15.1210467"><ele>623.0</ele><time>2026-04-28T08:46:35.205Z</time></trkpt><trkpt lat="37.8500633" lon="15.1208767"><ele>623.0</ele><time>2026-04-28T08:46:36.205Z</time></trkpt><trkpt lat="37.8501067" lon="15.1207233"><ele>623.0</ele><time>2026-04-28T08:46:37.205Z</time></trkpt><trkpt lat="37.8501533" lon="15.1205867"><ele>623.0</ele><time>2026-04-28T08:46:38.206Z</time></trkpt><trkpt lat="37.850195" lon="15.1204633"><ele>623.4</ele><time>2026-04-28T08:46:39.205Z</time></trkpt><trkpt lat="37.8502117" lon="15.120335"><ele>623.8</ele><time>2026-04-28T08:46:40.206Z</time></trkpt><trkpt lat="37.8501867" lon="15.1202183"><ele>624.2</ele><time>2026-04-28T08:46:41.205Z</time></trkpt><trkpt lat="37.850125" lon="15.1201267"><ele>624.6</ele><time>2026-04-28T08:46:42.205Z</time></trkpt><trkpt lat="37.8500367" lon="15.1200767"><ele>625.0</ele><time>2026-04-28T08:46:43.205Z</time></trkpt><trkpt lat="37.8499267" lon="15.1200783"><ele>625.0</ele><time>2026-04-28T08:46:44.205Z</time></trkpt><trkpt lat="37.8498033" lon="15.1201033"><ele>625.0</ele><time>2026-04-28T08:46:45.206Z</time></trkpt><trkpt lat="37.8496783" lon="15.1201433"><ele>625.0</ele><time>2026-04-28T08:46:46.205Z</time></trkpt><trkpt lat="37.84955" lon="15.1201817"><ele>625.0</ele><time>2026-04-28T08:46:47.205Z</time></trkpt><trkpt lat="37.849415" lon="15.1202233"><ele>625.25</ele><time>2026-04-28T08:46:48.205Z</time></trkpt><trkpt lat="37.8492717" lon="15.1202683"><ele>625.5</ele><time>2026-04-28T08:46:49.205Z</time></trkpt><trkpt lat="37.84913" lon="15.1203067"><ele>625.75</ele><time>2026-04-28T08:46:50.206Z</time></trkpt><trkpt lat="37.84899" lon="15.1203483"><ele>626.0</ele><time>2026-04-28T08:46:51.205Z</time></trkpt><trkpt lat="37.84886" lon="15.1203917"><ele>626.0</ele><time>2026-04-28T08:46:52.206Z</time></trkpt><trkpt lat="37.8487433" lon="15.1204333"><ele>626.0</ele><time>2026-04-28T08:46:53.205Z</time></trkpt><trkpt lat="37.848635" lon="15.1204733"><ele>626.0</ele><time>2026-04-28T08:46:54.205Z</time></trkpt><trkpt lat="37.848525" lon="15.120505"><ele>626.0</ele><time>2026-04-28T08:46:55.205Z</time></trkpt><trkpt lat="37.8484167" lon="15.12052"><ele>625.8</ele><time>2026-04-28T08:46:56.205Z</time></trkpt><trkpt lat="37.8483133" lon="15.1204933"><ele>625.6</ele><time>2026-04-28T08:46:57.206Z</time></trkpt><trkpt lat="37.848225" lon="15.1204233"><ele>625.4</ele><time>2026-04-28T08:46:58.205Z</time></trkpt><trkpt lat="37.8481683" lon="15.12031"><ele>625.2</ele><time>2026-04-28T08:46:59.206Z</time></trkpt><trkpt lat="37.8481417" lon="15.120185"><ele>625.0</ele><time>2026-04-28T08:47:00.205Z</time></trkpt><trkpt lat="37.848125" lon="15.12007"><ele>625.0</ele><time>2026-04-28T08:47:01.205Z</time></trkpt><trkpt lat="37.8481283" lon="15.1199567"><ele>625.0</ele><time>2026-04-28T08:47:02.206Z</time></trkpt><trkpt lat="37.84816" lon="15.11985"><ele>625.0</ele><time>2026-04-28T08:47:03.205Z</time></trkpt><trkpt lat="37.8482083" lon="15.1197567"><ele>625.0</ele><time>2026-04-28T08:47:04.205Z</time></trkpt><trkpt lat="37.8482683" lon="15.1196883"><ele>625.0</ele><time>2026-04-28T08:47:05.205Z</time></trkpt><trkpt lat="37.8483467" lon="15.11965"><ele>625.0</ele><time>2026-04-28T08:47:06.205Z</time></trkpt><trkpt lat="37.84843" lon="15.11962"><ele>625.8333333333334</ele><time>2026-04-28T08:47:07.205Z</time></trkpt><trkpt lat="37.84851" lon="15.119595"><ele>626.6666666666667</ele><time>2026-04-28T08:47:08.206Z</time></trkpt><trkpt lat="37.8485883" lon="15.1195617"><ele>627.5</ele><time>2026-04-28T08:47:09.205Z</time></trkpt><trkpt lat="37.8486633" lon="15.1195367"><ele>628.3333333333334</ele><time>2026-04-28T08:47:10.205Z</time></trkpt><trkpt lat="37.8487367" lon="15.1195117"><ele>629.1666666666666</ele><time>2026-04-28T08:47:11.205Z</time></trkpt><trkpt lat="37.84882" lon="15.1194833"><ele>630.0</ele><time>2026-04-28T08:47:12.205Z</time></trkpt><trkpt lat="37.8489083" lon="15.1194467"><ele>630.0</ele><time>2026-04-28T08:47:13.205Z</time></trkpt><trkpt lat="37.8490017" lon="15.1194083"><ele>630.0</ele><time>2026-04-28T08:47:14.205Z</time></trkpt><trkpt lat="37.8490967" lon="15.1193783"><ele>630.0</ele><time>2026-04-28T08:47:15.205Z</time></trkpt><trkpt lat="37.8491867" lon="15.1193383"><ele>630.0</ele><time>2026-04-28T08:47:16.205Z</time></trkpt><trkpt lat="37.8492833" lon="15.1192983"><ele>630.0</ele><time>2026-04-28T08:47:17.205Z</time></trkpt><trkpt lat="37.8493767" lon="15.1192633"><ele>630.6</ele><time>2026-04-28T08:47:18.205Z</time></trkpt><trkpt lat="37.84947" lon="15.1192333"><ele>631.2</ele><time>2026-04-28T08:47:19.205Z</time></trkpt><trkpt lat="37.8495567" lon="15.1192017"><ele>631.8</ele><time>2026-04-28T08:47:20.205Z</time></trkpt><trkpt lat="37.8496433" lon="15.1191683"><ele>632.4</ele><time>2026-04-28T08:47:21.205Z</time></trkpt><trkpt lat="37.84974" lon="15.119125"><ele>633.0</ele><time>2026-04-28T08:47:22.205Z</time></trkpt><trkpt lat="37.84984" lon="15.11908"><ele>633.8</ele><time>2026-04-28T08:47:23.205Z</time></trkpt><trkpt lat="37.8499433" lon="15.119035"><ele>634.5999999999999</ele><time>2026-04-28T08:47:24.205Z</time></trkpt><trkpt lat="37.850045" lon="15.118985"><ele>635.4000000000001</ele><time>2026-04-28T08:47:25.205Z</time></trkpt><trkpt lat="37.8501483" lon="15.1189317"><ele>636.2</ele><time>2026-04-28T08:47:26.205Z</time></trkpt><trkpt lat="37.8502467" lon="15.1188717"><ele>637.0</ele><time>2026-04-28T08:47:27.205Z</time></trkpt><trkpt lat="37.8503383" lon="15.1188083"><ele>638.25</ele><time>2026-04-28T08:47:28.205Z</time></trkpt><trkpt lat="37.8504317" lon="15.11874"><ele>639.5</ele><time>2026-04-28T08:47:29.205Z</time></trkpt><trkpt lat="37.850525" lon="15.1186683"><ele>640.75</ele><time>2026-04-28T08:47:30.205Z</time></trkpt><trkpt lat="37.85062" lon="15.118585"><ele>642.0</ele><time>2026-04-28T08:47:31.206Z</time></trkpt><trkpt lat="37.85072" lon="15.1184783"><ele>642.0</ele><time>2026-04-28T08:47:32.205Z</time></trkpt><trkpt lat="37.8508033" lon="15.118375"><ele>642.0</ele><time>2026-04-28T08:47:33.206Z</time></trkpt><trkpt lat="37.8508917" lon="15.1182717"><ele>642.0</ele><time>2026-04-28T08:47:34.205Z</time></trkpt><trkpt lat="37.850975" lon="15.1181667"><ele>642.0</ele><time>2026-04-28T08:47:35.206Z</time></trkpt><trkpt lat="37.851055" lon="15.1180583"><ele>642.5</ele><time>2026-04-28T08:47:36.205Z</time></trkpt><trkpt lat="37.85113" lon="15.1179467"><ele>643.0</ele><time>2026-04-28T08:47:37.205Z</time></trkpt><trkpt lat="37.8512067" lon="15.1178317"><ele>643.5</ele><time>2026-04-28T08:47:38.205Z</time></trkpt><trkpt lat="37.8512783" lon="15.117725"><ele>644.0</ele><time>2026-04-28T08:47:39.205Z</time></trkpt><trkpt lat="37.85135" lon="15.1176183"><ele>644.0</ele><time>2026-04-28T08:47:40.205Z</time></trkpt><trkpt lat="37.8514183" lon="15.117515"><ele>644.0</ele><time>2026-04-28T08:47:41.205Z</time></trkpt><trkpt lat="37.8514933" lon="15.1174117"><ele>644.0</ele><time>2026-04-28T08:47:42.205Z</time></trkpt><trkpt lat="37.851565" lon="15.1173067"><ele>644.0</ele><time>2026-04-28T08:47:43.205Z</time></trkpt><trkpt lat="37.8516383" lon="15.1172083"><ele>644.0</ele><time>2026-04-28T08:47:44.205Z</time></trkpt><trkpt lat="37.85171" lon="15.1171033"><ele>644.0</ele><time>2026-04-28T08:47:45.205Z</time></trkpt><trkpt lat="37.8517833" lon="15.1170017"><ele>644.0</ele><time>2026-04-28T08:47:46.205Z</time></trkpt><trkpt lat="37.8518567" lon="15.1168983"><ele>644.0</ele><time>2026-04-28T08:47:47.205Z</time></trkpt><trkpt lat="37.8519333" lon="15.1167867"><ele>644.0</ele><time>2026-04-28T08:47:48.205Z</time></trkpt><trkpt lat="37.852015" lon="15.1166733"><ele>644.25</ele><time>2026-04-28T08:47:49.205Z</time></trkpt><trkpt lat="37.852095" lon="15.1165583"><ele>644.5</ele><time>2026-04-28T08:47:50.206Z</time></trkpt><trkpt lat="37.85218" lon="15.1164367"><ele>644.75</ele><time>2026-04-28T08:47:51.205Z</time></trkpt><trkpt lat="37.8522667" lon="15.1163167"><ele>645.0</ele><time>2026-04-28T08:47:52.205Z</time></trkpt><trkpt lat="37.8523467" lon="15.116195"><ele>645.0</ele><time>2026-04-28T08:47:53.205Z</time></trkpt><trkpt lat="37.8524283" lon="15.1160717"><ele>645.0</ele><time>2026-04-28T08:47:54.205Z</time></trkpt><trkpt lat="37.8525233" lon="15.1159417"><ele>645.0</ele><time>2026-04-28T08:47:55.206Z</time></trkpt><trkpt lat="37.852615" lon="15.1158083"><ele>645.0</ele><time>2026-04-28T08:47:56.205Z</time></trkpt><trkpt lat="37.8527017" lon="15.1156867"><ele>645.0</ele><time>2026-04-28T08:47:57.205Z</time></trkpt><trkpt lat="37.8527867" lon="15.1155633"><ele>645.0</ele><time>2026-04-28T08:47:58.206Z</time></trkpt><trkpt lat="37.852875" lon="15.1154267"><ele>645.0</ele><time>2026-04-28T08:47:59.206Z</time></trkpt><trkpt lat="37.85297" lon="15.11528"><ele>645.0</ele><time>2026-04-28T08:48:00.205Z</time></trkpt><trkpt lat="37.8530817" lon="15.1151333"><ele>645.0</ele><time>2026-04-28T08:48:01.205Z</time></trkpt><trkpt lat="37.8532" lon="15.1149767"><ele>645.0</ele><time>2026-04-28T08:48:02.205Z</time></trkpt><trkpt lat="37.853315" lon="15.114815"><ele>645.0</ele><time>2026-04-28T08:48:03.205Z</time></trkpt><trkpt lat="37.8534283" lon="15.1146483"><ele>643.3333333333334</ele><time>2026-04-28T08:48:04.205Z</time></trkpt><trkpt lat="37.853545" lon="15.1144833"><ele>641.6666666666667</ele><time>2026-04-28T08:48:05.205Z</time></trkpt><trkpt lat="37.85366" lon="15.1143167"><ele>640.0</ele><time>2026-04-28T08:48:06.205Z</time></trkpt><trkpt lat="37.85377" lon="15.1141433"><ele>639.3333333333334</ele><time>2026-04-28T08:48:07.205Z</time></trkpt><trkpt lat="37.8538683" lon="15.113955"><ele>638.6666666666666</ele><time>2026-04-28T08:48:08.205Z</time></trkpt><trkpt lat="37.8539633" lon="15.113765"><ele>638.0</ele><time>2026-04-28T08:48:09.205Z</time></trkpt><trkpt lat="37.8540467" lon="15.1135683"><ele>638.0</ele><time>2026-04-28T08:48:10.205Z</time></trkpt><trkpt lat="37.85412" lon="15.1133667"><ele>638.0</ele><time>2026-04-28T08:48:11.205Z</time></trkpt><trkpt lat="37.8541833" lon="15.11316"><ele>638.0</ele><time>2026-04-28T08:48:12.205Z</time></trkpt><trkpt lat="37.854235" lon="15.1129467"><ele>636.0</ele><time>2026-04-28T08:48:13.205Z</time></trkpt><trkpt lat="37.854275" lon="15.1127233"><ele>634.0</ele><time>2026-04-28T08:48:14.205Z</time></trkpt><trkpt lat="37.8543033" lon="15.112495"><ele>632.0</ele><time>2026-04-28T08:48:15.205Z</time></trkpt><trkpt lat="37.8543233" lon="15.1122767"><ele>630.3333333333333</ele><time>2026-04-28T08:48:16.205Z</time></trkpt><trkpt lat="37.854345" lon="15.1120517"><ele>628.6666666666666</ele><time>2026-04-28T08:48:17.205Z</time></trkpt><trkpt lat="37.8543667" lon="15.1118383"><ele>627.0</ele><time>2026-04-28T08:48:18.205Z</time></trkpt><trkpt lat="37.8544083" lon="15.111615"><ele>627.6666666666666</ele><time>2026-04-28T08:48:19.205Z</time></trkpt><trkpt lat="37.85448" lon="15.1114017"><ele>628.3333333333333</ele><time>2026-04-28T08:48:20.205Z</time></trkpt><trkpt lat="37.8545733" lon="15.1112"><ele>629.0</ele><time>2026-04-28T08:48:21.205Z</time></trkpt><trkpt lat="37.8546683" lon="15.1109983"><ele>629.0</ele><time>2026-04-28T08:48:22.205Z</time></trkpt><trkpt lat="37.854775" lon="15.1108017"><ele>629.0</ele><time>2026-04-28T08:48:23.206Z</time></trkpt><trkpt lat="37.85488" lon="15.1106117"><ele>629.0</ele><time>2026-04-28T08:48:24.205Z</time></trkpt><trkpt lat="37.854985" lon="15.1104367"><ele>630.3333333333333</ele><time>2026-04-28T08:48:25.206Z</time></trkpt><trkpt lat="37.85508" lon="15.1102617"><ele>631.6666666666666</ele><time>2026-04-28T08:48:26.205Z</time></trkpt><trkpt lat="37.8551667" lon="15.1100717"><ele>633.0</ele><time>2026-04-28T08:48:27.205Z</time></trkpt><trkpt lat="37.8552467" lon="15.109895"><ele>635.0</ele><time>2026-04-28T08:48:28.205Z</time></trkpt><trkpt lat="37.8553367" lon="15.1097433"><ele>637.0</ele><time>2026-04-28T08:48:29.205Z</time></trkpt><trkpt lat="37.855445" lon="15.109605"><ele>639.0</ele><time>2026-04-28T08:48:30.206Z</time></trkpt><trkpt lat="37.855575" lon="15.10949"><ele>639.0</ele><time>2026-04-28T08:48:31.205Z</time></trkpt><trkpt lat="37.855725" lon="15.1093917"><ele>639.0</ele><time>2026-04-28T08:48:32.205Z</time></trkpt><trkpt lat="37.85587" lon="15.109295"><ele>639.0</ele><time>2026-04-28T08:48:33.206Z</time></trkpt><trkpt lat="37.855995" lon="15.1091917"><ele>638.75</ele><time>2026-04-28T08:48:34.205Z</time></trkpt><trkpt lat="37.8561083" lon="15.1090867"><ele>638.5</ele><time>2026-04-28T08:48:35.205Z</time></trkpt><trkpt lat="37.85621" lon="15.1089617"><ele>638.25</ele><time>2026-04-28T08:48:36.205Z</time></trkpt><trkpt lat="37.8562867" lon="15.1088283"><ele>638.0</ele><time>2026-04-28T08:48:37.205Z</time></trkpt><trkpt lat="37.856345" lon="15.1086667"><ele>639.0</ele><time>2026-04-28T08:48:38.205Z</time></trkpt><trkpt lat="37.8563783" lon="15.1085"><ele>640.0</ele><time>2026-04-28T08:48:39.205Z</time></trkpt><trkpt lat="37.85638" lon="15.10833"><ele>641.0</ele><time>2026-04-28T08:48:40.206Z</time></trkpt><trkpt lat="37.8563717" lon="15.108165"><ele>642.0</ele><time>2026-04-28T08:48:41.205Z</time></trkpt><trkpt lat="37.856345" lon="15.1080033"><ele>644.25</ele><time>2026-04-28T08:48:42.206Z</time></trkpt><trkpt lat="37.856305" lon="15.1078433"><ele>646.5</ele><time>2026-04-28T08:48:43.205Z</time></trkpt><trkpt lat="37.8562683" lon="15.1076783"><ele>648.75</ele><time>2026-04-28T08:48:44.206Z</time></trkpt><trkpt lat="37.8562233" lon="15.1075067"><ele>651.0</ele><time>2026-04-28T08:48:45.205Z</time></trkpt><trkpt lat="37.8561683" lon="15.107305"><ele>653.6666666666666</ele><time>2026-04-28T08:48:46.205Z</time></trkpt><trkpt lat="37.8561183" lon="15.107075"><ele>656.3333333333333</ele><time>2026-04-28T08:48:47.205Z</time></trkpt><trkpt lat="37.8560717" lon="15.1068267"><ele>659.0</ele><time>2026-04-28T08:48:48.205Z</time></trkpt><trkpt lat="37.85602" lon="15.1065717"><ele>659.6666666666666</ele><time>2026-04-28T08:48:49.205Z</time></trkpt><trkpt lat="37.8559683" lon="15.106315"><ele>660.3333333333334</ele><time>2026-04-28T08:48:50.205Z</time></trkpt><trkpt lat="37.8559117" lon="15.1060567"><ele>661.0</ele><time>2026-04-28T08:48:51.206Z</time></trkpt><trkpt lat="37.8558517" lon="15.1057933"><ele>661.3333333333334</ele><time>2026-04-28T08:48:52.205Z</time></trkpt><trkpt lat="37.8557917" lon="15.1055333"><ele>661.6666666666666</ele><time>2026-04-28T08:48:53.205Z</time></trkpt><trkpt lat="37.855725" lon="15.1052667"><ele>662.0</ele><time>2026-04-28T08:48:54.205Z</time></trkpt><trkpt lat="37.8556717" lon="15.105005"><ele>662.0</ele><time>2026-04-28T08:48:55.205Z</time></trkpt><trkpt lat="37.8556217" lon="15.1047483"><ele>662.0</ele><time>2026-04-28T08:48:56.205Z</time></trkpt><trkpt lat="37.8555617" lon="15.1045033"><ele>662.0</ele><time>2026-04-28T08:48:57.205Z</time></trkpt><trkpt lat="37.85552" lon="15.10428"><ele>664.0</ele><time>2026-04-28T08:48:58.205Z</time></trkpt><trkpt lat="37.8554933" lon="15.1040467"><ele>666.0</ele><time>2026-04-28T08:48:59.206Z</time></trkpt><trkpt lat="37.85548" lon="15.10381"><ele>668.0</ele><time>2026-04-28T08:49:00.205Z</time></trkpt><trkpt lat="37.8554817" lon="15.1035717"><ele>668.0</ele><time>2026-04-28T08:49:01.206Z</time></trkpt><trkpt lat="37.8555" lon="15.1033533"><ele>668.0</ele><time>2026-04-28T08:49:02.205Z</time></trkpt><trkpt lat="37.8555217" lon="15.1031483"><ele>668.0</ele><time>2026-04-28T08:49:03.205Z</time></trkpt><trkpt lat="37.8555717" lon="15.1029567"><ele>668.3333333333333</ele><time>2026-04-28T08:49:04.205Z</time></trkpt><trkpt lat="37.8556567" lon="15.1027583"><ele>668.6666666666666</ele><time>2026-04-28T08:49:05.206Z</time></trkpt><trkpt lat="37.85575" lon="15.102545"><ele>669.0</ele><time>2026-04-28T08:49:06.205Z</time></trkpt><trkpt lat="37.85584" lon="15.1023183"><ele>669.0</ele><time>2026-04-28T08:49:07.205Z</time></trkpt><trkpt lat="37.8559317" lon="15.10209"><ele>669.0</ele><time>2026-04-28T08:49:08.205Z</time></trkpt><trkpt lat="37.8560283" lon="15.101855"><ele>669.0</ele><time>2026-04-28T08:49:09.205Z</time></trkpt><trkpt lat="37.8561233" lon="15.10162"><ele>669.0</ele><time>2026-04-28T08:49:10.205Z</time></trkpt><trkpt lat="37.8562133" lon="15.10139"><ele>669.0</ele><time>2026-04-28T08:49:11.205Z</time></trkpt><trkpt lat="37.8562967" lon="15.1011517"><ele>669.0</ele><time>2026-04-28T08:49:12.205Z</time></trkpt><trkpt lat="37.8563767" lon="15.100895"><ele>670.0</ele><time>2026-04-28T08:49:13.205Z</time></trkpt><trkpt lat="37.856445" lon="15.10064"><ele>671.0</ele><time>2026-04-28T08:49:14.205Z</time></trkpt><trkpt lat="37.8565133" lon="15.10039"><ele>672.0</ele><time>2026-04-28T08:49:15.205Z</time></trkpt><trkpt lat="37.856575" lon="15.1001317"><ele>671.3333333333334</ele><time>2026-04-28T08:49:16.205Z</time></trkpt><trkpt lat="37.8566317" lon="15.0998767"><ele>670.6666666666667</ele><time>2026-04-28T08:49:17.205Z</time></trkpt><trkpt lat="37.8566867" lon="15.09963"><ele>670.0</ele><time>2026-04-28T08:49:18.205Z</time></trkpt><trkpt lat="37.856745" lon="15.0993867"><ele>670.0</ele><time>2026-04-28T08:49:19.205Z</time></trkpt><trkpt lat="37.856785" lon="15.0991517"><ele>670.0</ele><time>2026-04-28T08:49:20.205Z</time></trkpt><trkpt lat="37.8568017" lon="15.0989267"><ele>670.0</ele><time>2026-04-28T08:49:21.205Z</time></trkpt><trkpt lat="37.8568133" lon="15.0986967"><ele>670.3333333333334</ele><time>2026-04-28T08:49:22.205Z</time></trkpt><trkpt lat="37.8567883" lon="15.0984817"><ele>670.6666666666666</ele><time>2026-04-28T08:49:23.206Z</time></trkpt><trkpt lat="37.8567183" lon="15.09827"><ele>671.0</ele><time>2026-04-28T08:49:24.205Z</time></trkpt><trkpt lat="37.8566217" lon="15.0980717"><ele>670.3333333333333</ele><time>2026-04-28T08:49:25.205Z</time></trkpt><trkpt lat="37.856535" lon="15.0978717"><ele>669.6666666666666</ele><time>2026-04-28T08:49:26.206Z</time></trkpt><trkpt lat="37.8564533" lon="15.0976683"><ele>669.0</ele><time>2026-04-28T08:49:27.205Z</time></trkpt><trkpt lat="37.8563567" lon="15.0974617"><ele>667.3333333333334</ele><time>2026-04-28T08:49:28.205Z</time></trkpt><trkpt lat="37.8562533" lon="15.097255"><ele>665.6666666666667</ele><time>2026-04-28T08:49:29.205Z</time></trkpt><trkpt lat="37.8561567" lon="15.097065"><ele>664.0</ele><time>2026-04-28T08:49:30.206Z</time></trkpt><trkpt lat="37.856065" lon="15.09687"><ele>664.0</ele><time>2026-04-28T08:49:31.205Z</time></trkpt><trkpt lat="37.855975" lon="15.0966783"><ele>664.0</ele><time>2026-04-28T08:49:32.205Z</time></trkpt><trkpt lat="37.8558917" lon="15.0964883"><ele>664.0</ele><time>2026-04-28T08:49:33.205Z</time></trkpt><trkpt lat="37.8558017" lon="15.0963017"><ele>665.0</ele><time>2026-04-28T08:49:34.205Z</time></trkpt><trkpt lat="37.8557167" lon="15.0961183"><ele>666.0</ele><time>2026-04-28T08:49:35.205Z</time></trkpt><trkpt lat="37.855645" lon="15.0959383"><ele>667.0</ele><time>2026-04-28T08:49:36.205Z</time></trkpt><trkpt lat="37.85558" lon="15.0957567"><ele>668.0</ele><time>2026-04-28T08:49:37.205Z</time></trkpt><trkpt lat="37.8555417" lon="15.0955633"><ele>669.0</ele><time>2026-04-28T08:49:38.206Z</time></trkpt><trkpt lat="37.8555383" lon="15.0953683"><ele>670.0</ele><time>2026-04-28T08:49:39.205Z</time></trkpt><trkpt lat="37.855575" lon="15.0951733"><ele>670.0</ele><time>2026-04-28T08:49:40.205Z</time></trkpt><trkpt lat="37.855625" lon="15.0949917"><ele>670.0</ele><time>2026-04-28T08:49:41.206Z</time></trkpt><trkpt lat="37.8556817" lon="15.0948017"><ele>670.0</ele><time>2026-04-28T08:49:42.205Z</time></trkpt><trkpt lat="37.855755" lon="15.09461"><ele>671.0</ele><time>2026-04-28T08:49:43.205Z</time></trkpt><trkpt lat="37.8558183" lon="15.094425"><ele>672.0</ele><time>2026-04-28T08:49:44.205Z</time></trkpt><trkpt lat="37.8558767" lon="15.0942383"><ele>673.0</ele><time>2026-04-28T08:49:45.205Z</time></trkpt><trkpt lat="37.85594" lon="15.0940633"><ele>671.0</ele><time>2026-04-28T08:49:46.205Z</time></trkpt><trkpt lat="37.8559967" lon="15.0939"><ele>669.0</ele><time>2026-04-28T08:49:47.205Z</time></trkpt><trkpt lat="37.8560417" lon="15.0937483"><ele>667.0</ele><time>2026-04-28T08:49:48.205Z</time></trkpt><trkpt lat="37.85609" lon="15.093595"><ele>665.0</ele><time>2026-04-28T08:49:49.206Z</time></trkpt><trkpt lat="37.8561367" lon="15.0934533"><ele>665.0</ele><time>2026-04-28T08:49:50.205Z</time></trkpt><trkpt lat="37.8561767" lon="15.0933067"><ele>665.0</ele><time>2026-04-28T08:49:51.205Z</time></trkpt><trkpt lat="37.8562233" lon="15.0931583"><ele>665.0</ele><time>2026-04-28T08:49:52.205Z</time></trkpt><trkpt lat="37.8562683" lon="15.0930067"><ele>665.0</ele><time>2026-04-28T08:49:53.206Z</time></trkpt><trkpt lat="37.856325" lon="15.0928533"><ele>665.75</ele><time>2026-04-28T08:49:54.205Z</time></trkpt><trkpt lat="37.8563767" lon="15.0927033"><ele>666.5</ele><time>2026-04-28T08:49:55.205Z</time></trkpt><trkpt lat="37.8564267" lon="15.0925667"><ele>667.25</ele><time>2026-04-28T08:49:56.205Z</time></trkpt><trkpt lat="37.85648" lon="15.092425"><ele>668.0</ele><time>2026-04-28T08:49:57.205Z</time></trkpt><trkpt lat="37.856525" lon="15.09229"><ele>668.75</ele><time>2026-04-28T08:49:58.205Z</time></trkpt><trkpt lat="37.8565717" lon="15.09216"><ele>669.5</ele><time>2026-04-28T08:49:59.206Z</time></trkpt><trkpt lat="37.856615" lon="15.092015"><ele>670.25</ele><time>2026-04-28T08:50:00.205Z</time></trkpt><trkpt lat="37.8566583" lon="15.09185"><ele>671.0</ele><time>2026-04-28T08:50:01.205Z</time></trkpt><trkpt lat="37.8567" lon="15.0916817"><ele>671.5</ele><time>2026-04-28T08:50:02.205Z</time></trkpt><trkpt lat="37.8567433" lon="15.0915067"><ele>672.0</ele><time>2026-04-28T08:50:03.205Z</time></trkpt><trkpt lat="37.8567883" lon="15.091345"><ele>672.5</ele><time>2026-04-28T08:50:04.206Z</time></trkpt><trkpt lat="37.85683" lon="15.0911917"><ele>673.0</ele><time>2026-04-28T08:50:05.205Z</time></trkpt><trkpt lat="37.8568733" lon="15.0910333"><ele>672.5</ele><time>2026-04-28T08:50:06.205Z</time></trkpt><trkpt lat="37.8569167" lon="15.09088"><ele>672.0</ele><time>2026-04-28T08:50:07.205Z</time></trkpt><trkpt lat="37.85696" lon="15.0907367"><ele>671.5</ele><time>2026-04-28T08:50:08.206Z</time></trkpt><trkpt lat="37.8570067" lon="15.0905967"><ele>671.0</ele><time>2026-04-28T08:50:09.206Z</time></trkpt><trkpt lat="37.8570583" lon="15.0904617"><ele>671.0</ele><time>2026-04-28T08:50:10.205Z</time></trkpt><trkpt lat="37.8571267" lon="15.0903383"><ele>671.0</ele><time>2026-04-28T08:50:11.205Z</time></trkpt><trkpt lat="37.8571967" lon="15.0902183"><ele>671.0</ele><time>2026-04-28T08:50:12.205Z</time></trkpt><trkpt lat="37.857275" lon="15.0901033"><ele>671.0</ele><time>2026-04-28T08:50:13.205Z</time></trkpt><trkpt lat="37.85735" lon="15.0899933"><ele>670.0</ele><time>2026-04-28T08:50:14.205Z</time></trkpt><trkpt lat="37.857425" lon="15.0898933"><ele>669.0</ele><time>2026-04-28T08:50:15.205Z</time></trkpt><trkpt lat="37.8574967" lon="15.0897917"><ele>668.0</ele><time>2026-04-28T08:50:16.206Z</time></trkpt><trkpt lat="37.857575" lon="15.0896833"><ele>667.0</ele><time>2026-04-28T08:50:17.205Z</time></trkpt><trkpt lat="37.857655" lon="15.0895867"><ele>666.0</ele><time>2026-04-28T08:50:18.205Z</time></trkpt><trkpt lat="37.8577283" lon="15.0894917"><ele>666.0</ele><time>2026-04-28T08:50:19.205Z</time></trkpt><trkpt lat="37.8577933" lon="15.0894017"><ele>666.0</ele><time>2026-04-28T08:50:20.206Z</time></trkpt><trkpt lat="37.8578533" lon="15.089305"><ele>666.0</ele><time>2026-04-28T08:50:21.205Z</time></trkpt><trkpt lat="37.857915" lon="15.0892083"><ele>666.0</ele><time>2026-04-28T08:50:22.206Z</time></trkpt><trkpt lat="37.85796" lon="15.0890733"><ele>666.0</ele><time>2026-04-28T08:50:23.205Z</time></trkpt><trkpt lat="37.8579883" lon="15.0889267"><ele>666.8</ele><time>2026-04-28T08:50:24.206Z</time></trkpt><trkpt lat="37.8580167" lon="15.0887833"><ele>667.5999999999999</ele><time>2026-04-28T08:50:25.205Z</time></trkpt><trkpt lat="37.8580433" lon="15.08865"><ele>668.4</ele><time>2026-04-28T08:50:26.205Z</time></trkpt><trkpt lat="37.858065" lon="15.0885267"><ele>669.2</ele><time>2026-04-28T08:50:27.206Z</time></trkpt><trkpt lat="37.8580867" lon="15.0884067"><ele>670.0</ele><time>2026-04-28T08:50:28.205Z</time></trkpt><trkpt lat="37.8581167" lon="15.08829"><ele>672.4</ele><time>2026-04-28T08:50:29.205Z</time></trkpt><trkpt lat="37.8581533" lon="15.08818"><ele>674.8</ele><time>2026-04-28T08:50:30.205Z</time></trkpt><trkpt lat="37.85821" lon="15.0880833"><ele>677.2</ele><time>2026-04-28T08:50:31.206Z</time></trkpt><trkpt lat="37.858275" lon="15.088005"><ele>679.6</ele><time>2026-04-28T08:50:32.205Z</time></trkpt><trkpt lat="37.85836" lon="15.0879517"><ele>682.0</ele><time>2026-04-28T08:50:33.205Z</time></trkpt><trkpt lat="37.8584617" lon="15.087945"><ele>682.2</ele><time>2026-04-28T08:50:34.206Z</time></trkpt><trkpt lat="37.8585517" lon="15.08797"><ele>682.4000000000001</ele><time>2026-04-28T08:50:35.205Z</time></trkpt><trkpt lat="37.8586467" lon="15.0880017"><ele>682.5999999999999</ele><time>2026-04-28T08:50:36.205Z</time></trkpt><trkpt lat="37.858745" lon="15.08804"><ele>682.8</ele><time>2026-04-28T08:50:37.205Z</time></trkpt><trkpt lat="37.858835" lon="15.088075"><ele>683.0</ele><time>2026-04-28T08:50:38.205Z</time></trkpt><trkpt lat="37.8589217" lon="15.0881067"><ele>683.0</ele><time>2026-04-28T08:50:39.205Z</time></trkpt><trkpt lat="37.8590067" lon="15.088135"><ele>683.0</ele><time>2026-04-28T08:50:40.206Z</time></trkpt><trkpt lat="37.85909" lon="15.0881467"><ele>683.0</ele><time>2026-04-28T08:50:41.205Z</time></trkpt><trkpt lat="37.859175" lon="15.0881317"><ele>683.0</ele><time>2026-04-28T08:50:42.205Z</time></trkpt><trkpt lat="37.8592583" lon="15.0880867"><ele>683.0</ele><time>2026-04-28T08:50:43.205Z</time></trkpt><trkpt lat="37.8593217" lon="15.088005"><ele>683.0</ele><time>2026-04-28T08:50:44.205Z</time></trkpt><trkpt lat="37.859365" lon="15.0879017"><ele>682.75</ele><time>2026-04-28T08:50:45.205Z</time></trkpt><trkpt lat="37.8593833" lon="15.08777"><ele>682.5</ele><time>2026-04-28T08:50:46.205Z</time></trkpt><trkpt lat="37.859395" lon="15.08761"><ele>682.25</ele><time>2026-04-28T08:50:47.205Z</time></trkpt><trkpt lat="37.8594133" lon="15.0874533"><ele>682.0</ele><time>2026-04-28T08:50:48.205Z</time></trkpt><trkpt lat="37.8594317" lon="15.0873"><ele>682.0</ele><time>2026-04-28T08:50:49.205Z</time></trkpt><trkpt lat="37.859455" lon="15.087155"><ele>682.0</ele><time>2026-04-28T08:50:50.206Z</time></trkpt><trkpt lat="37.8594683" lon="15.0870167"><ele>682.0</ele><time>2026-04-28T08:50:51.205Z</time></trkpt><trkpt lat="37.859475" lon="15.086885"><ele>682.0</ele><time>2026-04-28T08:50:52.205Z</time></trkpt><trkpt lat="37.8594767" lon="15.0867483"><ele>682.0</ele><time>2026-04-28T08:50:53.206Z</time></trkpt><trkpt lat="37.8594733" lon="15.0866217"><ele>682.0</ele><time>2026-04-28T08:50:54.204Z</time></trkpt><trkpt lat="37.8594633" lon="15.0864933"><ele>682.0</ele><time>2026-04-28T08:50:55.204Z</time></trkpt><trkpt lat="37.8594267" lon="15.086355"><ele>682.0</ele><time>2026-04-28T08:50:56.205Z</time></trkpt><trkpt lat="37.8593617" lon="15.0861967"><ele>682.0</ele><time>2026-04-28T08:50:57.204Z</time></trkpt><trkpt lat="37.8593017" lon="15.086035"><ele>683.5</ele><time>2026-04-28T08:50:58.204Z</time></trkpt><trkpt lat="37.85924" lon="15.085865"><ele>685.0</ele><time>2026-04-28T08:50:59.204Z</time></trkpt><trkpt lat="37.85918" lon="15.0857017"><ele>686.5</ele><time>2026-04-28T08:51:00.204Z</time></trkpt><trkpt lat="37.8591217" lon="15.085555"><ele>688.0</ele><time>2026-04-28T08:51:01.205Z</time></trkpt><trkpt lat="37.8590667" lon="15.0854183"><ele>688.1666666666667</ele><time>2026-04-28T08:51:02.204Z</time></trkpt><trkpt lat="37.859025" lon="15.0853017"><ele>688.3333333333334</ele><time>2026-04-28T08:51:03.205Z</time></trkpt><trkpt lat="37.8589883" lon="15.0852067"><ele>688.5</ele><time>2026-04-28T08:51:04.204Z</time></trkpt><trkpt lat="37.8589517" lon="15.0851167"><ele>688.6666666666666</ele><time>2026-04-28T08:51:05.205Z</time></trkpt><trkpt lat="37.8589117" lon="15.0850283"><ele>688.8333333333333</ele><time>2026-04-28T08:51:06.204Z</time></trkpt><trkpt lat="37.8588817" lon="15.084935"><ele>689.0</ele><time>2026-04-28T08:51:07.204Z</time></trkpt><trkpt lat="37.858865" lon="15.0848317"><ele>689.0</ele><time>2026-04-28T08:51:08.205Z</time></trkpt><trkpt lat="37.8588617" lon="15.0847267"><ele>689.0</ele><time>2026-04-28T08:51:09.204Z</time></trkpt><trkpt lat="37.85887" lon="15.084625"><ele>689.0</ele><time>2026-04-28T08:51:10.204Z</time></trkpt><trkpt lat="37.8588867" lon="15.084515"><ele>689.0</ele><time>2026-04-28T08:51:11.204Z</time></trkpt><trkpt lat="37.8589083" lon="15.0844017"><ele>689.0</ele><time>2026-04-28T08:51:12.204Z</time></trkpt><trkpt lat="37.858935" lon="15.08428"><ele>689.0</ele><time>2026-04-28T08:51:13.204Z</time></trkpt><trkpt lat="37.85896" lon="15.084135"><ele>689.5</ele><time>2026-04-28T08:51:14.204Z</time></trkpt><trkpt lat="37.8589867" lon="15.0839833"><ele>690.0</ele><time>2026-04-28T08:51:15.204Z</time></trkpt><trkpt lat="37.8590133" lon="15.0838167"><ele>690.5</ele><time>2026-04-28T08:51:16.204Z</time></trkpt><trkpt lat="37.85904" lon="15.0836483"><ele>691.0</ele><time>2026-04-28T08:51:17.204Z</time></trkpt><trkpt lat="37.8590683" lon="15.0834867"><ele>691.0</ele><time>2026-04-28T08:51:18.204Z</time></trkpt><trkpt lat="37.8590933" lon="15.08332"><ele>691.0</ele><time>2026-04-28T08:51:19.204Z</time></trkpt><trkpt lat="37.8591283" lon="15.0831483"><ele>691.0</ele><time>2026-04-28T08:51:20.204Z</time></trkpt><trkpt lat="37.859155" lon="15.0829683"><ele>691.0</ele><time>2026-04-28T08:51:21.204Z</time></trkpt><trkpt lat="37.8591817" lon="15.082765"><ele>691.0</ele><time>2026-04-28T08:51:22.205Z</time></trkpt><trkpt lat="37.8592217" lon="15.082525"><ele>691.0</ele><time>2026-04-28T08:51:23.204Z</time></trkpt><trkpt lat="37.85926" lon="15.0822717"><ele>691.0</ele><time>2026-04-28T08:51:24.204Z</time></trkpt><trkpt lat="37.8592983" lon="15.0820267"><ele>688.0</ele><time>2026-04-28T08:51:25.204Z</time></trkpt><trkpt lat="37.8593367" lon="15.0818083"><ele>685.0</ele><time>2026-04-28T08:51:26.204Z</time></trkpt><trkpt lat="37.859365" lon="15.0816"><ele>682.0</ele><time>2026-04-28T08:51:27.204Z</time></trkpt><trkpt lat="37.8594083" lon="15.0814033"><ele>682.0</ele><time>2026-04-28T08:51:28.205Z</time></trkpt><trkpt lat="37.859445" lon="15.0812167"><ele>682.0</ele><time>2026-04-28T08:51:29.205Z</time></trkpt><trkpt lat="37.859505" lon="15.081055"><ele>682.0</ele><time>2026-04-28T08:51:30.204Z</time></trkpt><trkpt lat="37.859595" lon="15.0809333"><ele>682.0</ele><time>2026-04-28T08:51:31.204Z</time></trkpt><trkpt lat="37.859725" lon="15.0808483"><ele>682.0</ele><time>2026-04-28T08:51:32.204Z</time></trkpt><trkpt lat="37.85987" lon="15.0808"><ele>682.0</ele><time>2026-04-28T08:51:33.204Z</time></trkpt><trkpt lat="37.8600267" lon="15.08076"><ele>682.0</ele><time>2026-04-28T08:51:34.204Z</time></trkpt><trkpt lat="37.8601883" lon="15.0807067"><ele>681.6666666666667</ele><time>2026-04-28T08:51:35.204Z</time></trkpt><trkpt lat="37.8603317" lon="15.0806433"><ele>681.3333333333334</ele><time>2026-04-28T08:51:36.204Z</time></trkpt><trkpt lat="37.860455" lon="15.080555"><ele>681.0</ele><time>2026-04-28T08:51:37.204Z</time></trkpt><trkpt lat="37.8605717" lon="15.080405"><ele>681.0</ele><time>2026-04-28T08:51:38.205Z</time></trkpt><trkpt lat="37.8606767" lon="15.0802183"><ele>681.0</ele><time>2026-04-28T08:51:39.205Z</time></trkpt><trkpt lat="37.8607817" lon="15.080015"><ele>681.0</ele><time>2026-04-28T08:51:40.204Z</time></trkpt><trkpt lat="37.8608933" lon="15.0798"><ele>680.3333333333334</ele><time>2026-04-28T08:51:41.205Z</time></trkpt><trkpt lat="37.8610017" lon="15.079585"><ele>679.6666666666667</ele><time>2026-04-28T08:51:42.204Z</time></trkpt><trkpt lat="37.8611117" lon="15.0793733"><ele>679.0</ele><time>2026-04-28T08:51:43.204Z</time></trkpt><trkpt lat="37.8612133" lon="15.0791633"><ele>680.6666666666667</ele><time>2026-04-28T08:51:44.204Z</time></trkpt><trkpt lat="37.8613117" lon="15.0789567"><ele>682.3333333333334</ele><time>2026-04-28T08:51:45.205Z</time></trkpt><trkpt lat="37.8613933" lon="15.078745"><ele>684.0</ele><time>2026-04-28T08:51:46.204Z</time></trkpt><trkpt lat="37.86147" lon="15.0785283"><ele>684.0</ele><time>2026-04-28T08:51:47.204Z</time></trkpt><trkpt lat="37.8615417" lon="15.078315"><ele>684.0</ele><time>2026-04-28T08:51:48.202Z</time></trkpt><trkpt lat="37.8616183" lon="15.0781017"><ele>684.0</ele><time>2026-04-28T08:51:49.204Z</time></trkpt><trkpt lat="37.86169" lon="15.0778867"><ele>685.6666666666666</ele><time>2026-04-28T08:51:50.204Z</time></trkpt><trkpt lat="37.8617567" lon="15.0776667"><ele>687.3333333333333</ele><time>2026-04-28T08:51:51.205Z</time></trkpt><trkpt lat="37.8618383" lon="15.0774433"><ele>689.0</ele><time>2026-04-28T08:51:52.204Z</time></trkpt><trkpt lat="37.8619217" lon="15.0772417"><ele>690.6666666666666</ele><time>2026-04-28T08:51:53.205Z</time></trkpt><trkpt lat="37.8620117" lon="15.0770533"><ele>692.3333333333334</ele><time>2026-04-28T08:51:54.204Z</time></trkpt><trkpt lat="37.8621" lon="15.076855"><ele>694.0</ele><time>2026-04-28T08:51:55.204Z</time></trkpt><trkpt lat="37.8621717" lon="15.0766583"><ele>695.0</ele><time>2026-04-28T08:51:56.204Z</time></trkpt><trkpt lat="37.8622267" lon="15.0764583"><ele>696.0</ele><time>2026-04-28T08:51:57.204Z</time></trkpt><trkpt lat="37.8622683" lon="15.0762733"><ele>697.0</ele><time>2026-04-28T08:51:58.204Z</time></trkpt><trkpt lat="37.86231" lon="15.0760967"><ele>697.0</ele><time>2026-04-28T08:51:59.204Z</time></trkpt><trkpt lat="37.8623567" lon="15.0759267"><ele>697.0</ele><time>2026-04-28T08:52:00.204Z</time></trkpt><trkpt lat="37.8624267" lon="15.07578"><ele>697.0</ele><time>2026-04-28T08:52:01.204Z</time></trkpt><trkpt lat="37.8625067" lon="15.0756383"><ele>697.0</ele><time>2026-04-28T08:52:02.205Z</time></trkpt><trkpt lat="37.8625883" lon="15.0755067"><ele>698.5</ele><time>2026-04-28T08:52:03.204Z</time></trkpt><trkpt lat="37.8626667" lon="15.075385"><ele>700.0</ele><time>2026-04-28T08:52:04.201Z</time></trkpt><trkpt lat="37.8627617" lon="15.0752867"><ele>701.5</ele><time>2026-04-28T08:52:05.204Z</time></trkpt><trkpt lat="37.8628667" lon="15.0752283"><ele>703.0</ele><time>2026-04-28T08:52:06.204Z</time></trkpt><trkpt lat="37.8629867" lon="15.0751983"><ele>703.0</ele><time>2026-04-28T08:52:07.204Z</time></trkpt><trkpt lat="37.8631317" lon="15.0751967"><ele>703.0</ele><time>2026-04-28T08:52:08.204Z</time></trkpt><trkpt lat="37.863275" lon="15.075195"><ele>703.0</ele><time>2026-04-28T08:52:09.205Z</time></trkpt><trkpt lat="37.863405" lon="15.0751617"><ele>703.0</ele><time>2026-04-28T08:52:10.204Z</time></trkpt><trkpt lat="37.863525" lon="15.07509"><ele>704.5</ele><time>2026-04-28T08:52:11.204Z</time></trkpt><trkpt lat="37.8636367" lon="15.0749967"><ele>706.0</ele><time>2026-04-28T08:52:12.204Z</time></trkpt><trkpt lat="37.8637517" lon="15.0748917"><ele>707.5</ele><time>2026-04-28T08:52:13.204Z</time></trkpt><trkpt lat="37.86386" lon="15.0747733"><ele>709.0</ele><time>2026-04-28T08:52:14.204Z</time></trkpt><trkpt lat="37.8639767" lon="15.074655"><ele>709.0</ele><time>2026-04-28T08:52:15.205Z</time></trkpt><trkpt lat="37.864085" lon="15.074535"><ele>709.0</ele><time>2026-04-28T08:52:16.204Z</time></trkpt><trkpt lat="37.86419" lon="15.07443"><ele>709.0</ele><time>2026-04-28T08:52:17.204Z</time></trkpt><trkpt lat="37.864305" lon="15.07432"><ele>709.0</ele><time>2026-04-28T08:52:18.204Z</time></trkpt><trkpt lat="37.8643967" lon="15.0741967"><ele>710.0</ele><time>2026-04-28T08:52:19.204Z</time></trkpt><trkpt lat="37.8644867" lon="15.0740717"><ele>711.0</ele><time>2026-04-28T08:52:20.204Z</time></trkpt><trkpt lat="37.8645633" lon="15.073945"><ele>712.0</ele><time>2026-04-28T08:52:21.204Z</time></trkpt><trkpt lat="37.8646317" lon="15.0738067"><ele>713.0</ele><time>2026-04-28T08:52:22.204Z</time></trkpt><trkpt lat="37.86468" lon="15.0736683"><ele>713.0</ele><time>2026-04-28T08:52:23.204Z</time></trkpt><trkpt lat="37.8647483" lon="15.0735233"><ele>713.0</ele><time>2026-04-28T08:52:24.204Z</time></trkpt><trkpt lat="37.86482" lon="15.0733867"><ele>713.0</ele><time>2026-04-28T08:52:25.204Z</time></trkpt><trkpt lat="37.86489" lon="15.073245"><ele>713.0</ele><time>2026-04-28T08:52:26.204Z</time></trkpt><trkpt lat="37.8649567" lon="15.0730983"><ele>713.5</ele><time>2026-04-28T08:52:27.204Z</time></trkpt><trkpt lat="37.8650117" lon="15.0729283"><ele>714.0</ele><time>2026-04-28T08:52:28.204Z</time></trkpt><trkpt lat="37.8650267" lon="15.07275"><ele>714.5</ele><time>2026-04-28T08:52:29.205Z</time></trkpt><trkpt lat="37.86502" lon="15.0725583"><ele>715.0</ele><time>2026-04-28T08:52:30.204Z</time></trkpt><trkpt lat="37.8650033" lon="15.07236"><ele>715.0</ele><time>2026-04-28T08:52:31.204Z</time></trkpt><trkpt lat="37.8649867" lon="15.07216"><ele>715.0</ele><time>2026-04-28T08:52:32.205Z</time></trkpt><trkpt lat="37.8649733" lon="15.071955"><ele>715.0</ele><time>2026-04-28T08:52:33.205Z</time></trkpt><trkpt lat="37.8649483" lon="15.0717383"><ele>714.3333333333334</ele><time>2026-04-28T08:52:34.204Z</time></trkpt><trkpt lat="37.8649217" lon="15.0715183"><ele>713.6666666666666</ele><time>2026-04-28T08:52:35.204Z</time></trkpt><trkpt lat="37.864895" lon="15.0713017"><ele>713.0</ele><time>2026-04-28T08:52:36.205Z</time></trkpt><trkpt lat="37.864865" lon="15.0710783"><ele>713.0</ele><time>2026-04-28T08:52:37.205Z</time></trkpt><trkpt lat="37.8648417" lon="15.07086"><ele>713.0</ele><time>2026-04-28T08:52:38.204Z</time></trkpt><trkpt lat="37.8648283" lon="15.0706417"><ele>713.0</ele><time>2026-04-28T08:52:39.204Z</time></trkpt><trkpt lat="37.86481" lon="15.070425"><ele>713.6666666666666</ele><time>2026-04-28T08:52:40.205Z</time></trkpt><trkpt lat="37.86478" lon="15.070215"><ele>714.3333333333334</ele><time>2026-04-28T08:52:41.204Z</time></trkpt><trkpt lat="37.86472" lon="15.0700117"><ele>715.0</ele><time>2026-04-28T08:52:42.204Z</time></trkpt><trkpt lat="37.86464" lon="15.0698283"><ele>717.3333333333334</ele><time>2026-04-28T08:52:43.204Z</time></trkpt><trkpt lat="37.8645483" lon="15.0696517"><ele>719.6666666666666</ele><time>2026-04-28T08:52:44.204Z</time></trkpt><trkpt lat="37.8644683" lon="15.0694833"><ele>722.0</ele><time>2026-04-28T08:52:45.204Z</time></trkpt><trkpt lat="37.86441" lon="15.0693117"><ele>722.0</ele><time>2026-04-28T08:52:46.204Z</time></trkpt><trkpt lat="37.8643883" lon="15.0691317"><ele>722.0</ele><time>2026-04-28T08:52:47.204Z</time></trkpt><trkpt lat="37.864385" lon="15.0689467"><ele>722.0</ele><time>2026-04-28T08:52:48.204Z</time></trkpt><trkpt lat="37.864385" lon="15.0687533"><ele>722.0</ele><time>2026-04-28T08:52:49.204Z</time></trkpt><trkpt lat="37.8643883" lon="15.068545"><ele>722.6666666666666</ele><time>2026-04-28T08:52:50.204Z</time></trkpt><trkpt lat="37.8643933" lon="15.0683317"><ele>723.3333333333334</ele><time>2026-04-28T08:52:51.204Z</time></trkpt><trkpt lat="37.8644" lon="15.0681183"><ele>724.0</ele><time>2026-04-28T08:52:52.204Z</time></trkpt><trkpt lat="37.8644067" lon="15.0679117"><ele>726.3333333333334</ele><time>2026-04-28T08:52:53.204Z</time></trkpt><trkpt lat="37.8644367" lon="15.0677117"><ele>728.6666666666666</ele><time>2026-04-28T08:52:54.204Z</time></trkpt><trkpt lat="37.8644867" lon="15.0675133"><ele>731.0</ele><time>2026-04-28T08:52:55.204Z</time></trkpt><trkpt lat="37.864535" lon="15.0673167"><ele>731.6666666666666</ele><time>2026-04-28T08:52:56.204Z</time></trkpt><trkpt lat="37.8645533" lon="15.06711"><ele>732.3333333333334</ele><time>2026-04-28T08:52:57.204Z</time></trkpt><trkpt lat="37.8645367" lon="15.0668883"><ele>733.0</ele><time>2026-04-28T08:52:58.204Z</time></trkpt><trkpt lat="37.8645083" lon="15.06667"><ele>734.6666666666667</ele><time>2026-04-28T08:52:59.204Z</time></trkpt><trkpt lat="37.8644867" lon="15.0664417"><ele>736.3333333333334</ele><time>2026-04-28T08:53:00.204Z</time></trkpt><trkpt lat="37.86447" lon="15.0662117"><ele>738.0</ele><time>2026-04-28T08:53:01.204Z</time></trkpt><trkpt lat="37.8644567" lon="15.0659817"><ele>739.6666666666666</ele><time>2026-04-28T08:53:02.204Z</time></trkpt><trkpt lat="37.8644483" lon="15.06575"><ele>741.3333333333333</ele><time>2026-04-28T08:53:03.205Z</time></trkpt><trkpt lat="37.8644283" lon="15.065525"><ele>743.0</ele><time>2026-04-28T08:53:04.205Z</time></trkpt><trkpt lat="37.86443" lon="15.0652983"><ele>743.0</ele><time>2026-04-28T08:53:05.204Z</time></trkpt><trkpt lat="37.864425" lon="15.06506"><ele>743.0</ele><time>2026-04-28T08:53:06.204Z</time></trkpt><trkpt lat="37.86442" lon="15.0648367"><ele>743.0</ele><time>2026-04-28T08:53:07.204Z</time></trkpt><trkpt lat="37.864415" lon="15.064615"><ele>743.6666666666666</ele><time>2026-04-28T08:53:08.204Z</time></trkpt><trkpt lat="37.8644217" lon="15.0643983"><ele>744.3333333333334</ele><time>2026-04-28T08:53:09.204Z</time></trkpt><trkpt lat="37.8644383" lon="15.0642083"><ele>745.0</ele><time>2026-04-28T08:53:10.204Z</time></trkpt><trkpt lat="37.864485" lon="15.064005"><ele>745.0</ele><time>2026-04-28T08:53:11.204Z</time></trkpt><trkpt lat="37.8645467" lon="15.0637883"><ele>745.0</ele><time>2026-04-28T08:53:12.204Z</time></trkpt><trkpt lat="37.8646167" lon="15.0635783"><ele>745.0</ele><time>2026-04-28T08:53:13.205Z</time></trkpt><trkpt lat="37.8646783" lon="15.0633617"><ele>744.3333333333334</ele><time>2026-04-28T08:53:14.204Z</time></trkpt><trkpt lat="37.8647083" lon="15.0631433"><ele>743.6666666666666</ele><time>2026-04-28T08:53:15.204Z</time></trkpt><trkpt lat="37.8647067" lon="15.0629233"><ele>743.0</ele><time>2026-04-28T08:53:16.204Z</time></trkpt><trkpt lat="37.8646667" lon="15.0626933"><ele>743.0</ele><time>2026-04-28T08:53:17.204Z</time></trkpt><trkpt lat="37.864635" lon="15.0624633"><ele>743.0</ele><time>2026-04-28T08:53:18.205Z</time></trkpt><trkpt lat="37.864595" lon="15.0622267"><ele>743.0</ele><time>2026-04-28T08:53:19.204Z</time></trkpt><trkpt lat="37.8645567" lon="15.06199"><ele>740.6666666666666</ele><time>2026-04-28T08:53:20.204Z</time></trkpt><trkpt lat="37.8645133" lon="15.0617667"><ele>738.3333333333334</ele><time>2026-04-28T08:53:21.205Z</time></trkpt><trkpt lat="37.8644667" lon="15.0615533"><ele>736.0</ele><time>2026-04-28T08:53:22.204Z</time></trkpt><trkpt lat="37.8643933" lon="15.0613467"><ele>734.6666666666667</ele><time>2026-04-28T08:53:23.205Z</time></trkpt><trkpt lat="37.8642933" lon="15.0611533"><ele>733.3333333333334</ele><time>2026-04-28T08:53:24.204Z</time></trkpt><trkpt lat="37.8641767" lon="15.0609717"><ele>732.0</ele><time>2026-04-28T08:53:25.204Z</time></trkpt><trkpt lat="37.864065" lon="15.0607967"><ele>735.3333333333334</ele><time>2026-04-28T08:53:26.204Z</time></trkpt><trkpt lat="37.8639983" lon="15.0606017"><ele>738.6666666666667</ele><time>2026-04-28T08:53:27.204Z</time></trkpt><trkpt lat="37.8639567" lon="15.060385"><ele>742.0</ele><time>2026-04-28T08:53:28.204Z</time></trkpt><trkpt lat="37.86394" lon="15.060165"><ele>742.0</ele><time>2026-04-28T08:53:29.204Z</time></trkpt><trkpt lat="37.863945" lon="15.0599683"><ele>742.0</ele><time>2026-04-28T08:53:30.204Z</time></trkpt><trkpt lat="37.8639367" lon="15.0597833"><ele>742.0</ele><time>2026-04-28T08:53:31.204Z</time></trkpt><trkpt lat="37.86388" lon="15.0596067"><ele>741.3333333333334</ele><time>2026-04-28T08:53:32.204Z</time></trkpt><trkpt lat="37.8637917" lon="15.059435"><ele>740.6666666666666</ele><time>2026-04-28T08:53:33.204Z</time></trkpt><trkpt lat="37.8636767" lon="15.0592733"><ele>740.0</ele><time>2026-04-28T08:53:34.204Z</time></trkpt><trkpt lat="37.8635483" lon="15.059115"><ele>741.3333333333333</ele><time>2026-04-28T08:53:35.204Z</time></trkpt><trkpt lat="37.8634167" lon="15.0589617"><ele>742.6666666666666</ele><time>2026-04-28T08:53:36.204Z</time></trkpt><trkpt lat="37.8632983" lon="15.05881"><ele>744.0</ele><time>2026-04-28T08:53:37.204Z</time></trkpt><trkpt lat="37.8631733" lon="15.0586433"><ele>744.0</ele><time>2026-04-28T08:53:38.204Z</time></trkpt><trkpt lat="37.8630833" lon="15.0584583"><ele>744.0</ele><time>2026-04-28T08:53:39.205Z</time></trkpt><trkpt lat="37.8630017" lon="15.05826"><ele>744.0</ele><time>2026-04-28T08:53:40.204Z</time></trkpt><trkpt lat="37.8629333" lon="15.058045"><ele>744.0</ele><time>2026-04-28T08:53:41.205Z</time></trkpt><trkpt lat="37.862865" lon="15.0578217"><ele>744.0</ele><time>2026-04-28T08:53:42.204Z</time></trkpt><trkpt lat="37.8628167" lon="15.0575867"><ele>744.0</ele><time>2026-04-28T08:53:43.204Z</time></trkpt><trkpt lat="37.862765" lon="15.0573467"><ele>744.0</ele><time>2026-04-28T08:53:44.204Z</time></trkpt><trkpt lat="37.8627" lon="15.0571067"><ele>744.0</ele><time>2026-04-28T08:53:45.204Z</time></trkpt><trkpt lat="37.86263" lon="15.0568667"><ele>744.0</ele><time>2026-04-28T08:53:46.204Z</time></trkpt><trkpt lat="37.862565" lon="15.0566267"><ele>745.3333333333334</ele><time>2026-04-28T08:53:47.204Z</time></trkpt><trkpt lat="37.8624933" lon="15.05638"><ele>746.6666666666667</ele><time>2026-04-28T08:53:48.204Z</time></trkpt><trkpt lat="37.8624267" lon="15.0561467"><ele>748.0</ele><time>2026-04-28T08:53:49.204Z</time></trkpt><trkpt lat="37.862375" lon="15.0559117"><ele>748.0</ele><time>2026-04-28T08:53:50.204Z</time></trkpt><trkpt lat="37.86234" lon="15.055685"><ele>748.0</ele><time>2026-04-28T08:53:51.204Z</time></trkpt><trkpt lat="37.8623067" lon="15.0554667"><ele>748.0</ele><time>2026-04-28T08:53:52.204Z</time></trkpt><trkpt lat="37.8622767" lon="15.0552483"><ele>748.0</ele><time>2026-04-28T08:53:53.204Z</time></trkpt><trkpt lat="37.86223" lon="15.0550467"><ele>748.0</ele><time>2026-04-28T08:53:54.205Z</time></trkpt><trkpt lat="37.86217" lon="15.054895"><ele>748.0</ele><time>2026-04-28T08:53:55.204Z</time></trkpt><trkpt lat="37.8621117" lon="15.054755"><ele>748.0</ele><time>2026-04-28T08:53:56.202Z</time></trkpt><trkpt lat="37.862055" lon="15.054625"><ele>747.2</ele><time>2026-04-28T08:53:57.204Z</time></trkpt><trkpt lat="37.8620283" lon="15.0544983"><ele>746.4</ele><time>2026-04-28T08:53:58.205Z</time></trkpt><trkpt lat="37.86204" lon="15.0543567"><ele>745.6</ele><time>2026-04-28T08:53:59.204Z</time></trkpt><trkpt lat="37.8621" lon="15.05423"><ele>744.8000000000001</ele><time>2026-04-28T08:54:00.204Z</time></trkpt><trkpt lat="37.8621767" lon="15.0541317"><ele>744.0</ele><time>2026-04-28T08:54:01.204Z</time></trkpt><trkpt lat="37.862275" lon="15.0540567"><ele>742.75</ele><time>2026-04-28T08:54:02.204Z</time></trkpt><trkpt lat="37.8623967" lon="15.054035"><ele>741.5</ele><time>2026-04-28T08:54:03.204Z</time></trkpt><trkpt lat="37.8625167" lon="15.05403"><ele>740.25</ele><time>2026-04-28T08:54:04.205Z</time></trkpt><trkpt lat="37.8626483" lon="15.0540083"><ele>739.0</ele><time>2026-04-28T08:54:05.204Z</time></trkpt><trkpt lat="37.8627883" lon="15.0539417"><ele>738.5</ele><time>2026-04-28T08:54:06.205Z</time></trkpt><trkpt lat="37.8628983" lon="15.0538517"><ele>738.0</ele><time>2026-04-28T08:54:07.204Z</time></trkpt><trkpt lat="37.8629767" lon="15.05372"><ele>737.5</ele><time>2026-04-28T08:54:08.204Z</time></trkpt><trkpt lat="37.8630367" lon="15.053555"><ele>737.0</ele><time>2026-04-28T08:54:09.204Z</time></trkpt><trkpt lat="37.863075" lon="15.0533933"><ele>736.75</ele><time>2026-04-28T08:54:10.204Z</time></trkpt><trkpt lat="37.863135" lon="15.0532483"><ele>736.5</ele><time>2026-04-28T08:54:11.204Z</time></trkpt><trkpt lat="37.86323" lon="15.0531183"><ele>736.25</ele><time>2026-04-28T08:54:12.204Z</time></trkpt><trkpt lat="37.8633433" lon="15.0530067"><ele>736.0</ele><time>2026-04-28T08:54:13.204Z</time></trkpt><trkpt lat="37.86347" lon="15.0528933"><ele>735.0</ele><time>2026-04-28T08:54:14.204Z</time></trkpt><trkpt lat="37.8635967" lon="15.0527533"><ele>734.0</ele><time>2026-04-28T08:54:15.204Z</time></trkpt><trkpt lat="37.8637367" lon="15.052615"><ele>733.0</ele><time>2026-04-28T08:54:16.204Z</time></trkpt><trkpt lat="37.863875" lon="15.0524667"><ele>731.6666666666667</ele><time>2026-04-28T08:54:17.204Z</time></trkpt><trkpt lat="37.8640433" lon="15.0523417"><ele>730.3333333333334</ele><time>2026-04-28T08:54:18.204Z</time></trkpt><trkpt lat="37.8641983" lon="15.0522183"><ele>729.0</ele><time>2026-04-28T08:54:19.204Z</time></trkpt><trkpt lat="37.8643567" lon="15.0520967"><ele>728.3333333333334</ele><time>2026-04-28T08:54:20.204Z</time></trkpt><trkpt lat="37.8645" lon="15.05197"><ele>727.6666666666667</ele><time>2026-04-28T08:54:21.205Z</time></trkpt><trkpt lat="37.8646367" lon="15.05184"><ele>727.0</ele><time>2026-04-28T08:54:22.204Z</time></trkpt><trkpt lat="37.8647767" lon="15.051725"><ele>726.6666666666667</ele><time>2026-04-28T08:54:23.204Z</time></trkpt><trkpt lat="37.864915" lon="15.05161"><ele>726.3333333333334</ele><time>2026-04-28T08:54:24.204Z</time></trkpt><trkpt lat="37.865065" lon="15.05149"><ele>726.0</ele><time>2026-04-28T08:54:25.205Z</time></trkpt><trkpt lat="37.8651983" lon="15.0513617"><ele>724.3333333333334</ele><time>2026-04-28T08:54:26.204Z</time></trkpt><trkpt lat="37.8653433" lon="15.0512433"><ele>722.6666666666667</ele><time>2026-04-28T08:54:27.204Z</time></trkpt><trkpt lat="37.8654867" lon="15.0511067"><ele>721.0</ele><time>2026-04-28T08:54:28.204Z</time></trkpt><trkpt lat="37.8656167" lon="15.0509667"><ele>721.0</ele><time>2026-04-28T08:54:29.204Z</time></trkpt><trkpt lat="37.8657317" lon="15.0508067"><ele>721.0</ele><time>2026-04-28T08:54:30.204Z</time></trkpt><trkpt lat="37.8658417" lon="15.0506517"><ele>721.0</ele><time>2026-04-28T08:54:31.205Z</time></trkpt><trkpt lat="37.8659583" lon="15.0505017"><ele>718.6666666666667</ele><time>2026-04-28T08:54:32.204Z</time></trkpt><trkpt lat="37.8660983" lon="15.0503633"><ele>716.3333333333334</ele><time>2026-04-28T08:54:33.204Z</time></trkpt><trkpt lat="37.86623" lon="15.0502567"><ele>714.0</ele><time>2026-04-28T08:54:34.204Z</time></trkpt><trkpt lat="37.8663733" lon="15.05016"><ele>714.0</ele><time>2026-04-28T08:54:35.204Z</time></trkpt><trkpt lat="37.8665033" lon="15.0500583"><ele>714.0</ele><time>2026-04-28T08:54:36.204Z</time></trkpt><trkpt lat="37.8666167" lon="15.049935"><ele>714.0</ele><time>2026-04-28T08:54:37.204Z</time></trkpt><trkpt lat="37.8667267" lon="15.04978"><ele>711.6666666666666</ele><time>2026-04-28T08:54:38.204Z</time></trkpt><trkpt lat="37.8668217" lon="15.0495933"><ele>709.3333333333333</ele><time>2026-04-28T08:54:39.204Z</time></trkpt><trkpt lat="37.8669033" lon="15.0494183"><ele>707.0</ele><time>2026-04-28T08:54:40.204Z</time></trkpt><trkpt lat="37.8669817" lon="15.0492383"><ele>705.3333333333333</ele><time>2026-04-28T08:54:41.204Z</time></trkpt><trkpt lat="37.8670417" lon="15.0490583"><ele>703.6666666666666</ele><time>2026-04-28T08:54:42.204Z</time></trkpt><trkpt lat="37.867095" lon="15.0488683"><ele>702.0</ele><time>2026-04-28T08:54:43.204Z</time></trkpt><trkpt lat="37.8671317" lon="15.0486733"><ele>702.0</ele><time>2026-04-28T08:54:44.204Z</time></trkpt><trkpt lat="37.867145" lon="15.0484567"><ele>702.0</ele><time>2026-04-28T08:54:45.204Z</time></trkpt><trkpt lat="37.86715" lon="15.0482317"><ele>702.0</ele><time>2026-04-28T08:54:46.204Z</time></trkpt><trkpt lat="37.867165" lon="15.04801"><ele>700.6666666666666</ele><time>2026-04-28T08:54:47.204Z</time></trkpt><trkpt lat="37.8671833" lon="15.0478083"><ele>699.3333333333333</ele><time>2026-04-28T08:54:48.204Z</time></trkpt><trkpt lat="37.86721" lon="15.0476183"><ele>698.0</ele><time>2026-04-28T08:54:49.205Z</time></trkpt><trkpt lat="37.8672483" lon="15.0474183"><ele>697.0</ele><time>2026-04-28T08:54:50.204Z</time></trkpt><trkpt lat="37.8673117" lon="15.0472217"><ele>696.0</ele><time>2026-04-28T08:54:51.204Z</time></trkpt><trkpt lat="37.8673983" lon="15.0470233"><ele>695.0</ele><time>2026-04-28T08:54:52.204Z</time></trkpt><trkpt lat="37.867485" lon="15.0468183"><ele>694.6666666666666</ele><time>2026-04-28T08:54:53.205Z</time></trkpt><trkpt lat="37.867575" lon="15.0466133"><ele>694.3333333333334</ele><time>2026-04-28T08:54:54.204Z</time></trkpt><trkpt lat="37.8676593" lon="15.046398"><ele>694.0</ele><time>2026-04-28T08:54:55.204Z</time></trkpt><trkpt lat="37.8677445" lon="15.0461845"><ele>691.3333333333334</ele><time>2026-04-28T08:54:56.204Z</time></trkpt><trkpt lat="37.8678383" lon="15.0459613"><ele>688.6666666666666</ele><time>2026-04-28T08:54:57.204Z</time></trkpt><trkpt lat="37.8679309" lon="15.0457349"><ele>686.0</ele><time>2026-04-28T08:54:58.204Z</time></trkpt><trkpt lat="37.8680229" lon="15.045507"><ele>685.0</ele><time>2026-04-28T08:54:59.204Z</time></trkpt><trkpt lat="37.8681134" lon="15.0452849"><ele>684.0</ele><time>2026-04-28T08:55:00.204Z</time></trkpt><trkpt lat="37.8682" lon="15.0450636"><ele>683.0</ele><time>2026-04-28T08:55:01.204Z</time></trkpt><trkpt lat="37.8682896" lon="15.0448463"><ele>682.3333333333333</ele><time>2026-04-28T08:55:02.205Z</time></trkpt><trkpt lat="37.8683799" lon="15.0446255"><ele>681.6666666666666</ele><time>2026-04-28T08:55:03.204Z</time></trkpt><trkpt lat="37.8684684" lon="15.0444071"><ele>681.0</ele><time>2026-04-28T08:55:04.204Z</time></trkpt><trkpt lat="37.868557" lon="15.0441862"><ele>680.0</ele><time>2026-04-28T08:55:05.205Z</time></trkpt><trkpt lat="37.8686501" lon="15.0439631"><ele>679.0</ele><time>2026-04-28T08:55:06.204Z</time></trkpt><trkpt lat="37.8687399" lon="15.0437445"><ele>678.0</ele><time>2026-04-28T08:55:07.204Z</time></trkpt><trkpt lat="37.8688284" lon="15.0435258"><ele>678.0</ele><time>2026-04-28T08:55:08.204Z</time></trkpt><trkpt lat="37.8689142" lon="15.0433117"><ele>678.0</ele><time>2026-04-28T08:55:09.205Z</time></trkpt><trkpt lat="37.8689971" lon="15.0431076"><ele>678.0</ele><time>2026-04-28T08:55:10.204Z</time></trkpt><trkpt lat="37.8690727" lon="15.0429061"><ele>677.3333333333334</ele><time>2026-04-28T08:55:11.204Z</time></trkpt><trkpt lat="37.8691376" lon="15.0427065"><ele>676.6666666666667</ele><time>2026-04-28T08:55:12.204Z</time></trkpt><trkpt lat="37.8691998" lon="15.0425154"><ele>676.0</ele><time>2026-04-28T08:55:13.204Z</time></trkpt><trkpt lat="37.8692627" lon="15.0423351"><ele>675.0</ele><time>2026-04-28T08:55:14.204Z</time></trkpt><trkpt lat="37.8693212" lon="15.0421735"><ele>674.0</ele><time>2026-04-28T08:55:15.204Z</time></trkpt><trkpt lat="37.869366" lon="15.04202"><ele>673.0</ele><time>2026-04-28T08:55:16.205Z</time></trkpt><trkpt lat="37.8693875" lon="15.0418707"><ele>672.0</ele><time>2026-04-28T08:55:17.204Z</time></trkpt><trkpt lat="37.8693697" lon="15.0417222"><ele>671.25</ele><time>2026-04-28T08:55:18.204Z</time></trkpt><trkpt lat="37.8693243" lon="15.0415741"><ele>670.5</ele><time>2026-04-28T08:55:19.204Z</time></trkpt><trkpt lat="37.8692773" lon="15.0414185"><ele>669.75</ele><time>2026-04-28T08:55:20.204Z</time></trkpt><trkpt lat="37.8692611" lon="15.0412585"><ele>669.0</ele><time>2026-04-28T08:55:21.204Z</time></trkpt><trkpt lat="37.8692848" lon="15.0410879"><ele>669.0</ele><time>2026-04-28T08:55:22.204Z</time></trkpt><trkpt lat="37.8693094" lon="15.0409088"><ele>669.0</ele><time>2026-04-28T08:55:23.205Z</time></trkpt><trkpt lat="37.8693033" lon="15.0407185"><ele>669.0</ele><time>2026-04-28T08:55:24.204Z</time></trkpt><trkpt lat="37.8692696" lon="15.0405246"><ele>669.3333333333334</ele><time>2026-04-28T08:55:25.205Z</time></trkpt><trkpt lat="37.8692281" lon="15.0403289"><ele>669.6666666666667</ele><time>2026-04-28T08:55:26.205Z</time></trkpt><trkpt lat="37.8692027" lon="15.0401447"><ele>670.0</ele><time>2026-04-28T08:55:27.204Z</time></trkpt><trkpt lat="37.8691913" lon="15.0399617"><ele>670.0</ele><time>2026-04-28T08:55:28.205Z</time></trkpt><trkpt lat="37.8692043" lon="15.039775"><ele>670.0</ele><time>2026-04-28T08:55:29.204Z</time></trkpt><trkpt lat="37.8692452" lon="15.0395773"><ele>670.0</ele><time>2026-04-28T08:55:30.205Z</time></trkpt><trkpt lat="37.869295" lon="15.0393737"><ele>667.6666666666667</ele><time>2026-04-28T08:55:31.205Z</time></trkpt><trkpt lat="37.8693389" lon="15.0391744"><ele>665.3333333333334</ele><time>2026-04-28T08:55:32.204Z</time></trkpt><trkpt lat="37.8693878" lon="15.0389831"><ele>663.0</ele><time>2026-04-28T08:55:33.204Z</time></trkpt><trkpt lat="37.8694405" lon="15.0388039"><ele>663.0</ele><time>2026-04-28T08:55:34.204Z</time></trkpt><trkpt lat="37.8695029" lon="15.0386346"><ele>663.0</ele><time>2026-04-28T08:55:35.204Z</time></trkpt><trkpt lat="37.8695816" lon="15.038477"><ele>663.0</ele><time>2026-04-28T08:55:36.205Z</time></trkpt><trkpt lat="37.8696821" lon="15.0383272"><ele>663.0</ele><time>2026-04-28T08:55:37.204Z</time></trkpt><trkpt lat="37.8698097" lon="15.0381974"><ele>663.0</ele><time>2026-04-28T08:55:38.204Z</time></trkpt><trkpt lat="37.8699457" lon="15.0380703"><ele>663.0</ele><time>2026-04-28T08:55:39.205Z</time></trkpt><trkpt lat="37.870075" lon="15.037944"><ele>661.6666666666666</ele><time>2026-04-28T08:55:40.204Z</time></trkpt><trkpt lat="37.8701996" lon="15.0378202"><ele>660.3333333333333</ele><time>2026-04-28T08:55:41.204Z</time></trkpt><trkpt lat="37.8703235" lon="15.0376875"><ele>659.0</ele><time>2026-04-28T08:55:42.204Z</time></trkpt><trkpt lat="37.8704486" lon="15.0375492"><ele>658.6666666666666</ele><time>2026-04-28T08:55:43.204Z</time></trkpt><trkpt lat="37.8705701" lon="15.037415"><ele>658.3333333333334</ele><time>2026-04-28T08:55:44.205Z</time></trkpt><trkpt lat="37.8706804" lon="15.0372914"><ele>658.0</ele><time>2026-04-28T08:55:45.204Z</time></trkpt><trkpt lat="37.8707905" lon="15.0371775"><ele>658.0</ele><time>2026-04-28T08:55:46.204Z</time></trkpt><trkpt lat="37.8708972" lon="15.037057"><ele>658.0</ele><time>2026-04-28T08:55:47.205Z</time></trkpt><trkpt lat="37.8710009" lon="15.0369624"><ele>658.0</ele><time>2026-04-28T08:55:48.205Z</time></trkpt><trkpt lat="37.8711184" lon="15.0369"><ele>658.0</ele><time>2026-04-28T08:55:49.204Z</time></trkpt><trkpt lat="37.8712598" lon="15.0369044"><ele>657.75</ele><time>2026-04-28T08:55:50.204Z</time></trkpt><trkpt lat="37.8714018" lon="15.0369108"><ele>657.5</ele><time>2026-04-28T08:55:51.204Z</time></trkpt><trkpt lat="37.8715442" lon="15.0368976"><ele>657.25</ele><time>2026-04-28T08:55:52.204Z</time></trkpt><trkpt lat="37.8716828" lon="15.0368477"><ele>657.0</ele><time>2026-04-28T08:55:53.205Z</time></trkpt><trkpt lat="37.8718212" lon="15.0367809"><ele>657.0</ele><time>2026-04-28T08:55:54.205Z</time></trkpt><trkpt lat="37.8719413" lon="15.0366939"><ele>657.0</ele><time>2026-04-28T08:55:55.205Z</time></trkpt><trkpt lat="37.8720495" lon="15.0365905"><ele>657.0</ele><time>2026-04-28T08:55:56.204Z</time></trkpt><trkpt lat="37.8721486" lon="15.036475"><ele>657.0</ele><time>2026-04-28T08:55:57.204Z</time></trkpt><trkpt lat="37.8722402" lon="15.0363534"><ele>657.75</ele><time>2026-04-28T08:55:58.204Z</time></trkpt><trkpt lat="37.8723448" lon="15.0362426"><ele>658.5</ele><time>2026-04-28T08:55:59.204Z</time></trkpt><trkpt lat="37.8724623" lon="15.0361538"><ele>659.25</ele><time>2026-04-28T08:56:00.204Z</time></trkpt><trkpt lat="37.8725803" lon="15.0360784"><ele>660.0</ele><time>2026-04-28T08:56:01.204Z</time></trkpt><trkpt lat="37.8726964" lon="15.0360216"><ele>658.75</ele><time>2026-04-28T08:56:02.204Z</time></trkpt><trkpt lat="37.8728119" lon="15.0359586"><ele>657.5</ele><time>2026-04-28T08:56:03.204Z</time></trkpt><trkpt lat="37.8729201" lon="15.0358919"><ele>656.25</ele><time>2026-04-28T08:56:04.204Z</time></trkpt><trkpt lat="37.873005" lon="15.035799"><ele>655.0</ele><time>2026-04-28T08:56:05.205Z</time></trkpt><trkpt lat="37.873073" lon="15.0356686"><ele>655.0</ele><time>2026-04-28T08:56:06.204Z</time></trkpt><trkpt lat="37.8731249" lon="15.0355151"><ele>655.0</ele><time>2026-04-28T08:56:07.204Z</time></trkpt><trkpt lat="37.8731636" lon="15.0353449"><ele>655.0</ele><time>2026-04-28T08:56:08.204Z</time></trkpt><trkpt lat="37.8731976" lon="15.0351663"><ele>655.0</ele><time>2026-04-28T08:56:09.204Z</time></trkpt><trkpt lat="37.8732308" lon="15.0349974"><ele>655.5</ele><time>2026-04-28T08:56:10.204Z</time></trkpt><trkpt lat="37.8732658" lon="15.0348341"><ele>656.0</ele><time>2026-04-28T08:56:11.205Z</time></trkpt><trkpt lat="37.8733028" lon="15.0346714"><ele>656.5</ele><time>2026-04-28T08:56:12.204Z</time></trkpt><trkpt lat="37.8733541" lon="15.0345132"><ele>657.0</ele><time>2026-04-28T08:56:13.204Z</time></trkpt><trkpt lat="37.873423" lon="15.0343686"><ele>656.5</ele><time>2026-04-28T08:56:14.204Z</time></trkpt><trkpt lat="37.873512" lon="15.0342499"><ele>656.0</ele><time>2026-04-28T08:56:15.204Z</time></trkpt><trkpt lat="37.8736221" lon="15.0341483"><ele>655.5</ele><time>2026-04-28T08:56:16.205Z</time></trkpt><trkpt lat="37.8737487" lon="15.0340698"><ele>655.0</ele><time>2026-04-28T08:56:17.204Z</time></trkpt><trkpt lat="37.8738839" lon="15.0340008"><ele>655.0</ele><time>2026-04-28T08:56:18.204Z</time></trkpt><trkpt lat="37.874013" lon="15.0339425"><ele>655.0</ele><time>2026-04-28T08:56:19.204Z</time></trkpt><trkpt lat="37.8741316" lon="15.0338798"><ele>655.0</ele><time>2026-04-28T08:56:20.204Z</time></trkpt><trkpt lat="37.8742282" lon="15.0338101"><ele>655.0</ele><time>2026-04-28T08:56:21.204Z</time></trkpt><trkpt lat="37.8743027" lon="15.0337141"><ele>653.25</ele><time>2026-04-28T08:56:22.204Z</time></trkpt><trkpt lat="37.8743473" lon="15.0335813"><ele>651.5</ele><time>2026-04-28T08:56:23.205Z</time></trkpt><trkpt lat="37.874359" lon="15.0334271"><ele>649.75</ele><time>2026-04-28T08:56:24.204Z</time></trkpt><trkpt lat="37.8743284" lon="15.0332583"><ele>648.0</ele><time>2026-04-28T08:56:25.205Z</time></trkpt><trkpt lat="37.8742721" lon="15.0330867"><ele>649.25</ele><time>2026-04-28T08:56:26.204Z</time></trkpt><trkpt lat="37.8742126" lon="15.0329112"><ele>650.5</ele><time>2026-04-28T08:56:27.204Z</time></trkpt><trkpt lat="37.8741693" lon="15.032732"><ele>651.75</ele><time>2026-04-28T08:56:28.205Z</time></trkpt><trkpt lat="37.8741415" lon="15.0325468"><ele>653.0</ele><time>2026-04-28T08:56:29.204Z</time></trkpt><trkpt lat="37.8741254" lon="15.0323498"><ele>653.0</ele><time>2026-04-28T08:56:30.204Z</time></trkpt><trkpt lat="37.8741341" lon="15.0321424"><ele>653.0</ele><time>2026-04-28T08:56:31.204Z</time></trkpt><trkpt lat="37.8741552" lon="15.0319334"><ele>653.0</ele><time>2026-04-28T08:56:32.204Z</time></trkpt><trkpt lat="37.8741854" lon="15.0317194"><ele>653.3333333333333</ele><time>2026-04-28T08:56:33.204Z</time></trkpt><trkpt lat="37.8742132" lon="15.0314984"><ele>653.6666666666666</ele><time>2026-04-28T08:56:34.204Z</time></trkpt><trkpt lat="37.8742443" lon="15.031276"><ele>654.0</ele><time>2026-04-28T08:56:35.204Z</time></trkpt><trkpt lat="37.8742788" lon="15.0310551"><ele>653.3333333333334</ele><time>2026-04-28T08:56:36.204Z</time></trkpt><trkpt lat="37.8743087" lon="15.0308324"><ele>652.6666666666667</ele><time>2026-04-28T08:56:37.204Z</time></trkpt><trkpt lat="37.8743287" lon="15.0306151"><ele>652.0</ele><time>2026-04-28T08:56:38.204Z</time></trkpt><trkpt lat="37.8743366" lon="15.0303932"><ele>654.0</ele><time>2026-04-28T08:56:39.204Z</time></trkpt><trkpt lat="37.8743332" lon="15.0301713"><ele>656.0</ele><time>2026-04-28T08:56:40.204Z</time></trkpt><trkpt lat="37.8743225" lon="15.0299458"><ele>658.0</ele><time>2026-04-28T08:56:41.204Z</time></trkpt><trkpt lat="37.8743088" lon="15.0297218"><ele>659.0</ele><time>2026-04-28T08:56:42.204Z</time></trkpt><trkpt lat="37.8742878" lon="15.0295039"><ele>660.0</ele><time>2026-04-28T08:56:43.204Z</time></trkpt><trkpt lat="37.8742657" lon="15.0292989"><ele>661.0</ele><time>2026-04-28T08:56:44.204Z</time></trkpt><trkpt lat="37.8742459" lon="15.0291011"><ele>662.3333333333334</ele><time>2026-04-28T08:56:45.204Z</time></trkpt><trkpt lat="37.8742341" lon="15.0289047"><ele>663.6666666666666</ele><time>2026-04-28T08:56:46.204Z</time></trkpt><trkpt lat="37.8742326" lon="15.0287007"><ele>665.0</ele><time>2026-04-28T08:56:47.204Z</time></trkpt><trkpt lat="37.8742539" lon="15.0284984"><ele>663.6666666666666</ele><time>2026-04-28T08:56:48.204Z</time></trkpt><trkpt lat="37.8742951" lon="15.0283014"><ele>662.3333333333334</ele><time>2026-04-28T08:56:49.204Z</time></trkpt><trkpt lat="37.8743466" lon="15.0281008"><ele>661.0</ele><time>2026-04-28T08:56:50.204Z</time></trkpt><trkpt lat="37.8744023" lon="15.0278937"><ele>661.0</ele><time>2026-04-28T08:56:51.204Z</time></trkpt><trkpt lat="37.8744537" lon="15.0276822"><ele>661.0</ele><time>2026-04-28T08:56:52.204Z</time></trkpt><trkpt lat="37.874503" lon="15.02747"><ele>661.0</ele><time>2026-04-28T08:56:53.204Z</time></trkpt><trkpt lat="37.874556" lon="15.0272621"><ele>662.0</ele><time>2026-04-28T08:56:54.204Z</time></trkpt><trkpt lat="37.8746097" lon="15.0270587"><ele>663.0</ele><time>2026-04-28T08:56:55.205Z</time></trkpt><trkpt lat="37.8746683" lon="15.0268628"><ele>664.0</ele><time>2026-04-28T08:56:56.204Z</time></trkpt><trkpt lat="37.8747216" lon="15.0266772"><ele>665.6666666666667</ele><time>2026-04-28T08:56:57.204Z</time></trkpt><trkpt lat="37.8747674" lon="15.0264901"><ele>667.3333333333334</ele><time>2026-04-28T08:56:58.204Z</time></trkpt><trkpt lat="37.8747998" lon="15.026299"><ele>669.0</ele><time>2026-04-28T08:56:59.204Z</time></trkpt><trkpt lat="37.8748177" lon="15.0261048"><ele>669.0</ele><time>2026-04-28T08:57:00.204Z</time></trkpt><trkpt lat="37.8747985" lon="15.0259192"><ele>669.0</ele><time>2026-04-28T08:57:01.204Z</time></trkpt><trkpt lat="37.8747533" lon="15.0257476"><ele>669.0</ele><time>2026-04-28T08:57:02.204Z</time></trkpt><trkpt lat="37.8747063" lon="15.0255947"><ele>669.0</ele><time>2026-04-28T08:57:03.204Z</time></trkpt><trkpt lat="37.8746692" lon="15.0254536"><ele>669.2</ele><time>2026-04-28T08:57:04.204Z</time></trkpt><trkpt lat="37.8746574" lon="15.0253184"><ele>669.4000000000001</ele><time>2026-04-28T08:57:05.204Z</time></trkpt><trkpt lat="37.8746677" lon="15.0251799"><ele>669.6</ele><time>2026-04-28T08:57:06.204Z</time></trkpt><trkpt lat="37.8747114" lon="15.0250534"><ele>669.8</ele><time>2026-04-28T08:57:07.204Z</time></trkpt><trkpt lat="37.874783" lon="15.0249352"><ele>670.0</ele><time>2026-04-28T08:57:08.204Z</time></trkpt><trkpt lat="37.8748567" lon="15.0248242"><ele>670.8</ele><time>2026-04-28T08:57:09.204Z</time></trkpt><trkpt lat="37.8749245" lon="15.0247124"><ele>671.6</ele><time>2026-04-28T08:57:10.204Z</time></trkpt><trkpt lat="37.8749911" lon="15.0245994"><ele>672.4000000000001</ele><time>2026-04-28T08:57:11.205Z</time></trkpt><trkpt lat="37.8750487" lon="15.0244909"><ele>673.2</ele><time>2026-04-28T08:57:12.204Z</time></trkpt><trkpt lat="37.8751051" lon="15.0243883"><ele>674.0</ele><time>2026-04-28T08:57:13.205Z</time></trkpt><trkpt lat="37.8751644" lon="15.0242775"><ele>674.0</ele><time>2026-04-28T08:57:14.204Z</time></trkpt><trkpt lat="37.8752279" lon="15.0241555"><ele>674.0</ele><time>2026-04-28T08:57:15.204Z</time></trkpt><trkpt lat="37.8752989" lon="15.0240286"><ele>674.0</ele><time>2026-04-28T08:57:16.204Z</time></trkpt><trkpt lat="37.8753783" lon="15.0239073"><ele>674.0</ele><time>2026-04-28T08:57:17.204Z</time></trkpt><trkpt lat="37.8754697" lon="15.0237916"><ele>674.0</ele><time>2026-04-28T08:57:18.204Z</time></trkpt><trkpt lat="37.8755609" lon="15.023685"><ele>674.0</ele><time>2026-04-28T08:57:19.204Z</time></trkpt><trkpt lat="37.8756396" lon="15.0235707"><ele>674.0</ele><time>2026-04-28T08:57:20.204Z</time></trkpt><trkpt lat="37.875697" lon="15.0234309"><ele>674.0</ele><time>2026-04-28T08:57:21.204Z</time></trkpt><trkpt lat="37.8757344" lon="15.0232644"><ele>674.0</ele><time>2026-04-28T08:57:22.204Z</time></trkpt><trkpt lat="37.87575" lon="15.0230638"><ele>674.0</ele><time>2026-04-28T08:57:23.204Z</time></trkpt><trkpt lat="37.8757489" lon="15.0228292"><ele>674.0</ele><time>2026-04-28T08:57:24.204Z</time></trkpt><trkpt lat="37.8757437" lon="15.0225569"><ele>675.0</ele><time>2026-04-28T08:57:25.204Z</time></trkpt><trkpt lat="37.8757489" lon="15.0222504"><ele>676.0</ele><time>2026-04-28T08:57:26.204Z</time></trkpt><trkpt lat="37.8757712" lon="15.0219439"><ele>676.0</ele><time>2026-04-28T08:57:27.204Z</time></trkpt><trkpt lat="37.8758019" lon="15.0216578"><ele>676.0</ele><time>2026-04-28T08:57:28.204Z</time></trkpt><trkpt lat="37.8758388" lon="15.021389"><ele>676.0</ele><time>2026-04-28T08:57:29.204Z</time></trkpt><trkpt lat="37.8758697" lon="15.021125"><ele>676.3333333333334</ele><time>2026-04-28T08:57:30.204Z</time></trkpt><trkpt lat="37.8758953" lon="15.0208541"><ele>676.6666666666666</ele><time>2026-04-28T08:57:31.204Z</time></trkpt><trkpt lat="37.8759197" lon="15.0205759"><ele>677.0</ele><time>2026-04-28T08:57:32.204Z</time></trkpt><trkpt lat="37.8759313" lon="15.0202898"><ele>677.6666666666666</ele><time>2026-04-28T08:57:33.205Z</time></trkpt><trkpt lat="37.8759281" lon="15.0200028"><ele>678.3333333333334</ele><time>2026-04-28T08:57:34.204Z</time></trkpt><trkpt lat="37.875914" lon="15.0197238"><ele>679.0</ele><time>2026-04-28T08:57:35.204Z</time></trkpt><trkpt lat="37.8758997" lon="15.0194529"><ele>679.0</ele><time>2026-04-28T08:57:36.204Z</time></trkpt><trkpt lat="37.8758903" lon="15.0192001"><ele>679.0</ele><time>2026-04-28T08:57:37.205Z</time></trkpt><trkpt lat="37.8758811" lon="15.0189644"><ele>679.0</ele><time>2026-04-28T08:57:38.204Z</time></trkpt><trkpt lat="37.8758696" lon="15.0187383"><ele>679.3333333333334</ele><time>2026-04-28T08:57:39.204Z</time></trkpt><trkpt lat="37.8758358" lon="15.018508"><ele>679.6666666666666</ele><time>2026-04-28T08:57:40.204Z</time></trkpt><trkpt lat="37.8757719" lon="15.0182658"><ele>680.0</ele><time>2026-04-28T08:57:41.205Z</time></trkpt><trkpt lat="37.8757028" lon="15.0180259"><ele>680.0</ele><time>2026-04-28T08:57:42.205Z</time></trkpt><trkpt lat="37.8756218" lon="15.0177871"><ele>680.0</ele><time>2026-04-28T08:57:43.204Z</time></trkpt><trkpt lat="37.8755462" lon="15.0175476"><ele>680.0</ele><time>2026-04-28T08:57:44.204Z</time></trkpt><trkpt lat="37.8754775" lon="15.0173073"><ele>679.6666666666666</ele><time>2026-04-28T08:57:45.204Z</time></trkpt><trkpt lat="37.8754201" lon="15.0170636"><ele>679.3333333333334</ele><time>2026-04-28T08:57:46.204Z</time></trkpt><trkpt lat="37.875375" lon="15.0168136"><ele>679.0</ele><time>2026-04-28T08:57:47.204Z</time></trkpt><trkpt lat="37.8753391" lon="15.0165572"><ele>680.0</ele><time>2026-04-28T08:57:48.204Z</time></trkpt><trkpt lat="37.8753104" lon="15.0162957"><ele>681.0</ele><time>2026-04-28T08:57:49.204Z</time></trkpt><trkpt lat="37.8752819" lon="15.0160309"><ele>682.0</ele><time>2026-04-28T08:57:50.204Z</time></trkpt><trkpt lat="37.8752533" lon="15.0157641"><ele>683.0</ele><time>2026-04-28T08:57:51.204Z</time></trkpt><trkpt lat="37.875228" lon="15.0154995"><ele>684.0</ele><time>2026-04-28T08:57:52.204Z</time></trkpt><trkpt lat="37.8752065" lon="15.0152385"><ele>685.0</ele><time>2026-04-28T08:57:53.204Z</time></trkpt><trkpt lat="37.875192" lon="15.0149759"><ele>686.6666666666667</ele><time>2026-04-28T08:57:54.204Z</time></trkpt><trkpt lat="37.8751883" lon="15.0147115"><ele>688.3333333333334</ele><time>2026-04-28T08:57:55.204Z</time></trkpt><trkpt lat="37.8752047" lon="15.0144431"><ele>690.0</ele><time>2026-04-28T08:57:56.205Z</time></trkpt><trkpt lat="37.87523" lon="15.0141781"><ele>691.0</ele><time>2026-04-28T08:57:57.205Z</time></trkpt><trkpt lat="37.8752604" lon="15.013914"><ele>692.0</ele><time>2026-04-28T08:57:58.204Z</time></trkpt><trkpt lat="37.8752922" lon="15.0136453"><ele>693.0</ele><time>2026-04-28T08:57:59.204Z</time></trkpt><trkpt lat="37.875329" lon="15.0133756"><ele>692.6666666666666</ele><time>2026-04-28T08:58:00.204Z</time></trkpt><trkpt lat="37.8753634" lon="15.0131079"><ele>692.3333333333333</ele><time>2026-04-28T08:58:01.205Z</time></trkpt><trkpt lat="37.8753899" lon="15.0128408"><ele>692.0</ele><time>2026-04-28T08:58:02.205Z</time></trkpt><trkpt lat="37.8754201" lon="15.0125715"><ele>693.0</ele><time>2026-04-28T08:58:03.204Z</time></trkpt><trkpt lat="37.8754454" lon="15.0123018"><ele>694.0</ele><time>2026-04-28T08:58:04.204Z</time></trkpt><trkpt lat="37.8754716" lon="15.0120376"><ele>695.0</ele><time>2026-04-28T08:58:05.205Z</time></trkpt><trkpt lat="37.8754967" lon="15.0117808"><ele>697.0</ele><time>2026-04-28T08:58:06.204Z</time></trkpt><trkpt lat="37.8755228" lon="15.0115372"><ele>699.0</ele><time>2026-04-28T08:58:07.204Z</time></trkpt><trkpt lat="37.8755534" lon="15.0112993"><ele>701.0</ele><time>2026-04-28T08:58:08.204Z</time></trkpt><trkpt lat="37.8755847" lon="15.0110689"><ele>701.0</ele><time>2026-04-28T08:58:09.204Z</time></trkpt><trkpt lat="37.8756128" lon="15.0108482"><ele>701.0</ele><time>2026-04-28T08:58:10.204Z</time></trkpt><trkpt lat="37.8756484" lon="15.0106421"><ele>701.0</ele><time>2026-04-28T08:58:11.204Z</time></trkpt><trkpt lat="37.8756877" lon="15.0104474"><ele>702.3333333333333</ele><time>2026-04-28T08:58:12.205Z</time></trkpt><trkpt lat="37.8757198" lon="15.0102573"><ele>703.6666666666666</ele><time>2026-04-28T08:58:13.205Z</time></trkpt><trkpt lat="37.875748" lon="15.0100648"><ele>705.0</ele><time>2026-04-28T08:58:14.205Z</time></trkpt><trkpt lat="37.8757761" lon="15.009875"><ele>705.0</ele><time>2026-04-28T08:58:15.204Z</time></trkpt><trkpt lat="37.8758084" lon="15.0096965"><ele>705.0</ele><time>2026-04-28T08:58:16.205Z</time></trkpt><trkpt lat="37.8758537" lon="15.0095068"><ele>705.0</ele><time>2026-04-28T08:58:17.204Z</time></trkpt><trkpt lat="37.8759129" lon="15.0093185"><ele>705.0</ele><time>2026-04-28T08:58:18.205Z</time></trkpt><trkpt lat="37.8759807" lon="15.0091265"><ele>705.0</ele><time>2026-04-28T08:58:19.204Z</time></trkpt><trkpt lat="37.8760585" lon="15.0089335"><ele>705.0</ele><time>2026-04-28T08:58:20.205Z</time></trkpt><trkpt lat="37.8761416" lon="15.0087395"><ele>705.0</ele><time>2026-04-28T08:58:21.204Z</time></trkpt><trkpt lat="37.8762197" lon="15.0085285"><ele>705.0</ele><time>2026-04-28T08:58:22.204Z</time></trkpt><trkpt lat="37.8763019" lon="15.0083083"><ele>705.0</ele><time>2026-04-28T08:58:23.204Z</time></trkpt><trkpt lat="37.8763883" lon="15.0080818"><ele>707.3333333333334</ele><time>2026-04-28T08:58:24.204Z</time></trkpt><trkpt lat="37.8764807" lon="15.0078513"><ele>709.6666666666667</ele><time>2026-04-28T08:58:25.204Z</time></trkpt><trkpt lat="37.8765729" lon="15.0076126"><ele>712.0</ele><time>2026-04-28T08:58:26.204Z</time></trkpt><trkpt lat="37.8766589" lon="15.0073795"><ele>712.0</ele><time>2026-04-28T08:58:27.204Z</time></trkpt><trkpt lat="37.8767363" lon="15.00716"><ele>712.0</ele><time>2026-04-28T08:58:28.204Z</time></trkpt><trkpt lat="37.8768098" lon="15.006955"><ele>712.0</ele><time>2026-04-28T08:58:29.204Z</time></trkpt><trkpt lat="37.8768711" lon="15.0067459"><ele>713.3333333333334</ele><time>2026-04-28T08:58:30.204Z</time></trkpt><trkpt lat="37.8769075" lon="15.0065176"><ele>714.6666666666666</ele><time>2026-04-28T08:58:31.204Z</time></trkpt><trkpt lat="37.8769065" lon="15.0062772"><ele>716.0</ele><time>2026-04-28T08:58:32.204Z</time></trkpt><trkpt lat="37.8768701" lon="15.0060368"><ele>715.0</ele><time>2026-04-28T08:58:33.204Z</time></trkpt><trkpt lat="37.8767965" lon="15.0058058"><ele>714.0</ele><time>2026-04-28T08:58:34.204Z</time></trkpt><trkpt lat="37.8766904" lon="15.0055832"><ele>713.0</ele><time>2026-04-28T08:58:35.204Z</time></trkpt><trkpt lat="37.8765522" lon="15.005362"><ele>713.5</ele><time>2026-04-28T08:58:36.204Z</time></trkpt><trkpt lat="37.8764055" lon="15.0051383"><ele>714.0</ele><time>2026-04-28T08:58:37.204Z</time></trkpt><trkpt lat="37.8762638" lon="15.0049076"><ele>714.0</ele><time>2026-04-28T08:58:38.204Z</time></trkpt><trkpt lat="37.8761224" lon="15.0046699"><ele>714.0</ele><time>2026-04-28T08:58:39.205Z</time></trkpt><trkpt lat="37.8759811" lon="15.0044331"><ele>718.0</ele><time>2026-04-28T08:58:40.204Z</time></trkpt><trkpt lat="37.8758433" lon="15.0042026"><ele>722.0</ele><time>2026-04-28T08:58:41.204Z</time></trkpt><trkpt lat="37.8757051" lon="15.0039731"><ele>722.0</ele><time>2026-04-28T08:58:42.204Z</time></trkpt><trkpt lat="37.8755689" lon="15.0037493"><ele>722.0</ele><time>2026-04-28T08:58:43.204Z</time></trkpt><trkpt lat="37.8754414" lon="15.0035333"><ele>722.0</ele><time>2026-04-28T08:58:44.204Z</time></trkpt><trkpt lat="37.8753223" lon="15.0033296"><ele>722.6666666666666</ele><time>2026-04-28T08:58:45.204Z</time></trkpt><trkpt lat="37.8752219" lon="15.0031436"><ele>723.3333333333334</ele><time>2026-04-28T08:58:46.204Z</time></trkpt><trkpt lat="37.8751381" lon="15.0029554"><ele>724.0</ele><time>2026-04-28T08:58:47.204Z</time></trkpt><trkpt lat="37.8750704" lon="15.0027509"><ele>724.0</ele><time>2026-04-28T08:58:48.204Z</time></trkpt><trkpt lat="37.8750217" lon="15.0025197"><ele>724.0</ele><time>2026-04-28T08:58:49.204Z</time></trkpt><trkpt lat="37.8749778" lon="15.0022721"><ele>724.0</ele><time>2026-04-28T08:58:50.205Z</time></trkpt><trkpt lat="37.8749318" lon="15.0020159"><ele>722.6666666666667</ele><time>2026-04-28T08:58:51.204Z</time></trkpt><trkpt lat="37.8748796" lon="15.0017574"><ele>721.3333333333334</ele><time>2026-04-28T08:58:52.204Z</time></trkpt><trkpt lat="37.8748294" lon="15.0014996"><ele>720.0</ele><time>2026-04-28T08:58:53.204Z</time></trkpt><trkpt lat="37.8747856" lon="15.0012496"><ele>720.0</ele><time>2026-04-28T08:58:54.204Z</time></trkpt><trkpt lat="37.8747426" lon="15.00101"><ele>720.0</ele><time>2026-04-28T08:58:55.204Z</time></trkpt><trkpt lat="37.8746964" lon="15.0007736"><ele>720.0</ele><time>2026-04-28T08:58:56.204Z</time></trkpt><trkpt lat="37.8746475" lon="15.0005377"><ele>719.3333333333334</ele><time>2026-04-28T08:58:57.204Z</time></trkpt><trkpt lat="37.8745917" lon="15.0002968"><ele>718.6666666666667</ele><time>2026-04-28T08:58:58.204Z</time></trkpt><trkpt lat="37.8745133" lon="15.0000618"><ele>718.0</ele><time>2026-04-28T08:58:59.204Z</time></trkpt><trkpt lat="37.8744169" lon="14.999833"><ele>718.0</ele><time>2026-04-28T08:59:00.204Z</time></trkpt><trkpt lat="37.8743188" lon="14.9996016"><ele>718.0</ele><time>2026-04-28T08:59:01.204Z</time></trkpt><trkpt lat="37.874223" lon="14.9993631"><ele>718.0</ele><time>2026-04-28T08:59:02.205Z</time></trkpt><trkpt lat="37.874125" lon="14.9991202"><ele>719.3333333333334</ele><time>2026-04-28T08:59:03.204Z</time></trkpt><trkpt lat="37.8740231" lon="14.9988662"><ele>720.6666666666666</ele><time>2026-04-28T08:59:04.204Z</time></trkpt><trkpt lat="37.8739252" lon="14.9986147"><ele>722.0</ele><time>2026-04-28T08:59:05.205Z</time></trkpt><trkpt lat="37.8738284" lon="14.9983718"><ele>723.0</ele><time>2026-04-28T08:59:06.204Z</time></trkpt><trkpt lat="37.8737377" lon="14.9981382"><ele>724.0</ele><time>2026-04-28T08:59:07.204Z</time></trkpt><trkpt lat="37.8736596" lon="14.9979057"><ele>725.0</ele><time>2026-04-28T08:59:08.204Z</time></trkpt><trkpt lat="37.8735987" lon="14.9976767"><ele>726.3333333333333</ele><time>2026-04-28T08:59:09.204Z</time></trkpt><trkpt lat="37.8735529" lon="14.9974651"><ele>727.6666666666666</ele><time>2026-04-28T08:59:10.204Z</time></trkpt><trkpt lat="37.8735281" lon="14.9972658"><ele>729.0</ele><time>2026-04-28T08:59:11.205Z</time></trkpt><trkpt lat="37.8735372" lon="14.9970667"><ele>729.0</ele><time>2026-04-28T08:59:12.204Z</time></trkpt><trkpt lat="37.8735671" lon="14.996874"><ele>729.0</ele><time>2026-04-28T08:59:13.204Z</time></trkpt><trkpt lat="37.8736205" lon="14.9966796"><ele>729.0</ele><time>2026-04-28T08:59:14.203Z</time></trkpt><trkpt lat="37.8736815" lon="14.996479"><ele>730.0</ele><time>2026-04-28T08:59:15.204Z</time></trkpt><trkpt lat="37.873736" lon="14.9962779"><ele>731.0</ele><time>2026-04-28T08:59:16.203Z</time></trkpt><trkpt lat="37.8737829" lon="14.9960699"><ele>732.0</ele><time>2026-04-28T08:59:17.203Z</time></trkpt><trkpt lat="37.8738359" lon="14.9958654"><ele>732.3333333333334</ele><time>2026-04-28T08:59:18.204Z</time></trkpt><trkpt lat="37.873893" lon="14.9956546"><ele>732.6666666666667</ele><time>2026-04-28T08:59:19.203Z</time></trkpt><trkpt lat="37.8739456" lon="14.9954465"><ele>733.0</ele><time>2026-04-28T08:59:20.204Z</time></trkpt><trkpt lat="37.8739888" lon="14.995235"><ele>733.0</ele><time>2026-04-28T08:59:21.203Z</time></trkpt><trkpt lat="37.8740216" lon="14.9950196"><ele>733.0</ele><time>2026-04-28T08:59:22.203Z</time></trkpt><trkpt lat="37.8740501" lon="14.994807"><ele>733.0</ele><time>2026-04-28T08:59:23.203Z</time></trkpt><trkpt lat="37.8740852" lon="14.9945899"><ele>732.6666666666667</ele><time>2026-04-28T08:59:24.203Z</time></trkpt><trkpt lat="37.8741217" lon="14.994372"><ele>732.3333333333334</ele><time>2026-04-28T08:59:25.204Z</time></trkpt><trkpt lat="37.8741573" lon="14.99416"><ele>732.0</ele><time>2026-04-28T08:59:26.203Z</time></trkpt><trkpt lat="37.8741904" lon="14.9939584"><ele>732.0</ele><time>2026-04-28T08:59:27.204Z</time></trkpt><trkpt lat="37.8742258" lon="14.993766"><ele>732.0</ele><time>2026-04-28T08:59:28.204Z</time></trkpt><trkpt lat="37.8742636" lon="14.993569"><ele>732.0</ele><time>2026-04-28T08:59:29.203Z</time></trkpt><trkpt lat="37.87431" lon="14.9933734"><ele>733.3333333333334</ele><time>2026-04-28T08:59:30.203Z</time></trkpt><trkpt lat="37.8743804" lon="14.9931864"><ele>734.6666666666667</ele><time>2026-04-28T08:59:31.203Z</time></trkpt><trkpt lat="37.874467" lon="14.9930191"><ele>736.0</ele><time>2026-04-28T08:59:32.203Z</time></trkpt><trkpt lat="37.8745581" lon="14.9928693"><ele>736.0</ele><time>2026-04-28T08:59:33.203Z</time></trkpt><trkpt lat="37.874649" lon="14.9927276"><ele>736.0</ele><time>2026-04-28T08:59:34.203Z</time></trkpt><trkpt lat="37.8747281" lon="14.9925835"><ele>736.0</ele><time>2026-04-28T08:59:35.203Z</time></trkpt><trkpt lat="37.8747878" lon="14.9924188"><ele>736.0</ele><time>2026-04-28T08:59:36.203Z</time></trkpt><trkpt lat="37.8748246" lon="14.9922367"><ele>736.6666666666667</ele><time>2026-04-28T08:59:37.204Z</time></trkpt><trkpt lat="37.8748298" lon="14.992046"><ele>737.3333333333334</ele><time>2026-04-28T08:59:38.204Z</time></trkpt><trkpt lat="37.8748035" lon="14.9918412"><ele>738.0</ele><time>2026-04-28T08:59:39.203Z</time></trkpt><trkpt lat="37.8747618" lon="14.9916301"><ele>736.6666666666666</ele><time>2026-04-28T08:59:40.203Z</time></trkpt><trkpt lat="37.8747207" lon="14.9914138"><ele>735.3333333333333</ele><time>2026-04-28T08:59:41.203Z</time></trkpt><trkpt lat="37.8746802" lon="14.9911813"><ele>734.0</ele><time>2026-04-28T08:59:42.203Z</time></trkpt><trkpt lat="37.874631" lon="14.990928"><ele>734.5</ele><time>2026-04-28T08:59:43.204Z</time></trkpt><trkpt lat="37.8745797" lon="14.9906538"><ele>735.0</ele><time>2026-04-28T08:59:44.203Z</time></trkpt><trkpt lat="37.874533" lon="14.9903716"><ele>735.0</ele><time>2026-04-28T08:59:45.203Z</time></trkpt><trkpt lat="37.8744883" lon="14.9900988"><ele>735.0</ele><time>2026-04-28T08:59:46.203Z</time></trkpt><trkpt lat="37.8744478" lon="14.9898405"><ele>735.0</ele><time>2026-04-28T08:59:47.203Z</time></trkpt><trkpt lat="37.8744065" lon="14.9895995"><ele>735.3333333333334</ele><time>2026-04-28T08:59:48.203Z</time></trkpt><trkpt lat="37.8743638" lon="14.989366"><ele>735.6666666666667</ele><time>2026-04-28T08:59:49.203Z</time></trkpt><trkpt lat="37.8743315" lon="14.9891319"><ele>736.0</ele><time>2026-04-28T08:59:50.203Z</time></trkpt><trkpt lat="37.874306" lon="14.9888873"><ele>735.3333333333334</ele><time>2026-04-28T08:59:51.203Z</time></trkpt><trkpt lat="37.8742903" lon="14.9886385"><ele>734.6666666666666</ele><time>2026-04-28T08:59:52.203Z</time></trkpt><trkpt lat="37.8742938" lon="14.9883932"><ele>734.0</ele><time>2026-04-28T08:59:53.203Z</time></trkpt><trkpt lat="37.8743101" lon="14.9881499"><ele>734.0</ele><time>2026-04-28T08:59:54.203Z</time></trkpt><trkpt lat="37.8743272" lon="14.9879097"><ele>734.0</ele><time>2026-04-28T08:59:55.203Z</time></trkpt><trkpt lat="37.8743426" lon="14.9876713"><ele>734.0</ele><time>2026-04-28T08:59:56.203Z</time></trkpt><trkpt lat="37.8743407" lon="14.9874315"><ele>733.6666666666666</ele><time>2026-04-28T08:59:57.204Z</time></trkpt><trkpt lat="37.8743287" lon="14.9871847"><ele>733.3333333333334</ele><time>2026-04-28T08:59:58.203Z</time></trkpt><trkpt lat="37.8743075" lon="14.9869402"><ele>733.0</ele><time>2026-04-28T08:59:59.203Z</time></trkpt><trkpt lat="37.8742822" lon="14.986698"><ele>734.3333333333334</ele><time>2026-04-28T09:00:00.203Z</time></trkpt><trkpt lat="37.8742553" lon="14.9864607"><ele>735.6666666666666</ele><time>2026-04-28T09:00:01.204Z</time></trkpt><trkpt lat="37.8742435" lon="14.9862283"><ele>737.0</ele><time>2026-04-28T09:00:02.203Z</time></trkpt><trkpt lat="37.8742297" lon="14.9859995"><ele>736.6666666666666</ele><time>2026-04-28T09:00:03.203Z</time></trkpt><trkpt lat="37.8742196" lon="14.9857654"><ele>736.3333333333334</ele><time>2026-04-28T09:00:04.203Z</time></trkpt><trkpt lat="37.8742173" lon="14.9855354"><ele>736.0</ele><time>2026-04-28T09:00:05.203Z</time></trkpt><trkpt lat="37.8742288" lon="14.9852951"><ele>736.0</ele><time>2026-04-28T09:00:06.203Z</time></trkpt><trkpt lat="37.8742534" lon="14.9850559"><ele>736.0</ele><time>2026-04-28T09:00:07.203Z</time></trkpt><trkpt lat="37.8742928" lon="14.9848135"><ele>736.0</ele><time>2026-04-28T09:00:08.203Z</time></trkpt><trkpt lat="37.8743481" lon="14.9845764"><ele>735.6666666666667</ele><time>2026-04-28T09:00:09.203Z</time></trkpt><trkpt lat="37.8744151" lon="14.9843451"><ele>735.3333333333334</ele><time>2026-04-28T09:00:10.203Z</time></trkpt><trkpt lat="37.8744817" lon="14.9841195"><ele>735.0</ele><time>2026-04-28T09:00:11.203Z</time></trkpt><trkpt lat="37.874542" lon="14.9839044"><ele>735.6666666666666</ele><time>2026-04-28T09:00:12.203Z</time></trkpt><trkpt lat="37.8745953" lon="14.9836925"><ele>736.3333333333333</ele><time>2026-04-28T09:00:13.203Z</time></trkpt><trkpt lat="37.8746512" lon="14.9834803"><ele>737.0</ele><time>2026-04-28T09:00:14.203Z</time></trkpt><trkpt lat="37.8747077" lon="14.9832663"><ele>737.6666666666666</ele><time>2026-04-28T09:00:15.203Z</time></trkpt><trkpt lat="37.8747644" lon="14.9830517"><ele>738.3333333333334</ele><time>2026-04-28T09:00:16.203Z</time></trkpt><trkpt lat="37.8748234" lon="14.9828407"><ele>739.0</ele><time>2026-04-28T09:00:17.204Z</time></trkpt><trkpt lat="37.8748852" lon="14.982634"><ele>740.3333333333334</ele><time>2026-04-28T09:00:18.203Z</time></trkpt><trkpt lat="37.8749401" lon="14.9824345"><ele>741.6666666666666</ele><time>2026-04-28T09:00:19.204Z</time></trkpt><trkpt lat="37.875001" lon="14.9822348"><ele>743.0</ele><time>2026-04-28T09:00:20.203Z</time></trkpt><trkpt lat="37.875051" lon="14.9820362"><ele>742.0</ele><time>2026-04-28T09:00:21.203Z</time></trkpt><trkpt lat="37.8751044" lon="14.9818358"><ele>741.0</ele><time>2026-04-28T09:00:22.203Z</time></trkpt><trkpt lat="37.8751493" lon="14.9816362"><ele>740.0</ele><time>2026-04-28T09:00:23.203Z</time></trkpt><trkpt lat="37.875178" lon="14.9814371"><ele>740.0</ele><time>2026-04-28T09:00:24.203Z</time></trkpt><trkpt lat="37.8751862" lon="14.9812227"><ele>740.0</ele><time>2026-04-28T09:00:25.204Z</time></trkpt><trkpt lat="37.8751679" lon="14.9810025"><ele>740.0</ele><time>2026-04-28T09:00:26.204Z</time></trkpt><trkpt lat="37.8751425" lon="14.9807769"><ele>740.0</ele><time>2026-04-28T09:00:27.203Z</time></trkpt><trkpt lat="37.8751192" lon="14.9805506"><ele>740.0</ele><time>2026-04-28T09:00:28.203Z</time></trkpt><trkpt lat="37.8750959" lon="14.9803196"><ele>740.0</ele><time>2026-04-28T09:00:29.203Z</time></trkpt><trkpt lat="37.8750737" lon="14.9800893"><ele>740.6666666666666</ele><time>2026-04-28T09:00:30.203Z</time></trkpt><trkpt lat="37.8750509" lon="14.9798665"><ele>741.3333333333334</ele><time>2026-04-28T09:00:31.203Z</time></trkpt><trkpt lat="37.875028" lon="14.9796493"><ele>742.0</ele><time>2026-04-28T09:00:32.203Z</time></trkpt><trkpt lat="37.8750151" lon="14.9794339"><ele>742.0</ele><time>2026-04-28T09:00:33.203Z</time></trkpt><trkpt lat="37.8750202" lon="14.9792136"><ele>742.0</ele><time>2026-04-28T09:00:34.203Z</time></trkpt><trkpt lat="37.8750419" lon="14.9789946"><ele>742.0</ele><time>2026-04-28T09:00:35.203Z</time></trkpt><trkpt lat="37.8750753" lon="14.9787792"><ele>740.3333333333334</ele><time>2026-04-28T09:00:36.203Z</time></trkpt><trkpt lat="37.875114" lon="14.9785691"><ele>738.6666666666666</ele><time>2026-04-28T09:00:37.203Z</time></trkpt><trkpt lat="37.87515" lon="14.9783667"><ele>737.0</ele><time>2026-04-28T09:00:38.203Z</time></trkpt><trkpt lat="37.8751813" lon="14.9781687"><ele>736.6666666666666</ele><time>2026-04-28T09:00:39.203Z</time></trkpt><trkpt lat="37.8752122" lon="14.9779738"><ele>736.3333333333334</ele><time>2026-04-28T09:00:40.203Z</time></trkpt><trkpt lat="37.875244" lon="14.9777874"><ele>736.0</ele><time>2026-04-28T09:00:41.203Z</time></trkpt><trkpt lat="37.8752744" lon="14.9776017"><ele>736.5</ele><time>2026-04-28T09:00:42.204Z</time></trkpt><trkpt lat="37.8753044" lon="14.9774173"><ele>737.0</ele><time>2026-04-28T09:00:43.203Z</time></trkpt><trkpt lat="37.87533" lon="14.9772412"><ele>737.5</ele><time>2026-04-28T09:00:44.203Z</time></trkpt><trkpt lat="37.8753573" lon="14.9770644"><ele>738.0</ele><time>2026-04-28T09:00:45.203Z</time></trkpt><trkpt lat="37.8753862" lon="14.9768771"><ele>738.0</ele><time>2026-04-28T09:00:46.203Z</time></trkpt><trkpt lat="37.8754162" lon="14.9766888"><ele>738.0</ele><time>2026-04-28T09:00:47.203Z</time></trkpt><trkpt lat="37.8754462" lon="14.9765015"><ele>738.0</ele><time>2026-04-28T09:00:48.203Z</time></trkpt><trkpt lat="37.8754743" lon="14.9763162"><ele>737.75</ele><time>2026-04-28T09:00:49.203Z</time></trkpt><trkpt lat="37.8755" lon="14.9761332"><ele>737.5</ele><time>2026-04-28T09:00:50.203Z</time></trkpt><trkpt lat="37.8755249" lon="14.9759586"><ele>737.25</ele><time>2026-04-28T09:00:51.203Z</time></trkpt><trkpt lat="37.8755486" lon="14.9757881"><ele>737.0</ele><time>2026-04-28T09:00:52.203Z</time></trkpt><trkpt lat="37.8755757" lon="14.9756105"><ele>736.75</ele><time>2026-04-28T09:00:53.203Z</time></trkpt><trkpt lat="37.8756056" lon="14.9754366"><ele>736.5</ele><time>2026-04-28T09:00:54.203Z</time></trkpt><trkpt lat="37.8756289" lon="14.9752584"><ele>736.25</ele><time>2026-04-28T09:00:55.204Z</time></trkpt><trkpt lat="37.8756527" lon="14.9750772"><ele>736.0</ele><time>2026-04-28T09:00:56.203Z</time></trkpt><trkpt lat="37.8756796" lon="14.9748844"><ele>736.0</ele><time>2026-04-28T09:00:57.204Z</time></trkpt><trkpt lat="37.8757072" lon="14.9746883"><ele>736.0</ele><time>2026-04-28T09:00:58.203Z</time></trkpt><trkpt lat="37.8757379" lon="14.9744874"><ele>736.0</ele><time>2026-04-28T09:00:59.203Z</time></trkpt><trkpt lat="37.8757832" lon="14.9742964"><ele>735.3333333333334</ele><time>2026-04-28T09:01:00.203Z</time></trkpt><trkpt lat="37.8758359" lon="14.9741096"><ele>734.6666666666666</ele><time>2026-04-28T09:01:01.203Z</time></trkpt><trkpt lat="37.875882" lon="14.9739072"><ele>734.0</ele><time>2026-04-28T09:01:02.203Z</time></trkpt><trkpt lat="37.8759315" lon="14.9736737"><ele>732.0</ele><time>2026-04-28T09:01:03.203Z</time></trkpt><trkpt lat="37.8759946" lon="14.9734067"><ele>730.0</ele><time>2026-04-28T09:01:04.203Z</time></trkpt><trkpt lat="37.8760709" lon="14.973125"><ele>728.5</ele><time>2026-04-28T09:01:05.203Z</time></trkpt><trkpt lat="37.8761505" lon="14.9728369"><ele>727.0</ele><time>2026-04-28T09:01:06.203Z</time></trkpt><trkpt lat="37.8762333" lon="14.9725483"><ele>726.0</ele><time>2026-04-28T09:01:07.203Z</time></trkpt><trkpt lat="37.876305" lon="14.9722667"><ele>725.0</ele><time>2026-04-28T09:01:08.203Z</time></trkpt><trkpt lat="37.876375" lon="14.9719883"><ele>725.0</ele><time>2026-04-28T09:01:09.204Z</time></trkpt><trkpt lat="37.876445" lon="14.97172"><ele>725.0</ele><time>2026-04-28T09:01:10.203Z</time></trkpt><trkpt lat="37.8765133" lon="14.9714517"><ele>725.0</ele><time>2026-04-28T09:01:11.203Z</time></trkpt><trkpt lat="37.8765767" lon="14.9711833"><ele>725.0</ele><time>2026-04-28T09:01:12.203Z</time></trkpt><trkpt lat="37.8766383" lon="14.97092"><ele>725.0</ele><time>2026-04-28T09:01:13.203Z</time></trkpt><trkpt lat="37.8767067" lon="14.9706583"><ele>725.0</ele><time>2026-04-28T09:01:14.203Z</time></trkpt><trkpt lat="37.87677" lon="14.9704017"><ele>724.6666666666666</ele><time>2026-04-28T09:01:15.203Z</time></trkpt><trkpt lat="37.8768433" lon="14.97015"><ele>724.3333333333334</ele><time>2026-04-28T09:01:16.203Z</time></trkpt><trkpt lat="37.8769067" lon="14.969905"><ele>724.0</ele><time>2026-04-28T09:01:17.203Z</time></trkpt><trkpt lat="37.87698" lon="14.969675"><ele>723.6666666666667</ele><time>2026-04-28T09:01:18.203Z</time></trkpt><trkpt lat="37.8770517" lon="14.9694383"><ele>723.3333333333334</ele><time>2026-04-28T09:01:19.203Z</time></trkpt><trkpt lat="37.8771283" lon="14.9691917"><ele>723.0</ele><time>2026-04-28T09:01:20.203Z</time></trkpt><trkpt lat="37.8772033" lon="14.9689417"><ele>723.0</ele><time>2026-04-28T09:01:21.203Z</time></trkpt><trkpt lat="37.8772733" lon="14.9687083"><ele>723.0</ele><time>2026-04-28T09:01:22.203Z</time></trkpt><trkpt lat="37.8773433" lon="14.9684783"><ele>723.0</ele><time>2026-04-28T09:01:23.204Z</time></trkpt><trkpt lat="37.8774183" lon="14.9682417"><ele>722.6666666666666</ele><time>2026-04-28T09:01:24.203Z</time></trkpt><trkpt lat="37.87749" lon="14.9680033"><ele>722.3333333333333</ele><time>2026-04-28T09:01:25.203Z</time></trkpt><trkpt lat="37.87756" lon="14.96776"><ele>722.0</ele><time>2026-04-28T09:01:26.203Z</time></trkpt><trkpt lat="37.8776317" lon="14.96752"><ele>722.0</ele><time>2026-04-28T09:01:27.203Z</time></trkpt><trkpt lat="37.8776933" lon="14.9672867"><ele>722.0</ele><time>2026-04-28T09:01:28.203Z</time></trkpt><trkpt lat="37.8777617" lon="14.9670517"><ele>722.0</ele><time>2026-04-28T09:01:29.204Z</time></trkpt><trkpt lat="37.8778283" lon="14.9668033"><ele>721.6666666666666</ele><time>2026-04-28T09:01:30.204Z</time></trkpt><trkpt lat="37.8778983" lon="14.966575"><ele>721.3333333333334</ele><time>2026-04-28T09:01:31.203Z</time></trkpt><trkpt lat="37.877965" lon="14.9663517"><ele>721.0</ele><time>2026-04-28T09:01:32.203Z</time></trkpt><trkpt lat="37.8780217" lon="14.9661417"><ele>721.0</ele><time>2026-04-28T09:01:33.203Z</time></trkpt><trkpt lat="37.8780783" lon="14.9659417"><ele>721.0</ele><time>2026-04-28T09:01:34.204Z</time></trkpt><trkpt lat="37.878125" lon="14.96574"><ele>721.0</ele><time>2026-04-28T09:01:35.203Z</time></trkpt><trkpt lat="37.8781667" lon="14.96554"><ele>721.3333333333334</ele><time>2026-04-28T09:01:36.203Z</time></trkpt><trkpt lat="37.8781967" lon="14.9653367"><ele>721.6666666666666</ele><time>2026-04-28T09:01:37.203Z</time></trkpt><trkpt lat="37.87823" lon="14.965135"><ele>722.0</ele><time>2026-04-28T09:01:38.203Z</time></trkpt><trkpt lat="37.8782583" lon="14.9649367"><ele>722.5</ele><time>2026-04-28T09:01:39.203Z</time></trkpt><trkpt lat="37.87828" lon="14.9647433"><ele>723.0</ele><time>2026-04-28T09:01:40.203Z</time></trkpt><trkpt lat="37.8783" lon="14.9645617"><ele>723.5</ele><time>2026-04-28T09:01:41.203Z</time></trkpt><trkpt lat="37.8783067" lon="14.9643883"><ele>724.0</ele><time>2026-04-28T09:01:42.203Z</time></trkpt><trkpt lat="37.8783167" lon="14.96424"><ele>724.75</ele><time>2026-04-28T09:01:43.203Z</time></trkpt><trkpt lat="37.8783267" lon="14.9641067"><ele>725.5</ele><time>2026-04-28T09:01:44.203Z</time></trkpt><trkpt lat="37.878335" lon="14.9639617"><ele>726.25</ele><time>2026-04-28T09:01:45.203Z</time></trkpt><trkpt lat="37.87834" lon="14.9638133"><ele>727.0</ele><time>2026-04-28T09:01:46.203Z</time></trkpt><trkpt lat="37.87836" lon="14.9636583"><ele>727.0</ele><time>2026-04-28T09:01:47.203Z</time></trkpt><trkpt lat="37.8783783" lon="14.9635033"><ele>727.0</ele><time>2026-04-28T09:01:48.203Z</time></trkpt><trkpt lat="37.878395" lon="14.96334"><ele>727.0</ele><time>2026-04-28T09:01:49.204Z</time></trkpt><trkpt lat="37.878405" lon="14.9631783"><ele>727.0</ele><time>2026-04-28T09:01:50.203Z</time></trkpt><trkpt lat="37.8784133" lon="14.9630083"><ele>727.25</ele><time>2026-04-28T09:01:51.203Z</time></trkpt><trkpt lat="37.8784317" lon="14.9628367"><ele>727.5</ele><time>2026-04-28T09:01:52.204Z</time></trkpt><trkpt lat="37.87844" lon="14.96267"><ele>727.75</ele><time>2026-04-28T09:01:53.203Z</time></trkpt><trkpt lat="37.8784433" lon="14.9625033"><ele>728.0</ele><time>2026-04-28T09:01:54.204Z</time></trkpt><trkpt lat="37.8784567" lon="14.962335"><ele>728.0</ele><time>2026-04-28T09:01:55.203Z</time></trkpt><trkpt lat="37.8784633" lon="14.962165"><ele>728.0</ele><time>2026-04-28T09:01:56.203Z</time></trkpt><trkpt lat="37.878475" lon="14.9619933"><ele>728.0</ele><time>2026-04-28T09:01:57.203Z</time></trkpt><trkpt lat="37.8784817" lon="14.9618133"><ele>728.0</ele><time>2026-04-28T09:01:58.203Z</time></trkpt><trkpt lat="37.878495" lon="14.9616333"><ele>729.5</ele><time>2026-04-28T09:01:59.203Z</time></trkpt><trkpt lat="37.8785083" lon="14.96145"><ele>731.0</ele><time>2026-04-28T09:02:00.204Z</time></trkpt><trkpt lat="37.87852" lon="14.9612633"><ele>732.5</ele><time>2026-04-28T09:02:01.203Z</time></trkpt><trkpt lat="37.8785333" lon="14.9610767"><ele>734.0</ele><time>2026-04-28T09:02:02.203Z</time></trkpt><trkpt lat="37.87854" lon="14.9608933"><ele>734.0</ele><time>2026-04-28T09:02:03.203Z</time></trkpt><trkpt lat="37.8785417" lon="14.9607167"><ele>734.0</ele><time>2026-04-28T09:02:04.204Z</time></trkpt><trkpt lat="37.8785467" lon="14.9605483"><ele>734.0</ele><time>2026-04-28T09:02:05.203Z</time></trkpt><trkpt lat="37.87856" lon="14.9603817"><ele>734.0</ele><time>2026-04-28T09:02:06.203Z</time></trkpt><trkpt lat="37.8785767" lon="14.9602167"><ele>734.0</ele><time>2026-04-28T09:02:07.203Z</time></trkpt><trkpt lat="37.878595" lon="14.960055"><ele>734.0</ele><time>2026-04-28T09:02:08.203Z</time></trkpt><trkpt lat="37.8786283" lon="14.959895"><ele>734.0</ele><time>2026-04-28T09:02:09.204Z</time></trkpt><trkpt lat="37.87866" lon="14.9597417"><ele>734.0</ele><time>2026-04-28T09:02:10.204Z</time></trkpt><trkpt lat="37.878705" lon="14.9595983"><ele>735.4000000000001</ele><time>2026-04-28T09:02:11.204Z</time></trkpt><trkpt lat="37.8787617" lon="14.9594833"><ele>736.8</ele><time>2026-04-28T09:02:12.203Z</time></trkpt><trkpt lat="37.8788117" lon="14.959345"><ele>738.2</ele><time>2026-04-28T09:02:13.203Z</time></trkpt><trkpt lat="37.8788833" lon="14.9592383"><ele>739.5999999999999</ele><time>2026-04-28T09:02:14.203Z</time></trkpt><trkpt lat="37.878935" lon="14.95912"><ele>741.0</ele><time>2026-04-28T09:02:15.203Z</time></trkpt><trkpt lat="37.8789833" lon="14.9590217"><ele>742.0</ele><time>2026-04-28T09:02:16.203Z</time></trkpt><trkpt lat="37.8790267" lon="14.958915"><ele>743.0</ele><time>2026-04-28T09:02:17.203Z</time></trkpt><trkpt lat="37.8790683" lon="14.9588117"><ele>744.0</ele><time>2026-04-28T09:02:18.204Z</time></trkpt><trkpt lat="37.879105" lon="14.9587033"><ele>745.0</ele><time>2026-04-28T09:02:19.203Z</time></trkpt><trkpt lat="37.8791317" lon="14.9585933"><ele>746.0</ele><time>2026-04-28T09:02:20.203Z</time></trkpt><trkpt lat="37.87916" lon="14.9584933"><ele>746.0</ele><time>2026-04-28T09:02:21.203Z</time></trkpt><trkpt lat="37.8791933" lon="14.9583833"><ele>746.0</ele><time>2026-04-28T09:02:22.203Z</time></trkpt><trkpt lat="37.87922" lon="14.9582783"><ele>746.0</ele><time>2026-04-28T09:02:23.203Z</time></trkpt><trkpt lat="37.879245" lon="14.958175"><ele>746.0</ele><time>2026-04-28T09:02:24.203Z</time></trkpt><trkpt lat="37.879265" lon="14.9580867"><ele>746.0</ele><time>2026-04-28T09:02:25.204Z</time></trkpt><trkpt lat="37.8792933" lon="14.9579667"><ele>746.0</ele><time>2026-04-28T09:02:27.203Z</time></trkpt><trkpt lat="37.8793217" lon="14.95785"><ele>745.8333333333333</ele><time>2026-04-28T09:02:29.203Z</time></trkpt><trkpt lat="37.8793683" lon="14.9577017"><ele>745.6666666666666</ele><time>2026-04-28T09:02:31.204Z</time></trkpt><trkpt lat="37.8793867" lon="14.9576167"><ele>745.5</ele><time>2026-04-28T09:02:32.203Z</time></trkpt><trkpt lat="37.879405" lon="14.9575333"><ele>745.3333333333334</ele><time>2026-04-28T09:02:33.204Z</time></trkpt><trkpt lat="37.87943" lon="14.9574417"><ele>745.1666666666667</ele><time>2026-04-28T09:02:34.203Z</time></trkpt><trkpt lat="37.8794567" lon="14.9573467"><ele>745.0</ele><time>2026-04-28T09:02:35.203Z</time></trkpt><trkpt lat="37.8794833" lon="14.95725"><ele>744.8333333333334</ele><time>2026-04-28T09:02:36.204Z</time></trkpt><trkpt lat="37.8795033" lon="14.95716"><ele>744.6666666666667</ele><time>2026-04-28T09:02:37.203Z</time></trkpt><trkpt lat="37.8795217" lon="14.957065"><ele>744.5</ele><time>2026-04-28T09:02:38.204Z</time></trkpt><trkpt lat="37.8795417" lon="14.9569667"><ele>744.3333333333334</ele><time>2026-04-28T09:02:39.204Z</time></trkpt><trkpt lat="37.8795533" lon="14.95687"><ele>744.1666666666666</ele><time>2026-04-28T09:02:40.203Z</time></trkpt><trkpt lat="37.8795617" lon="14.9567733"><ele>744.0</ele><time>2026-04-28T09:02:41.204Z</time></trkpt><trkpt lat="37.87957" lon="14.9566767"><ele>744.0</ele><time>2026-04-28T09:02:42.203Z</time></trkpt><trkpt lat="37.8795833" lon="14.95658"><ele>744.0</ele><time>2026-04-28T09:02:43.203Z</time></trkpt><trkpt lat="37.879595" lon="14.9564817"><ele>744.0</ele><time>2026-04-28T09:02:44.203Z</time></trkpt><trkpt lat="37.8796067" lon="14.956375"><ele>744.0</ele><time>2026-04-28T09:02:45.203Z</time></trkpt><trkpt lat="37.8796233" lon="14.95626"><ele>744.0</ele><time>2026-04-28T09:02:46.203Z</time></trkpt><trkpt lat="37.8796417" lon="14.9561383"><ele>744.0</ele><time>2026-04-28T09:02:47.204Z</time></trkpt><trkpt lat="37.8796683" lon="14.9560117"><ele>744.0</ele><time>2026-04-28T09:02:48.203Z</time></trkpt><trkpt lat="37.8797" lon="14.9558817"><ele>744.0</ele><time>2026-04-28T09:02:49.203Z</time></trkpt><trkpt lat="37.8797233" lon="14.9557517"><ele>744.0</ele><time>2026-04-28T09:02:50.204Z</time></trkpt><trkpt lat="37.8797283" lon="14.9556167"><ele>744.0</ele><time>2026-04-28T09:02:51.204Z</time></trkpt><trkpt lat="37.87973" lon="14.9554867"><ele>744.0</ele><time>2026-04-28T09:02:52.203Z</time></trkpt><trkpt lat="37.8797367" lon="14.9553683"><ele>744.2</ele><time>2026-04-28T09:02:53.203Z</time></trkpt><trkpt lat="37.8797433" lon="14.95524"><ele>744.4000000000001</ele><time>2026-04-28T09:02:54.203Z</time></trkpt><trkpt lat="37.87975" lon="14.955115"><ele>744.6</ele><time>2026-04-28T09:02:55.203Z</time></trkpt><trkpt lat="37.879765" lon="14.9549817"><ele>744.8</ele><time>2026-04-28T09:02:56.203Z</time></trkpt><trkpt lat="37.879775" lon="14.954845"><ele>745.0</ele><time>2026-04-28T09:02:57.203Z</time></trkpt><trkpt lat="37.87979" lon="14.9547117"><ele>744.6</ele><time>2026-04-28T09:02:58.203Z</time></trkpt><trkpt lat="37.8798017" lon="14.95458"><ele>744.2</ele><time>2026-04-28T09:02:59.203Z</time></trkpt><trkpt lat="37.8798167" lon="14.95445"><ele>743.8</ele><time>2026-04-28T09:03:00.204Z</time></trkpt><trkpt lat="37.8798333" lon="14.95432"><ele>743.4</ele><time>2026-04-28T09:03:01.203Z</time></trkpt><trkpt lat="37.8798583" lon="14.954185"><ele>743.0</ele><time>2026-04-28T09:03:02.203Z</time></trkpt><trkpt lat="37.8798867" lon="14.9540583"><ele>742.5999999999999</ele><time>2026-04-28T09:03:03.204Z</time></trkpt><trkpt lat="37.8799117" lon="14.953935"><ele>742.1999999999999</ele><time>2026-04-28T09:03:04.203Z</time></trkpt><trkpt lat="37.8799283" lon="14.953815"><ele>741.8</ele><time>2026-04-28T09:03:05.203Z</time></trkpt><trkpt lat="37.87994" lon="14.9537033"><ele>741.4</ele><time>2026-04-28T09:03:06.204Z</time></trkpt><trkpt lat="37.8799533" lon="14.95359"><ele>741.0</ele><time>2026-04-28T09:03:07.203Z</time></trkpt><trkpt lat="37.879975" lon="14.9534833"><ele>741.0</ele><time>2026-04-28T09:03:08.203Z</time></trkpt><trkpt lat="37.8800083" lon="14.9533783"><ele>741.0</ele><time>2026-04-28T09:03:09.203Z</time></trkpt><trkpt lat="37.88007" lon="14.9532967"><ele>741.0</ele><time>2026-04-28T09:03:10.203Z</time></trkpt><trkpt lat="37.8801433" lon="14.9532333"><ele>741.0</ele><time>2026-04-28T09:03:11.203Z</time></trkpt><trkpt lat="37.88023" lon="14.9531933"><ele>741.0</ele><time>2026-04-28T09:03:12.203Z</time></trkpt><trkpt lat="37.88032" lon="14.95317"><ele>739.8</ele><time>2026-04-28T09:03:13.203Z</time></trkpt><trkpt lat="37.8804183" lon="14.9531383"><ele>738.5999999999999</ele><time>2026-04-28T09:03:14.203Z</time></trkpt><trkpt lat="37.8805" lon="14.9530833"><ele>737.4</ele><time>2026-04-28T09:03:15.203Z</time></trkpt><trkpt lat="37.8805733" lon="14.9530117"><ele>736.2</ele><time>2026-04-28T09:03:16.203Z</time></trkpt><trkpt lat="37.880635" lon="14.952925"><ele>735.0</ele><time>2026-04-28T09:03:17.204Z</time></trkpt><trkpt lat="37.8806833" lon="14.9528267"><ele>735.0</ele><time>2026-04-28T09:03:18.203Z</time></trkpt><trkpt lat="37.8807133" lon="14.9527367"><ele>735.0</ele><time>2026-04-28T09:03:19.203Z</time></trkpt><trkpt lat="37.8807417" lon="14.9526067"><ele>735.0</ele><time>2026-04-28T09:03:21.203Z</time></trkpt><trkpt lat="37.880725" lon="14.9525283"><ele>735.0</ele><time>2026-04-28T09:05:10.203Z</time></trkpt><trkpt lat="37.880725" lon="14.95244"><ele>735.0</ele><time>2026-04-28T09:05:11.203Z</time></trkpt><trkpt lat="37.8807267" lon="14.95235"><ele>735.0</ele><time>2026-04-28T09:05:12.203Z</time></trkpt><trkpt lat="37.8807317" lon="14.95223"><ele>734.75</ele><time>2026-04-28T09:05:13.203Z</time></trkpt><trkpt lat="37.880745" lon="14.9520967"><ele>734.5</ele><time>2026-04-28T09:05:14.203Z</time></trkpt><trkpt lat="37.8807717" lon="14.9519483"><ele>734.25</ele><time>2026-04-28T09:05:15.203Z</time></trkpt><trkpt lat="37.8808167" lon="14.9518067"><ele>734.0</ele><time>2026-04-28T09:05:16.203Z</time></trkpt><trkpt lat="37.88087" lon="14.9516617"><ele>730.75</ele><time>2026-04-28T09:05:17.203Z</time></trkpt><trkpt lat="37.88092" lon="14.951515"><ele>727.5</ele><time>2026-04-28T09:05:18.204Z</time></trkpt><trkpt lat="37.88097" lon="14.9513583"><ele>724.25</ele><time>2026-04-28T09:05:19.203Z</time></trkpt><trkpt lat="37.881025" lon="14.95119"><ele>721.0</ele><time>2026-04-28T09:05:20.203Z</time></trkpt><trkpt lat="37.8810817" lon="14.95101"><ele>720.75</ele><time>2026-04-28T09:05:21.203Z</time></trkpt><trkpt lat="37.8811433" lon="14.9508217"><ele>720.5</ele><time>2026-04-28T09:05:22.203Z</time></trkpt><trkpt lat="37.8812033" lon="14.9506517"><ele>720.25</ele><time>2026-04-28T09:05:23.203Z</time></trkpt><trkpt lat="37.8812583" lon="14.9504933"><ele>720.0</ele><time>2026-04-28T09:05:24.203Z</time></trkpt><trkpt lat="37.8813" lon="14.9503367"><ele>720.0</ele><time>2026-04-28T09:05:25.204Z</time></trkpt><trkpt lat="37.881325" lon="14.9501783"><ele>720.0</ele><time>2026-04-28T09:05:26.203Z</time></trkpt><trkpt lat="37.8813133" lon="14.95002"><ele>720.0</ele><time>2026-04-28T09:05:27.203Z</time></trkpt><trkpt lat="37.8812633" lon="14.94986"><ele>720.0</ele><time>2026-04-28T09:05:28.203Z</time></trkpt><trkpt lat="37.8811883" lon="14.9497083"><ele>723.6</ele><time>2026-04-28T09:05:29.203Z</time></trkpt><trkpt lat="37.8811183" lon="14.949575"><ele>727.2</ele><time>2026-04-28T09:05:30.203Z</time></trkpt><trkpt lat="37.88105" lon="14.9494517"><ele>730.8</ele><time>2026-04-28T09:05:31.203Z</time></trkpt><trkpt lat="37.8810133" lon="14.949345"><ele>734.4</ele><time>2026-04-28T09:05:32.204Z</time></trkpt><trkpt lat="37.881" lon="14.9492467"><ele>738.0</ele><time>2026-04-28T09:05:33.203Z</time></trkpt><trkpt lat="37.881015" lon="14.9491683"><ele>738.0</ele><time>2026-04-28T09:05:34.203Z</time></trkpt><trkpt lat="37.8811167" lon="14.9491233"><ele>738.0</ele><time>2026-04-28T09:05:36.203Z</time></trkpt><trkpt lat="37.8811867" lon="14.9491867"><ele>738.0</ele><time>2026-04-28T09:05:37.203Z</time></trkpt><trkpt lat="37.8812667" lon="14.9493083"><ele>738.0</ele><time>2026-04-28T09:05:38.203Z</time></trkpt><trkpt lat="37.8813633" lon="14.9494917"><ele>738.0</ele><time>2026-04-28T09:05:39.203Z</time></trkpt><trkpt lat="37.8814833" lon="14.949695"><ele>738.0</ele><time>2026-04-28T09:05:40.203Z</time></trkpt><trkpt lat="37.881595" lon="14.9498883"><ele>738.0</ele><time>2026-04-28T09:05:41.203Z</time></trkpt><trkpt lat="37.8816833" lon="14.95003"><ele>737.4</ele><time>2026-04-28T09:05:42.203Z</time></trkpt><trkpt lat="37.8817617" lon="14.95013"><ele>736.8</ele><time>2026-04-28T09:05:43.204Z</time></trkpt><trkpt lat="37.8818483" lon="14.95017"><ele>736.2</ele><time>2026-04-28T09:05:44.203Z</time></trkpt><trkpt lat="37.88193" lon="14.950155"><ele>735.6</ele><time>2026-04-28T09:05:45.203Z</time></trkpt><trkpt lat="37.8819967" lon="14.950085"><ele>735.0</ele><time>2026-04-28T09:05:46.203Z</time></trkpt><trkpt lat="37.8820283" lon="14.9499717"><ele>740.25</ele><time>2026-04-28T09:05:47.203Z</time></trkpt><trkpt lat="37.882025" lon="14.949825"><ele>745.5</ele><time>2026-04-28T09:05:48.203Z</time></trkpt><trkpt lat="37.8819817" lon="14.949645"><ele>750.75</ele><time>2026-04-28T09:05:49.203Z</time></trkpt><trkpt lat="37.8819017" lon="14.9494367"><ele>756.0</ele><time>2026-04-28T09:05:50.203Z</time></trkpt><trkpt lat="37.881825" lon="14.949255"><ele>753.5</ele><time>2026-04-28T09:05:51.203Z</time></trkpt><trkpt lat="37.881765" lon="14.9490933"><ele>751.0</ele><time>2026-04-28T09:05:52.203Z</time></trkpt><trkpt lat="37.8817167" lon="14.94896"><ele>748.5</ele><time>2026-04-28T09:05:53.203Z</time></trkpt><trkpt lat="37.88168" lon="14.948835"><ele>746.0</ele><time>2026-04-28T09:05:54.203Z</time></trkpt><trkpt lat="37.88167" lon="14.9487233"><ele>746.0</ele><time>2026-04-28T09:05:55.204Z</time></trkpt><trkpt lat="37.8816933" lon="14.9486467"><ele>746.0</ele><time>2026-04-28T09:05:56.203Z</time></trkpt><trkpt lat="37.881795" lon="14.948625"><ele>746.0</ele><time>2026-04-28T09:05:58.204Z</time></trkpt><trkpt lat="37.8818633" lon="14.9486967"><ele>746.0</ele><time>2026-04-28T09:05:59.203Z</time></trkpt><trkpt lat="37.881945" lon="14.9488317"><ele>746.0</ele><time>2026-04-28T09:06:00.204Z</time></trkpt><trkpt lat="37.8820467" lon="14.94899"><ele>749.3333333333333</ele><time>2026-04-28T09:06:01.203Z</time></trkpt><trkpt lat="37.8821633" lon="14.9491333"><ele>752.6666666666666</ele><time>2026-04-28T09:06:02.204Z</time></trkpt><trkpt lat="37.8822767" lon="14.949265"><ele>756.0</ele><time>2026-04-28T09:06:03.203Z</time></trkpt><trkpt lat="37.882365" lon="14.949405"><ele>756.0</ele><time>2026-04-28T09:06:04.204Z</time></trkpt><trkpt lat="37.8824117" lon="14.94957"><ele>756.0</ele><time>2026-04-28T09:06:05.203Z</time></trkpt><trkpt lat="37.8824283" lon="14.9497383"><ele>756.0</ele><time>2026-04-28T09:06:06.203Z</time></trkpt><trkpt lat="37.8824417" lon="14.9499017"><ele>756.0</ele><time>2026-04-28T09:06:07.203Z</time></trkpt><trkpt lat="37.8824783" lon="14.95005"><ele>758.5</ele><time>2026-04-28T09:06:08.203Z</time></trkpt><trkpt lat="37.8825333" lon="14.9501833"><ele>761.0</ele><time>2026-04-28T09:06:09.204Z</time></trkpt><trkpt lat="37.8826083" lon="14.9502783"><ele>763.5</ele><time>2026-04-28T09:06:10.203Z</time></trkpt><trkpt lat="37.8827117" lon="14.9503333"><ele>766.0</ele><time>2026-04-28T09:06:11.203Z</time></trkpt><trkpt lat="37.8828317" lon="14.9503617"><ele>766.0</ele><time>2026-04-28T09:06:12.203Z</time></trkpt><trkpt lat="37.8829617" lon="14.95041"><ele>766.0</ele><time>2026-04-28T09:06:13.203Z</time></trkpt><trkpt lat="37.8830867" lon="14.9504883"><ele>766.0</ele><time>2026-04-28T09:06:14.203Z</time></trkpt><trkpt lat="37.8831883" lon="14.9505967"><ele>766.0</ele><time>2026-04-28T09:06:15.203Z</time></trkpt><trkpt lat="37.88326" lon="14.95073"><ele>768.25</ele><time>2026-04-28T09:06:16.203Z</time></trkpt><trkpt lat="37.8833067" lon="14.95089"><ele>770.5</ele><time>2026-04-28T09:06:17.204Z</time></trkpt><trkpt lat="37.8833533" lon="14.9510417"><ele>772.75</ele><time>2026-04-28T09:06:18.204Z</time></trkpt><trkpt lat="37.8834317" lon="14.9511667"><ele>775.0</ele><time>2026-04-28T09:06:19.204Z</time></trkpt><trkpt lat="37.88354" lon="14.951275"><ele>775.0</ele><time>2026-04-28T09:06:20.203Z</time></trkpt><trkpt lat="37.8836467" lon="14.9513867"><ele>775.0</ele><time>2026-04-28T09:06:21.203Z</time></trkpt><trkpt lat="37.8837517" lon="14.951485"><ele>775.0</ele><time>2026-04-28T09:06:22.203Z</time></trkpt><trkpt lat="37.8838583" lon="14.9515667"><ele>775.0</ele><time>2026-04-28T09:06:23.203Z</time></trkpt><trkpt lat="37.8839617" lon="14.9516233"><ele>774.9999999999999</ele><time>2026-04-28T09:06:24.203Z</time></trkpt><trkpt lat="37.8840567" lon="14.951655"><ele>775.0</ele><time>2026-04-28T09:06:25.203Z</time></trkpt><trkpt lat="37.8841417" lon="14.951645"><ele>775.0</ele><time>2026-04-28T09:06:26.204Z</time></trkpt><trkpt lat="37.8841967" lon="14.9515867"><ele>775.0</ele><time>2026-04-28T09:06:27.203Z</time></trkpt><trkpt lat="37.88422" lon="14.9514983"><ele>774.9999999999999</ele><time>2026-04-28T09:06:28.203Z</time></trkpt><trkpt lat="37.8842017" lon="14.9514067"><ele>775.0</ele><time>2026-04-28T09:06:29.203Z</time></trkpt><trkpt lat="37.8841483" lon="14.9513567"><ele>775.0</ele><time>2026-04-28T09:06:30.203Z</time></trkpt><trkpt lat="37.8840467" lon="14.951355"><ele>775.0</ele><time>2026-04-28T09:06:31.203Z</time></trkpt><trkpt lat="37.8839317" lon="14.951355"><ele>775.0</ele><time>2026-04-28T09:06:32.203Z</time></trkpt><trkpt lat="37.8838233" lon="14.951335"><ele>775.0</ele><time>2026-04-28T09:06:33.203Z</time></trkpt><trkpt lat="37.8837283" lon="14.9512617"><ele>775.0</ele><time>2026-04-28T09:06:34.203Z</time></trkpt><trkpt lat="37.8836467" lon="14.9511517"><ele>775.0</ele><time>2026-04-28T09:06:35.203Z</time></trkpt><trkpt lat="37.8835783" lon="14.951035"><ele>775.0</ele><time>2026-04-28T09:06:36.203Z</time></trkpt><trkpt lat="37.883545" lon="14.950915"><ele>775.0</ele><time>2026-04-28T09:06:37.203Z</time></trkpt><trkpt lat="37.88353" lon="14.9507783"><ele>775.0</ele><time>2026-04-28T09:06:38.203Z</time></trkpt><trkpt lat="37.8835267" lon="14.950625"><ele>775.0</ele><time>2026-04-28T09:06:39.203Z</time></trkpt><trkpt lat="37.8835" lon="14.9504533"><ele>777.0</ele><time>2026-04-28T09:06:40.204Z</time></trkpt><trkpt lat="37.8834433" lon="14.9502917"><ele>779.0</ele><time>2026-04-28T09:06:41.203Z</time></trkpt><trkpt lat="37.8833567" lon="14.9501333"><ele>781.0</ele><time>2026-04-28T09:06:42.203Z</time></trkpt><trkpt lat="37.8832783" lon="14.94996"><ele>783.0</ele><time>2026-04-28T09:06:43.203Z</time></trkpt><trkpt lat="37.8832217" lon="14.949785"><ele>783.0</ele><time>2026-04-28T09:06:44.203Z</time></trkpt><trkpt lat="37.8831967" lon="14.94962"><ele>783.0</ele><time>2026-04-28T09:06:45.203Z</time></trkpt><trkpt lat="37.8831833" lon="14.9494433"><ele>783.0</ele><time>2026-04-28T09:06:46.204Z</time></trkpt><trkpt lat="37.8832033" lon="14.94926"><ele>783.0</ele><time>2026-04-28T09:06:47.203Z</time></trkpt><trkpt lat="37.883245" lon="14.9490533"><ele>784.5</ele><time>2026-04-28T09:06:48.203Z</time></trkpt><trkpt lat="37.8832983" lon="14.94885"><ele>786.0</ele><time>2026-04-28T09:06:49.203Z</time></trkpt><trkpt lat="37.88335" lon="14.9486667"><ele>787.5</ele><time>2026-04-28T09:06:50.203Z</time></trkpt><trkpt lat="37.8833667" lon="14.948525"><ele>789.0</ele><time>2026-04-28T09:06:51.203Z</time></trkpt><trkpt lat="37.8833667" lon="14.9484117"><ele>789.5</ele><time>2026-04-28T09:06:52.203Z</time></trkpt><trkpt lat="37.883395" lon="14.94833"><ele>790.0</ele><time>2026-04-28T09:06:53.203Z</time></trkpt><trkpt lat="37.8834483" lon="14.948285"><ele>790.5</ele><time>2026-04-28T09:06:54.204Z</time></trkpt><trkpt lat="37.883545" lon="14.94835"><ele>791.0</ele><time>2026-04-28T09:06:56.203Z</time></trkpt><trkpt lat="37.8835667" lon="14.94844"><ele>791.5</ele><time>2026-04-28T09:06:57.203Z</time></trkpt><trkpt lat="37.88355" lon="14.948575"><ele>792.0</ele><time>2026-04-28T09:06:58.203Z</time></trkpt><trkpt lat="37.883505" lon="14.9487517"><ele>791.0</ele><time>2026-04-28T09:06:59.203Z</time></trkpt><trkpt lat="37.88346" lon="14.9489517"><ele>790.0</ele><time>2026-04-28T09:07:00.203Z</time></trkpt><trkpt lat="37.88343" lon="14.9491533"><ele>789.0</ele><time>2026-04-28T09:07:01.203Z</time></trkpt><trkpt lat="37.8834283" lon="14.9493467"><ele>795.6666666666667</ele><time>2026-04-28T09:07:02.203Z</time></trkpt><trkpt lat="37.88346" lon="14.949535"><ele>802.3333333333334</ele><time>2026-04-28T09:07:03.203Z</time></trkpt><trkpt lat="37.8835133" lon="14.9497117"><ele>809.0</ele><time>2026-04-28T09:07:04.203Z</time></trkpt><trkpt lat="37.8836017" lon="14.9498817"><ele>809.0</ele><time>2026-04-28T09:07:05.203Z</time></trkpt><trkpt lat="37.8837033" lon="14.9500367"><ele>809.0</ele><time>2026-04-28T09:07:06.204Z</time></trkpt><trkpt lat="37.883825" lon="14.9501733"><ele>809.0</ele><time>2026-04-28T09:07:07.203Z</time></trkpt><trkpt lat="37.8839617" lon="14.9502867"><ele>807.6666666666667</ele><time>2026-04-28T09:07:08.204Z</time></trkpt><trkpt lat="37.8841167" lon="14.9503667"><ele>806.3333333333333</ele><time>2026-04-28T09:07:09.203Z</time></trkpt><trkpt lat="37.8842883" lon="14.9504167"><ele>805.0</ele><time>2026-04-28T09:07:10.204Z</time></trkpt><trkpt lat="37.8844583" lon="14.9504617"><ele>805.0</ele><time>2026-04-28T09:07:11.203Z</time></trkpt><trkpt lat="37.8846283" lon="14.95051"><ele>805.0</ele><time>2026-04-28T09:07:12.204Z</time></trkpt><trkpt lat="37.8847817" lon="14.9505583"><ele>805.0</ele><time>2026-04-28T09:07:13.203Z</time></trkpt><trkpt lat="37.8849183" lon="14.9506017"><ele>805.0</ele><time>2026-04-28T09:07:14.203Z</time></trkpt><trkpt lat="37.8850433" lon="14.9506383"><ele>805.0</ele><time>2026-04-28T09:07:15.203Z</time></trkpt><trkpt lat="37.8851633" lon="14.950685"><ele>805.0</ele><time>2026-04-28T09:07:16.203Z</time></trkpt><trkpt lat="37.8852783" lon="14.9507517"><ele>805.0</ele><time>2026-04-28T09:07:17.203Z</time></trkpt><trkpt lat="37.8853917" lon="14.950845"><ele>808.0</ele><time>2026-04-28T09:07:18.204Z</time></trkpt><trkpt lat="37.88548" lon="14.9509667"><ele>811.0</ele><time>2026-04-28T09:07:19.203Z</time></trkpt><trkpt lat="37.885555" lon="14.9511167"><ele>814.0</ele><time>2026-04-28T09:07:20.203Z</time></trkpt><trkpt lat="37.8856017" lon="14.951285"><ele>817.0</ele><time>2026-04-28T09:07:21.204Z</time></trkpt><trkpt lat="37.885655" lon="14.951465"><ele>817.0</ele><time>2026-04-28T09:07:22.203Z</time></trkpt><trkpt lat="37.885715" lon="14.9516383"><ele>817.0</ele><time>2026-04-28T09:07:23.203Z</time></trkpt><trkpt lat="37.88579" lon="14.951795"><ele>817.0</ele><time>2026-04-28T09:07:24.203Z</time></trkpt><trkpt lat="37.8858833" lon="14.95194"><ele>817.0</ele><time>2026-04-28T09:07:25.204Z</time></trkpt><trkpt lat="37.8859833" lon="14.9520583"><ele>820.25</ele><time>2026-04-28T09:07:26.203Z</time></trkpt><trkpt lat="37.886085" lon="14.9521583"><ele>823.5</ele><time>2026-04-28T09:07:27.203Z</time></trkpt><trkpt lat="37.8861817" lon="14.9522417"><ele>826.75</ele><time>2026-04-28T09:07:28.203Z</time></trkpt><trkpt lat="37.88626" lon="14.952335"><ele>830.0</ele><time>2026-04-28T09:07:29.203Z</time></trkpt><trkpt lat="37.8863067" lon="14.9524567"><ele>830.0</ele><time>2026-04-28T09:07:30.203Z</time></trkpt><trkpt lat="37.886315" lon="14.9525917"><ele>830.0</ele><time>2026-04-28T09:07:31.203Z</time></trkpt><trkpt lat="37.8862917" lon="14.9527333"><ele>830.0</ele><time>2026-04-28T09:07:32.203Z</time></trkpt><trkpt lat="37.8862633" lon="14.952875"><ele>830.0</ele><time>2026-04-28T09:07:33.203Z</time></trkpt><trkpt lat="37.8862417" lon="14.9530117"><ele>830.0</ele><time>2026-04-28T09:07:34.204Z</time></trkpt><trkpt lat="37.8862283" lon="14.9531433"><ele>830.0</ele><time>2026-04-28T09:07:35.204Z</time></trkpt><trkpt lat="37.886235" lon="14.9532683"><ele>830.0</ele><time>2026-04-28T09:07:36.203Z</time></trkpt><trkpt lat="37.88626" lon="14.9533933"><ele>830.0</ele><time>2026-04-28T09:07:37.203Z</time></trkpt><trkpt lat="37.88631" lon="14.953525"><ele>830.0</ele><time>2026-04-28T09:07:38.203Z</time></trkpt><trkpt lat="37.8863783" lon="14.9536467"><ele>830.0</ele><time>2026-04-28T09:07:39.203Z</time></trkpt><trkpt lat="37.886475" lon="14.9537517"><ele>828.0</ele><time>2026-04-28T09:07:40.204Z</time></trkpt><trkpt lat="37.8865867" lon="14.9538533"><ele>826.0</ele><time>2026-04-28T09:07:41.204Z</time></trkpt><trkpt lat="37.8867283" lon="14.9539667"><ele>824.0</ele><time>2026-04-28T09:07:42.204Z</time></trkpt><trkpt lat="37.8869067" lon="14.9541133"><ele>828.0</ele><time>2026-04-28T09:07:43.204Z</time></trkpt><trkpt lat="37.8871183" lon="14.95429"><ele>832.0</ele><time>2026-04-28T09:07:44.203Z</time></trkpt><trkpt lat="37.8873467" lon="14.9544767"><ele>832.0</ele><time>2026-04-28T09:07:45.203Z</time></trkpt><trkpt lat="37.887555" lon="14.954635"><ele>832.0</ele><time>2026-04-28T09:07:46.203Z</time></trkpt><trkpt lat="37.8877467" lon="14.95477"><ele>831.6666666666666</ele><time>2026-04-28T09:07:47.204Z</time></trkpt><trkpt lat="37.8879117" lon="14.9548817"><ele>831.3333333333333</ele><time>2026-04-28T09:07:48.203Z</time></trkpt><trkpt lat="37.8880567" lon="14.9549733"><ele>831.0</ele><time>2026-04-28T09:07:49.203Z</time></trkpt><trkpt lat="37.888185" lon="14.9550483"><ele>831.0</ele><time>2026-04-28T09:07:50.203Z</time></trkpt><trkpt lat="37.888315" lon="14.9551083"><ele>831.0</ele><time>2026-04-28T09:07:51.203Z</time></trkpt><trkpt lat="37.88846" lon="14.9551517"><ele>831.0</ele><time>2026-04-28T09:07:52.203Z</time></trkpt><trkpt lat="37.888625" lon="14.9551783"><ele>832.0</ele><time>2026-04-28T09:07:53.203Z</time></trkpt><trkpt lat="37.8888183" lon="14.955205"><ele>833.0</ele><time>2026-04-28T09:07:54.203Z</time></trkpt><trkpt lat="37.8890117" lon="14.95524"><ele>834.0</ele><time>2026-04-28T09:07:55.203Z</time></trkpt><trkpt lat="37.88919" lon="14.9552683"><ele>834.6666666666667</ele><time>2026-04-28T09:07:56.203Z</time></trkpt><trkpt lat="37.8893567" lon="14.955295"><ele>835.3333333333334</ele><time>2026-04-28T09:07:57.202Z</time></trkpt><trkpt lat="37.8895267" lon="14.9553183"><ele>836.0</ele><time>2026-04-28T09:07:58.203Z</time></trkpt><trkpt lat="37.8896933" lon="14.955335"><ele>836.0</ele><time>2026-04-28T09:07:59.202Z</time></trkpt><trkpt lat="37.8898633" lon="14.9553383"><ele>836.0</ele><time>2026-04-28T09:08:00.202Z</time></trkpt><trkpt lat="37.890035" lon="14.955325"><ele>836.0</ele><time>2026-04-28T09:08:01.202Z</time></trkpt><trkpt lat="37.8902017" lon="14.955305"><ele>838.75</ele><time>2026-04-28T09:08:02.202Z</time></trkpt><trkpt lat="37.89035" lon="14.955285"><ele>841.5</ele><time>2026-04-28T09:08:03.203Z</time></trkpt><trkpt lat="37.89049" lon="14.955275"><ele>844.25</ele><time>2026-04-28T09:08:04.202Z</time></trkpt><trkpt lat="37.890625" lon="14.9552817"><ele>847.0</ele><time>2026-04-28T09:08:05.202Z</time></trkpt><trkpt lat="37.8907633" lon="14.9553233"><ele>847.0</ele><time>2026-04-28T09:08:06.203Z</time></trkpt><trkpt lat="37.8908867" lon="14.9553933"><ele>847.0</ele><time>2026-04-28T09:08:07.202Z</time></trkpt><trkpt lat="37.8909967" lon="14.9554817"><ele>847.0</ele><time>2026-04-28T09:08:08.202Z</time></trkpt><trkpt lat="37.8911067" lon="14.9555683"><ele>847.0</ele><time>2026-04-28T09:08:09.202Z</time></trkpt><trkpt lat="37.8912233" lon="14.9556517"><ele>851.0</ele><time>2026-04-28T09:08:10.203Z</time></trkpt><trkpt lat="37.891345" lon="14.95571"><ele>855.0</ele><time>2026-04-28T09:08:11.202Z</time></trkpt><trkpt lat="37.89148" lon="14.9557517"><ele>859.0</ele><time>2026-04-28T09:08:12.202Z</time></trkpt><trkpt lat="37.8916283" lon="14.9557633"><ele>863.0</ele><time>2026-04-28T09:08:13.203Z</time></trkpt><trkpt lat="37.8917817" lon="14.9557517"><ele>863.6666666666667</ele><time>2026-04-28T09:08:14.202Z</time></trkpt><trkpt lat="37.8919317" lon="14.9557117"><ele>864.3333333333333</ele><time>2026-04-28T09:08:15.202Z</time></trkpt><trkpt lat="37.8920933" lon="14.9556383"><ele>865.0</ele><time>2026-04-28T09:08:16.202Z</time></trkpt><trkpt lat="37.8922517" lon="14.955545"><ele>865.0</ele><time>2026-04-28T09:08:17.202Z</time></trkpt><trkpt lat="37.892415" lon="14.9554367"><ele>865.0</ele><time>2026-04-28T09:08:18.202Z</time></trkpt><trkpt lat="37.8925633" lon="14.9553333"><ele>865.0</ele><time>2026-04-28T09:08:19.202Z</time></trkpt><trkpt lat="37.8926917" lon="14.9552467"><ele>864.25</ele><time>2026-04-28T09:08:20.202Z</time></trkpt><trkpt lat="37.89281" lon="14.955175"><ele>863.5</ele><time>2026-04-28T09:08:21.202Z</time></trkpt><trkpt lat="37.8929333" lon="14.9551317"><ele>862.75</ele><time>2026-04-28T09:08:22.202Z</time></trkpt><trkpt lat="37.89306" lon="14.9551333"><ele>862.0</ele><time>2026-04-28T09:08:23.202Z</time></trkpt><trkpt lat="37.8931833" lon="14.95517"><ele>862.0</ele><time>2026-04-28T09:08:24.202Z</time></trkpt><trkpt lat="37.8932833" lon="14.9552133"><ele>862.0</ele><time>2026-04-28T09:08:25.202Z</time></trkpt><trkpt lat="37.8933717" lon="14.9552183"><ele>862.0</ele><time>2026-04-28T09:08:26.202Z</time></trkpt><trkpt lat="37.8934567" lon="14.9551833"><ele>862.0</ele><time>2026-04-28T09:08:27.202Z</time></trkpt><trkpt lat="37.8935083" lon="14.9550933"><ele>862.0</ele><time>2026-04-28T09:08:28.202Z</time></trkpt><trkpt lat="37.893525" lon="14.9549783"><ele>865.8</ele><time>2026-04-28T09:08:29.202Z</time></trkpt><trkpt lat="37.8935017" lon="14.954865"><ele>869.6</ele><time>2026-04-28T09:08:30.202Z</time></trkpt><trkpt lat="37.89344" lon="14.9547867"><ele>873.3999999999999</ele><time>2026-04-28T09:08:31.202Z</time></trkpt><trkpt lat="37.8933417" lon="14.9547317"><ele>877.1999999999999</ele><time>2026-04-28T09:08:32.203Z</time></trkpt><trkpt lat="37.8932183" lon="14.9546783"><ele>881.0</ele><time>2026-04-28T09:08:33.202Z</time></trkpt><trkpt lat="37.8931117" lon="14.9546017"><ele>881.1999999999999</ele><time>2026-04-28T09:08:34.202Z</time></trkpt><trkpt lat="37.893025" lon="14.9544933"><ele>881.3999999999999</ele><time>2026-04-28T09:08:35.203Z</time></trkpt><trkpt lat="37.8929533" lon="14.9543867"><ele>881.6</ele><time>2026-04-28T09:08:36.202Z</time></trkpt><trkpt lat="37.8928983" lon="14.9542767"><ele>881.8</ele><time>2026-04-28T09:08:37.202Z</time></trkpt><trkpt lat="37.89286" lon="14.95417"><ele>882.0</ele><time>2026-04-28T09:08:38.202Z</time></trkpt><trkpt lat="37.8928617" lon="14.9540717"><ele>884.0</ele><time>2026-04-28T09:08:39.202Z</time></trkpt><trkpt lat="37.8928967" lon="14.95399"><ele>886.0</ele><time>2026-04-28T09:08:40.202Z</time></trkpt><trkpt lat="37.8929683" lon="14.9539433"><ele>888.0</ele><time>2026-04-28T09:08:41.202Z</time></trkpt><trkpt lat="37.89308" lon="14.9539333"><ele>890.0</ele><time>2026-04-28T09:08:42.202Z</time></trkpt><trkpt lat="37.89324" lon="14.9539533"><ele>892.0</ele><time>2026-04-28T09:08:43.202Z</time></trkpt><trkpt lat="37.8934417" lon="14.95399"><ele>893.6666666666666</ele><time>2026-04-28T09:08:44.202Z</time></trkpt><trkpt lat="37.8936333" lon="14.9540217"><ele>895.3333333333333</ele><time>2026-04-28T09:08:45.202Z</time></trkpt><trkpt lat="37.89382" lon="14.9540517"><ele>897.0</ele><time>2026-04-28T09:08:46.202Z</time></trkpt><trkpt lat="37.8940067" lon="14.9540867"><ele>897.0</ele><time>2026-04-28T09:08:47.202Z</time></trkpt><trkpt lat="37.8941933" lon="14.9541183"><ele>897.0</ele><time>2026-04-28T09:08:48.202Z</time></trkpt><trkpt lat="37.8943767" lon="14.954155"><ele>897.0</ele><time>2026-04-28T09:08:49.202Z</time></trkpt><trkpt lat="37.8945567" lon="14.95421"><ele>895.6666666666667</ele><time>2026-04-28T09:08:50.202Z</time></trkpt><trkpt lat="37.894735" lon="14.95429"><ele>894.3333333333334</ele><time>2026-04-28T09:08:51.203Z</time></trkpt><trkpt lat="37.8949067" lon="14.9543967"><ele>893.0</ele><time>2026-04-28T09:08:52.202Z</time></trkpt><trkpt lat="37.8950633" lon="14.9545233"><ele>899.6666666666667</ele><time>2026-04-28T09:08:53.202Z</time></trkpt><trkpt lat="37.8952" lon="14.9546767"><ele>906.3333333333333</ele><time>2026-04-28T09:08:54.202Z</time></trkpt><trkpt lat="37.895325" lon="14.9548417"><ele>913.0</ele><time>2026-04-28T09:08:55.202Z</time></trkpt><trkpt lat="37.895435" lon="14.955"><ele>907.3333333333333</ele><time>2026-04-28T09:08:56.202Z</time></trkpt><trkpt lat="37.8955583" lon="14.95513"><ele>901.6666666666667</ele><time>2026-04-28T09:08:57.203Z</time></trkpt><trkpt lat="37.895685" lon="14.9552283"><ele>896.0</ele><time>2026-04-28T09:08:58.203Z</time></trkpt><trkpt lat="37.8958233" lon="14.9553"><ele>899.25</ele><time>2026-04-28T09:08:59.202Z</time></trkpt><trkpt lat="37.8959567" lon="14.9553667"><ele>902.5</ele><time>2026-04-28T09:09:00.202Z</time></trkpt><trkpt lat="37.8960817" lon="14.955415"><ele>905.75</ele><time>2026-04-28T09:09:01.202Z</time></trkpt><trkpt lat="37.8962117" lon="14.9554283"><ele>909.0</ele><time>2026-04-28T09:09:02.202Z</time></trkpt><trkpt lat="37.8963383" lon="14.9554017"><ele>909.0</ele><time>2026-04-28T09:09:03.203Z</time></trkpt><trkpt lat="37.8964567" lon="14.9553717"><ele>909.0</ele><time>2026-04-28T09:09:04.202Z</time></trkpt><trkpt lat="37.8965733" lon="14.9553667"><ele>909.0</ele><time>2026-04-28T09:09:05.202Z</time></trkpt><trkpt lat="37.89669" lon="14.955415"><ele>909.0</ele><time>2026-04-28T09:09:06.202Z</time></trkpt><trkpt lat="37.8967833" lon="14.9555083"><ele>910.75</ele><time>2026-04-28T09:09:07.202Z</time></trkpt><trkpt lat="37.8968717" lon="14.9556433"><ele>912.5</ele><time>2026-04-28T09:09:08.202Z</time></trkpt><trkpt lat="37.89696" lon="14.9557883"><ele>914.25</ele><time>2026-04-28T09:09:09.202Z</time></trkpt><trkpt lat="37.8970567" lon="14.95593"><ele>916.0</ele><time>2026-04-28T09:09:10.202Z</time></trkpt><trkpt lat="37.89716" lon="14.9560717"><ele>916.0</ele><time>2026-04-28T09:09:11.202Z</time></trkpt><trkpt lat="37.8972633" lon="14.9561967"><ele>916.0</ele><time>2026-04-28T09:09:12.202Z</time></trkpt><trkpt lat="37.8973667" lon="14.9563083"><ele>916.0</ele><time>2026-04-28T09:09:13.202Z</time></trkpt><trkpt lat="37.8974833" lon="14.956395"><ele>916.0</ele><time>2026-04-28T09:09:14.202Z</time></trkpt><trkpt lat="37.89761" lon="14.9564633"><ele>919.3333333333333</ele><time>2026-04-28T09:09:15.202Z</time></trkpt><trkpt lat="37.89775" lon="14.9565367"><ele>922.6666666666667</ele><time>2026-04-28T09:09:16.202Z</time></trkpt><trkpt lat="37.8978983" lon="14.9566067"><ele>926.0</ele><time>2026-04-28T09:09:17.202Z</time></trkpt><trkpt lat="37.8980483" lon="14.9566733"><ele>925.3333333333334</ele><time>2026-04-28T09:09:18.202Z</time></trkpt><trkpt lat="37.8982017" lon="14.9567167"><ele>924.6666666666667</ele><time>2026-04-28T09:09:19.202Z</time></trkpt><trkpt lat="37.8983667" lon="14.9567433"><ele>924.0</ele><time>2026-04-28T09:09:20.202Z</time></trkpt><trkpt lat="37.898535" lon="14.9567583"><ele>924.0</ele><time>2026-04-28T09:09:21.202Z</time></trkpt><trkpt lat="37.8986967" lon="14.9567717"><ele>924.0</ele><time>2026-04-28T09:09:22.202Z</time></trkpt><trkpt lat="37.8988433" lon="14.9567867"><ele>924.0</ele><time>2026-04-28T09:09:23.202Z</time></trkpt><trkpt lat="37.8989767" lon="14.9568217"><ele>924.0</ele><time>2026-04-28T09:09:24.202Z</time></trkpt><trkpt lat="37.8990983" lon="14.9568833"><ele>924.0</ele><time>2026-04-28T09:09:25.202Z</time></trkpt><trkpt lat="37.8991883" lon="14.956985"><ele>924.0000000000001</ele><time>2026-04-28T09:09:26.202Z</time></trkpt><trkpt lat="37.89926" lon="14.9570817"><ele>924.0000000000001</ele><time>2026-04-28T09:09:27.202Z</time></trkpt><trkpt lat="37.8993433" lon="14.9571333"><ele>924.0</ele><time>2026-04-28T09:09:28.202Z</time></trkpt><trkpt lat="37.899425" lon="14.9571383"><ele>924.0</ele><time>2026-04-28T09:09:29.202Z</time></trkpt><trkpt lat="37.8995017" lon="14.9570983"><ele>929.0</ele><time>2026-04-28T09:09:30.202Z</time></trkpt><trkpt lat="37.8995533" lon="14.957015"><ele>934.0000000000001</ele><time>2026-04-28T09:09:31.202Z</time></trkpt><trkpt lat="37.8995733" lon="14.956895"><ele>939.0000000000001</ele><time>2026-04-28T09:09:32.203Z</time></trkpt><trkpt lat="37.89957" lon="14.9567867"><ele>944.0</ele><time>2026-04-28T09:09:33.202Z</time></trkpt><trkpt lat="37.8995317" lon="14.95667"><ele>949.0</ele><time>2026-04-28T09:09:34.202Z</time></trkpt><trkpt lat="37.8994317" lon="14.9565617"><ele>952.0</ele><time>2026-04-28T09:09:35.202Z</time></trkpt><trkpt lat="37.8993" lon="14.956445"><ele>955.0</ele><time>2026-04-28T09:09:36.203Z</time></trkpt><trkpt lat="37.8991633" lon="14.9563133"><ele>958.0</ele><time>2026-04-28T09:09:37.202Z</time></trkpt><trkpt lat="37.8990267" lon="14.9561683"><ele>956.3333333333333</ele><time>2026-04-28T09:09:38.202Z</time></trkpt><trkpt lat="37.8989017" lon="14.95603"><ele>954.6666666666667</ele><time>2026-04-28T09:09:39.202Z</time></trkpt><trkpt lat="37.89878" lon="14.955905"><ele>953.0</ele><time>2026-04-28T09:09:40.202Z</time></trkpt><trkpt lat="37.8986567" lon="14.95578"><ele>953.0</ele><time>2026-04-28T09:09:41.202Z</time></trkpt><trkpt lat="37.898545" lon="14.955665"><ele>953.0</ele><time>2026-04-28T09:09:42.202Z</time></trkpt><trkpt lat="37.8984417" lon="14.9555617"><ele>953.0</ele><time>2026-04-28T09:09:43.202Z</time></trkpt><trkpt lat="37.8983533" lon="14.9554717"><ele>953.0</ele><time>2026-04-28T09:09:44.202Z</time></trkpt><trkpt lat="37.8982833" lon="14.955375"><ele>952.8</ele><time>2026-04-28T09:09:45.202Z</time></trkpt><trkpt lat="37.898225" lon="14.9552583"><ele>952.5999999999999</ele><time>2026-04-28T09:09:46.202Z</time></trkpt><trkpt lat="37.898185" lon="14.9551417"><ele>952.4000000000001</ele><time>2026-04-28T09:09:47.202Z</time></trkpt><trkpt lat="37.8981733" lon="14.9550233"><ele>952.2</ele><time>2026-04-28T09:09:48.202Z</time></trkpt><trkpt lat="37.8981867" lon="14.9548967"><ele>952.0</ele><time>2026-04-28T09:09:49.202Z</time></trkpt><trkpt lat="37.8982333" lon="14.9547783"><ele>952.0</ele><time>2026-04-28T09:09:50.202Z</time></trkpt><trkpt lat="37.8983" lon="14.9546783"><ele>952.0</ele><time>2026-04-28T09:09:51.202Z</time></trkpt><trkpt lat="37.8983983" lon="14.9546083"><ele>952.0</ele><time>2026-04-28T09:09:52.202Z</time></trkpt><trkpt lat="37.8985033" lon="14.95457"><ele>952.0</ele><time>2026-04-28T09:09:53.202Z</time></trkpt><trkpt lat="37.8986083" lon="14.9545667"><ele>952.0</ele><time>2026-04-28T09:09:54.202Z</time></trkpt><trkpt lat="37.8987133" lon="14.9546017"><ele>952.25</ele><time>2026-04-28T09:09:55.202Z</time></trkpt><trkpt lat="37.898815" lon="14.9546667"><ele>952.5</ele><time>2026-04-28T09:09:56.202Z</time></trkpt><trkpt lat="37.8989283" lon="14.9547883"><ele>952.75</ele><time>2026-04-28T09:09:57.203Z</time></trkpt><trkpt lat="37.8990583" lon="14.9549467"><ele>953.0</ele><time>2026-04-28T09:09:58.202Z</time></trkpt><trkpt lat="37.8991983" lon="14.9551283"><ele>961.5</ele><time>2026-04-28T09:09:59.203Z</time></trkpt><trkpt lat="37.8993533" lon="14.9553467"><ele>970.0</ele><time>2026-04-28T09:10:00.203Z</time></trkpt><trkpt lat="37.89952" lon="14.9555683"><ele>970.0</ele><time>2026-04-28T09:10:01.202Z</time></trkpt><trkpt lat="37.8996883" lon="14.9557783"><ele>970.0</ele><time>2026-04-28T09:10:02.202Z</time></trkpt><trkpt lat="37.8998567" lon="14.9559717"><ele>966.0</ele><time>2026-04-28T09:10:03.203Z</time></trkpt><trkpt lat="37.9000133" lon="14.95615"><ele>962.0</ele><time>2026-04-28T09:10:04.202Z</time></trkpt><trkpt lat="37.9001567" lon="14.9563117"><ele>958.0</ele><time>2026-04-28T09:10:05.202Z</time></trkpt><trkpt lat="37.9002917" lon="14.9564583"><ele>965.3333333333333</ele><time>2026-04-28T09:10:06.202Z</time></trkpt><trkpt lat="37.9004067" lon="14.9565983"><ele>972.6666666666667</ele><time>2026-04-28T09:10:07.202Z</time></trkpt><trkpt lat="37.9004917" lon="14.956765"><ele>980.0</ele><time>2026-04-28T09:10:08.202Z</time></trkpt><trkpt lat="37.9005633" lon="14.9569817"><ele>980.0</ele><time>2026-04-28T09:10:09.202Z</time></trkpt><trkpt lat="37.9006333" lon="14.957215"><ele>980.0</ele><time>2026-04-28T09:10:10.202Z</time></trkpt><trkpt lat="37.9007083" lon="14.9574383"><ele>980.0</ele><time>2026-04-28T09:10:11.202Z</time></trkpt><trkpt lat="37.900785" lon="14.9576483"><ele>978.6666666666667</ele><time>2026-04-28T09:10:12.202Z</time></trkpt><trkpt lat="37.900895" lon="14.957835"><ele>977.3333333333333</ele><time>2026-04-28T09:10:13.202Z</time></trkpt><trkpt lat="37.901025" lon="14.9580267"><ele>976.0</ele><time>2026-04-28T09:10:14.202Z</time></trkpt><trkpt lat="37.9011567" lon="14.95821"><ele>978.0</ele><time>2026-04-28T09:10:15.202Z</time></trkpt><trkpt lat="37.9012783" lon="14.95838"><ele>980.0</ele><time>2026-04-28T09:10:16.203Z</time></trkpt><trkpt lat="37.9013933" lon="14.9585383"><ele>982.0</ele><time>2026-04-28T09:10:17.202Z</time></trkpt><trkpt lat="37.901505" lon="14.958675"><ele>982.0</ele><time>2026-04-28T09:10:18.202Z</time></trkpt><trkpt lat="37.9016467" lon="14.9587867"><ele>982.0</ele><time>2026-04-28T09:10:19.202Z</time></trkpt><trkpt lat="37.90181" lon="14.95888"><ele>982.0</ele><time>2026-04-28T09:10:20.202Z</time></trkpt><trkpt lat="37.901995" lon="14.9589517"><ele>981.0</ele><time>2026-04-28T09:10:21.202Z</time></trkpt><trkpt lat="37.9021883" lon="14.959015"><ele>980.0</ele><time>2026-04-28T09:10:22.202Z</time></trkpt><trkpt lat="37.9023783" lon="14.9590767"><ele>979.0</ele><time>2026-04-28T09:10:23.202Z</time></trkpt><trkpt lat="37.9025583" lon="14.9591567"><ele>977.3333333333333</ele><time>2026-04-28T09:10:24.203Z</time></trkpt><trkpt lat="37.90273" lon="14.959265"><ele>975.6666666666667</ele><time>2026-04-28T09:10:25.202Z</time></trkpt><trkpt lat="37.9028883" lon="14.9593883"><ele>974.0</ele><time>2026-04-28T09:10:26.202Z</time></trkpt><trkpt lat="37.9030367" lon="14.9595267"><ele>974.0</ele><time>2026-04-28T09:10:27.202Z</time></trkpt><trkpt lat="37.90317" lon="14.95967"><ele>974.0</ele><time>2026-04-28T09:10:28.202Z</time></trkpt><trkpt lat="37.9032883" lon="14.9598267"><ele>974.0</ele><time>2026-04-28T09:10:29.202Z</time></trkpt><trkpt lat="37.9033867" lon="14.959995"><ele>975.6666666666667</ele><time>2026-04-28T09:10:30.202Z</time></trkpt><trkpt lat="37.9034633" lon="14.9601717"><ele>977.3333333333333</ele><time>2026-04-28T09:10:31.202Z</time></trkpt><trkpt lat="37.9035133" lon="14.9603633"><ele>979.0</ele><time>2026-04-28T09:10:32.203Z</time></trkpt><trkpt lat="37.90355" lon="14.960545"><ele>979.0</ele><time>2026-04-28T09:10:33.202Z</time></trkpt><trkpt lat="37.9035683" lon="14.96073"><ele>979.0</ele><time>2026-04-28T09:10:34.202Z</time></trkpt><trkpt lat="37.9036217" lon="14.960885"><ele>979.0</ele><time>2026-04-28T09:10:35.203Z</time></trkpt><trkpt lat="37.9037183" lon="14.9610083"><ele>979.0</ele><time>2026-04-28T09:10:36.202Z</time></trkpt><trkpt lat="37.9038483" lon="14.961125"><ele>978.6666666666666</ele><time>2026-04-28T09:10:37.203Z</time></trkpt><trkpt lat="37.904" lon="14.9612417"><ele>978.3333333333333</ele><time>2026-04-28T09:10:38.202Z</time></trkpt><trkpt lat="37.9041567" lon="14.9613633"><ele>978.0</ele><time>2026-04-28T09:10:39.202Z</time></trkpt><trkpt lat="37.9043267" lon="14.961485"><ele>978.0</ele><time>2026-04-28T09:10:40.202Z</time></trkpt><trkpt lat="37.9044917" lon="14.9616"><ele>978.0</ele><time>2026-04-28T09:10:41.203Z</time></trkpt><trkpt lat="37.9046467" lon="14.9617367"><ele>978.0</ele><time>2026-04-28T09:10:42.202Z</time></trkpt><trkpt lat="37.9047833" lon="14.96188"><ele>975.0</ele><time>2026-04-28T09:10:43.202Z</time></trkpt><trkpt lat="37.9049217" lon="14.9619983"><ele>972.0</ele><time>2026-04-28T09:10:44.203Z</time></trkpt><trkpt lat="37.905075" lon="14.9620867"><ele>969.0</ele><time>2026-04-28T09:10:45.203Z</time></trkpt><trkpt lat="37.9052383" lon="14.962135"><ele>969.0</ele><time>2026-04-28T09:10:46.202Z</time></trkpt><trkpt lat="37.9054133" lon="14.9621483"><ele>969.0</ele><time>2026-04-28T09:10:47.202Z</time></trkpt><trkpt lat="37.9055767" lon="14.9621567"><ele>969.0</ele><time>2026-04-28T09:10:48.202Z</time></trkpt><trkpt lat="37.9057233" lon="14.9621617"><ele>969.0</ele><time>2026-04-28T09:10:49.202Z</time></trkpt><trkpt lat="37.9058733" lon="14.96219"><ele>969.0</ele><time>2026-04-28T09:10:50.202Z</time></trkpt><trkpt lat="37.9060167" lon="14.96225"><ele>969.0</ele><time>2026-04-28T09:10:51.202Z</time></trkpt><trkpt lat="37.90616" lon="14.96234"><ele>970.0</ele><time>2026-04-28T09:10:52.203Z</time></trkpt><trkpt lat="37.9062883" lon="14.9624783"><ele>971.0</ele><time>2026-04-28T09:10:53.202Z</time></trkpt><trkpt lat="37.9064017" lon="14.9626533"><ele>972.0</ele><time>2026-04-28T09:10:54.202Z</time></trkpt><trkpt lat="37.9064867" lon="14.9628483"><ele>972.0</ele><time>2026-04-28T09:10:55.202Z</time></trkpt><trkpt lat="37.9065783" lon="14.9630583"><ele>972.0</ele><time>2026-04-28T09:10:56.202Z</time></trkpt><trkpt lat="37.9066733" lon="14.9632817"><ele>972.0</ele><time>2026-04-28T09:10:57.202Z</time></trkpt><trkpt lat="37.906765" lon="14.96349"><ele>973.0</ele><time>2026-04-28T09:10:58.202Z</time></trkpt><trkpt lat="37.906855" lon="14.9636833"><ele>974.0</ele><time>2026-04-28T09:10:59.202Z</time></trkpt><trkpt lat="37.9069333" lon="14.9638617"><ele>975.0</ele><time>2026-04-28T09:11:00.202Z</time></trkpt><trkpt lat="37.907015" lon="14.9640117"><ele>975.0</ele><time>2026-04-28T09:11:01.202Z</time></trkpt><trkpt lat="37.9071333" lon="14.96412"><ele>975.0</ele><time>2026-04-28T09:11:02.202Z</time></trkpt><trkpt lat="37.9072717" lon="14.9642"><ele>975.0</ele><time>2026-04-28T09:11:03.202Z</time></trkpt><trkpt lat="37.9074233" lon="14.9642333"><ele>971.0</ele><time>2026-04-28T09:11:04.202Z</time></trkpt><trkpt lat="37.90759" lon="14.9642317"><ele>967.0</ele><time>2026-04-28T09:11:05.202Z</time></trkpt><trkpt lat="37.9077717" lon="14.9642267"><ele>963.0</ele><time>2026-04-28T09:11:06.203Z</time></trkpt><trkpt lat="37.9079517" lon="14.96422"><ele>963.0</ele><time>2026-04-28T09:11:07.202Z</time></trkpt><trkpt lat="37.9081267" lon="14.964215"><ele>963.0</ele><time>2026-04-28T09:11:08.202Z</time></trkpt><trkpt lat="37.9082883" lon="14.96421"><ele>963.0</ele><time>2026-04-28T09:11:09.203Z</time></trkpt><trkpt lat="37.908445" lon="14.964175"><ele>968.6666666666667</ele><time>2026-04-28T09:11:10.202Z</time></trkpt><trkpt lat="37.9085917" lon="14.9640917"><ele>974.3333333333334</ele><time>2026-04-28T09:11:11.203Z</time></trkpt><trkpt lat="37.9087483" lon="14.9639833"><ele>980.0</ele><time>2026-04-28T09:11:12.202Z</time></trkpt><trkpt lat="37.9089083" lon="14.9638717"><ele>980.0</ele><time>2026-04-28T09:11:13.202Z</time></trkpt><trkpt lat="37.9090617" lon="14.9637583"><ele>980.0</ele><time>2026-04-28T09:11:14.203Z</time></trkpt><trkpt lat="37.9092117" lon="14.963655"><ele>980.0</ele><time>2026-04-28T09:11:15.202Z</time></trkpt><trkpt lat="37.90936" lon="14.9635783"><ele>980.3333333333334</ele><time>2026-04-28T09:11:16.203Z</time></trkpt><trkpt lat="37.9095017" lon="14.9635533"><ele>980.6666666666667</ele><time>2026-04-28T09:11:17.202Z</time></trkpt><trkpt lat="37.9096567" lon="14.9635533"><ele>981.0</ele><time>2026-04-28T09:11:18.202Z</time></trkpt><trkpt lat="37.9098133" lon="14.9635783"><ele>981.0</ele><time>2026-04-28T09:11:19.202Z</time></trkpt><trkpt lat="37.909975" lon="14.9636333"><ele>981.0</ele><time>2026-04-28T09:11:20.203Z</time></trkpt><trkpt lat="37.9101367" lon="14.9636883"><ele>981.0</ele><time>2026-04-28T09:11:21.202Z</time></trkpt><trkpt lat="37.910295" lon="14.9637433"><ele>985.6666666666667</ele><time>2026-04-28T09:11:22.202Z</time></trkpt><trkpt lat="37.9104617" lon="14.96379"><ele>990.3333333333334</ele><time>2026-04-28T09:11:23.202Z</time></trkpt><trkpt lat="37.910635" lon="14.9638467"><ele>995.0</ele><time>2026-04-28T09:11:24.202Z</time></trkpt><trkpt lat="37.9107933" lon="14.9639083"><ele>996.3333333333334</ele><time>2026-04-28T09:11:25.202Z</time></trkpt><trkpt lat="37.910935" lon="14.9640133"><ele>997.6666666666667</ele><time>2026-04-28T09:11:26.203Z</time></trkpt><trkpt lat="37.91105" lon="14.9641517"><ele>999.0</ele><time>2026-04-28T09:11:27.202Z</time></trkpt><trkpt lat="37.9111583" lon="14.9643033"><ele>999.0</ele><time>2026-04-28T09:11:28.202Z</time></trkpt><trkpt lat="37.91128" lon="14.9644383"><ele>999.0</ele><time>2026-04-28T09:11:29.203Z</time></trkpt><trkpt lat="37.9114083" lon="14.9645567"><ele>999.0</ele><time>2026-04-28T09:11:30.202Z</time></trkpt><trkpt lat="37.91153" lon="14.964645"><ele>999.0</ele><time>2026-04-28T09:11:31.202Z</time></trkpt><trkpt lat="37.9116483" lon="14.9647017"><ele>999.0</ele><time>2026-04-28T09:11:32.202Z</time></trkpt><trkpt lat="37.9117667" lon="14.9646983"><ele>999.0</ele><time>2026-04-28T09:11:33.202Z</time></trkpt><trkpt lat="37.91189" lon="14.9646517"><ele>999.0</ele><time>2026-04-28T09:11:34.202Z</time></trkpt><trkpt lat="37.9120233" lon="14.9645967"><ele>1000.6666666666667</ele><time>2026-04-28T09:11:35.203Z</time></trkpt><trkpt lat="37.91217" lon="14.9645567"><ele>1002.3333333333334</ele><time>2026-04-28T09:11:36.202Z</time></trkpt><trkpt lat="37.9123183" lon="14.9645267"><ele>1004.0</ele><time>2026-04-28T09:11:37.202Z</time></trkpt><trkpt lat="37.91247" lon="14.964535"><ele>1006.75</ele><time>2026-04-28T09:11:38.202Z</time></trkpt><trkpt lat="37.9126233" lon="14.96458"><ele>1009.5</ele><time>2026-04-28T09:11:39.202Z</time></trkpt><trkpt lat="37.912755" lon="14.964665"><ele>1012.25</ele><time>2026-04-28T09:11:40.202Z</time></trkpt><trkpt lat="37.9128617" lon="14.964755"><ele>1015.0</ele><time>2026-04-28T09:11:41.202Z</time></trkpt><trkpt lat="37.91297" lon="14.9648183"><ele>1015.0</ele><time>2026-04-28T09:11:42.202Z</time></trkpt><trkpt lat="37.913085" lon="14.9648417"><ele>1015.0</ele><time>2026-04-28T09:11:43.202Z</time></trkpt><trkpt lat="37.9132033" lon="14.96483"><ele>1015.0</ele><time>2026-04-28T09:11:44.202Z</time></trkpt><trkpt lat="37.9133183" lon="14.9647933"><ele>1015.0</ele><time>2026-04-28T09:11:45.202Z</time></trkpt><trkpt lat="37.913435" lon="14.9647283"><ele>1015.0</ele><time>2026-04-28T09:11:46.202Z</time></trkpt><trkpt lat="37.913555" lon="14.964665"><ele>1015.0</ele><time>2026-04-28T09:11:47.202Z</time></trkpt><trkpt lat="37.9136717" lon="14.9646133"><ele>1015.0</ele><time>2026-04-28T09:11:48.202Z</time></trkpt><trkpt lat="37.9137933" lon="14.964555"><ele>1015.0</ele><time>2026-04-28T09:11:49.202Z</time></trkpt><trkpt lat="37.9139133" lon="14.964485"><ele>1015.0</ele><time>2026-04-28T09:11:50.202Z</time></trkpt><trkpt lat="37.9140367" lon="14.964425"><ele>1015.0</ele><time>2026-04-28T09:11:51.202Z</time></trkpt><trkpt lat="37.9141533" lon="14.9643583"><ele>1015.0</ele><time>2026-04-28T09:11:52.202Z</time></trkpt><trkpt lat="37.9142817" lon="14.9642933"><ele>1015.0</ele><time>2026-04-28T09:11:53.202Z</time></trkpt><trkpt lat="37.9144033" lon="14.964215"><ele>1017.6666666666666</ele><time>2026-04-28T09:11:54.202Z</time></trkpt><trkpt lat="37.9145233" lon="14.964135"><ele>1020.3333333333333</ele><time>2026-04-28T09:11:55.203Z</time></trkpt><trkpt lat="37.9146517" lon="14.9640267"><ele>1023.0</ele><time>2026-04-28T09:11:56.202Z</time></trkpt><trkpt lat="37.9147767" lon="14.9639"><ele>1023.0</ele><time>2026-04-28T09:11:57.202Z</time></trkpt><trkpt lat="37.9149017" lon="14.9637967"><ele>1023.0</ele><time>2026-04-28T09:11:58.203Z</time></trkpt><trkpt lat="37.9150033" lon="14.9637017"><ele>1023.0</ele><time>2026-04-28T09:11:59.203Z</time></trkpt><trkpt lat="37.9151017" lon="14.9635933"><ele>1023.0</ele><time>2026-04-28T09:12:00.202Z</time></trkpt><trkpt lat="37.9152017" lon="14.963505"><ele>1022.5999999999999</ele><time>2026-04-28T09:12:01.202Z</time></trkpt><trkpt lat="37.9152933" lon="14.9634283"><ele>1022.1999999999999</ele><time>2026-04-28T09:12:02.203Z</time></trkpt><trkpt lat="37.9153867" lon="14.9633617"><ele>1021.8</ele><time>2026-04-28T09:12:03.202Z</time></trkpt><trkpt lat="37.91549" lon="14.963315"><ele>1021.4</ele><time>2026-04-28T09:12:04.202Z</time></trkpt><trkpt lat="37.9155883" lon="14.9632783"><ele>1021.0</ele><time>2026-04-28T09:12:05.202Z</time></trkpt><trkpt lat="37.915695" lon="14.9632517"><ele>1023.25</ele><time>2026-04-28T09:12:06.202Z</time></trkpt><trkpt lat="37.9158083" lon="14.96323"><ele>1025.5</ele><time>2026-04-28T09:12:07.202Z</time></trkpt><trkpt lat="37.9159183" lon="14.9632017"><ele>1027.75</ele><time>2026-04-28T09:12:08.203Z</time></trkpt><trkpt lat="37.9160317" lon="14.96316"><ele>1030.0</ele><time>2026-04-28T09:12:09.203Z</time></trkpt><trkpt lat="37.916145" lon="14.963125"><ele>1030.0</ele><time>2026-04-28T09:12:10.203Z</time></trkpt><trkpt lat="37.91626" lon="14.9630933"><ele>1030.0</ele><time>2026-04-28T09:12:11.202Z</time></trkpt><trkpt lat="37.91637" lon="14.9630517"><ele>1030.0</ele><time>2026-04-28T09:12:12.202Z</time></trkpt><trkpt lat="37.9164633" lon="14.9630233"><ele>1030.0</ele><time>2026-04-28T09:12:13.202Z</time></trkpt><trkpt lat="37.91655" lon="14.9629983"><ele>1030.0</ele><time>2026-04-28T09:12:14.202Z</time></trkpt><trkpt lat="37.9166283" lon="14.962965"><ele>1030.0</ele><time>2026-04-28T09:12:15.202Z</time></trkpt><trkpt lat="37.916715" lon="14.9629183"><ele>1030.0</ele><time>2026-04-28T09:12:16.202Z</time></trkpt><trkpt lat="37.916835" lon="14.9628467"><ele>1030.0</ele><time>2026-04-28T09:12:17.202Z</time></trkpt><trkpt lat="37.9169783" lon="14.9627567"><ele>1030.0</ele><time>2026-04-28T09:12:18.202Z</time></trkpt><trkpt lat="37.9171317" lon="14.962685"><ele>1028.0</ele><time>2026-04-28T09:12:19.203Z</time></trkpt><trkpt lat="37.9172967" lon="14.9626133"><ele>1026.0</ele><time>2026-04-28T09:12:20.202Z</time></trkpt><trkpt lat="37.917455" lon="14.9625483"><ele>1024.0</ele><time>2026-04-28T09:12:21.202Z</time></trkpt><trkpt lat="37.9176133" lon="14.9624917"><ele>1024.0</ele><time>2026-04-28T09:12:22.202Z</time></trkpt><trkpt lat="37.9177717" lon="14.9624467"><ele>1024.0</ele><time>2026-04-28T09:12:23.202Z</time></trkpt><trkpt lat="37.9179133" lon="14.9624033"><ele>1024.0</ele><time>2026-04-28T09:12:24.202Z</time></trkpt><trkpt lat="37.9180533" lon="14.9623667"><ele>1024.0</ele><time>2026-04-28T09:12:25.203Z</time></trkpt><trkpt lat="37.9181883" lon="14.96233"><ele>1024.0</ele><time>2026-04-28T09:12:26.202Z</time></trkpt><trkpt lat="37.9183117" lon="14.9623217"><ele>1024.0</ele><time>2026-04-28T09:12:27.202Z</time></trkpt><trkpt lat="37.918445" lon="14.9623267"><ele>1024.0</ele><time>2026-04-28T09:12:28.202Z</time></trkpt><trkpt lat="37.9185833" lon="14.96233"><ele>1024.5</ele><time>2026-04-28T09:12:29.202Z</time></trkpt><trkpt lat="37.9187267" lon="14.9623467"><ele>1025.0</ele><time>2026-04-28T09:12:30.202Z</time></trkpt><trkpt lat="37.91887" lon="14.9623717"><ele>1025.5</ele><time>2026-04-28T09:12:31.202Z</time></trkpt><trkpt lat="37.9190083" lon="14.962405"><ele>1026.0</ele><time>2026-04-28T09:12:32.202Z</time></trkpt><trkpt lat="37.9191433" lon="14.962425"><ele>1026.25</ele><time>2026-04-28T09:12:33.202Z</time></trkpt><trkpt lat="37.91928" lon="14.9624233"><ele>1026.5</ele><time>2026-04-28T09:12:34.202Z</time></trkpt><trkpt lat="37.919425" lon="14.962385"><ele>1026.75</ele><time>2026-04-28T09:12:35.202Z</time></trkpt><trkpt lat="37.9195583" lon="14.9623383"><ele>1027.0</ele><time>2026-04-28T09:12:36.202Z</time></trkpt><trkpt lat="37.9196917" lon="14.9622833"><ele>1027.0</ele><time>2026-04-28T09:12:37.202Z</time></trkpt><trkpt lat="37.919815" lon="14.9622333"><ele>1027.0</ele><time>2026-04-28T09:12:38.202Z</time></trkpt><trkpt lat="37.9199333" lon="14.96219"><ele>1027.0</ele><time>2026-04-28T09:12:39.202Z</time></trkpt><trkpt lat="37.9200533" lon="14.9621417"><ele>1027.0</ele><time>2026-04-28T09:12:40.203Z</time></trkpt><trkpt lat="37.9201567" lon="14.96206"><ele>1026.0</ele><time>2026-04-28T09:12:41.202Z</time></trkpt><trkpt lat="37.9202533" lon="14.96194"><ele>1025.0</ele><time>2026-04-28T09:12:42.202Z</time></trkpt><trkpt lat="37.92034" lon="14.9617967"><ele>1024.0</ele><time>2026-04-28T09:12:43.202Z</time></trkpt><trkpt lat="37.920425" lon="14.961635"><ele>1023.0</ele><time>2026-04-28T09:12:44.202Z</time></trkpt><trkpt lat="37.92053" lon="14.961495"><ele>1027.3333333333333</ele><time>2026-04-28T09:12:45.202Z</time></trkpt><trkpt lat="37.920645" lon="14.96137"><ele>1031.6666666666665</ele><time>2026-04-28T09:12:46.202Z</time></trkpt><trkpt lat="37.9207767" lon="14.96126"><ele>1036.0</ele><time>2026-04-28T09:12:47.202Z</time></trkpt><trkpt lat="37.92092" lon="14.9611417"><ele>1036.0</ele><time>2026-04-28T09:12:48.202Z</time></trkpt><trkpt lat="37.9210767" lon="14.96102"><ele>1036.0</ele><time>2026-04-28T09:12:49.202Z</time></trkpt><trkpt lat="37.921235" lon="14.9608883"><ele>1036.0</ele><time>2026-04-28T09:12:50.202Z</time></trkpt><trkpt lat="37.9213917" lon="14.9607667"><ele>1037.6666666666665</ele><time>2026-04-28T09:12:51.202Z</time></trkpt><trkpt lat="37.9215317" lon="14.9606567"><ele>1039.3333333333333</ele><time>2026-04-28T09:12:52.202Z</time></trkpt><trkpt lat="37.9216717" lon="14.9605417"><ele>1041.0</ele><time>2026-04-28T09:12:53.202Z</time></trkpt><trkpt lat="37.92182" lon="14.9604217"><ele>1041.0</ele><time>2026-04-28T09:12:54.203Z</time></trkpt><trkpt lat="37.9219517" lon="14.960295"><ele>1041.0</ele><time>2026-04-28T09:12:55.202Z</time></trkpt><trkpt lat="37.9220683" lon="14.960155"><ele>1041.0</ele><time>2026-04-28T09:12:56.202Z</time></trkpt><trkpt lat="37.92218" lon="14.96001"><ele>1042.75</ele><time>2026-04-28T09:12:57.202Z</time></trkpt><trkpt lat="37.92227" lon="14.95988"><ele>1044.5</ele><time>2026-04-28T09:12:58.202Z</time></trkpt><trkpt lat="37.92235" lon="14.959755"><ele>1046.25</ele><time>2026-04-28T09:12:59.202Z</time></trkpt><trkpt lat="37.922395" lon="14.95961"><ele>1048.0</ele><time>2026-04-28T09:13:00.202Z</time></trkpt><trkpt lat="37.9223917" lon="14.9594617"><ele>1048.0</ele><time>2026-04-28T09:13:01.202Z</time></trkpt><trkpt lat="37.9223233" lon="14.9593283"><ele>1048.0</ele><time>2026-04-28T09:13:02.203Z</time></trkpt><trkpt lat="37.9222267" lon="14.9592433"><ele>1048.0</ele><time>2026-04-28T09:13:03.202Z</time></trkpt><trkpt lat="37.9221133" lon="14.9592167"><ele>1048.0</ele><time>2026-04-28T09:13:04.203Z</time></trkpt><trkpt lat="37.9219917" lon="14.959255"><ele>1048.0</ele><time>2026-04-28T09:13:05.202Z</time></trkpt><trkpt lat="37.9218933" lon="14.9593317"><ele>1048.0</ele><time>2026-04-28T09:13:06.202Z</time></trkpt><trkpt lat="37.9218317" lon="14.9593967"><ele>1048.0</ele><time>2026-04-28T09:13:07.203Z</time></trkpt><trkpt lat="37.9217767" lon="14.95945"><ele>1048.0</ele><time>2026-04-28T09:13:09.202Z</time></trkpt><trkpt lat="37.9216967" lon="14.95953"><ele>1048.0</ele><time>2026-04-28T09:14:03.202Z</time></trkpt><trkpt lat="37.9216367" lon="14.9595983"><ele>1048.0</ele><time>2026-04-28T09:14:04.202Z</time></trkpt><trkpt lat="37.92156" lon="14.9596883"><ele>1049.0</ele><time>2026-04-28T09:14:05.202Z</time></trkpt><trkpt lat="37.9214783" lon="14.959805"><ele>1050.0</ele><time>2026-04-28T09:14:06.202Z</time></trkpt><trkpt lat="37.9213867" lon="14.959925"><ele>1051.0</ele><time>2026-04-28T09:14:07.202Z</time></trkpt><trkpt lat="37.9212983" lon="14.960035"><ele>1052.0</ele><time>2026-04-28T09:14:08.202Z</time></trkpt><trkpt lat="37.92122" lon="14.9601267"><ele>1051.4</ele><time>2026-04-28T09:14:09.202Z</time></trkpt><trkpt lat="37.92114" lon="14.9602"><ele>1050.8000000000002</ele><time>2026-04-28T09:14:10.203Z</time></trkpt><trkpt lat="37.9210433" lon="14.960225"><ele>1050.2</ele><time>2026-04-28T09:14:11.202Z</time></trkpt><trkpt lat="37.920955" lon="14.9602117"><ele>1049.6000000000001</ele><time>2026-04-28T09:14:12.202Z</time></trkpt><trkpt lat="37.9208767" lon="14.9601467"><ele>1049.0</ele><time>2026-04-28T09:14:13.203Z</time></trkpt><trkpt lat="37.9208117" lon="14.96004"><ele>1049.6000000000001</ele><time>2026-04-28T09:14:14.202Z</time></trkpt><trkpt lat="37.9207833" lon="14.9599133"><ele>1050.2</ele><time>2026-04-28T09:14:15.202Z</time></trkpt><trkpt lat="37.9207983" lon="14.9597767"><ele>1050.8000000000002</ele><time>2026-04-28T09:14:16.202Z</time></trkpt><trkpt lat="37.9208467" lon="14.9596633"><ele>1051.4</ele><time>2026-04-28T09:14:17.202Z</time></trkpt><trkpt lat="37.9209233" lon="14.9595483"><ele>1052.0</ele><time>2026-04-28T09:14:18.202Z</time></trkpt><trkpt lat="37.9210217" lon="14.9594"><ele>1052.0</ele><time>2026-04-28T09:14:19.202Z</time></trkpt><trkpt lat="37.9211533" lon="14.9592367"><ele>1052.0</ele><time>2026-04-28T09:14:20.203Z</time></trkpt><trkpt lat="37.9213133" lon="14.9590467"><ele>1052.0</ele><time>2026-04-28T09:14:21.202Z</time></trkpt><trkpt lat="37.921485" lon="14.9588267"><ele>1052.6666666666667</ele><time>2026-04-28T09:14:22.202Z</time></trkpt><trkpt lat="37.9216383" lon="14.9586183"><ele>1053.3333333333333</ele><time>2026-04-28T09:14:23.202Z</time></trkpt><trkpt lat="37.92178" lon="14.9584483"><ele>1054.0</ele><time>2026-04-28T09:14:24.202Z</time></trkpt><trkpt lat="37.9219233" lon="14.9583017"><ele>1059.3333333333333</ele><time>2026-04-28T09:14:25.202Z</time></trkpt><trkpt lat="37.9220533" lon="14.9581717"><ele>1064.6666666666667</ele><time>2026-04-28T09:14:26.202Z</time></trkpt><trkpt lat="37.9221767" lon="14.95805"><ele>1070.0</ele><time>2026-04-28T09:14:27.203Z</time></trkpt><trkpt lat="37.922295" lon="14.957945"><ele>1070.0</ele><time>2026-04-28T09:14:28.202Z</time></trkpt><trkpt lat="37.922415" lon="14.95787"><ele>1070.0</ele><time>2026-04-28T09:14:29.202Z</time></trkpt><trkpt lat="37.92255" lon="14.9578333"><ele>1070.0</ele><time>2026-04-28T09:14:30.202Z</time></trkpt><trkpt lat="37.9227083" lon="14.957825"><ele>1070.0</ele><time>2026-04-28T09:14:31.202Z</time></trkpt><trkpt lat="37.922875" lon="14.957825"><ele>1070.75</ele><time>2026-04-28T09:14:32.202Z</time></trkpt><trkpt lat="37.9230317" lon="14.9578267"><ele>1071.5</ele><time>2026-04-28T09:14:33.202Z</time></trkpt><trkpt lat="37.923175" lon="14.95782"><ele>1072.25</ele><time>2026-04-28T09:14:34.202Z</time></trkpt><trkpt lat="37.923315" lon="14.957815"><ele>1073.0</ele><time>2026-04-28T09:14:35.202Z</time></trkpt><trkpt lat="37.9234433" lon="14.9578133"><ele>1076.25</ele><time>2026-04-28T09:14:36.202Z</time></trkpt><trkpt lat="37.92358" lon="14.9578217"><ele>1079.5</ele><time>2026-04-28T09:14:37.202Z</time></trkpt><trkpt lat="37.923715" lon="14.9578333"><ele>1082.75</ele><time>2026-04-28T09:14:38.202Z</time></trkpt><trkpt lat="37.9238383" lon="14.95786"><ele>1086.0</ele><time>2026-04-28T09:14:39.202Z</time></trkpt><trkpt lat="37.9239633" lon="14.95792"><ele>1086.0</ele><time>2026-04-28T09:14:40.202Z</time></trkpt><trkpt lat="37.9240867" lon="14.9580067"><ele>1086.0</ele><time>2026-04-28T09:14:41.202Z</time></trkpt><trkpt lat="37.9241933" lon="14.9581083"><ele>1086.0</ele><time>2026-04-28T09:14:42.202Z</time></trkpt><trkpt lat="37.9242983" lon="14.9582183"><ele>1086.0</ele><time>2026-04-28T09:14:43.202Z</time></trkpt><trkpt lat="37.9243967" lon="14.958335"><ele>1086.25</ele><time>2026-04-28T09:14:44.202Z</time></trkpt><trkpt lat="37.9245033" lon="14.9584417"><ele>1086.5</ele><time>2026-04-28T09:14:45.202Z</time></trkpt><trkpt lat="37.9246067" lon="14.95854"><ele>1086.75</ele><time>2026-04-28T09:14:46.202Z</time></trkpt><trkpt lat="37.9247233" lon="14.9586283"><ele>1087.0</ele><time>2026-04-28T09:14:47.202Z</time></trkpt><trkpt lat="37.924845" lon="14.9587083"><ele>1087.0</ele><time>2026-04-28T09:14:48.202Z</time></trkpt><trkpt lat="37.9249733" lon="14.958775"><ele>1087.0</ele><time>2026-04-28T09:14:49.202Z</time></trkpt><trkpt lat="37.9251033" lon="14.9588433"><ele>1087.0</ele><time>2026-04-28T09:14:50.203Z</time></trkpt><trkpt lat="37.9252267" lon="14.9589133"><ele>1087.0</ele><time>2026-04-28T09:14:51.202Z</time></trkpt><trkpt lat="37.925355" lon="14.95897"><ele>1090.25</ele><time>2026-04-28T09:14:52.202Z</time></trkpt><trkpt lat="37.925485" lon="14.9589933"><ele>1093.5</ele><time>2026-04-28T09:14:53.202Z</time></trkpt><trkpt lat="37.92561" lon="14.9589967"><ele>1096.75</ele><time>2026-04-28T09:14:54.202Z</time></trkpt><trkpt lat="37.9257267" lon="14.9590133"><ele>1100.0</ele><time>2026-04-28T09:14:55.202Z</time></trkpt><trkpt lat="37.9258283" lon="14.9590633"><ele>1101.6666666666667</ele><time>2026-04-28T09:14:56.203Z</time></trkpt><trkpt lat="37.925905" lon="14.9591417"><ele>1103.3333333333335</ele><time>2026-04-28T09:14:57.202Z</time></trkpt><trkpt lat="37.9259617" lon="14.9592367"><ele>1105.0</ele><time>2026-04-28T09:14:58.202Z</time></trkpt><trkpt lat="37.92601" lon="14.9593317"><ele>1106.6666666666667</ele><time>2026-04-28T09:14:59.202Z</time></trkpt><trkpt lat="37.92607" lon="14.9594"><ele>1108.3333333333333</ele><time>2026-04-28T09:15:00.202Z</time></trkpt><trkpt lat="37.92615" lon="14.9594267"><ele>1110.0</ele><time>2026-04-28T09:15:01.203Z</time></trkpt><trkpt lat="37.92624" lon="14.959415"><ele>1110.0</ele><time>2026-04-28T09:15:02.202Z</time></trkpt><trkpt lat="37.926325" lon="14.9593667"><ele>1110.0</ele><time>2026-04-28T09:15:03.202Z</time></trkpt><trkpt lat="37.926405" lon="14.9592833"><ele>1110.0</ele><time>2026-04-28T09:15:04.202Z</time></trkpt><trkpt lat="37.9264967" lon="14.9591833"><ele>1110.0</ele><time>2026-04-28T09:15:05.202Z</time></trkpt><trkpt lat="37.9265867" lon="14.9590767"><ele>1110.0</ele><time>2026-04-28T09:15:06.202Z</time></trkpt><trkpt lat="37.9266867" lon="14.9589683"><ele>1107.5</ele><time>2026-04-28T09:15:07.202Z</time></trkpt><trkpt lat="37.926795" lon="14.9588733"><ele>1105.0</ele><time>2026-04-28T09:15:08.202Z</time></trkpt><trkpt lat="37.9269" lon="14.9587983"><ele>1102.5</ele><time>2026-04-28T09:15:09.202Z</time></trkpt><trkpt lat="37.9270033" lon="14.9587233"><ele>1100.0</ele><time>2026-04-28T09:15:10.202Z</time></trkpt><trkpt lat="37.9271033" lon="14.958665"><ele>1100.0</ele><time>2026-04-28T09:15:11.202Z</time></trkpt><trkpt lat="37.9272" lon="14.9586183"><ele>1100.0</ele><time>2026-04-28T09:15:12.202Z</time></trkpt><trkpt lat="37.927295" lon="14.9586"><ele>1100.0</ele><time>2026-04-28T09:15:13.203Z</time></trkpt><trkpt lat="37.9273817" lon="14.9585767"><ele>1100.0</ele><time>2026-04-28T09:15:14.202Z</time></trkpt><trkpt lat="37.92748" lon="14.9586217"><ele>1100.0</ele><time>2026-04-28T09:15:15.202Z</time></trkpt><trkpt lat="37.9275767" lon="14.9586783"><ele>1097.8</ele><time>2026-04-28T09:15:16.202Z</time></trkpt><trkpt lat="37.9276717" lon="14.9587317"><ele>1095.6</ele><time>2026-04-28T09:15:17.202Z</time></trkpt><trkpt lat="37.9277683" lon="14.9587783"><ele>1093.4</ele><time>2026-04-28T09:15:18.203Z</time></trkpt><trkpt lat="37.9278617" lon="14.9588"><ele>1091.2</ele><time>2026-04-28T09:15:19.202Z</time></trkpt><trkpt lat="37.9279567" lon="14.958785"><ele>1089.0</ele><time>2026-04-28T09:15:20.202Z</time></trkpt><trkpt lat="37.9280533" lon="14.9587183"><ele>1089.0</ele><time>2026-04-28T09:15:21.202Z</time></trkpt><trkpt lat="37.92814" lon="14.9586083"><ele>1089.0</ele><time>2026-04-28T09:15:22.202Z</time></trkpt><trkpt lat="37.928235" lon="14.9584467"><ele>1089.0</ele><time>2026-04-28T09:15:23.202Z</time></trkpt><trkpt lat="37.92835" lon="14.9582533"><ele>1092.0</ele><time>2026-04-28T09:15:24.202Z</time></trkpt><trkpt lat="37.92849" lon="14.958055"><ele>1095.0</ele><time>2026-04-28T09:15:25.203Z</time></trkpt><trkpt lat="37.9286567" lon="14.957855"><ele>1098.0</ele><time>2026-04-28T09:15:26.202Z</time></trkpt><trkpt lat="37.9288383" lon="14.957665"><ele>1097.3333333333333</ele><time>2026-04-28T09:15:27.202Z</time></trkpt><trkpt lat="37.9290083" lon="14.9575133"><ele>1096.6666666666665</ele><time>2026-04-28T09:15:28.202Z</time></trkpt><trkpt lat="37.9291583" lon="14.95738"><ele>1096.0</ele><time>2026-04-28T09:15:29.202Z</time></trkpt><trkpt lat="37.929295" lon="14.9572467"><ele>1096.0</ele><time>2026-04-28T09:15:30.203Z</time></trkpt><trkpt lat="37.9294033" lon="14.9570883"><ele>1096.0</ele><time>2026-04-28T09:15:31.202Z</time></trkpt><trkpt lat="37.9294633" lon="14.9569167"><ele>1096.0</ele><time>2026-04-28T09:15:32.202Z</time></trkpt><trkpt lat="37.92949" lon="14.9567317"><ele>1103.3333333333333</ele><time>2026-04-28T09:15:33.202Z</time></trkpt><trkpt lat="37.929535" lon="14.9565367"><ele>1110.6666666666667</ele><time>2026-04-28T09:15:34.202Z</time></trkpt><trkpt lat="37.9296067" lon="14.9563667"><ele>1118.0</ele><time>2026-04-28T09:15:35.202Z</time></trkpt><trkpt lat="37.9297083" lon="14.9562067"><ele>1118.0</ele><time>2026-04-28T09:15:36.202Z</time></trkpt><trkpt lat="37.9298183" lon="14.956055"><ele>1118.0</ele><time>2026-04-28T09:15:37.202Z</time></trkpt><trkpt lat="37.9299383" lon="14.955905"><ele>1118.0</ele><time>2026-04-28T09:15:38.202Z</time></trkpt><trkpt lat="37.9300683" lon="14.9557633"><ele>1119.6666666666667</ele><time>2026-04-28T09:15:39.202Z</time></trkpt><trkpt lat="37.9302217" lon="14.9556517"><ele>1121.3333333333333</ele><time>2026-04-28T09:15:40.202Z</time></trkpt><trkpt lat="37.9303967" lon="14.9555433"><ele>1123.0</ele><time>2026-04-28T09:15:41.202Z</time></trkpt><trkpt lat="37.9305633" lon="14.955425"><ele>1123.0</ele><time>2026-04-28T09:15:42.203Z</time></trkpt><trkpt lat="37.9307283" lon="14.9552967"><ele>1123.0</ele><time>2026-04-28T09:15:43.202Z</time></trkpt><trkpt lat="37.9308717" lon="14.95518"><ele>1123.0</ele><time>2026-04-28T09:15:44.202Z</time></trkpt><trkpt lat="37.9309967" lon="14.9550817"><ele>1126.75</ele><time>2026-04-28T09:15:45.203Z</time></trkpt><trkpt lat="37.93113" lon="14.955015"><ele>1130.5</ele><time>2026-04-28T09:15:46.202Z</time></trkpt><trkpt lat="37.93126" lon="14.95499"><ele>1134.25</ele><time>2026-04-28T09:15:47.202Z</time></trkpt><trkpt lat="37.9313867" lon="14.954995"><ele>1138.0</ele><time>2026-04-28T09:15:48.202Z</time></trkpt><trkpt lat="37.9315233" lon="14.9550133"><ele>1138.0</ele><time>2026-04-28T09:15:49.202Z</time></trkpt><trkpt lat="37.93166" lon="14.9550033"><ele>1138.0</ele><time>2026-04-28T09:15:50.202Z</time></trkpt><trkpt lat="37.9318033" lon="14.9549683"><ele>1138.0</ele><time>2026-04-28T09:15:51.202Z</time></trkpt><trkpt lat="37.931955" lon="14.9549067"><ele>1138.0</ele><time>2026-04-28T09:15:52.203Z</time></trkpt><trkpt lat="37.9321" lon="14.9548267"><ele>1135.5</ele><time>2026-04-28T09:15:53.202Z</time></trkpt><trkpt lat="37.9322383" lon="14.9547483"><ele>1133.0</ele><time>2026-04-28T09:15:54.202Z</time></trkpt><trkpt lat="37.9323567" lon="14.95468"><ele>1130.5</ele><time>2026-04-28T09:15:55.202Z</time></trkpt><trkpt lat="37.9324583" lon="14.9546"><ele>1128.0</ele><time>2026-04-28T09:15:56.202Z</time></trkpt><trkpt lat="37.9325483" lon="14.9544983"><ele>1129.3333333333333</ele><time>2026-04-28T09:15:57.202Z</time></trkpt><trkpt lat="37.932625" lon="14.95435"><ele>1130.6666666666665</ele><time>2026-04-28T09:15:58.203Z</time></trkpt><trkpt lat="37.9326967" lon="14.9541767"><ele>1132.0</ele><time>2026-04-28T09:15:59.202Z</time></trkpt><trkpt lat="37.932775" lon="14.954005"><ele>1132.0</ele><time>2026-04-28T09:16:00.202Z</time></trkpt><trkpt lat="37.9328567" lon="14.953855"><ele>1132.0</ele><time>2026-04-28T09:16:01.202Z</time></trkpt><trkpt lat="37.93294" lon="14.953725"><ele>1132.0</ele><time>2026-04-28T09:16:02.202Z</time></trkpt><trkpt lat="37.9330233" lon="14.9536067"><ele>1132.0</ele><time>2026-04-28T09:16:03.202Z</time></trkpt><trkpt lat="37.9331133" lon="14.95351"><ele>1132.0</ele><time>2026-04-28T09:16:04.202Z</time></trkpt><trkpt lat="37.9332183" lon="14.9534533"><ele>1132.0</ele><time>2026-04-28T09:16:05.202Z</time></trkpt><trkpt lat="37.933325" lon="14.95344"><ele>1132.0</ele><time>2026-04-28T09:16:06.203Z</time></trkpt><trkpt lat="37.9334183" lon="14.9534783"><ele>1132.0</ele><time>2026-04-28T09:16:07.203Z</time></trkpt><trkpt lat="37.9334833" lon="14.9535683"><ele>1132.0</ele><time>2026-04-28T09:16:08.202Z</time></trkpt><trkpt lat="37.9335" lon="14.9536917"><ele>1135.5</ele><time>2026-04-28T09:16:09.202Z</time></trkpt><trkpt lat="37.9334783" lon="14.9538383"><ele>1139.0</ele><time>2026-04-28T09:16:10.202Z</time></trkpt><trkpt lat="37.9334633" lon="14.954005"><ele>1142.5</ele><time>2026-04-28T09:16:11.202Z</time></trkpt><trkpt lat="37.9334867" lon="14.954185"><ele>1146.0</ele><time>2026-04-28T09:16:12.202Z</time></trkpt><trkpt lat="37.933545" lon="14.9543833"><ele>1146.0</ele><time>2026-04-28T09:16:13.202Z</time></trkpt><trkpt lat="37.93362" lon="14.9545683"><ele>1146.0</ele><time>2026-04-28T09:16:14.202Z</time></trkpt><trkpt lat="37.9337033" lon="14.9547483"><ele>1146.0</ele><time>2026-04-28T09:16:15.202Z</time></trkpt><trkpt lat="37.93378" lon="14.9549283"><ele>1142.3333333333333</ele><time>2026-04-28T09:16:16.203Z</time></trkpt><trkpt lat="37.9338517" lon="14.9551017"><ele>1138.6666666666665</ele><time>2026-04-28T09:16:17.202Z</time></trkpt><trkpt lat="37.93392" lon="14.9552717"><ele>1135.0</ele><time>2026-04-28T09:16:18.202Z</time></trkpt><trkpt lat="37.9339717" lon="14.95545"><ele>1135.0</ele><time>2026-04-28T09:16:19.202Z</time></trkpt><trkpt lat="37.933995" lon="14.9556417"><ele>1135.0</ele><time>2026-04-28T09:16:20.202Z</time></trkpt><trkpt lat="37.9340117" lon="14.95585"><ele>1135.0</ele><time>2026-04-28T09:16:21.202Z</time></trkpt><trkpt lat="37.934045" lon="14.9560583"><ele>1135.3333333333333</ele><time>2026-04-28T09:16:22.202Z</time></trkpt><trkpt lat="37.9340783" lon="14.95627"><ele>1135.6666666666667</ele><time>2026-04-28T09:16:23.202Z</time></trkpt><trkpt lat="37.9340983" lon="14.9564967"><ele>1136.0</ele><time>2026-04-28T09:16:24.202Z</time></trkpt><trkpt lat="37.9341" lon="14.9567117"><ele>1133.3333333333335</ele><time>2026-04-28T09:16:25.202Z</time></trkpt><trkpt lat="37.9340917" lon="14.9569133"><ele>1130.6666666666667</ele><time>2026-04-28T09:16:26.202Z</time></trkpt><trkpt lat="37.9341" lon="14.9571033"><ele>1128.0</ele><time>2026-04-28T09:16:27.202Z</time></trkpt><trkpt lat="37.9341533" lon="14.95728"><ele>1125.3333333333333</ele><time>2026-04-28T09:16:28.202Z</time></trkpt><trkpt lat="37.934255" lon="14.9574183"><ele>1122.6666666666665</ele><time>2026-04-28T09:16:29.202Z</time></trkpt><trkpt lat="37.9343867" lon="14.9575267"><ele>1120.0</ele><time>2026-04-28T09:16:30.202Z</time></trkpt><trkpt lat="37.9345467" lon="14.95763"><ele>1120.0</ele><time>2026-04-28T09:16:31.203Z</time></trkpt><trkpt lat="37.9347067" lon="14.9577333"><ele>1120.0</ele><time>2026-04-28T09:16:32.202Z</time></trkpt><trkpt lat="37.9348567" lon="14.9578433"><ele>1120.0</ele><time>2026-04-28T09:16:33.203Z</time></trkpt><trkpt lat="37.935005" lon="14.9579383"><ele>1126.3333333333333</ele><time>2026-04-28T09:16:34.202Z</time></trkpt><trkpt lat="37.93515" lon="14.9580383"><ele>1132.6666666666667</ele><time>2026-04-28T09:16:35.202Z</time></trkpt><trkpt lat="37.9353" lon="14.958095"><ele>1139.0</ele><time>2026-04-28T09:16:36.202Z</time></trkpt><trkpt lat="37.93545" lon="14.9581033"><ele>1139.0</ele><time>2026-04-28T09:16:37.203Z</time></trkpt><trkpt lat="37.935605" lon="14.9580983"><ele>1139.0</ele><time>2026-04-28T09:16:38.202Z</time></trkpt><trkpt lat="37.9357483" lon="14.9581017"><ele>1139.0</ele><time>2026-04-28T09:16:39.202Z</time></trkpt><trkpt lat="37.9358883" lon="14.9581533"><ele>1139.0</ele><time>2026-04-28T09:16:40.202Z</time></trkpt><trkpt lat="37.9360017" lon="14.958275"><ele>1138.0</ele><time>2026-04-28T09:16:41.202Z</time></trkpt><trkpt lat="37.9361083" lon="14.9584267"><ele>1137.0</ele><time>2026-04-28T09:16:42.202Z</time></trkpt><trkpt lat="37.9362333" lon="14.958595"><ele>1136.0</ele><time>2026-04-28T09:16:43.202Z</time></trkpt><trkpt lat="37.9363767" lon="14.958755"><ele>1136.0</ele><time>2026-04-28T09:16:44.202Z</time></trkpt><trkpt lat="37.93653" lon="14.9588933"><ele>1136.0</ele><time>2026-04-28T09:16:45.202Z</time></trkpt><trkpt lat="37.9366917" lon="14.9590017"><ele>1136.0</ele><time>2026-04-28T09:16:46.202Z</time></trkpt><trkpt lat="37.93685" lon="14.9590817"><ele>1138.6666666666667</ele><time>2026-04-28T09:16:47.202Z</time></trkpt><trkpt lat="37.9370067" lon="14.9591267"><ele>1141.3333333333333</ele><time>2026-04-28T09:16:48.202Z</time></trkpt><trkpt lat="37.937175" lon="14.95914"><ele>1144.0</ele><time>2026-04-28T09:16:49.202Z</time></trkpt><trkpt lat="37.9373483" lon="14.9591383"><ele>1144.0</ele><time>2026-04-28T09:16:50.202Z</time></trkpt><trkpt lat="37.93752" lon="14.9591117"><ele>1144.0</ele><time>2026-04-28T09:16:51.202Z</time></trkpt><trkpt lat="37.9377" lon="14.9590817"><ele>1144.0</ele><time>2026-04-28T09:16:52.203Z</time></trkpt><trkpt lat="37.937895" lon="14.9590283"><ele>1144.0</ele><time>2026-04-28T09:16:53.202Z</time></trkpt><trkpt lat="37.938095" lon="14.9589717"><ele>1144.0</ele><time>2026-04-28T09:16:54.202Z</time></trkpt><trkpt lat="37.9382783" lon="14.958915"><ele>1144.0</ele><time>2026-04-28T09:16:55.202Z</time></trkpt><trkpt lat="37.93844" lon="14.9588933"><ele>1148.6666666666665</ele><time>2026-04-28T09:16:56.202Z</time></trkpt><trkpt lat="37.9385967" lon="14.9589117"><ele>1153.3333333333333</ele><time>2026-04-28T09:16:57.202Z</time></trkpt><trkpt lat="37.93876" lon="14.9589817"><ele>1158.0</ele><time>2026-04-28T09:16:58.202Z</time></trkpt><trkpt lat="37.9389217" lon="14.9591133"><ele>1157.3333333333333</ele><time>2026-04-28T09:16:59.202Z</time></trkpt><trkpt lat="37.9390917" lon="14.9592833"><ele>1156.6666666666665</ele><time>2026-04-28T09:17:00.202Z</time></trkpt><trkpt lat="37.939265" lon="14.9594533"><ele>1156.0</ele><time>2026-04-28T09:17:01.202Z</time></trkpt><trkpt lat="37.93943" lon="14.9596017"><ele>1156.0</ele><time>2026-04-28T09:17:02.203Z</time></trkpt><trkpt lat="37.9395833" lon="14.9597433"><ele>1156.0</ele><time>2026-04-28T09:17:03.202Z</time></trkpt><trkpt lat="37.9397267" lon="14.959875"><ele>1156.0</ele><time>2026-04-28T09:17:04.202Z</time></trkpt><trkpt lat="37.9398583" lon="14.960005"><ele>1151.5</ele><time>2026-04-28T09:17:05.202Z</time></trkpt><trkpt lat="37.9399667" lon="14.9601367"><ele>1147.0</ele><time>2026-04-28T09:17:06.202Z</time></trkpt><trkpt lat="37.94006" lon="14.9602517"><ele>1142.5</ele><time>2026-04-28T09:17:07.202Z</time></trkpt><trkpt lat="37.9401567" lon="14.9603167"><ele>1138.0</ele><time>2026-04-28T09:17:08.202Z</time></trkpt><trkpt lat="37.9402567" lon="14.96033"><ele>1138.0</ele><time>2026-04-28T09:17:09.203Z</time></trkpt><trkpt lat="37.9403567" lon="14.96029"><ele>1138.0</ele><time>2026-04-28T09:17:10.203Z</time></trkpt><trkpt lat="37.9404517" lon="14.960195"><ele>1138.0</ele><time>2026-04-28T09:17:11.203Z</time></trkpt><trkpt lat="37.9405367" lon="14.9600617"><ele>1138.0</ele><time>2026-04-28T09:17:12.202Z</time></trkpt><trkpt lat="37.9406217" lon="14.9599283"><ele>1144.5</ele><time>2026-04-28T09:17:13.202Z</time></trkpt><trkpt lat="37.9407133" lon="14.95982"><ele>1151.0</ele><time>2026-04-28T09:17:14.202Z</time></trkpt><trkpt lat="37.9408067" lon="14.95974"><ele>1157.5</ele><time>2026-04-28T09:17:15.202Z</time></trkpt><trkpt lat="37.9409133" lon="14.9597017"><ele>1164.0</ele><time>2026-04-28T09:17:16.202Z</time></trkpt><trkpt lat="37.9410317" lon="14.9596983"><ele>1164.75</ele><time>2026-04-28T09:17:17.202Z</time></trkpt><trkpt lat="37.9411583" lon="14.9597233"><ele>1165.5</ele><time>2026-04-28T09:17:18.202Z</time></trkpt><trkpt lat="37.9412883" lon="14.95977"><ele>1166.25</ele><time>2026-04-28T09:17:19.202Z</time></trkpt><trkpt lat="37.94142" lon="14.9598417"><ele>1167.0</ele><time>2026-04-28T09:17:20.202Z</time></trkpt><trkpt lat="37.9415517" lon="14.9599417"><ele>1160.75</ele><time>2026-04-28T09:17:21.202Z</time></trkpt><trkpt lat="37.9416683" lon="14.9600433"><ele>1154.5</ele><time>2026-04-28T09:17:22.203Z</time></trkpt><trkpt lat="37.9417883" lon="14.9601417"><ele>1148.25</ele><time>2026-04-28T09:17:23.202Z</time></trkpt><trkpt lat="37.9419117" lon="14.9602167"><ele>1142.0</ele><time>2026-04-28T09:17:24.202Z</time></trkpt><trkpt lat="37.9420283" lon="14.9602367"><ele>1140.75</ele><time>2026-04-28T09:17:25.202Z</time></trkpt><trkpt lat="37.9421517" lon="14.960185"><ele>1139.5</ele><time>2026-04-28T09:17:26.202Z</time></trkpt><trkpt lat="37.942245" lon="14.96008"><ele>1138.25</ele><time>2026-04-28T09:17:27.202Z</time></trkpt><trkpt lat="37.942295" lon="14.959935"><ele>1137.0</ele><time>2026-04-28T09:17:28.202Z</time></trkpt><trkpt lat="37.9423283" lon="14.95977"><ele>1138.5</ele><time>2026-04-28T09:17:29.202Z</time></trkpt><trkpt lat="37.9423483" lon="14.95961"><ele>1140.0</ele><time>2026-04-28T09:17:30.202Z</time></trkpt><trkpt lat="37.9423967" lon="14.95947"><ele>1141.5</ele><time>2026-04-28T09:17:31.202Z</time></trkpt><trkpt lat="37.9424817" lon="14.9593667"><ele>1143.0</ele><time>2026-04-28T09:17:32.202Z</time></trkpt><trkpt lat="37.9426" lon="14.9593167"><ele>1143.0</ele><time>2026-04-28T09:17:33.203Z</time></trkpt><trkpt lat="37.9427383" lon="14.9592733"><ele>1143.0</ele><time>2026-04-28T09:17:34.202Z</time></trkpt><trkpt lat="37.9428817" lon="14.95923"><ele>1143.0</ele><time>2026-04-28T09:17:35.202Z</time></trkpt><trkpt lat="37.9429933" lon="14.9591733"><ele>1143.0</ele><time>2026-04-28T09:17:36.203Z</time></trkpt><trkpt lat="37.9430967" lon="14.959125"><ele>1146.0</ele><time>2026-04-28T09:17:37.202Z</time></trkpt><trkpt lat="37.9431967" lon="14.9590683"><ele>1149.0</ele><time>2026-04-28T09:17:38.202Z</time></trkpt><trkpt lat="37.94328" lon="14.9590183"><ele>1152.0</ele><time>2026-04-28T09:17:39.202Z</time></trkpt><trkpt lat="37.9433517" lon="14.9589783"><ele>1155.0</ele><time>2026-04-28T09:17:40.203Z</time></trkpt><trkpt lat="37.9434117" lon="14.9589517"><ele>1158.0</ele><time>2026-04-28T09:17:41.202Z</time></trkpt><trkpt lat="37.9434883" lon="14.9589417"><ele>1161.0</ele><time>2026-04-28T09:17:43.202Z</time></trkpt><trkpt lat="37.9435733" lon="14.958875"><ele>1161.3333333333333</ele><time>2026-04-28T09:21:16.202Z</time></trkpt><trkpt lat="37.94364" lon="14.9588067"><ele>1161.6666666666667</ele><time>2026-04-28T09:21:18.201Z</time></trkpt><trkpt lat="37.9436933" lon="14.9587633"><ele>1162.0</ele><time>2026-04-28T09:21:19.202Z</time></trkpt><trkpt lat="37.943765" lon="14.9587267"><ele>1162.3333333333335</ele><time>2026-04-28T09:21:20.201Z</time></trkpt><trkpt lat="37.9438533" lon="14.9586967"><ele>1162.6666666666667</ele><time>2026-04-28T09:21:21.201Z</time></trkpt><trkpt lat="37.9439467" lon="14.9586733"><ele>1163.0</ele><time>2026-04-28T09:21:22.201Z</time></trkpt><trkpt lat="37.9440217" lon="14.9586767"><ele>1163.0</ele><time>2026-04-28T09:21:23.201Z</time></trkpt><trkpt lat="37.9440983" lon="14.95871"><ele>1163.0</ele><time>2026-04-28T09:21:24.201Z</time></trkpt><trkpt lat="37.944165" lon="14.9587917"><ele>1163.0</ele><time>2026-04-28T09:21:25.201Z</time></trkpt><trkpt lat="37.9442233" lon="14.9589083"><ele>1163.0</ele><time>2026-04-28T09:21:26.202Z</time></trkpt><trkpt lat="37.9442767" lon="14.9590567"><ele>1163.0</ele><time>2026-04-28T09:21:27.201Z</time></trkpt><trkpt lat="37.94433" lon="14.9592133"><ele>1162.5</ele><time>2026-04-28T09:21:28.201Z</time></trkpt><trkpt lat="37.94439" lon="14.9593667"><ele>1162.0</ele><time>2026-04-28T09:21:29.202Z</time></trkpt><trkpt lat="37.94445" lon="14.95951"><ele>1161.5</ele><time>2026-04-28T09:21:30.201Z</time></trkpt><trkpt lat="37.9445167" lon="14.959635"><ele>1161.0</ele><time>2026-04-28T09:21:31.201Z</time></trkpt><trkpt lat="37.9446017" lon="14.959715"><ele>1161.0</ele><time>2026-04-28T09:21:32.201Z</time></trkpt><trkpt lat="37.9447083" lon="14.9597417"><ele>1161.0</ele><time>2026-04-28T09:21:33.202Z</time></trkpt><trkpt lat="37.9448483" lon="14.95973"><ele>1161.0</ele><time>2026-04-28T09:21:34.201Z</time></trkpt><trkpt lat="37.944985" lon="14.9597367"><ele>1161.0</ele><time>2026-04-28T09:21:35.201Z</time></trkpt><trkpt lat="37.9451083" lon="14.95976"><ele>1160.75</ele><time>2026-04-28T09:21:36.201Z</time></trkpt><trkpt lat="37.9452233" lon="14.9598183"><ele>1160.5</ele><time>2026-04-28T09:21:37.201Z</time></trkpt><trkpt lat="37.9453083" lon="14.959925"><ele>1160.25</ele><time>2026-04-28T09:21:38.201Z</time></trkpt><trkpt lat="37.9453817" lon="14.960065"><ele>1160.0</ele><time>2026-04-28T09:21:39.201Z</time></trkpt><trkpt lat="37.9454617" lon="14.9602233"><ele>1160.0</ele><time>2026-04-28T09:21:40.201Z</time></trkpt><trkpt lat="37.9455567" lon="14.9603833"><ele>1160.0</ele><time>2026-04-28T09:21:41.201Z</time></trkpt><trkpt lat="37.9456767" lon="14.960515"><ele>1160.0</ele><time>2026-04-28T09:21:42.202Z</time></trkpt><trkpt lat="37.9458033" lon="14.960645"><ele>1157.75</ele><time>2026-04-28T09:21:43.202Z</time></trkpt><trkpt lat="37.9459183" lon="14.960765"><ele>1155.5</ele><time>2026-04-28T09:21:44.201Z</time></trkpt><trkpt lat="37.946025" lon="14.9608633"><ele>1153.25</ele><time>2026-04-28T09:21:45.201Z</time></trkpt><trkpt lat="37.9461333" lon="14.960945"><ele>1151.0</ele><time>2026-04-28T09:21:46.202Z</time></trkpt><trkpt lat="37.9462583" lon="14.96099"><ele>1151.0</ele><time>2026-04-28T09:21:47.201Z</time></trkpt><trkpt lat="37.946395" lon="14.9609767"><ele>1151.0</ele><time>2026-04-28T09:21:48.201Z</time></trkpt><trkpt lat="37.9465517" lon="14.9609217"><ele>1151.0</ele><time>2026-04-28T09:21:49.201Z</time></trkpt><trkpt lat="37.946725" lon="14.9608483"><ele>1156.6666666666667</ele><time>2026-04-28T09:21:50.201Z</time></trkpt><trkpt lat="37.94692" lon="14.96078"><ele>1162.3333333333333</ele><time>2026-04-28T09:21:51.201Z</time></trkpt><trkpt lat="37.9471283" lon="14.96074"><ele>1168.0</ele><time>2026-04-28T09:21:52.201Z</time></trkpt><trkpt lat="37.9473467" lon="14.9607183"><ele>1166.3333333333333</ele><time>2026-04-28T09:21:53.202Z</time></trkpt><trkpt lat="37.9475517" lon="14.96072"><ele>1164.6666666666667</ele><time>2026-04-28T09:21:54.202Z</time></trkpt><trkpt lat="37.9477333" lon="14.9607233"><ele>1163.0</ele><time>2026-04-28T09:21:55.201Z</time></trkpt><trkpt lat="37.9478983" lon="14.9607233"><ele>1163.0</ele><time>2026-04-28T09:21:56.201Z</time></trkpt><trkpt lat="37.94805" lon="14.9607"><ele>1163.0</ele><time>2026-04-28T09:21:57.201Z</time></trkpt><trkpt lat="37.948185" lon="14.9606483"><ele>1163.0</ele><time>2026-04-28T09:21:58.201Z</time></trkpt><trkpt lat="37.9483" lon="14.960555"><ele>1163.0</ele><time>2026-04-28T09:21:59.201Z</time></trkpt><trkpt lat="37.948405" lon="14.9604117"><ele>1162.6666666666667</ele><time>2026-04-28T09:22:00.201Z</time></trkpt><trkpt lat="37.9484983" lon="14.96024"><ele>1162.3333333333333</ele><time>2026-04-28T09:22:01.201Z</time></trkpt><trkpt lat="37.9485917" lon="14.9600517"><ele>1162.0</ele><time>2026-04-28T09:22:02.201Z</time></trkpt><trkpt lat="37.9486867" lon="14.9598767"><ele>1162.75</ele><time>2026-04-28T09:22:03.201Z</time></trkpt><trkpt lat="37.9487683" lon="14.9597183"><ele>1163.5</ele><time>2026-04-28T09:22:04.201Z</time></trkpt><trkpt lat="37.9488483" lon="14.9595733"><ele>1164.25</ele><time>2026-04-28T09:22:05.201Z</time></trkpt><trkpt lat="37.9489433" lon="14.9594417"><ele>1165.0</ele><time>2026-04-28T09:22:06.201Z</time></trkpt><trkpt lat="37.9490567" lon="14.9593133"><ele>1166.3333333333333</ele><time>2026-04-28T09:22:07.201Z</time></trkpt><trkpt lat="37.949195" lon="14.9591883"><ele>1167.6666666666667</ele><time>2026-04-28T09:22:08.198Z</time></trkpt><trkpt lat="37.9493583" lon="14.95905"><ele>1169.0</ele><time>2026-04-28T09:22:09.201Z</time></trkpt><trkpt lat="37.94954" lon="14.95891"><ele>1169.0</ele><time>2026-04-28T09:22:10.201Z</time></trkpt><trkpt lat="37.9497317" lon="14.958775"><ele>1169.0</ele><time>2026-04-28T09:22:11.201Z</time></trkpt><trkpt lat="37.949915" lon="14.9586383"><ele>1169.0</ele><time>2026-04-28T09:22:12.201Z</time></trkpt><trkpt lat="37.9500917" lon="14.9584917"><ele>1171.0</ele><time>2026-04-28T09:22:13.201Z</time></trkpt><trkpt lat="37.9502567" lon="14.958345"><ele>1173.0</ele><time>2026-04-28T09:22:14.201Z</time></trkpt><trkpt lat="37.9504183" lon="14.9582083"><ele>1175.0</ele><time>2026-04-28T09:22:15.201Z</time></trkpt><trkpt lat="37.9505867" lon="14.9580883"><ele>1175.0</ele><time>2026-04-28T09:22:16.201Z</time></trkpt><trkpt lat="37.9507483" lon="14.957975"><ele>1175.0</ele><time>2026-04-28T09:22:17.201Z</time></trkpt><trkpt lat="37.9509017" lon="14.9578667"><ele>1175.0</ele><time>2026-04-28T09:22:18.201Z</time></trkpt><trkpt lat="37.9510583" lon="14.957765"><ele>1185.0</ele><time>2026-04-28T09:22:19.201Z</time></trkpt><trkpt lat="37.9512183" lon="14.9576817"><ele>1195.0</ele><time>2026-04-28T09:22:20.201Z</time></trkpt><trkpt lat="37.9513867" lon="14.957615"><ele>1205.0</ele><time>2026-04-28T09:22:21.202Z</time></trkpt><trkpt lat="37.9515617" lon="14.9575617"><ele>1198.3333333333335</ele><time>2026-04-28T09:22:22.202Z</time></trkpt><trkpt lat="37.9517467" lon="14.957535"><ele>1191.6666666666667</ele><time>2026-04-28T09:22:23.201Z</time></trkpt><trkpt lat="37.951925" lon="14.9575583"><ele>1185.0</ele><time>2026-04-28T09:22:24.201Z</time></trkpt><trkpt lat="37.95211" lon="14.9575833"><ele>1199.0</ele><time>2026-04-28T09:22:25.201Z</time></trkpt><trkpt lat="37.952315" lon="14.9576017"><ele>1213.0</ele><time>2026-04-28T09:22:26.201Z</time></trkpt><trkpt lat="37.95252" lon="14.95759"><ele>1227.0</ele><time>2026-04-28T09:22:27.201Z</time></trkpt><trkpt lat="37.952725" lon="14.9575567"><ele>1218.0</ele><time>2026-04-28T09:22:28.201Z</time></trkpt><trkpt lat="37.9529183" lon="14.9575283"><ele>1209.0</ele><time>2026-04-28T09:22:29.201Z</time></trkpt><trkpt lat="37.9530967" lon="14.9574933"><ele>1200.0</ele><time>2026-04-28T09:22:30.201Z</time></trkpt><trkpt lat="37.95326" lon="14.95745"><ele>1209.0</ele><time>2026-04-28T09:22:31.201Z</time></trkpt><trkpt lat="37.9534117" lon="14.9573867"><ele>1218.0</ele><time>2026-04-28T09:22:32.201Z</time></trkpt><trkpt lat="37.95354" lon="14.957285"><ele>1227.0</ele><time>2026-04-28T09:22:33.201Z</time></trkpt><trkpt lat="37.953635" lon="14.9571333"><ele>1227.0</ele><time>2026-04-28T09:22:34.201Z</time></trkpt><trkpt lat="37.9537067" lon="14.956955"><ele>1227.0</ele><time>2026-04-28T09:22:35.202Z</time></trkpt><trkpt lat="37.95377" lon="14.9567717"><ele>1227.0</ele><time>2026-04-28T09:22:36.201Z</time></trkpt><trkpt lat="37.95384" lon="14.9565767"><ele>1229.0</ele><time>2026-04-28T09:22:37.201Z</time></trkpt><trkpt lat="37.953945" lon="14.9564233"><ele>1231.0</ele><time>2026-04-28T09:22:38.201Z</time></trkpt><trkpt lat="37.95408" lon="14.9562967"><ele>1233.0</ele><time>2026-04-28T09:22:39.201Z</time></trkpt><trkpt lat="37.9542217" lon="14.9561867"><ele>1233.0</ele><time>2026-04-28T09:22:40.202Z</time></trkpt><trkpt lat="37.95437" lon="14.9560683"><ele>1233.0</ele><time>2026-04-28T09:22:41.201Z</time></trkpt><trkpt lat="37.9545133" lon="14.9559383"><ele>1233.0</ele><time>2026-04-28T09:22:42.201Z</time></trkpt><trkpt lat="37.9546567" lon="14.9558267"><ele>1230.6666666666667</ele><time>2026-04-28T09:22:43.201Z</time></trkpt><trkpt lat="37.9548033" lon="14.9557317"><ele>1228.3333333333335</ele><time>2026-04-28T09:22:44.201Z</time></trkpt><trkpt lat="37.9549617" lon="14.9556483"><ele>1226.0</ele><time>2026-04-28T09:22:45.201Z</time></trkpt><trkpt lat="37.9551267" lon="14.9555783"><ele>1226.0</ele><time>2026-04-28T09:22:46.201Z</time></trkpt><trkpt lat="37.9552967" lon="14.9555133"><ele>1226.0</ele><time>2026-04-28T09:22:47.201Z</time></trkpt><trkpt lat="37.9554467" lon="14.9554517"><ele>1226.0</ele><time>2026-04-28T09:22:48.202Z</time></trkpt><trkpt lat="37.9555833" lon="14.9553683"><ele>1226.0</ele><time>2026-04-28T09:22:49.201Z</time></trkpt><trkpt lat="37.9557167" lon="14.9552533"><ele>1226.0</ele><time>2026-04-28T09:22:50.201Z</time></trkpt><trkpt lat="37.9558383" lon="14.9551117"><ele>1226.0</ele><time>2026-04-28T09:22:51.201Z</time></trkpt><trkpt lat="37.9559733" lon="14.9549917"><ele>1224.6666666666667</ele><time>2026-04-28T09:22:52.201Z</time></trkpt><trkpt lat="37.9561183" lon="14.9548883"><ele>1223.3333333333333</ele><time>2026-04-28T09:22:53.201Z</time></trkpt><trkpt lat="37.956265" lon="14.9548183"><ele>1222.0</ele><time>2026-04-28T09:22:54.201Z</time></trkpt><trkpt lat="37.9564167" lon="14.9547433"><ele>1222.0</ele><time>2026-04-28T09:22:55.201Z</time></trkpt><trkpt lat="37.95654" lon="14.954635"><ele>1222.0</ele><time>2026-04-28T09:22:56.201Z</time></trkpt><trkpt lat="37.95665" lon="14.95451"><ele>1222.0</ele><time>2026-04-28T09:22:57.202Z</time></trkpt><trkpt lat="37.9567667" lon="14.9544067"><ele>1222.0</ele><time>2026-04-28T09:22:58.201Z</time></trkpt><trkpt lat="37.9568983" lon="14.9543317"><ele>1225.3333333333333</ele><time>2026-04-28T09:22:59.201Z</time></trkpt><trkpt lat="37.95705" lon="14.9542983"><ele>1228.6666666666667</ele><time>2026-04-28T09:23:00.201Z</time></trkpt><trkpt lat="37.957205" lon="14.95429"><ele>1232.0</ele><time>2026-04-28T09:23:01.201Z</time></trkpt><trkpt lat="37.9573567" lon="14.954285"><ele>1232.0</ele><time>2026-04-28T09:23:02.201Z</time></trkpt><trkpt lat="37.9575133" lon="14.954285"><ele>1232.0</ele><time>2026-04-28T09:23:03.201Z</time></trkpt><trkpt lat="37.9576567" lon="14.9542717"><ele>1232.0</ele><time>2026-04-28T09:23:04.201Z</time></trkpt><trkpt lat="37.957795" lon="14.9542583"><ele>1232.0</ele><time>2026-04-28T09:23:05.201Z</time></trkpt><trkpt lat="37.95793" lon="14.95425"><ele>1231.75</ele><time>2026-04-28T09:23:06.202Z</time></trkpt><trkpt lat="37.9580633" lon="14.95424"><ele>1231.5</ele><time>2026-04-28T09:23:07.201Z</time></trkpt><trkpt lat="37.958195" lon="14.9542183"><ele>1231.25</ele><time>2026-04-28T09:23:08.201Z</time></trkpt><trkpt lat="37.9583133" lon="14.9541967"><ele>1231.0</ele><time>2026-04-28T09:23:09.201Z</time></trkpt><trkpt lat="37.95843" lon="14.95417"><ele>1225.5</ele><time>2026-04-28T09:23:10.201Z</time></trkpt><trkpt lat="37.958555" lon="14.95417"><ele>1220.0</ele><time>2026-04-28T09:23:11.201Z</time></trkpt><trkpt lat="37.95868" lon="14.95417"><ele>1214.5</ele><time>2026-04-28T09:23:12.201Z</time></trkpt><trkpt lat="37.9588017" lon="14.9541567"><ele>1209.0</ele><time>2026-04-28T09:23:13.202Z</time></trkpt><trkpt lat="37.9589267" lon="14.95417"><ele>1209.0</ele><time>2026-04-28T09:23:14.201Z</time></trkpt><trkpt lat="37.9590533" lon="14.9541817"><ele>1209.0</ele><time>2026-04-28T09:23:15.201Z</time></trkpt><trkpt lat="37.95919" lon="14.95419"><ele>1209.0</ele><time>2026-04-28T09:23:16.201Z</time></trkpt><trkpt lat="37.9593383" lon="14.9542017"><ele>1209.0</ele><time>2026-04-28T09:23:17.201Z</time></trkpt><trkpt lat="37.9594917" lon="14.95421"><ele>1209.6666666666667</ele><time>2026-04-28T09:23:18.201Z</time></trkpt><trkpt lat="37.9596467" lon="14.95423"><ele>1210.3333333333335</ele><time>2026-04-28T09:23:19.201Z</time></trkpt><trkpt lat="37.9598083" lon="14.9542533"><ele>1211.0</ele><time>2026-04-28T09:23:20.201Z</time></trkpt><trkpt lat="37.959965" lon="14.9542767"><ele>1213.3333333333335</ele><time>2026-04-28T09:23:21.201Z</time></trkpt><trkpt lat="37.96012" lon="14.9543217"><ele>1215.6666666666667</ele><time>2026-04-28T09:23:22.201Z</time></trkpt><trkpt lat="37.9602783" lon="14.9543667"><ele>1218.0</ele><time>2026-04-28T09:23:23.201Z</time></trkpt><trkpt lat="37.9604383" lon="14.954415"><ele>1218.0</ele><time>2026-04-28T09:23:24.201Z</time></trkpt><trkpt lat="37.9606033" lon="14.9544683"><ele>1218.0</ele><time>2026-04-28T09:23:25.202Z</time></trkpt><trkpt lat="37.9607583" lon="14.9545167"><ele>1218.0</ele><time>2026-04-28T09:23:26.201Z</time></trkpt><trkpt lat="37.9609133" lon="14.9545683"><ele>1219.6666666666667</ele><time>2026-04-28T09:23:27.201Z</time></trkpt><trkpt lat="37.96107" lon="14.9546183"><ele>1221.3333333333335</ele><time>2026-04-28T09:23:28.201Z</time></trkpt><trkpt lat="37.96123" lon="14.9546633"><ele>1223.0</ele><time>2026-04-28T09:23:29.201Z</time></trkpt><trkpt lat="37.9613817" lon="14.95472"><ele>1223.0</ele><time>2026-04-28T09:23:30.201Z</time></trkpt><trkpt lat="37.9615383" lon="14.9547817"><ele>1223.0</ele><time>2026-04-28T09:23:31.201Z</time></trkpt><trkpt lat="37.9616917" lon="14.9548483"><ele>1223.0</ele><time>2026-04-28T09:23:32.201Z</time></trkpt><trkpt lat="37.9618417" lon="14.9549367"><ele>1224.0</ele><time>2026-04-28T09:23:33.201Z</time></trkpt><trkpt lat="37.9619817" lon="14.9550433"><ele>1225.0</ele><time>2026-04-28T09:23:34.202Z</time></trkpt><trkpt lat="37.9621117" lon="14.9551717"><ele>1226.0</ele><time>2026-04-28T09:23:35.201Z</time></trkpt><trkpt lat="37.9622467" lon="14.9553083"><ele>1226.0</ele><time>2026-04-28T09:23:36.202Z</time></trkpt><trkpt lat="37.9623783" lon="14.95544"><ele>1226.0</ele><time>2026-04-28T09:23:37.201Z</time></trkpt><trkpt lat="37.9625067" lon="14.95557"><ele>1226.0</ele><time>2026-04-28T09:23:38.201Z</time></trkpt><trkpt lat="37.962635" lon="14.9556983"><ele>1225.6666666666667</ele><time>2026-04-28T09:23:39.201Z</time></trkpt><trkpt lat="37.9627717" lon="14.9558033"><ele>1225.3333333333333</ele><time>2026-04-28T09:23:40.201Z</time></trkpt><trkpt lat="37.9629217" lon="14.9558883"><ele>1225.0</ele><time>2026-04-28T09:23:41.201Z</time></trkpt><trkpt lat="37.9630917" lon="14.9559233"><ele>1224.0</ele><time>2026-04-28T09:23:42.201Z</time></trkpt><trkpt lat="37.9632683" lon="14.9559283"><ele>1223.0</ele><time>2026-04-28T09:23:43.201Z</time></trkpt><trkpt lat="37.9634483" lon="14.9559133"><ele>1222.0</ele><time>2026-04-28T09:23:44.201Z</time></trkpt><trkpt lat="37.96363" lon="14.9559"><ele>1222.0</ele><time>2026-04-28T09:23:45.201Z</time></trkpt><trkpt lat="37.9637983" lon="14.9558817"><ele>1222.0</ele><time>2026-04-28T09:23:46.202Z</time></trkpt><trkpt lat="37.9639683" lon="14.9558533"><ele>1222.0</ele><time>2026-04-28T09:23:47.201Z</time></trkpt><trkpt lat="37.9641483" lon="14.95581"><ele>1225.3333333333333</ele><time>2026-04-28T09:23:48.201Z</time></trkpt><trkpt lat="37.9643233" lon="14.9557567"><ele>1228.6666666666667</ele><time>2026-04-28T09:23:49.202Z</time></trkpt><trkpt lat="37.9645017" lon="14.9557117"><ele>1232.0</ele><time>2026-04-28T09:23:50.201Z</time></trkpt><trkpt lat="37.96468" lon="14.9556683"><ele>1232.0</ele><time>2026-04-28T09:23:51.201Z</time></trkpt><trkpt lat="37.96486" lon="14.95564"><ele>1232.0</ele><time>2026-04-28T09:23:52.201Z</time></trkpt><trkpt lat="37.9650417" lon="14.955605"><ele>1232.0</ele><time>2026-04-28T09:23:53.201Z</time></trkpt><trkpt lat="37.9652233" lon="14.955545"><ele>1232.0</ele><time>2026-04-28T09:23:54.201Z</time></trkpt><trkpt lat="37.965415" lon="14.95545"><ele>1232.0</ele><time>2026-04-28T09:23:55.201Z</time></trkpt><trkpt lat="37.96559" lon="14.95535"><ele>1232.0</ele><time>2026-04-28T09:23:56.201Z</time></trkpt><trkpt lat="37.9657717" lon="14.955245"><ele>1237.3333333333335</ele><time>2026-04-28T09:23:57.201Z</time></trkpt><trkpt lat="37.965945" lon="14.955125"><ele>1242.6666666666667</ele><time>2026-04-28T09:23:58.201Z</time></trkpt><trkpt lat="37.966115" lon="14.9550083"><ele>1248.0</ele><time>2026-04-28T09:23:59.201Z</time></trkpt><trkpt lat="37.9662717" lon="14.954885"><ele>1248.3333333333333</ele><time>2026-04-28T09:24:00.201Z</time></trkpt><trkpt lat="37.96641" lon="14.954765"><ele>1248.6666666666665</ele><time>2026-04-28T09:24:01.201Z</time></trkpt><trkpt lat="37.9665383" lon="14.9546667"><ele>1249.0</ele><time>2026-04-28T09:24:02.201Z</time></trkpt><trkpt lat="37.9666667" lon="14.9545783"><ele>1252.25</ele><time>2026-04-28T09:24:03.201Z</time></trkpt><trkpt lat="37.966795" lon="14.9545367"><ele>1255.5</ele><time>2026-04-28T09:24:04.201Z</time></trkpt><trkpt lat="37.9669333" lon="14.9545217"><ele>1258.75</ele><time>2026-04-28T09:24:05.201Z</time></trkpt><trkpt lat="37.9670867" lon="14.9545383"><ele>1262.0</ele><time>2026-04-28T09:24:06.201Z</time></trkpt><trkpt lat="37.967245" lon="14.9545767"><ele>1262.0</ele><time>2026-04-28T09:24:07.201Z</time></trkpt><trkpt lat="37.9674183" lon="14.954595"><ele>1262.0</ele><time>2026-04-28T09:24:08.201Z</time></trkpt><trkpt lat="37.9675933" lon="14.9545933"><ele>1262.0</ele><time>2026-04-28T09:24:09.201Z</time></trkpt><trkpt lat="37.967785" lon="14.9545817"><ele>1264.6666666666667</ele><time>2026-04-28T09:24:10.201Z</time></trkpt><trkpt lat="37.9679817" lon="14.9545367"><ele>1267.3333333333333</ele><time>2026-04-28T09:24:11.201Z</time></trkpt><trkpt lat="37.96817" lon="14.9545083"><ele>1270.0</ele><time>2026-04-28T09:24:12.202Z</time></trkpt><trkpt lat="37.9683567" lon="14.9544883"><ele>1271.0</ele><time>2026-04-28T09:24:13.201Z</time></trkpt><trkpt lat="37.968545" lon="14.9544917"><ele>1272.0</ele><time>2026-04-28T09:24:14.201Z</time></trkpt><trkpt lat="37.9687467" lon="14.9544883"><ele>1273.0</ele><time>2026-04-28T09:24:15.202Z</time></trkpt><trkpt lat="37.96896" lon="14.9544783"><ele>1273.0</ele><time>2026-04-28T09:24:16.201Z</time></trkpt><trkpt lat="37.9691633" lon="14.9544717"><ele>1273.0</ele><time>2026-04-28T09:24:17.202Z</time></trkpt><trkpt lat="37.9693567" lon="14.9544717"><ele>1273.0</ele><time>2026-04-28T09:24:18.201Z</time></trkpt><trkpt lat="37.9695367" lon="14.9544667"><ele>1273.3333333333333</ele><time>2026-04-28T09:24:19.201Z</time></trkpt><trkpt lat="37.9697133" lon="14.9544567"><ele>1273.6666666666667</ele><time>2026-04-28T09:24:20.202Z</time></trkpt><trkpt lat="37.9698883" lon="14.95443"><ele>1274.0</ele><time>2026-04-28T09:24:21.201Z</time></trkpt><trkpt lat="37.9700567" lon="14.95438"><ele>1274.0</ele><time>2026-04-28T09:24:22.202Z</time></trkpt><trkpt lat="37.9702183" lon="14.9542967"><ele>1274.0</ele><time>2026-04-28T09:24:23.201Z</time></trkpt><trkpt lat="37.97037" lon="14.95419"><ele>1274.0</ele><time>2026-04-28T09:24:24.201Z</time></trkpt><trkpt lat="37.9705167" lon="14.95407"><ele>1271.6666666666667</ele><time>2026-04-28T09:24:25.201Z</time></trkpt><trkpt lat="37.9706683" lon="14.9539567"><ele>1269.3333333333333</ele><time>2026-04-28T09:24:26.202Z</time></trkpt><trkpt lat="37.9708133" lon="14.953865"><ele>1267.0</ele><time>2026-04-28T09:24:27.201Z</time></trkpt><trkpt lat="37.9709633" lon="14.9537867"><ele>1265.3333333333333</ele><time>2026-04-28T09:24:28.201Z</time></trkpt><trkpt lat="37.97113" lon="14.95376"><ele>1263.6666666666667</ele><time>2026-04-28T09:24:29.201Z</time></trkpt><trkpt lat="37.9713067" lon="14.95375"><ele>1262.0</ele><time>2026-04-28T09:24:30.201Z</time></trkpt><trkpt lat="37.971495" lon="14.9537417"><ele>1262.0</ele><time>2026-04-28T09:24:31.202Z</time></trkpt><trkpt lat="37.9716817" lon="14.953745"><ele>1262.0</ele><time>2026-04-28T09:24:32.201Z</time></trkpt><trkpt lat="37.9718717" lon="14.953745"><ele>1262.0</ele><time>2026-04-28T09:24:33.201Z</time></trkpt><trkpt lat="37.9720617" lon="14.9537317"><ele>1258.6666666666667</ele><time>2026-04-28T09:24:34.201Z</time></trkpt><trkpt lat="37.9722567" lon="14.9537167"><ele>1255.3333333333333</ele><time>2026-04-28T09:24:35.201Z</time></trkpt><trkpt lat="37.9724367" lon="14.95371"><ele>1252.0</ele><time>2026-04-28T09:24:36.201Z</time></trkpt><trkpt lat="37.9726117" lon="14.9537033"><ele>1252.0</ele><time>2026-04-28T09:24:37.201Z</time></trkpt><trkpt lat="37.9727967" lon="14.9536817"><ele>1252.0</ele><time>2026-04-28T09:24:38.201Z</time></trkpt><trkpt lat="37.9729783" lon="14.9536383"><ele>1252.0</ele><time>2026-04-28T09:24:39.201Z</time></trkpt><trkpt lat="37.9731583" lon="14.9535683"><ele>1252.0</ele><time>2026-04-28T09:24:40.201Z</time></trkpt><trkpt lat="37.973335" lon="14.9534833"><ele>1252.0</ele><time>2026-04-28T09:24:41.201Z</time></trkpt><trkpt lat="37.9735083" lon="14.953385"><ele>1252.0</ele><time>2026-04-28T09:24:42.201Z</time></trkpt><trkpt lat="37.973675" lon="14.9533133"><ele>1255.3333333333333</ele><time>2026-04-28T09:24:43.201Z</time></trkpt><trkpt lat="37.97384" lon="14.9532467"><ele>1258.6666666666667</ele><time>2026-04-28T09:24:44.201Z</time></trkpt><trkpt lat="37.9740133" lon="14.9531967"><ele>1262.0</ele><time>2026-04-28T09:24:45.201Z</time></trkpt><trkpt lat="37.974175" lon="14.9531583"><ele>1260.0</ele><time>2026-04-28T09:24:46.201Z</time></trkpt><trkpt lat="37.974345" lon="14.9531233"><ele>1258.0</ele><time>2026-04-28T09:24:47.201Z</time></trkpt><trkpt lat="37.9745117" lon="14.95306"><ele>1256.0</ele><time>2026-04-28T09:24:48.202Z</time></trkpt><trkpt lat="37.97467" lon="14.952965"><ele>1256.0</ele><time>2026-04-28T09:24:49.201Z</time></trkpt><trkpt lat="37.974825" lon="14.952845"><ele>1256.0</ele><time>2026-04-28T09:24:50.201Z</time></trkpt><trkpt lat="37.9749633" lon="14.9527033"><ele>1256.0</ele><time>2026-04-28T09:24:51.201Z</time></trkpt><trkpt lat="37.9750933" lon="14.9525467"><ele>1260.0</ele><time>2026-04-28T09:24:52.201Z</time></trkpt><trkpt lat="37.975205" lon="14.95237"><ele>1264.0</ele><time>2026-04-28T09:24:53.201Z</time></trkpt><trkpt lat="37.9752983" lon="14.9521717"><ele>1268.0</ele><time>2026-04-28T09:24:54.201Z</time></trkpt><trkpt lat="37.9754067" lon="14.95197"><ele>1268.0</ele><time>2026-04-28T09:24:55.201Z</time></trkpt><trkpt lat="37.9755267" lon="14.951775"><ele>1268.0</ele><time>2026-04-28T09:24:56.201Z</time></trkpt><trkpt lat="37.975665" lon="14.9515917"><ele>1268.0</ele><time>2026-04-28T09:24:57.201Z</time></trkpt><trkpt lat="37.9758167" lon="14.951425"><ele>1269.3333333333335</ele><time>2026-04-28T09:24:58.201Z</time></trkpt><trkpt lat="37.97597" lon="14.9512567"><ele>1270.6666666666667</ele><time>2026-04-28T09:24:59.201Z</time></trkpt><trkpt lat="37.976115" lon="14.9510767"><ele>1272.0</ele><time>2026-04-28T09:25:00.202Z</time></trkpt><trkpt lat="37.976245" lon="14.9508717"><ele>1272.0</ele><time>2026-04-28T09:25:01.201Z</time></trkpt><trkpt lat="37.9763733" lon="14.95067"><ele>1272.0</ele><time>2026-04-28T09:25:02.202Z</time></trkpt><trkpt lat="37.9765033" lon="14.9504633"><ele>1272.0</ele><time>2026-04-28T09:25:03.201Z</time></trkpt><trkpt lat="37.976625" lon="14.9502617"><ele>1275.0</ele><time>2026-04-28T09:25:04.201Z</time></trkpt><trkpt lat="37.9767433" lon="14.9500683"><ele>1278.0</ele><time>2026-04-28T09:25:05.201Z</time></trkpt><trkpt lat="37.9768383" lon="14.94987"><ele>1281.0</ele><time>2026-04-28T09:25:06.201Z</time></trkpt><trkpt lat="37.9769033" lon="14.9496517"><ele>1281.0</ele><time>2026-04-28T09:25:07.201Z</time></trkpt><trkpt lat="37.9769417" lon="14.9494217"><ele>1281.0</ele><time>2026-04-28T09:25:08.201Z</time></trkpt><trkpt lat="37.9769517" lon="14.9491817"><ele>1281.0</ele><time>2026-04-28T09:25:09.201Z</time></trkpt><trkpt lat="37.97696" lon="14.94894"><ele>1278.6666666666667</ele><time>2026-04-28T09:25:10.201Z</time></trkpt><trkpt lat="37.9769667" lon="14.9487067"><ele>1276.3333333333335</ele><time>2026-04-28T09:25:11.202Z</time></trkpt><trkpt lat="37.9769817" lon="14.9484767"><ele>1274.0</ele><time>2026-04-28T09:25:12.201Z</time></trkpt><trkpt lat="37.9770167" lon="14.948245"><ele>1273.3333333333335</ele><time>2026-04-28T09:25:13.201Z</time></trkpt><trkpt lat="37.9770683" lon="14.94802"><ele>1272.6666666666667</ele><time>2026-04-28T09:25:14.201Z</time></trkpt><trkpt lat="37.9771333" lon="14.9478117"><ele>1272.0</ele><time>2026-04-28T09:25:15.201Z</time></trkpt><trkpt lat="37.9772233" lon="14.9476067"><ele>1273.0</ele><time>2026-04-28T09:25:16.201Z</time></trkpt><trkpt lat="37.977345" lon="14.9474283"><ele>1274.0</ele><time>2026-04-28T09:25:17.201Z</time></trkpt><trkpt lat="37.9774833" lon="14.9472667"><ele>1275.0</ele><time>2026-04-28T09:25:18.201Z</time></trkpt><trkpt lat="37.97763" lon="14.9471117"><ele>1275.0</ele><time>2026-04-28T09:25:19.202Z</time></trkpt><trkpt lat="37.9777683" lon="14.9469467"><ele>1275.0</ele><time>2026-04-28T09:25:20.201Z</time></trkpt><trkpt lat="37.9779" lon="14.9467833"><ele>1275.0</ele><time>2026-04-28T09:25:21.201Z</time></trkpt><trkpt lat="37.978035" lon="14.9466517"><ele>1274.0</ele><time>2026-04-28T09:25:22.202Z</time></trkpt><trkpt lat="37.9781583" lon="14.94655"><ele>1273.0</ele><time>2026-04-28T09:25:23.202Z</time></trkpt><trkpt lat="37.978295" lon="14.94645"><ele>1272.0</ele><time>2026-04-28T09:25:24.201Z</time></trkpt><trkpt lat="37.97845" lon="14.9464133"><ele>1272.0</ele><time>2026-04-28T09:25:25.201Z</time></trkpt><trkpt lat="37.9785917" lon="14.9463983"><ele>1272.0</ele><time>2026-04-28T09:25:26.201Z</time></trkpt><trkpt lat="37.9787317" lon="14.9463733"><ele>1272.0</ele><time>2026-04-28T09:25:27.201Z</time></trkpt><trkpt lat="37.9788633" lon="14.946325"><ele>1272.0</ele><time>2026-04-28T09:25:28.201Z</time></trkpt><trkpt lat="37.9789583" lon="14.9462233"><ele>1272.0</ele><time>2026-04-28T09:25:29.201Z</time></trkpt><trkpt lat="37.979025" lon="14.9460783"><ele>1272.0</ele><time>2026-04-28T09:25:30.201Z</time></trkpt><trkpt lat="37.9790717" lon="14.9459133"><ele>1272.0</ele><time>2026-04-28T09:25:31.201Z</time></trkpt><trkpt lat="37.979115" lon="14.9457367"><ele>1272.0</ele><time>2026-04-28T09:25:32.201Z</time></trkpt><trkpt lat="37.9791583" lon="14.9455733"><ele>1272.0</ele><time>2026-04-28T09:25:33.201Z</time></trkpt><trkpt lat="37.9791883" lon="14.9454183"><ele>1272.0</ele><time>2026-04-28T09:25:34.202Z</time></trkpt><trkpt lat="37.9791867" lon="14.9452617"><ele>1272.0</ele><time>2026-04-28T09:25:35.201Z</time></trkpt><trkpt lat="37.9791433" lon="14.94511"><ele>1272.0</ele><time>2026-04-28T09:25:36.201Z</time></trkpt><trkpt lat="37.9790633" lon="14.94499"><ele>1270.25</ele><time>2026-04-28T09:25:37.201Z</time></trkpt><trkpt lat="37.9789667" lon="14.94489"><ele>1268.5</ele><time>2026-04-28T09:25:38.202Z</time></trkpt><trkpt lat="37.9788733" lon="14.9447933"><ele>1266.75</ele><time>2026-04-28T09:25:39.201Z</time></trkpt><trkpt lat="37.9787833" lon="14.9447017"><ele>1265.0</ele><time>2026-04-28T09:25:40.201Z</time></trkpt><trkpt lat="37.9787" lon="14.9446133"><ele>1265.0</ele><time>2026-04-28T09:25:41.201Z</time></trkpt><trkpt lat="37.97862" lon="14.9445233"><ele>1265.0</ele><time>2026-04-28T09:25:42.201Z</time></trkpt><trkpt lat="37.9785467" lon="14.94443"><ele>1265.0</ele><time>2026-04-28T09:25:43.201Z</time></trkpt><trkpt lat="37.97848" lon="14.944335"><ele>1265.0</ele><time>2026-04-28T09:25:44.201Z</time></trkpt><trkpt lat="37.9784233" lon="14.9442417"><ele>1265.0</ele><time>2026-04-28T09:25:45.202Z</time></trkpt><trkpt lat="37.97837" lon="14.9441517"><ele>1265.3333333333335</ele><time>2026-04-28T09:25:46.201Z</time></trkpt><trkpt lat="37.9783183" lon="14.9440583"><ele>1265.6666666666667</ele><time>2026-04-28T09:25:47.201Z</time></trkpt><trkpt lat="37.9782783" lon="14.9439733"><ele>1266.0</ele><time>2026-04-28T09:25:48.202Z</time></trkpt><trkpt lat="37.9782467" lon="14.9438767"><ele>1266.3333333333333</ele><time>2026-04-28T09:25:49.201Z</time></trkpt><trkpt lat="37.9782383" lon="14.9437683"><ele>1266.6666666666665</ele><time>2026-04-28T09:25:50.201Z</time></trkpt><trkpt lat="37.978245" lon="14.943655"><ele>1267.0</ele><time>2026-04-28T09:25:51.201Z</time></trkpt><trkpt lat="37.9782783" lon="14.9435283"><ele>1267.0</ele><time>2026-04-28T09:25:52.201Z</time></trkpt><trkpt lat="37.9783467" lon="14.943385"><ele>1267.0</ele><time>2026-04-28T09:25:53.202Z</time></trkpt><trkpt lat="37.978435" lon="14.9432183"><ele>1267.0</ele><time>2026-04-28T09:25:54.201Z</time></trkpt><trkpt lat="37.978545" lon="14.943025"><ele>1268.0</ele><time>2026-04-28T09:25:55.201Z</time></trkpt><trkpt lat="37.978665" lon="14.9428167"><ele>1269.0</ele><time>2026-04-28T09:25:56.201Z</time></trkpt><trkpt lat="37.9787867" lon="14.94261"><ele>1270.0</ele><time>2026-04-28T09:25:57.201Z</time></trkpt><trkpt lat="37.9788917" lon="14.9423917"><ele>1270.0</ele><time>2026-04-28T09:25:58.201Z</time></trkpt><trkpt lat="37.978975" lon="14.9421917"><ele>1270.0</ele><time>2026-04-28T09:25:59.201Z</time></trkpt><trkpt lat="37.9790517" lon="14.9420033"><ele>1270.0</ele><time>2026-04-28T09:26:00.201Z</time></trkpt><trkpt lat="37.9791317" lon="14.9418383"><ele>1269.3333333333333</ele><time>2026-04-28T09:26:01.201Z</time></trkpt><trkpt lat="37.97923" lon="14.941715"><ele>1268.6666666666667</ele><time>2026-04-28T09:26:02.201Z</time></trkpt><trkpt lat="37.9793667" lon="14.94161"><ele>1268.0</ele><time>2026-04-28T09:26:03.202Z</time></trkpt><trkpt lat="37.97952" lon="14.9415467"><ele>1268.0</ele><time>2026-04-28T09:26:04.201Z</time></trkpt><trkpt lat="37.97969" lon="14.9414883"><ele>1268.0</ele><time>2026-04-28T09:26:05.201Z</time></trkpt><trkpt lat="37.9798717" lon="14.9414233"><ele>1268.0</ele><time>2026-04-28T09:26:06.201Z</time></trkpt><trkpt lat="37.9800717" lon="14.9413483"><ele>1269.3333333333335</ele><time>2026-04-28T09:26:07.201Z</time></trkpt><trkpt lat="37.980275" lon="14.9412733"><ele>1270.6666666666667</ele><time>2026-04-28T09:26:08.201Z</time></trkpt><trkpt lat="37.9804783" lon="14.94121"><ele>1272.0</ele><time>2026-04-28T09:26:09.201Z</time></trkpt><trkpt lat="37.9806833" lon="14.9411317"><ele>1271.0</ele><time>2026-04-28T09:26:10.201Z</time></trkpt><trkpt lat="37.98088" lon="14.9410667"><ele>1270.0</ele><time>2026-04-28T09:26:11.201Z</time></trkpt><trkpt lat="37.9810783" lon="14.94102"><ele>1269.0</ele><time>2026-04-28T09:26:12.201Z</time></trkpt><trkpt lat="37.98127" lon="14.941"><ele>1269.0</ele><time>2026-04-28T09:26:13.202Z</time></trkpt><trkpt lat="37.981475" lon="14.9410033"><ele>1269.0</ele><time>2026-04-28T09:26:14.201Z</time></trkpt><trkpt lat="37.9816983" lon="14.941025"><ele>1269.0</ele><time>2026-04-28T09:26:15.201Z</time></trkpt><trkpt lat="37.981925" lon="14.9410333"><ele>1269.0</ele><time>2026-04-28T09:26:16.201Z</time></trkpt><trkpt lat="37.9821567" lon="14.9410317"><ele>1269.0</ele><time>2026-04-28T09:26:17.201Z</time></trkpt><trkpt lat="37.9823833" lon="14.9410483"><ele>1269.3333333333333</ele><time>2026-04-28T09:26:18.201Z</time></trkpt><trkpt lat="37.9825883" lon="14.9410667"><ele>1269.6666666666665</ele><time>2026-04-28T09:26:19.201Z</time></trkpt><trkpt lat="37.982785" lon="14.9410817"><ele>1270.0</ele><time>2026-04-28T09:26:20.201Z</time></trkpt><trkpt lat="37.9829817" lon="14.9410883"><ele>1270.0</ele><time>2026-04-28T09:26:21.201Z</time></trkpt><trkpt lat="37.9831583" lon="14.941095"><ele>1270.0</ele><time>2026-04-28T09:26:22.202Z</time></trkpt><trkpt lat="37.983325" lon="14.9410633"><ele>1270.0</ele><time>2026-04-28T09:26:23.202Z</time></trkpt><trkpt lat="37.98349" lon="14.940985"><ele>1270.6666666666665</ele><time>2026-04-28T09:26:24.201Z</time></trkpt><trkpt lat="37.98364" lon="14.9408833"><ele>1271.3333333333333</ele><time>2026-04-28T09:26:25.201Z</time></trkpt><trkpt lat="37.9837617" lon="14.9407483"><ele>1272.0</ele><time>2026-04-28T09:26:26.201Z</time></trkpt><trkpt lat="37.9838567" lon="14.9405517"><ele>1272.0</ele><time>2026-04-28T09:26:27.201Z</time></trkpt><trkpt lat="37.9839367" lon="14.940335"><ele>1272.0</ele><time>2026-04-28T09:26:28.202Z</time></trkpt><trkpt lat="37.9840033" lon="14.9401233"><ele>1272.0</ele><time>2026-04-28T09:26:29.201Z</time></trkpt><trkpt lat="37.9840733" lon="14.9399317"><ele>1272.0</ele><time>2026-04-28T09:26:30.202Z</time></trkpt><trkpt lat="37.984155" lon="14.93976"><ele>1272.0</ele><time>2026-04-28T09:26:31.201Z</time></trkpt><trkpt lat="37.9842567" lon="14.9396117"><ele>1272.0</ele><time>2026-04-28T09:26:32.201Z</time></trkpt><trkpt lat="37.98438" lon="14.9394933"><ele>1272.0</ele><time>2026-04-28T09:26:33.201Z</time></trkpt><trkpt lat="37.9845367" lon="14.9393933"><ele>1272.0</ele><time>2026-04-28T09:26:34.201Z</time></trkpt><trkpt lat="37.9847033" lon="14.9392883"><ele>1272.0</ele><time>2026-04-28T09:26:35.201Z</time></trkpt><trkpt lat="37.9848883" lon="14.93919"><ele>1271.0</ele><time>2026-04-28T09:26:36.201Z</time></trkpt><trkpt lat="37.9850767" lon="14.93909"><ele>1270.0</ele><time>2026-04-28T09:26:37.201Z</time></trkpt><trkpt lat="37.9852817" lon="14.938985"><ele>1269.0</ele><time>2026-04-28T09:26:38.201Z</time></trkpt><trkpt lat="37.98549" lon="14.9388767"><ele>1269.0</ele><time>2026-04-28T09:26:39.202Z</time></trkpt><trkpt lat="37.9856933" lon="14.938775"><ele>1269.0</ele><time>2026-04-28T09:26:40.201Z</time></trkpt><trkpt lat="37.9858867" lon="14.9386783"><ele>1269.0</ele><time>2026-04-28T09:26:41.201Z</time></trkpt><trkpt lat="37.986065" lon="14.9385733"><ele>1269.3333333333333</ele><time>2026-04-28T09:26:42.201Z</time></trkpt><trkpt lat="37.9862217" lon="14.9384367"><ele>1269.6666666666665</ele><time>2026-04-28T09:26:43.202Z</time></trkpt><trkpt lat="37.9863483" lon="14.93826"><ele>1270.0</ele><time>2026-04-28T09:26:44.201Z</time></trkpt><trkpt lat="37.9864533" lon="14.9380467"><ele>1270.0</ele><time>2026-04-28T09:26:45.201Z</time></trkpt><trkpt lat="37.986545" lon="14.9378133"><ele>1270.0</ele><time>2026-04-28T09:26:46.202Z</time></trkpt><trkpt lat="37.98664" lon="14.9375767"><ele>1270.0</ele><time>2026-04-28T09:26:47.201Z</time></trkpt><trkpt lat="37.986745" lon="14.9373383"><ele>1272.3333333333333</ele><time>2026-04-28T09:26:48.201Z</time></trkpt><trkpt lat="37.9868483" lon="14.9371"><ele>1274.6666666666667</ele><time>2026-04-28T09:26:49.201Z</time></trkpt><trkpt lat="37.9869533" lon="14.9368683"><ele>1277.0</ele><time>2026-04-28T09:26:50.201Z</time></trkpt><trkpt lat="37.987065" lon="14.936635"><ele>1277.0</ele><time>2026-04-28T09:26:51.202Z</time></trkpt><trkpt lat="37.98719" lon="14.9364"><ele>1277.0</ele><time>2026-04-28T09:26:52.201Z</time></trkpt><trkpt lat="37.987325" lon="14.9361733"><ele>1277.0</ele><time>2026-04-28T09:26:53.201Z</time></trkpt><trkpt lat="37.9874533" lon="14.9359433"><ele>1281.6666666666667</ele><time>2026-04-28T09:26:54.201Z</time></trkpt><trkpt lat="37.9875833" lon="14.9357183"><ele>1286.3333333333333</ele><time>2026-04-28T09:26:55.201Z</time></trkpt><trkpt lat="37.9877183" lon="14.93549"><ele>1291.0</ele><time>2026-04-28T09:26:56.201Z</time></trkpt><trkpt lat="37.987855" lon="14.9352617"><ele>1285.0</ele><time>2026-04-28T09:26:57.201Z</time></trkpt><trkpt lat="37.987985" lon="14.9350367"><ele>1279.0</ele><time>2026-04-28T09:26:58.201Z</time></trkpt><trkpt lat="37.9881167" lon="14.9348067"><ele>1273.0</ele><time>2026-04-28T09:26:59.202Z</time></trkpt><trkpt lat="37.9882367" lon="14.9345933"><ele>1275.3333333333333</ele><time>2026-04-28T09:27:00.202Z</time></trkpt><trkpt lat="37.9883533" lon="14.9343883"><ele>1277.6666666666667</ele><time>2026-04-28T09:27:01.202Z</time></trkpt><trkpt lat="37.9884683" lon="14.93419"><ele>1280.0</ele><time>2026-04-28T09:27:02.201Z</time></trkpt><trkpt lat="37.9885733" lon="14.934015"><ele>1280.0</ele><time>2026-04-28T09:27:03.201Z</time></trkpt><trkpt lat="37.9886733" lon="14.9338517"><ele>1280.0</ele><time>2026-04-28T09:27:04.202Z</time></trkpt><trkpt lat="37.98879" lon="14.9337383"><ele>1280.0</ele><time>2026-04-28T09:27:05.201Z</time></trkpt><trkpt lat="37.9889267" lon="14.933645"><ele>1280.0</ele><time>2026-04-28T09:27:06.201Z</time></trkpt><trkpt lat="37.989075" lon="14.933565"><ele>1280.0</ele><time>2026-04-28T09:27:07.201Z</time></trkpt><trkpt lat="37.9892217" lon="14.933495"><ele>1280.0</ele><time>2026-04-28T09:27:08.201Z</time></trkpt><trkpt lat="37.989355" lon="14.9334117"><ele>1279.25</ele><time>2026-04-28T09:27:09.202Z</time></trkpt><trkpt lat="37.9894817" lon="14.9333533"><ele>1278.5</ele><time>2026-04-28T09:27:10.201Z</time></trkpt><trkpt lat="37.9895967" lon="14.9333267"><ele>1277.75</ele><time>2026-04-28T09:27:11.201Z</time></trkpt><trkpt lat="37.9897" lon="14.93334"><ele>1277.0</ele><time>2026-04-28T09:27:12.201Z</time></trkpt><trkpt lat="37.9897917" lon="14.9334217"><ele>1277.0</ele><time>2026-04-28T09:27:13.201Z</time></trkpt><trkpt lat="37.98986" lon="14.93354"><ele>1277.0</ele><time>2026-04-28T09:27:14.202Z</time></trkpt><trkpt lat="37.9899317" lon="14.9336883"><ele>1277.0</ele><time>2026-04-28T09:27:15.201Z</time></trkpt><trkpt lat="37.9900083" lon="14.9338333"><ele>1277.0</ele><time>2026-04-28T09:27:16.201Z</time></trkpt><trkpt lat="37.990085" lon="14.9339633"><ele>1277.5</ele><time>2026-04-28T09:27:17.201Z</time></trkpt><trkpt lat="37.9901767" lon="14.93407"><ele>1278.0</ele><time>2026-04-28T09:27:18.201Z</time></trkpt><trkpt lat="37.9902767" lon="14.93416"><ele>1278.5</ele><time>2026-04-28T09:27:19.201Z</time></trkpt><trkpt lat="37.9903983" lon="14.9342017"><ele>1279.0</ele><time>2026-04-28T09:27:20.201Z</time></trkpt><trkpt lat="37.9905217" lon="14.9342"><ele>1279.0</ele><time>2026-04-28T09:27:21.201Z</time></trkpt><trkpt lat="37.9906483" lon="14.9341433"><ele>1279.0</ele><time>2026-04-28T09:27:22.201Z</time></trkpt><trkpt lat="37.9907567" lon="14.934045"><ele>1279.0</ele><time>2026-04-28T09:27:23.202Z</time></trkpt><trkpt lat="37.990855" lon="14.9339067"><ele>1279.0</ele><time>2026-04-28T09:27:24.201Z</time></trkpt><trkpt lat="37.9909367" lon="14.9337583"><ele>1279.6666666666665</ele><time>2026-04-28T09:27:25.201Z</time></trkpt><trkpt lat="37.991025" lon="14.9335967"><ele>1280.3333333333333</ele><time>2026-04-28T09:27:26.201Z</time></trkpt><trkpt lat="37.99112" lon="14.9334317"><ele>1281.0</ele><time>2026-04-28T09:27:27.201Z</time></trkpt><trkpt lat="37.991215" lon="14.9332617"><ele>1281.0</ele><time>2026-04-28T09:27:28.201Z</time></trkpt><trkpt lat="37.9913167" lon="14.9330933"><ele>1281.0</ele><time>2026-04-28T09:27:29.201Z</time></trkpt><trkpt lat="37.9914317" lon="14.9329383"><ele>1281.0</ele><time>2026-04-28T09:27:30.201Z</time></trkpt><trkpt lat="37.9915567" lon="14.9327817"><ele>1282.6666666666667</ele><time>2026-04-28T09:27:31.201Z</time></trkpt><trkpt lat="37.9916917" lon="14.93263"><ele>1284.3333333333335</ele><time>2026-04-28T09:27:32.201Z</time></trkpt><trkpt lat="37.9918233" lon="14.9324783"><ele>1286.0</ele><time>2026-04-28T09:27:33.202Z</time></trkpt><trkpt lat="37.991965" lon="14.93233"><ele>1286.0</ele><time>2026-04-28T09:27:34.201Z</time></trkpt><trkpt lat="37.99211" lon="14.9321967"><ele>1286.0</ele><time>2026-04-28T09:27:35.201Z</time></trkpt><trkpt lat="37.9922667" lon="14.9320683"><ele>1286.0</ele><time>2026-04-28T09:27:36.201Z</time></trkpt><trkpt lat="37.99243" lon="14.931955"><ele>1286.6666666666667</ele><time>2026-04-28T09:27:37.201Z</time></trkpt><trkpt lat="37.9926017" lon="14.9318617"><ele>1287.3333333333333</ele><time>2026-04-28T09:27:38.201Z</time></trkpt><trkpt lat="37.9927717" lon="14.93178"><ele>1288.0</ele><time>2026-04-28T09:27:39.201Z</time></trkpt><trkpt lat="37.992925" lon="14.9317083"><ele>1288.0</ele><time>2026-04-28T09:27:40.201Z</time></trkpt><trkpt lat="37.9930567" lon="14.931635"><ele>1288.0</ele><time>2026-04-28T09:27:41.201Z</time></trkpt><trkpt lat="37.99317" lon="14.9315683"><ele>1288.0</ele><time>2026-04-28T09:27:42.202Z</time></trkpt><trkpt lat="37.9932433" lon="14.9314833"><ele>1288.0</ele><time>2026-04-28T09:27:43.201Z</time></trkpt><trkpt lat="37.99327" lon="14.9313767"><ele>1288.0</ele><time>2026-04-28T09:27:44.201Z</time></trkpt><trkpt lat="37.993255" lon="14.9312683"><ele>1288.0</ele><time>2026-04-28T09:27:45.201Z</time></trkpt><trkpt lat="37.9932067" lon="14.9311733"><ele>1288.0</ele><time>2026-04-28T09:27:46.201Z</time></trkpt><trkpt lat="37.99313" lon="14.93108"><ele>1288.0</ele><time>2026-04-28T09:27:47.201Z</time></trkpt><trkpt lat="37.9930117" lon="14.9310133"><ele>1288.0</ele><time>2026-04-28T09:27:48.202Z</time></trkpt><trkpt lat="37.992875" lon="14.930945"><ele>1288.25</ele><time>2026-04-28T09:27:49.201Z</time></trkpt><trkpt lat="37.99274" lon="14.930875"><ele>1288.5</ele><time>2026-04-28T09:27:50.201Z</time></trkpt><trkpt lat="37.9926033" lon="14.930805"><ele>1288.75</ele><time>2026-04-28T09:27:51.202Z</time></trkpt><trkpt lat="37.9924833" lon="14.9307267"><ele>1289.0</ele><time>2026-04-28T09:27:52.201Z</time></trkpt><trkpt lat="37.99239" lon="14.9306317"><ele>1287.0</ele><time>2026-04-28T09:27:53.201Z</time></trkpt><trkpt lat="37.9923233" lon="14.9305083"><ele>1285.0</ele><time>2026-04-28T09:27:54.201Z</time></trkpt><trkpt lat="37.9922867" lon="14.930375"><ele>1283.0</ele><time>2026-04-28T09:27:55.201Z</time></trkpt><trkpt lat="37.9922917" lon="14.9302383"><ele>1281.0</ele><time>2026-04-28T09:27:56.201Z</time></trkpt><trkpt lat="37.9923317" lon="14.9300833"><ele>1281.25</ele><time>2026-04-28T09:27:57.201Z</time></trkpt><trkpt lat="37.99237" lon="14.9299183"><ele>1281.5</ele><time>2026-04-28T09:27:58.201Z</time></trkpt><trkpt lat="37.9924017" lon="14.929745"><ele>1281.75</ele><time>2026-04-28T09:27:59.201Z</time></trkpt><trkpt lat="37.9924233" lon="14.9295633"><ele>1282.0</ele><time>2026-04-28T09:28:00.201Z</time></trkpt><trkpt lat="37.99242" lon="14.92937"><ele>1281.3333333333333</ele><time>2026-04-28T09:28:01.201Z</time></trkpt><trkpt lat="37.9923883" lon="14.9291817"><ele>1280.6666666666667</ele><time>2026-04-28T09:28:02.202Z</time></trkpt><trkpt lat="37.9923267" lon="14.9289883"><ele>1280.0</ele><time>2026-04-28T09:28:03.201Z</time></trkpt><trkpt lat="37.9922533" lon="14.9288"><ele>1280.0</ele><time>2026-04-28T09:28:04.201Z</time></trkpt><trkpt lat="37.9921783" lon="14.9286067"><ele>1280.0</ele><time>2026-04-28T09:28:05.201Z</time></trkpt><trkpt lat="37.9921033" lon="14.9284283"><ele>1280.0</ele><time>2026-04-28T09:28:06.201Z</time></trkpt><trkpt lat="37.99204" lon="14.92825"><ele>1281.5</ele><time>2026-04-28T09:28:07.201Z</time></trkpt><trkpt lat="37.9919817" lon="14.92809"><ele>1283.0</ele><time>2026-04-28T09:28:08.201Z</time></trkpt><trkpt lat="37.9919167" lon="14.9279283"><ele>1284.5</ele><time>2026-04-28T09:28:09.201Z</time></trkpt><trkpt lat="37.9918533" lon="14.9277767"><ele>1286.0</ele><time>2026-04-28T09:28:10.202Z</time></trkpt><trkpt lat="37.9917933" lon="14.92764"><ele>1285.0</ele><time>2026-04-28T09:28:11.201Z</time></trkpt><trkpt lat="37.99173" lon="14.9274883"><ele>1284.0</ele><time>2026-04-28T09:28:12.201Z</time></trkpt><trkpt lat="37.9916683" lon="14.9273367"><ele>1283.0</ele><time>2026-04-28T09:28:13.201Z</time></trkpt><trkpt lat="37.99161" lon="14.9271733"><ele>1282.0</ele><time>2026-04-28T09:28:14.201Z</time></trkpt><trkpt lat="37.9915383" lon="14.9270033"><ele>1281.3333333333333</ele><time>2026-04-28T09:28:15.201Z</time></trkpt><trkpt lat="37.9914567" lon="14.926835"><ele>1280.6666666666667</ele><time>2026-04-28T09:28:16.201Z</time></trkpt><trkpt lat="37.9913483" lon="14.9266617"><ele>1280.0</ele><time>2026-04-28T09:28:17.201Z</time></trkpt><trkpt lat="37.9912183" lon="14.9265017"><ele>1280.0</ele><time>2026-04-28T09:28:18.201Z</time></trkpt><trkpt lat="37.9910733" lon="14.9263483"><ele>1280.0</ele><time>2026-04-28T09:28:19.201Z</time></trkpt><trkpt lat="37.9909217" lon="14.926185"><ele>1280.0</ele><time>2026-04-28T09:28:20.201Z</time></trkpt><trkpt lat="37.9907817" lon="14.9260233"><ele>1279.6666666666667</ele><time>2026-04-28T09:28:21.201Z</time></trkpt><trkpt lat="37.9906383" lon="14.9258633"><ele>1279.3333333333333</ele><time>2026-04-28T09:28:22.201Z</time></trkpt><trkpt lat="37.9904967" lon="14.9257033"><ele>1279.0</ele><time>2026-04-28T09:28:23.202Z</time></trkpt><trkpt lat="37.9903617" lon="14.92555"><ele>1279.0</ele><time>2026-04-28T09:28:24.201Z</time></trkpt><trkpt lat="37.990225" lon="14.92541"><ele>1279.0</ele><time>2026-04-28T09:28:25.201Z</time></trkpt><trkpt lat="37.9901017" lon="14.92527"><ele>1279.0</ele><time>2026-04-28T09:28:26.202Z</time></trkpt><trkpt lat="37.9899867" lon="14.9251217"><ele>1279.3333333333333</ele><time>2026-04-28T09:28:27.201Z</time></trkpt><trkpt lat="37.9898817" lon="14.9249867"><ele>1279.6666666666667</ele><time>2026-04-28T09:28:28.202Z</time></trkpt><trkpt lat="37.9897883" lon="14.9248333"><ele>1280.0</ele><time>2026-04-28T09:28:29.202Z</time></trkpt><trkpt lat="37.9897133" lon="14.92466"><ele>1280.0</ele><time>2026-04-28T09:28:30.201Z</time></trkpt><trkpt lat="37.9896417" lon="14.924485"><ele>1280.0</ele><time>2026-04-28T09:28:31.202Z</time></trkpt><trkpt lat="37.9895733" lon="14.924295"><ele>1280.0</ele><time>2026-04-28T09:28:32.201Z</time></trkpt><trkpt lat="37.9894983" lon="14.9241"><ele>1287.3333333333335</ele><time>2026-04-28T09:28:33.201Z</time></trkpt><trkpt lat="37.9894167" lon="14.9239167"><ele>1294.6666666666667</ele><time>2026-04-28T09:28:34.201Z</time></trkpt><trkpt lat="37.9893267" lon="14.9237283"><ele>1302.0</ele><time>2026-04-28T09:28:35.201Z</time></trkpt><trkpt lat="37.9892183" lon="14.92355"><ele>1298.0</ele><time>2026-04-28T09:28:36.201Z</time></trkpt><trkpt lat="37.9891" lon="14.9233717"><ele>1294.0</ele><time>2026-04-28T09:28:37.201Z</time></trkpt><trkpt lat="37.9889933" lon="14.9232267"><ele>1290.0</ele><time>2026-04-28T09:28:38.201Z</time></trkpt><trkpt lat="37.9888833" lon="14.9230933"><ele>1290.0</ele><time>2026-04-28T09:28:39.201Z</time></trkpt><trkpt lat="37.9887567" lon="14.9229733"><ele>1290.0</ele><time>2026-04-28T09:28:40.201Z</time></trkpt><trkpt lat="37.98861" lon="14.92288"><ele>1290.0</ele><time>2026-04-28T09:28:41.201Z</time></trkpt><trkpt lat="37.9884417" lon="14.9227917"><ele>1291.0</ele><time>2026-04-28T09:28:42.201Z</time></trkpt><trkpt lat="37.9882683" lon="14.9227033"><ele>1292.0</ele><time>2026-04-28T09:28:43.201Z</time></trkpt><trkpt lat="37.9880867" lon="14.922615"><ele>1293.0</ele><time>2026-04-28T09:28:44.201Z</time></trkpt><trkpt lat="37.9879083" lon="14.9225233"><ele>1293.0</ele><time>2026-04-28T09:28:45.201Z</time></trkpt><trkpt lat="37.9877467" lon="14.9224417"><ele>1293.0</ele><time>2026-04-28T09:28:46.201Z</time></trkpt><trkpt lat="37.98759" lon="14.9223567"><ele>1293.0</ele><time>2026-04-28T09:28:47.201Z</time></trkpt><trkpt lat="37.9874583" lon="14.9222667"><ele>1291.75</ele><time>2026-04-28T09:28:48.201Z</time></trkpt><trkpt lat="37.987345" lon="14.9221517"><ele>1290.5</ele><time>2026-04-28T09:28:49.201Z</time></trkpt><trkpt lat="37.9872617" lon="14.9220033"><ele>1289.25</ele><time>2026-04-28T09:28:50.201Z</time></trkpt><trkpt lat="37.98721" lon="14.9218283"><ele>1288.0</ele><time>2026-04-28T09:28:51.201Z</time></trkpt><trkpt lat="37.9871933" lon="14.9216417"><ele>1288.0</ele><time>2026-04-28T09:28:52.201Z</time></trkpt><trkpt lat="37.98721" lon="14.921445"><ele>1288.0</ele><time>2026-04-28T09:28:53.201Z</time></trkpt><trkpt lat="37.987255" lon="14.9212767"><ele>1288.0</ele><time>2026-04-28T09:28:54.201Z</time></trkpt><trkpt lat="37.9873417" lon="14.9211117"><ele>1288.0</ele><time>2026-04-28T09:28:55.201Z</time></trkpt><trkpt lat="37.987455" lon="14.9209683"><ele>1288.0</ele><time>2026-04-28T09:28:56.201Z</time></trkpt><trkpt lat="37.9875783" lon="14.9208033"><ele>1288.0</ele><time>2026-04-28T09:28:57.201Z</time></trkpt><trkpt lat="37.9877067" lon="14.9206383"><ele>1296.0</ele><time>2026-04-28T09:28:58.201Z</time></trkpt><trkpt lat="37.9878233" lon="14.92047"><ele>1304.0</ele><time>2026-04-28T09:28:59.201Z</time></trkpt><trkpt lat="37.9879617" lon="14.9202983"><ele>1312.0</ele><time>2026-04-28T09:29:00.202Z</time></trkpt><trkpt lat="37.9881" lon="14.9201567"><ele>1309.0</ele><time>2026-04-28T09:29:01.201Z</time></trkpt><trkpt lat="37.9882517" lon="14.920045"><ele>1306.0</ele><time>2026-04-28T09:29:02.202Z</time></trkpt><trkpt lat="37.988415" lon="14.9199267"><ele>1303.0</ele><time>2026-04-28T09:29:03.201Z</time></trkpt><trkpt lat="37.9885733" lon="14.9197983"><ele>1303.0</ele><time>2026-04-28T09:29:04.201Z</time></trkpt><trkpt lat="37.9887267" lon="14.919645"><ele>1303.0</ele><time>2026-04-28T09:29:05.201Z</time></trkpt><trkpt lat="37.9888733" lon="14.919495"><ele>1303.0</ele><time>2026-04-28T09:29:06.201Z</time></trkpt><trkpt lat="37.9890067" lon="14.9193583"><ele>1304.0</ele><time>2026-04-28T09:29:07.201Z</time></trkpt><trkpt lat="37.9891183" lon="14.9192"><ele>1305.0</ele><time>2026-04-28T09:29:08.202Z</time></trkpt><trkpt lat="37.9892117" lon="14.9190133"><ele>1306.0</ele><time>2026-04-28T09:29:09.201Z</time></trkpt><trkpt lat="37.9892783" lon="14.9188"><ele>1306.0</ele><time>2026-04-28T09:29:10.201Z</time></trkpt><trkpt lat="37.98934" lon="14.91859"><ele>1306.0</ele><time>2026-04-28T09:29:11.201Z</time></trkpt><trkpt lat="37.9893917" lon="14.9183717"><ele>1306.0</ele><time>2026-04-28T09:29:12.201Z</time></trkpt><trkpt lat="37.9894383" lon="14.9181533"><ele>1303.3333333333333</ele><time>2026-04-28T09:29:13.202Z</time></trkpt><trkpt lat="37.989485" lon="14.9179283"><ele>1300.6666666666667</ele><time>2026-04-28T09:29:14.201Z</time></trkpt><trkpt lat="37.989535" lon="14.9177033"><ele>1298.0</ele><time>2026-04-28T09:29:15.201Z</time></trkpt><trkpt lat="37.98958" lon="14.9174833"><ele>1296.0</ele><time>2026-04-28T09:29:16.201Z</time></trkpt><trkpt lat="37.9896267" lon="14.9172617"><ele>1294.0</ele><time>2026-04-28T09:29:17.201Z</time></trkpt><trkpt lat="37.9896667" lon="14.9170383"><ele>1292.0</ele><time>2026-04-28T09:29:18.201Z</time></trkpt><trkpt lat="37.98971" lon="14.91682"><ele>1290.6666666666667</ele><time>2026-04-28T09:29:19.201Z</time></trkpt><trkpt lat="37.9897433" lon="14.9166117"><ele>1289.3333333333333</ele><time>2026-04-28T09:29:20.201Z</time></trkpt><trkpt lat="37.9897817" lon="14.916405"><ele>1288.0</ele><time>2026-04-28T09:29:21.202Z</time></trkpt><trkpt lat="37.9898217" lon="14.9162033"><ele>1288.0</ele><time>2026-04-28T09:29:22.201Z</time></trkpt><trkpt lat="37.9898567" lon="14.9160017"><ele>1288.0</ele><time>2026-04-28T09:29:23.201Z</time></trkpt><trkpt lat="37.9898917" lon="14.9158083"><ele>1288.0</ele><time>2026-04-28T09:29:24.201Z</time></trkpt><trkpt lat="37.9899283" lon="14.9156183"><ele>1286.3333333333333</ele><time>2026-04-28T09:29:25.202Z</time></trkpt><trkpt lat="37.989965" lon="14.9154283"><ele>1284.6666666666667</ele><time>2026-04-28T09:29:26.202Z</time></trkpt><trkpt lat="37.990005" lon="14.9152433"><ele>1283.0</ele><time>2026-04-28T09:29:27.201Z</time></trkpt><trkpt lat="37.9900417" lon="14.9150633"><ele>1286.75</ele><time>2026-04-28T09:29:28.201Z</time></trkpt><trkpt lat="37.9900817" lon="14.91489"><ele>1290.5</ele><time>2026-04-28T09:29:29.201Z</time></trkpt><trkpt lat="37.9901117" lon="14.9147367"><ele>1294.25</ele><time>2026-04-28T09:29:30.201Z</time></trkpt><trkpt lat="37.9901167" lon="14.9145867"><ele>1298.0</ele><time>2026-04-28T09:29:31.201Z</time></trkpt><trkpt lat="37.9900833" lon="14.914465"><ele>1298.0</ele><time>2026-04-28T09:29:32.201Z</time></trkpt><trkpt lat="37.9900367" lon="14.9143567"><ele>1298.0</ele><time>2026-04-28T09:29:33.201Z</time></trkpt><trkpt lat="37.9900033" lon="14.91424"><ele>1298.0</ele><time>2026-04-28T09:29:34.201Z</time></trkpt><trkpt lat="37.9900017" lon="14.9141267"><ele>1298.0</ele><time>2026-04-28T09:29:35.202Z</time></trkpt><trkpt lat="37.9900183" lon="14.9140117"><ele>1298.0</ele><time>2026-04-28T09:29:36.201Z</time></trkpt><trkpt lat="37.9900317" lon="14.9139033"><ele>1297.5714285714284</ele><time>2026-04-28T09:29:37.201Z</time></trkpt><trkpt lat="37.9900317" lon="14.9137983"><ele>1297.142857142857</ele><time>2026-04-28T09:29:38.202Z</time></trkpt><trkpt lat="37.990035" lon="14.913695"><ele>1296.7142857142858</ele><time>2026-04-28T09:29:39.201Z</time></trkpt><trkpt lat="37.9900333" lon="14.9135983"><ele>1296.2857142857142</ele><time>2026-04-28T09:29:40.201Z</time></trkpt><trkpt lat="37.990015" lon="14.913515"><ele>1295.857142857143</ele><time>2026-04-28T09:29:41.201Z</time></trkpt><trkpt lat="37.9899983" lon="14.9134317"><ele>1295.4285714285713</ele><time>2026-04-28T09:29:42.201Z</time></trkpt><trkpt lat="37.9899717" lon="14.91335"><ele>1295.0</ele><time>2026-04-28T09:29:43.201Z</time></trkpt><trkpt lat="37.98994" lon="14.9132717"><ele>1292.1666666666667</ele><time>2026-04-28T09:29:44.201Z</time></trkpt><trkpt lat="37.98991" lon="14.9131983"><ele>1289.3333333333335</ele><time>2026-04-28T09:29:45.202Z</time></trkpt><trkpt lat="37.9898533" lon="14.9130767"><ele>1286.5</ele><time>2026-04-28T09:29:47.201Z</time></trkpt><trkpt lat="37.9898217" lon="14.9129683"><ele>1283.6666666666667</ele><time>2026-04-28T09:29:49.201Z</time></trkpt><trkpt lat="37.9898067" lon="14.912875"><ele>1280.8333333333333</ele><time>2026-04-28T09:29:51.201Z</time></trkpt><trkpt lat="37.9897867" lon="14.91277"><ele>1278.0</ele><time>2026-04-28T09:29:53.201Z</time></trkpt><trkpt lat="37.9897533" lon="14.9126133"><ele>1278.6666666666667</ele><time>2026-04-28T09:29:55.2Z</time></trkpt><trkpt lat="37.9897217" lon="14.9125267"><ele>1279.3333333333333</ele><time>2026-04-28T09:29:56.2Z</time></trkpt><trkpt lat="37.9896817" lon="14.91244"><ele>1280.0</ele><time>2026-04-28T09:29:57.201Z</time></trkpt><trkpt lat="37.98963" lon="14.912355"><ele>1280.6666666666665</ele><time>2026-04-28T09:29:58.2Z</time></trkpt><trkpt lat="37.9895667" lon="14.91227"><ele>1281.3333333333333</ele><time>2026-04-28T09:29:59.201Z</time></trkpt><trkpt lat="37.9895" lon="14.9121933"><ele>1282.0</ele><time>2026-04-28T09:30:00.2Z</time></trkpt><trkpt lat="37.9894117" lon="14.9121233"><ele>1282.0</ele><time>2026-04-28T09:30:01.2Z</time></trkpt><trkpt lat="37.989345" lon="14.9120483"><ele>1282.0</ele><time>2026-04-28T09:30:02.2Z</time></trkpt><trkpt lat="37.9892817" lon="14.9119833"><ele>1282.0</ele><time>2026-04-28T09:30:03.2Z</time></trkpt><trkpt lat="37.98923" lon="14.9119283"><ele>1282.0</ele><time>2026-04-28T09:30:04.2Z</time></trkpt><trkpt lat="37.98915" lon="14.91183"><ele>1282.0</ele><time>2026-04-28T09:30:06.2Z</time></trkpt><trkpt lat="37.989125" lon="14.911725"><ele>1282.0</ele><time>2026-04-28T09:30:08.2Z</time></trkpt><trkpt lat="37.98915" lon="14.9115717"><ele>1281.0</ele><time>2026-04-28T09:30:10.201Z</time></trkpt><trkpt lat="37.989155" lon="14.9114217"><ele>1280.0</ele><time>2026-04-28T09:30:12.2Z</time></trkpt><trkpt lat="37.9891233" lon="14.9112883"><ele>1279.0</ele><time>2026-04-28T09:30:14.201Z</time></trkpt><trkpt lat="37.9890983" lon="14.9112133"><ele>1278.0</ele><time>2026-04-28T09:30:15.2Z</time></trkpt><trkpt lat="37.98903" lon="14.9110867"><ele>1277.0</ele><time>2026-04-28T09:30:17.2Z</time></trkpt><trkpt lat="37.9889433" lon="14.910975"><ele>1280.0</ele><time>2026-04-28T09:30:19.2Z</time></trkpt><trkpt lat="37.9888583" lon="14.9108783"><ele>1283.0</ele><time>2026-04-28T09:30:21.2Z</time></trkpt><trkpt lat="37.9887733" lon="14.910785"><ele>1286.0</ele><time>2026-04-28T09:30:23.2Z</time></trkpt><trkpt lat="37.98869" lon="14.910685"><ele>1289.0</ele><time>2026-04-28T09:30:25.2Z</time></trkpt><trkpt lat="37.988605" lon="14.91059"><ele>1289.0</ele><time>2026-04-28T09:30:27.201Z</time></trkpt><trkpt lat="37.9885567" lon="14.9105383"><ele>1289.0</ele><time>2026-04-28T09:30:28.2Z</time></trkpt><trkpt lat="37.9885067" lon="14.9104883"><ele>1289.0</ele><time>2026-04-28T09:30:29.2Z</time></trkpt><trkpt lat="37.9884133" lon="14.910395"><ele>1289.0</ele><time>2026-04-28T09:30:31.2Z</time></trkpt><trkpt lat="37.98832" lon="14.9102917"><ele>1289.0</ele><time>2026-04-28T09:30:33.2Z</time></trkpt><trkpt lat="37.98827" lon="14.9102333"><ele>1289.0</ele><time>2026-04-28T09:30:34.2Z</time></trkpt><trkpt lat="37.9882167" lon="14.9101833"><ele>1288.0</ele><time>2026-04-28T09:30:35.201Z</time></trkpt><trkpt lat="37.9881683" lon="14.9101267"><ele>1287.0</ele><time>2026-04-28T09:30:36.2Z</time></trkpt><trkpt lat="37.988115" lon="14.9100833"><ele>1286.0</ele><time>2026-04-28T09:30:37.2Z</time></trkpt><trkpt lat="37.98804" lon="14.9100017"><ele>1285.0</ele><time>2026-04-28T09:30:39.2Z</time></trkpt><trkpt lat="37.9880183" lon="14.9099"><ele>1284.0</ele><time>2026-04-28T09:30:42.2Z</time></trkpt><trkpt lat="37.9880083" lon="14.9097933"><ele>1283.0</ele><time>2026-04-28T09:30:45.2Z</time></trkpt><trkpt lat="37.9880283" lon="14.9098933"><ele>1283.0</ele><time>2026-04-28T09:33:26.201Z</time></trkpt><trkpt lat="37.9880817" lon="14.9099983"><ele>1283.0</ele><time>2026-04-28T09:33:28.2Z</time></trkpt><trkpt lat="37.988145" lon="14.9100767"><ele>1283.0</ele><time>2026-04-28T09:33:29.2Z</time></trkpt><trkpt lat="37.988215" lon="14.91016"><ele>1283.0</ele><time>2026-04-28T09:33:30.2Z</time></trkpt><trkpt lat="37.9882933" lon="14.9102433"><ele>1283.0</ele><time>2026-04-28T09:33:31.2Z</time></trkpt><trkpt lat="37.9883717" lon="14.910325"><ele>1284.2</ele><time>2026-04-28T09:33:32.2Z</time></trkpt><trkpt lat="37.9884467" lon="14.9104133"><ele>1285.4</ele><time>2026-04-28T09:33:33.2Z</time></trkpt><trkpt lat="37.9885217" lon="14.9104983"><ele>1286.6000000000001</ele><time>2026-04-28T09:33:34.2Z</time></trkpt><trkpt lat="37.9886033" lon="14.9105883"><ele>1287.8000000000002</ele><time>2026-04-28T09:33:35.2Z</time></trkpt><trkpt lat="37.9886917" lon="14.9106933"><ele>1289.0</ele><time>2026-04-28T09:33:36.2Z</time></trkpt><trkpt lat="37.98879" lon="14.910815"><ele>1286.6000000000001</ele><time>2026-04-28T09:33:37.2Z</time></trkpt><trkpt lat="37.988865" lon="14.910915"><ele>1284.2</ele><time>2026-04-28T09:33:38.2Z</time></trkpt><trkpt lat="37.9889333" lon="14.911015"><ele>1281.8000000000002</ele><time>2026-04-28T09:33:39.2Z</time></trkpt><trkpt lat="37.9889983" lon="14.9111083"><ele>1279.4</ele><time>2026-04-28T09:33:40.2Z</time></trkpt><trkpt lat="37.9890567" lon="14.9111867"><ele>1277.0</ele><time>2026-04-28T09:33:41.201Z</time></trkpt><trkpt lat="37.9891117" lon="14.91128"><ele>1277.0</ele><time>2026-04-28T09:33:42.2Z</time></trkpt><trkpt lat="37.9891517" lon="14.9113783"><ele>1277.0</ele><time>2026-04-28T09:33:43.2Z</time></trkpt><trkpt lat="37.98916" lon="14.91147"><ele>1277.0</ele><time>2026-04-28T09:33:44.2Z</time></trkpt><trkpt lat="37.9891783" lon="14.91157"><ele>1277.0</ele><time>2026-04-28T09:33:45.2Z</time></trkpt><trkpt lat="37.9891833" lon="14.9116867"><ele>1277.0</ele><time>2026-04-28T09:33:46.2Z</time></trkpt><trkpt lat="37.9892017" lon="14.91179"><ele>1277.0</ele><time>2026-04-28T09:33:47.2Z</time></trkpt><trkpt lat="37.98922" lon="14.9118967"><ele>1278.0</ele><time>2026-04-28T09:33:48.2Z</time></trkpt><trkpt lat="37.98926" lon="14.9119967"><ele>1279.0</ele><time>2026-04-28T09:33:49.2Z</time></trkpt><trkpt lat="37.9893317" lon="14.9120783"><ele>1280.0</ele><time>2026-04-28T09:33:50.201Z</time></trkpt><trkpt lat="37.9894033" lon="14.9121767"><ele>1281.0</ele><time>2026-04-28T09:33:51.2Z</time></trkpt><trkpt lat="37.98948" lon="14.9122667"><ele>1282.0</ele><time>2026-04-28T09:33:52.2Z</time></trkpt><trkpt lat="37.9895567" lon="14.9123633"><ele>1282.0</ele><time>2026-04-28T09:33:53.2Z</time></trkpt><trkpt lat="37.9896367" lon="14.9124867"><ele>1282.0</ele><time>2026-04-28T09:33:54.2Z</time></trkpt><trkpt lat="37.9897" lon="14.9126333"><ele>1282.0</ele><time>2026-04-28T09:33:55.201Z</time></trkpt><trkpt lat="37.9897483" lon="14.912795"><ele>1282.0</ele><time>2026-04-28T09:33:56.2Z</time></trkpt><trkpt lat="37.9897867" lon="14.9129567"><ele>1281.6</ele><time>2026-04-28T09:33:57.2Z</time></trkpt><trkpt lat="37.989835" lon="14.913095"><ele>1281.1999999999998</ele><time>2026-04-28T09:33:58.2Z</time></trkpt><trkpt lat="37.9898733" lon="14.9132233"><ele>1280.8</ele><time>2026-04-28T09:33:59.2Z</time></trkpt><trkpt lat="37.9899117" lon="14.913335"><ele>1280.4</ele><time>2026-04-28T09:34:00.2Z</time></trkpt><trkpt lat="37.9899433" lon="14.9134383"><ele>1280.0</ele><time>2026-04-28T09:34:01.2Z</time></trkpt><trkpt lat="37.9899667" lon="14.91352"><ele>1280.0</ele><time>2026-04-28T09:34:02.2Z</time></trkpt><trkpt lat="37.9899983" lon="14.913615"><ele>1280.0</ele><time>2026-04-28T09:34:04.201Z</time></trkpt><trkpt lat="37.9900583" lon="14.9135883"><ele>1280.0</ele><time>2026-04-28T09:34:08.2Z</time></trkpt><trkpt lat="37.990025" lon="14.9135167"><ele>1280.0</ele><time>2026-04-28T09:58:11.198Z</time></trkpt><trkpt lat="37.9899967" lon="14.9134367"><ele>1280.0</ele><time>2026-04-28T09:58:13.198Z</time></trkpt><trkpt lat="37.9899533" lon="14.9133567"><ele>1280.0</ele><time>2026-04-28T09:58:15.198Z</time></trkpt><trkpt lat="37.9898983" lon="14.9132517"><ele>1279.6666666666667</ele><time>2026-04-28T09:58:17.198Z</time></trkpt><trkpt lat="37.9898467" lon="14.9131133"><ele>1279.3333333333335</ele><time>2026-04-28T09:58:19.198Z</time></trkpt><trkpt lat="37.989805" lon="14.9129683"><ele>1279.0</ele><time>2026-04-28T09:58:21.199Z</time></trkpt><trkpt lat="37.9897883" lon="14.9128883"><ele>1278.6666666666667</ele><time>2026-04-28T09:58:22.198Z</time></trkpt><trkpt lat="37.9897683" lon="14.9128033"><ele>1278.3333333333333</ele><time>2026-04-28T09:58:23.198Z</time></trkpt><trkpt lat="37.9897467" lon="14.9127167"><ele>1278.0</ele><time>2026-04-28T09:58:24.198Z</time></trkpt><trkpt lat="37.98972" lon="14.9126317"><ele>1278.6666666666667</ele><time>2026-04-28T09:58:25.199Z</time></trkpt><trkpt lat="37.9896883" lon="14.9125483"><ele>1279.3333333333333</ele><time>2026-04-28T09:58:26.198Z</time></trkpt><trkpt lat="37.9896483" lon="14.9124583"><ele>1280.0</ele><time>2026-04-28T09:58:27.198Z</time></trkpt><trkpt lat="37.9895983" lon="14.9123767"><ele>1280.6666666666665</ele><time>2026-04-28T09:58:28.198Z</time></trkpt><trkpt lat="37.9895333" lon="14.912305"><ele>1281.3333333333333</ele><time>2026-04-28T09:58:29.198Z</time></trkpt><trkpt lat="37.9894617" lon="14.9122283"><ele>1282.0</ele><time>2026-04-28T09:58:30.199Z</time></trkpt><trkpt lat="37.9893933" lon="14.9121383"><ele>1282.0</ele><time>2026-04-28T09:58:31.198Z</time></trkpt><trkpt lat="37.9893317" lon="14.9120533"><ele>1282.0</ele><time>2026-04-28T09:58:32.198Z</time></trkpt><trkpt lat="37.9892667" lon="14.9119833"><ele>1282.0</ele><time>2026-04-28T09:58:33.198Z</time></trkpt><trkpt lat="37.9892117" lon="14.9119083"><ele>1282.0</ele><time>2026-04-28T09:58:34.198Z</time></trkpt><trkpt lat="37.98917" lon="14.9118333"><ele>1282.0</ele><time>2026-04-28T09:58:35.198Z</time></trkpt><trkpt lat="37.9891367" lon="14.9117567"><ele>1282.0</ele><time>2026-04-28T09:58:36.198Z</time></trkpt><trkpt lat="37.9891367" lon="14.911665"><ele>1281.1666666666665</ele><time>2026-04-28T09:58:37.198Z</time></trkpt><trkpt lat="37.98914" lon="14.9115617"><ele>1280.3333333333333</ele><time>2026-04-28T09:58:38.199Z</time></trkpt><trkpt lat="37.98915" lon="14.9114683"><ele>1279.5</ele><time>2026-04-28T09:58:39.199Z</time></trkpt><trkpt lat="37.989145" lon="14.911385"><ele>1278.6666666666667</ele><time>2026-04-28T09:58:40.198Z</time></trkpt><trkpt lat="37.9891133" lon="14.9113033"><ele>1277.8333333333335</ele><time>2026-04-28T09:58:41.198Z</time></trkpt><trkpt lat="37.9890683" lon="14.9112167"><ele>1277.0</ele><time>2026-04-28T09:58:42.198Z</time></trkpt><trkpt lat="37.98901" lon="14.911125"><ele>1277.0</ele><time>2026-04-28T09:58:43.198Z</time></trkpt><trkpt lat="37.9889417" lon="14.9110433"><ele>1277.0</ele><time>2026-04-28T09:58:44.198Z</time></trkpt><trkpt lat="37.988865" lon="14.9109583"><ele>1277.0</ele><time>2026-04-28T09:58:45.198Z</time></trkpt><trkpt lat="37.9887883" lon="14.910875"><ele>1277.0</ele><time>2026-04-28T09:58:46.198Z</time></trkpt><trkpt lat="37.9887033" lon="14.9108067"><ele>1277.0</ele><time>2026-04-28T09:58:47.198Z</time></trkpt><trkpt lat="37.9886283" lon="14.910725"><ele>1275.6</ele><time>2026-04-28T09:58:48.198Z</time></trkpt><trkpt lat="37.988555" lon="14.9106433"><ele>1274.2</ele><time>2026-04-28T09:58:49.198Z</time></trkpt><trkpt lat="37.9884817" lon="14.9105717"><ele>1272.8</ele><time>2026-04-28T09:58:50.198Z</time></trkpt><trkpt lat="37.9884117" lon="14.9104983"><ele>1271.4</ele><time>2026-04-28T09:58:51.198Z</time></trkpt><trkpt lat="37.988345" lon="14.910425"><ele>1270.0</ele><time>2026-04-28T09:58:52.198Z</time></trkpt><trkpt lat="37.9882833" lon="14.910345"><ele>1270.0</ele><time>2026-04-28T09:58:53.199Z</time></trkpt><trkpt lat="37.9882167" lon="14.9102683"><ele>1270.0</ele><time>2026-04-28T09:58:54.198Z</time></trkpt><trkpt lat="37.9881417" lon="14.9101983"><ele>1270.0</ele><time>2026-04-28T09:58:55.198Z</time></trkpt><trkpt lat="37.9880817" lon="14.9101167"><ele>1270.0</ele><time>2026-04-28T09:58:56.198Z</time></trkpt><trkpt lat="37.9880383" lon="14.9100017"><ele>1270.0</ele><time>2026-04-28T09:58:57.198Z</time></trkpt><trkpt lat="37.98798" lon="14.90991"><ele>1272.6</ele><time>2026-04-28T09:58:58.198Z</time></trkpt><trkpt lat="37.9879133" lon="14.9098367"><ele>1275.2</ele><time>2026-04-28T09:58:59.197Z</time></trkpt><trkpt lat="37.9878383" lon="14.9097867"><ele>1277.8000000000002</ele><time>2026-04-28T09:59:00.197Z</time></trkpt><trkpt lat="37.9877533" lon="14.9097467"><ele>1280.4</ele><time>2026-04-28T09:59:01.197Z</time></trkpt><trkpt lat="37.98766" lon="14.9097083"><ele>1283.0</ele><time>2026-04-28T09:59:02.197Z</time></trkpt><trkpt lat="37.9875633" lon="14.90967"><ele>1280.5</ele><time>2026-04-28T09:59:03.198Z</time></trkpt><trkpt lat="37.9874683" lon="14.9096433"><ele>1278.0</ele><time>2026-04-28T09:59:04.197Z</time></trkpt><trkpt lat="37.9873833" lon="14.909615"><ele>1275.5</ele><time>2026-04-28T09:59:05.197Z</time></trkpt><trkpt lat="37.9873" lon="14.9095883"><ele>1273.0</ele><time>2026-04-28T09:59:06.197Z</time></trkpt><trkpt lat="37.98722" lon="14.909555"><ele>1270.5</ele><time>2026-04-28T09:59:07.197Z</time></trkpt><trkpt lat="37.9871433" lon="14.9095217"><ele>1268.0</ele><time>2026-04-28T09:59:08.197Z</time></trkpt><trkpt lat="37.9870683" lon="14.9094783"><ele>1268.0</ele><time>2026-04-28T09:59:09.197Z</time></trkpt><trkpt lat="37.98699" lon="14.9094217"><ele>1268.0</ele><time>2026-04-28T09:59:10.197Z</time></trkpt><trkpt lat="37.986915" lon="14.909345"><ele>1268.0</ele><time>2026-04-28T09:59:11.197Z</time></trkpt><trkpt lat="37.9868367" lon="14.9092667"><ele>1268.0</ele><time>2026-04-28T09:59:12.198Z</time></trkpt><trkpt lat="37.98676" lon="14.9091733"><ele>1268.0</ele><time>2026-04-28T09:59:13.197Z</time></trkpt><trkpt lat="37.9866867" lon="14.9090683"><ele>1267.75</ele><time>2026-04-28T09:59:14.197Z</time></trkpt><trkpt lat="37.9866183" lon="14.9089583"><ele>1267.5</ele><time>2026-04-28T09:59:15.197Z</time></trkpt><trkpt lat="37.9865533" lon="14.9088417"><ele>1267.25</ele><time>2026-04-28T09:59:16.197Z</time></trkpt><trkpt lat="37.9864883" lon="14.9087217"><ele>1267.0</ele><time>2026-04-28T09:59:17.197Z</time></trkpt><trkpt lat="37.9864183" lon="14.9085833"><ele>1267.0</ele><time>2026-04-28T09:59:18.197Z</time></trkpt><trkpt lat="37.9863417" lon="14.90845"><ele>1267.0</ele><time>2026-04-28T09:59:19.197Z</time></trkpt><trkpt lat="37.9862667" lon="14.90832"><ele>1267.0</ele><time>2026-04-28T09:59:20.197Z</time></trkpt><trkpt lat="37.986195" lon="14.9081983"><ele>1267.0</ele><time>2026-04-28T09:59:21.197Z</time></trkpt><trkpt lat="37.9861267" lon="14.90809"><ele>1268.0</ele><time>2026-04-28T09:59:22.197Z</time></trkpt><trkpt lat="37.9860783" lon="14.907965"><ele>1269.0</ele><time>2026-04-28T09:59:23.197Z</time></trkpt><trkpt lat="37.9860267" lon="14.9078467"><ele>1270.0</ele><time>2026-04-28T09:59:24.197Z</time></trkpt><trkpt lat="37.9859683" lon="14.9077267"><ele>1271.0</ele><time>2026-04-28T09:59:25.197Z</time></trkpt><trkpt lat="37.98592" lon="14.9076067"><ele>1272.0</ele><time>2026-04-28T09:59:26.197Z</time></trkpt><trkpt lat="37.98587" lon="14.9074833"><ele>1269.75</ele><time>2026-04-28T09:59:27.197Z</time></trkpt><trkpt lat="37.9858267" lon="14.907355"><ele>1267.5</ele><time>2026-04-28T09:59:28.197Z</time></trkpt><trkpt lat="37.985785" lon="14.9072267"><ele>1265.25</ele><time>2026-04-28T09:59:29.197Z</time></trkpt><trkpt lat="37.985745" lon="14.9070917"><ele>1263.0</ele><time>2026-04-28T09:59:30.197Z</time></trkpt><trkpt lat="37.9857167" lon="14.9069467"><ele>1263.0</ele><time>2026-04-28T09:59:31.197Z</time></trkpt><trkpt lat="37.9857017" lon="14.9068"><ele>1263.0</ele><time>2026-04-28T09:59:32.197Z</time></trkpt><trkpt lat="37.9857" lon="14.906655"><ele>1263.0</ele><time>2026-04-28T09:59:33.197Z</time></trkpt><trkpt lat="37.985705" lon="14.906505"><ele>1263.0</ele><time>2026-04-28T09:59:34.198Z</time></trkpt><trkpt lat="37.9857067" lon="14.906355"><ele>1263.0</ele><time>2026-04-28T09:59:35.198Z</time></trkpt><trkpt lat="37.9857083" lon="14.9062017"><ele>1263.0</ele><time>2026-04-28T09:59:36.197Z</time></trkpt><trkpt lat="37.985715" lon="14.9060483"><ele>1263.0</ele><time>2026-04-28T09:59:37.197Z</time></trkpt><trkpt lat="37.9857283" lon="14.9058967"><ele>1263.0</ele><time>2026-04-28T09:59:38.197Z</time></trkpt><trkpt lat="37.9857733" lon="14.9057483"><ele>1263.0</ele><time>2026-04-28T09:59:39.197Z</time></trkpt><trkpt lat="37.9858417" lon="14.9056283"><ele>1263.0</ele><time>2026-04-28T09:59:40.197Z</time></trkpt><trkpt lat="37.9859367" lon="14.90555"><ele>1263.0</ele><time>2026-04-28T09:59:41.197Z</time></trkpt><trkpt lat="37.986055" lon="14.9055083"><ele>1263.0</ele><time>2026-04-28T09:59:42.197Z</time></trkpt><trkpt lat="37.986185" lon="14.905495"><ele>1264.75</ele><time>2026-04-28T09:59:43.198Z</time></trkpt><trkpt lat="37.98632" lon="14.9055017"><ele>1266.5</ele><time>2026-04-28T09:59:44.197Z</time></trkpt><trkpt lat="37.9864533" lon="14.90551"><ele>1268.25</ele><time>2026-04-28T09:59:45.198Z</time></trkpt><trkpt lat="37.9865817" lon="14.9055233"><ele>1270.0</ele><time>2026-04-28T09:59:46.197Z</time></trkpt><trkpt lat="37.9867067" lon="14.90553"><ele>1272.0</ele><time>2026-04-28T09:59:47.197Z</time></trkpt><trkpt lat="37.986815" lon="14.9055317"><ele>1274.0</ele><time>2026-04-28T09:59:48.197Z</time></trkpt><trkpt lat="37.9868983" lon="14.9054933"><ele>1276.0</ele><time>2026-04-28T09:59:49.197Z</time></trkpt><trkpt lat="37.9869683" lon="14.9054167"><ele>1278.0</ele><time>2026-04-28T09:59:50.197Z</time></trkpt><trkpt lat="37.9870033" lon="14.9053017"><ele>1280.0</ele><time>2026-04-28T09:59:51.198Z</time></trkpt><trkpt lat="37.9870183" lon="14.905175"><ele>1279.0</ele><time>2026-04-28T09:59:52.197Z</time></trkpt><trkpt lat="37.987035" lon="14.9050367"><ele>1278.0</ele><time>2026-04-28T09:59:53.197Z</time></trkpt><trkpt lat="37.98707" lon="14.9048983"><ele>1277.0</ele><time>2026-04-28T09:59:54.198Z</time></trkpt><trkpt lat="37.9871283" lon="14.9047617"><ele>1276.0</ele><time>2026-04-28T09:59:55.198Z</time></trkpt><trkpt lat="37.9872067" lon="14.904625"><ele>1276.0</ele><time>2026-04-28T09:59:56.197Z</time></trkpt><trkpt lat="37.9873017" lon="14.90449"><ele>1276.0</ele><time>2026-04-28T09:59:57.197Z</time></trkpt><trkpt lat="37.98741" lon="14.9043683"><ele>1276.0</ele><time>2026-04-28T09:59:58.197Z</time></trkpt><trkpt lat="37.9875267" lon="14.9042717"><ele>1276.0</ele><time>2026-04-28T09:59:59.198Z</time></trkpt><trkpt lat="37.9876533" lon="14.904195"><ele>1277.0</ele><time>2026-04-28T10:00:00.197Z</time></trkpt><trkpt lat="37.9877817" lon="14.9041067"><ele>1278.0</ele><time>2026-04-28T10:00:01.197Z</time></trkpt><trkpt lat="37.9879033" lon="14.9040117"><ele>1279.0</ele><time>2026-04-28T10:00:02.197Z</time></trkpt><trkpt lat="37.9880217" lon="14.9039133"><ele>1280.0</ele><time>2026-04-28T10:00:03.197Z</time></trkpt><trkpt lat="37.98815" lon="14.9038117"><ele>1280.0</ele><time>2026-04-28T10:00:04.197Z</time></trkpt><trkpt lat="37.988265" lon="14.9037083"><ele>1280.0</ele><time>2026-04-28T10:00:05.197Z</time></trkpt><trkpt lat="37.9883667" lon="14.9035917"><ele>1280.0</ele><time>2026-04-28T10:00:06.197Z</time></trkpt><trkpt lat="37.9884667" lon="14.9034617"><ele>1280.0</ele><time>2026-04-28T10:00:07.197Z</time></trkpt><trkpt lat="37.9885367" lon="14.9033033"><ele>1282.0</ele><time>2026-04-28T10:00:08.197Z</time></trkpt><trkpt lat="37.9886067" lon="14.9031367"><ele>1284.0</ele><time>2026-04-28T10:00:09.197Z</time></trkpt><trkpt lat="37.9886767" lon="14.9029517"><ele>1286.0</ele><time>2026-04-28T10:00:10.197Z</time></trkpt><trkpt lat="37.9887517" lon="14.902765"><ele>1282.6666666666667</ele><time>2026-04-28T10:00:11.197Z</time></trkpt><trkpt lat="37.988825" lon="14.9025717"><ele>1279.3333333333333</ele><time>2026-04-28T10:00:12.197Z</time></trkpt><trkpt lat="37.9889017" lon="14.9023867"><ele>1276.0</ele><time>2026-04-28T10:00:13.197Z</time></trkpt><trkpt lat="37.98898" lon="14.9022067"><ele>1276.0</ele><time>2026-04-28T10:00:14.198Z</time></trkpt><trkpt lat="37.989065" lon="14.902035"><ele>1276.0</ele><time>2026-04-28T10:00:15.197Z</time></trkpt><trkpt lat="37.9891483" lon="14.9018817"><ele>1276.0</ele><time>2026-04-28T10:00:16.197Z</time></trkpt><trkpt lat="37.9892267" lon="14.9017433"><ele>1276.0</ele><time>2026-04-28T10:00:17.197Z</time></trkpt><trkpt lat="37.9892917" lon="14.901605"><ele>1278.0</ele><time>2026-04-28T10:00:18.197Z</time></trkpt><trkpt lat="37.9893383" lon="14.9014683"><ele>1280.0</ele><time>2026-04-28T10:00:19.197Z</time></trkpt><trkpt lat="37.98936" lon="14.9013267"><ele>1282.0</ele><time>2026-04-28T10:00:20.197Z</time></trkpt><trkpt lat="37.9893317" lon="14.90119"><ele>1284.0</ele><time>2026-04-28T10:00:21.197Z</time></trkpt><trkpt lat="37.9892567" lon="14.901075"><ele>1279.5</ele><time>2026-04-28T10:00:22.197Z</time></trkpt><trkpt lat="37.9891567" lon="14.90098"><ele>1275.0</ele><time>2026-04-28T10:00:23.197Z</time></trkpt><trkpt lat="37.9890567" lon="14.9008967"><ele>1270.5</ele><time>2026-04-28T10:00:24.197Z</time></trkpt><trkpt lat="37.9889633" lon="14.9008183"><ele>1266.0</ele><time>2026-04-28T10:00:25.197Z</time></trkpt><trkpt lat="37.98888" lon="14.9007233"><ele>1266.0</ele><time>2026-04-28T10:00:26.197Z</time></trkpt><trkpt lat="37.9888133" lon="14.9006017"><ele>1266.0</ele><time>2026-04-28T10:00:27.197Z</time></trkpt><trkpt lat="37.9887817" lon="14.900455"><ele>1266.0</ele><time>2026-04-28T10:00:28.197Z</time></trkpt><trkpt lat="37.9887783" lon="14.9002917"><ele>1266.0</ele><time>2026-04-28T10:00:29.197Z</time></trkpt><trkpt lat="37.9887933" lon="14.90011"><ele>1270.0</ele><time>2026-04-28T10:00:30.197Z</time></trkpt><trkpt lat="37.9888067" lon="14.8999217"><ele>1274.0</ele><time>2026-04-28T10:00:31.198Z</time></trkpt><trkpt lat="37.9888083" lon="14.899725"><ele>1278.0</ele><time>2026-04-28T10:00:32.197Z</time></trkpt><trkpt lat="37.9888133" lon="14.8995167"><ele>1278.0</ele><time>2026-04-28T10:00:33.197Z</time></trkpt><trkpt lat="37.988815" lon="14.899305"><ele>1278.0</ele><time>2026-04-28T10:00:34.197Z</time></trkpt><trkpt lat="37.9888133" lon="14.89909"><ele>1278.0</ele><time>2026-04-28T10:00:35.197Z</time></trkpt><trkpt lat="37.9888067" lon="14.898885"><ele>1278.0</ele><time>2026-04-28T10:00:36.197Z</time></trkpt><trkpt lat="37.9887883" lon="14.898705"><ele>1278.0</ele><time>2026-04-28T10:00:37.197Z</time></trkpt><trkpt lat="37.98878" lon="14.8985383"><ele>1278.0</ele><time>2026-04-28T10:00:38.197Z</time></trkpt><trkpt lat="37.9887917" lon="14.89837"><ele>1278.0</ele><time>2026-04-28T10:00:39.197Z</time></trkpt><trkpt lat="37.988845" lon="14.8982233"><ele>1277.25</ele><time>2026-04-28T10:00:40.197Z</time></trkpt><trkpt lat="37.9889417" lon="14.8980817"><ele>1276.5</ele><time>2026-04-28T10:00:41.197Z</time></trkpt><trkpt lat="37.9890517" lon="14.8979483"><ele>1275.75</ele><time>2026-04-28T10:00:42.197Z</time></trkpt><trkpt lat="37.9891633" lon="14.8978333"><ele>1275.0</ele><time>2026-04-28T10:00:43.197Z</time></trkpt><trkpt lat="37.9892917" lon="14.89775"><ele>1275.0</ele><time>2026-04-28T10:00:44.197Z</time></trkpt><trkpt lat="37.98944" lon="14.8976917"><ele>1275.0</ele><time>2026-04-28T10:00:45.197Z</time></trkpt><trkpt lat="37.9895967" lon="14.8976517"><ele>1275.0</ele><time>2026-04-28T10:00:46.197Z</time></trkpt><trkpt lat="37.9897517" lon="14.8976267"><ele>1275.0</ele><time>2026-04-28T10:00:47.197Z</time></trkpt><trkpt lat="37.9898933" lon="14.8976183"><ele>1275.0</ele><time>2026-04-28T10:00:48.198Z</time></trkpt><trkpt lat="37.9900233" lon="14.8976383"><ele>1275.0</ele><time>2026-04-28T10:00:49.197Z</time></trkpt><trkpt lat="37.9901433" lon="14.8976983"><ele>1275.0</ele><time>2026-04-28T10:00:50.197Z</time></trkpt><trkpt lat="37.9902367" lon="14.8978083"><ele>1272.25</ele><time>2026-04-28T10:00:51.197Z</time></trkpt><trkpt lat="37.9903383" lon="14.89795"><ele>1269.5</ele><time>2026-04-28T10:00:52.197Z</time></trkpt><trkpt lat="37.9904317" lon="14.8980933"><ele>1266.75</ele><time>2026-04-28T10:00:53.197Z</time></trkpt><trkpt lat="37.9905183" lon="14.8982133"><ele>1264.0</ele><time>2026-04-28T10:00:54.197Z</time></trkpt><trkpt lat="37.9906183" lon="14.898295"><ele>1264.0</ele><time>2026-04-28T10:00:55.197Z</time></trkpt><trkpt lat="37.9907383" lon="14.89834"><ele>1264.0</ele><time>2026-04-28T10:00:56.197Z</time></trkpt><trkpt lat="37.9908583" lon="14.8983233"><ele>1264.0</ele><time>2026-04-28T10:00:57.197Z</time></trkpt><trkpt lat="37.99096" lon="14.8982483"><ele>1264.0</ele><time>2026-04-28T10:00:58.197Z</time></trkpt><trkpt lat="37.9910383" lon="14.89813"><ele>1264.75</ele><time>2026-04-28T10:00:59.196Z</time></trkpt><trkpt lat="37.9910917" lon="14.8979817"><ele>1265.5</ele><time>2026-04-28T10:01:00.197Z</time></trkpt><trkpt lat="37.991145" lon="14.897825"><ele>1266.25</ele><time>2026-04-28T10:01:01.197Z</time></trkpt><trkpt lat="37.9912233" lon="14.8976683"><ele>1267.0</ele><time>2026-04-28T10:01:02.197Z</time></trkpt><trkpt lat="37.991325" lon="14.8975233"><ele>1268.0</ele><time>2026-04-28T10:01:03.197Z</time></trkpt><trkpt lat="37.9914433" lon="14.8973817"><ele>1269.0</ele><time>2026-04-28T10:01:04.197Z</time></trkpt><trkpt lat="37.9915733" lon="14.8972383"><ele>1270.0</ele><time>2026-04-28T10:01:05.198Z</time></trkpt><trkpt lat="37.991705" lon="14.89709"><ele>1270.0</ele><time>2026-04-28T10:01:06.198Z</time></trkpt><trkpt lat="37.9918283" lon="14.8969567"><ele>1270.0</ele><time>2026-04-28T10:01:07.197Z</time></trkpt><trkpt lat="37.991925" lon="14.8968283"><ele>1270.0</ele><time>2026-04-28T10:01:08.198Z</time></trkpt><trkpt lat="37.991985" lon="14.896685"><ele>1270.0</ele><time>2026-04-28T10:01:09.197Z</time></trkpt><trkpt lat="37.992" lon="14.8965167"><ele>1268.6666666666665</ele><time>2026-04-28T10:01:10.197Z</time></trkpt><trkpt lat="37.9919917" lon="14.8963317"><ele>1267.3333333333333</ele><time>2026-04-28T10:01:11.197Z</time></trkpt><trkpt lat="37.9919783" lon="14.8961317"><ele>1266.0</ele><time>2026-04-28T10:01:12.197Z</time></trkpt><trkpt lat="37.9919617" lon="14.8959133"><ele>1262.6666666666667</ele><time>2026-04-28T10:01:13.197Z</time></trkpt><trkpt lat="37.9919517" lon="14.8956933"><ele>1259.3333333333335</ele><time>2026-04-28T10:01:14.197Z</time></trkpt><trkpt lat="37.991945" lon="14.8954633"><ele>1256.0</ele><time>2026-04-28T10:01:15.197Z</time></trkpt><trkpt lat="37.991935" lon="14.895225"><ele>1251.3333333333335</ele><time>2026-04-28T10:01:16.197Z</time></trkpt><trkpt lat="37.9919217" lon="14.8949883"><ele>1246.6666666666667</ele><time>2026-04-28T10:01:17.197Z</time></trkpt><trkpt lat="37.9919117" lon="14.8947483"><ele>1242.0</ele><time>2026-04-28T10:01:18.197Z</time></trkpt><trkpt lat="37.9919017" lon="14.8945083"><ele>1242.0</ele><time>2026-04-28T10:01:19.198Z</time></trkpt><trkpt lat="37.9918817" lon="14.894275"><ele>1242.0</ele><time>2026-04-28T10:01:20.198Z</time></trkpt><trkpt lat="37.9918683" lon="14.89405"><ele>1242.0</ele><time>2026-04-28T10:01:21.197Z</time></trkpt><trkpt lat="37.9918717" lon="14.8938317"><ele>1238.6666666666667</ele><time>2026-04-28T10:01:22.197Z</time></trkpt><trkpt lat="37.991905" lon="14.8936167"><ele>1235.3333333333335</ele><time>2026-04-28T10:01:23.197Z</time></trkpt><trkpt lat="37.9919633" lon="14.8934233"><ele>1232.0</ele><time>2026-04-28T10:01:24.197Z</time></trkpt><trkpt lat="37.9920417" lon="14.8932317"><ele>1232.0</ele><time>2026-04-28T10:01:25.197Z</time></trkpt><trkpt lat="37.9921233" lon="14.8930467"><ele>1232.0</ele><time>2026-04-28T10:01:26.197Z</time></trkpt><trkpt lat="37.9922" lon="14.8928533"><ele>1232.0</ele><time>2026-04-28T10:01:27.197Z</time></trkpt><trkpt lat="37.99225" lon="14.892655"><ele>1233.3333333333335</ele><time>2026-04-28T10:01:28.197Z</time></trkpt><trkpt lat="37.9922733" lon="14.8924417"><ele>1234.6666666666667</ele><time>2026-04-28T10:01:29.197Z</time></trkpt><trkpt lat="37.9922783" lon="14.8922183"><ele>1236.0</ele><time>2026-04-28T10:01:30.198Z</time></trkpt><trkpt lat="37.9922883" lon="14.89199"><ele>1236.0</ele><time>2026-04-28T10:01:31.197Z</time></trkpt><trkpt lat="37.9922967" lon="14.891765"><ele>1236.0</ele><time>2026-04-28T10:01:32.198Z</time></trkpt><trkpt lat="37.9923067" lon="14.89155"><ele>1236.0</ele><time>2026-04-28T10:01:33.198Z</time></trkpt><trkpt lat="37.9923033" lon="14.8913483"><ele>1234.75</ele><time>2026-04-28T10:01:34.198Z</time></trkpt><trkpt lat="37.9922917" lon="14.89116"><ele>1233.5</ele><time>2026-04-28T10:01:35.197Z</time></trkpt><trkpt lat="37.9922617" lon="14.8909917"><ele>1232.25</ele><time>2026-04-28T10:01:36.197Z</time></trkpt><trkpt lat="37.9922433" lon="14.890835"><ele>1231.0</ele><time>2026-04-28T10:01:37.198Z</time></trkpt><trkpt lat="37.9922617" lon="14.89068"><ele>1230.25</ele><time>2026-04-28T10:01:38.197Z</time></trkpt><trkpt lat="37.9923217" lon="14.8905333"><ele>1229.5</ele><time>2026-04-28T10:01:39.197Z</time></trkpt><trkpt lat="37.9924267" lon="14.8903967"><ele>1228.75</ele><time>2026-04-28T10:01:40.197Z</time></trkpt><trkpt lat="37.992545" lon="14.890255"><ele>1228.0</ele><time>2026-04-28T10:01:41.197Z</time></trkpt><trkpt lat="37.9926617" lon="14.8901017"><ele>1225.3333333333333</ele><time>2026-04-28T10:01:42.197Z</time></trkpt><trkpt lat="37.9927717" lon="14.88994"><ele>1222.6666666666667</ele><time>2026-04-28T10:01:43.197Z</time></trkpt><trkpt lat="37.9928767" lon="14.8897717"><ele>1220.0</ele><time>2026-04-28T10:01:44.198Z</time></trkpt><trkpt lat="37.9929717" lon="14.8896083"><ele>1220.0</ele><time>2026-04-28T10:01:45.197Z</time></trkpt><trkpt lat="37.9930683" lon="14.889455"><ele>1220.0</ele><time>2026-04-28T10:01:46.197Z</time></trkpt><trkpt lat="37.9931533" lon="14.8893117"><ele>1220.0</ele><time>2026-04-28T10:01:47.197Z</time></trkpt><trkpt lat="37.9932267" lon="14.8891717"><ele>1220.0</ele><time>2026-04-28T10:01:48.197Z</time></trkpt><trkpt lat="37.9932767" lon="14.8890233"><ele>1220.5</ele><time>2026-04-28T10:01:49.197Z</time></trkpt><trkpt lat="37.9932917" lon="14.8888617"><ele>1221.0</ele><time>2026-04-28T10:01:50.197Z</time></trkpt><trkpt lat="37.9932617" lon="14.888695"><ele>1221.5</ele><time>2026-04-28T10:01:51.197Z</time></trkpt><trkpt lat="37.9931883" lon="14.888525"><ele>1222.0</ele><time>2026-04-28T10:01:52.197Z</time></trkpt><trkpt lat="37.99309" lon="14.8883617"><ele>1222.0</ele><time>2026-04-28T10:01:53.197Z</time></trkpt><trkpt lat="37.9929883" lon="14.8881917"><ele>1222.0</ele><time>2026-04-28T10:01:54.197Z</time></trkpt><trkpt lat="37.9928933" lon="14.888015"><ele>1222.0</ele><time>2026-04-28T10:01:55.197Z</time></trkpt><trkpt lat="37.9927983" lon="14.8878517"><ele>1222.0</ele><time>2026-04-28T10:01:56.197Z</time></trkpt><trkpt lat="37.992705" lon="14.8877"><ele>1222.0</ele><time>2026-04-28T10:01:57.197Z</time></trkpt><trkpt lat="37.9926483" lon="14.88753"><ele>1222.0</ele><time>2026-04-28T10:01:58.197Z</time></trkpt><trkpt lat="37.992625" lon="14.8873467"><ele>1222.0</ele><time>2026-04-28T10:01:59.197Z</time></trkpt><trkpt lat="37.9926283" lon="14.8871533"><ele>1218.3333333333333</ele><time>2026-04-28T10:02:00.197Z</time></trkpt><trkpt lat="37.99265" lon="14.886955"><ele>1214.6666666666667</ele><time>2026-04-28T10:02:01.197Z</time></trkpt><trkpt lat="37.9926917" lon="14.8867517"><ele>1211.0</ele><time>2026-04-28T10:02:02.197Z</time></trkpt><trkpt lat="37.9927433" lon="14.8865433"><ele>1209.0</ele><time>2026-04-28T10:02:03.198Z</time></trkpt><trkpt lat="37.99279" lon="14.886325"><ele>1207.0</ele><time>2026-04-28T10:02:04.197Z</time></trkpt><trkpt lat="37.99284" lon="14.886095"><ele>1205.0</ele><time>2026-04-28T10:02:05.197Z</time></trkpt><trkpt lat="37.9928933" lon="14.8858567"><ele>1204.6666666666667</ele><time>2026-04-28T10:02:06.197Z</time></trkpt><trkpt lat="37.99294" lon="14.8856233"><ele>1204.3333333333333</ele><time>2026-04-28T10:02:07.197Z</time></trkpt><trkpt lat="37.992985" lon="14.885395"><ele>1204.0</ele><time>2026-04-28T10:02:08.197Z</time></trkpt><trkpt lat="37.9930367" lon="14.8851683"><ele>1204.6666666666665</ele><time>2026-04-28T10:02:09.197Z</time></trkpt><trkpt lat="37.9930833" lon="14.8849467"><ele>1205.3333333333333</ele><time>2026-04-28T10:02:10.197Z</time></trkpt><trkpt lat="37.9931317" lon="14.884725"><ele>1206.0</ele><time>2026-04-28T10:02:11.197Z</time></trkpt><trkpt lat="37.9931683" lon="14.8845"><ele>1206.0</ele><time>2026-04-28T10:02:12.198Z</time></trkpt><trkpt lat="37.993195" lon="14.8842733"><ele>1206.0</ele><time>2026-04-28T10:02:13.197Z</time></trkpt><trkpt lat="37.9932133" lon="14.8840467"><ele>1206.0</ele><time>2026-04-28T10:02:14.197Z</time></trkpt><trkpt lat="37.9932283" lon="14.883825"><ele>1204.6666666666667</ele><time>2026-04-28T10:02:15.197Z</time></trkpt><trkpt lat="37.9932583" lon="14.8836117"><ele>1203.3333333333335</ele><time>2026-04-28T10:02:16.197Z</time></trkpt><trkpt lat="37.99329" lon="14.88341"><ele>1202.0</ele><time>2026-04-28T10:02:17.198Z</time></trkpt><trkpt lat="37.993305" lon="14.8832183"><ele>1202.0</ele><time>2026-04-28T10:02:18.197Z</time></trkpt><trkpt lat="37.9933067" lon="14.8830283"><ele>1202.0</ele><time>2026-04-28T10:02:19.197Z</time></trkpt><trkpt lat="37.9932867" lon="14.8828467"><ele>1202.0</ele><time>2026-04-28T10:02:20.197Z</time></trkpt><trkpt lat="37.9932717" lon="14.8826667"><ele>1202.0</ele><time>2026-04-28T10:02:21.197Z</time></trkpt><trkpt lat="37.993275" lon="14.8825083"><ele>1201.25</ele><time>2026-04-28T10:02:22.197Z</time></trkpt><trkpt lat="37.9933083" lon="14.8823483"><ele>1200.5</ele><time>2026-04-28T10:02:23.197Z</time></trkpt><trkpt lat="37.9933717" lon="14.8822167"><ele>1199.75</ele><time>2026-04-28T10:02:24.197Z</time></trkpt><trkpt lat="37.99347" lon="14.8820983"><ele>1199.0</ele><time>2026-04-28T10:02:25.197Z</time></trkpt><trkpt lat="37.9935983" lon="14.882015"><ele>1195.3333333333335</ele><time>2026-04-28T10:02:26.197Z</time></trkpt><trkpt lat="37.9937433" lon="14.88195"><ele>1191.6666666666667</ele><time>2026-04-28T10:02:27.197Z</time></trkpt><trkpt lat="37.993895" lon="14.881875"><ele>1188.0</ele><time>2026-04-28T10:02:28.197Z</time></trkpt><trkpt lat="37.9940483" lon="14.8817933"><ele>1188.0</ele><time>2026-04-28T10:02:29.197Z</time></trkpt><trkpt lat="37.9941967" lon="14.8816883"><ele>1188.0</ele><time>2026-04-28T10:02:30.197Z</time></trkpt><trkpt lat="37.9943417" lon="14.88154"><ele>1188.0</ele><time>2026-04-28T10:02:31.197Z</time></trkpt><trkpt lat="37.99447" lon="14.881355"><ele>1188.0</ele><time>2026-04-28T10:02:32.198Z</time></trkpt><trkpt lat="37.9945983" lon="14.8811433"><ele>1188.0</ele><time>2026-04-28T10:02:33.197Z</time></trkpt><trkpt lat="37.994735" lon="14.88092"><ele>1188.0</ele><time>2026-04-28T10:02:34.197Z</time></trkpt><trkpt lat="37.9948833" lon="14.8806917"><ele>1188.0</ele><time>2026-04-28T10:02:35.198Z</time></trkpt><trkpt lat="37.99503" lon="14.8804583"><ele>1188.0</ele><time>2026-04-28T10:02:36.197Z</time></trkpt><trkpt lat="37.995175" lon="14.8802317"><ele>1191.0</ele><time>2026-04-28T10:02:37.198Z</time></trkpt><trkpt lat="37.995315" lon="14.8800033"><ele>1194.0</ele><time>2026-04-28T10:02:38.197Z</time></trkpt><trkpt lat="37.9954567" lon="14.879785"><ele>1194.0</ele><time>2026-04-28T10:02:39.197Z</time></trkpt><trkpt lat="37.995585" lon="14.879575"><ele>1194.0</ele><time>2026-04-28T10:02:40.198Z</time></trkpt><trkpt lat="37.9957067" lon="14.8793717"><ele>1194.0</ele><time>2026-04-28T10:02:41.197Z</time></trkpt><trkpt lat="37.99582" lon="14.8791683"><ele>1190.6666666666667</ele><time>2026-04-28T10:02:42.197Z</time></trkpt><trkpt lat="37.9959283" lon="14.8789617"><ele>1187.3333333333335</ele><time>2026-04-28T10:02:43.197Z</time></trkpt><trkpt lat="37.9960233" lon="14.87877"><ele>1184.0</ele><time>2026-04-28T10:02:44.197Z</time></trkpt><trkpt lat="37.9961033" lon="14.8785983"><ele>1184.0</ele><time>2026-04-28T10:02:45.197Z</time></trkpt><trkpt lat="37.9962" lon="14.8784433"><ele>1184.0</ele><time>2026-04-28T10:02:46.197Z</time></trkpt><trkpt lat="37.9963183" lon="14.8783083"><ele>1184.0</ele><time>2026-04-28T10:02:47.197Z</time></trkpt><trkpt lat="37.9964433" lon="14.878185"><ele>1185.3333333333335</ele><time>2026-04-28T10:02:48.198Z</time></trkpt><trkpt lat="37.9965883" lon="14.8780783"><ele>1186.6666666666667</ele><time>2026-04-28T10:02:49.198Z</time></trkpt><trkpt lat="37.9967583" lon="14.87797"><ele>1188.0</ele><time>2026-04-28T10:02:50.197Z</time></trkpt><trkpt lat="37.9969317" lon="14.8778783"><ele>1188.0</ele><time>2026-04-28T10:02:51.197Z</time></trkpt><trkpt lat="37.997095" lon="14.8777883"><ele>1188.0</ele><time>2026-04-28T10:02:52.197Z</time></trkpt><trkpt lat="37.997245" lon="14.877695"><ele>1188.0</ele><time>2026-04-28T10:02:53.197Z</time></trkpt><trkpt lat="37.9973717" lon="14.877565"><ele>1190.0</ele><time>2026-04-28T10:02:54.197Z</time></trkpt><trkpt lat="37.9974733" lon="14.877405"><ele>1192.0</ele><time>2026-04-28T10:02:55.198Z</time></trkpt><trkpt lat="37.9975683" lon="14.87723"><ele>1194.0</ele><time>2026-04-28T10:02:56.198Z</time></trkpt><trkpt lat="37.9976617" lon="14.87706"><ele>1194.0</ele><time>2026-04-28T10:02:57.197Z</time></trkpt><trkpt lat="37.9977533" lon="14.876905"><ele>1194.0</ele><time>2026-04-28T10:02:58.197Z</time></trkpt><trkpt lat="37.9978467" lon="14.8767717"><ele>1194.0</ele><time>2026-04-28T10:02:59.197Z</time></trkpt><trkpt lat="37.9979583" lon="14.8766667"><ele>1194.0</ele><time>2026-04-28T10:03:00.197Z</time></trkpt><trkpt lat="37.998085" lon="14.8766183"><ele>1195.25</ele><time>2026-04-28T10:03:01.197Z</time></trkpt><trkpt lat="37.9982183" lon="14.8766333"><ele>1196.5</ele><time>2026-04-28T10:03:02.197Z</time></trkpt><trkpt lat="37.9983633" lon="14.8767017"><ele>1197.75</ele><time>2026-04-28T10:03:03.197Z</time></trkpt><trkpt lat="37.9985117" lon="14.87678"><ele>1199.0</ele><time>2026-04-28T10:03:04.197Z</time></trkpt><trkpt lat="37.9986733" lon="14.8768467"><ele>1199.0</ele><time>2026-04-28T10:03:05.197Z</time></trkpt><trkpt lat="37.9988467" lon="14.8768983"><ele>1199.0</ele><time>2026-04-28T10:03:06.197Z</time></trkpt><trkpt lat="37.9990183" lon="14.87695"><ele>1199.0</ele><time>2026-04-28T10:03:07.197Z</time></trkpt><trkpt lat="37.999185" lon="14.8770217"><ele>1201.0</ele><time>2026-04-28T10:03:08.197Z</time></trkpt><trkpt lat="37.99935" lon="14.8771183"><ele>1203.0</ele><time>2026-04-28T10:03:09.198Z</time></trkpt><trkpt lat="37.9995017" lon="14.8772433"><ele>1205.0</ele><time>2026-04-28T10:03:10.197Z</time></trkpt><trkpt lat="37.99964" lon="14.8773583"><ele>1205.0</ele><time>2026-04-28T10:03:11.198Z</time></trkpt><trkpt lat="37.9997633" lon="14.8774567"><ele>1205.0</ele><time>2026-04-28T10:03:12.197Z</time></trkpt><trkpt lat="37.99988" lon="14.8775567"><ele>1205.0</ele><time>2026-04-28T10:03:13.197Z</time></trkpt><trkpt lat="37.9999733" lon="14.8776733"><ele>1205.0</ele><time>2026-04-28T10:03:14.197Z</time></trkpt><trkpt lat="38.0000433" lon="14.8778133"><ele>1205.0</ele><time>2026-04-28T10:03:15.198Z</time></trkpt><trkpt lat="38.0000717" lon="14.8779617"><ele>1205.0</ele><time>2026-04-28T10:03:16.198Z</time></trkpt><trkpt lat="38.0000733" lon="14.8781217"><ele>1205.0</ele><time>2026-04-28T10:03:17.197Z</time></trkpt><trkpt lat="38.00006" lon="14.87829"><ele>1205.0</ele><time>2026-04-28T10:03:18.197Z</time></trkpt><trkpt lat="38.00005" lon="14.8784717"><ele>1205.0</ele><time>2026-04-28T10:03:19.197Z</time></trkpt><trkpt lat="38.0000433" lon="14.8786467"><ele>1205.0</ele><time>2026-04-28T10:03:20.197Z</time></trkpt><trkpt lat="38.0000383" lon="14.8788117"><ele>1205.0</ele><time>2026-04-28T10:03:21.197Z</time></trkpt><trkpt lat="38.000045" lon="14.8789633"><ele>1205.0</ele><time>2026-04-28T10:03:22.197Z</time></trkpt><trkpt lat="38.0000717" lon="14.8790983"><ele>1205.0</ele><time>2026-04-28T10:03:23.198Z</time></trkpt><trkpt lat="38.0001233" lon="14.879225"><ele>1205.0</ele><time>2026-04-28T10:03:24.197Z</time></trkpt><trkpt lat="38.0002133" lon="14.8793033"><ele>1205.0</ele><time>2026-04-28T10:03:25.197Z</time></trkpt><trkpt lat="38.0003283" lon="14.87933"><ele>1205.0</ele><time>2026-04-28T10:03:26.198Z</time></trkpt><trkpt lat="38.0004417" lon="14.8792983"><ele>1205.0</ele><time>2026-04-28T10:03:27.197Z</time></trkpt><trkpt lat="38.00054" lon="14.879215"><ele>1205.0</ele><time>2026-04-28T10:03:28.197Z</time></trkpt><trkpt lat="38.0006017" lon="14.8791017"><ele>1205.0</ele><time>2026-04-28T10:03:29.197Z</time></trkpt><trkpt lat="38.0006283" lon="14.8789533"><ele>1205.0</ele><time>2026-04-28T10:03:30.198Z</time></trkpt><trkpt lat="38.0006183" lon="14.878795"><ele>1205.0</ele><time>2026-04-28T10:03:31.197Z</time></trkpt><trkpt lat="38.000605" lon="14.8786417"><ele>1205.0</ele><time>2026-04-28T10:03:32.197Z</time></trkpt><trkpt lat="38.0005967" lon="14.8784933"><ele>1205.0</ele><time>2026-04-28T10:03:33.197Z</time></trkpt><trkpt lat="38.0006033" lon="14.8783533"><ele>1205.0</ele><time>2026-04-28T10:03:34.197Z</time></trkpt><trkpt lat="38.0006317" lon="14.8782233"><ele>1204.2</ele><time>2026-04-28T10:03:35.198Z</time></trkpt><trkpt lat="38.0006867" lon="14.878115"><ele>1203.4</ele><time>2026-04-28T10:03:36.197Z</time></trkpt><trkpt lat="38.00078" lon="14.8780417"><ele>1202.6</ele><time>2026-04-28T10:03:37.197Z</time></trkpt><trkpt lat="38.0008783" lon="14.8779983"><ele>1201.8</ele><time>2026-04-28T10:03:38.197Z</time></trkpt><trkpt lat="38.0009783" lon="14.877965"><ele>1201.0</ele><time>2026-04-28T10:03:39.197Z</time></trkpt><trkpt lat="38.00107" lon="14.8779233"><ele>1201.0</ele><time>2026-04-28T10:03:40.197Z</time></trkpt><trkpt lat="38.001145" lon="14.8778633"><ele>1201.0</ele><time>2026-04-28T10:03:41.197Z</time></trkpt><trkpt lat="38.0012" lon="14.8777733"><ele>1201.0</ele><time>2026-04-28T10:03:42.198Z</time></trkpt><trkpt lat="38.00123" lon="14.8776617"><ele>1201.0</ele><time>2026-04-28T10:03:43.198Z</time></trkpt><trkpt lat="38.0012283" lon="14.8775367"><ele>1201.0</ele><time>2026-04-28T10:03:44.197Z</time></trkpt><trkpt lat="38.0012167" lon="14.877415"><ele>1201.0</ele><time>2026-04-28T10:03:45.197Z</time></trkpt><trkpt lat="38.0012233" lon="14.8772933"><ele>1201.0</ele><time>2026-04-28T10:03:46.197Z</time></trkpt><trkpt lat="38.00126" lon="14.877195"><ele>1201.0</ele><time>2026-04-28T10:03:47.197Z</time></trkpt><trkpt lat="38.001325" lon="14.8771167"><ele>1201.0</ele><time>2026-04-28T10:03:48.198Z</time></trkpt><trkpt lat="38.0014167" lon="14.87707"><ele>1201.0</ele><time>2026-04-28T10:03:49.197Z</time></trkpt><trkpt lat="38.0015383" lon="14.877045"><ele>1198.0</ele><time>2026-04-28T10:03:50.197Z</time></trkpt><trkpt lat="38.00167" lon="14.87702"><ele>1195.0</ele><time>2026-04-28T10:03:51.196Z</time></trkpt><trkpt lat="38.0017983" lon="14.8769867"><ele>1192.0</ele><time>2026-04-28T10:03:52.197Z</time></trkpt><trkpt lat="38.0019217" lon="14.8769517"><ele>1189.0</ele><time>2026-04-28T10:03:53.197Z</time></trkpt><trkpt lat="38.002045" lon="14.8769117"><ele>1189.0</ele><time>2026-04-28T10:03:54.197Z</time></trkpt><trkpt lat="38.0021683" lon="14.8768783"><ele>1189.0</ele><time>2026-04-28T10:03:55.197Z</time></trkpt><trkpt lat="38.0022933" lon="14.87687"><ele>1189.0</ele><time>2026-04-28T10:03:56.197Z</time></trkpt><trkpt lat="38.0024217" lon="14.8769133"><ele>1189.0</ele><time>2026-04-28T10:03:57.197Z</time></trkpt><trkpt lat="38.002545" lon="14.8769917"><ele>1187.0</ele><time>2026-04-28T10:03:58.197Z</time></trkpt><trkpt lat="38.0026717" lon="14.8770817"><ele>1185.0</ele><time>2026-04-28T10:03:59.197Z</time></trkpt><trkpt lat="38.00281" lon="14.8771583"><ele>1183.0</ele><time>2026-04-28T10:04:00.197Z</time></trkpt><trkpt lat="38.0029467" lon="14.87724"><ele>1181.0</ele><time>2026-04-28T10:04:01.197Z</time></trkpt><trkpt lat="38.0030833" lon="14.87732"><ele>1181.0</ele><time>2026-04-28T10:04:02.197Z</time></trkpt><trkpt lat="38.00322" lon="14.8773967"><ele>1181.0</ele><time>2026-04-28T10:04:03.197Z</time></trkpt><trkpt lat="38.003345" lon="14.8774767"><ele>1181.0</ele><time>2026-04-28T10:04:04.198Z</time></trkpt><trkpt lat="38.0034633" lon="14.8775467"><ele>1181.0</ele><time>2026-04-28T10:04:05.198Z</time></trkpt><trkpt lat="38.0035817" lon="14.877595"><ele>1180.25</ele><time>2026-04-28T10:04:06.198Z</time></trkpt><trkpt lat="38.0037117" lon="14.877615"><ele>1179.5</ele><time>2026-04-28T10:04:07.197Z</time></trkpt><trkpt lat="38.0038467" lon="14.877585"><ele>1178.75</ele><time>2026-04-28T10:04:08.198Z</time></trkpt><trkpt lat="38.0039883" lon="14.877515"><ele>1178.0</ele><time>2026-04-28T10:04:09.197Z</time></trkpt><trkpt lat="38.0041267" lon="14.87743"><ele>1176.0</ele><time>2026-04-28T10:04:10.197Z</time></trkpt><trkpt lat="38.0042683" lon="14.8773417"><ele>1174.0</ele><time>2026-04-28T10:04:11.197Z</time></trkpt><trkpt lat="38.0044017" lon="14.8772567"><ele>1172.0</ele><time>2026-04-28T10:04:12.197Z</time></trkpt><trkpt lat="38.00453" lon="14.8771783"><ele>1170.0</ele><time>2026-04-28T10:04:13.197Z</time></trkpt><trkpt lat="38.0046667" lon="14.8771233"><ele>1170.0</ele><time>2026-04-28T10:04:14.197Z</time></trkpt><trkpt lat="38.0048067" lon="14.8771217"><ele>1170.0</ele><time>2026-04-28T10:04:15.197Z</time></trkpt><trkpt lat="38.0049383" lon="14.87714"><ele>1170.0</ele><time>2026-04-28T10:04:16.197Z</time></trkpt><trkpt lat="38.0050683" lon="14.87722"><ele>1170.0</ele><time>2026-04-28T10:04:17.198Z</time></trkpt><trkpt lat="38.0051783" lon="14.8773383"><ele>1169.6666666666667</ele><time>2026-04-28T10:04:18.197Z</time></trkpt><trkpt lat="38.00528" lon="14.87748"><ele>1169.3333333333335</ele><time>2026-04-28T10:04:19.197Z</time></trkpt><trkpt lat="38.00538" lon="14.8776433"><ele>1169.0</ele><time>2026-04-28T10:04:20.197Z</time></trkpt><trkpt lat="38.005485" lon="14.8778083"><ele>1166.0</ele><time>2026-04-28T10:04:21.197Z</time></trkpt><trkpt lat="38.0055967" lon="14.8779783"><ele>1163.0</ele><time>2026-04-28T10:04:22.197Z</time></trkpt><trkpt lat="38.0057117" lon="14.8781417"><ele>1160.0</ele><time>2026-04-28T10:04:23.197Z</time></trkpt><trkpt lat="38.00583" lon="14.8782983"><ele>1156.6666666666667</ele><time>2026-04-28T10:04:24.197Z</time></trkpt><trkpt lat="38.0059467" lon="14.8784533"><ele>1153.3333333333333</ele><time>2026-04-28T10:04:25.197Z</time></trkpt><trkpt lat="38.0060617" lon="14.8786017"><ele>1150.0</ele><time>2026-04-28T10:04:26.197Z</time></trkpt><trkpt lat="38.0061767" lon="14.8787433"><ele>1150.0</ele><time>2026-04-28T10:04:27.197Z</time></trkpt><trkpt lat="38.006295" lon="14.8788867"><ele>1150.0</ele><time>2026-04-28T10:04:28.198Z</time></trkpt><trkpt lat="38.006405" lon="14.8790267"><ele>1150.0</ele><time>2026-04-28T10:04:29.197Z</time></trkpt><trkpt lat="38.0065067" lon="14.8791683"><ele>1148.75</ele><time>2026-04-28T10:04:30.197Z</time></trkpt><trkpt lat="38.0065917" lon="14.87933"><ele>1147.5</ele><time>2026-04-28T10:04:31.197Z</time></trkpt><trkpt lat="38.0066567" lon="14.8794983"><ele>1146.25</ele><time>2026-04-28T10:04:32.197Z</time></trkpt><trkpt lat="38.00673" lon="14.8796533"><ele>1145.0</ele><time>2026-04-28T10:04:33.197Z</time></trkpt><trkpt lat="38.0068083" lon="14.879815"><ele>1145.0</ele><time>2026-04-28T10:04:34.197Z</time></trkpt><trkpt lat="38.006905" lon="14.87995"><ele>1145.0</ele><time>2026-04-28T10:04:35.197Z</time></trkpt><trkpt lat="38.00703" lon="14.8800667"><ele>1145.0</ele><time>2026-04-28T10:04:36.197Z</time></trkpt><trkpt lat="38.0071667" lon="14.8801683"><ele>1145.5</ele><time>2026-04-28T10:04:37.197Z</time></trkpt><trkpt lat="38.0072983" lon="14.8802583"><ele>1146.0</ele><time>2026-04-28T10:04:38.197Z</time></trkpt><trkpt lat="38.00743" lon="14.880355"><ele>1146.5</ele><time>2026-04-28T10:04:39.197Z</time></trkpt><trkpt lat="38.0075483" lon="14.8804617"><ele>1147.0</ele><time>2026-04-28T10:04:40.197Z</time></trkpt><trkpt lat="38.00764" lon="14.8806"><ele>1147.0</ele><time>2026-04-28T10:04:41.197Z</time></trkpt><trkpt lat="38.0076983" lon="14.8807733"><ele>1147.0</ele><time>2026-04-28T10:04:42.197Z</time></trkpt><trkpt lat="38.0077383" lon="14.88097"><ele>1147.0</ele><time>2026-04-28T10:04:43.197Z</time></trkpt><trkpt lat="38.0077683" lon="14.8811717"><ele>1144.0</ele><time>2026-04-28T10:04:44.197Z</time></trkpt><trkpt lat="38.00779" lon="14.88138"><ele>1141.0</ele><time>2026-04-28T10:04:45.197Z</time></trkpt><trkpt lat="38.0078" lon="14.8815967"><ele>1138.0</ele><time>2026-04-28T10:04:46.197Z</time></trkpt><trkpt lat="38.007785" lon="14.8817983"><ele>1138.0</ele><time>2026-04-28T10:04:47.197Z</time></trkpt><trkpt lat="38.00775" lon="14.8819933"><ele>1138.0</ele><time>2026-04-28T10:04:48.197Z</time></trkpt><trkpt lat="38.0076983" lon="14.8821817"><ele>1138.0</ele><time>2026-04-28T10:04:49.197Z</time></trkpt><trkpt lat="38.0076267" lon="14.8823617"><ele>1138.0</ele><time>2026-04-28T10:04:50.197Z</time></trkpt><trkpt lat="38.00753" lon="14.8825217"><ele>1138.0</ele><time>2026-04-28T10:04:51.197Z</time></trkpt><trkpt lat="38.00744" lon="14.88267"><ele>1138.0</ele><time>2026-04-28T10:04:52.198Z</time></trkpt><trkpt lat="38.00736" lon="14.88282"><ele>1138.0</ele><time>2026-04-28T10:04:53.198Z</time></trkpt><trkpt lat="38.0073083" lon="14.8829767"><ele>1134.0</ele><time>2026-04-28T10:04:54.197Z</time></trkpt><trkpt lat="38.0072883" lon="14.883135"><ele>1130.0</ele><time>2026-04-28T10:04:55.197Z</time></trkpt><trkpt lat="38.0073017" lon="14.8833083"><ele>1126.0</ele><time>2026-04-28T10:04:56.197Z</time></trkpt><trkpt lat="38.0073333" lon="14.88349"><ele>1122.0</ele><time>2026-04-28T10:04:57.197Z</time></trkpt><trkpt lat="38.0073683" lon="14.883675"><ele>1121.0</ele><time>2026-04-28T10:04:58.197Z</time></trkpt><trkpt lat="38.007405" lon="14.8838583"><ele>1120.0</ele><time>2026-04-28T10:04:59.198Z</time></trkpt><trkpt lat="38.007445" lon="14.8840433"><ele>1119.0</ele><time>2026-04-28T10:05:00.197Z</time></trkpt><trkpt lat="38.0075033" lon="14.8842317"><ele>1118.0</ele><time>2026-04-28T10:05:01.198Z</time></trkpt><trkpt lat="38.0075967" lon="14.8844"><ele>1117.0</ele><time>2026-04-28T10:05:02.197Z</time></trkpt><trkpt lat="38.00771" lon="14.884545"><ele>1116.0</ele><time>2026-04-28T10:05:03.197Z</time></trkpt><trkpt lat="38.007825" lon="14.88467"><ele>1116.0</ele><time>2026-04-28T10:05:04.198Z</time></trkpt><trkpt lat="38.00794" lon="14.8847783"><ele>1116.0</ele><time>2026-04-28T10:05:05.197Z</time></trkpt><trkpt lat="38.0080433" lon="14.8848683"><ele>1116.0</ele><time>2026-04-28T10:05:06.197Z</time></trkpt><trkpt lat="38.0081517" lon="14.884925"><ele>1116.0</ele><time>2026-04-28T10:05:07.197Z</time></trkpt><trkpt lat="38.008265" lon="14.8849167"><ele>1116.5</ele><time>2026-04-28T10:05:08.197Z</time></trkpt><trkpt lat="38.008375" lon="14.8848433"><ele>1117.0</ele><time>2026-04-28T10:05:09.197Z</time></trkpt><trkpt lat="38.0084933" lon="14.8847467"><ele>1117.5</ele><time>2026-04-28T10:05:10.197Z</time></trkpt><trkpt lat="38.0086217" lon="14.8846667"><ele>1118.0</ele><time>2026-04-28T10:05:11.197Z</time></trkpt><trkpt lat="38.0087583" lon="14.8846167"><ele>1118.0</ele><time>2026-04-28T10:05:12.197Z</time></trkpt><trkpt lat="38.0089017" lon="14.8845967"><ele>1118.0</ele><time>2026-04-28T10:05:13.197Z</time></trkpt><trkpt lat="38.0090317" lon="14.8846117"><ele>1118.0</ele><time>2026-04-28T10:05:14.197Z</time></trkpt><trkpt lat="38.00916" lon="14.8846867"><ele>1118.0</ele><time>2026-04-28T10:05:15.197Z</time></trkpt><trkpt lat="38.009275" lon="14.884805"><ele>1116.6666666666667</ele><time>2026-04-28T10:05:16.197Z</time></trkpt><trkpt lat="38.0093883" lon="14.884935"><ele>1115.3333333333333</ele><time>2026-04-28T10:05:17.197Z</time></trkpt><trkpt lat="38.00952" lon="14.8850317"><ele>1114.0</ele><time>2026-04-28T10:05:18.197Z</time></trkpt><trkpt lat="38.0096667" lon="14.885115"><ele>1109.75</ele><time>2026-04-28T10:05:19.197Z</time></trkpt><trkpt lat="38.00981" lon="14.885175"><ele>1105.5</ele><time>2026-04-28T10:05:20.197Z</time></trkpt><trkpt lat="38.0099483" lon="14.8851983"><ele>1101.25</ele><time>2026-04-28T10:05:21.197Z</time></trkpt><trkpt lat="38.0100867" lon="14.88517"><ele>1097.0</ele><time>2026-04-28T10:05:22.198Z</time></trkpt><trkpt lat="38.0102333" lon="14.8851317"><ele>1094.75</ele><time>2026-04-28T10:05:23.197Z</time></trkpt><trkpt lat="38.0103717" lon="14.885135"><ele>1092.5</ele><time>2026-04-28T10:05:24.197Z</time></trkpt><trkpt lat="38.01051" lon="14.8851733"><ele>1090.25</ele><time>2026-04-28T10:05:25.198Z</time></trkpt><trkpt lat="38.0106467" lon="14.8851883"><ele>1088.0</ele><time>2026-04-28T10:05:26.197Z</time></trkpt><trkpt lat="38.0107883" lon="14.8851717"><ele>1086.25</ele><time>2026-04-28T10:05:27.197Z</time></trkpt><trkpt lat="38.0109133" lon="14.8851967"><ele>1084.5</ele><time>2026-04-28T10:05:28.196Z</time></trkpt><trkpt lat="38.011025" lon="14.8852833"><ele>1082.75</ele><time>2026-04-28T10:05:29.196Z</time></trkpt><trkpt lat="38.0111283" lon="14.8854"><ele>1081.0</ele><time>2026-04-28T10:05:30.197Z</time></trkpt><trkpt lat="38.01125" lon="14.8854783"><ele>1081.0</ele><time>2026-04-28T10:05:31.196Z</time></trkpt><trkpt lat="38.0113917" lon="14.8854917"><ele>1081.0</ele><time>2026-04-28T10:05:32.196Z</time></trkpt><trkpt lat="38.01154" lon="14.8854733"><ele>1081.0</ele><time>2026-04-28T10:05:33.196Z</time></trkpt><trkpt lat="38.011685" lon="14.885465"><ele>1081.0</ele><time>2026-04-28T10:05:34.196Z</time></trkpt><trkpt lat="38.0118217" lon="14.8854933"><ele>1079.75</ele><time>2026-04-28T10:05:35.196Z</time></trkpt><trkpt lat="38.011955" lon="14.8855117"><ele>1078.5</ele><time>2026-04-28T10:05:36.196Z</time></trkpt><trkpt lat="38.0121083" lon="14.8855033"><ele>1077.25</ele><time>2026-04-28T10:05:37.197Z</time></trkpt><trkpt lat="38.012255" lon="14.88547"><ele>1076.0</ele><time>2026-04-28T10:05:38.196Z</time></trkpt><trkpt lat="38.0123983" lon="14.8854633"><ele>1077.0</ele><time>2026-04-28T10:05:39.196Z</time></trkpt><trkpt lat="38.0125317" lon="14.8854767"><ele>1078.0</ele><time>2026-04-28T10:05:40.196Z</time></trkpt><trkpt lat="38.0126667" lon="14.885435"><ele>1079.0</ele><time>2026-04-28T10:05:41.196Z</time></trkpt><trkpt lat="38.012795" lon="14.88534"><ele>1080.0</ele><time>2026-04-28T10:05:42.196Z</time></trkpt><trkpt lat="38.0129283" lon="14.8852067"><ele>1080.6666666666667</ele><time>2026-04-28T10:05:43.196Z</time></trkpt><trkpt lat="38.0130583" lon="14.8850833"><ele>1081.3333333333335</ele><time>2026-04-28T10:05:44.197Z</time></trkpt><trkpt lat="38.01319" lon="14.8849617"><ele>1082.0</ele><time>2026-04-28T10:05:45.196Z</time></trkpt><trkpt lat="38.01333" lon="14.8848533"><ele>1082.0</ele><time>2026-04-28T10:05:46.196Z</time></trkpt><trkpt lat="38.0134767" lon="14.8847583"><ele>1082.0</ele><time>2026-04-28T10:05:47.196Z</time></trkpt><trkpt lat="38.01364" lon="14.8846883"><ele>1082.0</ele><time>2026-04-28T10:05:48.196Z</time></trkpt><trkpt lat="38.013805" lon="14.8846233"><ele>1082.0</ele><time>2026-04-28T10:05:49.196Z</time></trkpt><trkpt lat="38.0139617" lon="14.88457"><ele>1082.0</ele><time>2026-04-28T10:05:50.196Z</time></trkpt><trkpt lat="38.014115" lon="14.884525"><ele>1082.0</ele><time>2026-04-28T10:05:51.196Z</time></trkpt><trkpt lat="38.0142617" lon="14.8844917"><ele>1078.75</ele><time>2026-04-28T10:05:52.196Z</time></trkpt><trkpt lat="38.0143983" lon="14.8844783"><ele>1075.5</ele><time>2026-04-28T10:05:53.196Z</time></trkpt><trkpt lat="38.0145267" lon="14.8845"><ele>1072.25</ele><time>2026-04-28T10:05:54.196Z</time></trkpt><trkpt lat="38.0146433" lon="14.8845567"><ele>1069.0</ele><time>2026-04-28T10:05:55.196Z</time></trkpt><trkpt lat="38.01476" lon="14.8846533"><ele>1069.0</ele><time>2026-04-28T10:05:56.197Z</time></trkpt><trkpt lat="38.0148783" lon="14.884745"><ele>1069.0</ele><time>2026-04-28T10:05:57.196Z</time></trkpt><trkpt lat="38.0149967" lon="14.884825"><ele>1069.0</ele><time>2026-04-28T10:05:58.196Z</time></trkpt><trkpt lat="38.0151083" lon="14.8848833"><ele>1069.0</ele><time>2026-04-28T10:05:59.197Z</time></trkpt><trkpt lat="38.0152283" lon="14.8849083"><ele>1069.25</ele><time>2026-04-28T10:06:00.197Z</time></trkpt><trkpt lat="38.0153517" lon="14.8848883"><ele>1069.5</ele><time>2026-04-28T10:06:01.196Z</time></trkpt><trkpt lat="38.0154683" lon="14.88483"><ele>1069.75</ele><time>2026-04-28T10:06:02.197Z</time></trkpt><trkpt lat="38.0155667" lon="14.8847283"><ele>1070.0</ele><time>2026-04-28T10:06:03.196Z</time></trkpt><trkpt lat="38.0156383" lon="14.8845983"><ele>1070.0</ele><time>2026-04-28T10:06:04.196Z</time></trkpt><trkpt lat="38.0156883" lon="14.8844367"><ele>1070.0</ele><time>2026-04-28T10:06:05.196Z</time></trkpt><trkpt lat="38.0157317" lon="14.8842733"><ele>1070.0</ele><time>2026-04-28T10:06:06.196Z</time></trkpt><trkpt lat="38.0157683" lon="14.8841183"><ele>1070.0</ele><time>2026-04-28T10:06:07.196Z</time></trkpt><trkpt lat="38.0157767" lon="14.88398"><ele>1074.0</ele><time>2026-04-28T10:06:08.196Z</time></trkpt><trkpt lat="38.0157383" lon="14.88384"><ele>1078.0</ele><time>2026-04-28T10:06:09.196Z</time></trkpt><trkpt lat="38.015675" lon="14.8837033"><ele>1082.0</ele><time>2026-04-28T10:06:10.197Z</time></trkpt><trkpt lat="38.0156067" lon="14.883575"><ele>1086.0</ele><time>2026-04-28T10:06:11.196Z</time></trkpt><trkpt lat="38.0155917" lon="14.8834333"><ele>1085.3999999999999</ele><time>2026-04-28T10:06:12.196Z</time></trkpt><trkpt lat="38.0156167" lon="14.8833083"><ele>1084.8</ele><time>2026-04-28T10:06:13.196Z</time></trkpt><trkpt lat="38.0156817" lon="14.88319"><ele>1084.1999999999998</ele><time>2026-04-28T10:06:14.196Z</time></trkpt><trkpt lat="38.0157717" lon="14.8831117"><ele>1083.6</ele><time>2026-04-28T10:06:15.196Z</time></trkpt><trkpt lat="38.0158783" lon="14.8830717"><ele>1083.0</ele><time>2026-04-28T10:06:16.196Z</time></trkpt><trkpt lat="38.0160033" lon="14.883075"><ele>1076.3333333333333</ele><time>2026-04-28T10:06:17.196Z</time></trkpt><trkpt lat="38.016145" lon="14.8831067"><ele>1069.6666666666665</ele><time>2026-04-28T10:06:18.196Z</time></trkpt><trkpt lat="38.016295" lon="14.8831283"><ele>1063.0</ele><time>2026-04-28T10:06:19.197Z</time></trkpt><trkpt lat="38.016455" lon="14.88314"><ele>1063.0</ele><time>2026-04-28T10:06:20.196Z</time></trkpt><trkpt lat="38.0166117" lon="14.88315"><ele>1063.0</ele><time>2026-04-28T10:06:21.197Z</time></trkpt><trkpt lat="38.01676" lon="14.8831817"><ele>1063.0</ele><time>2026-04-28T10:06:22.196Z</time></trkpt><trkpt lat="38.01691" lon="14.8831733"><ele>1062.25</ele><time>2026-04-28T10:06:23.196Z</time></trkpt><trkpt lat="38.0170417" lon="14.8831083"><ele>1061.5</ele><time>2026-04-28T10:06:24.196Z</time></trkpt><trkpt lat="38.0171567" lon="14.883015"><ele>1060.75</ele><time>2026-04-28T10:06:25.196Z</time></trkpt><trkpt lat="38.0172683" lon="14.8829333"><ele>1060.0</ele><time>2026-04-28T10:06:26.197Z</time></trkpt><trkpt lat="38.0173817" lon="14.8828967"><ele>1057.75</ele><time>2026-04-28T10:06:27.196Z</time></trkpt><trkpt lat="38.0174933" lon="14.8829367"><ele>1055.5</ele><time>2026-04-28T10:06:28.196Z</time></trkpt><trkpt lat="38.0176067" lon="14.8830167"><ele>1053.25</ele><time>2026-04-28T10:06:29.196Z</time></trkpt><trkpt lat="38.0177317" lon="14.8831033"><ele>1051.0</ele><time>2026-04-28T10:06:30.196Z</time></trkpt><trkpt lat="38.0178683" lon="14.8831667"><ele>1051.0</ele><time>2026-04-28T10:06:31.196Z</time></trkpt><trkpt lat="38.018005" lon="14.8831983"><ele>1051.0</ele><time>2026-04-28T10:06:32.197Z</time></trkpt><trkpt lat="38.01814" lon="14.883195"><ele>1051.0</ele><time>2026-04-28T10:06:33.197Z</time></trkpt><trkpt lat="38.0182667" lon="14.883185"><ele>1051.0</ele><time>2026-04-28T10:06:34.197Z</time></trkpt><trkpt lat="38.018375" lon="14.8831983"><ele>1050.5</ele><time>2026-04-28T10:06:35.196Z</time></trkpt><trkpt lat="38.018465" lon="14.883265"><ele>1050.0</ele><time>2026-04-28T10:06:36.196Z</time></trkpt><trkpt lat="38.0185283" lon="14.88338"><ele>1049.5</ele><time>2026-04-28T10:06:37.197Z</time></trkpt><trkpt lat="38.0185683" lon="14.8835317"><ele>1049.0</ele><time>2026-04-28T10:06:38.196Z</time></trkpt><trkpt lat="38.0186" lon="14.8836767"><ele>1043.25</ele><time>2026-04-28T10:06:39.197Z</time></trkpt><trkpt lat="38.01866" lon="14.883815"><ele>1037.5</ele><time>2026-04-28T10:06:40.196Z</time></trkpt><trkpt lat="38.01875" lon="14.8839133"><ele>1031.75</ele><time>2026-04-28T10:06:41.196Z</time></trkpt><trkpt lat="38.0188683" lon="14.8839533"><ele>1026.0</ele><time>2026-04-28T10:06:42.196Z</time></trkpt><trkpt lat="38.01901" lon="14.8839367"><ele>1025.0</ele><time>2026-04-28T10:06:43.197Z</time></trkpt><trkpt lat="38.0191533" lon="14.8838833"><ele>1024.0</ele><time>2026-04-28T10:06:44.196Z</time></trkpt><trkpt lat="38.0192983" lon="14.8837767"><ele>1023.0</ele><time>2026-04-28T10:06:45.196Z</time></trkpt><trkpt lat="38.0194333" lon="14.883645"><ele>1023.0</ele><time>2026-04-28T10:06:46.197Z</time></trkpt><trkpt lat="38.0195583" lon="14.8835117"><ele>1023.0</ele><time>2026-04-28T10:06:47.196Z</time></trkpt><trkpt lat="38.019675" lon="14.8833833"><ele>1023.0</ele><time>2026-04-28T10:06:48.196Z</time></trkpt><trkpt lat="38.0197683" lon="14.8832583"><ele>1024.2</ele><time>2026-04-28T10:06:49.196Z</time></trkpt><trkpt lat="38.0198533" lon="14.8831433"><ele>1025.4</ele><time>2026-04-28T10:06:50.196Z</time></trkpt><trkpt lat="38.0199467" lon="14.8830567"><ele>1026.6000000000001</ele><time>2026-04-28T10:06:51.197Z</time></trkpt><trkpt lat="38.0200483" lon="14.8830333"><ele>1027.8</ele><time>2026-04-28T10:06:52.196Z</time></trkpt><trkpt lat="38.0201367" lon="14.8830917"><ele>1029.0</ele><time>2026-04-28T10:06:53.196Z</time></trkpt><trkpt lat="38.02023" lon="14.8831933"><ele>1029.0</ele><time>2026-04-28T10:06:54.196Z</time></trkpt><trkpt lat="38.0203333" lon="14.883305"><ele>1029.0</ele><time>2026-04-28T10:06:55.196Z</time></trkpt><trkpt lat="38.0204417" lon="14.88341"><ele>1029.0</ele><time>2026-04-28T10:06:56.196Z</time></trkpt><trkpt lat="38.0205433" lon="14.8835133"><ele>1029.0</ele><time>2026-04-28T10:06:57.196Z</time></trkpt><trkpt lat="38.0206517" lon="14.8835833"><ele>1025.25</ele><time>2026-04-28T10:06:58.196Z</time></trkpt><trkpt lat="38.0207833" lon="14.8836217"><ele>1021.5</ele><time>2026-04-28T10:06:59.196Z</time></trkpt><trkpt lat="38.0209217" lon="14.883605"><ele>1017.75</ele><time>2026-04-28T10:07:00.196Z</time></trkpt><trkpt lat="38.0210617" lon="14.88354"><ele>1014.0</ele><time>2026-04-28T10:07:01.196Z</time></trkpt><trkpt lat="38.0211967" lon="14.88346"><ele>1014.0</ele><time>2026-04-28T10:07:02.197Z</time></trkpt><trkpt lat="38.02132" lon="14.8834067"><ele>1014.0</ele><time>2026-04-28T10:07:03.196Z</time></trkpt><trkpt lat="38.0214383" lon="14.8833933"><ele>1014.0</ele><time>2026-04-28T10:07:04.196Z</time></trkpt><trkpt lat="38.0215417" lon="14.8834467"><ele>1014.0</ele><time>2026-04-28T10:07:05.196Z</time></trkpt><trkpt lat="38.0216267" lon="14.8835533"><ele>1014.0</ele><time>2026-04-28T10:07:06.196Z</time></trkpt><trkpt lat="38.0217133" lon="14.883695"><ele>1014.0</ele><time>2026-04-28T10:07:07.196Z</time></trkpt><trkpt lat="38.0218033" lon="14.88386"><ele>1014.0</ele><time>2026-04-28T10:07:08.196Z</time></trkpt><trkpt lat="38.021905" lon="14.8840417"><ele>1014.0</ele><time>2026-04-28T10:07:09.196Z</time></trkpt><trkpt lat="38.0220133" lon="14.8842417"><ele>1014.0</ele><time>2026-04-28T10:07:10.196Z</time></trkpt><trkpt lat="38.0221217" lon="14.8844233"><ele>1014.0</ele><time>2026-04-28T10:07:11.196Z</time></trkpt><trkpt lat="38.02223" lon="14.8845867"><ele>1013.0</ele><time>2026-04-28T10:07:12.196Z</time></trkpt><trkpt lat="38.0223517" lon="14.8847367"><ele>1012.0</ele><time>2026-04-28T10:07:13.196Z</time></trkpt><trkpt lat="38.022495" lon="14.88486"><ele>1011.0</ele><time>2026-04-28T10:07:14.196Z</time></trkpt><trkpt lat="38.0226517" lon="14.8849567"><ele>1011.0</ele><time>2026-04-28T10:07:15.196Z</time></trkpt><trkpt lat="38.0228067" lon="14.8850167"><ele>1011.0</ele><time>2026-04-28T10:07:16.196Z</time></trkpt><trkpt lat="38.0229617" lon="14.8850233"><ele>1011.0</ele><time>2026-04-28T10:07:17.196Z</time></trkpt><trkpt lat="38.0231267" lon="14.8849867"><ele>1011.0</ele><time>2026-04-28T10:07:18.196Z</time></trkpt><trkpt lat="38.0232933" lon="14.8849367"><ele>1011.0</ele><time>2026-04-28T10:07:19.196Z</time></trkpt><trkpt lat="38.0234467" lon="14.8848767"><ele>1011.0</ele><time>2026-04-28T10:07:20.196Z</time></trkpt><trkpt lat="38.02359" lon="14.8848317"><ele>1012.5</ele><time>2026-04-28T10:07:21.196Z</time></trkpt><trkpt lat="38.0237117" lon="14.884815"><ele>1014.0</ele><time>2026-04-28T10:07:22.196Z</time></trkpt><trkpt lat="38.02386" lon="14.8847733"><ele>1015.5</ele><time>2026-04-28T10:07:23.196Z</time></trkpt><trkpt lat="38.0240033" lon="14.88473"><ele>1017.0</ele><time>2026-04-28T10:07:24.197Z</time></trkpt><trkpt lat="38.0241267" lon="14.8846917"><ele>1017.5</ele><time>2026-04-28T10:07:25.196Z</time></trkpt><trkpt lat="38.0242467" lon="14.88464"><ele>1018.0</ele><time>2026-04-28T10:07:26.196Z</time></trkpt><trkpt lat="38.02434" lon="14.8845567"><ele>1018.5</ele><time>2026-04-28T10:07:27.196Z</time></trkpt><trkpt lat="38.0244117" lon="14.8844417"><ele>1019.0</ele><time>2026-04-28T10:07:28.196Z</time></trkpt><trkpt lat="38.0244567" lon="14.8842967"><ele>1016.0</ele><time>2026-04-28T10:07:29.196Z</time></trkpt><trkpt lat="38.0244633" lon="14.884135"><ele>1013.0</ele><time>2026-04-28T10:07:30.196Z</time></trkpt><trkpt lat="38.0244317" lon="14.883975"><ele>1010.0</ele><time>2026-04-28T10:07:31.196Z</time></trkpt><trkpt lat="38.0243667" lon="14.8838317"><ele>1007.0</ele><time>2026-04-28T10:07:32.196Z</time></trkpt><trkpt lat="38.0242717" lon="14.88374"><ele>1007.0</ele><time>2026-04-28T10:07:33.197Z</time></trkpt><trkpt lat="38.0241567" lon="14.8837033"><ele>1007.0</ele><time>2026-04-28T10:07:34.196Z</time></trkpt><trkpt lat="38.0240217" lon="14.8837017"><ele>1007.0</ele><time>2026-04-28T10:07:35.197Z</time></trkpt><trkpt lat="38.023885" lon="14.883725"><ele>1007.0</ele><time>2026-04-28T10:07:36.196Z</time></trkpt><trkpt lat="38.0237383" lon="14.883745"><ele>1006.6666666666667</ele><time>2026-04-28T10:07:37.197Z</time></trkpt><trkpt lat="38.02358" lon="14.88376"><ele>1006.3333333333333</ele><time>2026-04-28T10:07:38.196Z</time></trkpt><trkpt lat="38.0234233" lon="14.8837617"><ele>1006.0</ele><time>2026-04-28T10:07:39.197Z</time></trkpt><trkpt lat="38.0232717" lon="14.8837567"><ele>1006.75</ele><time>2026-04-28T10:07:40.197Z</time></trkpt><trkpt lat="38.023135" lon="14.8837283"><ele>1007.5</ele><time>2026-04-28T10:07:41.196Z</time></trkpt><trkpt lat="38.02301" lon="14.883705"><ele>1008.25</ele><time>2026-04-28T10:07:42.196Z</time></trkpt><trkpt lat="38.0229033" lon="14.8836733"><ele>1009.0</ele><time>2026-04-28T10:07:43.196Z</time></trkpt><trkpt lat="38.0228117" lon="14.8836033"><ele>1009.0</ele><time>2026-04-28T10:07:44.196Z</time></trkpt><trkpt lat="38.0227483" lon="14.8834883"><ele>1009.0</ele><time>2026-04-28T10:07:45.196Z</time></trkpt><trkpt lat="38.0227183" lon="14.8833567"><ele>1009.0</ele><time>2026-04-28T10:07:46.196Z</time></trkpt><trkpt lat="38.0227417" lon="14.883215"><ele>1009.0</ele><time>2026-04-28T10:07:47.196Z</time></trkpt><trkpt lat="38.02281" lon="14.8830933"><ele>1007.5</ele><time>2026-04-28T10:07:48.196Z</time></trkpt><trkpt lat="38.022915" lon="14.8829967"><ele>1006.0</ele><time>2026-04-28T10:07:49.197Z</time></trkpt><trkpt lat="38.0230317" lon="14.882905"><ele>1004.5</ele><time>2026-04-28T10:07:50.196Z</time></trkpt><trkpt lat="38.0231683" lon="14.8827983"><ele>1003.0</ele><time>2026-04-28T10:07:51.196Z</time></trkpt><trkpt lat="38.023315" lon="14.88269"><ele>1001.0</ele><time>2026-04-28T10:07:52.196Z</time></trkpt><trkpt lat="38.023445" lon="14.8825683"><ele>999.0</ele><time>2026-04-28T10:07:53.196Z</time></trkpt><trkpt lat="38.0235517" lon="14.8824433"><ele>997.0</ele><time>2026-04-28T10:07:54.196Z</time></trkpt><trkpt lat="38.02365" lon="14.8823183"><ele>995.0</ele><time>2026-04-28T10:07:55.197Z</time></trkpt><trkpt lat="38.0237467" lon="14.8821817"><ele>995.0</ele><time>2026-04-28T10:07:56.196Z</time></trkpt><trkpt lat="38.0238517" lon="14.882045"><ele>995.0</ele><time>2026-04-28T10:07:57.196Z</time></trkpt><trkpt lat="38.0239533" lon="14.8819067"><ele>995.0</ele><time>2026-04-28T10:07:58.196Z</time></trkpt><trkpt lat="38.0240633" lon="14.8817717"><ele>991.5</ele><time>2026-04-28T10:07:59.196Z</time></trkpt><trkpt lat="38.02416" lon="14.8816433"><ele>988.0</ele><time>2026-04-28T10:08:00.197Z</time></trkpt><trkpt lat="38.0242517" lon="14.8815033"><ele>984.5</ele><time>2026-04-28T10:08:01.196Z</time></trkpt><trkpt lat="38.0243317" lon="14.8813367"><ele>981.0</ele><time>2026-04-28T10:08:02.196Z</time></trkpt><trkpt lat="38.0244" lon="14.881165"><ele>981.0</ele><time>2026-04-28T10:08:03.196Z</time></trkpt><trkpt lat="38.02447" lon="14.881"><ele>981.0</ele><time>2026-04-28T10:08:04.196Z</time></trkpt><trkpt lat="38.0245317" lon="14.8808383"><ele>981.0</ele><time>2026-04-28T10:08:05.196Z</time></trkpt><trkpt lat="38.024585" lon="14.8806817"><ele>981.0</ele><time>2026-04-28T10:08:06.196Z</time></trkpt><trkpt lat="38.0246067" lon="14.8805067"><ele>984.6666666666667</ele><time>2026-04-28T10:08:07.196Z</time></trkpt><trkpt lat="38.02461" lon="14.8803183"><ele>988.3333333333334</ele><time>2026-04-28T10:08:08.196Z</time></trkpt><trkpt lat="38.0245833" lon="14.8801217"><ele>992.0</ele><time>2026-04-28T10:08:09.196Z</time></trkpt><trkpt lat="38.02454" lon="14.8799217"><ele>992.0</ele><time>2026-04-28T10:08:10.196Z</time></trkpt><trkpt lat="38.0245017" lon="14.87973"><ele>992.0</ele><time>2026-04-28T10:08:11.196Z</time></trkpt><trkpt lat="38.0244467" lon="14.87956"><ele>992.0</ele><time>2026-04-28T10:08:12.197Z</time></trkpt><trkpt lat="38.024375" lon="14.8793983"><ele>992.0</ele><time>2026-04-28T10:08:13.196Z</time></trkpt><trkpt lat="38.0242767" lon="14.879255"><ele>998.0</ele><time>2026-04-28T10:08:14.196Z</time></trkpt><trkpt lat="38.0241467" lon="14.879125"><ele>1004.0</ele><time>2026-04-28T10:08:15.197Z</time></trkpt><trkpt lat="38.0240133" lon="14.879005"><ele>1010.0</ele><time>2026-04-28T10:08:16.196Z</time></trkpt><trkpt lat="38.02389" lon="14.8788817"><ele>1010.0</ele><time>2026-04-28T10:08:17.197Z</time></trkpt><trkpt lat="38.023775" lon="14.8787483"><ele>1010.0</ele><time>2026-04-28T10:08:18.196Z</time></trkpt><trkpt lat="38.0236767" lon="14.8786133"><ele>1010.0</ele><time>2026-04-28T10:08:19.197Z</time></trkpt><trkpt lat="38.0235833" lon="14.8784833"><ele>1010.0</ele><time>2026-04-28T10:08:20.196Z</time></trkpt><trkpt lat="38.0234983" lon="14.87836"><ele>1009.6</ele><time>2026-04-28T10:08:21.196Z</time></trkpt><trkpt lat="38.0234183" lon="14.878245"><ele>1009.2</ele><time>2026-04-28T10:08:22.196Z</time></trkpt><trkpt lat="38.0233417" lon="14.8781333"><ele>1008.8</ele><time>2026-04-28T10:08:23.196Z</time></trkpt><trkpt lat="38.0232717" lon="14.87803"><ele>1008.4</ele><time>2026-04-28T10:08:24.196Z</time></trkpt><trkpt lat="38.02321" lon="14.8779267"><ele>1008.0</ele><time>2026-04-28T10:08:25.197Z</time></trkpt><trkpt lat="38.0231833" lon="14.877815"><ele>1008.0</ele><time>2026-04-28T10:08:26.196Z</time></trkpt><trkpt lat="38.0231933" lon="14.8776983"><ele>1008.0</ele><time>2026-04-28T10:08:27.196Z</time></trkpt><trkpt lat="38.0232383" lon="14.8776"><ele>1008.0</ele><time>2026-04-28T10:08:28.196Z</time></trkpt><trkpt lat="38.0233083" lon="14.8775233"><ele>1008.0</ele><time>2026-04-28T10:08:29.196Z</time></trkpt><trkpt lat="38.02341" lon="14.8774667"><ele>1008.0</ele><time>2026-04-28T10:08:30.196Z</time></trkpt><trkpt lat="38.0235533" lon="14.8774533"><ele>999.75</ele><time>2026-04-28T10:08:31.197Z</time></trkpt><trkpt lat="38.0237233" lon="14.8774483"><ele>991.5</ele><time>2026-04-28T10:08:32.196Z</time></trkpt><trkpt lat="38.0238683" lon="14.8774383"><ele>983.25</ele><time>2026-04-28T10:08:33.196Z</time></trkpt><trkpt lat="38.024" lon="14.87742"><ele>975.0</ele><time>2026-04-28T10:08:34.196Z</time></trkpt><trkpt lat="38.02413" lon="14.877425"><ele>971.0</ele><time>2026-04-28T10:08:35.196Z</time></trkpt><trkpt lat="38.0242717" lon="14.87745"><ele>967.0</ele><time>2026-04-28T10:08:36.197Z</time></trkpt><trkpt lat="38.0244" lon="14.877495"><ele>963.0</ele><time>2026-04-28T10:08:37.196Z</time></trkpt><trkpt lat="38.02452" lon="14.8775567"><ele>959.0</ele><time>2026-04-28T10:08:38.195Z</time></trkpt><trkpt lat="38.0246467" lon="14.8776067"><ele>956.25</ele><time>2026-04-28T10:08:39.197Z</time></trkpt><trkpt lat="38.024775" lon="14.8776383"><ele>953.5</ele><time>2026-04-28T10:08:40.197Z</time></trkpt><trkpt lat="38.0248967" lon="14.8776517"><ele>950.75</ele><time>2026-04-28T10:08:41.196Z</time></trkpt><trkpt lat="38.0250167" lon="14.8776667"><ele>948.0</ele><time>2026-04-28T10:08:42.196Z</time></trkpt><trkpt lat="38.025135" lon="14.8776767"><ele>942.25</ele><time>2026-04-28T10:08:43.196Z</time></trkpt><trkpt lat="38.0252533" lon="14.8776833"><ele>936.5</ele><time>2026-04-28T10:08:44.196Z</time></trkpt><trkpt lat="38.0253683" lon="14.87769"><ele>930.75</ele><time>2026-04-28T10:08:45.196Z</time></trkpt><trkpt lat="38.0254933" lon="14.877695"><ele>925.0</ele><time>2026-04-28T10:08:46.196Z</time></trkpt><trkpt lat="38.0256183" lon="14.877705"><ele>925.0</ele><time>2026-04-28T10:08:47.196Z</time></trkpt><trkpt lat="38.0257483" lon="14.8776817"><ele>925.0</ele><time>2026-04-28T10:08:48.196Z</time></trkpt><trkpt lat="38.0259033" lon="14.8776033"><ele>925.0</ele><time>2026-04-28T10:08:49.196Z</time></trkpt><trkpt lat="38.0260817" lon="14.8775217"><ele>926.3333333333333</ele><time>2026-04-28T10:08:50.196Z</time></trkpt><trkpt lat="38.0262783" lon="14.877435"><ele>927.6666666666667</ele><time>2026-04-28T10:08:51.196Z</time></trkpt><trkpt lat="38.0264867" lon="14.8773533"><ele>929.0</ele><time>2026-04-28T10:08:52.197Z</time></trkpt><trkpt lat="38.026685" lon="14.8772783"><ele>929.0</ele><time>2026-04-28T10:08:53.196Z</time></trkpt><trkpt lat="38.0268767" lon="14.87721"><ele>929.0</ele><time>2026-04-28T10:08:54.196Z</time></trkpt><trkpt lat="38.0270567" lon="14.8771583"><ele>929.0</ele><time>2026-04-28T10:08:55.196Z</time></trkpt><trkpt lat="38.027225" lon="14.8770867"><ele>929.0</ele><time>2026-04-28T10:08:56.197Z</time></trkpt><trkpt lat="38.02737" lon="14.8769833"><ele>929.0</ele><time>2026-04-28T10:08:57.196Z</time></trkpt><trkpt lat="38.0275083" lon="14.8768317"><ele>929.0</ele><time>2026-04-28T10:08:58.196Z</time></trkpt><trkpt lat="38.0276417" lon="14.876665"><ele>932.6666666666667</ele><time>2026-04-28T10:08:59.197Z</time></trkpt><trkpt lat="38.0277867" lon="14.8765133"><ele>936.3333333333333</ele><time>2026-04-28T10:09:00.197Z</time></trkpt><trkpt lat="38.0279583" lon="14.876375"><ele>940.0</ele><time>2026-04-28T10:09:01.196Z</time></trkpt><trkpt lat="38.0281433" lon="14.8762483"><ele>937.3333333333333</ele><time>2026-04-28T10:09:02.196Z</time></trkpt><trkpt lat="38.0283133" lon="14.8761283"><ele>934.6666666666667</ele><time>2026-04-28T10:09:03.196Z</time></trkpt><trkpt lat="38.028465" lon="14.87603"><ele>932.0</ele><time>2026-04-28T10:09:04.196Z</time></trkpt><trkpt lat="38.02861" lon="14.8759167"><ele>932.0</ele><time>2026-04-28T10:09:05.196Z</time></trkpt><trkpt lat="38.0287467" lon="14.8757733"><ele>932.0</ele><time>2026-04-28T10:09:06.196Z</time></trkpt><trkpt lat="38.0288683" lon="14.87561"><ele>932.0</ele><time>2026-04-28T10:09:07.196Z</time></trkpt><trkpt lat="38.0289567" lon="14.8754417"><ele>932.0</ele><time>2026-04-28T10:09:08.196Z</time></trkpt><trkpt lat="38.0290117" lon="14.8752483"><ele>932.0</ele><time>2026-04-28T10:09:09.196Z</time></trkpt><trkpt lat="38.029045" lon="14.8750217"><ele>932.0</ele><time>2026-04-28T10:09:10.196Z</time></trkpt><trkpt lat="38.0290633" lon="14.87477"><ele>935.0</ele><time>2026-04-28T10:09:11.196Z</time></trkpt><trkpt lat="38.029085" lon="14.8745083"><ele>938.0</ele><time>2026-04-28T10:09:12.196Z</time></trkpt><trkpt lat="38.0290983" lon="14.87426"><ele>941.0</ele><time>2026-04-28T10:09:13.196Z</time></trkpt><trkpt lat="38.0291183" lon="14.8740233"><ele>940.6666666666667</ele><time>2026-04-28T10:09:14.196Z</time></trkpt><trkpt lat="38.0291333" lon="14.8737883"><ele>940.3333333333333</ele><time>2026-04-28T10:09:15.196Z</time></trkpt><trkpt lat="38.0291417" lon="14.8735683"><ele>940.0</ele><time>2026-04-28T10:09:16.197Z</time></trkpt><trkpt lat="38.02912" lon="14.8733417"><ele>940.0</ele><time>2026-04-28T10:09:17.196Z</time></trkpt><trkpt lat="38.0290583" lon="14.8731"><ele>940.0</ele><time>2026-04-28T10:09:18.196Z</time></trkpt><trkpt lat="38.0289883" lon="14.872845"><ele>940.0</ele><time>2026-04-28T10:09:19.196Z</time></trkpt><trkpt lat="38.028915" lon="14.8725917"><ele>936.6666666666666</ele><time>2026-04-28T10:09:20.197Z</time></trkpt><trkpt lat="38.0288517" lon="14.8723283"><ele>933.3333333333333</ele><time>2026-04-28T10:09:21.196Z</time></trkpt><trkpt lat="38.0287883" lon="14.87208"><ele>930.0</ele><time>2026-04-28T10:09:22.196Z</time></trkpt><trkpt lat="38.0287333" lon="14.8718483"><ele>924.6666666666667</ele><time>2026-04-28T10:09:23.196Z</time></trkpt><trkpt lat="38.0286783" lon="14.87163"><ele>919.3333333333334</ele><time>2026-04-28T10:09:24.196Z</time></trkpt><trkpt lat="38.0286133" lon="14.87143"><ele>914.0</ele><time>2026-04-28T10:09:25.196Z</time></trkpt><trkpt lat="38.028525" lon="14.8712533"><ele>914.0</ele><time>2026-04-28T10:09:26.197Z</time></trkpt><trkpt lat="38.0284183" lon="14.8710833"><ele>914.0</ele><time>2026-04-28T10:09:27.196Z</time></trkpt><trkpt lat="38.028295" lon="14.8709083"><ele>914.0</ele><time>2026-04-28T10:09:28.196Z</time></trkpt><trkpt lat="38.0281583" lon="14.8707433"><ele>912.0</ele><time>2026-04-28T10:09:29.196Z</time></trkpt><trkpt lat="38.0280017" lon="14.8705883"><ele>910.0</ele><time>2026-04-28T10:09:30.197Z</time></trkpt><trkpt lat="38.02784" lon="14.870455"><ele>908.0</ele><time>2026-04-28T10:09:31.196Z</time></trkpt><trkpt lat="38.0276867" lon="14.8703317"><ele>908.0</ele><time>2026-04-28T10:09:32.196Z</time></trkpt><trkpt lat="38.0275417" lon="14.87022"><ele>908.0</ele><time>2026-04-28T10:09:33.197Z</time></trkpt><trkpt lat="38.0274033" lon="14.8701133"><ele>908.0</ele><time>2026-04-28T10:09:34.196Z</time></trkpt><trkpt lat="38.0272717" lon="14.8700067"><ele>904.25</ele><time>2026-04-28T10:09:35.197Z</time></trkpt><trkpt lat="38.02715" lon="14.8699133"><ele>900.5</ele><time>2026-04-28T10:09:36.196Z</time></trkpt><trkpt lat="38.0270633" lon="14.8698233"><ele>896.75</ele><time>2026-04-28T10:09:37.196Z</time></trkpt><trkpt lat="38.0270017" lon="14.8697133"><ele>893.0</ele><time>2026-04-28T10:09:38.196Z</time></trkpt><trkpt lat="38.02699" lon="14.869595"><ele>893.0</ele><time>2026-04-28T10:09:39.196Z</time></trkpt><trkpt lat="38.0270167" lon="14.869465"><ele>893.0</ele><time>2026-04-28T10:09:40.196Z</time></trkpt><trkpt lat="38.0270883" lon="14.86936"><ele>893.0</ele><time>2026-04-28T10:09:41.196Z</time></trkpt><trkpt lat="38.027195" lon="14.8692667"><ele>893.0</ele><time>2026-04-28T10:09:42.196Z</time></trkpt><trkpt lat="38.0273317" lon="14.8691833"><ele>894.25</ele><time>2026-04-28T10:09:43.196Z</time></trkpt><trkpt lat="38.02747" lon="14.869095"><ele>895.5</ele><time>2026-04-28T10:09:44.196Z</time></trkpt><trkpt lat="38.0276033" lon="14.8690033"><ele>896.75</ele><time>2026-04-28T10:09:45.196Z</time></trkpt><trkpt lat="38.0277167" lon="14.8689033"><ele>898.0</ele><time>2026-04-28T10:09:46.196Z</time></trkpt><trkpt lat="38.0278183" lon="14.8688"><ele>894.25</ele><time>2026-04-28T10:09:47.196Z</time></trkpt><trkpt lat="38.0279283" lon="14.8687267"><ele>890.5</ele><time>2026-04-28T10:09:48.196Z</time></trkpt><trkpt lat="38.0280517" lon="14.8686967"><ele>886.75</ele><time>2026-04-28T10:09:49.196Z</time></trkpt><trkpt lat="38.0281917" lon="14.8687033"><ele>883.0</ele><time>2026-04-28T10:09:50.197Z</time></trkpt><trkpt lat="38.02834" lon="14.8687517"><ele>878.3333333333333</ele><time>2026-04-28T10:09:51.196Z</time></trkpt><trkpt lat="38.0284817" lon="14.86883"><ele>873.6666666666667</ele><time>2026-04-28T10:09:52.197Z</time></trkpt><trkpt lat="38.028625" lon="14.8689017"><ele>869.0</ele><time>2026-04-28T10:09:53.196Z</time></trkpt><trkpt lat="38.0287883" lon="14.8689383"><ele>869.0</ele><time>2026-04-28T10:09:54.196Z</time></trkpt><trkpt lat="38.0289667" lon="14.8689467"><ele>869.0</ele><time>2026-04-28T10:09:55.196Z</time></trkpt><trkpt lat="38.0291533" lon="14.868945"><ele>869.0</ele><time>2026-04-28T10:09:56.197Z</time></trkpt><trkpt lat="38.02934" lon="14.8689383"><ele>867.3333333333334</ele><time>2026-04-28T10:09:57.196Z</time></trkpt><trkpt lat="38.0295183" lon="14.868935"><ele>865.6666666666667</ele><time>2026-04-28T10:09:58.196Z</time></trkpt><trkpt lat="38.0296833" lon="14.8689333"><ele>864.0</ele><time>2026-04-28T10:09:59.196Z</time></trkpt><trkpt lat="38.0298367" lon="14.8689367"><ele>863.0</ele><time>2026-04-28T10:10:00.196Z</time></trkpt><trkpt lat="38.0299933" lon="14.8689483"><ele>862.0</ele><time>2026-04-28T10:10:01.196Z</time></trkpt><trkpt lat="38.0301483" lon="14.869"><ele>861.0</ele><time>2026-04-28T10:10:02.196Z</time></trkpt><trkpt lat="38.0302883" lon="14.8690817"><ele>861.0</ele><time>2026-04-28T10:10:03.196Z</time></trkpt><trkpt lat="38.0304167" lon="14.8691733"><ele>861.0</ele><time>2026-04-28T10:10:04.196Z</time></trkpt><trkpt lat="38.0305383" lon="14.86923"><ele>861.0</ele><time>2026-04-28T10:10:05.196Z</time></trkpt><trkpt lat="38.0306533" lon="14.8692183"><ele>861.0</ele><time>2026-04-28T10:10:06.196Z</time></trkpt><trkpt lat="38.0307717" lon="14.8691517"><ele>861.25</ele><time>2026-04-28T10:10:07.196Z</time></trkpt><trkpt lat="38.0308917" lon="14.869065"><ele>861.5</ele><time>2026-04-28T10:10:08.196Z</time></trkpt><trkpt lat="38.031015" lon="14.86899"><ele>861.75</ele><time>2026-04-28T10:10:09.196Z</time></trkpt><trkpt lat="38.0311233" lon="14.8689317"><ele>862.0</ele><time>2026-04-28T10:10:10.196Z</time></trkpt><trkpt lat="38.0312317" lon="14.8689083"><ele>862.0</ele><time>2026-04-28T10:10:11.196Z</time></trkpt><trkpt lat="38.0313283" lon="14.868945"><ele>862.0</ele><time>2026-04-28T10:10:12.196Z</time></trkpt><trkpt lat="38.0313983" lon="14.8690533"><ele>862.0</ele><time>2026-04-28T10:10:13.196Z</time></trkpt><trkpt lat="38.0314317" lon="14.8691967"><ele>862.0</ele><time>2026-04-28T10:10:14.196Z</time></trkpt><trkpt lat="38.0314533" lon="14.8693567"><ele>858.3333333333333</ele><time>2026-04-28T10:10:15.196Z</time></trkpt><trkpt lat="38.0315033" lon="14.8695367"><ele>854.6666666666667</ele><time>2026-04-28T10:10:16.196Z</time></trkpt><trkpt lat="38.0315833" lon="14.869715"><ele>851.0</ele><time>2026-04-28T10:10:17.197Z</time></trkpt><trkpt lat="38.0316767" lon="14.8698967"><ele>851.0</ele><time>2026-04-28T10:10:18.196Z</time></trkpt><trkpt lat="38.0317683" lon="14.8701"><ele>851.0</ele><time>2026-04-28T10:10:19.196Z</time></trkpt><trkpt lat="38.031845" lon="14.8703017"><ele>851.0</ele><time>2026-04-28T10:10:20.196Z</time></trkpt><trkpt lat="38.031915" lon="14.8704983"><ele>844.3333333333334</ele><time>2026-04-28T10:10:21.196Z</time></trkpt><trkpt lat="38.0320033" lon="14.8706933"><ele>837.6666666666667</ele><time>2026-04-28T10:10:22.196Z</time></trkpt><trkpt lat="38.032105" lon="14.8708483"><ele>831.0</ele><time>2026-04-28T10:10:23.196Z</time></trkpt><trkpt lat="38.0322433" lon="14.870975"><ele>828.6666666666667</ele><time>2026-04-28T10:10:24.196Z</time></trkpt><trkpt lat="38.0324" lon="14.8710867"><ele>826.3333333333334</ele><time>2026-04-28T10:10:25.196Z</time></trkpt><trkpt lat="38.0325667" lon="14.8712117"><ele>824.0</ele><time>2026-04-28T10:10:26.196Z</time></trkpt><trkpt lat="38.0327383" lon="14.8713367"><ele>824.0</ele><time>2026-04-28T10:10:27.196Z</time></trkpt><trkpt lat="38.032905" lon="14.8714767"><ele>824.0</ele><time>2026-04-28T10:10:28.196Z</time></trkpt><trkpt lat="38.0330583" lon="14.8716267"><ele>824.0</ele><time>2026-04-28T10:10:29.197Z</time></trkpt><trkpt lat="38.0331967" lon="14.8717833"><ele>823.3333333333334</ele><time>2026-04-28T10:10:30.196Z</time></trkpt><trkpt lat="38.03333" lon="14.8719433"><ele>822.6666666666667</ele><time>2026-04-28T10:10:31.196Z</time></trkpt><trkpt lat="38.033465" lon="14.8721017"><ele>822.0</ele><time>2026-04-28T10:10:32.196Z</time></trkpt><trkpt lat="38.0335983" lon="14.872245"><ele>822.0</ele><time>2026-04-28T10:10:33.196Z</time></trkpt><trkpt lat="38.03373" lon="14.872395"><ele>822.0</ele><time>2026-04-28T10:10:34.196Z</time></trkpt><trkpt lat="38.0338383" lon="14.87255"><ele>822.0</ele><time>2026-04-28T10:10:35.196Z</time></trkpt><trkpt lat="38.0339333" lon="14.8727433"><ele>825.0</ele><time>2026-04-28T10:10:36.196Z</time></trkpt><trkpt lat="38.0340067" lon="14.8729483"><ele>828.0</ele><time>2026-04-28T10:10:37.196Z</time></trkpt><trkpt lat="38.0340717" lon="14.8731567"><ele>831.0</ele><time>2026-04-28T10:10:38.196Z</time></trkpt><trkpt lat="38.0341567" lon="14.8733533"><ele>826.3333333333333</ele><time>2026-04-28T10:10:39.196Z</time></trkpt><trkpt lat="38.0342467" lon="14.8735317"><ele>821.6666666666666</ele><time>2026-04-28T10:10:40.197Z</time></trkpt><trkpt lat="38.0343383" lon="14.8737133"><ele>817.0</ele><time>2026-04-28T10:10:41.196Z</time></trkpt><trkpt lat="38.0344067" lon="14.8738983"><ele>817.0</ele><time>2026-04-28T10:10:42.196Z</time></trkpt><trkpt lat="38.034445" lon="14.8741067"><ele>817.0</ele><time>2026-04-28T10:10:43.196Z</time></trkpt><trkpt lat="38.0344633" lon="14.8743267"><ele>817.0</ele><time>2026-04-28T10:10:44.196Z</time></trkpt><trkpt lat="38.034485" lon="14.874545"><ele>813.3333333333333</ele><time>2026-04-28T10:10:45.196Z</time></trkpt><trkpt lat="38.0345033" lon="14.87475"><ele>809.6666666666667</ele><time>2026-04-28T10:10:46.197Z</time></trkpt><trkpt lat="38.0345233" lon="14.8749433"><ele>806.0</ele><time>2026-04-28T10:10:47.196Z</time></trkpt><trkpt lat="38.0345583" lon="14.875125"><ele>803.0</ele><time>2026-04-28T10:10:48.197Z</time></trkpt><trkpt lat="38.0346083" lon="14.8753083"><ele>800.0</ele><time>2026-04-28T10:10:49.197Z</time></trkpt><trkpt lat="38.0346783" lon="14.875475"><ele>797.0</ele><time>2026-04-28T10:10:50.196Z</time></trkpt><trkpt lat="38.03478" lon="14.8756317"><ele>797.0</ele><time>2026-04-28T10:10:51.196Z</time></trkpt><trkpt lat="38.0348817" lon="14.8757933"><ele>797.0</ele><time>2026-04-28T10:10:52.196Z</time></trkpt><trkpt lat="38.03498" lon="14.8759517"><ele>797.0</ele><time>2026-04-28T10:10:53.196Z</time></trkpt><trkpt lat="38.0350683" lon="14.87611"><ele>797.5</ele><time>2026-04-28T10:10:54.197Z</time></trkpt><trkpt lat="38.0351667" lon="14.87625"><ele>798.0</ele><time>2026-04-28T10:10:55.197Z</time></trkpt><trkpt lat="38.035285" lon="14.8763633"><ele>798.5</ele><time>2026-04-28T10:10:56.196Z</time></trkpt><trkpt lat="38.035425" lon="14.87644"><ele>799.0</ele><time>2026-04-28T10:10:57.196Z</time></trkpt><trkpt lat="38.03557" lon="14.8765017"><ele>799.0</ele><time>2026-04-28T10:10:58.196Z</time></trkpt><trkpt lat="38.035725" lon="14.8765783"><ele>799.0</ele><time>2026-04-28T10:10:59.196Z</time></trkpt><trkpt lat="38.0358667" lon="14.8766867"><ele>799.0</ele><time>2026-04-28T10:11:00.196Z</time></trkpt><trkpt lat="38.0360083" lon="14.8768"><ele>796.6666666666666</ele><time>2026-04-28T10:11:01.196Z</time></trkpt><trkpt lat="38.0361567" lon="14.87693"><ele>794.3333333333333</ele><time>2026-04-28T10:11:02.196Z</time></trkpt><trkpt lat="38.0362983" lon="14.8770667"><ele>792.0</ele><time>2026-04-28T10:11:03.197Z</time></trkpt><trkpt lat="38.0364383" lon="14.877195"><ele>792.0</ele><time>2026-04-28T10:11:04.196Z</time></trkpt><trkpt lat="38.0365733" lon="14.877325"><ele>792.0</ele><time>2026-04-28T10:11:05.196Z</time></trkpt><trkpt lat="38.0367083" lon="14.877435"><ele>792.0</ele><time>2026-04-28T10:11:06.196Z</time></trkpt><trkpt lat="38.0368433" lon="14.8775117"><ele>794.5</ele><time>2026-04-28T10:11:07.196Z</time></trkpt><trkpt lat="38.036975" lon="14.8775917"><ele>797.0</ele><time>2026-04-28T10:11:08.196Z</time></trkpt><trkpt lat="38.03709" lon="14.877675"><ele>799.5</ele><time>2026-04-28T10:11:09.197Z</time></trkpt><trkpt lat="38.0372" lon="14.877745"><ele>802.0</ele><time>2026-04-28T10:11:10.197Z</time></trkpt><trkpt lat="38.0373017" lon="14.87779"><ele>800.4000000000001</ele><time>2026-04-28T10:11:11.197Z</time></trkpt><trkpt lat="38.0374" lon="14.8777733"><ele>798.8000000000001</ele><time>2026-04-28T10:11:12.197Z</time></trkpt><trkpt lat="38.0374817" lon="14.8777033"><ele>797.2</ele><time>2026-04-28T10:11:13.196Z</time></trkpt><trkpt lat="38.0375417" lon="14.8775917"><ele>795.6</ele><time>2026-04-28T10:11:14.196Z</time></trkpt><trkpt lat="38.037575" lon="14.87743"><ele>794.0</ele><time>2026-04-28T10:11:15.197Z</time></trkpt><trkpt lat="38.0375933" lon="14.877225"><ele>794.0</ele><time>2026-04-28T10:11:16.196Z</time></trkpt><trkpt lat="38.0376133" lon="14.8770117"><ele>794.0</ele><time>2026-04-28T10:11:17.196Z</time></trkpt><trkpt lat="38.0376333" lon="14.87679"><ele>794.0</ele><time>2026-04-28T10:11:18.196Z</time></trkpt><trkpt lat="38.037655" lon="14.8765717"><ele>796.3333333333334</ele><time>2026-04-28T10:11:19.196Z</time></trkpt><trkpt lat="38.0376983" lon="14.876375"><ele>798.6666666666667</ele><time>2026-04-28T10:11:20.196Z</time></trkpt><trkpt lat="38.0377517" lon="14.876195"><ele>801.0</ele><time>2026-04-28T10:11:21.196Z</time></trkpt><trkpt lat="38.03783" lon="14.876035"><ele>803.3333333333333</ele><time>2026-04-28T10:11:22.196Z</time></trkpt><trkpt lat="38.037925" lon="14.8758833"><ele>805.6666666666666</ele><time>2026-04-28T10:11:23.196Z</time></trkpt><trkpt lat="38.0380033" lon="14.87571"><ele>808.0</ele><time>2026-04-28T10:11:24.196Z</time></trkpt><trkpt lat="38.0380683" lon="14.8755383"><ele>808.0</ele><time>2026-04-28T10:11:25.196Z</time></trkpt><trkpt lat="38.038145" lon="14.8753817"><ele>808.0</ele><time>2026-04-28T10:11:26.196Z</time></trkpt><trkpt lat="38.0382467" lon="14.8752417"><ele>808.0</ele><time>2026-04-28T10:11:27.196Z</time></trkpt><trkpt lat="38.038345" lon="14.87512"><ele>808.0</ele><time>2026-04-28T10:11:28.196Z</time></trkpt><trkpt lat="38.0384417" lon="14.8750217"><ele>805.5</ele><time>2026-04-28T10:11:29.196Z</time></trkpt><trkpt lat="38.0385533" lon="14.874955"><ele>803.0</ele><time>2026-04-28T10:11:30.196Z</time></trkpt><trkpt lat="38.0386667" lon="14.8749367"><ele>800.5</ele><time>2026-04-28T10:11:31.196Z</time></trkpt><trkpt lat="38.0387967" lon="14.8749467"><ele>798.0</ele><time>2026-04-28T10:11:32.197Z</time></trkpt><trkpt lat="38.038915" lon="14.8749633"><ele>798.0</ele><time>2026-04-28T10:11:33.196Z</time></trkpt><trkpt lat="38.0390283" lon="14.874995"><ele>798.0</ele><time>2026-04-28T10:11:34.196Z</time></trkpt><trkpt lat="38.039135" lon="14.875045"><ele>798.0</ele><time>2026-04-28T10:11:35.197Z</time></trkpt><trkpt lat="38.039205" lon="14.8751367"><ele>798.0</ele><time>2026-04-28T10:11:36.196Z</time></trkpt><trkpt lat="38.03924" lon="14.8752433"><ele>798.0</ele><time>2026-04-28T10:11:37.196Z</time></trkpt><trkpt lat="38.0392267" lon="14.8753733"><ele>790.5</ele><time>2026-04-28T10:11:38.196Z</time></trkpt><trkpt lat="38.0392233" lon="14.875515"><ele>783.0</ele><time>2026-04-28T10:11:39.197Z</time></trkpt><trkpt lat="38.0392617" lon="14.8756617"><ele>775.5</ele><time>2026-04-28T10:11:40.196Z</time></trkpt><trkpt lat="38.03934" lon="14.875805"><ele>768.0</ele><time>2026-04-28T10:11:41.197Z</time></trkpt><trkpt lat="38.0394267" lon="14.8759533"><ele>757.0</ele><time>2026-04-28T10:11:42.196Z</time></trkpt><trkpt lat="38.03952" lon="14.87612"><ele>746.0</ele><time>2026-04-28T10:11:43.196Z</time></trkpt><trkpt lat="38.0396117" lon="14.87628"><ele>735.0</ele><time>2026-04-28T10:11:44.196Z</time></trkpt><trkpt lat="38.039705" lon="14.8764367"><ele>735.0</ele><time>2026-04-28T10:11:45.196Z</time></trkpt><trkpt lat="38.0398067" lon="14.8765767"><ele>735.0</ele><time>2026-04-28T10:11:46.196Z</time></trkpt><trkpt lat="38.039925" lon="14.8766967"><ele>735.0</ele><time>2026-04-28T10:11:47.196Z</time></trkpt><trkpt lat="38.0400467" lon="14.8768017"><ele>735.0</ele><time>2026-04-28T10:11:48.196Z</time></trkpt><trkpt lat="38.0401517" lon="14.8769217"><ele>739.0</ele><time>2026-04-28T10:11:49.196Z</time></trkpt><trkpt lat="38.04023" lon="14.8770883"><ele>743.0</ele><time>2026-04-28T10:11:50.196Z</time></trkpt><trkpt lat="38.0402933" lon="14.87726"><ele>747.0</ele><time>2026-04-28T10:11:51.196Z</time></trkpt><trkpt lat="38.0403633" lon="14.87745"><ele>737.0</ele><time>2026-04-28T10:11:52.196Z</time></trkpt><trkpt lat="38.04045" lon="14.8776417"><ele>727.0</ele><time>2026-04-28T10:11:53.196Z</time></trkpt><trkpt lat="38.0405317" lon="14.877825"><ele>717.0</ele><time>2026-04-28T10:11:54.197Z</time></trkpt><trkpt lat="38.040605" lon="14.8780017"><ele>717.0</ele><time>2026-04-28T10:11:55.197Z</time></trkpt><trkpt lat="38.0406767" lon="14.8781767"><ele>717.0</ele><time>2026-04-28T10:11:56.196Z</time></trkpt><trkpt lat="38.0407583" lon="14.8783417"><ele>717.0</ele><time>2026-04-28T10:11:57.197Z</time></trkpt><trkpt lat="38.0408617" lon="14.878485"><ele>721.6666666666666</ele><time>2026-04-28T10:11:58.196Z</time></trkpt><trkpt lat="38.04098" lon="14.878605"><ele>726.3333333333333</ele><time>2026-04-28T10:11:59.196Z</time></trkpt><trkpt lat="38.0411133" lon="14.8787"><ele>731.0</ele><time>2026-04-28T10:12:00.196Z</time></trkpt><trkpt lat="38.0412467" lon="14.8787783"><ele>731.0</ele><time>2026-04-28T10:12:01.196Z</time></trkpt><trkpt lat="38.04137" lon="14.8788583"><ele>731.0</ele><time>2026-04-28T10:12:02.196Z</time></trkpt><trkpt lat="38.041495" lon="14.878935"><ele>731.0</ele><time>2026-04-28T10:12:03.197Z</time></trkpt><trkpt lat="38.0416167" lon="14.8790117"><ele>731.0</ele><time>2026-04-28T10:12:04.197Z</time></trkpt><trkpt lat="38.0417333" lon="14.87909"><ele>728.25</ele><time>2026-04-28T10:12:05.197Z</time></trkpt><trkpt lat="38.0418433" lon="14.8791767"><ele>725.5</ele><time>2026-04-28T10:12:06.197Z</time></trkpt><trkpt lat="38.0419583" lon="14.8792633"><ele>722.75</ele><time>2026-04-28T10:12:07.196Z</time></trkpt><trkpt lat="38.0420667" lon="14.8793467"><ele>720.0</ele><time>2026-04-28T10:12:08.197Z</time></trkpt><trkpt lat="38.0421783" lon="14.8794267"><ele>720.0</ele><time>2026-04-28T10:12:09.197Z</time></trkpt><trkpt lat="38.0422917" lon="14.879495"><ele>720.0</ele><time>2026-04-28T10:12:10.196Z</time></trkpt><trkpt lat="38.0424033" lon="14.8795633"><ele>720.0</ele><time>2026-04-28T10:12:11.196Z</time></trkpt><trkpt lat="38.042525" lon="14.879625"><ele>720.0</ele><time>2026-04-28T10:12:12.196Z</time></trkpt><trkpt lat="38.0426617" lon="14.8796433"><ele>722.5</ele><time>2026-04-28T10:12:13.196Z</time></trkpt><trkpt lat="38.0427867" lon="14.87964"><ele>725.0</ele><time>2026-04-28T10:12:14.196Z</time></trkpt><trkpt lat="38.0429017" lon="14.8796233"><ele>727.5</ele><time>2026-04-28T10:12:15.196Z</time></trkpt><trkpt lat="38.0430217" lon="14.8795867"><ele>730.0</ele><time>2026-04-28T10:12:16.196Z</time></trkpt><trkpt lat="38.0431367" lon="14.8795233"><ele>730.0</ele><time>2026-04-28T10:12:17.196Z</time></trkpt><trkpt lat="38.043265" lon="14.8794633"><ele>730.0</ele><time>2026-04-28T10:12:18.196Z</time></trkpt><trkpt lat="38.04338" lon="14.879395"><ele>730.0</ele><time>2026-04-28T10:12:19.197Z</time></trkpt><trkpt lat="38.043485" lon="14.8793567"><ele>730.0</ele><time>2026-04-28T10:12:20.194Z</time></trkpt><trkpt lat="38.0436067" lon="14.87934"><ele>728.2</ele><time>2026-04-28T10:12:21.196Z</time></trkpt><trkpt lat="38.0437183" lon="14.879385"><ele>726.4</ele><time>2026-04-28T10:12:22.196Z</time></trkpt><trkpt lat="38.0438067" lon="14.879485"><ele>724.5999999999999</ele><time>2026-04-28T10:12:23.197Z</time></trkpt><trkpt lat="38.043885" lon="14.8795683"><ele>722.8</ele><time>2026-04-28T10:12:24.196Z</time></trkpt><trkpt lat="38.0439533" lon="14.87967"><ele>721.0</ele><time>2026-04-28T10:12:25.196Z</time></trkpt><trkpt lat="38.044015" lon="14.8797717"><ele>721.0</ele><time>2026-04-28T10:12:26.197Z</time></trkpt><trkpt lat="38.0440583" lon="14.879885"><ele>721.0</ele><time>2026-04-28T10:12:27.197Z</time></trkpt><trkpt lat="38.0440983" lon="14.879995"><ele>721.0</ele><time>2026-04-28T10:12:28.196Z</time></trkpt><trkpt lat="38.044135" lon="14.880095"><ele>721.0</ele><time>2026-04-28T10:12:29.196Z</time></trkpt><trkpt lat="38.04419" lon="14.880165"><ele>721.0</ele><time>2026-04-28T10:12:30.196Z</time></trkpt><trkpt lat="38.0442517" lon="14.8802283"><ele>721.0</ele><time>2026-04-28T10:12:31.196Z</time></trkpt><trkpt lat="38.0443283" lon="14.8802533"><ele>719.5999999999999</ele><time>2026-04-28T10:12:32.196Z</time></trkpt><trkpt lat="38.0444233" lon="14.8802667"><ele>718.2</ele><time>2026-04-28T10:12:33.196Z</time></trkpt><trkpt lat="38.0445383" lon="14.8802483"><ele>716.8</ele><time>2026-04-28T10:12:34.196Z</time></trkpt><trkpt lat="38.0446533" lon="14.88026"><ele>715.4000000000001</ele><time>2026-04-28T10:12:35.196Z</time></trkpt><trkpt lat="38.0447683" lon="14.880285"><ele>714.0</ele><time>2026-04-28T10:12:36.196Z</time></trkpt><trkpt lat="38.044875" lon="14.8803383"><ele>716.4000000000001</ele><time>2026-04-28T10:12:37.196Z</time></trkpt><trkpt lat="38.04498" lon="14.88039"><ele>718.8</ele><time>2026-04-28T10:12:38.196Z</time></trkpt><trkpt lat="38.0450533" lon="14.8804567"><ele>721.2</ele><time>2026-04-28T10:12:39.196Z</time></trkpt><trkpt lat="38.0451367" lon="14.880535"><ele>723.5999999999999</ele><time>2026-04-28T10:12:40.196Z</time></trkpt><trkpt lat="38.0452117" lon="14.8806017"><ele>726.0</ele><time>2026-04-28T10:12:41.196Z</time></trkpt><trkpt lat="38.0452767" lon="14.8806433"><ele>726.0</ele><time>2026-04-28T10:12:42.196Z</time></trkpt><trkpt lat="38.04539" lon="14.88068"><ele>726.0</ele><time>2026-04-28T10:12:44.197Z</time></trkpt><trkpt lat="38.0454583" lon="14.880705"><ele>726.0</ele><time>2026-04-28T10:12:45.196Z</time></trkpt><trkpt lat="38.04553" lon="14.88073"><ele>726.0</ele><time>2026-04-28T10:12:46.196Z</time></trkpt><trkpt lat="38.04562" lon="14.8807617"><ele>726.0</ele><time>2026-04-28T10:12:47.196Z</time></trkpt><trkpt lat="38.0457133" lon="14.8807933"><ele>726.0</ele><time>2026-04-28T10:12:48.197Z</time></trkpt><trkpt lat="38.04579" lon="14.8808467"><ele>726.0</ele><time>2026-04-28T10:12:49.196Z</time></trkpt><trkpt lat="38.0458633" lon="14.8809133"><ele>726.0</ele><time>2026-04-28T10:12:50.196Z</time></trkpt><trkpt lat="38.0459267" lon="14.88097"><ele>726.0</ele><time>2026-04-28T10:12:51.196Z</time></trkpt><trkpt lat="38.045985" lon="14.88105"><ele>726.0</ele><time>2026-04-28T10:12:52.197Z</time></trkpt><trkpt lat="38.0460317" lon="14.8811467"><ele>726.0</ele><time>2026-04-28T10:12:53.196Z</time></trkpt><trkpt lat="38.0460733" lon="14.8812583"><ele>724.1999999999999</ele><time>2026-04-28T10:12:54.196Z</time></trkpt><trkpt lat="38.046125" lon="14.8813733"><ele>722.4</ele><time>2026-04-28T10:12:55.196Z</time></trkpt><trkpt lat="38.0461883" lon="14.8814917"><ele>720.6</ele><time>2026-04-28T10:12:56.197Z</time></trkpt><trkpt lat="38.0462483" lon="14.8816117"><ele>718.8</ele><time>2026-04-28T10:12:57.196Z</time></trkpt><trkpt lat="38.0463017" lon="14.8817383"><ele>717.0</ele><time>2026-04-28T10:12:58.196Z</time></trkpt><trkpt lat="38.0463683" lon="14.8818483"><ele>716.4000000000001</ele><time>2026-04-28T10:12:59.196Z</time></trkpt><trkpt lat="38.0464233" lon="14.8819533"><ele>715.8000000000001</ele><time>2026-04-28T10:13:00.196Z</time></trkpt><trkpt lat="38.0464883" lon="14.8820633"><ele>715.2</ele><time>2026-04-28T10:13:01.197Z</time></trkpt><trkpt lat="38.0465583" lon="14.8821617"><ele>714.6</ele><time>2026-04-28T10:13:02.196Z</time></trkpt><trkpt lat="38.0466217" lon="14.88227"><ele>714.0</ele><time>2026-04-28T10:13:03.196Z</time></trkpt><trkpt lat="38.04668" lon="14.8823867"><ele>714.0</ele><time>2026-04-28T10:13:04.196Z</time></trkpt><trkpt lat="38.04674" lon="14.8824967"><ele>714.0</ele><time>2026-04-28T10:13:05.196Z</time></trkpt><trkpt lat="38.046805" lon="14.882615"><ele>714.0</ele><time>2026-04-28T10:13:06.196Z</time></trkpt><trkpt lat="38.0468833" lon="14.8827217"><ele>714.0</ele><time>2026-04-28T10:13:07.196Z</time></trkpt><trkpt lat="38.0469467" lon="14.8828317"><ele>714.0</ele><time>2026-04-28T10:13:08.195Z</time></trkpt><trkpt lat="38.0470083" lon="14.8829383"><ele>709.0</ele><time>2026-04-28T10:13:09.196Z</time></trkpt><trkpt lat="38.04707" lon="14.8830617"><ele>704.0</ele><time>2026-04-28T10:13:10.197Z</time></trkpt><trkpt lat="38.0471283" lon="14.883175"><ele>699.0</ele><time>2026-04-28T10:13:11.196Z</time></trkpt><trkpt lat="38.04717" lon="14.88329"><ele>694.0</ele><time>2026-04-28T10:13:12.196Z</time></trkpt><trkpt lat="38.0471967" lon="14.8834117"><ele>689.0</ele><time>2026-04-28T10:13:13.196Z</time></trkpt><trkpt lat="38.047215" lon="14.8835183"><ele>686.5</ele><time>2026-04-28T10:13:14.196Z</time></trkpt><trkpt lat="38.04723" lon="14.8836"><ele>684.0</ele><time>2026-04-28T10:13:15.196Z</time></trkpt><trkpt lat="38.0472483" lon="14.8837467"><ele>681.5</ele><time>2026-04-28T10:13:17.196Z</time></trkpt><trkpt lat="38.0472833" lon="14.88382"><ele>679.0</ele><time>2026-04-28T10:13:18.197Z</time></trkpt><trkpt lat="38.0473167" lon="14.8838917"><ele>676.5</ele><time>2026-04-28T10:13:19.196Z</time></trkpt><trkpt lat="38.0473617" lon="14.88397"><ele>674.0</ele><time>2026-04-28T10:13:20.196Z</time></trkpt><trkpt lat="38.0474117" lon="14.8840217"><ele>679.1666666666666</ele><time>2026-04-28T10:13:21.197Z</time></trkpt><trkpt lat="38.0474733" lon="14.8840683"><ele>684.3333333333333</ele><time>2026-04-28T10:13:22.196Z</time></trkpt><trkpt lat="38.04754" lon="14.88411"><ele>689.5</ele><time>2026-04-28T10:13:23.197Z</time></trkpt><trkpt lat="38.0476083" lon="14.88414"><ele>694.6666666666666</ele><time>2026-04-28T10:13:24.196Z</time></trkpt><trkpt lat="38.04767" lon="14.884165"><ele>699.8333333333334</ele><time>2026-04-28T10:13:25.196Z</time></trkpt><trkpt lat="38.0477733" lon="14.8842067"><ele>705.0</ele><time>2026-04-28T10:13:27.196Z</time></trkpt><trkpt lat="38.047875" lon="14.88423"><ele>705.0</ele><time>2026-04-28T10:13:29.196Z</time></trkpt><trkpt lat="38.047935" lon="14.8841883"><ele>705.0</ele><time>2026-04-28T10:13:30.196Z</time></trkpt><trkpt lat="38.0480133" lon="14.8841167"><ele>705.0</ele><time>2026-04-28T10:13:31.196Z</time></trkpt><trkpt lat="38.048105" lon="14.884055"><ele>705.0</ele><time>2026-04-28T10:13:32.196Z</time></trkpt><trkpt lat="38.048205" lon="14.8839483"><ele>705.0</ele><time>2026-04-28T10:13:33.196Z</time></trkpt><trkpt lat="38.0483" lon="14.8838467"><ele>706.25</ele><time>2026-04-28T10:13:34.196Z</time></trkpt><trkpt lat="38.0483717" lon="14.8837417"><ele>707.5</ele><time>2026-04-28T10:13:35.196Z</time></trkpt><trkpt lat="38.04843" lon="14.8836067"><ele>708.75</ele><time>2026-04-28T10:13:36.196Z</time></trkpt><trkpt lat="38.0484583" lon="14.8834517"><ele>710.0</ele><time>2026-04-28T10:13:37.196Z</time></trkpt><trkpt lat="38.0484533" lon="14.88329"><ele>710.0</ele><time>2026-04-28T10:13:38.197Z</time></trkpt><trkpt lat="38.0484433" lon="14.883115"><ele>710.0</ele><time>2026-04-28T10:13:39.196Z</time></trkpt><trkpt lat="38.0484283" lon="14.8829433"><ele>710.0</ele><time>2026-04-28T10:13:40.196Z</time></trkpt><trkpt lat="38.0484117" lon="14.8827633"><ele>710.0</ele><time>2026-04-28T10:13:41.196Z</time></trkpt><trkpt lat="38.0483983" lon="14.88257"><ele>713.0</ele><time>2026-04-28T10:13:42.197Z</time></trkpt><trkpt lat="38.0483917" lon="14.8823783"><ele>716.0</ele><time>2026-04-28T10:13:43.196Z</time></trkpt><trkpt lat="38.048375" lon="14.8822183"><ele>719.0</ele><time>2026-04-28T10:13:44.196Z</time></trkpt><trkpt lat="38.0483717" lon="14.882075"><ele>722.0</ele><time>2026-04-28T10:13:45.197Z</time></trkpt><trkpt lat="38.04839" lon="14.8819533"><ele>722.0</ele><time>2026-04-28T10:13:46.196Z</time></trkpt><trkpt lat="38.0484267" lon="14.8818567"><ele>722.0</ele><time>2026-04-28T10:13:47.196Z</time></trkpt><trkpt lat="38.0484817" lon="14.881775"><ele>722.0</ele><time>2026-04-28T10:13:48.197Z</time></trkpt><trkpt lat="38.0485533" lon="14.88171"><ele>722.0</ele><time>2026-04-28T10:13:49.197Z</time></trkpt><trkpt lat="38.0486333" lon="14.8816767"><ele>722.0</ele><time>2026-04-28T10:13:50.196Z</time></trkpt><trkpt lat="38.0487083" lon="14.8816933"><ele>722.0</ele><time>2026-04-28T10:13:51.196Z</time></trkpt><trkpt lat="38.0487917" lon="14.8817817"><ele>722.0</ele><time>2026-04-28T10:13:52.196Z</time></trkpt><trkpt lat="38.048885" lon="14.8818883"><ele>722.0</ele><time>2026-04-28T10:13:53.196Z</time></trkpt><trkpt lat="38.0489767" lon="14.8820083"><ele>722.0</ele><time>2026-04-28T10:13:54.197Z</time></trkpt><trkpt lat="38.0490767" lon="14.8821233"><ele>722.0</ele><time>2026-04-28T10:13:55.196Z</time></trkpt><trkpt lat="38.0491833" lon="14.8822383"><ele>718.5</ele><time>2026-04-28T10:13:56.197Z</time></trkpt><trkpt lat="38.0492817" lon="14.8823483"><ele>715.0</ele><time>2026-04-28T10:13:57.197Z</time></trkpt><trkpt lat="38.04937" lon="14.882445"><ele>711.5</ele><time>2026-04-28T10:13:58.196Z</time></trkpt><trkpt lat="38.0494533" lon="14.8825383"><ele>708.0</ele><time>2026-04-28T10:13:59.197Z</time></trkpt><trkpt lat="38.04955" lon="14.882605"><ele>708.0</ele><time>2026-04-28T10:14:00.196Z</time></trkpt><trkpt lat="38.0496583" lon="14.8826333"><ele>708.0</ele><time>2026-04-28T10:14:01.196Z</time></trkpt><trkpt lat="38.0497717" lon="14.882605"><ele>708.0</ele><time>2026-04-28T10:14:02.196Z</time></trkpt><trkpt lat="38.04989" lon="14.8825417"><ele>708.0</ele><time>2026-04-28T10:14:03.196Z</time></trkpt><trkpt lat="38.0500133" lon="14.8824633"><ele>709.0</ele><time>2026-04-28T10:14:04.197Z</time></trkpt><trkpt lat="38.0501267" lon="14.8823967"><ele>710.0</ele><time>2026-04-28T10:14:05.197Z</time></trkpt><trkpt lat="38.0502367" lon="14.88234"><ele>711.0</ele><time>2026-04-28T10:14:06.196Z</time></trkpt><trkpt lat="38.050335" lon="14.8822817"><ele>712.0</ele><time>2026-04-28T10:14:07.196Z</time></trkpt><trkpt lat="38.0504233" lon="14.8822367"><ele>713.0</ele><time>2026-04-28T10:14:08.197Z</time></trkpt><trkpt lat="38.0504983" lon="14.8821983"><ele>713.0</ele><time>2026-04-28T10:14:09.196Z</time></trkpt><trkpt lat="38.0505933" lon="14.8821383"><ele>713.0</ele><time>2026-04-28T10:14:11.196Z</time></trkpt><trkpt lat="38.0506517" lon="14.882105"><ele>713.0</ele><time>2026-04-28T10:14:14.196Z</time></trkpt><trkpt lat="38.05074" lon="14.8820433"><ele>713.0</ele><time>2026-04-28T10:14:25.197Z</time></trkpt><trkpt lat="38.0508233" lon="14.8819933"><ele>713.0</ele><time>2026-04-28T10:14:27.196Z</time></trkpt><trkpt lat="38.050925" lon="14.8819283"><ele>714.3333333333333</ele><time>2026-04-28T10:14:29.196Z</time></trkpt><trkpt lat="38.05098" lon="14.8818817"><ele>715.6666666666666</ele><time>2026-04-28T10:14:30.197Z</time></trkpt><trkpt lat="38.051045" lon="14.8818167"><ele>717.0</ele><time>2026-04-28T10:14:31.196Z</time></trkpt><trkpt lat="38.0511117" lon="14.8817317"><ele>718.3333333333334</ele><time>2026-04-28T10:14:32.196Z</time></trkpt><trkpt lat="38.0511667" lon="14.88164"><ele>719.6666666666667</ele><time>2026-04-28T10:14:33.196Z</time></trkpt><trkpt lat="38.0512083" lon="14.88154"><ele>721.0</ele><time>2026-04-28T10:14:34.197Z</time></trkpt><trkpt lat="38.05124" lon="14.881435"><ele>721.0</ele><time>2026-04-28T10:14:35.197Z</time></trkpt><trkpt lat="38.0512583" lon="14.88132"><ele>721.0</ele><time>2026-04-28T10:14:36.196Z</time></trkpt><trkpt lat="38.0512767" lon="14.8812"><ele>721.0</ele><time>2026-04-28T10:14:37.196Z</time></trkpt><trkpt lat="38.0512983" lon="14.88108"><ele>721.0</ele><time>2026-04-28T10:14:38.196Z</time></trkpt><trkpt lat="38.0513133" lon="14.8809483"><ele>721.0</ele><time>2026-04-28T10:14:39.196Z</time></trkpt><trkpt lat="38.0513217" lon="14.8808167"><ele>724.4</ele><time>2026-04-28T10:14:40.196Z</time></trkpt><trkpt lat="38.0513233" lon="14.880685"><ele>727.8</ele><time>2026-04-28T10:14:41.196Z</time></trkpt><trkpt lat="38.0513217" lon="14.8805617"><ele>731.1999999999999</ele><time>2026-04-28T10:14:42.196Z</time></trkpt><trkpt lat="38.05132" lon="14.88044"><ele>734.5999999999999</ele><time>2026-04-28T10:14:43.197Z</time></trkpt><trkpt lat="38.0513183" lon="14.8803283"><ele>738.0</ele><time>2026-04-28T10:14:44.196Z</time></trkpt><trkpt lat="38.05131" lon="14.8802183"><ele>738.0</ele><time>2026-04-28T10:14:45.196Z</time></trkpt><trkpt lat="38.05128" lon="14.8801"><ele>738.0</ele><time>2026-04-28T10:14:46.196Z</time></trkpt><trkpt lat="38.0512317" lon="14.8799883"><ele>738.0</ele><time>2026-04-28T10:14:47.196Z</time></trkpt><trkpt lat="38.051185" lon="14.879885"><ele>738.0</ele><time>2026-04-28T10:14:48.196Z</time></trkpt><trkpt lat="38.051125" lon="14.8797933"><ele>738.0</ele><time>2026-04-28T10:14:49.197Z</time></trkpt><trkpt lat="38.0510733" lon="14.8797"><ele>737.8333333333334</ele><time>2026-04-28T10:14:50.196Z</time></trkpt><trkpt lat="38.0510383" lon="14.879615"><ele>737.6666666666666</ele><time>2026-04-28T10:14:51.196Z</time></trkpt><trkpt lat="38.0510333" lon="14.879515"><ele>737.5</ele><time>2026-04-28T10:14:52.196Z</time></trkpt><trkpt lat="38.0510583" lon="14.8794217"><ele>737.3333333333333</ele><time>2026-04-28T10:14:53.196Z</time></trkpt><trkpt lat="38.05112" lon="14.8793517"><ele>737.1666666666666</ele><time>2026-04-28T10:14:54.196Z</time></trkpt><trkpt lat="38.0512" lon="14.8792967"><ele>737.0</ele><time>2026-04-28T10:14:55.196Z</time></trkpt><trkpt lat="38.0513083" lon="14.87926"><ele>738.5</ele><time>2026-04-28T10:14:56.196Z</time></trkpt><trkpt lat="38.0514417" lon="14.879215"><ele>740.0</ele><time>2026-04-28T10:14:57.196Z</time></trkpt><trkpt lat="38.0515867" lon="14.8791983"><ele>741.5</ele><time>2026-04-28T10:14:58.196Z</time></trkpt><trkpt lat="38.0517283" lon="14.8791967"><ele>743.0</ele><time>2026-04-28T10:14:59.196Z</time></trkpt><trkpt lat="38.0518833" lon="14.879215"><ele>736.6666666666666</ele><time>2026-04-28T10:15:00.196Z</time></trkpt><trkpt lat="38.0520367" lon="14.8792617"><ele>730.3333333333334</ele><time>2026-04-28T10:15:01.197Z</time></trkpt><trkpt lat="38.052185" lon="14.8792967"><ele>724.0</ele><time>2026-04-28T10:15:02.197Z</time></trkpt><trkpt lat="38.052325" lon="14.8793217"><ele>722.3333333333334</ele><time>2026-04-28T10:15:03.196Z</time></trkpt><trkpt lat="38.052475" lon="14.8793117"><ele>720.6666666666666</ele><time>2026-04-28T10:15:04.196Z</time></trkpt><trkpt lat="38.0526267" lon="14.879285"><ele>719.0</ele><time>2026-04-28T10:15:05.197Z</time></trkpt><trkpt lat="38.052785" lon="14.87926"><ele>719.0</ele><time>2026-04-28T10:15:06.196Z</time></trkpt><trkpt lat="38.0529317" lon="14.8792567"><ele>719.0</ele><time>2026-04-28T10:15:07.196Z</time></trkpt><trkpt lat="38.0530733" lon="14.8792467"><ele>719.0</ele><time>2026-04-28T10:15:08.196Z</time></trkpt><trkpt lat="38.053205" lon="14.87919"><ele>719.0</ele><time>2026-04-28T10:15:09.196Z</time></trkpt><trkpt lat="38.0533267" lon="14.8791333"><ele>717.75</ele><time>2026-04-28T10:15:10.197Z</time></trkpt><trkpt lat="38.053445" lon="14.8790983"><ele>716.5</ele><time>2026-04-28T10:15:11.196Z</time></trkpt><trkpt lat="38.0535633" lon="14.8791"><ele>715.25</ele><time>2026-04-28T10:15:12.196Z</time></trkpt><trkpt lat="38.053675" lon="14.8791583"><ele>714.0</ele><time>2026-04-28T10:15:13.196Z</time></trkpt><trkpt lat="38.0537933" lon="14.8792567"><ele>706.75</ele><time>2026-04-28T10:15:14.197Z</time></trkpt><trkpt lat="38.0539017" lon="14.8793517"><ele>699.5</ele><time>2026-04-28T10:15:15.196Z</time></trkpt><trkpt lat="38.0540067" lon="14.8794233"><ele>692.25</ele><time>2026-04-28T10:15:16.196Z</time></trkpt><trkpt lat="38.0541183" lon="14.87947"><ele>685.0</ele><time>2026-04-28T10:15:17.196Z</time></trkpt><trkpt lat="38.0542417" lon="14.8794683"><ele>685.0</ele><time>2026-04-28T10:15:18.196Z</time></trkpt><trkpt lat="38.0543567" lon="14.8794033"><ele>685.0</ele><time>2026-04-28T10:15:19.196Z</time></trkpt><trkpt lat="38.0544383" lon="14.8792917"><ele>685.0</ele><time>2026-04-28T10:15:20.196Z</time></trkpt><trkpt lat="38.0545167" lon="14.8791333"><ele>685.0</ele><time>2026-04-28T10:15:21.197Z</time></trkpt><trkpt lat="38.054585" lon="14.8789633"><ele>695.3333333333334</ele><time>2026-04-28T10:15:22.196Z</time></trkpt><trkpt lat="38.0546433" lon="14.878755"><ele>705.6666666666666</ele><time>2026-04-28T10:15:23.197Z</time></trkpt><trkpt lat="38.0546667" lon="14.8785417"><ele>716.0</ele><time>2026-04-28T10:15:24.195Z</time></trkpt><trkpt lat="38.0546733" lon="14.8783183"><ele>719.6666666666666</ele><time>2026-04-28T10:15:25.195Z</time></trkpt><trkpt lat="38.0546483" lon="14.8780983"><ele>723.3333333333334</ele><time>2026-04-28T10:15:26.195Z</time></trkpt><trkpt lat="38.0545967" lon="14.8778867"><ele>727.0</ele><time>2026-04-28T10:15:27.196Z</time></trkpt><trkpt lat="38.0545233" lon="14.8776883"><ele>723.0</ele><time>2026-04-28T10:15:28.195Z</time></trkpt><trkpt lat="38.0544267" lon="14.8774967"><ele>719.0</ele><time>2026-04-28T10:15:29.195Z</time></trkpt><trkpt lat="38.0543117" lon="14.8773217"><ele>715.0</ele><time>2026-04-28T10:15:30.195Z</time></trkpt><trkpt lat="38.0541967" lon="14.8771717"><ele>722.6666666666667</ele><time>2026-04-28T10:15:31.195Z</time></trkpt><trkpt lat="38.0540867" lon="14.877025"><ele>730.3333333333334</ele><time>2026-04-28T10:15:32.195Z</time></trkpt><trkpt lat="38.0540083" lon="14.8768567"><ele>738.0</ele><time>2026-04-28T10:15:33.195Z</time></trkpt><trkpt lat="38.0539483" lon="14.87668"><ele>738.0</ele><time>2026-04-28T10:15:34.195Z</time></trkpt><trkpt lat="38.0538767" lon="14.8765183"><ele>738.0</ele><time>2026-04-28T10:15:35.195Z</time></trkpt><trkpt lat="38.0538" lon="14.8763883"><ele>738.0</ele><time>2026-04-28T10:15:36.195Z</time></trkpt><trkpt lat="38.0537367" lon="14.876275"><ele>738.0</ele><time>2026-04-28T10:15:37.195Z</time></trkpt><trkpt lat="38.05372" lon="14.8761483"><ele>738.0</ele><time>2026-04-28T10:15:38.196Z</time></trkpt><trkpt lat="38.0537533" lon="14.8760267"><ele>738.0</ele><time>2026-04-28T10:15:39.195Z</time></trkpt><trkpt lat="38.0538383" lon="14.8759"><ele>738.0</ele><time>2026-04-28T10:15:40.195Z</time></trkpt><trkpt lat="38.0539333" lon="14.875755"><ele>738.0</ele><time>2026-04-28T10:15:41.195Z</time></trkpt><trkpt lat="38.0540217" lon="14.87559"><ele>740.0</ele><time>2026-04-28T10:15:42.195Z</time></trkpt><trkpt lat="38.0541017" lon="14.8754083"><ele>742.0</ele><time>2026-04-28T10:15:43.195Z</time></trkpt><trkpt lat="38.0541733" lon="14.8752367"><ele>744.0</ele><time>2026-04-28T10:15:44.196Z</time></trkpt><trkpt lat="38.0542467" lon="14.87509"><ele>738.75</ele><time>2026-04-28T10:15:45.195Z</time></trkpt><trkpt lat="38.0543483" lon="14.8749717"><ele>733.5</ele><time>2026-04-28T10:15:46.196Z</time></trkpt><trkpt lat="38.054465" lon="14.8748767"><ele>728.25</ele><time>2026-04-28T10:15:47.195Z</time></trkpt><trkpt lat="38.0545983" lon="14.874825"><ele>723.0</ele><time>2026-04-28T10:15:48.196Z</time></trkpt><trkpt lat="38.0547283" lon="14.8748267"><ele>723.0</ele><time>2026-04-28T10:15:49.196Z</time></trkpt><trkpt lat="38.05486" lon="14.874865"><ele>723.0</ele><time>2026-04-28T10:15:50.195Z</time></trkpt><trkpt lat="38.05501" lon="14.87489"><ele>723.0</ele><time>2026-04-28T10:15:51.195Z</time></trkpt><trkpt lat="38.0551733" lon="14.874855"><ele>717.6666666666666</ele><time>2026-04-28T10:15:52.195Z</time></trkpt><trkpt lat="38.05534" lon="14.8747917"><ele>712.3333333333333</ele><time>2026-04-28T10:15:53.196Z</time></trkpt><trkpt lat="38.0555183" lon="14.8747283"><ele>707.0</ele><time>2026-04-28T10:15:54.195Z</time></trkpt><trkpt lat="38.0556983" lon="14.8746667"><ele>703.0</ele><time>2026-04-28T10:15:55.196Z</time></trkpt><trkpt lat="38.0558733" lon="14.8746117"><ele>699.0</ele><time>2026-04-28T10:15:56.196Z</time></trkpt><trkpt lat="38.0560367" lon="14.8745433"><ele>695.0</ele><time>2026-04-28T10:15:57.195Z</time></trkpt><trkpt lat="38.0561983" lon="14.8744417"><ele>695.0</ele><time>2026-04-28T10:15:58.195Z</time></trkpt><trkpt lat="38.05636" lon="14.87432"><ele>695.0</ele><time>2026-04-28T10:15:59.195Z</time></trkpt><trkpt lat="38.0565167" lon="14.8742017"><ele>695.0</ele><time>2026-04-28T10:16:00.195Z</time></trkpt><trkpt lat="38.056655" lon="14.874075"><ele>698.0</ele><time>2026-04-28T10:16:01.195Z</time></trkpt><trkpt lat="38.05678" lon="14.873955"><ele>701.0</ele><time>2026-04-28T10:16:02.196Z</time></trkpt><trkpt lat="38.0568833" lon="14.8738617"><ele>704.0</ele><time>2026-04-28T10:16:03.195Z</time></trkpt><trkpt lat="38.0569967" lon="14.873805"><ele>707.0</ele><time>2026-04-28T10:16:04.195Z</time></trkpt><trkpt lat="38.05711" lon="14.8738017"><ele>707.0</ele><time>2026-04-28T10:16:05.195Z</time></trkpt><trkpt lat="38.05723" lon="14.87384"><ele>707.0</ele><time>2026-04-28T10:16:06.195Z</time></trkpt><trkpt lat="38.0573533" lon="14.8738717"><ele>707.0</ele><time>2026-04-28T10:16:07.195Z</time></trkpt><trkpt lat="38.05748" lon="14.873835"><ele>707.0</ele><time>2026-04-28T10:16:08.195Z</time></trkpt><trkpt lat="38.05758" lon="14.8737383"><ele>709.25</ele><time>2026-04-28T10:16:09.196Z</time></trkpt><trkpt lat="38.05767" lon="14.8736067"><ele>711.5</ele><time>2026-04-28T10:16:10.196Z</time></trkpt><trkpt lat="38.0577517" lon="14.8734717"><ele>713.75</ele><time>2026-04-28T10:16:11.195Z</time></trkpt><trkpt lat="38.0578" lon="14.873325"><ele>716.0</ele><time>2026-04-28T10:16:12.196Z</time></trkpt><trkpt lat="38.0577967" lon="14.8731633"><ele>716.0</ele><time>2026-04-28T10:16:13.195Z</time></trkpt><trkpt lat="38.05776" lon="14.8729967"><ele>716.0</ele><time>2026-04-28T10:16:14.196Z</time></trkpt><trkpt lat="38.0577017" lon="14.8728267"><ele>716.0</ele><time>2026-04-28T10:16:15.195Z</time></trkpt><trkpt lat="38.0576583" lon="14.8726517"><ele>716.0</ele><time>2026-04-28T10:16:16.195Z</time></trkpt><trkpt lat="38.0576467" lon="14.87246"><ele>719.0</ele><time>2026-04-28T10:16:17.195Z</time></trkpt><trkpt lat="38.0576717" lon="14.8722567"><ele>722.0</ele><time>2026-04-28T10:16:18.195Z</time></trkpt><trkpt lat="38.0577133" lon="14.872035"><ele>725.0</ele><time>2026-04-28T10:16:19.195Z</time></trkpt><trkpt lat="38.05774" lon="14.8718133"><ele>727.0</ele><time>2026-04-28T10:16:20.195Z</time></trkpt><trkpt lat="38.0577783" lon="14.8715817"><ele>729.0</ele><time>2026-04-28T10:16:21.195Z</time></trkpt><trkpt lat="38.0578217" lon="14.8713617"><ele>731.0</ele><time>2026-04-28T10:16:22.196Z</time></trkpt><trkpt lat="38.0578533" lon="14.8711467"><ele>730.6666666666666</ele><time>2026-04-28T10:16:23.195Z</time></trkpt><trkpt lat="38.0578583" lon="14.87093"><ele>730.3333333333334</ele><time>2026-04-28T10:16:24.195Z</time></trkpt><trkpt lat="38.05782" lon="14.8707117"><ele>730.0</ele><time>2026-04-28T10:16:25.196Z</time></trkpt><trkpt lat="38.0577617" lon="14.8705117"><ele>730.0</ele><time>2026-04-28T10:16:26.196Z</time></trkpt><trkpt lat="38.0577167" lon="14.8703283"><ele>730.0</ele><time>2026-04-28T10:16:27.195Z</time></trkpt><trkpt lat="38.0576667" lon="14.8701667"><ele>730.0</ele><time>2026-04-28T10:16:28.195Z</time></trkpt><trkpt lat="38.0575933" lon="14.87003"><ele>730.0</ele><time>2026-04-28T10:16:29.195Z</time></trkpt><trkpt lat="38.0574933" lon="14.86994"><ele>723.25</ele><time>2026-04-28T10:16:30.195Z</time></trkpt><trkpt lat="38.057365" lon="14.8699083"><ele>716.5</ele><time>2026-04-28T10:16:31.195Z</time></trkpt><trkpt lat="38.0572317" lon="14.869915"><ele>709.75</ele><time>2026-04-28T10:16:32.195Z</time></trkpt><trkpt lat="38.057075" lon="14.8699867"><ele>703.0</ele><time>2026-04-28T10:16:33.195Z</time></trkpt><trkpt lat="38.0569" lon="14.870085"><ele>709.0</ele><time>2026-04-28T10:16:34.195Z</time></trkpt><trkpt lat="38.0567067" lon="14.8701867"><ele>715.0</ele><time>2026-04-28T10:16:35.196Z</time></trkpt><trkpt lat="38.0565033" lon="14.8702833"><ele>721.0</ele><time>2026-04-28T10:16:36.195Z</time></trkpt><trkpt lat="38.0563117" lon="14.8703833"><ele>721.0</ele><time>2026-04-28T10:16:37.195Z</time></trkpt><trkpt lat="38.0561267" lon="14.870465"><ele>721.0</ele><time>2026-04-28T10:16:38.196Z</time></trkpt><trkpt lat="38.05595" lon="14.8705367"><ele>721.0</ele><time>2026-04-28T10:16:39.196Z</time></trkpt><trkpt lat="38.0557817" lon="14.8705817"><ele>718.0</ele><time>2026-04-28T10:16:40.195Z</time></trkpt><trkpt lat="38.0556283" lon="14.87062"><ele>715.0</ele><time>2026-04-28T10:16:41.195Z</time></trkpt><trkpt lat="38.0554883" lon="14.8706783"><ele>712.0</ele><time>2026-04-28T10:16:42.195Z</time></trkpt><trkpt lat="38.0553683" lon="14.870785"><ele>712.0</ele><time>2026-04-28T10:16:43.195Z</time></trkpt><trkpt lat="38.055255" lon="14.8709067"><ele>712.0</ele><time>2026-04-28T10:16:44.195Z</time></trkpt><trkpt lat="38.0551467" lon="14.8710283"><ele>712.0</ele><time>2026-04-28T10:16:45.195Z</time></trkpt><trkpt lat="38.05505" lon="14.8711267"><ele>712.0</ele><time>2026-04-28T10:16:46.195Z</time></trkpt><trkpt lat="38.05496" lon="14.87121"><ele>714.6</ele><time>2026-04-28T10:16:47.196Z</time></trkpt><trkpt lat="38.05487" lon="14.8712317"><ele>717.2</ele><time>2026-04-28T10:16:48.196Z</time></trkpt><trkpt lat="38.0547717" lon="14.87122"><ele>719.8</ele><time>2026-04-28T10:16:49.195Z</time></trkpt><trkpt lat="38.0546767" lon="14.8711917"><ele>722.4</ele><time>2026-04-28T10:16:50.195Z</time></trkpt><trkpt lat="38.05458" lon="14.871165"><ele>725.0</ele><time>2026-04-28T10:16:51.196Z</time></trkpt><trkpt lat="38.0544833" lon="14.8711433"><ele>725.0</ele><time>2026-04-28T10:16:52.195Z</time></trkpt><trkpt lat="38.05439" lon="14.8711133"><ele>725.0</ele><time>2026-04-28T10:16:53.195Z</time></trkpt><trkpt lat="38.054305" lon="14.8710783"><ele>725.0</ele><time>2026-04-28T10:16:54.196Z</time></trkpt><trkpt lat="38.0542367" lon="14.8710267"><ele>725.0</ele><time>2026-04-28T10:16:55.195Z</time></trkpt><trkpt lat="38.054195" lon="14.8709467"><ele>725.0</ele><time>2026-04-28T10:16:56.196Z</time></trkpt><trkpt lat="38.0541817" lon="14.8708517"><ele>725.0</ele><time>2026-04-28T10:16:57.195Z</time></trkpt><trkpt lat="38.054195" lon="14.8707567"><ele>724.2</ele><time>2026-04-28T10:16:58.195Z</time></trkpt><trkpt lat="38.0542783" lon="14.8706517"><ele>723.4</ele><time>2026-04-28T10:17:00.195Z</time></trkpt><trkpt lat="38.0543433" lon="14.8706333"><ele>722.5999999999999</ele><time>2026-04-28T10:17:01.196Z</time></trkpt><trkpt lat="38.0544383" lon="14.8706283"><ele>721.8</ele><time>2026-04-28T10:17:02.195Z</time></trkpt><trkpt lat="38.0545517" lon="14.8706267"><ele>721.0</ele><time>2026-04-28T10:17:03.195Z</time></trkpt><trkpt lat="38.0546633" lon="14.8706017"><ele>721.0</ele><time>2026-04-28T10:17:04.195Z</time></trkpt><trkpt lat="38.0547567" lon="14.8705283"><ele>721.0</ele><time>2026-04-28T10:17:05.195Z</time></trkpt><trkpt lat="38.0548117" lon="14.87043"><ele>721.0</ele><time>2026-04-28T10:17:06.195Z</time></trkpt><trkpt lat="38.05484" lon="14.87031"><ele>721.0</ele><time>2026-04-28T10:17:07.195Z</time></trkpt><trkpt lat="38.0548367" lon="14.8701833"><ele>721.0</ele><time>2026-04-28T10:17:08.195Z</time></trkpt><trkpt lat="38.054835" lon="14.8700583"><ele>718.8</ele><time>2026-04-28T10:17:09.195Z</time></trkpt><trkpt lat="38.054845" lon="14.869955"><ele>716.5999999999999</ele><time>2026-04-28T10:17:10.196Z</time></trkpt><trkpt lat="38.0549" lon="14.8698717"><ele>714.4</ele><time>2026-04-28T10:17:11.195Z</time></trkpt><trkpt lat="38.05497" lon="14.86981"><ele>712.2</ele><time>2026-04-28T10:17:12.196Z</time></trkpt><trkpt lat="38.05506" lon="14.8697617"><ele>710.0</ele><time>2026-04-28T10:17:13.195Z</time></trkpt><trkpt lat="38.0551717" lon="14.8697017"><ele>710.0</ele><time>2026-04-28T10:17:14.195Z</time></trkpt><trkpt lat="38.05526" lon="14.8695967"><ele>710.0</ele><time>2026-04-28T10:17:15.195Z</time></trkpt><trkpt lat="38.0553267" lon="14.8694467"><ele>710.0</ele><time>2026-04-28T10:17:16.195Z</time></trkpt><trkpt lat="38.055355" lon="14.86927"><ele>710.0</ele><time>2026-04-28T10:17:17.195Z</time></trkpt><trkpt lat="38.0553633" lon="14.8691017"><ele>714.0</ele><time>2026-04-28T10:17:18.196Z</time></trkpt><trkpt lat="38.0553983" lon="14.86895"><ele>718.0</ele><time>2026-04-28T10:17:19.195Z</time></trkpt><trkpt lat="38.0554717" lon="14.8688283"><ele>722.0</ele><time>2026-04-28T10:17:20.195Z</time></trkpt><trkpt lat="38.0555667" lon="14.8687167"><ele>726.0</ele><time>2026-04-28T10:17:21.196Z</time></trkpt><trkpt lat="38.0556733" lon="14.8686033"><ele>726.0</ele><time>2026-04-28T10:17:22.195Z</time></trkpt><trkpt lat="38.0557817" lon="14.8684767"><ele>726.0</ele><time>2026-04-28T10:17:23.195Z</time></trkpt><trkpt lat="38.0558733" lon="14.86833"><ele>726.0</ele><time>2026-04-28T10:17:24.196Z</time></trkpt><trkpt lat="38.0559533" lon="14.8681617"><ele>726.0</ele><time>2026-04-28T10:17:25.195Z</time></trkpt><trkpt lat="38.0560133" lon="14.867995"><ele>728.25</ele><time>2026-04-28T10:17:26.195Z</time></trkpt><trkpt lat="38.0560583" lon="14.8678367"><ele>730.5</ele><time>2026-04-28T10:17:27.195Z</time></trkpt><trkpt lat="38.0561" lon="14.8676767"><ele>732.75</ele><time>2026-04-28T10:17:28.195Z</time></trkpt><trkpt lat="38.0561483" lon="14.8675533"><ele>735.0</ele><time>2026-04-28T10:17:29.196Z</time></trkpt><trkpt lat="38.0562283" lon="14.8674617"><ele>735.0</ele><time>2026-04-28T10:17:30.196Z</time></trkpt><trkpt lat="38.05633" lon="14.86741"><ele>735.0</ele><time>2026-04-28T10:17:31.195Z</time></trkpt><trkpt lat="38.056445" lon="14.867395"><ele>735.0</ele><time>2026-04-28T10:17:32.195Z</time></trkpt><trkpt lat="38.0565567" lon="14.8673483"><ele>735.0</ele><time>2026-04-28T10:17:33.195Z</time></trkpt><trkpt lat="38.0566533" lon="14.8672517"><ele>729.75</ele><time>2026-04-28T10:17:34.195Z</time></trkpt><trkpt lat="38.0567333" lon="14.8671267"><ele>724.5</ele><time>2026-04-28T10:17:35.195Z</time></trkpt><trkpt lat="38.0567883" lon="14.86697"><ele>719.25</ele><time>2026-04-28T10:17:36.195Z</time></trkpt><trkpt lat="38.0568167" lon="14.8667983"><ele>714.0</ele><time>2026-04-28T10:17:37.195Z</time></trkpt><trkpt lat="38.0568417" lon="14.8666083"><ele>714.0</ele><time>2026-04-28T10:17:38.195Z</time></trkpt><trkpt lat="38.0568883" lon="14.866425"><ele>714.0</ele><time>2026-04-28T10:17:39.195Z</time></trkpt><trkpt lat="38.0569383" lon="14.8662433"><ele>714.0</ele><time>2026-04-28T10:17:40.195Z</time></trkpt><trkpt lat="38.0569583" lon="14.86606"><ele>714.0</ele><time>2026-04-28T10:17:41.195Z</time></trkpt><trkpt lat="38.05696" lon="14.8658733"><ele>716.25</ele><time>2026-04-28T10:17:42.195Z</time></trkpt><trkpt lat="38.056945" lon="14.865695"><ele>718.5</ele><time>2026-04-28T10:17:43.195Z</time></trkpt><trkpt lat="38.0569217" lon="14.8655167"><ele>720.75</ele><time>2026-04-28T10:17:44.196Z</time></trkpt><trkpt lat="38.0568783" lon="14.8653583"><ele>723.0</ele><time>2026-04-28T10:17:45.195Z</time></trkpt><trkpt lat="38.05682" lon="14.865225"><ele>722.1666666666666</ele><time>2026-04-28T10:17:46.195Z</time></trkpt><trkpt lat="38.05676" lon="14.8651017"><ele>721.3333333333334</ele><time>2026-04-28T10:17:47.195Z</time></trkpt><trkpt lat="38.0567133" lon="14.8649883"><ele>720.5</ele><time>2026-04-28T10:17:48.195Z</time></trkpt><trkpt lat="38.0567067" lon="14.86489"><ele>719.6666666666667</ele><time>2026-04-28T10:17:49.196Z</time></trkpt><trkpt lat="38.0567267" lon="14.8647983"><ele>718.8333333333334</ele><time>2026-04-28T10:17:50.195Z</time></trkpt><trkpt lat="38.0567733" lon="14.8647317"><ele>718.0</ele><time>2026-04-28T10:17:51.195Z</time></trkpt><trkpt lat="38.056845" lon="14.8646967"><ele>718.0</ele><time>2026-04-28T10:17:52.195Z</time></trkpt><trkpt lat="38.0569583" lon="14.8647033"><ele>718.0</ele><time>2026-04-28T10:17:53.195Z</time></trkpt><trkpt lat="38.0571017" lon="14.8647367"><ele>718.0</ele><time>2026-04-28T10:17:54.195Z</time></trkpt><trkpt lat="38.05726" lon="14.8647883"><ele>718.0</ele><time>2026-04-28T10:17:55.195Z</time></trkpt><trkpt lat="38.0574033" lon="14.8648367"><ele>712.5</ele><time>2026-04-28T10:17:56.195Z</time></trkpt><trkpt lat="38.05752" lon="14.8648367"><ele>707.0</ele><time>2026-04-28T10:17:57.195Z</time></trkpt><trkpt lat="38.0576267" lon="14.8647783"><ele>701.5</ele><time>2026-04-28T10:17:58.195Z</time></trkpt><trkpt lat="38.057725" lon="14.8646767"><ele>696.0</ele><time>2026-04-28T10:17:59.195Z</time></trkpt><trkpt lat="38.057805" lon="14.86456"><ele>696.0</ele><time>2026-04-28T10:18:00.196Z</time></trkpt><trkpt lat="38.0578633" lon="14.8644317"><ele>696.0</ele><time>2026-04-28T10:18:01.195Z</time></trkpt><trkpt lat="38.057895" lon="14.8642833"><ele>696.0</ele><time>2026-04-28T10:18:02.195Z</time></trkpt><trkpt lat="38.05788" lon="14.86411"><ele>696.0</ele><time>2026-04-28T10:18:03.195Z</time></trkpt><trkpt lat="38.0578567" lon="14.8639133"><ele>703.6666666666666</ele><time>2026-04-28T10:18:04.196Z</time></trkpt><trkpt lat="38.0578367" lon="14.8637067"><ele>711.3333333333333</ele><time>2026-04-28T10:18:05.195Z</time></trkpt><trkpt lat="38.0578233" lon="14.8634917"><ele>719.0</ele><time>2026-04-28T10:18:06.195Z</time></trkpt><trkpt lat="38.0578067" lon="14.86328"><ele>721.0</ele><time>2026-04-28T10:18:07.195Z</time></trkpt><trkpt lat="38.0577917" lon="14.8630833"><ele>723.0</ele><time>2026-04-28T10:18:08.195Z</time></trkpt><trkpt lat="38.0577767" lon="14.86291"><ele>725.0</ele><time>2026-04-28T10:18:09.195Z</time></trkpt><trkpt lat="38.0577783" lon="14.862755"><ele>727.0</ele><time>2026-04-28T10:18:10.195Z</time></trkpt><trkpt lat="38.0577967" lon="14.8626233"><ele>728.6</ele><time>2026-04-28T10:18:11.195Z</time></trkpt><trkpt lat="38.0578517" lon="14.8625133"><ele>730.2</ele><time>2026-04-28T10:18:12.195Z</time></trkpt><trkpt lat="38.05793" lon="14.8624033"><ele>731.8</ele><time>2026-04-28T10:18:13.195Z</time></trkpt><trkpt lat="38.05801" lon="14.8622983"><ele>733.4</ele><time>2026-04-28T10:18:14.195Z</time></trkpt><trkpt lat="38.0580917" lon="14.8622217"><ele>735.0</ele><time>2026-04-28T10:18:15.196Z</time></trkpt><trkpt lat="38.0581683" lon="14.86219"><ele>735.0</ele><time>2026-04-28T10:18:16.195Z</time></trkpt><trkpt lat="38.058255" lon="14.8621917"><ele>735.0</ele><time>2026-04-28T10:18:17.195Z</time></trkpt><trkpt lat="38.0583383" lon="14.8622283"><ele>735.0</ele><time>2026-04-28T10:18:18.196Z</time></trkpt><trkpt lat="38.0584183" lon="14.862285"><ele>735.0</ele><time>2026-04-28T10:18:19.196Z</time></trkpt><trkpt lat="38.0584783" lon="14.862385"><ele>735.0</ele><time>2026-04-28T10:18:20.196Z</time></trkpt><trkpt lat="38.0585283" lon="14.86252"><ele>719.6666666666666</ele><time>2026-04-28T10:18:21.196Z</time></trkpt><trkpt lat="38.0585767" lon="14.86269"><ele>704.3333333333333</ele><time>2026-04-28T10:18:22.195Z</time></trkpt><trkpt lat="38.0586483" lon="14.8629"><ele>689.0</ele><time>2026-04-28T10:18:23.195Z</time></trkpt><trkpt lat="38.0587333" lon="14.8630967"><ele>689.0</ele><time>2026-04-28T10:18:24.195Z</time></trkpt><trkpt lat="38.0588167" lon="14.8632967"><ele>689.0</ele><time>2026-04-28T10:18:25.195Z</time></trkpt><trkpt lat="38.0589133" lon="14.8634783"><ele>689.0</ele><time>2026-04-28T10:18:26.195Z</time></trkpt><trkpt lat="38.0590233" lon="14.86363"><ele>689.0</ele><time>2026-04-28T10:18:27.195Z</time></trkpt><trkpt lat="38.0591417" lon="14.8637517"><ele>689.0</ele><time>2026-04-28T10:18:28.195Z</time></trkpt><trkpt lat="38.0592467" lon="14.8638533"><ele>689.0</ele><time>2026-04-28T10:18:29.195Z</time></trkpt><trkpt lat="38.05934" lon="14.8639583"><ele>689.0</ele><time>2026-04-28T10:18:30.195Z</time></trkpt><trkpt lat="38.0594267" lon="14.8640867"><ele>689.0</ele><time>2026-04-28T10:18:31.195Z</time></trkpt><trkpt lat="38.0594817" lon="14.8642483"><ele>689.0</ele><time>2026-04-28T10:18:32.195Z</time></trkpt><trkpt lat="38.059515" lon="14.86442"><ele>689.0</ele><time>2026-04-28T10:18:33.195Z</time></trkpt><trkpt lat="38.0595317" lon="14.8645933"><ele>689.0</ele><time>2026-04-28T10:18:34.196Z</time></trkpt><trkpt lat="38.0595617" lon="14.8647517"><ele>683.5</ele><time>2026-04-28T10:18:35.195Z</time></trkpt><trkpt lat="38.05961" lon="14.8648867"><ele>678.0</ele><time>2026-04-28T10:18:36.195Z</time></trkpt><trkpt lat="38.0596883" lon="14.8650067"><ele>672.5</ele><time>2026-04-28T10:18:37.195Z</time></trkpt><trkpt lat="38.0597933" lon="14.86509"><ele>667.0</ele><time>2026-04-28T10:18:38.195Z</time></trkpt><trkpt lat="38.0599217" lon="14.8651117"><ele>677.0</ele><time>2026-04-28T10:18:39.195Z</time></trkpt><trkpt lat="38.0600817" lon="14.86509"><ele>687.0</ele><time>2026-04-28T10:18:40.195Z</time></trkpt><trkpt lat="38.0602783" lon="14.86504"><ele>697.0</ele><time>2026-04-28T10:18:41.195Z</time></trkpt><trkpt lat="38.06049" lon="14.864995"><ele>697.0</ele><time>2026-04-28T10:18:42.196Z</time></trkpt><trkpt lat="38.0607067" lon="14.8649533"><ele>697.0</ele><time>2026-04-28T10:18:43.194Z</time></trkpt><trkpt lat="38.0609083" lon="14.8649217"><ele>697.0</ele><time>2026-04-28T10:18:44.196Z</time></trkpt><trkpt lat="38.0611083" lon="14.8648933"><ele>697.0</ele><time>2026-04-28T10:18:45.195Z</time></trkpt><trkpt lat="38.0613117" lon="14.8648867"><ele>697.0</ele><time>2026-04-28T10:18:46.195Z</time></trkpt><trkpt lat="38.061505" lon="14.8648983"><ele>697.0</ele><time>2026-04-28T10:18:47.195Z</time></trkpt><trkpt lat="38.0616883" lon="14.8649283"><ele>697.0</ele><time>2026-04-28T10:18:48.195Z</time></trkpt><trkpt lat="38.0618633" lon="14.8649617"><ele>697.0</ele><time>2026-04-28T10:18:49.196Z</time></trkpt><trkpt lat="38.0620167" lon="14.8649467"><ele>697.0</ele><time>2026-04-28T10:18:50.196Z</time></trkpt><trkpt lat="38.0621483" lon="14.8649033"><ele>697.0</ele><time>2026-04-28T10:18:51.195Z</time></trkpt><trkpt lat="38.06227" lon="14.8647883"><ele>697.0</ele><time>2026-04-28T10:18:52.196Z</time></trkpt><trkpt lat="38.0623783" lon="14.8646333"><ele>697.0</ele><time>2026-04-28T10:18:53.195Z</time></trkpt><trkpt lat="38.062465" lon="14.86445"><ele>697.6666666666667</ele><time>2026-04-28T10:18:54.195Z</time></trkpt><trkpt lat="38.06253" lon="14.8642233"><ele>698.3333333333334</ele><time>2026-04-28T10:18:55.195Z</time></trkpt><trkpt lat="38.0625767" lon="14.8639817"><ele>699.0</ele><time>2026-04-28T10:18:56.195Z</time></trkpt><trkpt lat="38.06262" lon="14.86376"><ele>699.0</ele><time>2026-04-28T10:18:57.195Z</time></trkpt><trkpt lat="38.0626883" lon="14.8635617"><ele>699.0</ele><time>2026-04-28T10:18:58.195Z</time></trkpt><trkpt lat="38.0627783" lon="14.86339"><ele>699.0</ele><time>2026-04-28T10:18:59.195Z</time></trkpt><trkpt lat="38.06289" lon="14.863235"><ele>704.3333333333334</ele><time>2026-04-28T10:19:00.196Z</time></trkpt><trkpt lat="38.0630217" lon="14.8630933"><ele>709.6666666666667</ele><time>2026-04-28T10:19:01.195Z</time></trkpt><trkpt lat="38.0631717" lon="14.8629583"><ele>715.0</ele><time>2026-04-28T10:19:02.195Z</time></trkpt><trkpt lat="38.0633217" lon="14.8628317"><ele>713.6666666666667</ele><time>2026-04-28T10:19:03.195Z</time></trkpt><trkpt lat="38.06347" lon="14.8627067"><ele>712.3333333333334</ele><time>2026-04-28T10:19:04.195Z</time></trkpt><trkpt lat="38.0636117" lon="14.8625983"><ele>711.0</ele><time>2026-04-28T10:19:05.196Z</time></trkpt><trkpt lat="38.0637433" lon="14.86252"><ele>711.0</ele><time>2026-04-28T10:19:06.195Z</time></trkpt><trkpt lat="38.0638733" lon="14.8624633"><ele>711.0</ele><time>2026-04-28T10:19:07.195Z</time></trkpt><trkpt lat="38.0639933" lon="14.862395"><ele>711.0</ele><time>2026-04-28T10:19:08.195Z</time></trkpt><trkpt lat="38.0641033" lon="14.8622917"><ele>711.0</ele><time>2026-04-28T10:19:09.195Z</time></trkpt><trkpt lat="38.064195" lon="14.8621567"><ele>710.0</ele><time>2026-04-28T10:19:10.195Z</time></trkpt><trkpt lat="38.0642783" lon="14.8619917"><ele>709.0</ele><time>2026-04-28T10:19:11.196Z</time></trkpt><trkpt lat="38.0643367" lon="14.861785"><ele>708.0</ele><time>2026-04-28T10:19:12.195Z</time></trkpt><trkpt lat="38.0643983" lon="14.8615467"><ele>708.0</ele><time>2026-04-28T10:19:13.195Z</time></trkpt><trkpt lat="38.0644883" lon="14.861295"><ele>708.0</ele><time>2026-04-28T10:19:14.196Z</time></trkpt><trkpt lat="38.064585" lon="14.8610583"><ele>708.0</ele><time>2026-04-28T10:19:15.195Z</time></trkpt><trkpt lat="38.064685" lon="14.8608433"><ele>714.0</ele><time>2026-04-28T10:19:16.195Z</time></trkpt><trkpt lat="38.0647867" lon="14.86064"><ele>720.0</ele><time>2026-04-28T10:19:17.195Z</time></trkpt><trkpt lat="38.0648817" lon="14.8604433"><ele>726.0</ele><time>2026-04-28T10:19:18.195Z</time></trkpt><trkpt lat="38.0649567" lon="14.8602467"><ele>719.5</ele><time>2026-04-28T10:19:19.195Z</time></trkpt><trkpt lat="38.0650133" lon="14.8600617"><ele>713.0</ele><time>2026-04-28T10:19:20.195Z</time></trkpt><trkpt lat="38.0650617" lon="14.859885"><ele>706.5</ele><time>2026-04-28T10:19:21.195Z</time></trkpt><trkpt lat="38.065135" lon="14.8597267"><ele>700.0</ele><time>2026-04-28T10:19:22.195Z</time></trkpt><trkpt lat="38.0652417" lon="14.8595883"><ele>700.0</ele><time>2026-04-28T10:19:23.195Z</time></trkpt><trkpt lat="38.0653567" lon="14.859445"><ele>700.0</ele><time>2026-04-28T10:19:24.195Z</time></trkpt><trkpt lat="38.0654567" lon="14.8592867"><ele>700.0</ele><time>2026-04-28T10:19:25.195Z</time></trkpt><trkpt lat="38.06554" lon="14.85912"><ele>694.5</ele><time>2026-04-28T10:19:26.195Z</time></trkpt><trkpt lat="38.06561" lon="14.8589567"><ele>689.0</ele><time>2026-04-28T10:19:27.195Z</time></trkpt><trkpt lat="38.06569" lon="14.858815"><ele>683.5</ele><time>2026-04-28T10:19:28.195Z</time></trkpt><trkpt lat="38.065805" lon="14.8586933"><ele>678.0</ele><time>2026-04-28T10:19:29.195Z</time></trkpt><trkpt lat="38.0659383" lon="14.858585"><ele>690.0</ele><time>2026-04-28T10:19:30.195Z</time></trkpt><trkpt lat="38.0660633" lon="14.8584483"><ele>702.0</ele><time>2026-04-28T10:19:31.195Z</time></trkpt><trkpt lat="38.066185" lon="14.8582833"><ele>714.0</ele><time>2026-04-28T10:19:32.195Z</time></trkpt><trkpt lat="38.0662983" lon="14.8580817"><ele>714.0</ele><time>2026-04-28T10:19:33.195Z</time></trkpt><trkpt lat="38.0664067" lon="14.85788"><ele>714.0</ele><time>2026-04-28T10:19:34.195Z</time></trkpt><trkpt lat="38.0665167" lon="14.8576983"><ele>714.0</ele><time>2026-04-28T10:19:35.195Z</time></trkpt><trkpt lat="38.0666233" lon="14.85753"><ele>705.3333333333334</ele><time>2026-04-28T10:19:36.195Z</time></trkpt><trkpt lat="38.0667383" lon="14.857365"><ele>696.6666666666667</ele><time>2026-04-28T10:19:37.196Z</time></trkpt><trkpt lat="38.06684" lon="14.8572067"><ele>688.0</ele><time>2026-04-28T10:19:38.195Z</time></trkpt><trkpt lat="38.0669317" lon="14.8570567"><ele>688.0</ele><time>2026-04-28T10:19:39.195Z</time></trkpt><trkpt lat="38.0669883" lon="14.8568883"><ele>688.0</ele><time>2026-04-28T10:19:40.196Z</time></trkpt><trkpt lat="38.0670233" lon="14.8567017"><ele>688.0</ele><time>2026-04-28T10:19:41.195Z</time></trkpt><trkpt lat="38.0670417" lon="14.8564867"><ele>693.3333333333334</ele><time>2026-04-28T10:19:42.195Z</time></trkpt><trkpt lat="38.0670433" lon="14.8562783"><ele>698.6666666666666</ele><time>2026-04-28T10:19:43.195Z</time></trkpt><trkpt lat="38.067025" lon="14.8560767"><ele>704.0</ele><time>2026-04-28T10:19:44.195Z</time></trkpt><trkpt lat="38.0669983" lon="14.8558683"><ele>705.75</ele><time>2026-04-28T10:19:45.195Z</time></trkpt><trkpt lat="38.0669733" lon="14.855675"><ele>707.5</ele><time>2026-04-28T10:19:46.195Z</time></trkpt><trkpt lat="38.066965" lon="14.85549"><ele>709.25</ele><time>2026-04-28T10:19:47.196Z</time></trkpt><trkpt lat="38.06697" lon="14.85533"><ele>711.0</ele><time>2026-04-28T10:19:48.195Z</time></trkpt><trkpt lat="38.06696" lon="14.85519"><ele>709.1999999999999</ele><time>2026-04-28T10:19:49.195Z</time></trkpt><trkpt lat="38.0669333" lon="14.85507"><ele>707.4</ele><time>2026-04-28T10:19:50.195Z</time></trkpt><trkpt lat="38.06687" lon="14.85497"><ele>705.6</ele><time>2026-04-28T10:19:51.195Z</time></trkpt><trkpt lat="38.0667783" lon="14.8548883"><ele>703.8</ele><time>2026-04-28T10:19:52.195Z</time></trkpt><trkpt lat="38.0666967" lon="14.85481"><ele>702.0</ele><time>2026-04-28T10:19:53.196Z</time></trkpt><trkpt lat="38.0666433" lon="14.8547217"><ele>702.0</ele><time>2026-04-28T10:19:54.196Z</time></trkpt><trkpt lat="38.066625" lon="14.854615"><ele>702.0</ele><time>2026-04-28T10:19:55.196Z</time></trkpt><trkpt lat="38.066625" lon="14.85449"><ele>702.0</ele><time>2026-04-28T10:19:56.195Z</time></trkpt><trkpt lat="38.0666067" lon="14.8543683"><ele>702.0</ele><time>2026-04-28T10:19:57.195Z</time></trkpt><trkpt lat="38.066545" lon="14.8542617"><ele>702.0</ele><time>2026-04-28T10:19:58.196Z</time></trkpt><trkpt lat="38.0664783" lon="14.8541783"><ele>709.3333333333334</ele><time>2026-04-28T10:19:59.195Z</time></trkpt><trkpt lat="38.0664333" lon="14.8540783"><ele>716.6666666666666</ele><time>2026-04-28T10:20:00.195Z</time></trkpt><trkpt lat="38.06642" lon="14.85398"><ele>724.0</ele><time>2026-04-28T10:20:01.195Z</time></trkpt><trkpt lat="38.0664367" lon="14.8538817"><ele>731.3333333333333</ele><time>2026-04-28T10:20:02.195Z</time></trkpt><trkpt lat="38.0664283" lon="14.8537867"><ele>738.6666666666666</ele><time>2026-04-28T10:20:03.195Z</time></trkpt><trkpt lat="38.0663917" lon="14.85367"><ele>746.0</ele><time>2026-04-28T10:20:04.195Z</time></trkpt><trkpt lat="38.0663417" lon="14.8535367"><ele>745.0</ele><time>2026-04-28T10:20:05.195Z</time></trkpt><trkpt lat="38.0663" lon="14.8534017"><ele>744.0</ele><time>2026-04-28T10:20:06.196Z</time></trkpt><trkpt lat="38.0662717" lon="14.8532783"><ele>743.0</ele><time>2026-04-28T10:20:07.195Z</time></trkpt><trkpt lat="38.0662633" lon="14.8531667"><ele>742.0</ele><time>2026-04-28T10:20:08.195Z</time></trkpt><trkpt lat="38.0662767" lon="14.8530683"><ele>741.0</ele><time>2026-04-28T10:20:09.195Z</time></trkpt><trkpt lat="38.06632" lon="14.8529867"><ele>741.0</ele><time>2026-04-28T10:20:10.195Z</time></trkpt><trkpt lat="38.0663867" lon="14.8529483"><ele>741.0</ele><time>2026-04-28T10:20:11.196Z</time></trkpt><trkpt lat="38.0664933" lon="14.8529483"><ele>741.0</ele><time>2026-04-28T10:20:12.196Z</time></trkpt><trkpt lat="38.0666333" lon="14.8529867"><ele>741.0</ele><time>2026-04-28T10:20:13.195Z</time></trkpt><trkpt lat="38.0667967" lon="14.8530133"><ele>726.0</ele><time>2026-04-28T10:20:14.196Z</time></trkpt><trkpt lat="38.06697" lon="14.85303"><ele>711.0</ele><time>2026-04-28T10:20:15.195Z</time></trkpt><trkpt lat="38.0671267" lon="14.85301"><ele>696.0</ele><time>2026-04-28T10:20:16.195Z</time></trkpt><trkpt lat="38.06726" lon="14.852955"><ele>696.0</ele><time>2026-04-28T10:20:17.195Z</time></trkpt><trkpt lat="38.067375" lon="14.85285"><ele>696.0</ele><time>2026-04-28T10:20:18.195Z</time></trkpt><trkpt lat="38.067485" lon="14.8527433"><ele>696.0</ele><time>2026-04-28T10:20:19.195Z</time></trkpt><trkpt lat="38.0675833" lon="14.8526667"><ele>696.0</ele><time>2026-04-28T10:20:20.195Z</time></trkpt><trkpt lat="38.067695" lon="14.8526183"><ele>701.5</ele><time>2026-04-28T10:20:21.195Z</time></trkpt><trkpt lat="38.067825" lon="14.8526033"><ele>707.0</ele><time>2026-04-28T10:20:22.195Z</time></trkpt><trkpt lat="38.0679617" lon="14.852645"><ele>712.5</ele><time>2026-04-28T10:20:23.195Z</time></trkpt><trkpt lat="38.0680767" lon="14.8527317"><ele>718.0</ele><time>2026-04-28T10:20:24.195Z</time></trkpt><trkpt lat="38.0681767" lon="14.8528083"><ele>713.0</ele><time>2026-04-28T10:20:25.195Z</time></trkpt><trkpt lat="38.068275" lon="14.8528367"><ele>708.0</ele><time>2026-04-28T10:20:26.195Z</time></trkpt><trkpt lat="38.0683767" lon="14.8527983"><ele>703.0</ele><time>2026-04-28T10:20:27.195Z</time></trkpt><trkpt lat="38.0684517" lon="14.852715"><ele>698.0</ele><time>2026-04-28T10:20:28.196Z</time></trkpt><trkpt lat="38.0684983" lon="14.8525717"><ele>693.0</ele><time>2026-04-28T10:20:29.195Z</time></trkpt><trkpt lat="38.0685067" lon="14.8523983"><ele>693.0</ele><time>2026-04-28T10:20:30.195Z</time></trkpt><trkpt lat="38.0684917" lon="14.8522033"><ele>693.0</ele><time>2026-04-28T10:20:31.195Z</time></trkpt><trkpt lat="38.0684783" lon="14.8520217"><ele>693.0</ele><time>2026-04-28T10:20:32.195Z</time></trkpt><trkpt lat="38.068485" lon="14.8518517"><ele>693.0</ele><time>2026-04-28T10:20:33.195Z</time></trkpt><trkpt lat="38.0685183" lon="14.8516733"><ele>696.3333333333334</ele><time>2026-04-28T10:20:34.195Z</time></trkpt><trkpt lat="38.0685917" lon="14.8515117"><ele>699.6666666666667</ele><time>2026-04-28T10:20:35.195Z</time></trkpt><trkpt lat="38.068685" lon="14.8513517"><ele>703.0</ele><time>2026-04-28T10:20:36.195Z</time></trkpt><trkpt lat="38.068785" lon="14.8511833"><ele>703.0</ele><time>2026-04-28T10:20:37.195Z</time></trkpt><trkpt lat="38.068875" lon="14.8510167"><ele>703.0</ele><time>2026-04-28T10:20:38.195Z</time></trkpt><trkpt lat="38.068965" lon="14.8508783"><ele>703.0</ele><time>2026-04-28T10:20:39.196Z</time></trkpt><trkpt lat="38.0690717" lon="14.8507683"><ele>703.0</ele><time>2026-04-28T10:20:40.196Z</time></trkpt><trkpt lat="38.0691733" lon="14.8506617"><ele>698.0</ele><time>2026-04-28T10:20:41.195Z</time></trkpt><trkpt lat="38.0692717" lon="14.8505217"><ele>693.0</ele><time>2026-04-28T10:20:42.195Z</time></trkpt><trkpt lat="38.0693583" lon="14.8503667"><ele>688.0</ele><time>2026-04-28T10:20:43.195Z</time></trkpt><trkpt lat="38.0694233" lon="14.8502317"><ele>683.0</ele><time>2026-04-28T10:20:44.196Z</time></trkpt><trkpt lat="38.0695033" lon="14.85013"><ele>690.5</ele><time>2026-04-28T10:20:45.195Z</time></trkpt><trkpt lat="38.0696033" lon="14.85007"><ele>698.0</ele><time>2026-04-28T10:20:46.195Z</time></trkpt><trkpt lat="38.0697167" lon="14.850025"><ele>705.5</ele><time>2026-04-28T10:20:47.195Z</time></trkpt><trkpt lat="38.06982" lon="14.8499517"><ele>713.0</ele><time>2026-04-28T10:20:48.195Z</time></trkpt><trkpt lat="38.06992" lon="14.84984"><ele>712.0</ele><time>2026-04-28T10:20:49.195Z</time></trkpt><trkpt lat="38.070015" lon="14.8497183"><ele>711.0</ele><time>2026-04-28T10:20:50.196Z</time></trkpt><trkpt lat="38.0701067" lon="14.849595"><ele>710.0</ele><time>2026-04-28T10:20:51.195Z</time></trkpt><trkpt lat="38.07019" lon="14.849455"><ele>709.0</ele><time>2026-04-28T10:20:52.195Z</time></trkpt><trkpt lat="38.0702467" lon="14.849285"><ele>709.0</ele><time>2026-04-28T10:20:53.195Z</time></trkpt><trkpt lat="38.0703" lon="14.849125"><ele>709.0</ele><time>2026-04-28T10:20:54.195Z</time></trkpt><trkpt lat="38.07038" lon="14.848995"><ele>709.0</ele><time>2026-04-28T10:20:55.195Z</time></trkpt><trkpt lat="38.07046" lon="14.848875"><ele>709.0</ele><time>2026-04-28T10:20:56.195Z</time></trkpt><trkpt lat="38.0705267" lon="14.8487367"><ele>709.0</ele><time>2026-04-28T10:20:57.195Z</time></trkpt><trkpt lat="38.0705717" lon="14.8485717"><ele>709.0</ele><time>2026-04-28T10:20:58.195Z</time></trkpt><trkpt lat="38.0706033" lon="14.848385"><ele>709.0</ele><time>2026-04-28T10:20:59.196Z</time></trkpt><trkpt lat="38.070625" lon="14.8482017"><ele>709.0</ele><time>2026-04-28T10:21:00.196Z</time></trkpt><trkpt lat="38.0706433" lon="14.8480233"><ele>715.75</ele><time>2026-04-28T10:21:01.195Z</time></trkpt><trkpt lat="38.070665" lon="14.8478483"><ele>722.5</ele><time>2026-04-28T10:21:02.195Z</time></trkpt><trkpt lat="38.0707017" lon="14.8477017"><ele>729.25</ele><time>2026-04-28T10:21:03.195Z</time></trkpt><trkpt lat="38.0707667" lon="14.84758"><ele>736.0</ele><time>2026-04-28T10:21:04.195Z</time></trkpt><trkpt lat="38.0708283" lon="14.847465"><ele>722.0</ele><time>2026-04-28T10:21:05.195Z</time></trkpt><trkpt lat="38.070875" lon="14.84733"><ele>708.0</ele><time>2026-04-28T10:21:06.195Z</time></trkpt><trkpt lat="38.070875" lon="14.8471667"><ele>694.0</ele><time>2026-04-28T10:21:07.195Z</time></trkpt><trkpt lat="38.0708567" lon="14.8469867"><ele>680.0</ele><time>2026-04-28T10:21:08.195Z</time></trkpt><trkpt lat="38.0708317" lon="14.8467967"><ele>682.6666666666666</ele><time>2026-04-28T10:21:09.195Z</time></trkpt><trkpt lat="38.070805" lon="14.8466"><ele>685.3333333333334</ele><time>2026-04-28T10:21:10.195Z</time></trkpt><trkpt lat="38.07078" lon="14.8464083"><ele>688.0</ele><time>2026-04-28T10:21:11.196Z</time></trkpt><trkpt lat="38.07075" lon="14.8462333"><ele>703.5</ele><time>2026-04-28T10:21:12.195Z</time></trkpt><trkpt lat="38.0707233" lon="14.846085"><ele>719.0</ele><time>2026-04-28T10:21:13.195Z</time></trkpt><trkpt lat="38.0707083" lon="14.8459367"><ele>734.5</ele><time>2026-04-28T10:21:14.195Z</time></trkpt><trkpt lat="38.0706617" lon="14.8457933"><ele>750.0</ele><time>2026-04-28T10:21:15.195Z</time></trkpt><trkpt lat="38.07058" lon="14.8456667"><ele>750.0</ele><time>2026-04-28T10:21:16.195Z</time></trkpt><trkpt lat="38.070505" lon="14.8455583"><ele>750.0</ele><time>2026-04-28T10:21:17.195Z</time></trkpt><trkpt lat="38.0704383" lon="14.8454433"><ele>750.0</ele><time>2026-04-28T10:21:18.195Z</time></trkpt><trkpt lat="38.070415" lon="14.8453117"><ele>750.0</ele><time>2026-04-28T10:21:19.195Z</time></trkpt><trkpt lat="38.0704183" lon="14.8451767"><ele>750.0</ele><time>2026-04-28T10:21:20.196Z</time></trkpt><trkpt lat="38.070445" lon="14.84505"><ele>744.0</ele><time>2026-04-28T10:21:21.195Z</time></trkpt><trkpt lat="38.0704617" lon="14.844925"><ele>738.0</ele><time>2026-04-28T10:21:22.195Z</time></trkpt><trkpt lat="38.0704267" lon="14.8447983"><ele>732.0</ele><time>2026-04-28T10:21:23.195Z</time></trkpt><trkpt lat="38.0703483" lon="14.8447033"><ele>726.0</ele><time>2026-04-28T10:21:24.195Z</time></trkpt><trkpt lat="38.07024" lon="14.8446317"><ele>720.0</ele><time>2026-04-28T10:21:25.195Z</time></trkpt><trkpt lat="38.07012" lon="14.8445633"><ele>720.0</ele><time>2026-04-28T10:21:26.195Z</time></trkpt><trkpt lat="38.0700133" lon="14.8444983"><ele>720.0</ele><time>2026-04-28T10:21:27.195Z</time></trkpt><trkpt lat="38.069925" lon="14.844415"><ele>720.0</ele><time>2026-04-28T10:21:28.195Z</time></trkpt><trkpt lat="38.0698683" lon="14.8443033"><ele>720.0</ele><time>2026-04-28T10:21:29.195Z</time></trkpt><trkpt lat="38.069825" lon="14.84418"><ele>720.0</ele><time>2026-04-28T10:21:30.195Z</time></trkpt><trkpt lat="38.0698033" lon="14.8440517"><ele>715.2</ele><time>2026-04-28T10:21:31.195Z</time></trkpt><trkpt lat="38.0698133" lon="14.843935"><ele>710.4</ele><time>2026-04-28T10:21:32.195Z</time></trkpt><trkpt lat="38.0698433" lon="14.8438367"><ele>705.5999999999999</ele><time>2026-04-28T10:21:33.196Z</time></trkpt><trkpt lat="38.0698983" lon="14.84377"><ele>700.8</ele><time>2026-04-28T10:21:34.196Z</time></trkpt><trkpt lat="38.0699967" lon="14.8437083"><ele>696.0</ele><time>2026-04-28T10:21:35.195Z</time></trkpt><trkpt lat="38.07011" lon="14.8436317"><ele>696.0</ele><time>2026-04-28T10:21:36.195Z</time></trkpt><trkpt lat="38.0702317" lon="14.8435117"><ele>696.0</ele><time>2026-04-28T10:21:37.195Z</time></trkpt><trkpt lat="38.0703433" lon="14.8433833"><ele>696.0</ele><time>2026-04-28T10:21:38.195Z</time></trkpt><trkpt lat="38.070455" lon="14.84325"><ele>698.8</ele><time>2026-04-28T10:21:39.195Z</time></trkpt><trkpt lat="38.0705483" lon="14.8431317"><ele>701.5999999999999</ele><time>2026-04-28T10:21:40.195Z</time></trkpt><trkpt lat="38.0706383" lon="14.8430417"><ele>704.4</ele><time>2026-04-28T10:21:41.195Z</time></trkpt><trkpt lat="38.070725" lon="14.84299"><ele>707.2</ele><time>2026-04-28T10:21:42.195Z</time></trkpt><trkpt lat="38.0708217" lon="14.8429933"><ele>710.0</ele><time>2026-04-28T10:21:43.195Z</time></trkpt><trkpt lat="38.070945" lon="14.8430467"><ele>702.75</ele><time>2026-04-28T10:21:44.195Z</time></trkpt><trkpt lat="38.0710783" lon="14.84311"><ele>695.5</ele><time>2026-04-28T10:21:45.195Z</time></trkpt><trkpt lat="38.0712117" lon="14.84317"><ele>688.25</ele><time>2026-04-28T10:21:46.195Z</time></trkpt><trkpt lat="38.0713333" lon="14.843215"><ele>681.0</ele><time>2026-04-28T10:21:47.195Z</time></trkpt><trkpt lat="38.07144" lon="14.8432533"><ele>681.0</ele><time>2026-04-28T10:21:48.195Z</time></trkpt><trkpt lat="38.0715433" lon="14.8432567"><ele>681.0</ele><time>2026-04-28T10:21:49.196Z</time></trkpt><trkpt lat="38.07164" lon="14.8432233"><ele>681.0</ele><time>2026-04-28T10:21:50.195Z</time></trkpt><trkpt lat="38.07172" lon="14.8431333"><ele>681.0</ele><time>2026-04-28T10:21:51.195Z</time></trkpt><trkpt lat="38.0717867" lon="14.8430133"><ele>681.0</ele><time>2026-04-28T10:21:52.195Z</time></trkpt><trkpt lat="38.0718583" lon="14.8428683"><ele>679.0</ele><time>2026-04-28T10:21:53.195Z</time></trkpt><trkpt lat="38.0719583" lon="14.8427433"><ele>677.0</ele><time>2026-04-28T10:21:54.196Z</time></trkpt><trkpt lat="38.0720933" lon="14.8426683"><ele>675.0</ele><time>2026-04-28T10:21:55.195Z</time></trkpt><trkpt lat="38.0722267" lon="14.8425983"><ele>673.0</ele><time>2026-04-28T10:21:56.195Z</time></trkpt><trkpt lat="38.07233" lon="14.84252"><ele>673.25</ele><time>2026-04-28T10:21:57.195Z</time></trkpt><trkpt lat="38.0724083" lon="14.8424067"><ele>673.5</ele><time>2026-04-28T10:21:58.195Z</time></trkpt><trkpt lat="38.0724533" lon="14.8422533"><ele>673.75</ele><time>2026-04-28T10:21:59.195Z</time></trkpt><trkpt lat="38.07246" lon="14.8420783"><ele>674.0</ele><time>2026-04-28T10:22:00.196Z</time></trkpt><trkpt lat="38.0724367" lon="14.841895"><ele>684.25</ele><time>2026-04-28T10:22:01.195Z</time></trkpt><trkpt lat="38.072405" lon="14.8417117"><ele>694.5</ele><time>2026-04-28T10:22:02.195Z</time></trkpt><trkpt lat="38.07237" lon="14.8415283"><ele>704.75</ele><time>2026-04-28T10:22:03.195Z</time></trkpt><trkpt lat="38.072335" lon="14.8413417"><ele>715.0</ele><time>2026-04-28T10:22:04.195Z</time></trkpt><trkpt lat="38.0723017" lon="14.8411667"><ele>715.0</ele><time>2026-04-28T10:22:05.195Z</time></trkpt><trkpt lat="38.07226" lon="14.841005"><ele>715.0</ele><time>2026-04-28T10:22:06.196Z</time></trkpt><trkpt lat="38.0722033" lon="14.8408467"><ele>715.0</ele><time>2026-04-28T10:22:07.196Z</time></trkpt><trkpt lat="38.0721317" lon="14.840685"><ele>715.0</ele><time>2026-04-28T10:22:08.196Z</time></trkpt><trkpt lat="38.07205" lon="14.8405217"><ele>715.5</ele><time>2026-04-28T10:22:09.195Z</time></trkpt><trkpt lat="38.0719833" lon="14.8403517"><ele>716.0</ele><time>2026-04-28T10:22:10.195Z</time></trkpt><trkpt lat="38.07194" lon="14.8401833"><ele>716.5</ele><time>2026-04-28T10:22:11.195Z</time></trkpt><trkpt lat="38.0719217" lon="14.84003"><ele>717.0</ele><time>2026-04-28T10:22:12.195Z</time></trkpt><trkpt lat="38.0719267" lon="14.8398783"><ele>716.0</ele><time>2026-04-28T10:22:13.195Z</time></trkpt><trkpt lat="38.0719683" lon="14.839745"><ele>715.0</ele><time>2026-04-28T10:22:14.195Z</time></trkpt><trkpt lat="38.0720383" lon="14.8396367"><ele>714.0</ele><time>2026-04-28T10:22:15.195Z</time></trkpt><trkpt lat="38.0721433" lon="14.8395533"><ele>713.0</ele><time>2026-04-28T10:22:16.195Z</time></trkpt><trkpt lat="38.0722667" lon="14.8394683"><ele>713.0</ele><time>2026-04-28T10:22:17.195Z</time></trkpt><trkpt lat="38.0723967" lon="14.8393683"><ele>713.0</ele><time>2026-04-28T10:22:18.196Z</time></trkpt><trkpt lat="38.0725333" lon="14.8392567"><ele>713.0</ele><time>2026-04-28T10:22:19.195Z</time></trkpt><trkpt lat="38.07265" lon="14.839125"><ele>704.75</ele><time>2026-04-28T10:22:20.195Z</time></trkpt><trkpt lat="38.07274" lon="14.83899"><ele>696.5</ele><time>2026-04-28T10:22:21.195Z</time></trkpt><trkpt lat="38.0728183" lon="14.838845"><ele>688.25</ele><time>2026-04-28T10:22:22.195Z</time></trkpt><trkpt lat="38.0728783" lon="14.8386717"><ele>680.0</ele><time>2026-04-28T10:22:23.195Z</time></trkpt><trkpt lat="38.0729117" lon="14.8384917"><ele>685.5</ele><time>2026-04-28T10:22:24.195Z</time></trkpt><trkpt lat="38.0729117" lon="14.8383117"><ele>691.0</ele><time>2026-04-28T10:22:25.195Z</time></trkpt><trkpt lat="38.072905" lon="14.838155"><ele>696.5</ele><time>2026-04-28T10:22:26.195Z</time></trkpt><trkpt lat="38.0728983" lon="14.838015"><ele>702.0</ele><time>2026-04-28T10:22:27.196Z</time></trkpt><trkpt lat="38.0728833" lon="14.8378933"><ele>702.0</ele><time>2026-04-28T10:22:28.195Z</time></trkpt><trkpt lat="38.0728617" lon="14.83778"><ele>702.0</ele><time>2026-04-28T10:22:29.195Z</time></trkpt><trkpt lat="38.072845" lon="14.8376567"><ele>702.0</ele><time>2026-04-28T10:22:30.195Z</time></trkpt><trkpt lat="38.07283" lon="14.8375433"><ele>702.0</ele><time>2026-04-28T10:22:31.195Z</time></trkpt><trkpt lat="38.0728267" lon="14.8374183"><ele>702.0</ele><time>2026-04-28T10:22:32.195Z</time></trkpt><trkpt lat="38.0728333" lon="14.837285"><ele>702.25</ele><time>2026-04-28T10:22:33.195Z</time></trkpt><trkpt lat="38.0728483" lon="14.8371367"><ele>702.5</ele><time>2026-04-28T10:22:34.195Z</time></trkpt><trkpt lat="38.072865" lon="14.8369733"><ele>702.75</ele><time>2026-04-28T10:22:35.195Z</time></trkpt><trkpt lat="38.072895" lon="14.8368083"><ele>703.0</ele><time>2026-04-28T10:22:36.195Z</time></trkpt><trkpt lat="38.0729467" lon="14.8366533"><ele>704.0</ele><time>2026-04-28T10:22:37.195Z</time></trkpt><trkpt lat="38.0730167" lon="14.8365117"><ele>705.0</ele><time>2026-04-28T10:22:38.195Z</time></trkpt><trkpt lat="38.0731" lon="14.8364033"><ele>706.0</ele><time>2026-04-28T10:22:39.195Z</time></trkpt><trkpt lat="38.0732217" lon="14.8363283"><ele>707.0</ele><time>2026-04-28T10:22:40.195Z</time></trkpt><trkpt lat="38.0733917" lon="14.8362767"><ele>695.6666666666666</ele><time>2026-04-28T10:22:41.195Z</time></trkpt><trkpt lat="38.0735917" lon="14.83622"><ele>684.3333333333334</ele><time>2026-04-28T10:22:42.196Z</time></trkpt><trkpt lat="38.0737783" lon="14.836155"><ele>673.0</ele><time>2026-04-28T10:22:43.195Z</time></trkpt><trkpt lat="38.07395" lon="14.8360917"><ele>673.0</ele><time>2026-04-28T10:22:44.195Z</time></trkpt><trkpt lat="38.0741017" lon="14.836045"><ele>673.0</ele><time>2026-04-28T10:22:45.195Z</time></trkpt><trkpt lat="38.0742333" lon="14.8359817"><ele>673.0</ele><time>2026-04-28T10:22:46.195Z</time></trkpt><trkpt lat="38.07435" lon="14.8358983"><ele>673.0</ele><time>2026-04-28T10:22:47.195Z</time></trkpt><trkpt lat="38.0744517" lon="14.8357867"><ele>675.0</ele><time>2026-04-28T10:22:48.195Z</time></trkpt><trkpt lat="38.0745383" lon="14.83565"><ele>677.0</ele><time>2026-04-28T10:22:49.195Z</time></trkpt><trkpt lat="38.0746133" lon="14.8354983"><ele>679.0</ele><time>2026-04-28T10:22:50.196Z</time></trkpt><trkpt lat="38.0746617" lon="14.8353333"><ele>681.0</ele><time>2026-04-28T10:22:51.195Z</time></trkpt><trkpt lat="38.0746767" lon="14.8351717"><ele>687.75</ele><time>2026-04-28T10:22:52.195Z</time></trkpt><trkpt lat="38.0747117" lon="14.8349933"><ele>694.5</ele><time>2026-04-28T10:22:53.195Z</time></trkpt><trkpt lat="38.0747433" lon="14.8348233"><ele>701.25</ele><time>2026-04-28T10:22:54.195Z</time></trkpt><trkpt lat="38.0747833" lon="14.834665"><ele>708.0</ele><time>2026-04-28T10:22:55.195Z</time></trkpt><trkpt lat="38.07483" lon="14.8345167"><ele>708.0</ele><time>2026-04-28T10:22:56.195Z</time></trkpt><trkpt lat="38.074885" lon="14.8343833"><ele>708.0</ele><time>2026-04-28T10:22:57.195Z</time></trkpt><trkpt lat="38.0749433" lon="14.8342717"><ele>708.0</ele><time>2026-04-28T10:22:58.195Z</time></trkpt><trkpt lat="38.0750117" lon="14.83419"><ele>708.0</ele><time>2026-04-28T10:22:59.195Z</time></trkpt><trkpt lat="38.0751017" lon="14.8341533"><ele>708.0</ele><time>2026-04-28T10:23:00.195Z</time></trkpt><trkpt lat="38.0752033" lon="14.8341567"><ele>703.25</ele><time>2026-04-28T10:23:01.195Z</time></trkpt><trkpt lat="38.0753117" lon="14.8342117"><ele>698.5</ele><time>2026-04-28T10:23:02.196Z</time></trkpt><trkpt lat="38.075435" lon="14.83428"><ele>693.75</ele><time>2026-04-28T10:23:03.195Z</time></trkpt><trkpt lat="38.0755533" lon="14.8343217"><ele>689.0</ele><time>2026-04-28T10:23:04.195Z</time></trkpt><trkpt lat="38.075655" lon="14.834325"><ele>683.4000000000001</ele><time>2026-04-28T10:23:05.196Z</time></trkpt><trkpt lat="38.0757433" lon="14.8343417"><ele>677.8</ele><time>2026-04-28T10:23:06.195Z</time></trkpt><trkpt lat="38.075825" lon="14.8343933"><ele>672.2</ele><time>2026-04-28T10:23:07.195Z</time></trkpt><trkpt lat="38.0758867" lon="14.8345"><ele>666.5999999999999</ele><time>2026-04-28T10:23:08.196Z</time></trkpt><trkpt lat="38.0759383" lon="14.8346217"><ele>661.0</ele><time>2026-04-28T10:23:09.195Z</time></trkpt><trkpt lat="38.0759933" lon="14.8347233"><ele>659.75</ele><time>2026-04-28T10:23:10.195Z</time></trkpt><trkpt lat="38.076075" lon="14.8348017"><ele>658.5</ele><time>2026-04-28T10:23:11.195Z</time></trkpt><trkpt lat="38.0761883" lon="14.8348233"><ele>657.25</ele><time>2026-04-28T10:23:12.196Z</time></trkpt><trkpt lat="38.0763117" lon="14.834815"><ele>656.0</ele><time>2026-04-28T10:23:13.195Z</time></trkpt><trkpt lat="38.076445" lon="14.8347983"><ele>656.0</ele><time>2026-04-28T10:23:14.196Z</time></trkpt><trkpt lat="38.0765867" lon="14.83478"><ele>656.0</ele><time>2026-04-28T10:23:15.195Z</time></trkpt><trkpt lat="38.0767283" lon="14.8347333"><ele>656.0</ele><time>2026-04-28T10:23:16.195Z</time></trkpt><trkpt lat="38.0768667" lon="14.8346383"><ele>656.0</ele><time>2026-04-28T10:23:17.195Z</time></trkpt><trkpt lat="38.0769917" lon="14.83452"><ele>657.3333333333333</ele><time>2026-04-28T10:23:18.195Z</time></trkpt><trkpt lat="38.07711" lon="14.83438"><ele>658.6666666666666</ele><time>2026-04-28T10:23:19.195Z</time></trkpt><trkpt lat="38.0772217" lon="14.8342183"><ele>660.0</ele><time>2026-04-28T10:23:20.196Z</time></trkpt><trkpt lat="38.077325" lon="14.8340533"><ele>660.3333333333334</ele><time>2026-04-28T10:23:21.195Z</time></trkpt><trkpt lat="38.0774283" lon="14.8338683"><ele>660.6666666666667</ele><time>2026-04-28T10:23:22.195Z</time></trkpt><trkpt lat="38.0775267" lon="14.8336783"><ele>661.0</ele><time>2026-04-28T10:23:23.195Z</time></trkpt><trkpt lat="38.07762" lon="14.8334817"><ele>669.6666666666667</ele><time>2026-04-28T10:23:24.195Z</time></trkpt><trkpt lat="38.077715" lon="14.83328"><ele>678.3333333333334</ele><time>2026-04-28T10:23:25.195Z</time></trkpt><trkpt lat="38.0778017" lon="14.833085"><ele>687.0</ele><time>2026-04-28T10:23:26.195Z</time></trkpt><trkpt lat="38.0778817" lon="14.832895"><ele>687.0</ele><time>2026-04-28T10:23:27.195Z</time></trkpt><trkpt lat="38.0779617" lon="14.8327167"><ele>687.0</ele><time>2026-04-28T10:23:28.195Z</time></trkpt><trkpt lat="38.0780433" lon="14.8325583"><ele>687.0</ele><time>2026-04-28T10:23:29.195Z</time></trkpt><trkpt lat="38.0781417" lon="14.8324367"><ele>687.0</ele><time>2026-04-28T10:23:30.195Z</time></trkpt><trkpt lat="38.0782517" lon="14.8323417"><ele>681.0</ele><time>2026-04-28T10:23:31.195Z</time></trkpt><trkpt lat="38.07836" lon="14.8322567"><ele>675.0</ele><time>2026-04-28T10:23:32.195Z</time></trkpt><trkpt lat="38.0784467" lon="14.832165"><ele>669.0</ele><time>2026-04-28T10:23:33.195Z</time></trkpt><trkpt lat="38.07852" lon="14.8320517"><ele>663.0</ele><time>2026-04-28T10:23:34.195Z</time></trkpt><trkpt lat="38.0785617" lon="14.831895"><ele>669.3333333333334</ele><time>2026-04-28T10:23:35.196Z</time></trkpt><trkpt lat="38.078605" lon="14.8317017"><ele>675.6666666666667</ele><time>2026-04-28T10:23:36.196Z</time></trkpt><trkpt lat="38.0786417" lon="14.831505"><ele>682.0</ele><time>2026-04-28T10:23:37.196Z</time></trkpt><trkpt lat="38.0786683" lon="14.8313117"><ele>682.0</ele><time>2026-04-28T10:23:38.195Z</time></trkpt><trkpt lat="38.0786983" lon="14.831125"><ele>682.0</ele><time>2026-04-28T10:23:39.195Z</time></trkpt><trkpt lat="38.078725" lon="14.8309433"><ele>682.0</ele><time>2026-04-28T10:23:40.196Z</time></trkpt><trkpt lat="38.0787567" lon="14.830765"><ele>682.0</ele><time>2026-04-28T10:23:41.195Z</time></trkpt><trkpt lat="38.0788033" lon="14.8305967"><ele>679.5</ele><time>2026-04-28T10:23:42.195Z</time></trkpt><trkpt lat="38.0788667" lon="14.8304533"><ele>677.0</ele><time>2026-04-28T10:23:43.195Z</time></trkpt><trkpt lat="38.0789583" lon="14.8303283"><ele>674.5</ele><time>2026-04-28T10:23:44.195Z</time></trkpt><trkpt lat="38.0790617" lon="14.8302267"><ele>672.0</ele><time>2026-04-28T10:23:45.196Z</time></trkpt><trkpt lat="38.0791667" lon="14.8301267"><ele>672.0</ele><time>2026-04-28T10:23:46.195Z</time></trkpt><trkpt lat="38.0792633" lon="14.8300117"><ele>672.0</ele><time>2026-04-28T10:23:47.195Z</time></trkpt><trkpt lat="38.0793333" lon="14.8298917"><ele>672.0</ele><time>2026-04-28T10:23:48.196Z</time></trkpt><trkpt lat="38.0793867" lon="14.82975"><ele>672.0</ele><time>2026-04-28T10:23:49.195Z</time></trkpt><trkpt lat="38.0794333" lon="14.8296083"><ele>672.0</ele><time>2026-04-28T10:23:50.195Z</time></trkpt><trkpt lat="38.0794883" lon="14.8294967"><ele>672.0</ele><time>2026-04-28T10:23:51.195Z</time></trkpt><trkpt lat="38.0795567" lon="14.829415"><ele>672.0</ele><time>2026-04-28T10:23:52.195Z</time></trkpt><trkpt lat="38.0796467" lon="14.829375"><ele>672.0</ele><time>2026-04-28T10:23:53.195Z</time></trkpt><trkpt lat="38.0797367" lon="14.829375"><ele>672.0</ele><time>2026-04-28T10:23:54.195Z</time></trkpt><trkpt lat="38.0798283" lon="14.8294067"><ele>666.8</ele><time>2026-04-28T10:23:55.196Z</time></trkpt><trkpt lat="38.079935" lon="14.829455"><ele>661.6</ele><time>2026-04-28T10:23:56.195Z</time></trkpt><trkpt lat="38.080035" lon="14.8295033"><ele>656.4</ele><time>2026-04-28T10:23:57.195Z</time></trkpt><trkpt lat="38.0801383" lon="14.829545"><ele>651.1999999999999</ele><time>2026-04-28T10:23:58.195Z</time></trkpt><trkpt lat="38.0802367" lon="14.8295517"><ele>646.0</ele><time>2026-04-28T10:23:59.195Z</time></trkpt><trkpt lat="38.080325" lon="14.8295"><ele>646.0</ele><time>2026-04-28T10:24:00.195Z</time></trkpt><trkpt lat="38.0803983" lon="14.8294017"><ele>646.0</ele><time>2026-04-28T10:24:01.195Z</time></trkpt><trkpt lat="38.0804583" lon="14.8292583"><ele>646.0</ele><time>2026-04-28T10:24:02.195Z</time></trkpt><trkpt lat="38.080525" lon="14.8291017"><ele>646.0</ele><time>2026-04-28T10:24:03.195Z</time></trkpt><trkpt lat="38.0805933" lon="14.8289383"><ele>652.6666666666667</ele><time>2026-04-28T10:24:04.195Z</time></trkpt><trkpt lat="38.0806683" lon="14.8287683"><ele>659.3333333333334</ele><time>2026-04-28T10:24:05.195Z</time></trkpt><trkpt lat="38.0807483" lon="14.828595"><ele>666.0</ele><time>2026-04-28T10:24:06.196Z</time></trkpt><trkpt lat="38.08084" lon="14.8284383"><ele>666.0</ele><time>2026-04-28T10:24:07.196Z</time></trkpt><trkpt lat="38.0809317" lon="14.8282883"><ele>666.0</ele><time>2026-04-28T10:24:08.195Z</time></trkpt><trkpt lat="38.0810267" lon="14.8281317"><ele>666.0</ele><time>2026-04-28T10:24:09.195Z</time></trkpt><trkpt lat="38.0811017" lon="14.8279633"><ele>666.0</ele><time>2026-04-28T10:24:10.195Z</time></trkpt><trkpt lat="38.0811683" lon="14.8277717"><ele>666.0</ele><time>2026-04-28T10:24:11.196Z</time></trkpt><trkpt lat="38.0812217" lon="14.827575"><ele>666.0</ele><time>2026-04-28T10:24:12.196Z</time></trkpt><trkpt lat="38.0812633" lon="14.82738"><ele>671.3333333333334</ele><time>2026-04-28T10:24:13.196Z</time></trkpt><trkpt lat="38.0813117" lon="14.827185"><ele>676.6666666666667</ele><time>2026-04-28T10:24:14.195Z</time></trkpt><trkpt lat="38.0813583" lon="14.82699"><ele>682.0</ele><time>2026-04-28T10:24:15.195Z</time></trkpt><trkpt lat="38.0813933" lon="14.8267983"><ele>683.5</ele><time>2026-04-28T10:24:16.195Z</time></trkpt><trkpt lat="38.08141" lon="14.82661"><ele>685.0</ele><time>2026-04-28T10:24:17.196Z</time></trkpt><trkpt lat="38.08143" lon="14.8264167"><ele>686.5</ele><time>2026-04-28T10:24:18.195Z</time></trkpt><trkpt lat="38.0814617" lon="14.82624"><ele>688.0</ele><time>2026-04-28T10:24:19.195Z</time></trkpt><trkpt lat="38.0814983" lon="14.8260883"><ele>690.2</ele><time>2026-04-28T10:24:20.195Z</time></trkpt><trkpt lat="38.0815433" lon="14.825965"><ele>692.4</ele><time>2026-04-28T10:24:21.195Z</time></trkpt><trkpt lat="38.0816" lon="14.825875"><ele>694.6</ele><time>2026-04-28T10:24:22.194Z</time></trkpt><trkpt lat="38.0816717" lon="14.82583"><ele>696.8000000000001</ele><time>2026-04-28T10:24:23.195Z</time></trkpt><trkpt lat="38.0817717" lon="14.8258117"><ele>699.0</ele><time>2026-04-28T10:24:24.194Z</time></trkpt><trkpt lat="38.08189" lon="14.82581"><ele>692.25</ele><time>2026-04-28T10:24:25.194Z</time></trkpt><trkpt lat="38.0819983" lon="14.825785"><ele>685.5</ele><time>2026-04-28T10:24:26.194Z</time></trkpt><trkpt lat="38.0820917" lon="14.8257017"><ele>678.75</ele><time>2026-04-28T10:24:27.195Z</time></trkpt><trkpt lat="38.0821733" lon="14.8255783"><ele>672.0</ele><time>2026-04-28T10:24:28.194Z</time></trkpt><trkpt lat="38.0822167" lon="14.82545"><ele>672.0</ele><time>2026-04-28T10:24:29.194Z</time></trkpt><trkpt lat="38.0822383" lon="14.8253033"><ele>672.0</ele><time>2026-04-28T10:24:30.195Z</time></trkpt><trkpt lat="38.0822183" lon="14.8251667"><ele>672.0</ele><time>2026-04-28T10:24:31.194Z</time></trkpt><trkpt lat="38.0821933" lon="14.8250317"><ele>672.0</ele><time>2026-04-28T10:24:32.194Z</time></trkpt><trkpt lat="38.0821917" lon="14.824885"><ele>668.4000000000001</ele><time>2026-04-28T10:24:33.194Z</time></trkpt><trkpt lat="38.0822283" lon="14.824755"><ele>664.8000000000001</ele><time>2026-04-28T10:24:34.194Z</time></trkpt><trkpt lat="38.0822983" lon="14.8246433"><ele>661.2</ele><time>2026-04-28T10:24:35.194Z</time></trkpt><trkpt lat="38.0823783" lon="14.8245667"><ele>657.6</ele><time>2026-04-28T10:24:36.194Z</time></trkpt><trkpt lat="38.0824733" lon="14.8244983"><ele>654.0</ele><time>2026-04-28T10:24:37.194Z</time></trkpt><trkpt lat="38.0825883" lon="14.8244283"><ele>654.0</ele><time>2026-04-28T10:24:38.195Z</time></trkpt><trkpt lat="38.0826817" lon="14.8243417"><ele>654.0</ele><time>2026-04-28T10:24:39.194Z</time></trkpt><trkpt lat="38.08275" lon="14.8242017"><ele>654.0</ele><time>2026-04-28T10:24:40.194Z</time></trkpt><trkpt lat="38.08279" lon="14.8240383"><ele>654.0</ele><time>2026-04-28T10:24:41.194Z</time></trkpt><trkpt lat="38.0828367" lon="14.82387"><ele>660.5</ele><time>2026-04-28T10:24:42.194Z</time></trkpt><trkpt lat="38.0829133" lon="14.8237133"><ele>667.0</ele><time>2026-04-28T10:24:43.194Z</time></trkpt><trkpt lat="38.0829867" lon="14.82357"><ele>673.5</ele><time>2026-04-28T10:24:44.194Z</time></trkpt><trkpt lat="38.0830483" lon="14.82342"><ele>680.0</ele><time>2026-04-28T10:24:45.194Z</time></trkpt><trkpt lat="38.08308" lon="14.82326"><ele>684.3333333333333</ele><time>2026-04-28T10:24:46.194Z</time></trkpt><trkpt lat="38.0830967" lon="14.8230783"><ele>688.6666666666666</ele><time>2026-04-28T10:24:47.195Z</time></trkpt><trkpt lat="38.08312" lon="14.8228883"><ele>693.0</ele><time>2026-04-28T10:24:48.194Z</time></trkpt><trkpt lat="38.0831533" lon="14.8226967"><ele>695.0</ele><time>2026-04-28T10:24:49.194Z</time></trkpt><trkpt lat="38.0832017" lon="14.822515"><ele>697.0</ele><time>2026-04-28T10:24:50.194Z</time></trkpt><trkpt lat="38.08324" lon="14.8223333"><ele>699.0</ele><time>2026-04-28T10:24:51.194Z</time></trkpt><trkpt lat="38.0832833" lon="14.8221483"><ele>690.75</ele><time>2026-04-28T10:24:52.194Z</time></trkpt><trkpt lat="38.083315" lon="14.821975"><ele>682.5</ele><time>2026-04-28T10:24:53.195Z</time></trkpt><trkpt lat="38.08336" lon="14.8218033"><ele>674.25</ele><time>2026-04-28T10:24:54.194Z</time></trkpt><trkpt lat="38.0833983" lon="14.8216367"><ele>666.0</ele><time>2026-04-28T10:24:55.194Z</time></trkpt><trkpt lat="38.0834383" lon="14.8214633"><ele>666.0</ele><time>2026-04-28T10:24:56.194Z</time></trkpt><trkpt lat="38.08348" lon="14.8212917"><ele>666.0</ele><time>2026-04-28T10:24:57.194Z</time></trkpt><trkpt lat="38.0835333" lon="14.821135"><ele>666.0</ele><time>2026-04-28T10:24:58.194Z</time></trkpt><trkpt lat="38.0836083" lon="14.82098"><ele>666.0</ele><time>2026-04-28T10:24:59.195Z</time></trkpt><trkpt lat="38.0836783" lon="14.820825"><ele>670.75</ele><time>2026-04-28T10:25:00.194Z</time></trkpt><trkpt lat="38.0837483" lon="14.8206767"><ele>675.5</ele><time>2026-04-28T10:25:01.194Z</time></trkpt><trkpt lat="38.0838283" lon="14.820525"><ele>680.25</ele><time>2026-04-28T10:25:02.194Z</time></trkpt><trkpt lat="38.0839183" lon="14.82039"><ele>685.0</ele><time>2026-04-28T10:25:03.194Z</time></trkpt><trkpt lat="38.0840217" lon="14.820275"><ele>685.0</ele><time>2026-04-28T10:25:04.195Z</time></trkpt><trkpt lat="38.0841433" lon="14.820185"><ele>685.0</ele><time>2026-04-28T10:25:05.195Z</time></trkpt><trkpt lat="38.084285" lon="14.820125"><ele>685.0</ele><time>2026-04-28T10:25:06.194Z</time></trkpt><trkpt lat="38.0844183" lon="14.8200767"><ele>685.0</ele><time>2026-04-28T10:25:07.194Z</time></trkpt><trkpt lat="38.084545" lon="14.8199917"><ele>685.0</ele><time>2026-04-28T10:25:08.194Z</time></trkpt><trkpt lat="38.0846467" lon="14.8198833"><ele>685.0</ele><time>2026-04-28T10:25:09.194Z</time></trkpt><trkpt lat="38.0847567" lon="14.8197633"><ele>685.0</ele><time>2026-04-28T10:25:10.195Z</time></trkpt><trkpt lat="38.08488" lon="14.81967"><ele>685.0</ele><time>2026-04-28T10:25:11.194Z</time></trkpt><trkpt lat="38.0850117" lon="14.819595"><ele>685.0</ele><time>2026-04-28T10:25:12.194Z</time></trkpt><trkpt lat="38.0851483" lon="14.8195317"><ele>685.0</ele><time>2026-04-28T10:25:13.194Z</time></trkpt><trkpt lat="38.0852833" lon="14.8194633"><ele>685.0</ele><time>2026-04-28T10:25:14.194Z</time></trkpt><trkpt lat="38.0854017" lon="14.8193717"><ele>685.0</ele><time>2026-04-28T10:25:15.194Z</time></trkpt><trkpt lat="38.0855117" lon="14.8192633"><ele>685.0</ele><time>2026-04-28T10:25:16.194Z</time></trkpt><trkpt lat="38.085605" lon="14.819135"><ele>685.0</ele><time>2026-04-28T10:25:17.194Z</time></trkpt><trkpt lat="38.0856983" lon="14.8190133"><ele>685.0</ele><time>2026-04-28T10:25:18.194Z</time></trkpt><trkpt lat="38.0857909" lon="14.8189037"><ele>685.0</ele><time>2026-04-28T10:25:19.194Z</time></trkpt><trkpt lat="38.0859011" lon="14.8188181"><ele>676.5</ele><time>2026-04-28T10:25:20.194Z</time></trkpt><trkpt lat="38.0860271" lon="14.818769"><ele>668.0</ele><time>2026-04-28T10:25:21.194Z</time></trkpt><trkpt lat="38.0861572" lon="14.8187507"><ele>659.5</ele><time>2026-04-28T10:25:22.194Z</time></trkpt><trkpt lat="38.0862834" lon="14.8187563"><ele>651.0</ele><time>2026-04-28T10:25:23.194Z</time></trkpt><trkpt lat="38.0864019" lon="14.818753"><ele>651.0</ele><time>2026-04-28T10:25:24.194Z</time></trkpt><trkpt lat="38.0865113" lon="14.8187352"><ele>651.0</ele><time>2026-04-28T10:25:25.194Z</time></trkpt><trkpt lat="38.0866056" lon="14.8186877"><ele>651.0</ele><time>2026-04-28T10:25:26.195Z</time></trkpt><trkpt lat="38.0866812" lon="14.8185902"><ele>651.0</ele><time>2026-04-28T10:25:27.194Z</time></trkpt><trkpt lat="38.0867545" lon="14.8184555"><ele>651.0</ele><time>2026-04-28T10:25:28.194Z</time></trkpt><trkpt lat="38.0868294" lon="14.8183094"><ele>655.25</ele><time>2026-04-28T10:25:29.194Z</time></trkpt><trkpt lat="38.0869136" lon="14.8181639"><ele>659.5</ele><time>2026-04-28T10:25:30.194Z</time></trkpt><trkpt lat="38.0870154" lon="14.8180273"><ele>663.75</ele><time>2026-04-28T10:25:31.194Z</time></trkpt><trkpt lat="38.0871322" lon="14.8179117"><ele>668.0</ele><time>2026-04-28T10:25:32.194Z</time></trkpt><trkpt lat="38.0872646" lon="14.8178172"><ele>668.0</ele><time>2026-04-28T10:25:33.194Z</time></trkpt><trkpt lat="38.0874229" lon="14.8177301"><ele>668.0</ele><time>2026-04-28T10:25:34.194Z</time></trkpt><trkpt lat="38.0875719" lon="14.8176585"><ele>668.0</ele><time>2026-04-28T10:25:35.194Z</time></trkpt><trkpt lat="38.0877199" lon="14.8175904"><ele>668.25</ele><time>2026-04-28T10:25:36.194Z</time></trkpt><trkpt lat="38.0878604" lon="14.8175212"><ele>668.5</ele><time>2026-04-28T10:25:37.194Z</time></trkpt><trkpt lat="38.087996" lon="14.8174496"><ele>668.75</ele><time>2026-04-28T10:25:38.195Z</time></trkpt><trkpt lat="38.0881251" lon="14.8173643"><ele>669.0</ele><time>2026-04-28T10:25:39.194Z</time></trkpt><trkpt lat="38.0882416" lon="14.8172463"><ele>667.75</ele><time>2026-04-28T10:25:40.194Z</time></trkpt><trkpt lat="38.0883475" lon="14.8171023"><ele>666.5</ele><time>2026-04-28T10:25:41.194Z</time></trkpt><trkpt lat="38.0884425" lon="14.8169523"><ele>665.25</ele><time>2026-04-28T10:25:42.195Z</time></trkpt><trkpt lat="38.0885125" lon="14.8168046"><ele>664.0</ele><time>2026-04-28T10:25:43.194Z</time></trkpt><trkpt lat="38.0885649" lon="14.8166659"><ele>664.0</ele><time>2026-04-28T10:25:44.194Z</time></trkpt><trkpt lat="38.088593" lon="14.8165388"><ele>664.0</ele><time>2026-04-28T10:25:45.194Z</time></trkpt><trkpt lat="38.0885853" lon="14.8164108"><ele>664.0</ele><time>2026-04-28T10:25:46.194Z</time></trkpt><trkpt lat="38.0885295" lon="14.8163009"><ele>664.0</ele><time>2026-04-28T10:25:47.194Z</time></trkpt><trkpt lat="38.0884343" lon="14.8162145"><ele>664.0</ele><time>2026-04-28T10:25:48.194Z</time></trkpt><trkpt lat="38.0883284" lon="14.8161384"><ele>664.2</ele><time>2026-04-28T10:25:49.195Z</time></trkpt><trkpt lat="38.0882438" lon="14.8160535"><ele>664.4000000000001</ele><time>2026-04-28T10:25:50.195Z</time></trkpt><trkpt lat="38.0882023" lon="14.8159498"><ele>664.6</ele><time>2026-04-28T10:25:51.194Z</time></trkpt><trkpt lat="38.08822" lon="14.8158367"><ele>664.8</ele><time>2026-04-28T10:25:52.194Z</time></trkpt><trkpt lat="38.0882483" lon="14.815745"><ele>665.0</ele><time>2026-04-28T10:25:53.195Z</time></trkpt><trkpt lat="38.08833" lon="14.81568"><ele>665.0</ele><time>2026-04-28T10:25:54.194Z</time></trkpt><trkpt lat="38.08843" lon="14.815605"><ele>665.0</ele><time>2026-04-28T10:25:55.194Z</time></trkpt><trkpt lat="38.0885083" lon="14.815495"><ele>665.0</ele><time>2026-04-28T10:25:56.195Z</time></trkpt><trkpt lat="38.0885667" lon="14.8153367"><ele>665.0</ele><time>2026-04-28T10:25:57.195Z</time></trkpt><trkpt lat="38.0886233" lon="14.81517"><ele>667.25</ele><time>2026-04-28T10:25:58.194Z</time></trkpt><trkpt lat="38.0886617" lon="14.8150133"><ele>669.5</ele><time>2026-04-28T10:25:59.194Z</time></trkpt><trkpt lat="38.0886817" lon="14.8148683"><ele>671.75</ele><time>2026-04-28T10:26:00.194Z</time></trkpt><trkpt lat="38.0886683" lon="14.8147083"><ele>674.0</ele><time>2026-04-28T10:26:01.194Z</time></trkpt><trkpt lat="38.088605" lon="14.8145717"><ele>674.0</ele><time>2026-04-28T10:26:02.194Z</time></trkpt><trkpt lat="38.0885083" lon="14.8144567"><ele>674.0</ele><time>2026-04-28T10:26:03.194Z</time></trkpt><trkpt lat="38.088405" lon="14.814385"><ele>674.0</ele><time>2026-04-28T10:26:04.194Z</time></trkpt><trkpt lat="38.0883017" lon="14.814305"><ele>674.0</ele><time>2026-04-28T10:26:05.194Z</time></trkpt><trkpt lat="38.0882217" lon="14.8141983"><ele>679.25</ele><time>2026-04-28T10:26:06.195Z</time></trkpt><trkpt lat="38.088175" lon="14.8140567"><ele>684.5</ele><time>2026-04-28T10:26:07.194Z</time></trkpt><trkpt lat="38.0881633" lon="14.813905"><ele>689.75</ele><time>2026-04-28T10:26:08.194Z</time></trkpt><trkpt lat="38.0881833" lon="14.8137233"><ele>695.0</ele><time>2026-04-28T10:26:09.194Z</time></trkpt><trkpt lat="38.08822" lon="14.8135367"><ele>692.5</ele><time>2026-04-28T10:26:10.194Z</time></trkpt><trkpt lat="38.0882483" lon="14.8133567"><ele>690.0</ele><time>2026-04-28T10:26:11.194Z</time></trkpt><trkpt lat="38.0882383" lon="14.8131817"><ele>687.5</ele><time>2026-04-28T10:26:12.194Z</time></trkpt><trkpt lat="38.0882067" lon="14.8130217"><ele>685.0</ele><time>2026-04-28T10:26:13.194Z</time></trkpt><trkpt lat="38.0881733" lon="14.8128633"><ele>685.0</ele><time>2026-04-28T10:26:14.195Z</time></trkpt><trkpt lat="38.0881583" lon="14.8127017"><ele>685.0</ele><time>2026-04-28T10:26:15.194Z</time></trkpt><trkpt lat="38.0881767" lon="14.8125517"><ele>685.0</ele><time>2026-04-28T10:26:16.195Z</time></trkpt><trkpt lat="38.0882333" lon="14.8124167"><ele>685.0</ele><time>2026-04-28T10:26:17.194Z</time></trkpt><trkpt lat="38.0883033" lon="14.812305"><ele>679.0</ele><time>2026-04-28T10:26:18.194Z</time></trkpt><trkpt lat="38.088355" lon="14.8121767"><ele>673.0</ele><time>2026-04-28T10:26:19.194Z</time></trkpt><trkpt lat="38.0883733" lon="14.8120117"><ele>667.0</ele><time>2026-04-28T10:26:20.194Z</time></trkpt><trkpt lat="38.0883683" lon="14.81184"><ele>661.0</ele><time>2026-04-28T10:26:21.194Z</time></trkpt><trkpt lat="38.0883533" lon="14.8116517"><ele>661.0</ele><time>2026-04-28T10:26:22.194Z</time></trkpt><trkpt lat="38.0883333" lon="14.811465"><ele>661.0</ele><time>2026-04-28T10:26:23.194Z</time></trkpt><trkpt lat="38.0883183" lon="14.8112833"><ele>661.0</ele><time>2026-04-28T10:26:24.194Z</time></trkpt><trkpt lat="38.0883317" lon="14.8111033"><ele>661.0</ele><time>2026-04-28T10:26:25.195Z</time></trkpt><trkpt lat="38.0883683" lon="14.81093"><ele>661.25</ele><time>2026-04-28T10:26:26.194Z</time></trkpt><trkpt lat="38.0884033" lon="14.8107533"><ele>661.5</ele><time>2026-04-28T10:26:27.194Z</time></trkpt><trkpt lat="38.08841" lon="14.8105683"><ele>661.75</ele><time>2026-04-28T10:26:28.194Z</time></trkpt><trkpt lat="38.0883917" lon="14.81039"><ele>662.0</ele><time>2026-04-28T10:26:29.194Z</time></trkpt><trkpt lat="38.0883683" lon="14.8102217"><ele>661.0</ele><time>2026-04-28T10:26:30.194Z</time></trkpt><trkpt lat="38.0883533" lon="14.8100617"><ele>660.0</ele><time>2026-04-28T10:26:31.195Z</time></trkpt><trkpt lat="38.0883583" lon="14.80991"><ele>659.0</ele><time>2026-04-28T10:26:32.194Z</time></trkpt><trkpt lat="38.0883833" lon="14.8097583"><ele>658.0</ele><time>2026-04-28T10:26:33.194Z</time></trkpt><trkpt lat="38.0884133" lon="14.8096083"><ele>658.0</ele><time>2026-04-28T10:26:34.194Z</time></trkpt><trkpt lat="38.0884417" lon="14.80946"><ele>658.0</ele><time>2026-04-28T10:26:35.194Z</time></trkpt><trkpt lat="38.088475" lon="14.8093083"><ele>658.0</ele><time>2026-04-28T10:26:36.194Z</time></trkpt><trkpt lat="38.0885067" lon="14.8091633"><ele>658.0</ele><time>2026-04-28T10:26:37.194Z</time></trkpt><trkpt lat="38.088535" lon="14.8090117"><ele>658.25</ele><time>2026-04-28T10:26:38.194Z</time></trkpt><trkpt lat="38.0885533" lon="14.808865"><ele>658.5</ele><time>2026-04-28T10:26:39.194Z</time></trkpt><trkpt lat="38.088565" lon="14.8087217"><ele>658.75</ele><time>2026-04-28T10:26:40.195Z</time></trkpt><trkpt lat="38.08854" lon="14.808585"><ele>659.0</ele><time>2026-04-28T10:26:41.194Z</time></trkpt><trkpt lat="38.088475" lon="14.80845"><ele>660.25</ele><time>2026-04-28T10:26:42.194Z</time></trkpt><trkpt lat="38.088385" lon="14.8083217"><ele>661.5</ele><time>2026-04-28T10:26:43.194Z</time></trkpt><trkpt lat="38.0882783" lon="14.8082017"><ele>662.75</ele><time>2026-04-28T10:26:44.195Z</time></trkpt><trkpt lat="38.08816" lon="14.8080833"><ele>664.0</ele><time>2026-04-28T10:26:45.194Z</time></trkpt><trkpt lat="38.08804" lon="14.8079683"><ele>664.0</ele><time>2026-04-28T10:26:46.194Z</time></trkpt><trkpt lat="38.087915" lon="14.8078517"><ele>664.0</ele><time>2026-04-28T10:26:47.194Z</time></trkpt><trkpt lat="38.0877967" lon="14.8077383"><ele>664.0</ele><time>2026-04-28T10:26:48.194Z</time></trkpt><trkpt lat="38.0876817" lon="14.8076283"><ele>664.0</ele><time>2026-04-28T10:26:49.194Z</time></trkpt><trkpt lat="38.0875583" lon="14.8075183"><ele>662.75</ele><time>2026-04-28T10:26:50.194Z</time></trkpt><trkpt lat="38.0874433" lon="14.8074183"><ele>661.5</ele><time>2026-04-28T10:26:51.194Z</time></trkpt><trkpt lat="38.0873283" lon="14.8073183"><ele>660.25</ele><time>2026-04-28T10:26:52.194Z</time></trkpt><trkpt lat="38.087215" lon="14.807225"><ele>659.0</ele><time>2026-04-28T10:26:53.194Z</time></trkpt><trkpt lat="38.0871017" lon="14.8071317"><ele>659.0</ele><time>2026-04-28T10:26:54.195Z</time></trkpt><trkpt lat="38.08699" lon="14.8070517"><ele>659.0</ele><time>2026-04-28T10:26:55.194Z</time></trkpt><trkpt lat="38.086875" lon="14.806985"><ele>659.0</ele><time>2026-04-28T10:26:56.194Z</time></trkpt><trkpt lat="38.08676" lon="14.806935"><ele>659.0</ele><time>2026-04-28T10:26:57.194Z</time></trkpt><trkpt lat="38.0866367" lon="14.806885"><ele>659.5</ele><time>2026-04-28T10:26:58.194Z</time></trkpt><trkpt lat="38.0865167" lon="14.8068467"><ele>660.0</ele><time>2026-04-28T10:26:59.195Z</time></trkpt><trkpt lat="38.0863967" lon="14.80682"><ele>660.5</ele><time>2026-04-28T10:27:00.194Z</time></trkpt><trkpt lat="38.0862783" lon="14.806815"><ele>661.0</ele><time>2026-04-28T10:27:01.194Z</time></trkpt><trkpt lat="38.0861633" lon="14.80682"><ele>661.0</ele><time>2026-04-28T10:27:02.194Z</time></trkpt><trkpt lat="38.0860533" lon="14.8068467"><ele>661.0</ele><time>2026-04-28T10:27:03.194Z</time></trkpt><trkpt lat="38.08594" lon="14.80686"><ele>661.0</ele><time>2026-04-28T10:27:04.194Z</time></trkpt><trkpt lat="38.0858267" lon="14.8068833"><ele>661.0</ele><time>2026-04-28T10:27:05.194Z</time></trkpt><trkpt lat="38.085715" lon="14.8069067"><ele>660.4</ele><time>2026-04-28T10:27:06.194Z</time></trkpt><trkpt lat="38.0856117" lon="14.8069333"><ele>659.8</ele><time>2026-04-28T10:27:07.194Z</time></trkpt><trkpt lat="38.0855133" lon="14.8069633"><ele>659.1999999999999</ele><time>2026-04-28T10:27:08.194Z</time></trkpt><trkpt lat="38.0854233" lon="14.8069883"><ele>658.5999999999999</ele><time>2026-04-28T10:27:09.194Z</time></trkpt><trkpt lat="38.08533" lon="14.807015"><ele>658.0</ele><time>2026-04-28T10:27:10.194Z</time></trkpt><trkpt lat="38.0852483" lon="14.807045"><ele>658.0</ele><time>2026-04-28T10:27:11.194Z</time></trkpt><trkpt lat="38.08516" lon="14.80707"><ele>658.0</ele><time>2026-04-28T10:27:12.195Z</time></trkpt><trkpt lat="38.0850667" lon="14.80708"><ele>658.0</ele><time>2026-04-28T10:27:13.194Z</time></trkpt><trkpt lat="38.084945" lon="14.8070983"><ele>658.0</ele><time>2026-04-28T10:27:15.194Z</time></trkpt><trkpt lat="38.0848317" lon="14.8070767"><ele>658.0</ele><time>2026-04-28T10:27:17.194Z</time></trkpt><trkpt lat="38.0847767" lon="14.80696"><ele>658.2</ele><time>2026-04-28T10:27:19.194Z</time></trkpt><trkpt lat="38.0847917" lon="14.8068633"><ele>658.4</ele><time>2026-04-28T10:27:20.194Z</time></trkpt><trkpt lat="38.0848033" lon="14.806765"><ele>658.6</ele><time>2026-04-28T10:27:21.195Z</time></trkpt><trkpt lat="38.0848017" lon="14.8066"><ele>658.8000000000001</ele><time>2026-04-28T10:27:23.194Z</time></trkpt><trkpt lat="38.0848283" lon="14.806525"><ele>659.0</ele><time>2026-04-28T10:27:24.194Z</time></trkpt><trkpt lat="38.0849217" lon="14.806425"><ele>657.5</ele><time>2026-04-28T10:27:26.194Z</time></trkpt><trkpt lat="38.0849933" lon="14.8063867"><ele>656.0</ele><time>2026-04-28T10:27:27.194Z</time></trkpt><trkpt lat="38.0850667" lon="14.80636"><ele>654.5</ele><time>2026-04-28T10:27:28.194Z</time></trkpt><trkpt lat="38.0851367" lon="14.80633"><ele>653.0</ele><time>2026-04-28T10:27:29.194Z</time></trkpt><trkpt lat="38.085205" lon="14.8063217"><ele>651.5</ele><time>2026-04-28T10:27:30.194Z</time></trkpt><trkpt lat="38.085305" lon="14.8063067"><ele>650.0</ele><time>2026-04-28T10:27:32.194Z</time></trkpt><trkpt lat="38.0854117" lon="14.8062783"><ele>650.0</ele><time>2026-04-28T10:27:34.194Z</time></trkpt><trkpt lat="38.0854767" lon="14.8062583"><ele>650.0</ele><time>2026-04-28T10:27:35.194Z</time></trkpt><trkpt lat="38.0855583" lon="14.8062467"><ele>650.0</ele><time>2026-04-28T10:27:37.194Z</time></trkpt><trkpt lat="38.0856367" lon="14.8062083"><ele>650.0</ele><time>2026-04-28T10:27:39.195Z</time></trkpt><trkpt lat="38.0857267" lon="14.8061733"><ele>650.0</ele><time>2026-04-28T10:27:41.195Z</time></trkpt><trkpt lat="38.0858533" lon="14.806125"><ele>649.0</ele><time>2026-04-28T10:27:43.194Z</time></trkpt><trkpt lat="38.085925" lon="14.8061083"><ele>648.0</ele><time>2026-04-28T10:27:44.194Z</time></trkpt><trkpt lat="38.0859883" lon="14.8060917"><ele>647.0</ele><time>2026-04-28T10:27:45.194Z</time></trkpt><trkpt lat="38.086055" lon="14.806075"><ele>646.0</ele><time>2026-04-28T10:27:46.194Z</time></trkpt><trkpt lat="38.0861183" lon="14.8060733"><ele>645.0</ele><time>2026-04-28T10:27:47.195Z</time></trkpt><trkpt lat="38.0862317" lon="14.8060567"><ele>644.0</ele><time>2026-04-28T10:27:49.194Z</time></trkpt><trkpt lat="38.086335" lon="14.8060367"><ele>644.0</ele><time>2026-04-28T10:27:51.194Z</time></trkpt><trkpt lat="38.0864483" lon="14.8060183"><ele>644.0</ele><time>2026-04-28T10:27:53.194Z</time></trkpt><trkpt lat="38.0865533" lon="14.806"><ele>644.0</ele><time>2026-04-28T10:27:55.195Z</time></trkpt><trkpt lat="38.08665" lon="14.8059683"><ele>644.0</ele><time>2026-04-28T10:27:57.194Z</time></trkpt><trkpt lat="38.086725" lon="14.8059433"><ele>644.0</ele><time>2026-04-28T10:27:59.194Z</time></trkpt><trkpt lat="38.08683" lon="14.80592"><ele>641.8000000000001</ele><time>2026-04-28T10:30:54.194Z</time></trkpt><trkpt lat="38.08689" lon="14.8058833"><ele>639.6</ele><time>2026-04-28T10:30:56.194Z</time></trkpt><trkpt lat="38.08699" lon="14.8058183"><ele>637.4</ele><time>2026-04-28T10:30:58.194Z</time></trkpt><trkpt lat="38.08707" lon="14.8057917"><ele>635.2</ele><time>2026-04-28T10:30:59.194Z</time></trkpt><trkpt lat="38.08716" lon="14.8057533"><ele>633.0</ele><time>2026-04-28T10:31:00.195Z</time></trkpt><trkpt lat="38.087255" lon="14.805715"><ele>633.0</ele><time>2026-04-28T10:31:01.194Z</time></trkpt><trkpt lat="38.0873467" lon="14.8056517"><ele>633.0</ele><time>2026-04-28T10:31:02.194Z</time></trkpt><trkpt lat="38.0874233" lon="14.805575"><ele>633.0</ele><time>2026-04-28T10:31:03.195Z</time></trkpt><trkpt lat="38.08749" lon="14.8055033"><ele>633.0</ele><time>2026-04-28T10:31:04.194Z</time></trkpt><trkpt lat="38.08756" lon="14.8054333"><ele>633.0</ele><time>2026-04-28T10:31:05.195Z</time></trkpt><trkpt lat="38.0876333" lon="14.8053767"><ele>633.0</ele><time>2026-04-28T10:31:06.194Z</time></trkpt><trkpt lat="38.0877217" lon="14.8053433"><ele>633.0</ele><time>2026-04-28T10:31:07.195Z</time></trkpt><trkpt lat="38.0878217" lon="14.8053233"><ele>633.0</ele><time>2026-04-28T10:31:08.195Z</time></trkpt><trkpt lat="38.087935" lon="14.8053267"><ele>633.0</ele><time>2026-04-28T10:31:09.194Z</time></trkpt><trkpt lat="38.088045" lon="14.8053283"><ele>633.0</ele><time>2026-04-28T10:31:10.194Z</time></trkpt><trkpt lat="38.0881533" lon="14.80534"><ele>631.5</ele><time>2026-04-28T10:31:11.194Z</time></trkpt><trkpt lat="38.088265" lon="14.8053583"><ele>630.0</ele><time>2026-04-28T10:31:12.194Z</time></trkpt><trkpt lat="38.0883833" lon="14.80538"><ele>628.5</ele><time>2026-04-28T10:31:13.194Z</time></trkpt><trkpt lat="38.0885" lon="14.80542"><ele>627.0</ele><time>2026-04-28T10:31:14.194Z</time></trkpt><trkpt lat="38.0886117" lon="14.8054633"><ele>627.0</ele><time>2026-04-28T10:31:15.194Z</time></trkpt><trkpt lat="38.0887117" lon="14.8055017"><ele>627.0</ele><time>2026-04-28T10:31:16.195Z</time></trkpt><trkpt lat="38.0888117" lon="14.80556"><ele>627.0</ele><time>2026-04-28T10:31:17.194Z</time></trkpt><trkpt lat="38.08892" lon="14.805615"><ele>627.0</ele><time>2026-04-28T10:31:18.194Z</time></trkpt><trkpt lat="38.0890267" lon="14.8056767"><ele>627.0</ele><time>2026-04-28T10:31:19.194Z</time></trkpt><trkpt lat="38.0891367" lon="14.805725"><ele>626.2</ele><time>2026-04-28T10:31:20.194Z</time></trkpt><trkpt lat="38.0892467" lon="14.8057633"><ele>625.4000000000001</ele><time>2026-04-28T10:31:21.194Z</time></trkpt><trkpt lat="38.08935" lon="14.8058217"><ele>624.5999999999999</ele><time>2026-04-28T10:31:22.194Z</time></trkpt><trkpt lat="38.0894483" lon="14.8058817"><ele>623.8</ele><time>2026-04-28T10:31:23.195Z</time></trkpt><trkpt lat="38.0895467" lon="14.8059517"><ele>623.0</ele><time>2026-04-28T10:31:24.194Z</time></trkpt><trkpt lat="38.0896283" lon="14.8060383"><ele>623.0</ele><time>2026-04-28T10:31:25.195Z</time></trkpt><trkpt lat="38.0896867" lon="14.8061367"><ele>623.0</ele><time>2026-04-28T10:31:26.194Z</time></trkpt><trkpt lat="38.0897317" lon="14.80625"><ele>623.0</ele><time>2026-04-28T10:31:27.194Z</time></trkpt><trkpt lat="38.08976" lon="14.8063667"><ele>623.0</ele><time>2026-04-28T10:31:28.194Z</time></trkpt><trkpt lat="38.08978" lon="14.8064883"><ele>623.0</ele><time>2026-04-28T10:31:29.195Z</time></trkpt><trkpt lat="38.089805" lon="14.8066083"><ele>623.0</ele><time>2026-04-28T10:31:30.194Z</time></trkpt><trkpt lat="38.0898367" lon="14.8067233"><ele>623.0</ele><time>2026-04-28T10:31:31.194Z</time></trkpt><trkpt lat="38.0898817" lon="14.8068233"><ele>623.0</ele><time>2026-04-28T10:31:32.195Z</time></trkpt><trkpt lat="38.0899467" lon="14.806905"><ele>623.0</ele><time>2026-04-28T10:31:33.195Z</time></trkpt><trkpt lat="38.0900333" lon="14.806955"><ele>623.0</ele><time>2026-04-28T10:31:34.194Z</time></trkpt><trkpt lat="38.09013" lon="14.8069533"><ele>620.1999999999999</ele><time>2026-04-28T10:31:35.194Z</time></trkpt><trkpt lat="38.090225" lon="14.806925"><ele>617.4</ele><time>2026-04-28T10:31:36.194Z</time></trkpt><trkpt lat="38.090325" lon="14.8068783"><ele>614.5999999999999</ele><time>2026-04-28T10:31:37.194Z</time></trkpt><trkpt lat="38.090435" lon="14.80683"><ele>611.8</ele><time>2026-04-28T10:31:38.194Z</time></trkpt><trkpt lat="38.09055" lon="14.806785"><ele>609.0</ele><time>2026-04-28T10:31:39.195Z</time></trkpt><trkpt lat="38.0906633" lon="14.8067367"><ele>607.5</ele><time>2026-04-28T10:31:40.194Z</time></trkpt><trkpt lat="38.09078" lon="14.8066883"><ele>606.0</ele><time>2026-04-28T10:31:41.194Z</time></trkpt><trkpt lat="38.090895" lon="14.8066417"><ele>604.5</ele><time>2026-04-28T10:31:42.194Z</time></trkpt><trkpt lat="38.09101" lon="14.8065917"><ele>603.0</ele><time>2026-04-28T10:31:43.194Z</time></trkpt><trkpt lat="38.09112" lon="14.8065467"><ele>603.0</ele><time>2026-04-28T10:31:44.195Z</time></trkpt><trkpt lat="38.0912317" lon="14.8065"><ele>603.0</ele><time>2026-04-28T10:31:45.194Z</time></trkpt><trkpt lat="38.09134" lon="14.80646"><ele>603.0</ele><time>2026-04-28T10:31:46.194Z</time></trkpt><trkpt lat="38.0914483" lon="14.806415"><ele>603.0</ele><time>2026-04-28T10:31:47.194Z</time></trkpt><trkpt lat="38.0915583" lon="14.8063733"><ele>600.5</ele><time>2026-04-28T10:31:48.194Z</time></trkpt><trkpt lat="38.0916717" lon="14.8063333"><ele>598.0</ele><time>2026-04-28T10:31:49.194Z</time></trkpt><trkpt lat="38.0917817" lon="14.8062883"><ele>595.5</ele><time>2026-04-28T10:31:50.194Z</time></trkpt><trkpt lat="38.0918867" lon="14.8062417"><ele>593.0</ele><time>2026-04-28T10:31:51.194Z</time></trkpt><trkpt lat="38.0919867" lon="14.8061967"><ele>593.0</ele><time>2026-04-28T10:31:52.194Z</time></trkpt><trkpt lat="38.092065" lon="14.806125"><ele>593.0</ele><time>2026-04-28T10:31:53.194Z</time></trkpt><trkpt lat="38.09211" lon="14.8060267"><ele>593.0</ele><time>2026-04-28T10:31:54.194Z</time></trkpt><trkpt lat="38.0921117" lon="14.8059067"><ele>593.0</ele><time>2026-04-28T10:31:55.194Z</time></trkpt><trkpt lat="38.092065" lon="14.8058083"><ele>593.0</ele><time>2026-04-28T10:31:56.195Z</time></trkpt><trkpt lat="38.091985" lon="14.80574"><ele>593.5</ele><time>2026-04-28T10:31:57.194Z</time></trkpt><trkpt lat="38.0918867" lon="14.8057083"><ele>594.0</ele><time>2026-04-28T10:31:58.194Z</time></trkpt><trkpt lat="38.091775" lon="14.8056917"><ele>594.5</ele><time>2026-04-28T10:31:59.194Z</time></trkpt><trkpt lat="38.09165" lon="14.8056717"><ele>595.0</ele><time>2026-04-28T10:32:00.194Z</time></trkpt><trkpt lat="38.0915183" lon="14.8056433"><ele>595.0</ele><time>2026-04-28T10:32:01.194Z</time></trkpt><trkpt lat="38.0913867" lon="14.805625"><ele>595.0</ele><time>2026-04-28T10:32:02.194Z</time></trkpt><trkpt lat="38.09126" lon="14.8056117"><ele>595.0</ele><time>2026-04-28T10:32:03.194Z</time></trkpt><trkpt lat="38.0911267" lon="14.8056183"><ele>595.0</ele><time>2026-04-28T10:32:04.194Z</time></trkpt><trkpt lat="38.0909967" lon="14.80564"><ele>595.0</ele><time>2026-04-28T10:32:05.194Z</time></trkpt><trkpt lat="38.09088" lon="14.805665"><ele>595.0</ele><time>2026-04-28T10:32:06.195Z</time></trkpt><trkpt lat="38.0907667" lon="14.8056883"><ele>595.0</ele><time>2026-04-28T10:32:07.194Z</time></trkpt><trkpt lat="38.0906583" lon="14.8057017"><ele>595.0</ele><time>2026-04-28T10:32:08.194Z</time></trkpt><trkpt lat="38.0905683" lon="14.805685"><ele>595.0</ele><time>2026-04-28T10:32:09.194Z</time></trkpt><trkpt lat="38.0904917" lon="14.8056317"><ele>594.6</ele><time>2026-04-28T10:32:10.194Z</time></trkpt><trkpt lat="38.0904483" lon="14.8055317"><ele>594.2</ele><time>2026-04-28T10:32:11.194Z</time></trkpt><trkpt lat="38.090435" lon="14.80542"><ele>593.8</ele><time>2026-04-28T10:32:12.195Z</time></trkpt><trkpt lat="38.0904583" lon="14.80531"><ele>593.4</ele><time>2026-04-28T10:32:13.194Z</time></trkpt><trkpt lat="38.0905183" lon="14.8052233"><ele>593.0</ele><time>2026-04-28T10:32:14.194Z</time></trkpt><trkpt lat="38.09062" lon="14.80516"><ele>593.0</ele><time>2026-04-28T10:32:15.194Z</time></trkpt><trkpt lat="38.090745" lon="14.8051083"><ele>593.0</ele><time>2026-04-28T10:32:16.194Z</time></trkpt><trkpt lat="38.090895" lon="14.8050583"><ele>593.0</ele><time>2026-04-28T10:32:17.194Z</time></trkpt><trkpt lat="38.0910317" lon="14.8049817"><ele>593.0</ele><time>2026-04-28T10:32:18.194Z</time></trkpt><trkpt lat="38.0911633" lon="14.8049017"><ele>591.5</ele><time>2026-04-28T10:32:19.195Z</time></trkpt><trkpt lat="38.0912917" lon="14.80481"><ele>590.0</ele><time>2026-04-28T10:32:20.194Z</time></trkpt><trkpt lat="38.091415" lon="14.8047117"><ele>588.5</ele><time>2026-04-28T10:32:21.194Z</time></trkpt><trkpt lat="38.0915317" lon="14.804615"><ele>587.0</ele><time>2026-04-28T10:32:22.194Z</time></trkpt><trkpt lat="38.0916417" lon="14.8045067"><ele>587.0</ele><time>2026-04-28T10:32:23.194Z</time></trkpt><trkpt lat="38.091745" lon="14.8044"><ele>587.0</ele><time>2026-04-28T10:32:24.194Z</time></trkpt><trkpt lat="38.0918483" lon="14.8043017"><ele>587.0</ele><time>2026-04-28T10:32:25.194Z</time></trkpt><trkpt lat="38.0919567" lon="14.804215"><ele>587.0</ele><time>2026-04-28T10:32:26.194Z</time></trkpt><trkpt lat="38.0920683" lon="14.8041183"><ele>584.25</ele><time>2026-04-28T10:32:27.194Z</time></trkpt><trkpt lat="38.0921783" lon="14.8040233"><ele>581.5</ele><time>2026-04-28T10:32:28.194Z</time></trkpt><trkpt lat="38.0922933" lon="14.80393"><ele>578.75</ele><time>2026-04-28T10:32:29.194Z</time></trkpt><trkpt lat="38.092405" lon="14.803845"><ele>576.0</ele><time>2026-04-28T10:32:30.194Z</time></trkpt><trkpt lat="38.092505" lon="14.8037467"><ele>576.0</ele><time>2026-04-28T10:32:31.194Z</time></trkpt><trkpt lat="38.0926033" lon="14.8036467"><ele>576.0</ele><time>2026-04-28T10:32:32.194Z</time></trkpt><trkpt lat="38.0926833" lon="14.8035217"><ele>576.0</ele><time>2026-04-28T10:32:33.194Z</time></trkpt><trkpt lat="38.092755" lon="14.8033883"><ele>576.0</ele><time>2026-04-28T10:32:34.194Z</time></trkpt><trkpt lat="38.0928167" lon="14.8032583"><ele>574.5</ele><time>2026-04-28T10:32:35.194Z</time></trkpt><trkpt lat="38.0928717" lon="14.8031333"><ele>573.0</ele><time>2026-04-28T10:32:36.194Z</time></trkpt><trkpt lat="38.09293" lon="14.8030183"><ele>571.5</ele><time>2026-04-28T10:32:37.194Z</time></trkpt><trkpt lat="38.0929917" lon="14.80289"><ele>570.0</ele><time>2026-04-28T10:32:38.194Z</time></trkpt><trkpt lat="38.0930517" lon="14.8027633"><ele>568.5</ele><time>2026-04-28T10:32:39.194Z</time></trkpt><trkpt lat="38.0931183" lon="14.802625"><ele>567.0</ele><time>2026-04-28T10:32:40.193Z</time></trkpt><trkpt lat="38.0931783" lon="14.802485"><ele>565.5</ele><time>2026-04-28T10:32:41.194Z</time></trkpt><trkpt lat="38.0932433" lon="14.8023467"><ele>564.0</ele><time>2026-04-28T10:32:42.194Z</time></trkpt><trkpt lat="38.0932917" lon="14.8021917"><ele>564.0</ele><time>2026-04-28T10:32:43.193Z</time></trkpt><trkpt lat="38.09332" lon="14.80203"><ele>564.0</ele><time>2026-04-28T10:32:44.193Z</time></trkpt><trkpt lat="38.0933383" lon="14.801845"><ele>564.0</ele><time>2026-04-28T10:32:45.193Z</time></trkpt><trkpt lat="38.093345" lon="14.80166"><ele>564.0</ele><time>2026-04-28T10:32:46.193Z</time></trkpt><trkpt lat="38.093345" lon="14.8014967"><ele>563.75</ele><time>2026-04-28T10:32:47.193Z</time></trkpt><trkpt lat="38.0933533" lon="14.8013367"><ele>563.5</ele><time>2026-04-28T10:32:48.193Z</time></trkpt><trkpt lat="38.0933617" lon="14.80118"><ele>563.25</ele><time>2026-04-28T10:32:49.194Z</time></trkpt><trkpt lat="38.093375" lon="14.80104"><ele>563.0</ele><time>2026-04-28T10:32:50.193Z</time></trkpt><trkpt lat="38.0934133" lon="14.8009017"><ele>563.0</ele><time>2026-04-28T10:32:51.194Z</time></trkpt><trkpt lat="38.0934867" lon="14.8007667"><ele>563.0</ele><time>2026-04-28T10:32:52.193Z</time></trkpt><trkpt lat="38.0935767" lon="14.8006367"><ele>563.0</ele><time>2026-04-28T10:32:53.193Z</time></trkpt><trkpt lat="38.0936733" lon="14.8005067"><ele>563.0</ele><time>2026-04-28T10:32:54.194Z</time></trkpt><trkpt lat="38.0937667" lon="14.800375"><ele>563.0</ele><time>2026-04-28T10:32:55.193Z</time></trkpt><trkpt lat="38.0938567" lon="14.800255"><ele>563.0</ele><time>2026-04-28T10:32:56.194Z</time></trkpt><trkpt lat="38.0939367" lon="14.8001267"><ele>563.0</ele><time>2026-04-28T10:32:57.193Z</time></trkpt><trkpt lat="38.0940167" lon="14.7999933"><ele>563.0</ele><time>2026-04-28T10:32:58.194Z</time></trkpt><trkpt lat="38.0940717" lon="14.7998483"><ele>562.0</ele><time>2026-04-28T10:32:59.193Z</time></trkpt><trkpt lat="38.0941" lon="14.79968"><ele>561.0</ele><time>2026-04-28T10:33:00.193Z</time></trkpt><trkpt lat="38.0941117" lon="14.799495"><ele>560.0</ele><time>2026-04-28T10:33:01.193Z</time></trkpt><trkpt lat="38.094135" lon="14.7993033"><ele>559.0</ele><time>2026-04-28T10:33:02.193Z</time></trkpt><trkpt lat="38.0941767" lon="14.7991117"><ele>557.0</ele><time>2026-04-28T10:33:03.193Z</time></trkpt><trkpt lat="38.0942217" lon="14.7989317"><ele>555.0</ele><time>2026-04-28T10:33:04.193Z</time></trkpt><trkpt lat="38.0942733" lon="14.7987483"><ele>553.0</ele><time>2026-04-28T10:33:05.193Z</time></trkpt><trkpt lat="38.0943167" lon="14.7985767"><ele>551.0</ele><time>2026-04-28T10:33:06.193Z</time></trkpt><trkpt lat="38.094355" lon="14.7984217"><ele>550.2</ele><time>2026-04-28T10:33:07.193Z</time></trkpt><trkpt lat="38.0943933" lon="14.7982833"><ele>549.4000000000001</ele><time>2026-04-28T10:33:08.193Z</time></trkpt><trkpt lat="38.0944117" lon="14.798165"><ele>548.6</ele><time>2026-04-28T10:33:09.193Z</time></trkpt><trkpt lat="38.0943867" lon="14.7980617"><ele>547.8000000000001</ele><time>2026-04-28T10:33:10.193Z</time></trkpt><trkpt lat="38.09433" lon="14.7979917"><ele>547.0</ele><time>2026-04-28T10:33:11.193Z</time></trkpt><trkpt lat="38.09425" lon="14.7979717"><ele>547.0</ele><time>2026-04-28T10:33:12.193Z</time></trkpt><trkpt lat="38.0941633" lon="14.79803"><ele>547.0</ele><time>2026-04-28T10:33:13.193Z</time></trkpt><trkpt lat="38.09408" lon="14.7981333"><ele>547.0</ele><time>2026-04-28T10:33:14.193Z</time></trkpt><trkpt lat="38.0939967" lon="14.79825"><ele>547.0</ele><time>2026-04-28T10:33:15.193Z</time></trkpt><trkpt lat="38.0939083" lon="14.7983667"><ele>546.0</ele><time>2026-04-28T10:33:16.193Z</time></trkpt><trkpt lat="38.093825" lon="14.7984783"><ele>545.0</ele><time>2026-04-28T10:33:17.193Z</time></trkpt><trkpt lat="38.0937483" lon="14.79858"><ele>544.0</ele><time>2026-04-28T10:33:18.193Z</time></trkpt><trkpt lat="38.0936733" lon="14.79868"><ele>543.0</ele><time>2026-04-28T10:33:19.193Z</time></trkpt><trkpt lat="38.0936033" lon="14.7987683"><ele>542.0</ele><time>2026-04-28T10:33:20.193Z</time></trkpt><trkpt lat="38.09354" lon="14.79883"><ele>542.0</ele><time>2026-04-28T10:33:21.193Z</time></trkpt><trkpt lat="38.093465" lon="14.7988467"><ele>542.0</ele><time>2026-04-28T10:33:22.194Z</time></trkpt><trkpt lat="38.0934033" lon="14.7988217"><ele>542.0</ele><time>2026-04-28T10:33:23.193Z</time></trkpt><trkpt lat="38.0934083" lon="14.79864"><ele>542.0</ele><time>2026-04-28T10:33:25.193Z</time></trkpt><trkpt lat="38.093465" lon="14.798505"><ele>542.0</ele><time>2026-04-28T10:33:26.193Z</time></trkpt><trkpt lat="38.0935433" lon="14.7983433"><ele>539.6666666666666</ele><time>2026-04-28T10:33:27.193Z</time></trkpt><trkpt lat="38.09362" lon="14.7981717"><ele>537.3333333333334</ele><time>2026-04-28T10:33:28.193Z</time></trkpt><trkpt lat="38.093685" lon="14.7980017"><ele>535.0</ele><time>2026-04-28T10:33:29.193Z</time></trkpt><trkpt lat="38.0937517" lon="14.7978333"><ele>535.0</ele><time>2026-04-28T10:33:30.193Z</time></trkpt><trkpt lat="38.09381" lon="14.797675"><ele>535.0</ele><time>2026-04-28T10:33:31.193Z</time></trkpt><trkpt lat="38.0938633" lon="14.79752"><ele>535.0</ele><time>2026-04-28T10:33:32.193Z</time></trkpt><trkpt lat="38.0939233" lon="14.79738"><ele>535.0</ele><time>2026-04-28T10:33:33.194Z</time></trkpt><trkpt lat="38.0939883" lon="14.7972333"><ele>534.25</ele><time>2026-04-28T10:33:34.193Z</time></trkpt><trkpt lat="38.094065" lon="14.79709"><ele>533.5</ele><time>2026-04-28T10:33:35.193Z</time></trkpt><trkpt lat="38.0941233" lon="14.796945"><ele>532.75</ele><time>2026-04-28T10:33:36.194Z</time></trkpt><trkpt lat="38.0941383" lon="14.7967783"><ele>532.0</ele><time>2026-04-28T10:33:37.193Z</time></trkpt><trkpt lat="38.0941417" lon="14.79661"><ele>532.0</ele><time>2026-04-28T10:33:38.193Z</time></trkpt><trkpt lat="38.09413" lon="14.7964483"><ele>532.0</ele><time>2026-04-28T10:33:39.193Z</time></trkpt><trkpt lat="38.0941167" lon="14.7963"><ele>532.0</ele><time>2026-04-28T10:33:40.193Z</time></trkpt><trkpt lat="38.0941083" lon="14.7961633"><ele>532.0</ele><time>2026-04-28T10:33:41.193Z</time></trkpt><trkpt lat="38.0941183" lon="14.7960417"><ele>532.0</ele><time>2026-04-28T10:33:42.193Z</time></trkpt><trkpt lat="38.09417" lon="14.79594"><ele>532.0</ele><time>2026-04-28T10:33:43.194Z</time></trkpt><trkpt lat="38.0942517" lon="14.79588"><ele>532.0</ele><time>2026-04-28T10:33:44.193Z</time></trkpt><trkpt lat="38.0943533" lon="14.79586"><ele>532.0</ele><time>2026-04-28T10:33:45.193Z</time></trkpt><trkpt lat="38.0944683" lon="14.7958717"><ele>532.0</ele><time>2026-04-28T10:33:46.193Z</time></trkpt><trkpt lat="38.09457" lon="14.7959317"><ele>532.0</ele><time>2026-04-28T10:33:47.193Z</time></trkpt><trkpt lat="38.0946833" lon="14.7960267"><ele>532.0</ele><time>2026-04-28T10:33:48.193Z</time></trkpt><trkpt lat="38.0948083" lon="14.79607"><ele>532.0</ele><time>2026-04-28T10:33:49.193Z</time></trkpt><trkpt lat="38.09494" lon="14.7960633"><ele>532.0</ele><time>2026-04-28T10:33:50.193Z</time></trkpt><trkpt lat="38.0950733" lon="14.7960133"><ele>532.0</ele><time>2026-04-28T10:33:51.193Z</time></trkpt><trkpt lat="38.095195" lon="14.795925"><ele>528.5</ele><time>2026-04-28T10:33:52.193Z</time></trkpt><trkpt lat="38.095305" lon="14.7958017"><ele>525.0</ele><time>2026-04-28T10:33:53.193Z</time></trkpt><trkpt lat="38.095405" lon="14.7956683"><ele>521.5</ele><time>2026-04-28T10:33:54.193Z</time></trkpt><trkpt lat="38.0954883" lon="14.79553"><ele>518.0</ele><time>2026-04-28T10:33:55.193Z</time></trkpt><trkpt lat="38.09555" lon="14.79538"><ele>518.0</ele><time>2026-04-28T10:33:56.193Z</time></trkpt><trkpt lat="38.0955867" lon="14.7952083"><ele>518.0</ele><time>2026-04-28T10:33:57.194Z</time></trkpt><trkpt lat="38.0956" lon="14.7950217"><ele>518.0</ele><time>2026-04-28T10:33:58.194Z</time></trkpt><trkpt lat="38.0955917" lon="14.7948333"><ele>518.0</ele><time>2026-04-28T10:33:59.193Z</time></trkpt><trkpt lat="38.09557" lon="14.7946433"><ele>516.3333333333333</ele><time>2026-04-28T10:34:00.193Z</time></trkpt><trkpt lat="38.0955517" lon="14.79445"><ele>514.6666666666666</ele><time>2026-04-28T10:34:01.193Z</time></trkpt><trkpt lat="38.09555" lon="14.79425"><ele>513.0</ele><time>2026-04-28T10:34:02.194Z</time></trkpt><trkpt lat="38.0955567" lon="14.7940533"><ele>511.0</ele><time>2026-04-28T10:34:03.194Z</time></trkpt><trkpt lat="38.0955783" lon="14.7938567"><ele>509.0</ele><time>2026-04-28T10:34:04.193Z</time></trkpt><trkpt lat="38.0956067" lon="14.7936683"><ele>507.0</ele><time>2026-04-28T10:34:05.193Z</time></trkpt><trkpt lat="38.09564" lon="14.7934867"><ele>507.0</ele><time>2026-04-28T10:34:06.193Z</time></trkpt><trkpt lat="38.0956783" lon="14.7933117"><ele>507.0</ele><time>2026-04-28T10:34:07.194Z</time></trkpt><trkpt lat="38.09572" lon="14.7931483"><ele>507.0</ele><time>2026-04-28T10:34:08.193Z</time></trkpt><trkpt lat="38.0957683" lon="14.7929883"><ele>507.0</ele><time>2026-04-28T10:34:09.193Z</time></trkpt><trkpt lat="38.095845" lon="14.792835"><ele>510.0</ele><time>2026-04-28T10:34:10.193Z</time></trkpt><trkpt lat="38.095925" lon="14.7926883"><ele>513.0</ele><time>2026-04-28T10:34:11.193Z</time></trkpt><trkpt lat="38.0960017" lon="14.7925417"><ele>516.0</ele><time>2026-04-28T10:34:12.193Z</time></trkpt><trkpt lat="38.09608" lon="14.7924017"><ele>519.0</ele><time>2026-04-28T10:34:13.194Z</time></trkpt><trkpt lat="38.0961583" lon="14.792265"><ele>519.0</ele><time>2026-04-28T10:34:14.194Z</time></trkpt><trkpt lat="38.0962483" lon="14.79214"><ele>519.0</ele><time>2026-04-28T10:34:15.193Z</time></trkpt><trkpt lat="38.0963567" lon="14.7920367"><ele>519.0</ele><time>2026-04-28T10:34:16.193Z</time></trkpt><trkpt lat="38.096465" lon="14.7919317"><ele>519.0</ele><time>2026-04-28T10:34:17.193Z</time></trkpt><trkpt lat="38.0965733" lon="14.7918267"><ele>518.75</ele><time>2026-04-28T10:34:18.193Z</time></trkpt><trkpt lat="38.0966683" lon="14.791705"><ele>518.5</ele><time>2026-04-28T10:34:19.193Z</time></trkpt><trkpt lat="38.096735" lon="14.791555"><ele>518.25</ele><time>2026-04-28T10:34:20.193Z</time></trkpt><trkpt lat="38.096785" lon="14.79139"><ele>518.0</ele><time>2026-04-28T10:34:21.193Z</time></trkpt><trkpt lat="38.09682" lon="14.79121"><ele>518.0</ele><time>2026-04-28T10:34:22.193Z</time></trkpt><trkpt lat="38.096865" lon="14.79103"><ele>518.0</ele><time>2026-04-28T10:34:23.193Z</time></trkpt><trkpt lat="38.0969133" lon="14.79084"><ele>518.0</ele><time>2026-04-28T10:34:24.193Z</time></trkpt><trkpt lat="38.0969617" lon="14.79064"><ele>514.3333333333333</ele><time>2026-04-28T10:34:25.193Z</time></trkpt><trkpt lat="38.0970167" lon="14.790435"><ele>510.66666666666663</ele><time>2026-04-28T10:34:26.193Z</time></trkpt><trkpt lat="38.0970717" lon="14.790235"><ele>507.0</ele><time>2026-04-28T10:34:27.193Z</time></trkpt><trkpt lat="38.0971283" lon="14.7900383"><ele>504.75</ele><time>2026-04-28T10:34:28.193Z</time></trkpt><trkpt lat="38.0971717" lon="14.789855"><ele>502.5</ele><time>2026-04-28T10:34:29.193Z</time></trkpt><trkpt lat="38.0972017" lon="14.7896817"><ele>500.25</ele><time>2026-04-28T10:34:30.193Z</time></trkpt><trkpt lat="38.0972433" lon="14.78953"><ele>498.0</ele><time>2026-04-28T10:34:31.194Z</time></trkpt><trkpt lat="38.097295" lon="14.789405"><ele>499.59999999999997</ele><time>2026-04-28T10:34:32.193Z</time></trkpt><trkpt lat="38.0973583" lon="14.789305"><ele>501.19999999999993</ele><time>2026-04-28T10:34:33.193Z</time></trkpt><trkpt lat="38.09744" lon="14.7892383"><ele>502.8</ele><time>2026-04-28T10:34:34.193Z</time></trkpt><trkpt lat="38.097545" lon="14.789195"><ele>504.4</ele><time>2026-04-28T10:34:35.194Z</time></trkpt><trkpt lat="38.0976583" lon="14.7892083"><ele>506.0</ele><time>2026-04-28T10:34:36.193Z</time></trkpt><trkpt lat="38.09779" lon="14.7892467"><ele>506.0</ele><time>2026-04-28T10:34:37.193Z</time></trkpt><trkpt lat="38.0979233" lon="14.7892717"><ele>506.0</ele><time>2026-04-28T10:34:38.193Z</time></trkpt><trkpt lat="38.0980717" lon="14.7893083"><ele>506.0</ele><time>2026-04-28T10:34:39.193Z</time></trkpt><trkpt lat="38.0981917" lon="14.78928"><ele>506.0</ele><time>2026-04-28T10:34:40.194Z</time></trkpt><trkpt lat="38.0982933" lon="14.7891983"><ele>508.0</ele><time>2026-04-28T10:34:41.193Z</time></trkpt><trkpt lat="38.0983833" lon="14.7890667"><ele>510.0</ele><time>2026-04-28T10:34:42.194Z</time></trkpt><trkpt lat="38.09848" lon="14.788925"><ele>512.0</ele><time>2026-04-28T10:34:43.193Z</time></trkpt><trkpt lat="38.0985667" lon="14.7887733"><ele>514.0</ele><time>2026-04-28T10:34:44.194Z</time></trkpt><trkpt lat="38.0986467" lon="14.7886217"><ele>510.25</ele><time>2026-04-28T10:34:45.193Z</time></trkpt><trkpt lat="38.098715" lon="14.7884817"><ele>506.5</ele><time>2026-04-28T10:34:46.193Z</time></trkpt><trkpt lat="38.0987583" lon="14.7883217"><ele>502.75</ele><time>2026-04-28T10:34:47.193Z</time></trkpt><trkpt lat="38.098785" lon="14.7881517"><ele>499.0</ele><time>2026-04-28T10:34:48.193Z</time></trkpt><trkpt lat="38.098795" lon="14.78797"><ele>499.0</ele><time>2026-04-28T10:34:49.193Z</time></trkpt><trkpt lat="38.0987933" lon="14.7877983"><ele>499.0</ele><time>2026-04-28T10:34:50.193Z</time></trkpt><trkpt lat="38.0988033" lon="14.78764"><ele>499.0</ele><time>2026-04-28T10:34:51.193Z</time></trkpt><trkpt lat="38.09883" lon="14.7875033"><ele>499.0</ele><time>2026-04-28T10:34:52.193Z</time></trkpt><trkpt lat="38.0988917" lon="14.7873767"><ele>495.5</ele><time>2026-04-28T10:34:53.194Z</time></trkpt><trkpt lat="38.0989817" lon="14.7872783"><ele>492.0</ele><time>2026-04-28T10:34:54.193Z</time></trkpt><trkpt lat="38.099085" lon="14.78719"><ele>488.5</ele><time>2026-04-28T10:34:55.193Z</time></trkpt><trkpt lat="38.099195" lon="14.7871167"><ele>485.0</ele><time>2026-04-28T10:34:56.193Z</time></trkpt><trkpt lat="38.0993117" lon="14.7870517"><ele>487.25</ele><time>2026-04-28T10:34:57.193Z</time></trkpt><trkpt lat="38.099415" lon="14.786995"><ele>489.5</ele><time>2026-04-28T10:34:58.193Z</time></trkpt><trkpt lat="38.0995217" lon="14.7869317"><ele>491.75</ele><time>2026-04-28T10:34:59.193Z</time></trkpt><trkpt lat="38.09961" lon="14.7868383"><ele>494.0</ele><time>2026-04-28T10:35:00.194Z</time></trkpt><trkpt lat="38.0996867" lon="14.7867433"><ele>494.0</ele><time>2026-04-28T10:35:01.194Z</time></trkpt><trkpt lat="38.0997567" lon="14.7866583"><ele>494.0</ele><time>2026-04-28T10:35:02.194Z</time></trkpt><trkpt lat="38.099835" lon="14.7865867"><ele>494.0</ele><time>2026-04-28T10:35:03.193Z</time></trkpt><trkpt lat="38.09992" lon="14.78655"><ele>494.0</ele><time>2026-04-28T10:35:04.193Z</time></trkpt><trkpt lat="38.1000117" lon="14.78655"><ele>494.0</ele><time>2026-04-28T10:35:05.193Z</time></trkpt><trkpt lat="38.1001183" lon="14.78655"><ele>498.25</ele><time>2026-04-28T10:35:06.193Z</time></trkpt><trkpt lat="38.100235" lon="14.7865483"><ele>502.5</ele><time>2026-04-28T10:35:07.193Z</time></trkpt><trkpt lat="38.1003567" lon="14.78652"><ele>506.75</ele><time>2026-04-28T10:35:08.193Z</time></trkpt><trkpt lat="38.1004817" lon="14.7864667"><ele>511.0</ele><time>2026-04-28T10:35:09.193Z</time></trkpt><trkpt lat="38.100605" lon="14.7863983"><ele>511.0</ele><time>2026-04-28T10:35:10.193Z</time></trkpt><trkpt lat="38.1007267" lon="14.786325"><ele>511.0</ele><time>2026-04-28T10:35:11.193Z</time></trkpt><trkpt lat="38.1008517" lon="14.7862467"><ele>511.0</ele><time>2026-04-28T10:35:12.194Z</time></trkpt><trkpt lat="38.1009733" lon="14.7861733"><ele>511.0</ele><time>2026-04-28T10:35:13.194Z</time></trkpt><trkpt lat="38.10109" lon="14.7861033"><ele>512.75</ele><time>2026-04-28T10:35:14.193Z</time></trkpt><trkpt lat="38.1012033" lon="14.786035"><ele>514.5</ele><time>2026-04-28T10:35:15.193Z</time></trkpt><trkpt lat="38.1013183" lon="14.7859683"><ele>516.25</ele><time>2026-04-28T10:35:16.193Z</time></trkpt><trkpt lat="38.1014333" lon="14.7859117"><ele>518.0</ele><time>2026-04-28T10:35:17.193Z</time></trkpt><trkpt lat="38.1015533" lon="14.7858667"><ele>513.75</ele><time>2026-04-28T10:35:18.193Z</time></trkpt><trkpt lat="38.1016617" lon="14.7858483"><ele>509.5</ele><time>2026-04-28T10:35:19.193Z</time></trkpt><trkpt lat="38.101775" lon="14.7858267"><ele>505.25</ele><time>2026-04-28T10:35:20.193Z</time></trkpt><trkpt lat="38.10189" lon="14.7857717"><ele>501.0</ele><time>2026-04-28T10:35:21.194Z</time></trkpt><trkpt lat="38.1020133" lon="14.7856633"><ele>501.0</ele><time>2026-04-28T10:35:22.193Z</time></trkpt><trkpt lat="38.1021517" lon="14.7855317"><ele>501.0</ele><time>2026-04-28T10:35:23.193Z</time></trkpt><trkpt lat="38.1022967" lon="14.7854083"><ele>501.0</ele><time>2026-04-28T10:35:24.193Z</time></trkpt><trkpt lat="38.1024333" lon="14.7853017"><ele>503.5</ele><time>2026-04-28T10:35:25.193Z</time></trkpt><trkpt lat="38.102555" lon="14.785215"><ele>506.0</ele><time>2026-04-28T10:35:26.194Z</time></trkpt><trkpt lat="38.1026767" lon="14.7851667"><ele>508.5</ele><time>2026-04-28T10:35:27.193Z</time></trkpt><trkpt lat="38.102795" lon="14.7851483"><ele>511.0</ele><time>2026-04-28T10:35:28.193Z</time></trkpt><trkpt lat="38.102915" lon="14.7851483"><ele>511.0</ele><time>2026-04-28T10:35:29.193Z</time></trkpt><trkpt lat="38.10303" lon="14.7851917"><ele>511.0</ele><time>2026-04-28T10:35:30.194Z</time></trkpt><trkpt lat="38.1031567" lon="14.7852417"><ele>511.0</ele><time>2026-04-28T10:35:31.193Z</time></trkpt><trkpt lat="38.1032717" lon="14.7852983"><ele>511.0</ele><time>2026-04-28T10:35:32.193Z</time></trkpt><trkpt lat="38.10338" lon="14.7853683"><ele>510.0</ele><time>2026-04-28T10:35:33.193Z</time></trkpt><trkpt lat="38.103495" lon="14.7854383"><ele>509.0</ele><time>2026-04-28T10:35:34.194Z</time></trkpt><trkpt lat="38.1036083" lon="14.7855133"><ele>508.0</ele><time>2026-04-28T10:35:35.193Z</time></trkpt><trkpt lat="38.1037267" lon="14.785575"><ele>507.0</ele><time>2026-04-28T10:35:36.193Z</time></trkpt><trkpt lat="38.1038367" lon="14.785635"><ele>507.0</ele><time>2026-04-28T10:35:37.193Z</time></trkpt><trkpt lat="38.1039567" lon="14.7856867"><ele>507.0</ele><time>2026-04-28T10:35:38.193Z</time></trkpt><trkpt lat="38.104085" lon="14.7857333"><ele>507.0</ele><time>2026-04-28T10:35:39.194Z</time></trkpt><trkpt lat="38.10422" lon="14.78576"><ele>507.0</ele><time>2026-04-28T10:35:40.193Z</time></trkpt><trkpt lat="38.1043567" lon="14.78578"><ele>502.75</ele><time>2026-04-28T10:35:41.193Z</time></trkpt><trkpt lat="38.1044817" lon="14.7858017"><ele>498.5</ele><time>2026-04-28T10:35:42.193Z</time></trkpt><trkpt lat="38.1046133" lon="14.7858217"><ele>494.25</ele><time>2026-04-28T10:35:43.193Z</time></trkpt><trkpt lat="38.104735" lon="14.7858467"><ele>490.0</ele><time>2026-04-28T10:35:44.193Z</time></trkpt><trkpt lat="38.1048483" lon="14.7858717"><ele>489.25</ele><time>2026-04-28T10:35:45.193Z</time></trkpt><trkpt lat="38.104965" lon="14.7858917"><ele>488.5</ele><time>2026-04-28T10:35:46.193Z</time></trkpt><trkpt lat="38.105075" lon="14.7859217"><ele>487.75</ele><time>2026-04-28T10:35:47.194Z</time></trkpt><trkpt lat="38.1051867" lon="14.7859567"><ele>487.0</ele><time>2026-04-28T10:35:48.193Z</time></trkpt><trkpt lat="38.10529" lon="14.7860117"><ele>489.40000000000003</ele><time>2026-04-28T10:35:49.193Z</time></trkpt><trkpt lat="38.1053767" lon="14.7860867"><ele>491.80000000000007</ele><time>2026-04-28T10:35:50.193Z</time></trkpt><trkpt lat="38.1054483" lon="14.7861783"><ele>494.2</ele><time>2026-04-28T10:35:51.194Z</time></trkpt><trkpt lat="38.1054917" lon="14.7862767"><ele>496.6</ele><time>2026-04-28T10:35:52.193Z</time></trkpt><trkpt lat="38.1055117" lon="14.7863983"><ele>499.0</ele><time>2026-04-28T10:35:53.193Z</time></trkpt><trkpt lat="38.105515" lon="14.7865167"><ele>499.0</ele><time>2026-04-28T10:35:54.194Z</time></trkpt><trkpt lat="38.1055183" lon="14.7866267"><ele>499.0</ele><time>2026-04-28T10:35:55.193Z</time></trkpt><trkpt lat="38.1055233" lon="14.78674"><ele>499.0</ele><time>2026-04-28T10:35:56.193Z</time></trkpt><trkpt lat="38.10553" lon="14.7868617"><ele>499.0</ele><time>2026-04-28T10:35:57.193Z</time></trkpt><trkpt lat="38.1055467" lon="14.7869833"><ele>499.0</ele><time>2026-04-28T10:35:58.193Z</time></trkpt><trkpt lat="38.105575" lon="14.7870983"><ele>496.79999999999995</ele><time>2026-04-28T10:35:59.193Z</time></trkpt><trkpt lat="38.1056217" lon="14.7872183"><ele>494.59999999999997</ele><time>2026-04-28T10:36:00.194Z</time></trkpt><trkpt lat="38.1056783" lon="14.7873283"><ele>492.4</ele><time>2026-04-28T10:36:01.193Z</time></trkpt><trkpt lat="38.1057583" lon="14.7874133"><ele>490.2</ele><time>2026-04-28T10:36:02.193Z</time></trkpt><trkpt lat="38.105855" lon="14.7874817"><ele>488.0</ele><time>2026-04-28T10:36:03.194Z</time></trkpt><trkpt lat="38.10596" lon="14.7875367"><ele>486.5</ele><time>2026-04-28T10:36:04.193Z</time></trkpt><trkpt lat="38.1060717" lon="14.7875967"><ele>485.0</ele><time>2026-04-28T10:36:05.193Z</time></trkpt><trkpt lat="38.1061833" lon="14.787655"><ele>483.5</ele><time>2026-04-28T10:36:06.193Z</time></trkpt><trkpt lat="38.10629" lon="14.7877133"><ele>482.0</ele><time>2026-04-28T10:36:07.193Z</time></trkpt><trkpt lat="38.1063917" lon="14.7877817"><ele>481.75</ele><time>2026-04-28T10:36:08.193Z</time></trkpt><trkpt lat="38.10649" lon="14.787865"><ele>481.5</ele><time>2026-04-28T10:36:09.193Z</time></trkpt><trkpt lat="38.1065833" lon="14.787955"><ele>481.25</ele><time>2026-04-28T10:36:10.193Z</time></trkpt><trkpt lat="38.1066717" lon="14.78805"><ele>481.0</ele><time>2026-04-28T10:36:11.193Z</time></trkpt><trkpt lat="38.106755" lon="14.7881433"><ele>481.0</ele><time>2026-04-28T10:36:12.194Z</time></trkpt><trkpt lat="38.1068267" lon="14.7882433"><ele>481.0</ele><time>2026-04-28T10:36:13.193Z</time></trkpt><trkpt lat="38.10688" lon="14.7883567"><ele>481.0</ele><time>2026-04-28T10:36:14.193Z</time></trkpt><trkpt lat="38.106915" lon="14.7884767"><ele>481.0</ele><time>2026-04-28T10:36:15.193Z</time></trkpt><trkpt lat="38.1069367" lon="14.7886033"><ele>481.0</ele><time>2026-04-28T10:36:16.193Z</time></trkpt><trkpt lat="38.1069483" lon="14.78873"><ele>478.8</ele><time>2026-04-28T10:36:17.193Z</time></trkpt><trkpt lat="38.1069717" lon="14.7888633"><ele>476.6</ele><time>2026-04-28T10:36:18.193Z</time></trkpt><trkpt lat="38.1070183" lon="14.78898"><ele>474.4</ele><time>2026-04-28T10:36:19.193Z</time></trkpt><trkpt lat="38.107085" lon="14.7890883"><ele>472.2</ele><time>2026-04-28T10:36:20.193Z</time></trkpt><trkpt lat="38.1071583" lon="14.7891867"><ele>470.0</ele><time>2026-04-28T10:36:21.193Z</time></trkpt><trkpt lat="38.1072317" lon="14.7892733"><ele>470.0</ele><time>2026-04-28T10:36:22.193Z</time></trkpt><trkpt lat="38.1073067" lon="14.78936"><ele>470.0</ele><time>2026-04-28T10:36:23.193Z</time></trkpt><trkpt lat="38.1073867" lon="14.789445"><ele>470.0</ele><time>2026-04-28T10:36:24.193Z</time></trkpt><trkpt lat="38.1074867" lon="14.78951"><ele>470.0</ele><time>2026-04-28T10:36:25.193Z</time></trkpt><trkpt lat="38.107595" lon="14.7895467"><ele>470.0</ele><time>2026-04-28T10:36:26.194Z</time></trkpt><trkpt lat="38.1077033" lon="14.7895633"><ele>470.0</ele><time>2026-04-28T10:36:27.193Z</time></trkpt><trkpt lat="38.10781" lon="14.7895983"><ele>470.0</ele><time>2026-04-28T10:36:28.194Z</time></trkpt><trkpt lat="38.1079067" lon="14.7896483"><ele>470.0</ele><time>2026-04-28T10:36:29.193Z</time></trkpt><trkpt lat="38.107995" lon="14.7897267"><ele>470.0</ele><time>2026-04-28T10:36:30.193Z</time></trkpt><trkpt lat="38.108075" lon="14.7898233"><ele>470.0</ele><time>2026-04-28T10:36:31.194Z</time></trkpt><trkpt lat="38.108135" lon="14.7899367"><ele>470.0</ele><time>2026-04-28T10:36:32.194Z</time></trkpt><trkpt lat="38.1081917" lon="14.790045"><ele>470.0</ele><time>2026-04-28T10:36:33.194Z</time></trkpt><trkpt lat="38.108255" lon="14.790155"><ele>470.0</ele><time>2026-04-28T10:36:34.194Z</time></trkpt><trkpt lat="38.108345" lon="14.7902633"><ele>470.0</ele><time>2026-04-28T10:36:35.193Z</time></trkpt><trkpt lat="38.1084683" lon="14.7903683"><ele>471.66666666666663</ele><time>2026-04-28T10:36:36.194Z</time></trkpt><trkpt lat="38.1086083" lon="14.7904883"><ele>473.33333333333337</ele><time>2026-04-28T10:36:37.194Z</time></trkpt><trkpt lat="38.1087483" lon="14.7906267"><ele>475.0</ele><time>2026-04-28T10:36:38.193Z</time></trkpt><trkpt lat="38.1088767" lon="14.790785"><ele>475.0</ele><time>2026-04-28T10:36:39.193Z</time></trkpt><trkpt lat="38.1089783" lon="14.7909383"><ele>475.0</ele><time>2026-04-28T10:36:40.193Z</time></trkpt><trkpt lat="38.1090717" lon="14.79108"><ele>475.0</ele><time>2026-04-28T10:36:41.193Z</time></trkpt><trkpt lat="38.1091717" lon="14.7912067"><ele>475.0</ele><time>2026-04-28T10:36:42.194Z</time></trkpt><trkpt lat="38.10928" lon="14.7913033"><ele>474.5</ele><time>2026-04-28T10:36:43.193Z</time></trkpt><trkpt lat="38.10941" lon="14.7913717"><ele>474.0</ele><time>2026-04-28T10:36:44.193Z</time></trkpt><trkpt lat="38.1095483" lon="14.7913967"><ele>473.5</ele><time>2026-04-28T10:36:45.193Z</time></trkpt><trkpt lat="38.1096783" lon="14.7913683"><ele>473.0</ele><time>2026-04-28T10:36:46.193Z</time></trkpt><trkpt lat="38.1097883" lon="14.79129"><ele>473.0</ele><time>2026-04-28T10:36:47.193Z</time></trkpt><trkpt lat="38.1098783" lon="14.79117"><ele>473.0</ele><time>2026-04-28T10:36:48.193Z</time></trkpt><trkpt lat="38.1099483" lon="14.791025"><ele>473.0</ele><time>2026-04-28T10:36:49.193Z</time></trkpt><trkpt lat="38.11003" lon="14.7908883"><ele>473.0</ele><time>2026-04-28T10:36:50.193Z</time></trkpt><trkpt lat="38.11015" lon="14.79077"><ele>483.3333333333333</ele><time>2026-04-28T10:36:51.193Z</time></trkpt><trkpt lat="38.1102933" lon="14.790665"><ele>493.66666666666663</ele><time>2026-04-28T10:36:52.193Z</time></trkpt><trkpt lat="38.1104367" lon="14.7905733"><ele>504.0</ele><time>2026-04-28T10:36:53.193Z</time></trkpt><trkpt lat="38.110595" lon="14.790505"><ele>493.66666666666663</ele><time>2026-04-28T10:36:54.193Z</time></trkpt><trkpt lat="38.1107633" lon="14.7904633"><ele>483.3333333333333</ele><time>2026-04-28T10:36:55.194Z</time></trkpt><trkpt lat="38.1109317" lon="14.790445"><ele>473.0</ele><time>2026-04-28T10:36:56.194Z</time></trkpt><trkpt lat="38.1111033" lon="14.790415"><ele>473.0</ele><time>2026-04-28T10:36:57.194Z</time></trkpt><trkpt lat="38.11127" lon="14.79037"><ele>473.0</ele><time>2026-04-28T10:36:58.193Z</time></trkpt><trkpt lat="38.1114217" lon="14.7903"><ele>473.0</ele><time>2026-04-28T10:36:59.193Z</time></trkpt><trkpt lat="38.1115583" lon="14.790215"><ele>478.25</ele><time>2026-04-28T10:37:00.193Z</time></trkpt><trkpt lat="38.1116767" lon="14.7901183"><ele>483.5</ele><time>2026-04-28T10:37:01.193Z</time></trkpt><trkpt lat="38.1117867" lon="14.79002"><ele>488.75</ele><time>2026-04-28T10:37:02.193Z</time></trkpt><trkpt lat="38.1119017" lon="14.7899367"><ele>494.0</ele><time>2026-04-28T10:37:03.194Z</time></trkpt><trkpt lat="38.1120017" lon="14.78985"><ele>494.0</ele><time>2026-04-28T10:37:04.193Z</time></trkpt><trkpt lat="38.1121" lon="14.7897767"><ele>494.0</ele><time>2026-04-28T10:37:05.193Z</time></trkpt><trkpt lat="38.11219" lon="14.789725"><ele>494.0</ele><time>2026-04-28T10:37:06.193Z</time></trkpt><trkpt lat="38.1122833" lon="14.7896867"><ele>494.0</ele><time>2026-04-28T10:37:07.194Z</time></trkpt><trkpt lat="38.1123767" lon="14.7896617"><ele>494.0</ele><time>2026-04-28T10:37:08.193Z</time></trkpt><trkpt lat="38.1124733" lon="14.7896433"><ele>487.0</ele><time>2026-04-28T10:37:09.194Z</time></trkpt><trkpt lat="38.1125783" lon="14.789625"><ele>480.0</ele><time>2026-04-28T10:37:10.193Z</time></trkpt><trkpt lat="38.1126833" lon="14.789625"><ele>473.0</ele><time>2026-04-28T10:37:11.193Z</time></trkpt><trkpt lat="38.112795" lon="14.7896433"><ele>466.0</ele><time>2026-04-28T10:37:12.193Z</time></trkpt><trkpt lat="38.1129217" lon="14.7896817"><ele>466.0</ele><time>2026-04-28T10:37:13.193Z</time></trkpt><trkpt lat="38.1130533" lon="14.7897317"><ele>466.0</ele><time>2026-04-28T10:37:14.194Z</time></trkpt><trkpt lat="38.1131733" lon="14.7897783"><ele>466.0</ele><time>2026-04-28T10:37:15.193Z</time></trkpt><trkpt lat="38.1132867" lon="14.789845"><ele>466.0</ele><time>2026-04-28T10:37:16.193Z</time></trkpt><trkpt lat="38.1133967" lon="14.7899117"><ele>466.0</ele><time>2026-04-28T10:37:17.193Z</time></trkpt><trkpt lat="38.11351" lon="14.7899733"><ele>466.0</ele><time>2026-04-28T10:37:18.193Z</time></trkpt><trkpt lat="38.1136267" lon="14.7900067"><ele>466.0</ele><time>2026-04-28T10:37:19.194Z</time></trkpt><trkpt lat="38.1137533" lon="14.7899933"><ele>466.0</ele><time>2026-04-28T10:37:20.194Z</time></trkpt><trkpt lat="38.1138667" lon="14.7899217"><ele>466.0</ele><time>2026-04-28T10:37:21.193Z</time></trkpt><trkpt lat="38.1139733" lon="14.789805"><ele>466.0</ele><time>2026-04-28T10:37:22.193Z</time></trkpt><trkpt lat="38.114075" lon="14.7896733"><ele>466.0</ele><time>2026-04-28T10:37:23.193Z</time></trkpt><trkpt lat="38.114195" lon="14.7895467"><ele>466.0</ele><time>2026-04-28T10:37:24.193Z</time></trkpt><trkpt lat="38.1143333" lon="14.789425"><ele>474.33333333333337</ele><time>2026-04-28T10:37:25.193Z</time></trkpt><trkpt lat="38.1144817" lon="14.78932"><ele>482.66666666666663</ele><time>2026-04-28T10:37:26.194Z</time></trkpt><trkpt lat="38.114635" lon="14.7892233"><ele>491.0</ele><time>2026-04-28T10:37:27.193Z</time></trkpt><trkpt lat="38.1147983" lon="14.78915"><ele>483.3333333333333</ele><time>2026-04-28T10:37:28.194Z</time></trkpt><trkpt lat="38.1149617" lon="14.7890783"><ele>475.66666666666663</ele><time>2026-04-28T10:37:29.193Z</time></trkpt><trkpt lat="38.115135" lon="14.7890183"><ele>468.0</ele><time>2026-04-28T10:37:30.194Z</time></trkpt><trkpt lat="38.1153033" lon="14.7889683"><ele>468.0</ele><time>2026-04-28T10:37:31.193Z</time></trkpt><trkpt lat="38.115465" lon="14.78889"><ele>468.0</ele><time>2026-04-28T10:37:32.193Z</time></trkpt><trkpt lat="38.1156183" lon="14.7887733"><ele>468.0</ele><time>2026-04-28T10:37:33.193Z</time></trkpt><trkpt lat="38.1157617" lon="14.7886567"><ele>470.33333333333337</ele><time>2026-04-28T10:37:34.194Z</time></trkpt><trkpt lat="38.1158983" lon="14.78855"><ele>472.6666666666667</ele><time>2026-04-28T10:37:35.193Z</time></trkpt><trkpt lat="38.1160333" lon="14.788455"><ele>475.0</ele><time>2026-04-28T10:37:36.193Z</time></trkpt><trkpt lat="38.1161733" lon="14.7883767"><ele>475.0</ele><time>2026-04-28T10:37:37.194Z</time></trkpt><trkpt lat="38.1163233" lon="14.78835"><ele>475.0</ele><time>2026-04-28T10:37:38.193Z</time></trkpt><trkpt lat="38.11647" lon="14.7883283"><ele>475.0</ele><time>2026-04-28T10:37:39.193Z</time></trkpt><trkpt lat="38.1166117" lon="14.7882833"><ele>475.0</ele><time>2026-04-28T10:37:40.193Z</time></trkpt><trkpt lat="38.1167483" lon="14.7882083"><ele>469.0</ele><time>2026-04-28T10:37:41.193Z</time></trkpt><trkpt lat="38.11688" lon="14.7881033"><ele>463.0</ele><time>2026-04-28T10:37:42.193Z</time></trkpt><trkpt lat="38.117015" lon="14.787985"><ele>457.0</ele><time>2026-04-28T10:37:43.193Z</time></trkpt><trkpt lat="38.1171383" lon="14.787875"><ele>457.0</ele><time>2026-04-28T10:37:44.194Z</time></trkpt><trkpt lat="38.1172567" lon="14.7877767"><ele>457.0</ele><time>2026-04-28T10:37:45.193Z</time></trkpt><trkpt lat="38.11739" lon="14.7876917"><ele>457.0</ele><time>2026-04-28T10:37:46.193Z</time></trkpt><trkpt lat="38.1175417" lon="14.7876333"><ele>457.0</ele><time>2026-04-28T10:37:47.193Z</time></trkpt><trkpt lat="38.1176933" lon="14.7875967"><ele>463.6666666666667</ele><time>2026-04-28T10:37:48.194Z</time></trkpt><trkpt lat="38.117845" lon="14.787565"><ele>470.33333333333337</ele><time>2026-04-28T10:37:49.193Z</time></trkpt><trkpt lat="38.1180017" lon="14.7875633"><ele>477.0</ele><time>2026-04-28T10:37:50.193Z</time></trkpt><trkpt lat="38.1181583" lon="14.7875867"><ele>473.25</ele><time>2026-04-28T10:37:51.193Z</time></trkpt><trkpt lat="38.1183" lon="14.787605"><ele>469.5</ele><time>2026-04-28T10:37:52.193Z</time></trkpt><trkpt lat="38.1184233" lon="14.7876383"><ele>465.75</ele><time>2026-04-28T10:37:53.193Z</time></trkpt><trkpt lat="38.1185417" lon="14.78767"><ele>462.0</ele><time>2026-04-28T10:37:54.193Z</time></trkpt><trkpt lat="38.11864" lon="14.78767"><ele>462.0</ele><time>2026-04-28T10:37:55.193Z</time></trkpt><trkpt lat="38.1187133" lon="14.7876167"><ele>462.00000000000006</ele><time>2026-04-28T10:37:56.193Z</time></trkpt><trkpt lat="38.1187717" lon="14.7875167"><ele>462.00000000000006</ele><time>2026-04-28T10:37:57.193Z</time></trkpt><trkpt lat="38.1188267" lon="14.7874033"><ele>462.0</ele><time>2026-04-28T10:37:58.193Z</time></trkpt><trkpt lat="38.1188917" lon="14.7872883"><ele>462.0</ele><time>2026-04-28T10:37:59.193Z</time></trkpt><trkpt lat="38.118965" lon="14.78719"><ele>462.0</ele><time>2026-04-28T10:38:00.193Z</time></trkpt><trkpt lat="38.1190367" lon="14.7871017"><ele>462.00000000000006</ele><time>2026-04-28T10:38:01.193Z</time></trkpt><trkpt lat="38.1191" lon="14.787005"><ele>462.00000000000006</ele><time>2026-04-28T10:38:02.193Z</time></trkpt><trkpt lat="38.119135" lon="14.7868933"><ele>462.0</ele><time>2026-04-28T10:38:03.193Z</time></trkpt><trkpt lat="38.119175" lon="14.7867767"><ele>462.0</ele><time>2026-04-28T10:38:04.193Z</time></trkpt><trkpt lat="38.119225" lon="14.7866733"><ele>460.8</ele><time>2026-04-28T10:38:05.193Z</time></trkpt><trkpt lat="38.11929" lon="14.7866"><ele>459.6</ele><time>2026-04-28T10:38:06.193Z</time></trkpt><trkpt lat="38.1193717" lon="14.7865783"><ele>458.40000000000003</ele><time>2026-04-28T10:38:07.193Z</time></trkpt><trkpt lat="38.1194567" lon="14.7865633"><ele>457.20000000000005</ele><time>2026-04-28T10:38:08.193Z</time></trkpt><trkpt lat="38.1195667" lon="14.7865667"><ele>456.0</ele><time>2026-04-28T10:38:09.194Z</time></trkpt><trkpt lat="38.11966" lon="14.78656"><ele>456.0</ele><time>2026-04-28T10:38:10.193Z</time></trkpt><trkpt lat="38.1197467" lon="14.78656"><ele>456.0</ele><time>2026-04-28T10:38:11.193Z</time></trkpt><trkpt lat="38.1198383" lon="14.7865367"><ele>456.0</ele><time>2026-04-28T10:38:12.193Z</time></trkpt><trkpt lat="38.1199067" lon="14.786535"><ele>456.0</ele><time>2026-04-28T10:38:13.193Z</time></trkpt><trkpt lat="38.1199933" lon="14.78654"><ele>456.0</ele><time>2026-04-28T10:38:15.194Z</time></trkpt><trkpt lat="38.1200617" lon="14.7865617"><ele>456.0</ele><time>2026-04-28T10:38:19.193Z</time></trkpt><trkpt lat="38.12015" lon="14.78654"><ele>455.8333333333333</ele><time>2026-04-28T10:38:22.193Z</time></trkpt><trkpt lat="38.1202283" lon="14.7864983"><ele>455.66666666666663</ele><time>2026-04-28T10:38:24.193Z</time></trkpt><trkpt lat="38.12033" lon="14.7864433"><ele>455.5</ele><time>2026-04-28T10:38:26.193Z</time></trkpt><trkpt lat="38.1203917" lon="14.786415"><ele>455.3333333333333</ele><time>2026-04-28T10:38:27.193Z</time></trkpt><trkpt lat="38.1204583" lon="14.7863983"><ele>455.16666666666663</ele><time>2026-04-28T10:38:30.193Z</time></trkpt><trkpt lat="38.1205317" lon="14.786365"><ele>455.0</ele><time>2026-04-28T10:38:35.193Z</time></trkpt><trkpt lat="38.1206533" lon="14.786305"><ele>456.2</ele><time>2026-04-28T10:38:37.193Z</time></trkpt><trkpt lat="38.1207383" lon="14.7862617"><ele>457.4</ele><time>2026-04-28T10:38:38.193Z</time></trkpt><trkpt lat="38.120835" lon="14.7862133"><ele>458.6</ele><time>2026-04-28T10:38:39.193Z</time></trkpt><trkpt lat="38.1209467" lon="14.7861617"><ele>459.8</ele><time>2026-04-28T10:38:40.194Z</time></trkpt><trkpt lat="38.121065" lon="14.7861033"><ele>461.0</ele><time>2026-04-28T10:38:41.193Z</time></trkpt><trkpt lat="38.1211917" lon="14.7860567"><ele>461.4</ele><time>2026-04-28T10:38:42.193Z</time></trkpt><trkpt lat="38.12131" lon="14.7860067"><ele>461.8</ele><time>2026-04-28T10:38:43.193Z</time></trkpt><trkpt lat="38.1214183" lon="14.7859567"><ele>462.19999999999993</ele><time>2026-04-28T10:38:44.193Z</time></trkpt><trkpt lat="38.12152" lon="14.785915"><ele>462.59999999999997</ele><time>2026-04-28T10:38:45.193Z</time></trkpt><trkpt lat="38.1216133" lon="14.7858817"><ele>463.0</ele><time>2026-04-28T10:38:46.193Z</time></trkpt><trkpt lat="38.1216933" lon="14.7858517"><ele>463.0</ele><time>2026-04-28T10:38:47.193Z</time></trkpt><trkpt lat="38.1217633" lon="14.78583"><ele>462.99999999999994</ele><time>2026-04-28T10:38:48.193Z</time></trkpt><trkpt lat="38.1218283" lon="14.785855"><ele>462.99999999999994</ele><time>2026-04-28T10:38:49.193Z</time></trkpt><trkpt lat="38.1218933" lon="14.7859267"><ele>463.0</ele><time>2026-04-28T10:38:50.193Z</time></trkpt><trkpt lat="38.1219867" lon="14.78602"><ele>463.0</ele><time>2026-04-28T10:38:51.193Z</time></trkpt><trkpt lat="38.1220933" lon="14.7861033"><ele>463.25</ele><time>2026-04-28T10:38:52.194Z</time></trkpt><trkpt lat="38.12222" lon="14.7861667"><ele>463.5</ele><time>2026-04-28T10:38:53.193Z</time></trkpt><trkpt lat="38.1223483" lon="14.7862033"><ele>463.75</ele><time>2026-04-28T10:38:54.193Z</time></trkpt><trkpt lat="38.122465" lon="14.7862183"><ele>464.0</ele><time>2026-04-28T10:38:55.193Z</time></trkpt><trkpt lat="38.1225717" lon="14.7862267"><ele>464.0</ele><time>2026-04-28T10:38:56.193Z</time></trkpt><trkpt lat="38.1226767" lon="14.78624"><ele>464.0</ele><time>2026-04-28T10:38:57.193Z</time></trkpt><trkpt lat="38.12278" lon="14.7862533"><ele>464.0</ele><time>2026-04-28T10:38:58.193Z</time></trkpt><trkpt lat="38.12288" lon="14.7862683"><ele>464.0</ele><time>2026-04-28T10:38:59.193Z</time></trkpt><trkpt lat="38.1229767" lon="14.78628"><ele>464.0</ele><time>2026-04-28T10:39:00.193Z</time></trkpt><trkpt lat="38.123075" lon="14.7862983"><ele>463.99999999999994</ele><time>2026-04-28T10:39:01.193Z</time></trkpt><trkpt lat="38.123165" lon="14.7863117"><ele>464.0</ele><time>2026-04-28T10:39:02.193Z</time></trkpt><trkpt lat="38.1232417" lon="14.78633"><ele>464.0</ele><time>2026-04-28T10:39:03.193Z</time></trkpt><trkpt lat="38.1233167" lon="14.7863367"><ele>464.0</ele><time>2026-04-28T10:39:04.193Z</time></trkpt><trkpt lat="38.1233817" lon="14.7863467"><ele>463.99999999999994</ele><time>2026-04-28T10:39:05.194Z</time></trkpt><trkpt lat="38.1234967" lon="14.786345"><ele>464.0</ele><time>2026-04-28T10:39:07.194Z</time></trkpt><trkpt lat="38.1235917" lon="14.7863333"><ele>462.6</ele><time>2026-04-28T10:39:09.193Z</time></trkpt><trkpt lat="38.123655" lon="14.7863217"><ele>461.2</ele><time>2026-04-28T10:39:11.193Z</time></trkpt><trkpt lat="38.1237233" lon="14.7863067"><ele>459.80000000000007</ele><time>2026-04-28T10:39:13.193Z</time></trkpt><trkpt lat="38.1238633" lon="14.7862633"><ele>458.40000000000003</ele><time>2026-04-28T10:39:15.193Z</time></trkpt><trkpt lat="38.1239483" lon="14.78624"><ele>457.0</ele><time>2026-04-28T10:39:16.193Z</time></trkpt><trkpt lat="38.1240483" lon="14.7862133"><ele>458.0</ele><time>2026-04-28T10:39:17.193Z</time></trkpt><trkpt lat="38.1241567" lon="14.786175"><ele>459.00000000000006</ele><time>2026-04-28T10:39:18.194Z</time></trkpt><trkpt lat="38.1242667" lon="14.78613"><ele>460.00000000000006</ele><time>2026-04-28T10:39:19.193Z</time></trkpt><trkpt lat="38.12437" lon="14.786095"><ele>461.0</ele><time>2026-04-28T10:39:20.193Z</time></trkpt><trkpt lat="38.1244633" lon="14.7860533"><ele>462.0</ele><time>2026-04-28T10:39:21.193Z</time></trkpt><trkpt lat="38.1245533" lon="14.7860067"><ele>462.0</ele><time>2026-04-28T10:39:22.193Z</time></trkpt><trkpt lat="38.1246433" lon="14.785955"><ele>462.00000000000006</ele><time>2026-04-28T10:39:23.193Z</time></trkpt><trkpt lat="38.124735" lon="14.7858933"><ele>462.00000000000006</ele><time>2026-04-28T10:39:24.193Z</time></trkpt><trkpt lat="38.12482" lon="14.7858283"><ele>462.0</ele><time>2026-04-28T10:39:25.193Z</time></trkpt><trkpt lat="38.1248983" lon="14.78577"><ele>462.0</ele><time>2026-04-28T10:39:26.193Z</time></trkpt><trkpt lat="38.1249717" lon="14.785725"><ele>459.8333333333333</ele><time>2026-04-28T10:39:27.194Z</time></trkpt><trkpt lat="38.1250517" lon="14.7856833"><ele>457.66666666666663</ele><time>2026-04-28T10:39:28.193Z</time></trkpt><trkpt lat="38.1251283" lon="14.785645"><ele>455.5</ele><time>2026-04-28T10:39:29.193Z</time></trkpt><trkpt lat="38.1252" lon="14.7856083"><ele>453.3333333333333</ele><time>2026-04-28T10:39:30.193Z</time></trkpt><trkpt lat="38.1252717" lon="14.7855617"><ele>451.16666666666663</ele><time>2026-04-28T10:39:31.193Z</time></trkpt><trkpt lat="38.125345" lon="14.7855217"><ele>449.0</ele><time>2026-04-28T10:39:32.193Z</time></trkpt><trkpt lat="38.12541" lon="14.7854717"><ele>448.99999999999994</ele><time>2026-04-28T10:39:33.193Z</time></trkpt><trkpt lat="38.1254717" lon="14.785415"><ele>449.0</ele><time>2026-04-28T10:39:34.193Z</time></trkpt><trkpt lat="38.1255317" lon="14.7853533"><ele>449.0</ele><time>2026-04-28T10:39:35.193Z</time></trkpt><trkpt lat="38.1255867" lon="14.7852767"><ele>449.0</ele><time>2026-04-28T10:39:36.193Z</time></trkpt><trkpt lat="38.1256433" lon="14.7852017"><ele>448.99999999999994</ele><time>2026-04-28T10:39:37.193Z</time></trkpt><trkpt lat="38.1256817" lon="14.7851183"><ele>449.0</ele><time>2026-04-28T10:39:38.193Z</time></trkpt><trkpt lat="38.125705" lon="14.78503"><ele>448.49999999999994</ele><time>2026-04-28T10:39:39.193Z</time></trkpt><trkpt lat="38.1257317" lon="14.7849367"><ele>448.0</ele><time>2026-04-28T10:39:40.193Z</time></trkpt><trkpt lat="38.1257733" lon="14.7848483"><ele>447.5</ele><time>2026-04-28T10:39:41.193Z</time></trkpt><trkpt lat="38.1258283" lon="14.7847617"><ele>447.0</ele><time>2026-04-28T10:39:42.193Z</time></trkpt><trkpt lat="38.125885" lon="14.78469"><ele>446.49999999999994</ele><time>2026-04-28T10:39:43.193Z</time></trkpt><trkpt lat="38.1259417" lon="14.7846333"><ele>446.0</ele><time>2026-04-28T10:39:44.193Z</time></trkpt><trkpt lat="38.1260117" lon="14.7845817"><ele>445.99999999999994</ele><time>2026-04-28T10:39:45.193Z</time></trkpt><trkpt lat="38.1260833" lon="14.7845367"><ele>446.0</ele><time>2026-04-28T10:39:46.193Z</time></trkpt><trkpt lat="38.12616" lon="14.78451"><ele>446.0</ele><time>2026-04-28T10:39:47.194Z</time></trkpt><trkpt lat="38.1262417" lon="14.784505"><ele>446.0</ele><time>2026-04-28T10:39:48.193Z</time></trkpt><trkpt lat="38.1263217" lon="14.7845217"><ele>445.99999999999994</ele><time>2026-04-28T10:39:49.194Z</time></trkpt><trkpt lat="38.12639" lon="14.7845583"><ele>446.0</ele><time>2026-04-28T10:39:50.193Z</time></trkpt><trkpt lat="38.126455" lon="14.784615"><ele>446.0</ele><time>2026-04-28T10:39:51.193Z</time></trkpt><trkpt lat="38.1265167" lon="14.78467"><ele>446.0</ele><time>2026-04-28T10:39:52.193Z</time></trkpt><trkpt lat="38.1265833" lon="14.7847133"><ele>446.0</ele><time>2026-04-28T10:39:53.193Z</time></trkpt><trkpt lat="38.12665" lon="14.7847367"><ele>446.0</ele><time>2026-04-28T10:39:54.193Z</time></trkpt><trkpt lat="38.12672" lon="14.7847367"><ele>446.0</ele><time>2026-04-28T10:39:55.193Z</time></trkpt><trkpt lat="38.1267833" lon="14.7847033"><ele>446.0</ele><time>2026-04-28T10:39:56.193Z</time></trkpt><trkpt lat="38.1268333" lon="14.7846483"><ele>446.0</ele><time>2026-04-28T10:39:57.193Z</time></trkpt><trkpt lat="38.12688" lon="14.7845767"><ele>445.3333333333333</ele><time>2026-04-28T10:39:58.194Z</time></trkpt><trkpt lat="38.1269217" lon="14.7845017"><ele>444.66666666666663</ele><time>2026-04-28T10:39:59.193Z</time></trkpt><trkpt lat="38.1269667" lon="14.78443"><ele>444.0</ele><time>2026-04-28T10:40:00.193Z</time></trkpt><trkpt lat="38.127015" lon="14.784355"><ele>443.33333333333337</ele><time>2026-04-28T10:40:01.193Z</time></trkpt><trkpt lat="38.1270717" lon="14.7842867"><ele>442.6666666666667</ele><time>2026-04-28T10:40:02.193Z</time></trkpt><trkpt lat="38.1271383" lon="14.78423"><ele>442.0</ele><time>2026-04-28T10:40:03.193Z</time></trkpt><trkpt lat="38.1272133" lon="14.784185"><ele>445.00000000000006</ele><time>2026-04-28T10:40:04.193Z</time></trkpt><trkpt lat="38.127295" lon="14.78415"><ele>448.0</ele><time>2026-04-28T10:40:05.193Z</time></trkpt><trkpt lat="38.1273783" lon="14.7841167"><ele>451.0</ele><time>2026-04-28T10:40:06.193Z</time></trkpt><trkpt lat="38.12746" lon="14.7841"><ele>454.0</ele><time>2026-04-28T10:40:07.193Z</time></trkpt><trkpt lat="38.1275483" lon="14.7840783"><ele>457.00000000000006</ele><time>2026-04-28T10:40:08.193Z</time></trkpt><trkpt lat="38.1276317" lon="14.7840583"><ele>460.0</ele><time>2026-04-28T10:40:09.194Z</time></trkpt><trkpt lat="38.127715" lon="14.78402"><ele>460.0</ele><time>2026-04-28T10:40:10.193Z</time></trkpt><trkpt lat="38.1277967" lon="14.7839683"><ele>460.0</ele><time>2026-04-28T10:40:11.193Z</time></trkpt><trkpt lat="38.1278733" lon="14.7839033"><ele>460.0</ele><time>2026-04-28T10:40:12.193Z</time></trkpt><trkpt lat="38.127945" lon="14.7838233"><ele>460.0</ele><time>2026-04-28T10:40:13.193Z</time></trkpt><trkpt lat="38.1280067" lon="14.783735"><ele>460.0</ele><time>2026-04-28T10:40:14.193Z</time></trkpt><trkpt lat="38.1280733" lon="14.78365"><ele>460.00000000000006</ele><time>2026-04-28T10:40:15.193Z</time></trkpt><trkpt lat="38.1281417" lon="14.7835767"><ele>460.0</ele><time>2026-04-28T10:40:16.193Z</time></trkpt><trkpt lat="38.128215" lon="14.7835133"><ele>460.0</ele><time>2026-04-28T10:40:17.193Z</time></trkpt><trkpt lat="38.1282883" lon="14.7834517"><ele>460.0</ele><time>2026-04-28T10:40:18.193Z</time></trkpt><trkpt lat="38.1283617" lon="14.7833983"><ele>460.00000000000006</ele><time>2026-04-28T10:40:19.194Z</time></trkpt><trkpt lat="38.128445" lon="14.7833367"><ele>460.0</ele><time>2026-04-28T10:40:20.193Z</time></trkpt><trkpt lat="38.12852" lon="14.7832817"><ele>461.0</ele><time>2026-04-28T10:40:21.193Z</time></trkpt><trkpt lat="38.1285967" lon="14.7832217"><ele>462.0</ele><time>2026-04-28T10:40:22.193Z</time></trkpt><trkpt lat="38.1286683" lon="14.7831417"><ele>463.0</ele><time>2026-04-28T10:40:23.194Z</time></trkpt><trkpt lat="38.12872" lon="14.783045"><ele>464.0</ele><time>2026-04-28T10:40:24.193Z</time></trkpt><trkpt lat="38.1287683" lon="14.78295"><ele>465.0</ele><time>2026-04-28T10:40:25.193Z</time></trkpt><trkpt lat="38.1288133" lon="14.7828583"><ele>465.0</ele><time>2026-04-28T10:40:26.193Z</time></trkpt><trkpt lat="38.1288617" lon="14.78277"><ele>465.0</ele><time>2026-04-28T10:40:27.193Z</time></trkpt><trkpt lat="38.1289067" lon="14.7826883"><ele>465.0</ele><time>2026-04-28T10:40:28.193Z</time></trkpt><trkpt lat="38.128945" lon="14.782605"><ele>465.0</ele><time>2026-04-28T10:40:29.193Z</time></trkpt><trkpt lat="38.128975" lon="14.782515"><ele>465.0</ele><time>2026-04-28T10:40:30.193Z</time></trkpt><trkpt lat="38.1289933" lon="14.78243"><ele>465.0</ele><time>2026-04-28T10:40:31.193Z</time></trkpt><trkpt lat="38.128995" lon="14.78234"><ele>465.2</ele><time>2026-04-28T10:40:32.193Z</time></trkpt><trkpt lat="38.1289883" lon="14.7822433"><ele>465.4</ele><time>2026-04-28T10:40:33.193Z</time></trkpt><trkpt lat="38.12897" lon="14.7821317"><ele>465.6</ele><time>2026-04-28T10:40:34.193Z</time></trkpt><trkpt lat="38.1289317" lon="14.7820267"><ele>465.8</ele><time>2026-04-28T10:40:35.193Z</time></trkpt><trkpt lat="38.1288667" lon="14.7819267"><ele>466.0</ele><time>2026-04-28T10:40:36.193Z</time></trkpt><trkpt lat="38.1287917" lon="14.7818417"><ele>465.20000000000005</ele><time>2026-04-28T10:40:37.194Z</time></trkpt><trkpt lat="38.1287233" lon="14.7817517"><ele>464.40000000000003</ele><time>2026-04-28T10:40:38.193Z</time></trkpt><trkpt lat="38.1286617" lon="14.781665"><ele>463.6</ele><time>2026-04-28T10:40:39.193Z</time></trkpt><trkpt lat="38.1285983" lon="14.78159"><ele>462.8</ele><time>2026-04-28T10:40:40.193Z</time></trkpt><trkpt lat="38.1285333" lon="14.7815167"><ele>462.0</ele><time>2026-04-28T10:40:41.193Z</time></trkpt><trkpt lat="38.12846" lon="14.7814467"><ele>462.0</ele><time>2026-04-28T10:40:42.193Z</time></trkpt><trkpt lat="38.1283833" lon="14.7813733"><ele>462.0</ele><time>2026-04-28T10:40:43.193Z</time></trkpt><trkpt lat="38.1282933" lon="14.7812983"><ele>462.0</ele><time>2026-04-28T10:40:44.193Z</time></trkpt><trkpt lat="38.12819" lon="14.7812133"><ele>462.0</ele><time>2026-04-28T10:40:45.193Z</time></trkpt><trkpt lat="38.1280767" lon="14.781135"><ele>460.66666666666663</ele><time>2026-04-28T10:40:46.193Z</time></trkpt><trkpt lat="38.1279533" lon="14.7810667"><ele>459.3333333333333</ele><time>2026-04-28T10:40:47.193Z</time></trkpt><trkpt lat="38.1278067" lon="14.78098"><ele>458.0</ele><time>2026-04-28T10:40:48.193Z</time></trkpt><trkpt lat="38.12766" lon="14.7808917"><ele>458.0</ele><time>2026-04-28T10:40:49.193Z</time></trkpt><trkpt lat="38.1275183" lon="14.7807867"><ele>458.0</ele><time>2026-04-28T10:40:50.193Z</time></trkpt><trkpt lat="38.1273817" lon="14.780665"><ele>458.0</ele><time>2026-04-28T10:40:51.193Z</time></trkpt><trkpt lat="38.1272483" lon="14.780515"><ele>457.3333333333333</ele><time>2026-04-28T10:40:52.193Z</time></trkpt><trkpt lat="38.1271233" lon="14.7803783"><ele>456.66666666666663</ele><time>2026-04-28T10:40:53.193Z</time></trkpt><trkpt lat="38.127" lon="14.78025"><ele>456.0</ele><time>2026-04-28T10:40:54.193Z</time></trkpt><trkpt lat="38.126875" lon="14.7801183"><ele>456.0</ele><time>2026-04-28T10:40:55.194Z</time></trkpt><trkpt lat="38.1267483" lon="14.77999"><ele>456.0</ele><time>2026-04-28T10:40:56.193Z</time></trkpt><trkpt lat="38.1266283" lon="14.7798667"><ele>456.0</ele><time>2026-04-28T10:40:57.193Z</time></trkpt><trkpt lat="38.1265117" lon="14.779745"><ele>455.5</ele><time>2026-04-28T10:40:58.194Z</time></trkpt><trkpt lat="38.1264067" lon="14.7796217"><ele>455.0</ele><time>2026-04-28T10:40:59.193Z</time></trkpt><trkpt lat="38.1263067" lon="14.7794917"><ele>454.5</ele><time>2026-04-28T10:41:00.193Z</time></trkpt><trkpt lat="38.1262333" lon="14.7793367"><ele>454.0</ele><time>2026-04-28T10:41:01.193Z</time></trkpt><trkpt lat="38.1261817" lon="14.7791817"><ele>454.0</ele><time>2026-04-28T10:41:02.193Z</time></trkpt><trkpt lat="38.12616" lon="14.7790217"><ele>454.0</ele><time>2026-04-28T10:41:03.193Z</time></trkpt><trkpt lat="38.12616" lon="14.7788467"><ele>454.0</ele><time>2026-04-28T10:41:04.193Z</time></trkpt><trkpt lat="38.12617" lon="14.77866"><ele>454.0</ele><time>2026-04-28T10:41:05.193Z</time></trkpt><trkpt lat="38.1261783" lon="14.7784667"><ele>454.5</ele><time>2026-04-28T10:41:06.193Z</time></trkpt><trkpt lat="38.1261833" lon="14.77828"><ele>455.0</ele><time>2026-04-28T10:41:07.193Z</time></trkpt><trkpt lat="38.126185" lon="14.7780983"><ele>455.5</ele><time>2026-04-28T10:41:08.194Z</time></trkpt><trkpt lat="38.1261783" lon="14.7779283"><ele>456.0</ele><time>2026-04-28T10:41:09.193Z</time></trkpt><trkpt lat="38.1261433" lon="14.77776"><ele>456.5</ele><time>2026-04-28T10:41:10.193Z</time></trkpt><trkpt lat="38.12608" lon="14.7776033"><ele>457.0</ele><time>2026-04-28T10:41:11.193Z</time></trkpt><trkpt lat="38.1260133" lon="14.777445"><ele>457.5</ele><time>2026-04-28T10:41:12.193Z</time></trkpt><trkpt lat="38.1259583" lon="14.7772783"><ele>458.0</ele><time>2026-04-28T10:41:13.193Z</time></trkpt><trkpt lat="38.1259033" lon="14.7771117"><ele>458.0</ele><time>2026-04-28T10:41:14.193Z</time></trkpt><trkpt lat="38.1258517" lon="14.77693"><ele>458.0</ele><time>2026-04-28T10:41:15.193Z</time></trkpt><trkpt lat="38.1258133" lon="14.7767517"><ele>458.0</ele><time>2026-04-28T10:41:16.194Z</time></trkpt><trkpt lat="38.12578" lon="14.7765717"><ele>458.0</ele><time>2026-04-28T10:41:17.193Z</time></trkpt><trkpt lat="38.125775" lon="14.7763867"><ele>460.25</ele><time>2026-04-28T10:41:18.194Z</time></trkpt><trkpt lat="38.1257917" lon="14.7761967"><ele>462.5</ele><time>2026-04-28T10:41:19.193Z</time></trkpt><trkpt lat="38.1258183" lon="14.7760083"><ele>464.75</ele><time>2026-04-28T10:41:20.193Z</time></trkpt><trkpt lat="38.1258583" lon="14.7758333"><ele>467.0</ele><time>2026-04-28T10:41:21.193Z</time></trkpt><trkpt lat="38.1259067" lon="14.7756617"><ele>468.5</ele><time>2026-04-28T10:41:22.194Z</time></trkpt><trkpt lat="38.125975" lon="14.7755133"><ele>470.0</ele><time>2026-04-28T10:41:23.193Z</time></trkpt><trkpt lat="38.1260767" lon="14.7753917"><ele>471.5</ele><time>2026-04-28T10:41:24.192Z</time></trkpt><trkpt lat="38.1261917" lon="14.7752933"><ele>473.0</ele><time>2026-04-28T10:41:25.193Z</time></trkpt><trkpt lat="38.1263433" lon="14.77522"><ele>473.66666666666663</ele><time>2026-04-28T10:41:26.192Z</time></trkpt><trkpt lat="38.1264833" lon="14.7751333"><ele>474.33333333333337</ele><time>2026-04-28T10:41:27.193Z</time></trkpt><trkpt lat="38.1266283" lon="14.7750217"><ele>475.0</ele><time>2026-04-28T10:41:28.192Z</time></trkpt><trkpt lat="38.12678" lon="14.77491"><ele>476.0</ele><time>2026-04-28T10:41:29.192Z</time></trkpt><trkpt lat="38.1269183" lon="14.7748017"><ele>477.0</ele><time>2026-04-28T10:41:30.192Z</time></trkpt><trkpt lat="38.1270433" lon="14.7747033"><ele>478.0</ele><time>2026-04-28T10:41:31.192Z</time></trkpt><trkpt lat="38.1271517" lon="14.774605"><ele>479.0</ele><time>2026-04-28T10:41:32.192Z</time></trkpt><trkpt lat="38.1272383" lon="14.7745117"><ele>479.0</ele><time>2026-04-28T10:41:33.192Z</time></trkpt><trkpt lat="38.127315" lon="14.7744017"><ele>479.0</ele><time>2026-04-28T10:41:34.192Z</time></trkpt><trkpt lat="38.1273667" lon="14.77429"><ele>479.0</ele><time>2026-04-28T10:41:35.192Z</time></trkpt><trkpt lat="38.1274083" lon="14.7741767"><ele>479.0</ele><time>2026-04-28T10:41:36.192Z</time></trkpt><trkpt lat="38.12743" lon="14.774095"><ele>479.0</ele><time>2026-04-28T10:41:37.192Z</time></trkpt><trkpt lat="38.12747" lon="14.773985"><ele>479.16666666666663</ele><time>2026-04-28T10:41:39.192Z</time></trkpt><trkpt lat="38.12749" lon="14.7739033"><ele>479.3333333333333</ele><time>2026-04-28T10:41:42.192Z</time></trkpt><trkpt lat="38.1274383" lon="14.773845"><ele>479.5</ele><time>2026-04-28T10:41:52.192Z</time></trkpt><trkpt lat="38.12737" lon="14.7738533"><ele>479.66666666666663</ele><time>2026-04-28T10:41:54.192Z</time></trkpt><trkpt lat="38.127265" lon="14.773735"><ele>479.8333333333333</ele><time>2026-04-28T10:41:56.192Z</time></trkpt><trkpt lat="38.1272" lon="14.7736317"><ele>480.0</ele><time>2026-04-28T10:41:57.193Z</time></trkpt><trkpt lat="38.12712" lon="14.7734983"><ele>482.33333333333337</ele><time>2026-04-28T10:41:58.192Z</time></trkpt><trkpt lat="38.127025" lon="14.7733433"><ele>484.6666666666667</ele><time>2026-04-28T10:41:59.193Z</time></trkpt><trkpt lat="38.1269283" lon="14.7731717"><ele>487.0</ele><time>2026-04-28T10:42:00.192Z</time></trkpt><trkpt lat="38.1268083" lon="14.7729833"><ele>487.0</ele><time>2026-04-28T10:42:01.193Z</time></trkpt><trkpt lat="38.126655" lon="14.7728133"><ele>487.0</ele><time>2026-04-28T10:42:02.192Z</time></trkpt><trkpt lat="38.12649" lon="14.7726483"><ele>487.0</ele><time>2026-04-28T10:42:03.192Z</time></trkpt><trkpt lat="38.1263267" lon="14.7724967"><ele>488.5</ele><time>2026-04-28T10:42:04.192Z</time></trkpt><trkpt lat="38.1261967" lon="14.7723683"><ele>490.0</ele><time>2026-04-28T10:42:05.193Z</time></trkpt><trkpt lat="38.1260967" lon="14.77226"><ele>491.5</ele><time>2026-04-28T10:42:06.192Z</time></trkpt><trkpt lat="38.1260117" lon="14.7721283"><ele>493.0</ele><time>2026-04-28T10:42:07.192Z</time></trkpt><trkpt lat="38.125945" lon="14.77198"><ele>494.5</ele><time>2026-04-28T10:42:08.192Z</time></trkpt><trkpt lat="38.12589" lon="14.7718183"><ele>496.0</ele><time>2026-04-28T10:42:09.192Z</time></trkpt><trkpt lat="38.12583" lon="14.7716533"><ele>497.5</ele><time>2026-04-28T10:42:10.193Z</time></trkpt><trkpt lat="38.125775" lon="14.7714967"><ele>499.0</ele><time>2026-04-28T10:42:11.192Z</time></trkpt><trkpt lat="38.1257233" lon="14.7713517"><ele>499.0</ele><time>2026-04-28T10:42:12.192Z</time></trkpt><trkpt lat="38.1256767" lon="14.771225"><ele>499.0</ele><time>2026-04-28T10:42:13.192Z</time></trkpt><trkpt lat="38.1256317" lon="14.7711083"><ele>499.0</ele><time>2026-04-28T10:42:14.192Z</time></trkpt><trkpt lat="38.1256" lon="14.77098"><ele>499.0</ele><time>2026-04-28T10:42:15.193Z</time></trkpt><trkpt lat="38.125575" lon="14.7708367"><ele>499.0</ele><time>2026-04-28T10:42:16.192Z</time></trkpt><trkpt lat="38.1255683" lon="14.7706817"><ele>500.25</ele><time>2026-04-28T10:42:17.192Z</time></trkpt><trkpt lat="38.1255567" lon="14.77052"><ele>501.5</ele><time>2026-04-28T10:42:18.192Z</time></trkpt><trkpt lat="38.1255483" lon="14.7703567"><ele>502.75</ele><time>2026-04-28T10:42:19.193Z</time></trkpt><trkpt lat="38.12554" lon="14.7701867"><ele>504.0</ele><time>2026-04-28T10:42:20.192Z</time></trkpt><trkpt lat="38.1255333" lon="14.7700233"><ele>505.0</ele><time>2026-04-28T10:42:21.192Z</time></trkpt><trkpt lat="38.12553" lon="14.7698733"><ele>506.0</ele><time>2026-04-28T10:42:22.192Z</time></trkpt><trkpt lat="38.1255267" lon="14.769735"><ele>507.0</ele><time>2026-04-28T10:42:23.192Z</time></trkpt><trkpt lat="38.1255183" lon="14.76962"><ele>508.0</ele><time>2026-04-28T10:42:24.192Z</time></trkpt><trkpt lat="38.1254983" lon="14.7695217"><ele>509.0</ele><time>2026-04-28T10:42:25.192Z</time></trkpt><trkpt lat="38.1254783" lon="14.7694317"><ele>508.8333333333333</ele><time>2026-04-28T10:42:26.192Z</time></trkpt><trkpt lat="38.1254467" lon="14.7693567"><ele>508.66666666666663</ele><time>2026-04-28T10:42:27.192Z</time></trkpt><trkpt lat="38.1253967" lon="14.7693017"><ele>508.5</ele><time>2026-04-28T10:42:28.192Z</time></trkpt><trkpt lat="38.12533" lon="14.7692467"><ele>508.33333333333337</ele><time>2026-04-28T10:42:29.193Z</time></trkpt><trkpt lat="38.1252467" lon="14.76919"><ele>508.1666666666667</ele><time>2026-04-28T10:42:30.192Z</time></trkpt><trkpt lat="38.125165" lon="14.769135"><ele>508.0</ele><time>2026-04-28T10:42:31.192Z</time></trkpt><trkpt lat="38.1251017" lon="14.7690867"><ele>508.0</ele><time>2026-04-28T10:42:32.192Z</time></trkpt><trkpt lat="38.12505" lon="14.7690317"><ele>507.99999999999994</ele><time>2026-04-28T10:42:33.192Z</time></trkpt><trkpt lat="38.1250033" lon="14.7688817"><ele>507.99999999999994</ele><time>2026-04-28T10:42:35.192Z</time></trkpt><trkpt lat="38.1250017" lon="14.76878"><ele>508.0</ele><time>2026-04-28T10:42:36.192Z</time></trkpt><trkpt lat="38.1250033" lon="14.7686467"><ele>508.0</ele><time>2026-04-28T10:42:37.192Z</time></trkpt><trkpt lat="38.1249983" lon="14.7684967"><ele>507.5</ele><time>2026-04-28T10:42:38.192Z</time></trkpt><trkpt lat="38.1249867" lon="14.7683283"><ele>507.0</ele><time>2026-04-28T10:42:39.192Z</time></trkpt><trkpt lat="38.1249783" lon="14.7681517"><ele>506.5</ele><time>2026-04-28T10:42:40.192Z</time></trkpt><trkpt lat="38.1249667" lon="14.7679683"><ele>506.0</ele><time>2026-04-28T10:42:41.192Z</time></trkpt><trkpt lat="38.124955" lon="14.767775"><ele>506.66666666666663</ele><time>2026-04-28T10:42:42.193Z</time></trkpt><trkpt lat="38.1249433" lon="14.7675817"><ele>507.33333333333337</ele><time>2026-04-28T10:42:43.192Z</time></trkpt><trkpt lat="38.1249283" lon="14.767385"><ele>508.0</ele><time>2026-04-28T10:42:44.193Z</time></trkpt><trkpt lat="38.1249033" lon="14.76719"><ele>508.0</ele><time>2026-04-28T10:42:45.193Z</time></trkpt><trkpt lat="38.12487" lon="14.7669983"><ele>508.0</ele><time>2026-04-28T10:42:46.192Z</time></trkpt><trkpt lat="38.1248333" lon="14.7668133"><ele>508.0</ele><time>2026-04-28T10:42:47.192Z</time></trkpt><trkpt lat="38.1247917" lon="14.7666183"><ele>508.0</ele><time>2026-04-28T10:42:48.192Z</time></trkpt><trkpt lat="38.12475" lon="14.7664367"><ele>508.0</ele><time>2026-04-28T10:42:49.192Z</time></trkpt><trkpt lat="38.1247033" lon="14.7662667"><ele>508.0</ele><time>2026-04-28T10:42:50.192Z</time></trkpt><trkpt lat="38.12466" lon="14.7660983"><ele>508.0</ele><time>2026-04-28T10:42:51.192Z</time></trkpt><trkpt lat="38.1246133" lon="14.7659383"><ele>506.0</ele><time>2026-04-28T10:42:52.192Z</time></trkpt><trkpt lat="38.124565" lon="14.7657767"><ele>504.0</ele><time>2026-04-28T10:42:53.192Z</time></trkpt><trkpt lat="38.12452" lon="14.76561"><ele>502.0</ele><time>2026-04-28T10:42:54.193Z</time></trkpt><trkpt lat="38.124485" lon="14.7654533"><ele>500.0</ele><time>2026-04-28T10:42:55.192Z</time></trkpt><trkpt lat="38.1244617" lon="14.7653033"><ele>500.5</ele><time>2026-04-28T10:42:56.192Z</time></trkpt><trkpt lat="38.1244617" lon="14.765165"><ele>501.0</ele><time>2026-04-28T10:42:57.193Z</time></trkpt><trkpt lat="38.1244917" lon="14.7650183"><ele>501.5</ele><time>2026-04-28T10:42:58.192Z</time></trkpt><trkpt lat="38.124535" lon="14.7648667"><ele>502.0</ele><time>2026-04-28T10:42:59.192Z</time></trkpt><trkpt lat="38.1245833" lon="14.764695"><ele>502.0</ele><time>2026-04-28T10:43:00.193Z</time></trkpt><trkpt lat="38.1246317" lon="14.7645167"><ele>502.0</ele><time>2026-04-28T10:43:01.193Z</time></trkpt><trkpt lat="38.1246733" lon="14.7643467"><ele>502.0</ele><time>2026-04-28T10:43:02.192Z</time></trkpt><trkpt lat="38.1247217" lon="14.7641833"><ele>502.0</ele><time>2026-04-28T10:43:03.192Z</time></trkpt><trkpt lat="38.124775" lon="14.7640367"><ele>500.75</ele><time>2026-04-28T10:43:04.192Z</time></trkpt><trkpt lat="38.124845" lon="14.7639067"><ele>499.5</ele><time>2026-04-28T10:43:05.192Z</time></trkpt><trkpt lat="38.124925" lon="14.7637883"><ele>498.25</ele><time>2026-04-28T10:43:06.193Z</time></trkpt><trkpt lat="38.1250117" lon="14.7636717"><ele>497.0</ele><time>2026-04-28T10:43:07.192Z</time></trkpt><trkpt lat="38.1251033" lon="14.7635633"><ele>499.25</ele><time>2026-04-28T10:43:08.193Z</time></trkpt><trkpt lat="38.1251817" lon="14.76345"><ele>501.5</ele><time>2026-04-28T10:43:09.193Z</time></trkpt><trkpt lat="38.1252467" lon="14.7633317"><ele>503.75</ele><time>2026-04-28T10:43:10.192Z</time></trkpt><trkpt lat="38.125305" lon="14.7632"><ele>506.0</ele><time>2026-04-28T10:43:11.192Z</time></trkpt><trkpt lat="38.1253517" lon="14.7630683"><ele>506.0</ele><time>2026-04-28T10:43:12.193Z</time></trkpt><trkpt lat="38.1253917" lon="14.76294"><ele>506.0</ele><time>2026-04-28T10:43:13.192Z</time></trkpt><trkpt lat="38.1254283" lon="14.762805"><ele>506.0</ele><time>2026-04-28T10:43:14.192Z</time></trkpt><trkpt lat="38.12547" lon="14.76267"><ele>506.0</ele><time>2026-04-28T10:43:15.192Z</time></trkpt><trkpt lat="38.1255033" lon="14.7625317"><ele>506.0</ele><time>2026-04-28T10:43:16.192Z</time></trkpt><trkpt lat="38.12554" lon="14.762405"><ele>506.6</ele><time>2026-04-28T10:43:17.192Z</time></trkpt><trkpt lat="38.1255733" lon="14.7622883"><ele>507.20000000000005</ele><time>2026-04-28T10:43:18.193Z</time></trkpt><trkpt lat="38.1256133" lon="14.7621717"><ele>507.79999999999995</ele><time>2026-04-28T10:43:19.192Z</time></trkpt><trkpt lat="38.1256517" lon="14.762055"><ele>508.4</ele><time>2026-04-28T10:43:20.192Z</time></trkpt><trkpt lat="38.1256983" lon="14.7619283"><ele>509.0</ele><time>2026-04-28T10:43:21.193Z</time></trkpt><trkpt lat="38.1257483" lon="14.7617967"><ele>509.0</ele><time>2026-04-28T10:43:22.193Z</time></trkpt><trkpt lat="38.1257967" lon="14.7616667"><ele>509.0</ele><time>2026-04-28T10:43:23.192Z</time></trkpt><trkpt lat="38.1258483" lon="14.7615367"><ele>509.0</ele><time>2026-04-28T10:43:24.192Z</time></trkpt><trkpt lat="38.125895" lon="14.7614117"><ele>509.0</ele><time>2026-04-28T10:43:25.192Z</time></trkpt><trkpt lat="38.1259433" lon="14.7612867"><ele>509.0</ele><time>2026-04-28T10:43:26.192Z</time></trkpt><trkpt lat="38.1259767" lon="14.76115"><ele>506.5</ele><time>2026-04-28T10:43:27.192Z</time></trkpt><trkpt lat="38.1259933" lon="14.7609967"><ele>504.0</ele><time>2026-04-28T10:43:28.192Z</time></trkpt><trkpt lat="38.1260033" lon="14.7608367"><ele>501.5</ele><time>2026-04-28T10:43:29.192Z</time></trkpt><trkpt lat="38.1260133" lon="14.760675"><ele>499.0</ele><time>2026-04-28T10:43:30.192Z</time></trkpt><trkpt lat="38.1260267" lon="14.7605117"><ele>499.0</ele><time>2026-04-28T10:43:31.193Z</time></trkpt><trkpt lat="38.12604" lon="14.760355"><ele>499.0</ele><time>2026-04-28T10:43:32.192Z</time></trkpt><trkpt lat="38.12606" lon="14.7602017"><ele>499.0</ele><time>2026-04-28T10:43:33.192Z</time></trkpt><trkpt lat="38.1260817" lon="14.76005"><ele>499.0</ele><time>2026-04-28T10:43:34.192Z</time></trkpt><trkpt lat="38.1261167" lon="14.759895"><ele>496.0</ele><time>2026-04-28T10:43:35.192Z</time></trkpt><trkpt lat="38.12617" lon="14.7597383"><ele>493.0</ele><time>2026-04-28T10:43:36.192Z</time></trkpt><trkpt lat="38.12624" lon="14.759595"><ele>490.0</ele><time>2026-04-28T10:43:37.192Z</time></trkpt><trkpt lat="38.1263083" lon="14.7594567"><ele>487.0</ele><time>2026-04-28T10:43:38.193Z</time></trkpt><trkpt lat="38.126375" lon="14.75932"><ele>486.25</ele><time>2026-04-28T10:43:39.192Z</time></trkpt><trkpt lat="38.1264367" lon="14.759185"><ele>485.5</ele><time>2026-04-28T10:43:40.192Z</time></trkpt><trkpt lat="38.1265067" lon="14.7590617"><ele>484.75</ele><time>2026-04-28T10:43:41.192Z</time></trkpt><trkpt lat="38.12658" lon="14.7589367"><ele>484.0</ele><time>2026-04-28T10:43:42.193Z</time></trkpt><trkpt lat="38.1266733" lon="14.758825"><ele>484.0</ele><time>2026-04-28T10:43:43.193Z</time></trkpt><trkpt lat="38.1267683" lon="14.7587083"><ele>484.0</ele><time>2026-04-28T10:43:44.193Z</time></trkpt><trkpt lat="38.1268567" lon="14.7586"><ele>484.0</ele><time>2026-04-28T10:43:45.193Z</time></trkpt><trkpt lat="38.126935" lon="14.7584917"><ele>484.0</ele><time>2026-04-28T10:43:46.192Z</time></trkpt><trkpt lat="38.126985" lon="14.758365"><ele>481.25</ele><time>2026-04-28T10:43:47.192Z</time></trkpt><trkpt lat="38.12702" lon="14.7582183"><ele>478.5</ele><time>2026-04-28T10:43:48.192Z</time></trkpt><trkpt lat="38.1270467" lon="14.7580533"><ele>475.75</ele><time>2026-04-28T10:43:49.193Z</time></trkpt><trkpt lat="38.1270717" lon="14.757895"><ele>473.0</ele><time>2026-04-28T10:43:50.192Z</time></trkpt><trkpt lat="38.1271" lon="14.7577383"><ele>467.25</ele><time>2026-04-28T10:43:51.192Z</time></trkpt><trkpt lat="38.127125" lon="14.75758"><ele>461.5</ele><time>2026-04-28T10:43:52.192Z</time></trkpt><trkpt lat="38.1271567" lon="14.7574183"><ele>455.75</ele><time>2026-04-28T10:43:53.192Z</time></trkpt><trkpt lat="38.1271933" lon="14.7572633"><ele>450.0</ele><time>2026-04-28T10:43:54.192Z</time></trkpt><trkpt lat="38.1272317" lon="14.757115"><ele>450.0</ele><time>2026-04-28T10:43:55.193Z</time></trkpt><trkpt lat="38.1272767" lon="14.7569667"><ele>450.0</ele><time>2026-04-28T10:43:56.192Z</time></trkpt><trkpt lat="38.1273167" lon="14.75682"><ele>450.0</ele><time>2026-04-28T10:43:57.192Z</time></trkpt><trkpt lat="38.12734" lon="14.756675"><ele>450.0</ele><time>2026-04-28T10:43:58.192Z</time></trkpt><trkpt lat="38.127365" lon="14.7565283"><ele>449.5</ele><time>2026-04-28T10:43:59.192Z</time></trkpt><trkpt lat="38.1274067" lon="14.7563883"><ele>449.0</ele><time>2026-04-28T10:44:00.192Z</time></trkpt><trkpt lat="38.127455" lon="14.7562533"><ele>448.5</ele><time>2026-04-28T10:44:01.192Z</time></trkpt><trkpt lat="38.1275233" lon="14.7561133"><ele>448.0</ele><time>2026-04-28T10:44:02.192Z</time></trkpt><trkpt lat="38.1275967" lon="14.755965"><ele>448.0</ele><time>2026-04-28T10:44:03.192Z</time></trkpt><trkpt lat="38.12768" lon="14.7558133"><ele>448.0</ele><time>2026-04-28T10:44:04.192Z</time></trkpt><trkpt lat="38.12775" lon="14.755665"><ele>448.0</ele><time>2026-04-28T10:44:05.193Z</time></trkpt><trkpt lat="38.1278233" lon="14.755515"><ele>448.0</ele><time>2026-04-28T10:44:06.192Z</time></trkpt><trkpt lat="38.1279017" lon="14.75536"><ele>448.0</ele><time>2026-04-28T10:44:07.192Z</time></trkpt><trkpt lat="38.12798" lon="14.7552067"><ele>448.0</ele><time>2026-04-28T10:44:08.192Z</time></trkpt><trkpt lat="38.1280533" lon="14.7550667"><ele>448.0</ele><time>2026-04-28T10:44:09.192Z</time></trkpt><trkpt lat="38.1281267" lon="14.75494"><ele>448.0</ele><time>2026-04-28T10:44:10.192Z</time></trkpt><trkpt lat="38.128195" lon="14.754815"><ele>448.25</ele><time>2026-04-28T10:44:11.192Z</time></trkpt><trkpt lat="38.12827" lon="14.75471"><ele>448.5</ele><time>2026-04-28T10:44:12.192Z</time></trkpt><trkpt lat="38.1283717" lon="14.754635"><ele>448.75</ele><time>2026-04-28T10:44:13.193Z</time></trkpt><trkpt lat="38.1284917" lon="14.75459"><ele>449.0</ele><time>2026-04-28T10:44:14.192Z</time></trkpt><trkpt lat="38.1286167" lon="14.754555"><ele>449.0</ele><time>2026-04-28T10:44:15.192Z</time></trkpt><trkpt lat="38.1287483" lon="14.7545233"><ele>449.0</ele><time>2026-04-28T10:44:16.193Z</time></trkpt><trkpt lat="38.1288733" lon="14.7544867"><ele>449.0</ele><time>2026-04-28T10:44:17.192Z</time></trkpt><trkpt lat="38.128995" lon="14.7544317"><ele>449.0</ele><time>2026-04-28T10:44:18.192Z</time></trkpt><trkpt lat="38.1291133" lon="14.7543533"><ele>445.0</ele><time>2026-04-28T10:44:19.192Z</time></trkpt><trkpt lat="38.12923" lon="14.754255"><ele>441.0</ele><time>2026-04-28T10:44:20.193Z</time></trkpt><trkpt lat="38.1293417" lon="14.754155"><ele>437.0</ele><time>2026-04-28T10:44:21.192Z</time></trkpt><trkpt lat="38.1294467" lon="14.7540517"><ele>433.0</ele><time>2026-04-28T10:44:22.192Z</time></trkpt><trkpt lat="38.1295467" lon="14.75396"><ele>433.0</ele><time>2026-04-28T10:44:23.192Z</time></trkpt><trkpt lat="38.12965" lon="14.7538667"><ele>433.0</ele><time>2026-04-28T10:44:24.192Z</time></trkpt><trkpt lat="38.12976" lon="14.75377"><ele>433.0</ele><time>2026-04-28T10:44:25.193Z</time></trkpt><trkpt lat="38.129875" lon="14.7536667"><ele>433.0</ele><time>2026-04-28T10:44:26.192Z</time></trkpt><trkpt lat="38.1299967" lon="14.7535633"><ele>428.5</ele><time>2026-04-28T10:44:27.192Z</time></trkpt><trkpt lat="38.1301017" lon="14.7534533"><ele>424.0</ele><time>2026-04-28T10:44:28.192Z</time></trkpt><trkpt lat="38.1302133" lon="14.7533433"><ele>419.5</ele><time>2026-04-28T10:44:29.192Z</time></trkpt><trkpt lat="38.1303233" lon="14.7532267"><ele>415.0</ele><time>2026-04-28T10:44:30.192Z</time></trkpt><trkpt lat="38.1304367" lon="14.75311"><ele>415.0</ele><time>2026-04-28T10:44:31.192Z</time></trkpt><trkpt lat="38.1305567" lon="14.7530033"><ele>415.0</ele><time>2026-04-28T10:44:32.193Z</time></trkpt><trkpt lat="38.1306617" lon="14.752895"><ele>415.0</ele><time>2026-04-28T10:44:33.192Z</time></trkpt><trkpt lat="38.1307517" lon="14.7527867"><ele>415.0</ele><time>2026-04-28T10:44:34.192Z</time></trkpt><trkpt lat="38.13083" lon="14.7526667"><ele>413.2</ele><time>2026-04-28T10:44:35.192Z</time></trkpt><trkpt lat="38.1308967" lon="14.75254"><ele>411.4</ele><time>2026-04-28T10:44:36.193Z</time></trkpt><trkpt lat="38.1309433" lon="14.7524233"><ele>409.6</ele><time>2026-04-28T10:44:37.192Z</time></trkpt><trkpt lat="38.1309783" lon="14.752315"><ele>407.8</ele><time>2026-04-28T10:44:38.192Z</time></trkpt><trkpt lat="38.1309883" lon="14.752185"><ele>406.0</ele><time>2026-04-28T10:44:39.192Z</time></trkpt><trkpt lat="38.1309933" lon="14.7520383"><ele>406.0</ele><time>2026-04-28T10:44:40.192Z</time></trkpt><trkpt lat="38.1309917" lon="14.7518833"><ele>406.0</ele><time>2026-04-28T10:44:41.192Z</time></trkpt><trkpt lat="38.1309867" lon="14.7517283"><ele>406.0</ele><time>2026-04-28T10:44:42.192Z</time></trkpt><trkpt lat="38.1309817" lon="14.75157"><ele>406.0</ele><time>2026-04-28T10:44:43.192Z</time></trkpt><trkpt lat="38.1309667" lon="14.75141"><ele>404.5</ele><time>2026-04-28T10:44:44.192Z</time></trkpt><trkpt lat="38.1309583" lon="14.7512567"><ele>403.0</ele><time>2026-04-28T10:44:45.192Z</time></trkpt><trkpt lat="38.1309433" lon="14.7510983"><ele>401.5</ele><time>2026-04-28T10:44:46.193Z</time></trkpt><trkpt lat="38.1309267" lon="14.7509517"><ele>400.0</ele><time>2026-04-28T10:44:47.192Z</time></trkpt><trkpt lat="38.13092" lon="14.75081"><ele>400.0</ele><time>2026-04-28T10:44:48.192Z</time></trkpt><trkpt lat="38.1309167" lon="14.7506733"><ele>400.0</ele><time>2026-04-28T10:44:49.192Z</time></trkpt><trkpt lat="38.130935" lon="14.7505367"><ele>400.0</ele><time>2026-04-28T10:44:50.192Z</time></trkpt><trkpt lat="38.130965" lon="14.750395"><ele>400.0</ele><time>2026-04-28T10:44:51.192Z</time></trkpt><trkpt lat="38.131005" lon="14.7502617"><ele>400.0</ele><time>2026-04-28T10:44:52.193Z</time></trkpt><trkpt lat="38.1310467" lon="14.75013"><ele>397.5</ele><time>2026-04-28T10:44:53.192Z</time></trkpt><trkpt lat="38.131085" lon="14.74999"><ele>395.0</ele><time>2026-04-28T10:44:54.192Z</time></trkpt><trkpt lat="38.1311367" lon="14.74986"><ele>392.5</ele><time>2026-04-28T10:44:55.192Z</time></trkpt><trkpt lat="38.1311833" lon="14.749725"><ele>390.0</ele><time>2026-04-28T10:44:56.192Z</time></trkpt><trkpt lat="38.1312233" lon="14.7495883"><ele>390.0</ele><time>2026-04-28T10:44:57.192Z</time></trkpt><trkpt lat="38.1312667" lon="14.7494567"><ele>390.0</ele><time>2026-04-28T10:44:58.192Z</time></trkpt><trkpt lat="38.131315" lon="14.7493283"><ele>390.0</ele><time>2026-04-28T10:44:59.192Z</time></trkpt><trkpt lat="38.131355" lon="14.749215"><ele>390.0</ele><time>2026-04-28T10:45:00.192Z</time></trkpt><trkpt lat="38.1313933" lon="14.7491217"><ele>390.0</ele><time>2026-04-28T10:45:01.192Z</time></trkpt><trkpt lat="38.1314417" lon="14.7490467"><ele>390.0</ele><time>2026-04-28T10:45:02.192Z</time></trkpt><trkpt lat="38.1315033" lon="14.7489933"><ele>390.0</ele><time>2026-04-28T10:45:03.192Z</time></trkpt><trkpt lat="38.1316067" lon="14.7489667"><ele>390.0</ele><time>2026-04-28T10:45:05.192Z</time></trkpt><trkpt lat="38.131665" lon="14.7490467"><ele>390.0</ele><time>2026-04-28T10:45:08.192Z</time></trkpt><trkpt lat="38.1317033" lon="14.7491433"><ele>390.0</ele><time>2026-04-28T10:45:10.193Z</time></trkpt><trkpt lat="38.1317617" lon="14.7492783"><ele>390.0</ele><time>2026-04-28T10:45:12.192Z</time></trkpt><trkpt lat="38.1317933" lon="14.7493483"><ele>390.0</ele><time>2026-04-28T10:45:13.193Z</time></trkpt><trkpt lat="38.1318317" lon="14.7494633"><ele>390.0</ele><time>2026-04-28T10:45:15.192Z</time></trkpt><trkpt lat="38.1318483" lon="14.7495933"><ele>390.0</ele><time>2026-04-28T10:45:17.192Z</time></trkpt><trkpt lat="38.1318417" lon="14.749745"><ele>390.0</ele><time>2026-04-28T10:45:19.192Z</time></trkpt><trkpt lat="38.1318517" lon="14.7498383"><ele>392.1666666666667</ele><time>2026-04-28T10:45:20.192Z</time></trkpt><trkpt lat="38.1318817" lon="14.7499267"><ele>394.33333333333337</ele><time>2026-04-28T10:45:21.192Z</time></trkpt><trkpt lat="38.1319267" lon="14.7500183"><ele>396.5</ele><time>2026-04-28T10:45:22.193Z</time></trkpt><trkpt lat="38.1319733" lon="14.7501117"><ele>398.6666666666667</ele><time>2026-04-28T10:45:23.192Z</time></trkpt><trkpt lat="38.132015" lon="14.750195"><ele>400.83333333333337</ele><time>2026-04-28T10:45:24.193Z</time></trkpt><trkpt lat="38.132055" lon="14.7502717"><ele>403.0</ele><time>2026-04-28T10:45:25.192Z</time></trkpt><trkpt lat="38.1320883" lon="14.7503483"><ele>404.1666666666667</ele><time>2026-04-28T10:45:26.193Z</time></trkpt><trkpt lat="38.1321233" lon="14.750425"><ele>405.33333333333337</ele><time>2026-04-28T10:45:27.192Z</time></trkpt><trkpt lat="38.132165" lon="14.75049"><ele>406.5</ele><time>2026-04-28T10:45:28.192Z</time></trkpt><trkpt lat="38.1322467" lon="14.7506267"><ele>407.66666666666663</ele><time>2026-04-28T10:45:30.192Z</time></trkpt><trkpt lat="38.1322883" lon="14.7507067"><ele>408.8333333333333</ele><time>2026-04-28T10:45:31.192Z</time></trkpt><trkpt lat="38.132325" lon="14.750785"><ele>410.0</ele><time>2026-04-28T10:45:32.192Z</time></trkpt><trkpt lat="38.1323433" lon="14.7508633"><ele>410.0</ele><time>2026-04-28T10:45:33.192Z</time></trkpt><trkpt lat="38.1323467" lon="14.751015"><ele>410.0</ele><time>2026-04-28T10:45:35.192Z</time></trkpt><trkpt lat="38.1323083" lon="14.7511583"><ele>410.0</ele><time>2026-04-28T10:45:37.192Z</time></trkpt><trkpt lat="38.1322733" lon="14.7512367"><ele>410.0</ele><time>2026-04-28T10:45:38.192Z</time></trkpt><trkpt lat="38.13222" lon="14.7513633"><ele>410.0</ele><time>2026-04-28T10:45:40.193Z</time></trkpt><trkpt lat="38.1322083" lon="14.7514467"><ele>408.16666666666663</ele><time>2026-04-28T10:45:42.192Z</time></trkpt><trkpt lat="38.1322733" lon="14.7514533"><ele>406.3333333333333</ele><time>2026-04-28T10:45:44.192Z</time></trkpt><trkpt lat="38.1323433" lon="14.7513567"><ele>404.5</ele><time>2026-04-28T10:45:46.192Z</time></trkpt><trkpt lat="38.13239" lon="14.7512867"><ele>402.66666666666663</ele><time>2026-04-28T10:45:47.192Z</time></trkpt><trkpt lat="38.1324467" lon="14.7512217"><ele>400.8333333333333</ele><time>2026-04-28T10:45:48.192Z</time></trkpt><trkpt lat="38.1325117" lon="14.751165"><ele>399.0</ele><time>2026-04-28T10:45:49.192Z</time></trkpt><trkpt lat="38.1325833" lon="14.751115"><ele>394.8333333333333</ele><time>2026-04-28T10:45:50.192Z</time></trkpt><trkpt lat="38.1326517" lon="14.7510667"><ele>390.6666666666667</ele><time>2026-04-28T10:45:51.192Z</time></trkpt><trkpt lat="38.1327133" lon="14.751025"><ele>386.5</ele><time>2026-04-28T10:45:52.192Z</time></trkpt><trkpt lat="38.132775" lon="14.750975"><ele>382.33333333333337</ele><time>2026-04-28T10:45:53.192Z</time></trkpt><trkpt lat="38.132835" lon="14.7509383"><ele>378.1666666666667</ele><time>2026-04-28T10:45:54.192Z</time></trkpt><trkpt lat="38.1329367" lon="14.750845"><ele>374.0</ele><time>2026-04-28T10:45:56.192Z</time></trkpt><trkpt lat="38.13299" lon="14.7507233"><ele>374.0</ele><time>2026-04-28T10:45:58.192Z</time></trkpt><trkpt lat="38.1329817" lon="14.7505933"><ele>374.0</ele><time>2026-04-28T10:46:00.193Z</time></trkpt><trkpt lat="38.1329467" lon="14.7504333"><ele>374.0</ele><time>2026-04-28T10:46:02.193Z</time></trkpt><trkpt lat="38.1329483" lon="14.7503367"><ele>374.0</ele><time>2026-04-28T10:46:03.192Z</time></trkpt><trkpt lat="38.13297" lon="14.7502333"><ele>374.0</ele><time>2026-04-28T10:46:04.192Z</time></trkpt><trkpt lat="38.133" lon="14.7501133"><ele>373.0</ele><time>2026-04-28T10:46:05.193Z</time></trkpt><trkpt lat="38.1330283" lon="14.7499867"><ele>372.0</ele><time>2026-04-28T10:46:06.192Z</time></trkpt><trkpt lat="38.13306" lon="14.749855"><ele>371.0</ele><time>2026-04-28T10:46:07.192Z</time></trkpt><trkpt lat="38.1330933" lon="14.7497367"><ele>370.0</ele><time>2026-04-28T10:46:08.192Z</time></trkpt><trkpt lat="38.1331217" lon="14.7496367"><ele>369.0</ele><time>2026-04-28T10:46:09.192Z</time></trkpt><trkpt lat="38.13314" lon="14.7495433"><ele>369.0</ele><time>2026-04-28T10:46:10.192Z</time></trkpt><trkpt lat="38.1331617" lon="14.7494567"><ele>369.0</ele><time>2026-04-28T10:46:11.192Z</time></trkpt><trkpt lat="38.133175" lon="14.7493767"><ele>369.0</ele><time>2026-04-28T10:46:12.192Z</time></trkpt><trkpt lat="38.1331767" lon="14.7492933"><ele>369.0</ele><time>2026-04-28T10:46:13.192Z</time></trkpt><trkpt lat="38.1331417" lon="14.7491517"><ele>369.0</ele><time>2026-04-28T10:46:15.193Z</time></trkpt><trkpt lat="38.1331233" lon="14.7490017"><ele>369.0</ele><time>2026-04-28T10:46:17.192Z</time></trkpt><trkpt lat="38.13315" lon="14.7488467"><ele>367.57142857142856</ele><time>2026-04-28T10:46:19.193Z</time></trkpt><trkpt lat="38.1331617" lon="14.748765"><ele>366.1428571428571</ele><time>2026-04-28T10:46:20.192Z</time></trkpt><trkpt lat="38.13316" lon="14.7486767"><ele>364.7142857142857</ele><time>2026-04-28T10:46:21.192Z</time></trkpt><trkpt lat="38.1331483" lon="14.748585"><ele>363.2857142857143</ele><time>2026-04-28T10:46:22.192Z</time></trkpt><trkpt lat="38.1331367" lon="14.7484967"><ele>361.8571428571429</ele><time>2026-04-28T10:46:23.192Z</time></trkpt><trkpt lat="38.1331183" lon="14.74841"><ele>360.42857142857144</ele><time>2026-04-28T10:46:24.192Z</time></trkpt><trkpt lat="38.1330883" lon="14.7483233"><ele>359.0</ele><time>2026-04-28T10:46:25.192Z</time></trkpt><trkpt lat="38.1330667" lon="14.7482383"><ele>359.0</ele><time>2026-04-28T10:46:26.192Z</time></trkpt><trkpt lat="38.1330517" lon="14.7481567"><ele>359.0</ele><time>2026-04-28T10:46:27.192Z</time></trkpt><trkpt lat="38.1330383" lon="14.7480717"><ele>359.0</ele><time>2026-04-28T10:46:28.192Z</time></trkpt><trkpt lat="38.1330283" lon="14.7479767"><ele>359.0</ele><time>2026-04-28T10:46:29.192Z</time></trkpt><trkpt lat="38.1330183" lon="14.74788"><ele>359.0</ele><time>2026-04-28T10:46:30.192Z</time></trkpt><trkpt lat="38.1330117" lon="14.7477783"><ele>359.0</ele><time>2026-04-28T10:46:31.192Z</time></trkpt><trkpt lat="38.1330083" lon="14.7476767"><ele>359.0</ele><time>2026-04-28T10:46:32.192Z</time></trkpt><trkpt lat="38.1330067" lon="14.747575"><ele>360.6666666666667</ele><time>2026-04-28T10:46:33.192Z</time></trkpt><trkpt lat="38.1330083" lon="14.7474783"><ele>362.33333333333337</ele><time>2026-04-28T10:46:34.193Z</time></trkpt><trkpt lat="38.133015" lon="14.7473867"><ele>364.0</ele><time>2026-04-28T10:46:35.192Z</time></trkpt><trkpt lat="38.133035" lon="14.7473083"><ele>365.6666666666667</ele><time>2026-04-28T10:46:36.192Z</time></trkpt><trkpt lat="38.1330983" lon="14.7471617"><ele>367.3333333333333</ele><time>2026-04-28T10:46:38.192Z</time></trkpt><trkpt lat="38.1331333" lon="14.747095"><ele>369.0</ele><time>2026-04-28T10:46:39.193Z</time></trkpt><trkpt lat="38.1332167" lon="14.7469733"><ele>361.6666666666667</ele><time>2026-04-28T10:46:41.192Z</time></trkpt><trkpt lat="38.13328" lon="14.7468367"><ele>354.3333333333333</ele><time>2026-04-28T10:46:43.192Z</time></trkpt><trkpt lat="38.1333033" lon="14.7467567"><ele>347.0</ele><time>2026-04-28T10:46:44.192Z</time></trkpt><trkpt lat="38.13333" lon="14.746675"><ele>339.66666666666663</ele><time>2026-04-28T10:46:45.192Z</time></trkpt><trkpt lat="38.1333583" lon="14.7466017"><ele>332.3333333333333</ele><time>2026-04-28T10:46:46.192Z</time></trkpt><trkpt lat="38.1334133" lon="14.7464717"><ele>325.0</ele><time>2026-04-28T10:46:48.193Z</time></trkpt><trkpt lat="38.1334567" lon="14.7463467"><ele>325.0</ele><time>2026-04-28T10:46:50.192Z</time></trkpt><trkpt lat="38.1334367" lon="14.7462"><ele>325.0</ele><time>2026-04-28T10:46:52.193Z</time></trkpt><trkpt lat="38.1333833" lon="14.74608"><ele>325.0</ele><time>2026-04-28T10:46:54.192Z</time></trkpt><trkpt lat="38.1333117" lon="14.7459683"><ele>325.0</ele><time>2026-04-28T10:46:56.192Z</time></trkpt><trkpt lat="38.1332767" lon="14.7458967"><ele>325.0</ele><time>2026-04-28T10:46:57.192Z</time></trkpt><trkpt lat="38.1332483" lon="14.7458117"><ele>327.16666666666663</ele><time>2026-04-28T10:46:58.192Z</time></trkpt><trkpt lat="38.1332217" lon="14.7457167"><ele>329.3333333333333</ele><time>2026-04-28T10:46:59.192Z</time></trkpt><trkpt lat="38.1331917" lon="14.7456117"><ele>331.5</ele><time>2026-04-28T10:47:00.192Z</time></trkpt><trkpt lat="38.133165" lon="14.745505"><ele>333.6666666666667</ele><time>2026-04-28T10:47:01.193Z</time></trkpt><trkpt lat="38.133135" lon="14.7454017"><ele>335.83333333333337</ele><time>2026-04-28T10:47:02.193Z</time></trkpt><trkpt lat="38.1331067" lon="14.74531"><ele>338.0</ele><time>2026-04-28T10:47:03.193Z</time></trkpt><trkpt lat="38.1330767" lon="14.7452217"><ele>336.33333333333337</ele><time>2026-04-28T10:47:04.193Z</time></trkpt><trkpt lat="38.13305" lon="14.7451217"><ele>334.6666666666667</ele><time>2026-04-28T10:47:05.192Z</time></trkpt><trkpt lat="38.1330233" lon="14.7450283"><ele>333.0</ele><time>2026-04-28T10:47:06.192Z</time></trkpt><trkpt lat="38.1329967" lon="14.744945"><ele>331.3333333333333</ele><time>2026-04-28T10:47:07.193Z</time></trkpt><trkpt lat="38.1329467" lon="14.744785"><ele>329.66666666666663</ele><time>2026-04-28T10:47:09.192Z</time></trkpt><trkpt lat="38.1329133" lon="14.7447117"><ele>328.0</ele><time>2026-04-28T10:47:10.192Z</time></trkpt><trkpt lat="38.1328733" lon="14.7446483"><ele>328.0</ele><time>2026-04-28T10:47:11.192Z</time></trkpt><trkpt lat="38.1328267" lon="14.7445883"><ele>328.0</ele><time>2026-04-28T10:47:12.192Z</time></trkpt><trkpt lat="38.132755" lon="14.74449"><ele>328.0</ele><time>2026-04-28T10:47:14.192Z</time></trkpt><trkpt lat="38.1326983" lon="14.7443833"><ele>328.0</ele><time>2026-04-28T10:47:16.192Z</time></trkpt><trkpt lat="38.1326317" lon="14.744305"><ele>328.0</ele><time>2026-04-28T10:47:18.193Z</time></trkpt><trkpt lat="38.13256" lon="14.74427"><ele>328.0</ele><time>2026-04-28T10:47:20.192Z</time></trkpt><trkpt lat="38.1325367" lon="14.7441883"><ele>322.4</ele><time>2026-04-28T10:47:23.192Z</time></trkpt><trkpt lat="38.1326083" lon="14.744115"><ele>316.79999999999995</ele><time>2026-04-28T10:47:25.193Z</time></trkpt><trkpt lat="38.1327" lon="14.744045"><ele>311.2</ele><time>2026-04-28T10:47:27.192Z</time></trkpt><trkpt lat="38.132805" lon="14.743995"><ele>305.6</ele><time>2026-04-28T10:47:29.191Z</time></trkpt><trkpt lat="38.13288" lon="14.7439433"><ele>300.0</ele><time>2026-04-28T10:47:31.192Z</time></trkpt><trkpt lat="38.1328583" lon="14.7438333"><ele>300.0</ele><time>2026-04-28T10:47:34.192Z</time></trkpt><trkpt lat="38.132785" lon="14.74378"><ele>300.0</ele><time>2026-04-28T10:47:36.192Z</time></trkpt><trkpt lat="38.13268" lon="14.7437467"><ele>300.0</ele><time>2026-04-28T10:47:38.192Z</time></trkpt><trkpt lat="38.1325617" lon="14.7437417"><ele>300.0</ele><time>2026-04-28T10:47:40.192Z</time></trkpt><trkpt lat="38.132435" lon="14.7437317"><ele>300.0</ele><time>2026-04-28T10:47:42.192Z</time></trkpt><trkpt lat="38.1323667" lon="14.743715"><ele>298.3333333333333</ele><time>2026-04-28T10:47:43.192Z</time></trkpt><trkpt lat="38.1322933" lon="14.7437033"><ele>296.6666666666667</ele><time>2026-04-28T10:47:44.193Z</time></trkpt><trkpt lat="38.13222" lon="14.7436933"><ele>295.0</ele><time>2026-04-28T10:47:45.192Z</time></trkpt><trkpt lat="38.1321467" lon="14.7436817"><ele>293.33333333333337</ele><time>2026-04-28T10:47:46.193Z</time></trkpt><trkpt lat="38.1320667" lon="14.743665"><ele>291.6666666666667</ele><time>2026-04-28T10:47:47.192Z</time></trkpt><trkpt lat="38.1319867" lon="14.743645"><ele>290.0</ele><time>2026-04-28T10:47:48.192Z</time></trkpt><trkpt lat="38.1319083" lon="14.7436267"><ele>290.0</ele><time>2026-04-28T10:47:49.192Z</time></trkpt><trkpt lat="38.13183" lon="14.7436067"><ele>290.0</ele><time>2026-04-28T10:47:50.192Z</time></trkpt><trkpt lat="38.1317567" lon="14.74358"><ele>290.0</ele><time>2026-04-28T10:47:51.192Z</time></trkpt><trkpt lat="38.1316433" lon="14.7435433"><ele>290.0</ele><time>2026-04-28T10:47:53.192Z</time></trkpt><trkpt lat="38.1315367" lon="14.7434883"><ele>290.0</ele><time>2026-04-28T10:47:55.193Z</time></trkpt><trkpt lat="38.13144" lon="14.74347"><ele>281.8</ele><time>2026-04-28T10:47:57.192Z</time></trkpt><trkpt lat="38.1313633" lon="14.7435033"><ele>273.6</ele><time>2026-04-28T10:47:59.192Z</time></trkpt><trkpt lat="38.1313017" lon="14.74345"><ele>265.4</ele><time>2026-04-28T10:48:02.192Z</time></trkpt><trkpt lat="38.1313217" lon="14.7433467"><ele>257.2</ele><time>2026-04-28T10:48:04.192Z</time></trkpt><trkpt lat="38.1313733" lon="14.7432183"><ele>249.0</ele><time>2026-04-28T10:48:06.193Z</time></trkpt><trkpt lat="38.1314333" lon="14.7431"><ele>249.0</ele><time>2026-04-28T10:48:08.192Z</time></trkpt><trkpt lat="38.13148" lon="14.7430167"><ele>249.0</ele><time>2026-04-28T10:48:10.192Z</time></trkpt><trkpt lat="38.13141" lon="14.7429717"><ele>249.0</ele><time>2026-04-28T10:48:13.192Z</time></trkpt><trkpt lat="38.1313317" lon="14.7430183"><ele>249.0</ele><time>2026-04-28T10:48:15.192Z</time></trkpt><trkpt lat="38.131265" lon="14.7430567"><ele>249.0</ele><time>2026-04-28T10:48:17.192Z</time></trkpt><trkpt lat="38.1312083" lon="14.7429817"><ele>249.0</ele><time>2026-04-28T10:48:20.192Z</time></trkpt><trkpt lat="38.1312417" lon="14.7428933"><ele>249.0</ele><time>2026-04-28T10:48:22.193Z</time></trkpt><trkpt lat="38.13133" lon="14.7428133"><ele>249.0</ele><time>2026-04-28T10:48:24.192Z</time></trkpt><trkpt lat="38.1313483" lon="14.7427333"><ele>249.0</ele><time>2026-04-28T10:48:26.192Z</time></trkpt><trkpt lat="38.1312833" lon="14.7427067"><ele>249.0</ele><time>2026-04-28T10:48:29.192Z</time></trkpt><trkpt lat="38.1311967" lon="14.7427433"><ele>249.0</ele><time>2026-04-28T10:48:32.192Z</time></trkpt><trkpt lat="38.13112" lon="14.7427817"><ele>249.0</ele><time>2026-04-28T10:48:34.192Z</time></trkpt><trkpt lat="38.131025" lon="14.7428367"><ele>249.0</ele><time>2026-04-28T10:48:36.192Z</time></trkpt><trkpt lat="38.1309567" lon="14.74292"><ele>248.99999999999997</ele><time>2026-04-28T10:48:38.192Z</time></trkpt><trkpt lat="38.1309133" lon="14.7430083"><ele>248.99999999999997</ele><time>2026-04-28T10:48:40.192Z</time></trkpt><trkpt lat="38.13085" lon="14.7430217"><ele>249.0</ele><time>2026-04-28T10:48:42.192Z</time></trkpt><trkpt lat="38.1308083" lon="14.7429217"><ele>249.0</ele><time>2026-04-28T10:48:44.192Z</time></trkpt><trkpt lat="38.13079" lon="14.74277"><ele>245.0</ele><time>2026-04-28T10:48:46.193Z</time></trkpt><trkpt lat="38.1308033" lon="14.742615"><ele>240.99999999999997</ele><time>2026-04-28T10:48:48.192Z</time></trkpt><trkpt lat="38.130835" lon="14.7424783"><ele>236.99999999999997</ele><time>2026-04-28T10:48:50.192Z</time></trkpt><trkpt lat="38.13092" lon="14.7423517"><ele>233.0</ele><time>2026-04-28T10:48:52.192Z</time></trkpt><trkpt lat="38.130975" lon="14.742305"><ele>229.0</ele><time>2026-04-28T10:48:53.193Z</time></trkpt><trkpt lat="38.1310283" lon="14.7422483"><ele>228.99999999999997</ele><time>2026-04-28T10:48:54.192Z</time></trkpt><trkpt lat="38.1311083" lon="14.7421283"><ele>229.0</ele><time>2026-04-28T10:48:56.192Z</time></trkpt><trkpt lat="38.1311417" lon="14.7420567"><ele>229.0</ele><time>2026-04-28T10:48:57.192Z</time></trkpt><trkpt lat="38.131175" lon="14.7419833"><ele>229.0</ele><time>2026-04-28T10:48:58.192Z</time></trkpt><trkpt lat="38.13121" lon="14.7419083"><ele>228.99999999999997</ele><time>2026-04-28T10:48:59.192Z</time></trkpt><trkpt lat="38.1312383" lon="14.7418367"><ele>229.0</ele><time>2026-04-28T10:49:00.192Z</time></trkpt><trkpt lat="38.1312717" lon="14.7417667"><ele>224.39999999999998</ele><time>2026-04-28T10:49:01.193Z</time></trkpt><trkpt lat="38.131325" lon="14.7416367"><ele>219.79999999999998</ele><time>2026-04-28T10:49:03.192Z</time></trkpt><trkpt lat="38.1313617" lon="14.7414917"><ele>215.2</ele><time>2026-04-28T10:49:05.193Z</time></trkpt><trkpt lat="38.131395" lon="14.7413533"><ele>210.60000000000002</ele><time>2026-04-28T10:49:07.192Z</time></trkpt><trkpt lat="38.13144" lon="14.7412633"><ele>206.0</ele><time>2026-04-28T10:49:09.193Z</time></trkpt><trkpt lat="38.131395" lon="14.7411783"><ele>206.00000000000003</ele><time>2026-04-28T10:49:12.192Z</time></trkpt><trkpt lat="38.1313067" lon="14.7412583"><ele>206.0</ele><time>2026-04-28T10:49:14.192Z</time></trkpt><trkpt lat="38.1312483" lon="14.74132"><ele>206.0</ele><time>2026-04-28T10:49:15.193Z</time></trkpt><trkpt lat="38.1311883" lon="14.7413767"><ele>206.0</ele><time>2026-04-28T10:49:16.192Z</time></trkpt><trkpt lat="38.1311167" lon="14.7414217"><ele>206.00000000000003</ele><time>2026-04-28T10:49:17.192Z</time></trkpt><trkpt lat="38.131045" lon="14.7414717"><ele>206.0</ele><time>2026-04-28T10:49:18.192Z</time></trkpt><trkpt lat="38.13097" lon="14.741535"><ele>206.00000000000003</ele><time>2026-04-28T10:49:19.192Z</time></trkpt><trkpt lat="38.1309" lon="14.7416017"><ele>206.0</ele><time>2026-04-28T10:49:20.192Z</time></trkpt><trkpt lat="38.1308333" lon="14.74167"><ele>206.0</ele><time>2026-04-28T10:49:21.192Z</time></trkpt><trkpt lat="38.130765" lon="14.7417317"><ele>206.0</ele><time>2026-04-28T10:49:22.192Z</time></trkpt><trkpt lat="38.1306983" lon="14.7417817"><ele>206.00000000000003</ele><time>2026-04-28T10:49:23.192Z</time></trkpt><trkpt lat="38.1306367" lon="14.7418333"><ele>206.0</ele><time>2026-04-28T10:49:24.193Z</time></trkpt><trkpt lat="38.1305733" lon="14.7418783"><ele>204.57142857142856</ele><time>2026-04-28T10:49:25.193Z</time></trkpt><trkpt lat="38.1305133" lon="14.7419183"><ele>203.14285714285714</ele><time>2026-04-28T10:49:26.193Z</time></trkpt><trkpt lat="38.1304583" lon="14.7419717"><ele>201.71428571428572</ele><time>2026-04-28T10:49:27.192Z</time></trkpt><trkpt lat="38.130405" lon="14.742035"><ele>200.28571428571428</ele><time>2026-04-28T10:49:28.192Z</time></trkpt><trkpt lat="38.13035" lon="14.7421033"><ele>198.85714285714286</ele><time>2026-04-28T10:49:29.192Z</time></trkpt><trkpt lat="38.1302983" lon="14.7421867"><ele>197.42857142857142</ele><time>2026-04-28T10:49:30.192Z</time></trkpt><trkpt lat="38.130255" lon="14.74227"><ele>196.0</ele><time>2026-04-28T10:49:31.193Z</time></trkpt><trkpt lat="38.1302117" lon="14.7423483"><ele>195.99999999999997</ele><time>2026-04-28T10:49:32.193Z</time></trkpt><trkpt lat="38.13017" lon="14.7424367"><ele>196.0</ele><time>2026-04-28T10:49:33.192Z</time></trkpt><trkpt lat="38.1301267" lon="14.74251"><ele>196.0</ele><time>2026-04-28T10:49:34.192Z</time></trkpt><trkpt lat="38.1300683" lon="14.7425733"><ele>196.0</ele><time>2026-04-28T10:49:35.192Z</time></trkpt><trkpt lat="38.1299967" lon="14.74261"><ele>195.99999999999997</ele><time>2026-04-28T10:49:36.192Z</time></trkpt><trkpt lat="38.1299283" lon="14.742625"><ele>196.0</ele><time>2026-04-28T10:49:37.193Z</time></trkpt><trkpt lat="38.1298033" lon="14.7426517"><ele>195.71428571428572</ele><time>2026-04-28T10:49:39.192Z</time></trkpt><trkpt lat="38.129745" lon="14.742685"><ele>195.42857142857144</ele><time>2026-04-28T10:49:40.192Z</time></trkpt><trkpt lat="38.129695" lon="14.7427417"><ele>195.14285714285714</ele><time>2026-04-28T10:49:41.193Z</time></trkpt><trkpt lat="38.12965" lon="14.7428017"><ele>194.85714285714286</ele><time>2026-04-28T10:49:42.192Z</time></trkpt><trkpt lat="38.1296" lon="14.7428617"><ele>194.57142857142858</ele><time>2026-04-28T10:49:43.192Z</time></trkpt><trkpt lat="38.1295383" lon="14.7429183"><ele>194.28571428571428</ele><time>2026-04-28T10:49:44.193Z</time></trkpt><trkpt lat="38.1294683" lon="14.7429633"><ele>194.0</ele><time>2026-04-28T10:49:45.193Z</time></trkpt><trkpt lat="38.129395" lon="14.7429867"><ele>194.00000000000003</ele><time>2026-04-28T10:49:46.192Z</time></trkpt><trkpt lat="38.1293133" lon="14.7429967"><ele>194.0</ele><time>2026-04-28T10:49:47.192Z</time></trkpt><trkpt lat="38.1292333" lon="14.743"><ele>194.0</ele><time>2026-04-28T10:49:48.192Z</time></trkpt><trkpt lat="38.1291633" lon="14.74301"><ele>194.0</ele><time>2026-04-28T10:49:49.192Z</time></trkpt><trkpt lat="38.1291" lon="14.743025"><ele>194.00000000000003</ele><time>2026-04-28T10:49:50.192Z</time></trkpt><trkpt lat="38.1290167" lon="14.7430117"><ele>194.0</ele><time>2026-04-28T10:49:52.192Z</time></trkpt><trkpt lat="38.129025" lon="14.7429083"><ele>194.0</ele><time>2026-04-28T10:49:55.192Z</time></trkpt><trkpt lat="38.1291283" lon="14.7428117"><ele>194.0</ele><time>2026-04-28T10:49:57.192Z</time></trkpt><trkpt lat="38.1291817" lon="14.74274"><ele>194.0</ele><time>2026-04-28T10:49:58.192Z</time></trkpt><trkpt lat="38.1292333" lon="14.742655"><ele>194.0</ele><time>2026-04-28T10:49:59.192Z</time></trkpt><trkpt lat="38.129285" lon="14.7425583"><ele>194.0</ele><time>2026-04-28T10:50:00.192Z</time></trkpt><trkpt lat="38.1293333" lon="14.7424683"><ele>190.50000000000003</ele><time>2026-04-28T10:50:01.192Z</time></trkpt><trkpt lat="38.1293817" lon="14.7423883"><ele>187.0</ele><time>2026-04-28T10:50:02.192Z</time></trkpt><trkpt lat="38.12944" lon="14.7423183"><ele>183.5</ele><time>2026-04-28T10:50:03.193Z</time></trkpt><trkpt lat="38.129515" lon="14.7422567"><ele>180.0</ele><time>2026-04-28T10:50:04.192Z</time></trkpt><trkpt lat="38.1295833" lon="14.7421933"><ele>176.5</ele><time>2026-04-28T10:50:05.192Z</time></trkpt><trkpt lat="38.12965" lon="14.74213"><ele>173.0</ele><time>2026-04-28T10:50:06.192Z</time></trkpt><trkpt lat="38.1297133" lon="14.74207"><ele>173.0</ele><time>2026-04-28T10:50:07.192Z</time></trkpt><trkpt lat="38.1297867" lon="14.7419433"><ele>173.0</ele><time>2026-04-28T10:50:09.192Z</time></trkpt><trkpt lat="38.1298183" lon="14.7418617"><ele>173.0</ele><time>2026-04-28T10:50:10.192Z</time></trkpt><trkpt lat="38.12985" lon="14.7417867"><ele>173.0</ele><time>2026-04-28T10:50:11.191Z</time></trkpt><trkpt lat="38.12988" lon="14.7417033"><ele>173.0</ele><time>2026-04-28T10:50:12.191Z</time></trkpt><trkpt lat="38.1298983" lon="14.74161"><ele>173.0</ele><time>2026-04-28T10:50:13.191Z</time></trkpt><trkpt lat="38.1299067" lon="14.741525"><ele>173.28571428571428</ele><time>2026-04-28T10:50:14.191Z</time></trkpt><trkpt lat="38.129905" lon="14.741435"><ele>173.57142857142858</ele><time>2026-04-28T10:50:15.191Z</time></trkpt><trkpt lat="38.1298983" lon="14.7413467"><ele>173.85714285714286</ele><time>2026-04-28T10:50:16.191Z</time></trkpt><trkpt lat="38.12989" lon="14.7412583"><ele>174.14285714285714</ele><time>2026-04-28T10:50:17.191Z</time></trkpt><trkpt lat="38.129885" lon="14.7411717"><ele>174.42857142857144</ele><time>2026-04-28T10:50:18.191Z</time></trkpt><trkpt lat="38.1298767" lon="14.7410867"><ele>174.71428571428572</ele><time>2026-04-28T10:50:19.191Z</time></trkpt><trkpt lat="38.1298817" lon="14.7410067"><ele>175.0</ele><time>2026-04-28T10:50:20.192Z</time></trkpt><trkpt lat="38.1298917" lon="14.7409267"><ele>171.6</ele><time>2026-04-28T10:50:21.191Z</time></trkpt><trkpt lat="38.1299283" lon="14.7407867"><ele>168.2</ele><time>2026-04-28T10:50:23.191Z</time></trkpt><trkpt lat="38.1300083" lon="14.7406767"><ele>164.8</ele><time>2026-04-28T10:50:25.192Z</time></trkpt><trkpt lat="38.1301217" lon="14.740615"><ele>161.4</ele><time>2026-04-28T10:50:27.191Z</time></trkpt><trkpt lat="38.1301933" lon="14.74061"><ele>158.0</ele><time>2026-04-28T10:50:28.192Z</time></trkpt><trkpt lat="38.1302617" lon="14.7406067"><ele>158.0</ele><time>2026-04-28T10:50:29.192Z</time></trkpt><trkpt lat="38.1303567" lon="14.74055"><ele>158.0</ele><time>2026-04-28T10:50:31.191Z</time></trkpt><trkpt lat="38.1303783" lon="14.74042"><ele>158.0</ele><time>2026-04-28T10:50:33.191Z</time></trkpt><trkpt lat="38.1303783" lon="14.7403333"><ele>158.0</ele><time>2026-04-28T10:50:34.191Z</time></trkpt><trkpt lat="38.1303817" lon="14.7402333"><ele>158.0</ele><time>2026-04-28T10:50:35.191Z</time></trkpt><trkpt lat="38.1303883" lon="14.740135"><ele>158.0</ele><time>2026-04-28T10:50:36.192Z</time></trkpt><trkpt lat="38.1303933" lon="14.7400367"><ele>155.2857142857143</ele><time>2026-04-28T10:50:37.191Z</time></trkpt><trkpt lat="38.1304067" lon="14.7399433"><ele>152.57142857142858</ele><time>2026-04-28T10:50:38.191Z</time></trkpt><trkpt lat="38.1304217" lon="14.739855"><ele>149.85714285714286</ele><time>2026-04-28T10:50:39.191Z</time></trkpt><trkpt lat="38.1304467" lon="14.739775"><ele>147.14285714285717</ele><time>2026-04-28T10:50:40.191Z</time></trkpt><trkpt lat="38.1304783" lon="14.7397"><ele>144.42857142857144</ele><time>2026-04-28T10:50:41.191Z</time></trkpt><trkpt lat="38.13052" lon="14.7396133"><ele>141.71428571428572</ele><time>2026-04-28T10:50:42.191Z</time></trkpt><trkpt lat="38.1305683" lon="14.7395183"><ele>139.0</ele><time>2026-04-28T10:50:43.191Z</time></trkpt><trkpt lat="38.1306217" lon="14.7394267"><ele>137.16666666666669</ele><time>2026-04-28T10:50:44.191Z</time></trkpt><trkpt lat="38.13069" lon="14.7393333"><ele>135.33333333333334</ele><time>2026-04-28T10:50:45.191Z</time></trkpt><trkpt lat="38.130745" lon="14.7392317"><ele>133.5</ele><time>2026-04-28T10:50:46.192Z</time></trkpt><trkpt lat="38.1307917" lon="14.7391483"><ele>131.66666666666666</ele><time>2026-04-28T10:50:47.191Z</time></trkpt><trkpt lat="38.1308317" lon="14.739055"><ele>129.83333333333331</ele><time>2026-04-28T10:50:48.191Z</time></trkpt><trkpt lat="38.1308683" lon="14.738955"><ele>128.0</ele><time>2026-04-28T10:50:49.191Z</time></trkpt><trkpt lat="38.1308833" lon="14.7388433"><ele>130.5</ele><time>2026-04-28T10:50:50.191Z</time></trkpt><trkpt lat="38.130895" lon="14.7387233"><ele>133.0</ele><time>2026-04-28T10:50:51.191Z</time></trkpt><trkpt lat="38.1309167" lon="14.7386033"><ele>135.5</ele><time>2026-04-28T10:50:52.191Z</time></trkpt><trkpt lat="38.13094" lon="14.738495"><ele>138.0</ele><time>2026-04-28T10:50:53.191Z</time></trkpt><trkpt lat="38.1309717" lon="14.7383867"><ele>140.5</ele><time>2026-04-28T10:50:54.191Z</time></trkpt><trkpt lat="38.1309933" lon="14.738295"><ele>143.0</ele><time>2026-04-28T10:50:55.191Z</time></trkpt><trkpt lat="38.1310067" lon="14.7382133"><ele>143.0</ele><time>2026-04-28T10:50:56.191Z</time></trkpt><trkpt lat="38.1310267" lon="14.7381183"><ele>143.0</ele><time>2026-04-28T10:50:58.191Z</time></trkpt><trkpt lat="38.1310967" lon="14.7381267"><ele>143.0</ele><time>2026-04-28T10:51:36.191Z</time></trkpt><trkpt lat="38.1311633" lon="14.73818"><ele>143.0</ele><time>2026-04-28T10:51:38.191Z</time></trkpt><trkpt lat="38.1312333" lon="14.7382383"><ele>143.0</ele><time>2026-04-28T10:51:42.192Z</time></trkpt><trkpt lat="38.1313217" lon="14.7382733"><ele>143.0</ele><time>2026-04-28T10:51:45.191Z</time></trkpt><trkpt lat="38.1313933" lon="14.738295"><ele>143.0</ele><time>2026-04-28T10:51:47.192Z</time></trkpt><trkpt lat="38.1314733" lon="14.7382833"><ele>143.0</ele><time>2026-04-28T10:51:49.191Z</time></trkpt><trkpt lat="38.1315083" lon="14.7381733"><ele>143.0</ele><time>2026-04-28T10:51:51.191Z</time></trkpt><trkpt lat="38.1315483" lon="14.7380483"><ele>143.0</ele><time>2026-04-28T10:51:53.191Z</time></trkpt><trkpt lat="38.13162" lon="14.73794"><ele>143.0</ele><time>2026-04-28T10:51:55.191Z</time></trkpt><trkpt lat="38.1316783" lon="14.7379017"><ele>144.4</ele><time>2026-04-28T10:51:56.191Z</time></trkpt><trkpt lat="38.131795" lon="14.73787"><ele>145.8</ele><time>2026-04-28T10:51:58.191Z</time></trkpt><trkpt lat="38.1319067" lon="14.7378667"><ele>147.2</ele><time>2026-04-28T10:52:00.192Z</time></trkpt><trkpt lat="38.132005" lon="14.7378533"><ele>148.6</ele><time>2026-04-28T10:52:02.192Z</time></trkpt><trkpt lat="38.132075" lon="14.7378367"><ele>150.0</ele><time>2026-04-28T10:52:04.191Z</time></trkpt><trkpt lat="38.132025" lon="14.7377717"><ele>150.0</ele><time>2026-04-28T10:52:06.192Z</time></trkpt><trkpt lat="38.13194" lon="14.7377367"><ele>150.0</ele><time>2026-04-28T10:52:08.191Z</time></trkpt><trkpt lat="38.131915" lon="14.737645"><ele>150.0</ele><time>2026-04-28T10:52:11.191Z</time></trkpt><trkpt lat="38.1320017" lon="14.7375733"><ele>150.0</ele><time>2026-04-28T10:52:13.191Z</time></trkpt><trkpt lat="38.132125" lon="14.7375367"><ele>150.0</ele><time>2026-04-28T10:52:15.191Z</time></trkpt><trkpt lat="38.1321917" lon="14.7375283"><ele>146.66666666666666</ele><time>2026-04-28T10:52:16.192Z</time></trkpt><trkpt lat="38.1323117" lon="14.7374917"><ele>143.33333333333334</ele><time>2026-04-28T10:52:18.191Z</time></trkpt><trkpt lat="38.1323767" lon="14.73747"><ele>140.0</ele><time>2026-04-28T10:52:19.191Z</time></trkpt><trkpt lat="38.1324433" lon="14.7374683"><ele>136.66666666666669</ele><time>2026-04-28T10:52:20.191Z</time></trkpt><trkpt lat="38.1325183" lon="14.7374917"><ele>133.33333333333334</ele><time>2026-04-28T10:52:21.191Z</time></trkpt><trkpt lat="38.132585" lon="14.7375433"><ele>130.0</ele><time>2026-04-28T10:52:22.191Z</time></trkpt><trkpt lat="38.1326417" lon="14.73759"><ele>127.66666666666667</ele><time>2026-04-28T10:52:23.191Z</time></trkpt><trkpt lat="38.1326967" lon="14.73763"><ele>125.33333333333334</ele><time>2026-04-28T10:52:24.191Z</time></trkpt><trkpt lat="38.1327583" lon="14.737655"><ele>123.0</ele><time>2026-04-28T10:52:25.192Z</time></trkpt><trkpt lat="38.1328267" lon="14.73767"><ele>120.66666666666666</ele><time>2026-04-28T10:52:26.191Z</time></trkpt><trkpt lat="38.1329267" lon="14.7376867"><ele>118.33333333333333</ele><time>2026-04-28T10:52:28.191Z</time></trkpt><trkpt lat="38.13298" lon="14.7376333"><ele>116.0</ele><time>2026-04-28T10:52:31.192Z</time></trkpt><trkpt lat="38.1328817" lon="14.7375833"><ele>116.00000000000001</ele><time>2026-04-28T10:52:34.192Z</time></trkpt><trkpt lat="38.1328133" lon="14.73757"><ele>116.0</ele><time>2026-04-28T10:52:35.191Z</time></trkpt><trkpt lat="38.1327417" lon="14.7375467"><ele>116.00000000000001</ele><time>2026-04-28T10:52:36.191Z</time></trkpt><trkpt lat="38.1326733" lon="14.7375083"><ele>116.00000000000001</ele><time>2026-04-28T10:52:37.191Z</time></trkpt><trkpt lat="38.1326183" lon="14.73746"><ele>116.0</ele><time>2026-04-28T10:52:38.191Z</time></trkpt><trkpt lat="38.1325783" lon="14.7373967"><ele>116.00000000000001</ele><time>2026-04-28T10:52:39.191Z</time></trkpt><trkpt lat="38.13255" lon="14.73732"><ele>116.00000000000001</ele><time>2026-04-28T10:52:40.191Z</time></trkpt><trkpt lat="38.13253" lon="14.7372233"><ele>116.0</ele><time>2026-04-28T10:52:41.191Z</time></trkpt><trkpt lat="38.1325283" lon="14.7370967"><ele>116.0</ele><time>2026-04-28T10:52:42.191Z</time></trkpt><trkpt lat="38.1325233" lon="14.7369533"><ele>116.0</ele><time>2026-04-28T10:52:43.192Z</time></trkpt><trkpt lat="38.1325217" lon="14.7368167"><ele>116.0</ele><time>2026-04-28T10:52:44.191Z</time></trkpt><trkpt lat="38.1325167" lon="14.73669"><ele>116.0</ele><time>2026-04-28T10:52:45.191Z</time></trkpt><trkpt lat="38.1325117" lon="14.7365667"><ele>113.6</ele><time>2026-04-28T10:52:46.191Z</time></trkpt><trkpt lat="38.1325033" lon="14.7364383"><ele>111.19999999999999</ele><time>2026-04-28T10:52:47.191Z</time></trkpt><trkpt lat="38.1324983" lon="14.7363183"><ele>108.80000000000001</ele><time>2026-04-28T10:52:48.191Z</time></trkpt><trkpt lat="38.1324933" lon="14.736205"><ele>106.4</ele><time>2026-04-28T10:52:49.191Z</time></trkpt><trkpt lat="38.1324933" lon="14.7360933"><ele>104.0</ele><time>2026-04-28T10:52:50.191Z</time></trkpt><trkpt lat="38.132505" lon="14.7359933"><ele>102.49999999999999</ele><time>2026-04-28T10:52:51.191Z</time></trkpt><trkpt lat="38.1325417" lon="14.7359033"><ele>101.0</ele><time>2026-04-28T10:52:52.191Z</time></trkpt><trkpt lat="38.1325983" lon="14.735825"><ele>99.5</ele><time>2026-04-28T10:52:53.192Z</time></trkpt><trkpt lat="38.13267" lon="14.7357783"><ele>98.0</ele><time>2026-04-28T10:52:54.191Z</time></trkpt><trkpt lat="38.1327517" lon="14.7357583"><ele>96.5</ele><time>2026-04-28T10:52:55.191Z</time></trkpt><trkpt lat="38.132845" lon="14.7357683"><ele>95.0</ele><time>2026-04-28T10:52:56.191Z</time></trkpt><trkpt lat="38.13295" lon="14.7358083"><ele>95.0</ele><time>2026-04-28T10:52:57.191Z</time></trkpt><trkpt lat="38.1330633" lon="14.7358567"><ele>95.0</ele><time>2026-04-28T10:52:58.191Z</time></trkpt><trkpt lat="38.1331767" lon="14.7358967"><ele>95.0</ele><time>2026-04-28T10:52:59.191Z</time></trkpt><trkpt lat="38.1332883" lon="14.7359267"><ele>95.0</ele><time>2026-04-28T10:53:00.191Z</time></trkpt><trkpt lat="38.1334017" lon="14.7359567"><ele>94.4</ele><time>2026-04-28T10:53:01.191Z</time></trkpt><trkpt lat="38.1335167" lon="14.7359883"><ele>93.8</ele><time>2026-04-28T10:53:02.191Z</time></trkpt><trkpt lat="38.1336267" lon="14.73603"><ele>93.19999999999999</ele><time>2026-04-28T10:53:03.191Z</time></trkpt><trkpt lat="38.1337283" lon="14.7360633"><ele>92.6</ele><time>2026-04-28T10:53:04.191Z</time></trkpt><trkpt lat="38.133815" lon="14.736115"><ele>92.0</ele><time>2026-04-28T10:53:05.191Z</time></trkpt><trkpt lat="38.1338883" lon="14.7361817"><ele>92.39999999999999</ele><time>2026-04-28T10:53:06.191Z</time></trkpt><trkpt lat="38.1339617" lon="14.73627"><ele>92.8</ele><time>2026-04-28T10:53:07.192Z</time></trkpt><trkpt lat="38.13403" lon="14.7363733"><ele>93.2</ele><time>2026-04-28T10:53:08.191Z</time></trkpt><trkpt lat="38.1340917" lon="14.7364833"><ele>93.6</ele><time>2026-04-28T10:53:09.191Z</time></trkpt><trkpt lat="38.13415" lon="14.7365833"><ele>94.0</ele><time>2026-04-28T10:53:10.191Z</time></trkpt><trkpt lat="38.1342167" lon="14.7366617"><ele>94.0</ele><time>2026-04-28T10:53:11.191Z</time></trkpt><trkpt lat="38.1342883" lon="14.7367133"><ele>94.0</ele><time>2026-04-28T10:53:12.191Z</time></trkpt><trkpt lat="38.1343733" lon="14.7367283"><ele>94.0</ele><time>2026-04-28T10:53:13.191Z</time></trkpt><trkpt lat="38.13446" lon="14.7367133"><ele>94.0</ele><time>2026-04-28T10:53:14.191Z</time></trkpt><trkpt lat="38.1345417" lon="14.7366767"><ele>94.0</ele><time>2026-04-28T10:53:15.191Z</time></trkpt><trkpt lat="38.134625" lon="14.7366233"><ele>94.0</ele><time>2026-04-28T10:53:16.191Z</time></trkpt><trkpt lat="38.1347117" lon="14.7365733"><ele>94.0</ele><time>2026-04-28T10:53:17.191Z</time></trkpt><trkpt lat="38.1348017" lon="14.7365367"><ele>94.0</ele><time>2026-04-28T10:53:18.191Z</time></trkpt><trkpt lat="38.13488" lon="14.7364967"><ele>94.0</ele><time>2026-04-28T10:53:19.191Z</time></trkpt><trkpt lat="38.134965" lon="14.736445"><ele>94.0</ele><time>2026-04-28T10:53:20.191Z</time></trkpt><trkpt lat="38.1350433" lon="14.7363733"><ele>94.0</ele><time>2026-04-28T10:53:21.191Z</time></trkpt><trkpt lat="38.1351217" lon="14.736295"><ele>93.4</ele><time>2026-04-28T10:53:22.191Z</time></trkpt><trkpt lat="38.1351967" lon="14.736215"><ele>92.80000000000001</ele><time>2026-04-28T10:53:23.192Z</time></trkpt><trkpt lat="38.1352733" lon="14.7361283"><ele>92.19999999999999</ele><time>2026-04-28T10:53:24.192Z</time></trkpt><trkpt lat="38.1353517" lon="14.7360517"><ele>91.6</ele><time>2026-04-28T10:53:25.191Z</time></trkpt><trkpt lat="38.1354233" lon="14.735975"><ele>91.0</ele><time>2026-04-28T10:53:26.191Z</time></trkpt><trkpt lat="38.1355083" lon="14.735905"><ele>88.8</ele><time>2026-04-28T10:53:27.191Z</time></trkpt><trkpt lat="38.1355817" lon="14.7358333"><ele>86.6</ele><time>2026-04-28T10:53:28.192Z</time></trkpt><trkpt lat="38.1356533" lon="14.7357583"><ele>84.4</ele><time>2026-04-28T10:53:29.192Z</time></trkpt><trkpt lat="38.1357233" lon="14.7356833"><ele>82.2</ele><time>2026-04-28T10:53:30.191Z</time></trkpt><trkpt lat="38.1358017" lon="14.7356133"><ele>80.0</ele><time>2026-04-28T10:53:31.191Z</time></trkpt><trkpt lat="38.1358767" lon="14.735535"><ele>79.83333333333334</ele><time>2026-04-28T10:53:32.191Z</time></trkpt><trkpt lat="38.1359467" lon="14.73547"><ele>79.66666666666667</ele><time>2026-04-28T10:53:33.191Z</time></trkpt><trkpt lat="38.1360183" lon="14.7354083"><ele>79.5</ele><time>2026-04-28T10:53:34.191Z</time></trkpt><trkpt lat="38.1360883" lon="14.7353533"><ele>79.33333333333333</ele><time>2026-04-28T10:53:35.191Z</time></trkpt><trkpt lat="38.136165" lon="14.7353017"><ele>79.16666666666666</ele><time>2026-04-28T10:53:36.191Z</time></trkpt><trkpt lat="38.1362417" lon="14.7352583"><ele>79.0</ele><time>2026-04-28T10:53:37.192Z</time></trkpt><trkpt lat="38.1363133" lon="14.7352233"><ele>79.0</ele><time>2026-04-28T10:53:38.191Z</time></trkpt><trkpt lat="38.13638" lon="14.7352033"><ele>79.0</ele><time>2026-04-28T10:53:39.191Z</time></trkpt><trkpt lat="38.13649" lon="14.7352333"><ele>79.0</ele><time>2026-04-28T10:53:41.191Z</time></trkpt><trkpt lat="38.1365317" lon="14.7352983"><ele>79.0</ele><time>2026-04-28T10:53:42.191Z</time></trkpt><trkpt lat="38.1365633" lon="14.7353733"><ele>79.0</ele><time>2026-04-28T10:53:43.191Z</time></trkpt><trkpt lat="38.1366" lon="14.73544"><ele>79.0</ele><time>2026-04-28T10:53:44.191Z</time></trkpt><trkpt lat="38.136695" lon="14.7354817"><ele>78.5</ele><time>2026-04-28T10:53:46.191Z</time></trkpt><trkpt lat="38.136805" lon="14.7354083"><ele>78.0</ele><time>2026-04-28T10:53:48.191Z</time></trkpt><trkpt lat="38.136875" lon="14.735345"><ele>77.5</ele><time>2026-04-28T10:53:49.191Z</time></trkpt><trkpt lat="38.13694" lon="14.7352833"><ele>77.0</ele><time>2026-04-28T10:53:50.192Z</time></trkpt><trkpt lat="38.1370067" lon="14.735235"><ele>76.5</ele><time>2026-04-28T10:53:51.191Z</time></trkpt><trkpt lat="38.1370767" lon="14.735195"><ele>76.0</ele><time>2026-04-28T10:53:52.191Z</time></trkpt><trkpt lat="38.137155" lon="14.7351733"><ele>75.16666666666666</ele><time>2026-04-28T10:53:53.191Z</time></trkpt><trkpt lat="38.1372367" lon="14.7351683"><ele>74.33333333333333</ele><time>2026-04-28T10:53:54.191Z</time></trkpt><trkpt lat="38.1373317" lon="14.7351767"><ele>73.5</ele><time>2026-04-28T10:53:55.191Z</time></trkpt><trkpt lat="38.137425" lon="14.7351967"><ele>72.66666666666667</ele><time>2026-04-28T10:53:56.191Z</time></trkpt><trkpt lat="38.13751" lon="14.7352033"><ele>71.83333333333334</ele><time>2026-04-28T10:53:57.191Z</time></trkpt><trkpt lat="38.1376" lon="14.7352117"><ele>71.0</ele><time>2026-04-28T10:53:58.191Z</time></trkpt><trkpt lat="38.1376733" lon="14.7352133"><ele>69.2</ele><time>2026-04-28T10:53:59.192Z</time></trkpt><trkpt lat="38.1377533" lon="14.7352333"><ele>67.39999999999999</ele><time>2026-04-28T10:54:00.192Z</time></trkpt><trkpt lat="38.13782" lon="14.7352333"><ele>65.6</ele><time>2026-04-28T10:54:01.191Z</time></trkpt><trkpt lat="38.1379533" lon="14.7352667"><ele>63.8</ele><time>2026-04-28T10:54:03.191Z</time></trkpt><trkpt lat="38.1380117" lon="14.7353067"><ele>62.0</ele><time>2026-04-28T10:54:04.192Z</time></trkpt><trkpt lat="38.1381017" lon="14.7353833"><ele>62.0</ele><time>2026-04-28T10:54:06.191Z</time></trkpt><trkpt lat="38.1381983" lon="14.735365"><ele>62.0</ele><time>2026-04-28T10:54:08.191Z</time></trkpt><trkpt lat="38.13829" lon="14.7353183"><ele>62.0</ele><time>2026-04-28T10:54:10.191Z</time></trkpt><trkpt lat="38.1383683" lon="14.7353217"><ele>62.0</ele><time>2026-04-28T10:54:13.191Z</time></trkpt><trkpt lat="38.1384267" lon="14.7353933"><ele>62.0</ele><time>2026-04-28T10:54:16.191Z</time></trkpt><trkpt lat="38.13847" lon="14.7355417"><ele>59.833333333333336</ele><time>2026-04-28T10:54:18.191Z</time></trkpt><trkpt lat="38.13852" lon="14.7356567"><ele>57.66666666666667</ele><time>2026-04-28T10:54:19.191Z</time></trkpt><trkpt lat="38.138565" lon="14.7357667"><ele>55.5</ele><time>2026-04-28T10:54:20.192Z</time></trkpt><trkpt lat="38.1386083" lon="14.735855"><ele>53.33333333333333</ele><time>2026-04-28T10:54:21.191Z</time></trkpt><trkpt lat="38.138665" lon="14.7359167"><ele>51.166666666666664</ele><time>2026-04-28T10:54:22.191Z</time></trkpt><trkpt lat="38.138745" lon="14.7359533"><ele>49.0</ele><time>2026-04-28T10:54:23.191Z</time></trkpt><trkpt lat="38.1388383" lon="14.7359783"><ele>49.0</ele><time>2026-04-28T10:54:24.191Z</time></trkpt><trkpt lat="38.13895" lon="14.7359683"><ele>49.0</ele><time>2026-04-28T10:54:25.191Z</time></trkpt><trkpt lat="38.13906" lon="14.73597"><ele>49.0</ele><time>2026-04-28T10:54:26.191Z</time></trkpt><trkpt lat="38.139165" lon="14.73597"><ele>49.0</ele><time>2026-04-28T10:54:27.191Z</time></trkpt><trkpt lat="38.1392617" lon="14.735985"><ele>49.0</ele><time>2026-04-28T10:54:28.191Z</time></trkpt><trkpt lat="38.1393483" lon="14.736"><ele>48.400000000000006</ele><time>2026-04-28T10:54:29.191Z</time></trkpt><trkpt lat="38.1394433" lon="14.7359933"><ele>47.8</ele><time>2026-04-28T10:54:30.191Z</time></trkpt><trkpt lat="38.1395317" lon="14.735975"><ele>47.2</ele><time>2026-04-28T10:54:31.191Z</time></trkpt><trkpt lat="38.1396133" lon="14.7359417"><ele>46.599999999999994</ele><time>2026-04-28T10:54:32.191Z</time></trkpt><trkpt lat="38.1397017" lon="14.735915"><ele>46.0</ele><time>2026-04-28T10:54:33.192Z</time></trkpt><trkpt lat="38.1397933" lon="14.7358983"><ele>43.599999999999994</ele><time>2026-04-28T10:54:34.192Z</time></trkpt><trkpt lat="38.1398933" lon="14.7358833"><ele>41.199999999999996</ele><time>2026-04-28T10:54:35.192Z</time></trkpt><trkpt lat="38.14" lon="14.7358833"><ele>38.8</ele><time>2026-04-28T10:54:36.191Z</time></trkpt><trkpt lat="38.1401067" lon="14.73587"><ele>36.4</ele><time>2026-04-28T10:54:37.191Z</time></trkpt><trkpt lat="38.14022" lon="14.7358417"><ele>34.0</ele><time>2026-04-28T10:54:38.191Z</time></trkpt><trkpt lat="38.1403233" lon="14.7358"><ele>34.0</ele><time>2026-04-28T10:54:39.191Z</time></trkpt><trkpt lat="38.140425" lon="14.735745"><ele>34.0</ele><time>2026-04-28T10:54:40.191Z</time></trkpt><trkpt lat="38.1405117" lon="14.7356783"><ele>34.0</ele><time>2026-04-28T10:54:41.191Z</time></trkpt><trkpt lat="38.1405967" lon="14.7356067"><ele>34.0</ele><time>2026-04-28T10:54:42.191Z</time></trkpt><trkpt lat="38.140675" lon="14.7355367"><ele>34.0</ele><time>2026-04-28T10:54:43.191Z</time></trkpt><trkpt lat="38.140755" lon="14.7354633"><ele>33.2</ele><time>2026-04-28T10:54:44.191Z</time></trkpt><trkpt lat="38.1408333" lon="14.7353867"><ele>32.4</ele><time>2026-04-28T10:54:45.191Z</time></trkpt><trkpt lat="38.1409167" lon="14.73531"><ele>31.6</ele><time>2026-04-28T10:54:46.191Z</time></trkpt><trkpt lat="38.1410017" lon="14.7352283"><ele>30.8</ele><time>2026-04-28T10:54:47.191Z</time></trkpt><trkpt lat="38.14109" lon="14.7351433"><ele>30.0</ele><time>2026-04-28T10:54:48.192Z</time></trkpt><trkpt lat="38.1411833" lon="14.7350417"><ele>28.75</ele><time>2026-04-28T10:54:49.191Z</time></trkpt><trkpt lat="38.14128" lon="14.73493"><ele>27.5</ele><time>2026-04-28T10:54:50.191Z</time></trkpt><trkpt lat="38.1413833" lon="14.7348283"><ele>26.25</ele><time>2026-04-28T10:54:51.191Z</time></trkpt><trkpt lat="38.1414717" lon="14.7347267"><ele>25.0</ele><time>2026-04-28T10:54:52.191Z</time></trkpt><trkpt lat="38.1415583" lon="14.7346333"><ele>25.0</ele><time>2026-04-28T10:54:53.191Z</time></trkpt><trkpt lat="38.1416467" lon="14.7345367"><ele>25.0</ele><time>2026-04-28T10:54:54.191Z</time></trkpt><trkpt lat="38.1417283" lon="14.734445"><ele>25.0</ele><time>2026-04-28T10:54:55.191Z</time></trkpt><trkpt lat="38.141805" lon="14.7343517"><ele>25.0</ele><time>2026-04-28T10:54:56.191Z</time></trkpt><trkpt lat="38.14188" lon="14.734265"><ele>25.0</ele><time>2026-04-28T10:54:57.191Z</time></trkpt><trkpt lat="38.1419483" lon="14.734175"><ele>25.000000000000004</ele><time>2026-04-28T10:54:58.192Z</time></trkpt><trkpt lat="38.1420133" lon="14.7340983"><ele>25.0</ele><time>2026-04-28T10:54:59.191Z</time></trkpt><trkpt lat="38.1420817" lon="14.7340167"><ele>25.0</ele><time>2026-04-28T10:55:00.191Z</time></trkpt><trkpt lat="38.1421467" lon="14.73394"><ele>25.0</ele><time>2026-04-28T10:55:01.191Z</time></trkpt><trkpt lat="38.1422083" lon="14.733865"><ele>25.000000000000004</ele><time>2026-04-28T10:55:02.191Z</time></trkpt><trkpt lat="38.1422633" lon="14.733805"><ele>25.0</ele><time>2026-04-28T10:55:03.191Z</time></trkpt><trkpt lat="38.1423483" lon="14.7337333"><ele>24.6</ele><time>2026-04-28T10:55:05.191Z</time></trkpt><trkpt lat="38.1424217" lon="14.73364"><ele>24.2</ele><time>2026-04-28T10:56:07.191Z</time></trkpt><trkpt lat="38.14253" lon="14.7335367"><ele>23.799999999999997</ele><time>2026-04-28T10:56:09.191Z</time></trkpt><trkpt lat="38.1425867" lon="14.733465"><ele>23.4</ele><time>2026-04-28T10:56:10.191Z</time></trkpt><trkpt lat="38.14265" lon="14.7333883"><ele>23.0</ele><time>2026-04-28T10:56:11.192Z</time></trkpt><trkpt lat="38.1427217" lon="14.7333033"><ele>23.0</ele><time>2026-04-28T10:56:12.191Z</time></trkpt><trkpt lat="38.1428" lon="14.7332167"><ele>23.0</ele><time>2026-04-28T10:56:13.191Z</time></trkpt><trkpt lat="38.142875" lon="14.7331333"><ele>23.0</ele><time>2026-04-28T10:56:14.191Z</time></trkpt><trkpt lat="38.142935" lon="14.73305"><ele>23.0</ele><time>2026-04-28T10:56:15.191Z</time></trkpt><trkpt lat="38.1429983" lon="14.7329817"><ele>23.0</ele><time>2026-04-28T10:56:16.191Z</time></trkpt><trkpt lat="38.1430533" lon="14.7329067"><ele>23.0</ele><time>2026-04-28T10:56:17.191Z</time></trkpt><trkpt lat="38.1431117" lon="14.7328317"><ele>23.0</ele><time>2026-04-28T10:56:18.191Z</time></trkpt><trkpt lat="38.14317" lon="14.7327467"><ele>23.0</ele><time>2026-04-28T10:56:19.191Z</time></trkpt><trkpt lat="38.143225" lon="14.73266"><ele>23.0</ele><time>2026-04-28T10:56:20.191Z</time></trkpt><trkpt lat="38.1432917" lon="14.732575"><ele>23.0</ele><time>2026-04-28T10:56:21.191Z</time></trkpt><trkpt lat="38.14336" lon="14.7324917"><ele>23.0</ele><time>2026-04-28T10:56:22.191Z</time></trkpt><trkpt lat="38.14342" lon="14.7324117"><ele>22.0</ele><time>2026-04-28T10:56:23.191Z</time></trkpt><trkpt lat="38.1434733" lon="14.7323383"><ele>21.0</ele><time>2026-04-28T10:56:24.192Z</time></trkpt><trkpt lat="38.1435417" lon="14.7322733"><ele>20.0</ele><time>2026-04-28T10:56:25.191Z</time></trkpt><trkpt lat="38.1435967" lon="14.7321883"><ele>19.0</ele><time>2026-04-28T10:56:26.191Z</time></trkpt><trkpt lat="38.1436567" lon="14.7321033"><ele>18.0</ele><time>2026-04-28T10:56:27.192Z</time></trkpt><trkpt lat="38.143725" lon="14.7320167"><ele>17.0</ele><time>2026-04-28T10:56:28.191Z</time></trkpt><trkpt lat="38.1437967" lon="14.7319333"><ele>16.833333333333336</ele><time>2026-04-28T10:56:29.191Z</time></trkpt><trkpt lat="38.1438583" lon="14.7318483"><ele>16.666666666666668</ele><time>2026-04-28T10:56:30.191Z</time></trkpt><trkpt lat="38.1439217" lon="14.731775"><ele>16.5</ele><time>2026-04-28T10:56:31.191Z</time></trkpt><trkpt lat="38.143975" lon="14.7317083"><ele>16.333333333333332</ele><time>2026-04-28T10:56:32.191Z</time></trkpt><trkpt lat="38.144025" lon="14.7316433"><ele>16.166666666666664</ele><time>2026-04-28T10:56:33.191Z</time></trkpt><trkpt lat="38.1440717" lon="14.7315617"><ele>16.0</ele><time>2026-04-28T10:56:34.191Z</time></trkpt><trkpt lat="38.1441333" lon="14.731495"><ele>15.5</ele><time>2026-04-28T10:56:35.191Z</time></trkpt><trkpt lat="38.1441983" lon="14.73142"><ele>15.0</ele><time>2026-04-28T10:56:36.191Z</time></trkpt><trkpt lat="38.14428" lon="14.73132"><ele>14.5</ele><time>2026-04-28T10:56:37.191Z</time></trkpt><trkpt lat="38.144375" lon="14.731175"><ele>14.0</ele><time>2026-04-28T10:56:38.191Z</time></trkpt><trkpt lat="38.1444833" lon="14.7310333"><ele>14.0</ele><time>2026-04-28T10:56:39.192Z</time></trkpt><trkpt lat="38.1445883" lon="14.7308917"><ele>14.0</ele><time>2026-04-28T10:56:40.191Z</time></trkpt><trkpt lat="38.14469" lon="14.730765"><ele>14.0</ele><time>2026-04-28T10:56:41.191Z</time></trkpt><trkpt lat="38.1447883" lon="14.73065"><ele>14.0</ele><time>2026-04-28T10:56:42.191Z</time></trkpt><trkpt lat="38.14488" lon="14.7305417"><ele>13.5</ele><time>2026-04-28T10:56:43.191Z</time></trkpt><trkpt lat="38.14497" lon="14.7304333"><ele>13.0</ele><time>2026-04-28T10:56:44.191Z</time></trkpt><trkpt lat="38.1450533" lon="14.7303267"><ele>12.5</ele><time>2026-04-28T10:56:45.191Z</time></trkpt><trkpt lat="38.1451367" lon="14.7302083"><ele>12.0</ele><time>2026-04-28T10:56:46.191Z</time></trkpt><trkpt lat="38.1452183" lon="14.7300883"><ele>12.0</ele><time>2026-04-28T10:56:47.191Z</time></trkpt><trkpt lat="38.1452967" lon="14.7299783"><ele>12.0</ele><time>2026-04-28T10:56:48.191Z</time></trkpt><trkpt lat="38.145365" lon="14.7298717"><ele>12.0</ele><time>2026-04-28T10:56:49.192Z</time></trkpt><trkpt lat="38.1454317" lon="14.7297767"><ele>12.0</ele><time>2026-04-28T10:56:50.191Z</time></trkpt><trkpt lat="38.1455067" lon="14.729685"><ele>12.0</ele><time>2026-04-28T10:56:51.191Z</time></trkpt><trkpt lat="38.1455867" lon="14.72958"><ele>12.0</ele><time>2026-04-28T10:56:52.191Z</time></trkpt><trkpt lat="38.1456683" lon="14.7294717"><ele>12.0</ele><time>2026-04-28T10:56:53.191Z</time></trkpt><trkpt lat="38.145755" lon="14.7293633"><ele>12.0</ele><time>2026-04-28T10:56:54.191Z</time></trkpt><trkpt lat="38.14584" lon="14.729255"><ele>12.0</ele><time>2026-04-28T10:56:55.191Z</time></trkpt><trkpt lat="38.1459267" lon="14.7291467"><ele>11.2</ele><time>2026-04-28T10:56:56.191Z</time></trkpt><trkpt lat="38.1460033" lon="14.7290417"><ele>10.399999999999999</ele><time>2026-04-28T10:56:57.192Z</time></trkpt><trkpt lat="38.1460783" lon="14.7289467"><ele>9.600000000000001</ele><time>2026-04-28T10:56:58.192Z</time></trkpt><trkpt lat="38.146145" lon="14.7288483"><ele>8.8</ele><time>2026-04-28T10:56:59.191Z</time></trkpt><trkpt lat="38.146205" lon="14.72876"><ele>8.0</ele><time>2026-04-28T10:57:00.191Z</time></trkpt><trkpt lat="38.1462583" lon="14.72869"><ele>8.0</ele><time>2026-04-28T10:57:01.192Z</time></trkpt><trkpt lat="38.14632" lon="14.7285783"><ele>8.0</ele><time>2026-04-28T10:57:03.191Z</time></trkpt><trkpt lat="38.1463867" lon="14.7285183"><ele>8.0</ele><time>2026-04-28T10:57:09.191Z</time></trkpt><trkpt lat="38.14644" lon="14.7284483"><ele>8.0</ele><time>2026-04-28T10:57:11.191Z</time></trkpt><trkpt lat="38.14651" lon="14.728335"><ele>8.0</ele><time>2026-04-28T10:57:13.191Z</time></trkpt><trkpt lat="38.146575" lon="14.72824"><ele>8.166666666666666</ele><time>2026-04-28T10:57:15.191Z</time></trkpt><trkpt lat="38.1466567" lon="14.728235"><ele>8.333333333333332</ele><time>2026-04-28T10:57:17.191Z</time></trkpt><trkpt lat="38.1467433" lon="14.728325"><ele>8.5</ele><time>2026-04-28T10:57:19.191Z</time></trkpt><trkpt lat="38.1467967" lon="14.7283917"><ele>8.666666666666666</ele><time>2026-04-28T10:57:20.191Z</time></trkpt><trkpt lat="38.1468533" lon="14.7284617"><ele>8.833333333333334</ele><time>2026-04-28T10:57:21.191Z</time></trkpt><trkpt lat="38.1469117" lon="14.7285367"><ele>9.0</ele><time>2026-04-28T10:57:22.192Z</time></trkpt><trkpt lat="38.146975" lon="14.7286133"><ele>9.4</ele><time>2026-04-28T10:57:23.191Z</time></trkpt><trkpt lat="38.1470483" lon="14.7286917"><ele>9.8</ele><time>2026-04-28T10:57:24.191Z</time></trkpt><trkpt lat="38.1471167" lon="14.7287717"><ele>10.200000000000001</ele><time>2026-04-28T10:57:25.191Z</time></trkpt><trkpt lat="38.1471833" lon="14.7288467"><ele>10.600000000000001</ele><time>2026-04-28T10:57:26.191Z</time></trkpt><trkpt lat="38.1472483" lon="14.7289217"><ele>11.0</ele><time>2026-04-28T10:57:27.192Z</time></trkpt><trkpt lat="38.1473117" lon="14.7290017"><ele>11.4</ele><time>2026-04-28T10:57:28.191Z</time></trkpt><trkpt lat="38.14738" lon="14.7290733"><ele>11.8</ele><time>2026-04-28T10:57:29.191Z</time></trkpt><trkpt lat="38.1474583" lon="14.72915"><ele>12.200000000000001</ele><time>2026-04-28T10:57:30.192Z</time></trkpt><trkpt lat="38.14753" lon="14.7292317"><ele>12.600000000000001</ele><time>2026-04-28T10:57:31.191Z</time></trkpt><trkpt lat="38.1476033" lon="14.729315"><ele>13.0</ele><time>2026-04-28T10:57:32.191Z</time></trkpt><trkpt lat="38.14768" lon="14.7293983"><ele>13.0</ele><time>2026-04-28T10:57:33.192Z</time></trkpt><trkpt lat="38.14775" lon="14.7294883"><ele>13.0</ele><time>2026-04-28T10:57:34.191Z</time></trkpt><trkpt lat="38.147825" lon="14.7295833"><ele>13.0</ele><time>2026-04-28T10:57:35.191Z</time></trkpt><trkpt lat="38.1479033" lon="14.7296683"><ele>13.0</ele><time>2026-04-28T10:57:36.191Z</time></trkpt><trkpt lat="38.147985" lon="14.7297567"><ele>13.0</ele><time>2026-04-28T10:57:37.191Z</time></trkpt><trkpt lat="38.148075" lon="14.7298533"><ele>13.0</ele><time>2026-04-28T10:57:38.192Z</time></trkpt><trkpt lat="38.1481617" lon="14.7299483"><ele>13.0</ele><time>2026-04-28T10:57:39.191Z</time></trkpt><trkpt lat="38.1482467" lon="14.7300383"><ele>13.0</ele><time>2026-04-28T10:57:40.191Z</time></trkpt><trkpt lat="38.1483333" lon="14.7301333"><ele>13.0</ele><time>2026-04-28T10:57:41.191Z</time></trkpt><trkpt lat="38.14842" lon="14.7302267"><ele>12.0</ele><time>2026-04-28T10:57:42.191Z</time></trkpt><trkpt lat="38.1485067" lon="14.7303167"><ele>11.0</ele><time>2026-04-28T10:57:43.191Z</time></trkpt><trkpt lat="38.1485933" lon="14.7304033"><ele>10.0</ele><time>2026-04-28T10:57:44.191Z</time></trkpt><trkpt lat="38.1486833" lon="14.7304967"><ele>9.0</ele><time>2026-04-28T10:57:45.191Z</time></trkpt><trkpt lat="38.148775" lon="14.7305917"><ele>9.0</ele><time>2026-04-28T10:57:46.191Z</time></trkpt><trkpt lat="38.1488667" lon="14.7306817"><ele>9.0</ele><time>2026-04-28T10:57:47.192Z</time></trkpt><trkpt lat="38.14896" lon="14.7307767"><ele>9.0</ele><time>2026-04-28T10:57:48.191Z</time></trkpt><trkpt lat="38.14906" lon="14.7308783"><ele>9.0</ele><time>2026-04-28T10:57:49.19Z</time></trkpt><trkpt lat="38.1491617" lon="14.730975"><ele>9.25</ele><time>2026-04-28T10:57:50.19Z</time></trkpt><trkpt lat="38.1492667" lon="14.731075"><ele>9.5</ele><time>2026-04-28T10:57:51.19Z</time></trkpt><trkpt lat="38.1493683" lon="14.7311817"><ele>9.75</ele><time>2026-04-28T10:57:52.191Z</time></trkpt><trkpt lat="38.1494683" lon="14.7312833"><ele>10.0</ele><time>2026-04-28T10:57:53.19Z</time></trkpt><trkpt lat="38.1495733" lon="14.731385"><ele>10.0</ele><time>2026-04-28T10:57:54.19Z</time></trkpt><trkpt lat="38.1496783" lon="14.731485"><ele>10.0</ele><time>2026-04-28T10:57:55.19Z</time></trkpt><trkpt lat="38.1497833" lon="14.7315867"><ele>10.0</ele><time>2026-04-28T10:57:56.19Z</time></trkpt><trkpt lat="38.149885" lon="14.7316867"><ele>10.0</ele><time>2026-04-28T10:57:57.191Z</time></trkpt><trkpt lat="38.1499833" lon="14.7317883"><ele>10.0</ele><time>2026-04-28T10:57:58.19Z</time></trkpt><trkpt lat="38.1500833" lon="14.731895"><ele>10.0</ele><time>2026-04-28T10:57:59.191Z</time></trkpt><trkpt lat="38.1501883" lon="14.7320017"><ele>10.0</ele><time>2026-04-28T10:58:00.19Z</time></trkpt><trkpt lat="38.150295" lon="14.73211"><ele>10.0</ele><time>2026-04-28T10:58:01.19Z</time></trkpt><trkpt lat="38.1504" lon="14.7322167"><ele>10.0</ele><time>2026-04-28T10:58:02.19Z</time></trkpt><trkpt lat="38.1505083" lon="14.7323217"><ele>10.0</ele><time>2026-04-28T10:58:03.19Z</time></trkpt><trkpt lat="38.15062" lon="14.7324317"><ele>10.0</ele><time>2026-04-28T10:58:04.191Z</time></trkpt><trkpt lat="38.1507233" lon="14.7325367"><ele>10.0</ele><time>2026-04-28T10:58:05.19Z</time></trkpt><trkpt lat="38.150825" lon="14.7326333"><ele>9.6</ele><time>2026-04-28T10:58:06.19Z</time></trkpt><trkpt lat="38.15092" lon="14.7327283"><ele>9.2</ele><time>2026-04-28T10:58:07.191Z</time></trkpt><trkpt lat="38.15101" lon="14.732815"><ele>8.8</ele><time>2026-04-28T10:58:08.19Z</time></trkpt><trkpt lat="38.151095" lon="14.7328983"><ele>8.4</ele><time>2026-04-28T10:58:09.19Z</time></trkpt><trkpt lat="38.1511783" lon="14.7329833"><ele>8.0</ele><time>2026-04-28T10:58:10.19Z</time></trkpt><trkpt lat="38.15126" lon="14.7330717"><ele>8.0</ele><time>2026-04-28T10:58:11.19Z</time></trkpt><trkpt lat="38.15134" lon="14.73315"><ele>8.0</ele><time>2026-04-28T10:58:12.19Z</time></trkpt><trkpt lat="38.1514217" lon="14.7332267"><ele>8.0</ele><time>2026-04-28T10:58:13.19Z</time></trkpt><trkpt lat="38.1515017" lon="14.7333067"><ele>8.0</ele><time>2026-04-28T10:58:14.191Z</time></trkpt><trkpt lat="38.1515833" lon="14.73338"><ele>8.0</ele><time>2026-04-28T10:58:15.19Z</time></trkpt><trkpt lat="38.1516667" lon="14.733465"><ele>7.6000000000000005</ele><time>2026-04-28T10:58:16.19Z</time></trkpt><trkpt lat="38.15175" lon="14.7335483"><ele>7.200000000000001</ele><time>2026-04-28T10:58:17.19Z</time></trkpt><trkpt lat="38.151825" lon="14.733625"><ele>6.8</ele><time>2026-04-28T10:58:18.19Z</time></trkpt><trkpt lat="38.1518967" lon="14.7336967"><ele>6.4</ele><time>2026-04-28T10:58:19.19Z</time></trkpt><trkpt lat="38.1519667" lon="14.7337667"><ele>6.0</ele><time>2026-04-28T10:58:20.19Z</time></trkpt><trkpt lat="38.1520317" lon="14.7338317"><ele>5.833333333333333</ele><time>2026-04-28T10:58:21.19Z</time></trkpt><trkpt lat="38.1520933" lon="14.733895"><ele>5.666666666666667</ele><time>2026-04-28T10:58:22.19Z</time></trkpt><trkpt lat="38.1521567" lon="14.73396"><ele>5.5</ele><time>2026-04-28T10:58:23.191Z</time></trkpt><trkpt lat="38.1522217" lon="14.734025"><ele>5.333333333333334</ele><time>2026-04-28T10:58:24.19Z</time></trkpt><trkpt lat="38.1522867" lon="14.7340867"><ele>5.166666666666667</ele><time>2026-04-28T10:58:25.19Z</time></trkpt><trkpt lat="38.15235" lon="14.73415"><ele>5.0</ele><time>2026-04-28T10:58:26.19Z</time></trkpt><trkpt lat="38.1524167" lon="14.7342117"><ele>5.0</ele><time>2026-04-28T10:58:27.191Z</time></trkpt><trkpt lat="38.1524833" lon="14.7342683"><ele>5.0</ele><time>2026-04-28T10:58:28.191Z</time></trkpt><trkpt lat="38.152545" lon="14.73433"><ele>5.0</ele><time>2026-04-28T10:58:29.19Z</time></trkpt><trkpt lat="38.152605" lon="14.73439"><ele>5.0</ele><time>2026-04-28T10:58:30.19Z</time></trkpt><trkpt lat="38.1526683" lon="14.73445"><ele>5.0</ele><time>2026-04-28T10:58:31.19Z</time></trkpt><trkpt lat="38.1527333" lon="14.7345133"><ele>5.0</ele><time>2026-04-28T10:58:32.19Z</time></trkpt><trkpt lat="38.1528" lon="14.7345783"><ele>4.666666666666667</ele><time>2026-04-28T10:58:33.191Z</time></trkpt><trkpt lat="38.1528633" lon="14.7346467"><ele>4.333333333333334</ele><time>2026-04-28T10:58:34.19Z</time></trkpt><trkpt lat="38.1529267" lon="14.7347117"><ele>4.0</ele><time>2026-04-28T10:58:35.19Z</time></trkpt><trkpt lat="38.1529967" lon="14.7347833"><ele>3.666666666666667</ele><time>2026-04-28T10:58:36.19Z</time></trkpt><trkpt lat="38.1530717" lon="14.7348533"><ele>3.3333333333333335</ele><time>2026-04-28T10:58:37.19Z</time></trkpt><trkpt lat="38.15315" lon="14.73493"><ele>3.0</ele><time>2026-04-28T10:58:38.19Z</time></trkpt><trkpt lat="38.1532333" lon="14.7350117"><ele>3.0</ele><time>2026-04-28T10:58:39.19Z</time></trkpt><trkpt lat="38.1533217" lon="14.7350967"><ele>3.0</ele><time>2026-04-28T10:58:40.19Z</time></trkpt><trkpt lat="38.153415" lon="14.7351817"><ele>3.0</ele><time>2026-04-28T10:58:41.19Z</time></trkpt><trkpt lat="38.1535117" lon="14.7352767"><ele>3.0</ele><time>2026-04-28T10:58:42.19Z</time></trkpt><trkpt lat="38.153615" lon="14.7353683"><ele>4.0</ele><time>2026-04-28T10:58:43.19Z</time></trkpt><trkpt lat="38.153715" lon="14.73546"><ele>5.0</ele><time>2026-04-28T10:58:44.19Z</time></trkpt><trkpt lat="38.15381" lon="14.7355483"><ele>6.0</ele><time>2026-04-28T10:58:45.19Z</time></trkpt><trkpt lat="38.1539133" lon="14.7356317"><ele>7.0</ele><time>2026-04-28T10:58:46.191Z</time></trkpt><trkpt lat="38.1540167" lon="14.73572"><ele>6.75</ele><time>2026-04-28T10:58:47.19Z</time></trkpt><trkpt lat="38.15412" lon="14.7358067"><ele>6.5</ele><time>2026-04-28T10:58:48.19Z</time></trkpt><trkpt lat="38.15422" lon="14.735895"><ele>6.25</ele><time>2026-04-28T10:58:49.19Z</time></trkpt><trkpt lat="38.1543167" lon="14.7359833"><ele>6.0</ele><time>2026-04-28T10:58:50.19Z</time></trkpt><trkpt lat="38.1544067" lon="14.73607"><ele>7.25</ele><time>2026-04-28T10:58:51.19Z</time></trkpt><trkpt lat="38.154495" lon="14.73616"><ele>8.5</ele><time>2026-04-28T10:58:52.19Z</time></trkpt><trkpt lat="38.154585" lon="14.73625"><ele>9.75</ele><time>2026-04-28T10:58:53.19Z</time></trkpt><trkpt lat="38.1546683" lon="14.73635"><ele>11.0</ele><time>2026-04-28T10:58:54.19Z</time></trkpt><trkpt lat="38.154755" lon="14.7364433"><ele>11.0</ele><time>2026-04-28T10:58:55.19Z</time></trkpt><trkpt lat="38.1548417" lon="14.7365317"><ele>11.0</ele><time>2026-04-28T10:58:56.19Z</time></trkpt><trkpt lat="38.15492" lon="14.7366233"><ele>11.0</ele><time>2026-04-28T10:58:57.19Z</time></trkpt><trkpt lat="38.1549983" lon="14.7367183"><ele>11.0</ele><time>2026-04-28T10:58:58.19Z</time></trkpt><trkpt lat="38.15508" lon="14.73681"><ele>11.0</ele><time>2026-04-28T10:58:59.19Z</time></trkpt><trkpt lat="38.155165" lon="14.7369"><ele>11.0</ele><time>2026-04-28T10:59:00.191Z</time></trkpt><trkpt lat="38.15525" lon="14.7369933"><ele>11.0</ele><time>2026-04-28T10:59:01.19Z</time></trkpt><trkpt lat="38.1553317" lon="14.737085"><ele>11.0</ele><time>2026-04-28T10:59:02.19Z</time></trkpt><trkpt lat="38.1554083" lon="14.7371717"><ele>11.0</ele><time>2026-04-28T10:59:03.19Z</time></trkpt><trkpt lat="38.15549" lon="14.737255"><ele>11.0</ele><time>2026-04-28T10:59:04.191Z</time></trkpt><trkpt lat="38.1555717" lon="14.7373417"><ele>11.0</ele><time>2026-04-28T10:59:05.19Z</time></trkpt><trkpt lat="38.1556467" lon="14.73743"><ele>11.0</ele><time>2026-04-28T10:59:06.19Z</time></trkpt><trkpt lat="38.155725" lon="14.737515"><ele>11.0</ele><time>2026-04-28T10:59:07.19Z</time></trkpt><trkpt lat="38.1558033" lon="14.737595"><ele>11.0</ele><time>2026-04-28T10:59:08.191Z</time></trkpt><trkpt lat="38.15587" lon="14.7376717"><ele>11.0</ele><time>2026-04-28T10:59:09.19Z</time></trkpt><trkpt lat="38.1559383" lon="14.7377417"><ele>11.0</ele><time>2026-04-28T10:59:10.19Z</time></trkpt><trkpt lat="38.1560033" lon="14.7378083"><ele>11.0</ele><time>2026-04-28T10:59:11.19Z</time></trkpt><trkpt lat="38.15607" lon="14.7378883"><ele>11.0</ele><time>2026-04-28T10:59:12.19Z</time></trkpt><trkpt lat="38.1561567" lon="14.7379633"><ele>11.0</ele><time>2026-04-28T10:59:13.19Z</time></trkpt><trkpt lat="38.156245" lon="14.738045"><ele>11.0</ele><time>2026-04-28T10:59:14.19Z</time></trkpt><trkpt lat="38.1563367" lon="14.738125"><ele>11.0</ele><time>2026-04-28T10:59:15.19Z</time></trkpt><trkpt lat="38.1564183" lon="14.7382083"><ele>11.0</ele><time>2026-04-28T10:59:16.19Z</time></trkpt><trkpt lat="38.1565033" lon="14.7382817"><ele>11.0</ele><time>2026-04-28T10:59:17.19Z</time></trkpt><trkpt lat="38.15658" lon="14.7383533"><ele>11.0</ele><time>2026-04-28T10:59:18.19Z</time></trkpt><trkpt lat="38.1566483" lon="14.738425"><ele>11.0</ele><time>2026-04-28T10:59:19.191Z</time></trkpt><trkpt lat="38.1567233" lon="14.7384967"><ele>10.8</ele><time>2026-04-28T10:59:20.19Z</time></trkpt><trkpt lat="38.1567967" lon="14.7385683"><ele>10.600000000000001</ele><time>2026-04-28T10:59:21.191Z</time></trkpt><trkpt lat="38.15687" lon="14.7386333"><ele>10.4</ele><time>2026-04-28T10:59:22.19Z</time></trkpt><trkpt lat="38.1569467" lon="14.7387017"><ele>10.2</ele><time>2026-04-28T10:59:23.191Z</time></trkpt><trkpt lat="38.1570183" lon="14.7387717"><ele>10.0</ele><time>2026-04-28T10:59:24.19Z</time></trkpt><trkpt lat="38.1570883" lon="14.73884"><ele>10.0</ele><time>2026-04-28T10:59:25.19Z</time></trkpt><trkpt lat="38.157155" lon="14.73891"><ele>10.0</ele><time>2026-04-28T10:59:26.19Z</time></trkpt><trkpt lat="38.1572267" lon="14.7389767"><ele>10.0</ele><time>2026-04-28T10:59:27.19Z</time></trkpt><trkpt lat="38.1573017" lon="14.7390467"><ele>10.0</ele><time>2026-04-28T10:59:28.19Z</time></trkpt><trkpt lat="38.157375" lon="14.7391133"><ele>10.0</ele><time>2026-04-28T10:59:29.19Z</time></trkpt><trkpt lat="38.1574467" lon="14.7391867"><ele>10.166666666666668</ele><time>2026-04-28T10:59:30.19Z</time></trkpt><trkpt lat="38.1575117" lon="14.73926"><ele>10.333333333333334</ele><time>2026-04-28T10:59:31.19Z</time></trkpt><trkpt lat="38.1575817" lon="14.7393367"><ele>10.5</ele><time>2026-04-28T10:59:32.19Z</time></trkpt><trkpt lat="38.1576467" lon="14.7394117"><ele>10.666666666666666</ele><time>2026-04-28T10:59:33.191Z</time></trkpt><trkpt lat="38.1577117" lon="14.7394883"><ele>10.833333333333332</ele><time>2026-04-28T10:59:34.19Z</time></trkpt><trkpt lat="38.1577783" lon="14.7395517"><ele>11.0</ele><time>2026-04-28T10:59:35.19Z</time></trkpt><trkpt lat="38.1578417" lon="14.7396133"><ele>11.0</ele><time>2026-04-28T10:59:36.19Z</time></trkpt><trkpt lat="38.1579" lon="14.7396783"><ele>11.0</ele><time>2026-04-28T10:59:37.19Z</time></trkpt><trkpt lat="38.1579633" lon="14.7397467"><ele>11.0</ele><time>2026-04-28T10:59:38.19Z</time></trkpt><trkpt lat="38.1580233" lon="14.7398083"><ele>11.0</ele><time>2026-04-28T10:59:39.19Z</time></trkpt><trkpt lat="38.15808" lon="14.73986"><ele>11.0</ele><time>2026-04-28T10:59:40.191Z</time></trkpt><trkpt lat="38.1581533" lon="14.7399517"><ele>11.0</ele><time>2026-04-28T10:59:42.191Z</time></trkpt><trkpt lat="38.1582117" lon="14.7400133"><ele>11.0</ele><time>2026-04-28T10:59:44.19Z</time></trkpt><trkpt lat="38.1581383" lon="14.7400083"><ele>11.0</ele><time>2026-04-28T11:01:54.19Z</time></trkpt><trkpt lat="38.158115" lon="14.7400867"><ele>11.0</ele><time>2026-04-28T11:01:57.19Z</time></trkpt><trkpt lat="38.1581883" lon="14.7400067"><ele>11.0</ele><time>2026-04-28T13:16:39.203Z</time></trkpt><trkpt lat="38.1582667" lon="14.7400667"><ele>11.0</ele><time>2026-04-28T13:16:43.203Z</time></trkpt><trkpt lat="38.15834" lon="14.7401317"><ele>11.0</ele><time>2026-04-28T13:16:45.203Z</time></trkpt><trkpt lat="38.1584167" lon="14.7402183"><ele>11.166666666666666</ele><time>2026-04-28T13:16:47.203Z</time></trkpt><trkpt lat="38.1585167" lon="14.740315"><ele>11.333333333333332</ele><time>2026-04-28T13:16:49.204Z</time></trkpt><trkpt lat="38.1585667" lon="14.7403667"><ele>11.5</ele><time>2026-04-28T13:16:50.203Z</time></trkpt><trkpt lat="38.1586217" lon="14.7404183"><ele>11.666666666666666</ele><time>2026-04-28T13:16:51.203Z</time></trkpt><trkpt lat="38.1586783" lon="14.74047"><ele>11.833333333333334</ele><time>2026-04-28T13:16:52.203Z</time></trkpt><trkpt lat="38.1587283" lon="14.7405217"><ele>12.0</ele><time>2026-04-28T13:16:53.203Z</time></trkpt><trkpt lat="38.1588233" lon="14.7406117"><ele>11.999999999999998</ele><time>2026-04-28T13:16:55.204Z</time></trkpt><trkpt lat="38.1588733" lon="14.7406633"><ele>12.0</ele><time>2026-04-28T13:16:56.203Z</time></trkpt><trkpt lat="38.1589217" lon="14.7407167"><ele>12.0</ele><time>2026-04-28T13:16:57.204Z</time></trkpt><trkpt lat="38.1589733" lon="14.7407683"><ele>12.0</ele><time>2026-04-28T13:16:58.203Z</time></trkpt><trkpt lat="38.1590317" lon="14.7408217"><ele>12.0</ele><time>2026-04-28T13:16:59.204Z</time></trkpt><trkpt lat="38.159095" lon="14.7408733"><ele>11.999999999999998</ele><time>2026-04-28T13:17:00.204Z</time></trkpt><trkpt lat="38.1591617" lon="14.74093"><ele>12.0</ele><time>2026-04-28T13:17:01.203Z</time></trkpt><trkpt lat="38.1592267" lon="14.74098"><ele>12.285714285714285</ele><time>2026-04-28T13:17:02.203Z</time></trkpt><trkpt lat="38.1592867" lon="14.741035"><ele>12.571428571428571</ele><time>2026-04-28T13:17:03.202Z</time></trkpt><trkpt lat="38.1593467" lon="14.74109"><ele>12.857142857142858</ele><time>2026-04-28T13:17:04.202Z</time></trkpt><trkpt lat="38.1594017" lon="14.7411467"><ele>13.142857142857142</ele><time>2026-04-28T13:17:05.202Z</time></trkpt><trkpt lat="38.1594617" lon="14.741205"><ele>13.428571428571429</ele><time>2026-04-28T13:17:06.202Z</time></trkpt><trkpt lat="38.1595183" lon="14.741265"><ele>13.714285714285714</ele><time>2026-04-28T13:17:07.202Z</time></trkpt><trkpt lat="38.15957" lon="14.7413267"><ele>14.0</ele><time>2026-04-28T13:17:08.202Z</time></trkpt><trkpt lat="38.1596267" lon="14.7413867"><ele>14.0</ele><time>2026-04-28T13:17:09.202Z</time></trkpt><trkpt lat="38.1596733" lon="14.7414467"><ele>14.0</ele><time>2026-04-28T13:17:10.202Z</time></trkpt><trkpt lat="38.1597267" lon="14.7415083"><ele>14.0</ele><time>2026-04-28T13:17:11.202Z</time></trkpt><trkpt lat="38.1597833" lon="14.74157"><ele>14.0</ele><time>2026-04-28T13:17:12.202Z</time></trkpt><trkpt lat="38.1598317" lon="14.7416233"><ele>14.0</ele><time>2026-04-28T13:17:13.202Z</time></trkpt><trkpt lat="38.1598867" lon="14.7416733"><ele>14.0</ele><time>2026-04-28T13:17:14.202Z</time></trkpt><trkpt lat="38.1599367" lon="14.7417317"><ele>14.0</ele><time>2026-04-28T13:17:15.203Z</time></trkpt><trkpt lat="38.1599883" lon="14.74179"><ele>14.000000000000002</ele><time>2026-04-28T13:17:16.203Z</time></trkpt><trkpt lat="38.1600417" lon="14.7418467"><ele>14.0</ele><time>2026-04-28T13:17:17.202Z</time></trkpt><trkpt lat="38.1600933" lon="14.741905"><ele>14.0</ele><time>2026-04-28T13:17:18.202Z</time></trkpt><trkpt lat="38.16014" lon="14.741965"><ele>14.0</ele><time>2026-04-28T13:17:19.202Z</time></trkpt><trkpt lat="38.1602383" lon="14.7420733"><ele>14.000000000000002</ele><time>2026-04-28T13:17:21.202Z</time></trkpt><trkpt lat="38.1602867" lon="14.74213"><ele>14.0</ele><time>2026-04-28T13:17:22.202Z</time></trkpt><trkpt lat="38.1603367" lon="14.7421883"><ele>14.000000000000002</ele><time>2026-04-28T13:17:23.203Z</time></trkpt><trkpt lat="38.1603983" lon="14.74225"><ele>14.0</ele><time>2026-04-28T13:17:24.202Z</time></trkpt><trkpt lat="38.16047" lon="14.7423133"><ele>14.0</ele><time>2026-04-28T13:17:25.203Z</time></trkpt><trkpt lat="38.1605317" lon="14.7423867"><ele>14.0</ele><time>2026-04-28T13:17:26.202Z</time></trkpt><trkpt lat="38.16059" lon="14.742455"><ele>14.000000000000002</ele><time>2026-04-28T13:17:27.202Z</time></trkpt><trkpt lat="38.1606617" lon="14.7425233"><ele>14.0</ele><time>2026-04-28T13:17:28.202Z</time></trkpt><trkpt lat="38.160735" lon="14.7425983"><ele>13.6</ele><time>2026-04-28T13:17:29.202Z</time></trkpt><trkpt lat="38.1608083" lon="14.7426633"><ele>13.2</ele><time>2026-04-28T13:17:30.202Z</time></trkpt><trkpt lat="38.1608867" lon="14.7427233"><ele>12.799999999999999</ele><time>2026-04-28T13:17:31.202Z</time></trkpt><trkpt lat="38.1609483" lon="14.742805"><ele>12.399999999999999</ele><time>2026-04-28T13:17:32.202Z</time></trkpt><trkpt lat="38.16101" lon="14.7428833"><ele>12.0</ele><time>2026-04-28T13:17:33.202Z</time></trkpt><trkpt lat="38.1610817" lon="14.7429583"><ele>12.0</ele><time>2026-04-28T13:17:34.202Z</time></trkpt><trkpt lat="38.1611567" lon="14.7430267"><ele>12.0</ele><time>2026-04-28T13:17:35.202Z</time></trkpt><trkpt lat="38.16122" lon="14.7430917"><ele>12.0</ele><time>2026-04-28T13:17:36.202Z</time></trkpt><trkpt lat="38.16128" lon="14.743165"><ele>12.0</ele><time>2026-04-28T13:17:37.202Z</time></trkpt><trkpt lat="38.161345" lon="14.743235"><ele>12.0</ele><time>2026-04-28T13:17:38.202Z</time></trkpt><trkpt lat="38.16141" lon="14.7433067"><ele>12.0</ele><time>2026-04-28T13:17:39.202Z</time></trkpt><trkpt lat="38.1614717" lon="14.743375"><ele>12.0</ele><time>2026-04-28T13:17:40.202Z</time></trkpt><trkpt lat="38.1615417" lon="14.7434483"><ele>12.0</ele><time>2026-04-28T13:17:41.202Z</time></trkpt><trkpt lat="38.16161" lon="14.7435217"><ele>12.0</ele><time>2026-04-28T13:17:42.202Z</time></trkpt><trkpt lat="38.1616917" lon="14.74359"><ele>12.0</ele><time>2026-04-28T13:17:43.202Z</time></trkpt><trkpt lat="38.1617633" lon="14.7436533"><ele>12.0</ele><time>2026-04-28T13:17:44.202Z</time></trkpt><trkpt lat="38.1618333" lon="14.7437233"><ele>12.0</ele><time>2026-04-28T13:17:45.202Z</time></trkpt><trkpt lat="38.1618933" lon="14.7437983"><ele>12.0</ele><time>2026-04-28T13:17:46.203Z</time></trkpt><trkpt lat="38.1619567" lon="14.7438767"><ele>12.0</ele><time>2026-04-28T13:17:47.202Z</time></trkpt><trkpt lat="38.16202" lon="14.743955"><ele>12.0</ele><time>2026-04-28T13:17:48.202Z</time></trkpt><trkpt lat="38.162085" lon="14.74403"><ele>12.0</ele><time>2026-04-28T13:17:49.203Z</time></trkpt><trkpt lat="38.162155" lon="14.7440983"><ele>12.0</ele><time>2026-04-28T13:17:50.202Z</time></trkpt><trkpt lat="38.1622283" lon="14.744175"><ele>12.0</ele><time>2026-04-28T13:17:51.202Z</time></trkpt><trkpt lat="38.1622983" lon="14.7442517"><ele>12.0</ele><time>2026-04-28T13:17:52.202Z</time></trkpt><trkpt lat="38.1623717" lon="14.7443283"><ele>12.0</ele><time>2026-04-28T13:17:53.202Z</time></trkpt><trkpt lat="38.1624333" lon="14.7443967"><ele>12.0</ele><time>2026-04-28T13:17:54.202Z</time></trkpt><trkpt lat="38.1624967" lon="14.7444617"><ele>12.0</ele><time>2026-04-28T13:17:55.202Z</time></trkpt><trkpt lat="38.162555" lon="14.7445217"><ele>12.0</ele><time>2026-04-28T13:17:56.202Z</time></trkpt><trkpt lat="38.1626067" lon="14.744585"><ele>12.0</ele><time>2026-04-28T13:17:57.202Z</time></trkpt><trkpt lat="38.1626867" lon="14.744695"><ele>12.0</ele><time>2026-04-28T13:17:59.202Z</time></trkpt><trkpt lat="38.162765" lon="14.7447883"><ele>12.0</ele><time>2026-04-28T13:18:01.202Z</time></trkpt><trkpt lat="38.1628267" lon="14.7448517"><ele>12.0</ele><time>2026-04-28T13:18:03.202Z</time></trkpt><trkpt lat="38.16288" lon="14.7449267"><ele>12.0</ele><time>2026-04-28T13:18:06.202Z</time></trkpt><trkpt lat="38.16294" lon="14.7450067"><ele>12.0</ele><time>2026-04-28T13:19:12.202Z</time></trkpt><trkpt lat="38.1630383" lon="14.7451333"><ele>12.0</ele><time>2026-04-28T13:19:14.202Z</time></trkpt><trkpt lat="38.1631017" lon="14.7452017"><ele>12.0</ele><time>2026-04-28T13:19:15.202Z</time></trkpt><trkpt lat="38.1631617" lon="14.74527"><ele>12.0</ele><time>2026-04-28T13:19:16.202Z</time></trkpt><trkpt lat="38.1632167" lon="14.7453283"><ele>12.0</ele><time>2026-04-28T13:19:17.202Z</time></trkpt><trkpt lat="38.1632783" lon="14.7453983"><ele>11.666666666666666</ele><time>2026-04-28T13:19:18.202Z</time></trkpt><trkpt lat="38.163335" lon="14.7454733"><ele>11.333333333333334</ele><time>2026-04-28T13:19:19.202Z</time></trkpt><trkpt lat="38.1633883" lon="14.745555"><ele>11.0</ele><time>2026-04-28T13:19:20.202Z</time></trkpt><trkpt lat="38.16344" lon="14.7456317"><ele>10.666666666666668</ele><time>2026-04-28T13:19:21.202Z</time></trkpt><trkpt lat="38.16349" lon="14.7457133"><ele>10.333333333333334</ele><time>2026-04-28T13:19:22.202Z</time></trkpt><trkpt lat="38.1635367" lon="14.7457967"><ele>10.0</ele><time>2026-04-28T13:19:23.202Z</time></trkpt><trkpt lat="38.1635867" lon="14.7458867"><ele>10.0</ele><time>2026-04-28T13:19:24.202Z</time></trkpt><trkpt lat="38.1636333" lon="14.7459833"><ele>10.0</ele><time>2026-04-28T13:19:25.203Z</time></trkpt><trkpt lat="38.1636833" lon="14.7460783"><ele>10.0</ele><time>2026-04-28T13:19:26.202Z</time></trkpt><trkpt lat="38.16373" lon="14.746175"><ele>10.0</ele><time>2026-04-28T13:19:27.202Z</time></trkpt><trkpt lat="38.1637717" lon="14.7462583"><ele>10.0</ele><time>2026-04-28T13:19:28.203Z</time></trkpt><trkpt lat="38.16381" lon="14.74633"><ele>10.0</ele><time>2026-04-28T13:19:29.202Z</time></trkpt><trkpt lat="38.1638783" lon="14.746435"><ele>10.833333333333334</ele><time>2026-04-28T13:19:31.202Z</time></trkpt><trkpt lat="38.1639233" lon="14.7465117"><ele>11.666666666666668</ele><time>2026-04-28T13:19:33.202Z</time></trkpt><trkpt lat="38.1639533" lon="14.746615"><ele>12.5</ele><time>2026-04-28T13:19:36.202Z</time></trkpt><trkpt lat="38.1639533" lon="14.7466983"><ele>13.333333333333334</ele><time>2026-04-28T13:19:40.202Z</time></trkpt><trkpt lat="38.1639733" lon="14.7467817"><ele>14.166666666666666</ele><time>2026-04-28T13:19:44.202Z</time></trkpt><trkpt lat="38.1641" lon="14.74677"><ele>15.0</ele><time>2026-04-28T13:19:46.203Z</time></trkpt><trkpt lat="38.164175" lon="14.74675"><ele>15.0</ele><time>2026-04-28T13:19:47.202Z</time></trkpt><trkpt lat="38.164295" lon="14.746745"><ele>15.0</ele><time>2026-04-28T13:19:49.202Z</time></trkpt><trkpt lat="38.1644033" lon="14.7467483"><ele>15.0</ele><time>2026-04-28T13:19:51.202Z</time></trkpt><trkpt lat="38.1644667" lon="14.7467383"><ele>15.0</ele><time>2026-04-28T13:19:53.202Z</time></trkpt><trkpt lat="38.16454" lon="14.7467217"><ele>15.0</ele><time>2026-04-28T13:20:22.203Z</time></trkpt><trkpt lat="38.1646433" lon="14.746675"><ele>15.0</ele><time>2026-04-28T13:20:24.202Z</time></trkpt><trkpt lat="38.1647167" lon="14.74666"><ele>15.0</ele><time>2026-04-28T13:20:25.202Z</time></trkpt><trkpt lat="38.164785" lon="14.74666"><ele>15.0</ele><time>2026-04-28T13:20:26.202Z</time></trkpt><trkpt lat="38.1648483" lon="14.7467017"><ele>15.0</ele><time>2026-04-28T13:20:27.202Z</time></trkpt><trkpt lat="38.1649" lon="14.7467667"><ele>15.0</ele><time>2026-04-28T13:20:28.203Z</time></trkpt><trkpt lat="38.1649333" lon="14.74685"><ele>15.0</ele><time>2026-04-28T13:20:29.202Z</time></trkpt><trkpt lat="38.1649567" lon="14.746945"><ele>15.0</ele><time>2026-04-28T13:20:30.202Z</time></trkpt><trkpt lat="38.1649583" lon="14.747055"><ele>15.6</ele><time>2026-04-28T13:20:31.202Z</time></trkpt><trkpt lat="38.16494" lon="14.7471767"><ele>16.2</ele><time>2026-04-28T13:20:32.202Z</time></trkpt><trkpt lat="38.16493" lon="14.7472967"><ele>16.8</ele><time>2026-04-28T13:20:33.202Z</time></trkpt><trkpt lat="38.1649467" lon="14.7474167"><ele>17.4</ele><time>2026-04-28T13:20:34.202Z</time></trkpt><trkpt lat="38.1649883" lon="14.7475317"><ele>18.0</ele><time>2026-04-28T13:20:35.202Z</time></trkpt><trkpt lat="38.16504" lon="14.7476417"><ele>20.2</ele><time>2026-04-28T13:20:36.202Z</time></trkpt><trkpt lat="38.1650967" lon="14.74774"><ele>22.4</ele><time>2026-04-28T13:20:37.202Z</time></trkpt><trkpt lat="38.1651533" lon="14.74784"><ele>24.599999999999998</ele><time>2026-04-28T13:20:38.203Z</time></trkpt><trkpt lat="38.1652083" lon="14.747945"><ele>26.8</ele><time>2026-04-28T13:20:39.202Z</time></trkpt><trkpt lat="38.16526" lon="14.7480533"><ele>29.0</ele><time>2026-04-28T13:20:40.202Z</time></trkpt><trkpt lat="38.16531" lon="14.74816"><ele>29.0</ele><time>2026-04-28T13:20:41.202Z</time></trkpt><trkpt lat="38.1653583" lon="14.74826"><ele>29.0</ele><time>2026-04-28T13:20:42.202Z</time></trkpt><trkpt lat="38.165395" lon="14.7483667"><ele>29.0</ele><time>2026-04-28T13:20:43.202Z</time></trkpt><trkpt lat="38.165415" lon="14.7484833"><ele>29.0</ele><time>2026-04-28T13:20:44.202Z</time></trkpt><trkpt lat="38.165415" lon="14.748595"><ele>29.0</ele><time>2026-04-28T13:20:45.203Z</time></trkpt><trkpt lat="38.1653967" lon="14.7487117"><ele>28.0</ele><time>2026-04-28T13:20:46.202Z</time></trkpt><trkpt lat="38.1653533" lon="14.748825"><ele>27.0</ele><time>2026-04-28T13:20:47.202Z</time></trkpt><trkpt lat="38.16528" lon="14.74893"><ele>26.0</ele><time>2026-04-28T13:20:48.202Z</time></trkpt><trkpt lat="38.1652033" lon="14.74903"><ele>25.0</ele><time>2026-04-28T13:20:49.202Z</time></trkpt><trkpt lat="38.1651233" lon="14.7491333"><ele>24.0</ele><time>2026-04-28T13:20:50.202Z</time></trkpt><trkpt lat="38.1650517" lon="14.74925"><ele>24.0</ele><time>2026-04-28T13:20:51.202Z</time></trkpt><trkpt lat="38.16498" lon="14.7493533"><ele>24.0</ele><time>2026-04-28T13:20:52.203Z</time></trkpt><trkpt lat="38.1649017" lon="14.74944"><ele>24.0</ele><time>2026-04-28T13:20:53.202Z</time></trkpt><trkpt lat="38.1648167" lon="14.7495133"><ele>24.0</ele><time>2026-04-28T13:20:54.202Z</time></trkpt><trkpt lat="38.1647233" lon="14.7495867"><ele>24.0</ele><time>2026-04-28T13:20:55.202Z</time></trkpt><trkpt lat="38.16463" lon="14.7496467"><ele>23.2</ele><time>2026-04-28T13:20:56.202Z</time></trkpt><trkpt lat="38.1645383" lon="14.7497067"><ele>22.4</ele><time>2026-04-28T13:20:57.202Z</time></trkpt><trkpt lat="38.1644433" lon="14.74977"><ele>21.6</ele><time>2026-04-28T13:20:58.202Z</time></trkpt><trkpt lat="38.1643467" lon="14.749835"><ele>20.8</ele><time>2026-04-28T13:20:59.203Z</time></trkpt><trkpt lat="38.1642517" lon="14.7499"><ele>20.0</ele><time>2026-04-28T13:21:00.202Z</time></trkpt><trkpt lat="38.164155" lon="14.7499617"><ele>20.0</ele><time>2026-04-28T13:21:01.203Z</time></trkpt><trkpt lat="38.1640617" lon="14.7500183"><ele>20.0</ele><time>2026-04-28T13:21:02.202Z</time></trkpt><trkpt lat="38.16397" lon="14.750075"><ele>20.0</ele><time>2026-04-28T13:21:03.203Z</time></trkpt><trkpt lat="38.1638833" lon="14.7501433"><ele>20.0</ele><time>2026-04-28T13:21:04.203Z</time></trkpt><trkpt lat="38.1637917" lon="14.7501983"><ele>20.0</ele><time>2026-04-28T13:21:05.202Z</time></trkpt><trkpt lat="38.1637" lon="14.75025"><ele>17.4</ele><time>2026-04-28T13:21:06.202Z</time></trkpt><trkpt lat="38.16361" lon="14.7503"><ele>14.8</ele><time>2026-04-28T13:21:07.202Z</time></trkpt><trkpt lat="38.16352" lon="14.7503483"><ele>12.2</ele><time>2026-04-28T13:21:08.202Z</time></trkpt><trkpt lat="38.16343" lon="14.7504117"><ele>9.6</ele><time>2026-04-28T13:21:09.202Z</time></trkpt><trkpt lat="38.1633483" lon="14.7504567"><ele>7.0</ele><time>2026-04-28T13:21:10.202Z</time></trkpt><trkpt lat="38.1632667" lon="14.75051"><ele>11.6</ele><time>2026-04-28T13:21:11.202Z</time></trkpt><trkpt lat="38.1631833" lon="14.75058"><ele>16.2</ele><time>2026-04-28T13:21:12.202Z</time></trkpt><trkpt lat="38.1630933" lon="14.7506483"><ele>20.8</ele><time>2026-04-28T13:21:13.202Z</time></trkpt><trkpt lat="38.1629983" lon="14.7507217"><ele>25.4</ele><time>2026-04-28T13:21:14.202Z</time></trkpt><trkpt lat="38.1628967" lon="14.7507967"><ele>30.0</ele><time>2026-04-28T13:21:15.202Z</time></trkpt><trkpt lat="38.1627967" lon="14.7508733"><ele>30.0</ele><time>2026-04-28T13:21:16.202Z</time></trkpt><trkpt lat="38.1626983" lon="14.750955"><ele>30.0</ele><time>2026-04-28T13:21:17.202Z</time></trkpt><trkpt lat="38.1625917" lon="14.751035"><ele>30.0</ele><time>2026-04-28T13:21:18.202Z</time></trkpt><trkpt lat="38.1624817" lon="14.751105"><ele>30.0</ele><time>2026-04-28T13:21:19.203Z</time></trkpt><trkpt lat="38.1623767" lon="14.75118"><ele>33.8</ele><time>2026-04-28T13:21:20.202Z</time></trkpt><trkpt lat="38.1622833" lon="14.7512533"><ele>37.6</ele><time>2026-04-28T13:21:21.202Z</time></trkpt><trkpt lat="38.162195" lon="14.7513283"><ele>41.400000000000006</ele><time>2026-04-28T13:21:22.203Z</time></trkpt><trkpt lat="38.1621083" lon="14.7514"><ele>45.2</ele><time>2026-04-28T13:21:23.202Z</time></trkpt><trkpt lat="38.1620233" lon="14.75149"><ele>49.0</ele><time>2026-04-28T13:21:24.202Z</time></trkpt><trkpt lat="38.1619567" lon="14.7515967"><ele>49.0</ele><time>2026-04-28T13:21:25.202Z</time></trkpt><trkpt lat="38.1619083" lon="14.75172"><ele>49.0</ele><time>2026-04-28T13:21:26.202Z</time></trkpt><trkpt lat="38.16187" lon="14.75185"><ele>49.0</ele><time>2026-04-28T13:21:27.202Z</time></trkpt><trkpt lat="38.161825" lon="14.751975"><ele>49.0</ele><time>2026-04-28T13:21:28.202Z</time></trkpt><trkpt lat="38.16179" lon="14.7520917"><ele>49.0</ele><time>2026-04-28T13:21:29.202Z</time></trkpt><trkpt lat="38.1617567" lon="14.752215"><ele>51.0</ele><time>2026-04-28T13:21:30.202Z</time></trkpt><trkpt lat="38.1617233" lon="14.7523367"><ele>53.0</ele><time>2026-04-28T13:21:31.202Z</time></trkpt><trkpt lat="38.16168" lon="14.7524567"><ele>55.00000000000001</ele><time>2026-04-28T13:21:32.202Z</time></trkpt><trkpt lat="38.1616367" lon="14.75258"><ele>57.0</ele><time>2026-04-28T13:21:33.202Z</time></trkpt><trkpt lat="38.1615767" lon="14.7526933"><ele>59.0</ele><time>2026-04-28T13:21:34.202Z</time></trkpt><trkpt lat="38.1615117" lon="14.7528017"><ele>59.0</ele><time>2026-04-28T13:21:35.202Z</time></trkpt><trkpt lat="38.1614667" lon="14.75292"><ele>59.00000000000001</ele><time>2026-04-28T13:21:36.203Z</time></trkpt><trkpt lat="38.1614367" lon="14.7530533"><ele>59.00000000000001</ele><time>2026-04-28T13:21:37.202Z</time></trkpt><trkpt lat="38.161425" lon="14.75318"><ele>59.0</ele><time>2026-04-28T13:21:38.203Z</time></trkpt><trkpt lat="38.161425" lon="14.7533017"><ele>59.0</ele><time>2026-04-28T13:21:39.202Z</time></trkpt><trkpt lat="38.16142" lon="14.75341"><ele>59.00000000000001</ele><time>2026-04-28T13:21:40.202Z</time></trkpt><trkpt lat="38.161415" lon="14.7535067"><ele>59.0</ele><time>2026-04-28T13:21:41.202Z</time></trkpt><trkpt lat="38.1614017" lon="14.7535983"><ele>59.0</ele><time>2026-04-28T13:21:42.202Z</time></trkpt><trkpt lat="38.161385" lon="14.7536783"><ele>59.0</ele><time>2026-04-28T13:21:43.202Z</time></trkpt><trkpt lat="38.1613367" lon="14.753815"><ele>59.00000000000001</ele><time>2026-04-28T13:21:45.202Z</time></trkpt><trkpt lat="38.161295" lon="14.753915"><ele>59.0</ele><time>2026-04-28T13:21:47.202Z</time></trkpt><trkpt lat="38.1612267" lon="14.7539783"><ele>54.16666666666667</ele><time>2026-04-28T13:21:49.202Z</time></trkpt><trkpt lat="38.1611767" lon="14.7540683"><ele>49.333333333333336</ele><time>2026-04-28T13:21:51.203Z</time></trkpt><trkpt lat="38.1611183" lon="14.7541267"><ele>44.5</ele><time>2026-04-28T13:21:53.202Z</time></trkpt><trkpt lat="38.16105" lon="14.7541883"><ele>39.66666666666667</ele><time>2026-04-28T13:21:55.202Z</time></trkpt><trkpt lat="38.1609733" lon="14.7542483"><ele>34.833333333333336</ele><time>2026-04-28T13:21:57.203Z</time></trkpt><trkpt lat="38.1608967" lon="14.7543117"><ele>30.0</ele><time>2026-04-28T13:21:59.202Z</time></trkpt><trkpt lat="38.16083" lon="14.7543683"><ele>32.285714285714285</ele><time>2026-04-28T13:22:01.202Z</time></trkpt><trkpt lat="38.1607783" lon="14.7544317"><ele>34.57142857142857</ele><time>2026-04-28T13:22:03.203Z</time></trkpt><trkpt lat="38.160725" lon="14.754495"><ele>36.85714285714286</ele><time>2026-04-28T13:22:05.202Z</time></trkpt><trkpt lat="38.160675" lon="14.7545683"><ele>39.14285714285714</ele><time>2026-04-28T13:22:07.203Z</time></trkpt><trkpt lat="38.160635" lon="14.75464"><ele>41.42857142857142</ele><time>2026-04-28T13:22:09.202Z</time></trkpt><trkpt lat="38.1605933" lon="14.75472"><ele>43.714285714285715</ele><time>2026-04-28T13:22:11.203Z</time></trkpt><trkpt lat="38.16055" lon="14.7548067"><ele>46.0</ele><time>2026-04-28T13:22:13.202Z</time></trkpt><trkpt lat="38.1604967" lon="14.7548833"><ele>46.0</ele><time>2026-04-28T13:22:15.203Z</time></trkpt><trkpt lat="38.1604483" lon="14.754945"><ele>46.0</ele><time>2026-04-28T13:22:17.202Z</time></trkpt><trkpt lat="38.1604067" lon="14.7550233"><ele>46.0</ele><time>2026-04-28T13:22:20.202Z</time></trkpt><trkpt lat="38.1603217" lon="14.755155"><ele>46.0</ele><time>2026-04-28T13:23:10.201Z</time></trkpt><trkpt lat="38.1602767" lon="14.7552583"><ele>46.0</ele><time>2026-04-28T13:23:12.202Z</time></trkpt><trkpt lat="38.160235" lon="14.7553317"><ele>46.0</ele><time>2026-04-28T13:23:13.201Z</time></trkpt><trkpt lat="38.1601933" lon="14.7554083"><ele>45.66666666666667</ele><time>2026-04-28T13:23:14.201Z</time></trkpt><trkpt lat="38.1601533" lon="14.7554883"><ele>45.333333333333336</ele><time>2026-04-28T13:23:15.201Z</time></trkpt><trkpt lat="38.1601067" lon="14.7555567"><ele>45.0</ele><time>2026-04-28T13:23:16.201Z</time></trkpt><trkpt lat="38.1600483" lon="14.7556167"><ele>44.666666666666664</ele><time>2026-04-28T13:23:17.201Z</time></trkpt><trkpt lat="38.15998" lon="14.7556683"><ele>44.33333333333333</ele><time>2026-04-28T13:23:18.201Z</time></trkpt><trkpt lat="38.1599067" lon="14.7557167"><ele>44.0</ele><time>2026-04-28T13:23:19.201Z</time></trkpt><trkpt lat="38.15983" lon="14.7557667"><ele>44.0</ele><time>2026-04-28T13:23:20.201Z</time></trkpt><trkpt lat="38.15975" lon="14.75582"><ele>44.0</ele><time>2026-04-28T13:23:21.201Z</time></trkpt><trkpt lat="38.1596733" lon="14.7558817"><ele>44.0</ele><time>2026-04-28T13:23:22.202Z</time></trkpt><trkpt lat="38.1596067" lon="14.7559583"><ele>44.0</ele><time>2026-04-28T13:23:23.201Z</time></trkpt><trkpt lat="38.159545" lon="14.756065"><ele>44.0</ele><time>2026-04-28T13:23:24.202Z</time></trkpt><trkpt lat="38.1594867" lon="14.7561867"><ele>41.2</ele><time>2026-04-28T13:23:25.201Z</time></trkpt><trkpt lat="38.1594333" lon="14.7563017"><ele>38.400000000000006</ele><time>2026-04-28T13:23:26.202Z</time></trkpt><trkpt lat="38.1593867" lon="14.7564233"><ele>35.6</ele><time>2026-04-28T13:23:27.201Z</time></trkpt><trkpt lat="38.1593483" lon="14.7565583"><ele>32.8</ele><time>2026-04-28T13:23:28.201Z</time></trkpt><trkpt lat="38.159315" lon="14.7567017"><ele>30.0</ele><time>2026-04-28T13:23:29.201Z</time></trkpt><trkpt lat="38.1592967" lon="14.75685"><ele>28.5</ele><time>2026-04-28T13:23:30.201Z</time></trkpt><trkpt lat="38.159285" lon="14.757"><ele>27.0</ele><time>2026-04-28T13:23:31.201Z</time></trkpt><trkpt lat="38.1592733" lon="14.75716"><ele>25.5</ele><time>2026-04-28T13:23:32.201Z</time></trkpt><trkpt lat="38.15926" lon="14.75732"><ele>24.0</ele><time>2026-04-28T13:23:33.201Z</time></trkpt><trkpt lat="38.159235" lon="14.7574733"><ele>24.0</ele><time>2026-04-28T13:23:34.201Z</time></trkpt><trkpt lat="38.1592117" lon="14.7576267"><ele>24.0</ele><time>2026-04-28T13:23:35.202Z</time></trkpt><trkpt lat="38.15916" lon="14.7577733"><ele>24.0</ele><time>2026-04-28T13:23:36.201Z</time></trkpt><trkpt lat="38.15913" lon="14.75791"><ele>24.0</ele><time>2026-04-28T13:23:37.202Z</time></trkpt><trkpt lat="38.1590983" lon="14.7580283"><ele>25.25</ele><time>2026-04-28T13:23:38.201Z</time></trkpt><trkpt lat="38.159035" lon="14.7581767"><ele>26.5</ele><time>2026-04-28T13:23:39.201Z</time></trkpt><trkpt lat="38.1589717" lon="14.7583267"><ele>27.75</ele><time>2026-04-28T13:23:40.202Z</time></trkpt><trkpt lat="38.1589083" lon="14.7584767"><ele>29.0</ele><time>2026-04-28T13:23:41.202Z</time></trkpt><trkpt lat="38.1588317" lon="14.7586183"><ele>25.5</ele><time>2026-04-28T13:23:42.202Z</time></trkpt><trkpt lat="38.1587633" lon="14.7587633"><ele>22.0</ele><time>2026-04-28T13:23:43.201Z</time></trkpt><trkpt lat="38.1586717" lon="14.75887"><ele>18.5</ele><time>2026-04-28T13:23:44.201Z</time></trkpt><trkpt lat="38.158575" lon="14.758965"><ele>15.0</ele><time>2026-04-28T13:23:45.201Z</time></trkpt><trkpt lat="38.15847" lon="14.75907"><ele>15.0</ele><time>2026-04-28T13:23:46.201Z</time></trkpt><trkpt lat="38.1583633" lon="14.7591583"><ele>15.0</ele><time>2026-04-28T13:23:47.201Z</time></trkpt><trkpt lat="38.1582433" lon="14.7592567"><ele>15.0</ele><time>2026-04-28T13:23:48.201Z</time></trkpt><trkpt lat="38.158135" lon="14.7593633"><ele>15.0</ele><time>2026-04-28T13:23:49.201Z</time></trkpt><trkpt lat="38.15803" lon="14.759455"><ele>12.75</ele><time>2026-04-28T13:23:50.201Z</time></trkpt><trkpt lat="38.1579267" lon="14.759555"><ele>10.5</ele><time>2026-04-28T13:23:51.201Z</time></trkpt><trkpt lat="38.15783" lon="14.759645"><ele>8.25</ele><time>2026-04-28T13:23:52.201Z</time></trkpt><trkpt lat="38.1577233" lon="14.7597433"><ele>6.0</ele><time>2026-04-28T13:23:53.201Z</time></trkpt><trkpt lat="38.1576117" lon="14.7598283"><ele>6.0</ele><time>2026-04-28T13:23:54.201Z</time></trkpt><trkpt lat="38.1574983" lon="14.7598967"><ele>6.0</ele><time>2026-04-28T13:23:55.201Z</time></trkpt><trkpt lat="38.1573933" lon="14.759955"><ele>6.0</ele><time>2026-04-28T13:23:56.201Z</time></trkpt><trkpt lat="38.1572983" lon="14.7600067"><ele>6.0</ele><time>2026-04-28T13:23:57.201Z</time></trkpt><trkpt lat="38.1572017" lon="14.7600433"><ele>6.0</ele><time>2026-04-28T13:23:58.201Z</time></trkpt><trkpt lat="38.157105" lon="14.7600817"><ele>6.5</ele><time>2026-04-28T13:23:59.201Z</time></trkpt><trkpt lat="38.1570267" lon="14.7601183"><ele>7.0</ele><time>2026-04-28T13:24:00.201Z</time></trkpt><trkpt lat="38.15695" lon="14.7601517"><ele>7.5</ele><time>2026-04-28T13:24:01.201Z</time></trkpt><trkpt lat="38.1568767" lon="14.7601817"><ele>8.0</ele><time>2026-04-28T13:24:02.202Z</time></trkpt><trkpt lat="38.1568183" lon="14.7602117"><ele>8.5</ele><time>2026-04-28T13:24:03.201Z</time></trkpt><trkpt lat="38.1567667" lon="14.7602617"><ele>9.0</ele><time>2026-04-28T13:24:04.201Z</time></trkpt><trkpt lat="38.1566767" lon="14.7603583"><ele>9.0</ele><time>2026-04-28T13:24:06.202Z</time></trkpt><trkpt lat="38.1566083" lon="14.7604383"><ele>9.0</ele><time>2026-04-28T13:24:08.201Z</time></trkpt><trkpt lat="38.1565633" lon="14.7605"><ele>9.0</ele><time>2026-04-28T13:24:10.202Z</time></trkpt><trkpt lat="38.1564933" lon="14.7606017"><ele>9.0</ele><time>2026-04-28T13:24:12.201Z</time></trkpt><trkpt lat="38.156445" lon="14.7606733"><ele>9.0</ele><time>2026-04-28T13:24:13.201Z</time></trkpt><trkpt lat="38.1564083" lon="14.7607617"><ele>9.0</ele><time>2026-04-28T13:24:14.202Z</time></trkpt><trkpt lat="38.156365" lon="14.76082"><ele>9.714285714285715</ele><time>2026-04-28T13:24:15.201Z</time></trkpt><trkpt lat="38.1563233" lon="14.7609033"><ele>10.428571428571429</ele><time>2026-04-28T13:24:17.201Z</time></trkpt><trkpt lat="38.1563267" lon="14.7609917"><ele>11.142857142857142</ele><time>2026-04-28T13:26:13.202Z</time></trkpt><trkpt lat="38.1562983" lon="14.7610883"><ele>11.857142857142858</ele><time>2026-04-28T13:26:15.201Z</time></trkpt><trkpt lat="38.1562783" lon="14.76117"><ele>12.571428571428571</ele><time>2026-04-28T13:26:16.201Z</time></trkpt><trkpt lat="38.15626" lon="14.7612517"><ele>13.285714285714286</ele><time>2026-04-28T13:26:17.201Z</time></trkpt><trkpt lat="38.1562417" lon="14.761335"><ele>14.0</ele><time>2026-04-28T13:26:18.201Z</time></trkpt><trkpt lat="38.1562183" lon="14.7614167"><ele>14.0</ele><time>2026-04-28T13:26:19.201Z</time></trkpt><trkpt lat="38.1561967" lon="14.7615083"><ele>14.0</ele><time>2026-04-28T13:26:20.201Z</time></trkpt><trkpt lat="38.1561717" lon="14.761595"><ele>14.0</ele><time>2026-04-28T13:26:21.201Z</time></trkpt><trkpt lat="38.1561433" lon="14.7616733"><ele>14.0</ele><time>2026-04-28T13:26:22.201Z</time></trkpt><trkpt lat="38.1561367" lon="14.761755"><ele>14.0</ele><time>2026-04-28T13:26:23.202Z</time></trkpt><trkpt lat="38.1561183" lon="14.7618383"><ele>14.0</ele><time>2026-04-28T13:26:24.201Z</time></trkpt><trkpt lat="38.1560983" lon="14.7619383"><ele>14.0</ele><time>2026-04-28T13:26:25.202Z</time></trkpt><trkpt lat="38.15609" lon="14.7620467"><ele>14.0</ele><time>2026-04-28T13:26:26.201Z</time></trkpt><trkpt lat="38.1560833" lon="14.7621683"><ele>13.999999999999998</ele><time>2026-04-28T13:26:27.202Z</time></trkpt><trkpt lat="38.1560767" lon="14.7622933"><ele>13.999999999999998</ele><time>2026-04-28T13:26:28.201Z</time></trkpt><trkpt lat="38.1560683" lon="14.76243"><ele>14.0</ele><time>2026-04-28T13:26:29.201Z</time></trkpt><trkpt lat="38.1560517" lon="14.762565"><ele>14.0</ele><time>2026-04-28T13:26:30.201Z</time></trkpt><trkpt lat="38.1560317" lon="14.762705"><ele>13.6</ele><time>2026-04-28T13:26:31.201Z</time></trkpt><trkpt lat="38.155995" lon="14.76284"><ele>13.2</ele><time>2026-04-28T13:26:32.201Z</time></trkpt><trkpt lat="38.1559683" lon="14.7629683"><ele>12.799999999999999</ele><time>2026-04-28T13:26:33.202Z</time></trkpt><trkpt lat="38.1559483" lon="14.76311"><ele>12.399999999999999</ele><time>2026-04-28T13:26:34.201Z</time></trkpt><trkpt lat="38.1559517" lon="14.76324"><ele>12.0</ele><time>2026-04-28T13:26:35.201Z</time></trkpt><trkpt lat="38.1559517" lon="14.7633867"><ele>12.0</ele><time>2026-04-28T13:26:36.201Z</time></trkpt><trkpt lat="38.1559683" lon="14.76353"><ele>12.0</ele><time>2026-04-28T13:26:37.201Z</time></trkpt><trkpt lat="38.1559817" lon="14.7636783"><ele>12.0</ele><time>2026-04-28T13:26:38.201Z</time></trkpt><trkpt lat="38.1559967" lon="14.7638183"><ele>12.0</ele><time>2026-04-28T13:26:39.201Z</time></trkpt><trkpt lat="38.1560017" lon="14.76396"><ele>12.0</ele><time>2026-04-28T13:26:40.201Z</time></trkpt><trkpt lat="38.1560133" lon="14.764095"><ele>12.0</ele><time>2026-04-28T13:26:41.202Z</time></trkpt><trkpt lat="38.1560217" lon="14.764225"><ele>12.0</ele><time>2026-04-28T13:26:42.201Z</time></trkpt><trkpt lat="38.156045" lon="14.7643517"><ele>12.0</ele><time>2026-04-28T13:26:43.201Z</time></trkpt><trkpt lat="38.1560417" lon="14.7644733"><ele>12.0</ele><time>2026-04-28T13:26:44.201Z</time></trkpt><trkpt lat="38.1560217" lon="14.76459"><ele>12.0</ele><time>2026-04-28T13:26:45.201Z</time></trkpt><trkpt lat="38.155955" lon="14.76469"><ele>12.0</ele><time>2026-04-28T13:26:46.201Z</time></trkpt><trkpt lat="38.1558817" lon="14.7647833"><ele>12.0</ele><time>2026-04-28T13:26:47.201Z</time></trkpt><trkpt lat="38.1558" lon="14.7648717"><ele>12.0</ele><time>2026-04-28T13:26:48.201Z</time></trkpt><trkpt lat="38.1557167" lon="14.76497"><ele>12.0</ele><time>2026-04-28T13:26:49.201Z</time></trkpt><trkpt lat="38.155635" lon="14.7650667"><ele>11.0</ele><time>2026-04-28T13:26:50.201Z</time></trkpt><trkpt lat="38.1555533" lon="14.7651683"><ele>10.0</ele><time>2026-04-28T13:26:51.201Z</time></trkpt><trkpt lat="38.1554683" lon="14.765265"><ele>9.0</ele><time>2026-04-28T13:26:52.201Z</time></trkpt><trkpt lat="38.15537" lon="14.76535"><ele>8.0</ele><time>2026-04-28T13:26:53.202Z</time></trkpt><trkpt lat="38.15526" lon="14.7654267"><ele>8.0</ele><time>2026-04-28T13:26:54.201Z</time></trkpt><trkpt lat="38.155155" lon="14.7655067"><ele>8.0</ele><time>2026-04-28T13:26:55.201Z</time></trkpt><trkpt lat="38.155055" lon="14.7655883"><ele>8.0</ele><time>2026-04-28T13:26:56.201Z</time></trkpt><trkpt lat="38.1549583" lon="14.7656733"><ele>8.0</ele><time>2026-04-28T13:26:57.201Z</time></trkpt><trkpt lat="38.1548533" lon="14.7657433"><ele>8.0</ele><time>2026-04-28T13:26:58.201Z</time></trkpt><trkpt lat="38.154745" lon="14.76583"><ele>8.0</ele><time>2026-04-28T13:26:59.201Z</time></trkpt><trkpt lat="38.154635" lon="14.76592"><ele>8.0</ele><time>2026-04-28T13:27:00.201Z</time></trkpt><trkpt lat="38.1545317" lon="14.766015"><ele>8.0</ele><time>2026-04-28T13:27:01.201Z</time></trkpt><trkpt lat="38.1544267" lon="14.7661"><ele>8.0</ele><time>2026-04-28T13:27:02.201Z</time></trkpt><trkpt lat="38.154315" lon="14.766185"><ele>8.0</ele><time>2026-04-28T13:27:03.201Z</time></trkpt><trkpt lat="38.1542067" lon="14.766265"><ele>8.0</ele><time>2026-04-28T13:27:04.201Z</time></trkpt><trkpt lat="38.154105" lon="14.766345"><ele>8.0</ele><time>2026-04-28T13:27:05.202Z</time></trkpt><trkpt lat="38.1540033" lon="14.7664183"><ele>8.8</ele><time>2026-04-28T13:27:06.201Z</time></trkpt><trkpt lat="38.15391" lon="14.7664633"><ele>9.600000000000001</ele><time>2026-04-28T13:27:07.201Z</time></trkpt><trkpt lat="38.1538233" lon="14.76647"><ele>10.399999999999999</ele><time>2026-04-28T13:27:08.201Z</time></trkpt><trkpt lat="38.153745" lon="14.7664667"><ele>11.2</ele><time>2026-04-28T13:27:09.201Z</time></trkpt><trkpt lat="38.1536417" lon="14.7664583"><ele>12.0</ele><time>2026-04-28T13:27:11.202Z</time></trkpt><trkpt lat="38.153555" lon="14.7664717"><ele>12.0</ele><time>2026-04-28T13:27:19.201Z</time></trkpt><trkpt lat="38.1534767" lon="14.7665567"><ele>12.0</ele><time>2026-04-28T13:27:21.201Z</time></trkpt><trkpt lat="38.1534233" lon="14.7666233"><ele>12.0</ele><time>2026-04-28T13:27:22.201Z</time></trkpt><trkpt lat="38.1533617" lon="14.7667033"><ele>12.0</ele><time>2026-04-28T13:27:23.201Z</time></trkpt><trkpt lat="38.1533017" lon="14.7667967"><ele>12.0</ele><time>2026-04-28T13:27:24.201Z</time></trkpt><trkpt lat="38.1532483" lon="14.766905"><ele>15.399999999999999</ele><time>2026-04-28T13:27:25.201Z</time></trkpt><trkpt lat="38.1531933" lon="14.7670233"><ele>18.799999999999997</ele><time>2026-04-28T13:27:26.201Z</time></trkpt><trkpt lat="38.1531367" lon="14.7671467"><ele>22.2</ele><time>2026-04-28T13:27:27.201Z</time></trkpt><trkpt lat="38.15309" lon="14.76728"><ele>25.599999999999998</ele><time>2026-04-28T13:27:28.202Z</time></trkpt><trkpt lat="38.1530583" lon="14.7673983"><ele>29.0</ele><time>2026-04-28T13:27:29.201Z</time></trkpt><trkpt lat="38.153035" lon="14.7675217"><ele>29.0</ele><time>2026-04-28T13:27:30.201Z</time></trkpt><trkpt lat="38.153015" lon="14.7676383"><ele>29.0</ele><time>2026-04-28T13:27:31.201Z</time></trkpt><trkpt lat="38.1530033" lon="14.7677833"><ele>29.0</ele><time>2026-04-28T13:27:32.201Z</time></trkpt><trkpt lat="38.1530033" lon="14.7679217"><ele>29.0</ele><time>2026-04-28T13:27:33.201Z</time></trkpt><trkpt lat="38.1530217" lon="14.768065"><ele>29.0</ele><time>2026-04-28T13:27:34.201Z</time></trkpt><trkpt lat="38.15302" lon="14.7682217"><ele>32.0</ele><time>2026-04-28T13:27:35.201Z</time></trkpt><trkpt lat="38.1530233" lon="14.76838"><ele>35.0</ele><time>2026-04-28T13:27:36.201Z</time></trkpt><trkpt lat="38.1530317" lon="14.768535"><ele>38.0</ele><time>2026-04-28T13:27:37.201Z</time></trkpt><trkpt lat="38.15306" lon="14.7686783"><ele>41.0</ele><time>2026-04-28T13:27:38.201Z</time></trkpt><trkpt lat="38.153095" lon="14.768805"><ele>44.0</ele><time>2026-04-28T13:27:39.201Z</time></trkpt><trkpt lat="38.1531767" lon="14.7689317"><ele>47.0</ele><time>2026-04-28T13:27:40.201Z</time></trkpt><trkpt lat="38.1532483" lon="14.7690583"><ele>50.0</ele><time>2026-04-28T13:27:41.201Z</time></trkpt><trkpt lat="38.153325" lon="14.7691817"><ele>53.0</ele><time>2026-04-28T13:27:42.202Z</time></trkpt><trkpt lat="38.1533933" lon="14.7693"><ele>47.4</ele><time>2026-04-28T13:27:43.201Z</time></trkpt><trkpt lat="38.153445" lon="14.7694183"><ele>41.8</ele><time>2026-04-28T13:27:44.201Z</time></trkpt><trkpt lat="38.15348" lon="14.76953"><ele>36.2</ele><time>2026-04-28T13:27:45.201Z</time></trkpt><trkpt lat="38.1534967" lon="14.769645"><ele>30.6</ele><time>2026-04-28T13:27:46.202Z</time></trkpt><trkpt lat="38.1534983" lon="14.76976"><ele>25.0</ele><time>2026-04-28T13:27:47.201Z</time></trkpt><trkpt lat="38.1535067" lon="14.769865"><ele>25.0</ele><time>2026-04-28T13:27:48.201Z</time></trkpt><trkpt lat="38.15352" lon="14.7699617"><ele>25.0</ele><time>2026-04-28T13:27:49.201Z</time></trkpt><trkpt lat="38.153535" lon="14.7700533"><ele>25.0</ele><time>2026-04-28T13:27:50.202Z</time></trkpt><trkpt lat="38.15356" lon="14.7701367"><ele>25.0</ele><time>2026-04-28T13:27:51.201Z</time></trkpt><trkpt lat="38.1535783" lon="14.7702917"><ele>25.0</ele><time>2026-04-28T13:27:53.201Z</time></trkpt><trkpt lat="38.1535917" lon="14.7704667"><ele>23.4</ele><time>2026-04-28T13:27:55.201Z</time></trkpt><trkpt lat="38.1536" lon="14.7705717"><ele>21.8</ele><time>2026-04-28T13:27:56.201Z</time></trkpt><trkpt lat="38.1535967" lon="14.770695"><ele>20.2</ele><time>2026-04-28T13:27:57.201Z</time></trkpt><trkpt lat="38.153595" lon="14.770815"><ele>18.6</ele><time>2026-04-28T13:27:58.201Z</time></trkpt><trkpt lat="38.153595" lon="14.770935"><ele>17.0</ele><time>2026-04-28T13:27:59.201Z</time></trkpt><trkpt lat="38.1535933" lon="14.7710567"><ele>15.6</ele><time>2026-04-28T13:28:00.201Z</time></trkpt><trkpt lat="38.1535883" lon="14.771175"><ele>14.2</ele><time>2026-04-28T13:28:01.201Z</time></trkpt><trkpt lat="38.1535767" lon="14.7712933"><ele>12.8</ele><time>2026-04-28T13:28:02.201Z</time></trkpt><trkpt lat="38.1535533" lon="14.7714"><ele>11.4</ele><time>2026-04-28T13:28:03.201Z</time></trkpt><trkpt lat="38.1535167" lon="14.7715033"><ele>10.0</ele><time>2026-04-28T13:28:04.201Z</time></trkpt><trkpt lat="38.1534683" lon="14.7716017"><ele>10.0</ele><time>2026-04-28T13:28:05.201Z</time></trkpt><trkpt lat="38.1534" lon="14.7716817"><ele>10.0</ele><time>2026-04-28T13:28:06.201Z</time></trkpt><trkpt lat="38.1533317" lon="14.7717667"><ele>10.0</ele><time>2026-04-28T13:28:07.201Z</time></trkpt><trkpt lat="38.153245" lon="14.77185"><ele>10.0</ele><time>2026-04-28T13:28:08.201Z</time></trkpt><trkpt lat="38.15316" lon="14.7719133"><ele>10.0</ele><time>2026-04-28T13:28:09.201Z</time></trkpt><trkpt lat="38.1530983" lon="14.7720033"><ele>19.25</ele><time>2026-04-28T13:28:10.201Z</time></trkpt><trkpt lat="38.1530533" lon="14.77213"><ele>28.5</ele><time>2026-04-28T13:28:11.202Z</time></trkpt><trkpt lat="38.1530367" lon="14.7722683"><ele>37.75</ele><time>2026-04-28T13:28:12.201Z</time></trkpt><trkpt lat="38.1530383" lon="14.77242"><ele>47.0</ele><time>2026-04-28T13:28:13.201Z</time></trkpt><trkpt lat="38.1530367" lon="14.7725667"><ele>49.25</ele><time>2026-04-28T13:28:14.201Z</time></trkpt><trkpt lat="38.15304" lon="14.7727117"><ele>51.5</ele><time>2026-04-28T13:28:15.201Z</time></trkpt><trkpt lat="38.1530567" lon="14.7728533"><ele>53.75</ele><time>2026-04-28T13:28:16.201Z</time></trkpt><trkpt lat="38.1530667" lon="14.7730033"><ele>56.0</ele><time>2026-04-28T13:28:17.201Z</time></trkpt><trkpt lat="38.15309" lon="14.77314"><ele>56.0</ele><time>2026-04-28T13:28:18.201Z</time></trkpt><trkpt lat="38.1531167" lon="14.7732633"><ele>55.99999999999999</ele><time>2026-04-28T13:28:19.202Z</time></trkpt><trkpt lat="38.1531483" lon="14.7733817"><ele>55.99999999999999</ele><time>2026-04-28T13:28:20.202Z</time></trkpt><trkpt lat="38.1531633" lon="14.7734867"><ele>56.0</ele><time>2026-04-28T13:28:21.201Z</time></trkpt><trkpt lat="38.1532017" lon="14.7735717"><ele>56.0</ele><time>2026-04-28T13:28:22.201Z</time></trkpt><trkpt lat="38.1532483" lon="14.77369"><ele>50.599999999999994</ele><time>2026-04-28T13:28:24.201Z</time></trkpt><trkpt lat="38.15334" lon="14.7738217"><ele>45.199999999999996</ele><time>2026-04-28T13:28:26.201Z</time></trkpt><trkpt lat="38.1534067" lon="14.7738867"><ele>39.8</ele><time>2026-04-28T13:28:27.202Z</time></trkpt><trkpt lat="38.1534617" lon="14.7739483"><ele>34.4</ele><time>2026-04-28T13:28:28.201Z</time></trkpt><trkpt lat="38.1535133" lon="14.7740933"><ele>29.0</ele><time>2026-04-28T13:28:30.201Z</time></trkpt><trkpt lat="38.1535033" lon="14.77419"><ele>29.0</ele><time>2026-04-28T13:28:31.201Z</time></trkpt><trkpt lat="38.1534817" lon="14.7742917"><ele>29.0</ele><time>2026-04-28T13:28:32.201Z</time></trkpt><trkpt lat="38.1534483" lon="14.774405"><ele>29.0</ele><time>2026-04-28T13:28:33.201Z</time></trkpt><trkpt lat="38.1534233" lon="14.774525"><ele>29.0</ele><time>2026-04-28T13:28:34.201Z</time></trkpt><trkpt lat="38.153405" lon="14.774645"><ele>29.0</ele><time>2026-04-28T13:28:35.201Z</time></trkpt><trkpt lat="38.1533817" lon="14.77478"><ele>29.6</ele><time>2026-04-28T13:28:36.201Z</time></trkpt><trkpt lat="38.1533733" lon="14.7749233"><ele>30.2</ele><time>2026-04-28T13:28:37.201Z</time></trkpt><trkpt lat="38.153385" lon="14.7750533"><ele>30.800000000000004</ele><time>2026-04-28T13:28:38.201Z</time></trkpt><trkpt lat="38.15341" lon="14.7751767"><ele>31.400000000000002</ele><time>2026-04-28T13:28:39.201Z</time></trkpt><trkpt lat="38.1534367" lon="14.7752767"><ele>32.0</ele><time>2026-04-28T13:28:40.201Z</time></trkpt><trkpt lat="38.1534567" lon="14.7754"><ele>34.0</ele><time>2026-04-28T13:28:42.201Z</time></trkpt><trkpt lat="38.15348" lon="14.7754983"><ele>36.0</ele><time>2026-04-28T13:30:08.202Z</time></trkpt><trkpt lat="38.1535217" lon="14.7756367"><ele>38.0</ele><time>2026-04-28T13:30:10.201Z</time></trkpt><trkpt lat="38.1535433" lon="14.7757217"><ele>40.0</ele><time>2026-04-28T13:30:11.202Z</time></trkpt><trkpt lat="38.1535683" lon="14.7758233"><ele>42.0</ele><time>2026-04-28T13:30:12.201Z</time></trkpt><trkpt lat="38.15361" lon="14.77592"><ele>44.0</ele><time>2026-04-28T13:30:13.201Z</time></trkpt><trkpt lat="38.1536617" lon="14.7760217"><ele>46.800000000000004</ele><time>2026-04-28T13:30:14.201Z</time></trkpt><trkpt lat="38.15372" lon="14.77612"><ele>49.6</ele><time>2026-04-28T13:30:15.201Z</time></trkpt><trkpt lat="38.1537867" lon="14.7762217"><ele>52.4</ele><time>2026-04-28T13:30:16.202Z</time></trkpt><trkpt lat="38.15384" lon="14.7763217"><ele>55.2</ele><time>2026-04-28T13:30:17.201Z</time></trkpt><trkpt lat="38.1538867" lon="14.7764133"><ele>58.0</ele><time>2026-04-28T13:30:18.202Z</time></trkpt><trkpt lat="38.15391" lon="14.7765017"><ele>58.0</ele><time>2026-04-28T13:30:19.201Z</time></trkpt><trkpt lat="38.1539133" lon="14.7765883"><ele>58.0</ele><time>2026-04-28T13:30:20.201Z</time></trkpt><trkpt lat="38.1538917" lon="14.7766983"><ele>58.0</ele><time>2026-04-28T13:30:21.202Z</time></trkpt><trkpt lat="38.1538683" lon="14.77681"><ele>58.0</ele><time>2026-04-28T13:30:22.201Z</time></trkpt><trkpt lat="38.15383" lon="14.7769333"><ele>58.0</ele><time>2026-04-28T13:30:23.202Z</time></trkpt><trkpt lat="38.153805" lon="14.7770583"><ele>60.666666666666664</ele><time>2026-04-28T13:30:24.201Z</time></trkpt><trkpt lat="38.1538033" lon="14.7771783"><ele>63.33333333333333</ele><time>2026-04-28T13:30:25.201Z</time></trkpt><trkpt lat="38.1538217" lon="14.7773017"><ele>66.0</ele><time>2026-04-28T13:30:26.201Z</time></trkpt><trkpt lat="38.153845" lon="14.7774083"><ele>68.66666666666667</ele><time>2026-04-28T13:30:27.201Z</time></trkpt><trkpt lat="38.15387" lon="14.7775017"><ele>71.33333333333334</ele><time>2026-04-28T13:30:28.202Z</time></trkpt><trkpt lat="38.1538967" lon="14.777595"><ele>74.0</ele><time>2026-04-28T13:30:29.201Z</time></trkpt><trkpt lat="38.1539167" lon="14.7776767"><ele>75.16666666666667</ele><time>2026-04-28T13:30:30.201Z</time></trkpt><trkpt lat="38.153905" lon="14.7777833"><ele>76.33333333333334</ele><time>2026-04-28T13:30:32.202Z</time></trkpt><trkpt lat="38.1538567" lon="14.7778567"><ele>77.5</ele><time>2026-04-28T13:30:36.202Z</time></trkpt><trkpt lat="38.1538667" lon="14.7779783"><ele>78.66666666666667</ele><time>2026-04-28T13:30:38.201Z</time></trkpt><trkpt lat="38.1538933" lon="14.77806"><ele>79.83333333333333</ele><time>2026-04-28T13:30:39.201Z</time></trkpt><trkpt lat="38.153935" lon="14.7781533"><ele>81.0</ele><time>2026-04-28T13:30:40.201Z</time></trkpt><trkpt lat="38.1539733" lon="14.7782767"><ele>81.0</ele><time>2026-04-28T13:30:41.201Z</time></trkpt><trkpt lat="38.1539967" lon="14.7784233"><ele>81.0</ele><time>2026-04-28T13:30:42.201Z</time></trkpt><trkpt lat="38.153995" lon="14.7785767"><ele>81.0</ele><time>2026-04-28T13:30:43.201Z</time></trkpt><trkpt lat="38.1539667" lon="14.778735"><ele>81.0</ele><time>2026-04-28T13:30:44.201Z</time></trkpt><trkpt lat="38.1539267" lon="14.7788933"><ele>79.75</ele><time>2026-04-28T13:30:45.202Z</time></trkpt><trkpt lat="38.1538683" lon="14.779055"><ele>78.5</ele><time>2026-04-28T13:30:46.201Z</time></trkpt><trkpt lat="38.1538183" lon="14.7792183"><ele>77.25</ele><time>2026-04-28T13:30:47.2Z</time></trkpt><trkpt lat="38.153785" lon="14.779395"><ele>76.0</ele><time>2026-04-28T13:30:48.2Z</time></trkpt><trkpt lat="38.1537417" lon="14.77955"><ele>73.0</ele><time>2026-04-28T13:30:49.2Z</time></trkpt><trkpt lat="38.1536817" lon="14.779695"><ele>70.0</ele><time>2026-04-28T13:30:50.2Z</time></trkpt><trkpt lat="38.15361" lon="14.7798217"><ele>67.0</ele><time>2026-04-28T13:30:51.2Z</time></trkpt><trkpt lat="38.1535333" lon="14.77995"><ele>64.0</ele><time>2026-04-28T13:30:52.2Z</time></trkpt><trkpt lat="38.1534583" lon="14.7800633"><ele>58.75</ele><time>2026-04-28T13:30:53.2Z</time></trkpt><trkpt lat="38.1533883" lon="14.7801867"><ele>53.5</ele><time>2026-04-28T13:30:54.2Z</time></trkpt><trkpt lat="38.1533283" lon="14.7803183"><ele>48.25</ele><time>2026-04-28T13:30:55.2Z</time></trkpt><trkpt lat="38.1533067" lon="14.780475"><ele>43.0</ele><time>2026-04-28T13:30:56.2Z</time></trkpt><trkpt lat="38.1532967" lon="14.7806383"><ele>43.0</ele><time>2026-04-28T13:30:57.2Z</time></trkpt><trkpt lat="38.1532867" lon="14.7807883"><ele>43.0</ele><time>2026-04-28T13:30:58.2Z</time></trkpt><trkpt lat="38.1532683" lon="14.78093"><ele>43.0</ele><time>2026-04-28T13:30:59.201Z</time></trkpt><trkpt lat="38.1532317" lon="14.7810617"><ele>43.0</ele><time>2026-04-28T13:31:00.2Z</time></trkpt><trkpt lat="38.153155" lon="14.7811733"><ele>47.25</ele><time>2026-04-28T13:31:01.2Z</time></trkpt><trkpt lat="38.15306" lon="14.7812717"><ele>51.5</ele><time>2026-04-28T13:31:02.2Z</time></trkpt><trkpt lat="38.1529667" lon="14.78138"><ele>55.75</ele><time>2026-04-28T13:31:03.2Z</time></trkpt><trkpt lat="38.1528833" lon="14.7815067"><ele>60.0</ele><time>2026-04-28T13:31:04.201Z</time></trkpt><trkpt lat="38.1528067" lon="14.7816417"><ele>60.0</ele><time>2026-04-28T13:31:05.2Z</time></trkpt><trkpt lat="38.1527367" lon="14.7817633"><ele>60.0</ele><time>2026-04-28T13:31:06.2Z</time></trkpt><trkpt lat="38.1526433" lon="14.7818517"><ele>60.0</ele><time>2026-04-28T13:31:07.2Z</time></trkpt><trkpt lat="38.1525567" lon="14.7819383"><ele>60.0</ele><time>2026-04-28T13:31:08.2Z</time></trkpt><trkpt lat="38.1524817" lon="14.7820617"><ele>62.5</ele><time>2026-04-28T13:31:09.201Z</time></trkpt><trkpt lat="38.15242" lon="14.7822"><ele>65.0</ele><time>2026-04-28T13:31:10.201Z</time></trkpt><trkpt lat="38.1523567" lon="14.7823333"><ele>67.5</ele><time>2026-04-28T13:31:11.2Z</time></trkpt><trkpt lat="38.152265" lon="14.7824467"><ele>70.0</ele><time>2026-04-28T13:31:12.2Z</time></trkpt><trkpt lat="38.1521617" lon="14.7825517"><ele>70.0</ele><time>2026-04-28T13:31:13.2Z</time></trkpt><trkpt lat="38.1520467" lon="14.7826283"><ele>70.0</ele><time>2026-04-28T13:31:14.2Z</time></trkpt><trkpt lat="38.15194" lon="14.7827083"><ele>70.0</ele><time>2026-04-28T13:31:15.2Z</time></trkpt><trkpt lat="38.15183" lon="14.7827983"><ele>70.0</ele><time>2026-04-28T13:31:16.2Z</time></trkpt><trkpt lat="38.1517433" lon="14.782915"><ele>70.75</ele><time>2026-04-28T13:31:17.2Z</time></trkpt><trkpt lat="38.1516733" lon="14.7830367"><ele>71.5</ele><time>2026-04-28T13:31:18.2Z</time></trkpt><trkpt lat="38.1516017" lon="14.7831667"><ele>72.25</ele><time>2026-04-28T13:31:19.2Z</time></trkpt><trkpt lat="38.1515133" lon="14.7832817"><ele>73.0</ele><time>2026-04-28T13:31:20.2Z</time></trkpt><trkpt lat="38.15141" lon="14.78338"><ele>73.0</ele><time>2026-04-28T13:31:21.201Z</time></trkpt><trkpt lat="38.1513033" lon="14.7834633"><ele>73.0</ele><time>2026-04-28T13:31:22.201Z</time></trkpt><trkpt lat="38.1512" lon="14.7835367"><ele>73.0</ele><time>2026-04-28T13:31:23.2Z</time></trkpt><trkpt lat="38.1511" lon="14.7836167"><ele>73.0</ele><time>2026-04-28T13:31:24.2Z</time></trkpt><trkpt lat="38.15102" lon="14.7837067"><ele>64.5</ele><time>2026-04-28T13:31:25.2Z</time></trkpt><trkpt lat="38.15096" lon="14.7838367"><ele>56.0</ele><time>2026-04-28T13:31:26.2Z</time></trkpt><trkpt lat="38.1509217" lon="14.78398"><ele>47.5</ele><time>2026-04-28T13:31:27.201Z</time></trkpt><trkpt lat="38.1509" lon="14.7841533"><ele>39.0</ele><time>2026-04-28T13:31:28.201Z</time></trkpt><trkpt lat="38.1508617" lon="14.7843183"><ele>34.25</ele><time>2026-04-28T13:31:29.2Z</time></trkpt><trkpt lat="38.15082" lon="14.7844767"><ele>29.5</ele><time>2026-04-28T13:31:30.2Z</time></trkpt><trkpt lat="38.1507733" lon="14.784625"><ele>24.75</ele><time>2026-04-28T13:31:31.2Z</time></trkpt><trkpt lat="38.1507117" lon="14.784785"><ele>20.0</ele><time>2026-04-28T13:31:32.2Z</time></trkpt><trkpt lat="38.1506233" lon="14.7849583"><ele>27.25</ele><time>2026-04-28T13:31:33.2Z</time></trkpt><trkpt lat="38.15055" lon="14.7851133"><ele>34.5</ele><time>2026-04-28T13:31:34.201Z</time></trkpt><trkpt lat="38.1504667" lon="14.7852617"><ele>41.75</ele><time>2026-04-28T13:31:35.2Z</time></trkpt><trkpt lat="38.150395" lon="14.785415"><ele>49.0</ele><time>2026-04-28T13:31:36.2Z</time></trkpt><trkpt lat="38.1503333" lon="14.7855767"><ele>49.0</ele><time>2026-04-28T13:31:37.2Z</time></trkpt><trkpt lat="38.1502767" lon="14.7857467"><ele>49.0</ele><time>2026-04-28T13:31:38.201Z</time></trkpt><trkpt lat="38.1502233" lon="14.785915"><ele>49.0</ele><time>2026-04-28T13:31:39.2Z</time></trkpt><trkpt lat="38.150155" lon="14.7860717"><ele>49.0</ele><time>2026-04-28T13:31:40.2Z</time></trkpt><trkpt lat="38.150085" lon="14.7862317"><ele>53.75</ele><time>2026-04-28T13:31:41.2Z</time></trkpt><trkpt lat="38.150015" lon="14.7863983"><ele>58.5</ele><time>2026-04-28T13:31:42.2Z</time></trkpt><trkpt lat="38.149945" lon="14.78656"><ele>63.25</ele><time>2026-04-28T13:31:43.2Z</time></trkpt><trkpt lat="38.1498733" lon="14.7867217"><ele>68.0</ele><time>2026-04-28T13:31:44.2Z</time></trkpt><trkpt lat="38.1498" lon="14.7868767"><ele>68.0</ele><time>2026-04-28T13:31:45.2Z</time></trkpt><trkpt lat="38.1497317" lon="14.7870283"><ele>68.0</ele><time>2026-04-28T13:31:46.2Z</time></trkpt><trkpt lat="38.1496883" lon="14.7871983"><ele>68.0</ele><time>2026-04-28T13:31:47.2Z</time></trkpt><trkpt lat="38.1496767" lon="14.7873733"><ele>68.0</ele><time>2026-04-28T13:31:48.2Z</time></trkpt><trkpt lat="38.1496717" lon="14.78755"><ele>61.25</ele><time>2026-04-28T13:31:49.2Z</time></trkpt><trkpt lat="38.1496483" lon="14.7877167"><ele>54.5</ele><time>2026-04-28T13:31:50.2Z</time></trkpt><trkpt lat="38.149605" lon="14.7878867"><ele>47.75</ele><time>2026-04-28T13:31:51.2Z</time></trkpt><trkpt lat="38.1495367" lon="14.78804"><ele>41.0</ele><time>2026-04-28T13:31:52.2Z</time></trkpt><trkpt lat="38.14944" lon="14.788175"><ele>41.0</ele><time>2026-04-28T13:31:53.2Z</time></trkpt><trkpt lat="38.1493383" lon="14.7883067"><ele>41.0</ele><time>2026-04-28T13:31:54.201Z</time></trkpt><trkpt lat="38.14923" lon="14.7884283"><ele>41.0</ele><time>2026-04-28T13:31:55.2Z</time></trkpt><trkpt lat="38.149125" lon="14.78855"><ele>41.0</ele><time>2026-04-28T13:31:56.2Z</time></trkpt><trkpt lat="38.149045" lon="14.7886933"><ele>49.666666666666664</ele><time>2026-04-28T13:31:57.201Z</time></trkpt><trkpt lat="38.1489833" lon="14.7888633"><ele>58.33333333333333</ele><time>2026-04-28T13:31:58.2Z</time></trkpt><trkpt lat="38.1489567" lon="14.7890667"><ele>67.0</ele><time>2026-04-28T13:31:59.2Z</time></trkpt><trkpt lat="38.14893" lon="14.7892667"><ele>55.666666666666664</ele><time>2026-04-28T13:32:00.2Z</time></trkpt><trkpt lat="38.1489" lon="14.7894633"><ele>44.33333333333333</ele><time>2026-04-28T13:32:01.2Z</time></trkpt><trkpt lat="38.1488817" lon="14.7896717"><ele>33.0</ele><time>2026-04-28T13:32:02.2Z</time></trkpt><trkpt lat="38.1488217" lon="14.7898667"><ele>33.0</ele><time>2026-04-28T13:32:03.201Z</time></trkpt><trkpt lat="38.1487717" lon="14.7900517"><ele>33.0</ele><time>2026-04-28T13:32:04.2Z</time></trkpt><trkpt lat="38.1487367" lon="14.7902417"><ele>33.0</ele><time>2026-04-28T13:32:05.2Z</time></trkpt><trkpt lat="38.148705" lon="14.7904217"><ele>33.25</ele><time>2026-04-28T13:32:06.2Z</time></trkpt><trkpt lat="38.1486667" lon="14.7905983"><ele>33.5</ele><time>2026-04-28T13:32:07.2Z</time></trkpt><trkpt lat="38.14864" lon="14.790775"><ele>33.75</ele><time>2026-04-28T13:32:08.2Z</time></trkpt><trkpt lat="38.1486267" lon="14.79096"><ele>34.0</ele><time>2026-04-28T13:32:09.2Z</time></trkpt><trkpt lat="38.1486067" lon="14.79114"><ele>34.0</ele><time>2026-04-28T13:32:10.2Z</time></trkpt><trkpt lat="38.1485817" lon="14.791315"><ele>34.0</ele><time>2026-04-28T13:32:11.201Z</time></trkpt><trkpt lat="38.1485417" lon="14.7914917"><ele>34.0</ele><time>2026-04-28T13:32:12.2Z</time></trkpt><trkpt lat="38.1484933" lon="14.791665"><ele>34.0</ele><time>2026-04-28T13:32:13.201Z</time></trkpt><trkpt lat="38.1484317" lon="14.7918367"><ele>31.0</ele><time>2026-04-28T13:32:14.201Z</time></trkpt><trkpt lat="38.1483683" lon="14.7920117"><ele>28.0</ele><time>2026-04-28T13:32:15.2Z</time></trkpt><trkpt lat="38.148315" lon="14.7921883"><ele>25.0</ele><time>2026-04-28T13:32:16.2Z</time></trkpt><trkpt lat="38.1482683" lon="14.7923667"><ele>22.0</ele><time>2026-04-28T13:32:17.201Z</time></trkpt><trkpt lat="38.148235" lon="14.7925483"><ele>21.0</ele><time>2026-04-28T13:32:18.201Z</time></trkpt><trkpt lat="38.1482333" lon="14.79274"><ele>20.0</ele><time>2026-04-28T13:32:19.201Z</time></trkpt><trkpt lat="38.148245" lon="14.79293"><ele>19.0</ele><time>2026-04-28T13:32:20.2Z</time></trkpt><trkpt lat="38.1482717" lon="14.79312"><ele>19.0</ele><time>2026-04-28T13:32:21.2Z</time></trkpt><trkpt lat="38.148315" lon="14.79331"><ele>19.0</ele><time>2026-04-28T13:32:22.2Z</time></trkpt><trkpt lat="38.1483533" lon="14.7934867"><ele>19.0</ele><time>2026-04-28T13:32:23.201Z</time></trkpt><trkpt lat="38.1483967" lon="14.79365"><ele>19.0</ele><time>2026-04-28T13:32:24.2Z</time></trkpt><trkpt lat="38.1484367" lon="14.793815"><ele>18.75</ele><time>2026-04-28T13:32:25.2Z</time></trkpt><trkpt lat="38.148475" lon="14.7939833"><ele>18.5</ele><time>2026-04-28T13:32:26.2Z</time></trkpt><trkpt lat="38.14849" lon="14.7941567"><ele>18.25</ele><time>2026-04-28T13:32:27.201Z</time></trkpt><trkpt lat="38.1484633" lon="14.7943217"><ele>18.0</ele><time>2026-04-28T13:32:28.2Z</time></trkpt><trkpt lat="38.1484133" lon="14.7944883"><ele>18.0</ele><time>2026-04-28T13:32:29.2Z</time></trkpt><trkpt lat="38.1483417" lon="14.7946533"><ele>18.0</ele><time>2026-04-28T13:32:30.2Z</time></trkpt><trkpt lat="38.1482583" lon="14.7948167"><ele>18.0</ele><time>2026-04-28T13:32:31.201Z</time></trkpt><trkpt lat="38.14821" lon="14.7949917"><ele>18.0</ele><time>2026-04-28T13:32:32.201Z</time></trkpt><trkpt lat="38.1481567" lon="14.79516"><ele>31.5</ele><time>2026-04-28T13:32:33.2Z</time></trkpt><trkpt lat="38.14812" lon="14.7953267"><ele>45.0</ele><time>2026-04-28T13:32:34.2Z</time></trkpt><trkpt lat="38.148115" lon="14.79552"><ele>58.5</ele><time>2026-04-28T13:32:35.2Z</time></trkpt><trkpt lat="38.14814" lon="14.7957083"><ele>72.0</ele><time>2026-04-28T13:32:36.2Z</time></trkpt><trkpt lat="38.148185" lon="14.795895"><ele>53.0</ele><time>2026-04-28T13:32:37.2Z</time></trkpt><trkpt lat="38.14823" lon="14.796085"><ele>34.0</ele><time>2026-04-28T13:32:38.201Z</time></trkpt><trkpt lat="38.1482867" lon="14.796285"><ele>15.0</ele><time>2026-04-28T13:32:39.2Z</time></trkpt><trkpt lat="38.1483233" lon="14.7964867"><ele>15.0</ele><time>2026-04-28T13:32:40.2Z</time></trkpt><trkpt lat="38.1483567" lon="14.7966933"><ele>15.0</ele><time>2026-04-28T13:32:41.2Z</time></trkpt><trkpt lat="38.148385" lon="14.7969"><ele>15.0</ele><time>2026-04-28T13:32:42.2Z</time></trkpt><trkpt lat="38.1484083" lon="14.79711"><ele>16.666666666666668</ele><time>2026-04-28T13:32:43.201Z</time></trkpt><trkpt lat="38.14842" lon="14.7973183"><ele>18.333333333333336</ele><time>2026-04-28T13:32:44.2Z</time></trkpt><trkpt lat="38.148435" lon="14.79753"><ele>20.0</ele><time>2026-04-28T13:32:45.2Z</time></trkpt><trkpt lat="38.1484483" lon="14.7977433"><ele>20.666666666666668</ele><time>2026-04-28T13:32:46.2Z</time></trkpt><trkpt lat="38.1484567" lon="14.7979617"><ele>21.333333333333332</ele><time>2026-04-28T13:32:47.2Z</time></trkpt><trkpt lat="38.148465" lon="14.7981817"><ele>22.0</ele><time>2026-04-28T13:32:48.2Z</time></trkpt><trkpt lat="38.1484717" lon="14.798405"><ele>21.333333333333332</ele><time>2026-04-28T13:32:49.201Z</time></trkpt><trkpt lat="38.1484783" lon="14.79863"><ele>20.666666666666668</ele><time>2026-04-28T13:32:50.2Z</time></trkpt><trkpt lat="38.1484783" lon="14.7988567"><ele>20.0</ele><time>2026-04-28T13:32:51.201Z</time></trkpt><trkpt lat="38.1484783" lon="14.7990867"><ele>20.0</ele><time>2026-04-28T13:32:52.2Z</time></trkpt><trkpt lat="38.1484767" lon="14.7993117"><ele>20.0</ele><time>2026-04-28T13:32:53.2Z</time></trkpt><trkpt lat="38.14847" lon="14.7995417"><ele>20.0</ele><time>2026-04-28T13:32:54.2Z</time></trkpt><trkpt lat="38.1484633" lon="14.79977"><ele>20.0</ele><time>2026-04-28T13:32:55.2Z</time></trkpt><trkpt lat="38.148465" lon="14.7999883"><ele>20.0</ele><time>2026-04-28T13:32:56.201Z</time></trkpt><trkpt lat="38.1484633" lon="14.8001967"><ele>20.0</ele><time>2026-04-28T13:32:57.2Z</time></trkpt><trkpt lat="38.1484617" lon="14.800395"><ele>20.0</ele><time>2026-04-28T13:32:58.2Z</time></trkpt><trkpt lat="38.14848" lon="14.8005917"><ele>20.0</ele><time>2026-04-28T13:32:59.201Z</time></trkpt><trkpt lat="38.148525" lon="14.8007783"><ele>20.0</ele><time>2026-04-28T13:33:00.2Z</time></trkpt><trkpt lat="38.148575" lon="14.8009433"><ele>20.0</ele><time>2026-04-28T13:33:01.2Z</time></trkpt><trkpt lat="38.1486317" lon="14.8010833"><ele>19.333333333333336</ele><time>2026-04-28T13:33:02.2Z</time></trkpt><trkpt lat="38.148665" lon="14.80121"><ele>18.666666666666668</ele><time>2026-04-28T13:33:03.2Z</time></trkpt><trkpt lat="38.14869" lon="14.8013033"><ele>18.0</ele><time>2026-04-28T13:33:04.2Z</time></trkpt><trkpt lat="38.148695" lon="14.80142"><ele>17.333333333333332</ele><time>2026-04-28T13:33:06.2Z</time></trkpt><trkpt lat="38.1487067" lon="14.8015317"><ele>16.666666666666664</ele><time>2026-04-28T13:34:09.2Z</time></trkpt><trkpt lat="38.1487383" lon="14.8016017"><ele>16.0</ele><time>2026-04-28T13:34:10.2Z</time></trkpt><trkpt lat="38.1487683" lon="14.8016867"><ele>16.0</ele><time>2026-04-28T13:34:11.2Z</time></trkpt><trkpt lat="38.1487983" lon="14.80179"><ele>16.0</ele><time>2026-04-28T13:34:12.2Z</time></trkpt><trkpt lat="38.148825" lon="14.801915"><ele>16.0</ele><time>2026-04-28T13:34:13.201Z</time></trkpt><trkpt lat="38.1488533" lon="14.8020533"><ele>16.0</ele><time>2026-04-28T13:34:14.2Z</time></trkpt><trkpt lat="38.1488867" lon="14.8022033"><ele>16.0</ele><time>2026-04-28T13:34:15.2Z</time></trkpt><trkpt lat="38.1489233" lon="14.8023683"><ele>15.25</ele><time>2026-04-28T13:34:16.2Z</time></trkpt><trkpt lat="38.1489633" lon="14.8025433"><ele>14.5</ele><time>2026-04-28T13:34:17.201Z</time></trkpt><trkpt lat="38.1490017" lon="14.80272"><ele>13.75</ele><time>2026-04-28T13:34:18.2Z</time></trkpt><trkpt lat="38.1490433" lon="14.802905"><ele>13.0</ele><time>2026-04-28T13:34:19.2Z</time></trkpt><trkpt lat="38.1490783" lon="14.80309"><ele>13.0</ele><time>2026-04-28T13:34:20.2Z</time></trkpt><trkpt lat="38.1491167" lon="14.80328"><ele>13.0</ele><time>2026-04-28T13:34:21.2Z</time></trkpt><trkpt lat="38.149155" lon="14.8034717"><ele>13.0</ele><time>2026-04-28T13:34:22.201Z</time></trkpt><trkpt lat="38.1491967" lon="14.8036633"><ele>13.0</ele><time>2026-04-28T13:34:23.201Z</time></trkpt><trkpt lat="38.1492433" lon="14.8038633"><ele>13.0</ele><time>2026-04-28T13:34:24.2Z</time></trkpt><trkpt lat="38.1492817" lon="14.8040583"><ele>13.0</ele><time>2026-04-28T13:34:25.2Z</time></trkpt><trkpt lat="38.1493183" lon="14.80425"><ele>14.0</ele><time>2026-04-28T13:34:26.2Z</time></trkpt><trkpt lat="38.1493617" lon="14.804445"><ele>15.0</ele><time>2026-04-28T13:34:27.201Z</time></trkpt><trkpt lat="38.149395" lon="14.8046383"><ele>16.0</ele><time>2026-04-28T13:34:28.2Z</time></trkpt><trkpt lat="38.14943" lon="14.80482"><ele>16.0</ele><time>2026-04-28T13:34:29.2Z</time></trkpt><trkpt lat="38.149465" lon="14.8049867"><ele>16.0</ele><time>2026-04-28T13:34:30.2Z</time></trkpt><trkpt lat="38.1494967" lon="14.8051483"><ele>16.0</ele><time>2026-04-28T13:34:31.2Z</time></trkpt><trkpt lat="38.1495233" lon="14.8053017"><ele>16.0</ele><time>2026-04-28T13:34:32.201Z</time></trkpt><trkpt lat="38.1495567" lon="14.80544"><ele>16.0</ele><time>2026-04-28T13:34:33.2Z</time></trkpt><trkpt lat="38.14959" lon="14.8055617"><ele>16.0</ele><time>2026-04-28T13:34:34.2Z</time></trkpt><trkpt lat="38.1496367" lon="14.8056917"><ele>16.0</ele><time>2026-04-28T13:34:35.2Z</time></trkpt><trkpt lat="38.1497017" lon="14.805805"><ele>16.0</ele><time>2026-04-28T13:34:36.2Z</time></trkpt><trkpt lat="38.1497933" lon="14.80589"><ele>16.0</ele><time>2026-04-28T13:34:37.2Z</time></trkpt><trkpt lat="38.1498933" lon="14.80596"><ele>21.200000000000003</ele><time>2026-04-28T13:34:38.2Z</time></trkpt><trkpt lat="38.1499967" lon="14.8060133"><ele>26.400000000000002</ele><time>2026-04-28T13:34:39.2Z</time></trkpt><trkpt lat="38.1501017" lon="14.806065"><ele>31.6</ele><time>2026-04-28T13:34:40.2Z</time></trkpt><trkpt lat="38.1502083" lon="14.80611"><ele>36.800000000000004</ele><time>2026-04-28T13:34:41.2Z</time></trkpt><trkpt lat="38.1503067" lon="14.8061567"><ele>42.0</ele><time>2026-04-28T13:34:42.2Z</time></trkpt><trkpt lat="38.1504" lon="14.8062"><ele>42.0</ele><time>2026-04-28T13:34:43.2Z</time></trkpt><trkpt lat="38.1504917" lon="14.80626"><ele>42.0</ele><time>2026-04-28T13:34:44.201Z</time></trkpt><trkpt lat="38.1505967" lon="14.806345"><ele>42.0</ele><time>2026-04-28T13:34:45.2Z</time></trkpt><trkpt lat="38.1507083" lon="14.80648"><ele>42.0</ele><time>2026-04-28T13:34:46.2Z</time></trkpt><trkpt lat="38.1508333" lon="14.80663"><ele>42.666666666666664</ele><time>2026-04-28T13:34:47.2Z</time></trkpt><trkpt lat="38.150955" lon="14.8067883"><ele>43.33333333333333</ele><time>2026-04-28T13:34:48.2Z</time></trkpt><trkpt lat="38.1510683" lon="14.8069317"><ele>44.0</ele><time>2026-04-28T13:34:49.2Z</time></trkpt><trkpt lat="38.15117" lon="14.8070733"><ele>44.0</ele><time>2026-04-28T13:34:50.2Z</time></trkpt><trkpt lat="38.1512667" lon="14.807245"><ele>44.0</ele><time>2026-04-28T13:34:51.2Z</time></trkpt><trkpt lat="38.1513567" lon="14.807425"><ele>44.0</ele><time>2026-04-28T13:34:52.2Z</time></trkpt><trkpt lat="38.15143" lon="14.807615"><ele>37.666666666666664</ele><time>2026-04-28T13:34:53.2Z</time></trkpt><trkpt lat="38.1514933" lon="14.8077983"><ele>31.333333333333336</ele><time>2026-04-28T13:34:54.2Z</time></trkpt><trkpt lat="38.15156" lon="14.8079717"><ele>25.0</ele><time>2026-04-28T13:34:55.2Z</time></trkpt><trkpt lat="38.151625" lon="14.80814"><ele>25.0</ele><time>2026-04-28T13:34:56.2Z</time></trkpt><trkpt lat="38.151685" lon="14.8082883"><ele>25.0</ele><time>2026-04-28T13:34:57.2Z</time></trkpt><trkpt lat="38.151755" lon="14.8084433"><ele>25.0</ele><time>2026-04-28T13:34:58.2Z</time></trkpt><trkpt lat="38.15183" lon="14.8086017"><ele>25.0</ele><time>2026-04-28T13:34:59.2Z</time></trkpt><trkpt lat="38.1519067" lon="14.80877"><ele>31.333333333333336</ele><time>2026-04-28T13:35:00.2Z</time></trkpt><trkpt lat="38.1519833" lon="14.8089483"><ele>37.666666666666664</ele><time>2026-04-28T13:35:01.201Z</time></trkpt><trkpt lat="38.1520533" lon="14.8091267"><ele>44.0</ele><time>2026-04-28T13:35:02.2Z</time></trkpt><trkpt lat="38.152125" lon="14.8093117"><ele>51.666666666666664</ele><time>2026-04-28T13:35:03.2Z</time></trkpt><trkpt lat="38.152195" lon="14.80949"><ele>59.33333333333333</ele><time>2026-04-28T13:35:04.2Z</time></trkpt><trkpt lat="38.1522833" lon="14.80966"><ele>67.0</ele><time>2026-04-28T13:35:05.2Z</time></trkpt><trkpt lat="38.1523533" lon="14.8098417"><ele>58.0</ele><time>2026-04-28T13:35:06.2Z</time></trkpt><trkpt lat="38.1524267" lon="14.8100233"><ele>49.0</ele><time>2026-04-28T13:35:07.2Z</time></trkpt><trkpt lat="38.1525067" lon="14.8101983"><ele>40.0</ele><time>2026-04-28T13:35:08.2Z</time></trkpt><trkpt lat="38.1525983" lon="14.8103733"><ele>40.0</ele><time>2026-04-28T13:35:09.2Z</time></trkpt><trkpt lat="38.152685" lon="14.8105483"><ele>40.0</ele><time>2026-04-28T13:35:10.2Z</time></trkpt><trkpt lat="38.152785" lon="14.81071"><ele>40.0</ele><time>2026-04-28T13:35:11.2Z</time></trkpt><trkpt lat="38.1528833" lon="14.8108717"><ele>32.66666666666667</ele><time>2026-04-28T13:35:12.2Z</time></trkpt><trkpt lat="38.1529867" lon="14.8110283"><ele>25.333333333333336</ele><time>2026-04-28T13:35:13.2Z</time></trkpt><trkpt lat="38.1531017" lon="14.8111833"><ele>18.0</ele><time>2026-04-28T13:35:14.2Z</time></trkpt><trkpt lat="38.1532233" lon="14.8113233"><ele>18.0</ele><time>2026-04-28T13:35:15.201Z</time></trkpt><trkpt lat="38.1533483" lon="14.811455"><ele>18.0</ele><time>2026-04-28T13:35:16.201Z</time></trkpt><trkpt lat="38.1534633" lon="14.8115883"><ele>18.0</ele><time>2026-04-28T13:35:17.2Z</time></trkpt><trkpt lat="38.15358" lon="14.8117267"><ele>25.333333333333336</ele><time>2026-04-28T13:35:18.2Z</time></trkpt><trkpt lat="38.15369" lon="14.811875"><ele>32.66666666666667</ele><time>2026-04-28T13:35:19.2Z</time></trkpt><trkpt lat="38.1537983" lon="14.8120233"><ele>40.0</ele><time>2026-04-28T13:35:20.2Z</time></trkpt><trkpt lat="38.1538833" lon="14.8121817"><ele>40.0</ele><time>2026-04-28T13:35:21.2Z</time></trkpt><trkpt lat="38.153965" lon="14.8123467"><ele>40.0</ele><time>2026-04-28T13:35:22.2Z</time></trkpt><trkpt lat="38.1540333" lon="14.8125267"><ele>40.0</ele><time>2026-04-28T13:35:23.2Z</time></trkpt><trkpt lat="38.1540783" lon="14.8127233"><ele>30.333333333333336</ele><time>2026-04-28T13:35:24.201Z</time></trkpt><trkpt lat="38.154125" lon="14.812925"><ele>20.666666666666668</ele><time>2026-04-28T13:35:25.2Z</time></trkpt><trkpt lat="38.15417" lon="14.8131317"><ele>11.0</ele><time>2026-04-28T13:35:26.2Z</time></trkpt><trkpt lat="38.1542083" lon="14.8133383"><ele>12.0</ele><time>2026-04-28T13:35:27.2Z</time></trkpt><trkpt lat="38.1542517" lon="14.81354"><ele>13.0</ele><time>2026-04-28T13:35:28.2Z</time></trkpt><trkpt lat="38.1542917" lon="14.8137483"><ele>14.0</ele><time>2026-04-28T13:35:29.2Z</time></trkpt><trkpt lat="38.154325" lon="14.8139583"><ele>14.0</ele><time>2026-04-28T13:35:30.201Z</time></trkpt><trkpt lat="38.1543667" lon="14.8141617"><ele>14.0</ele><time>2026-04-28T13:35:31.2Z</time></trkpt><trkpt lat="38.1544" lon="14.8143583"><ele>14.0</ele><time>2026-04-28T13:35:32.2Z</time></trkpt><trkpt lat="38.1544367" lon="14.8145567"><ele>15.333333333333334</ele><time>2026-04-28T13:35:33.2Z</time></trkpt><trkpt lat="38.1544567" lon="14.8147667"><ele>16.666666666666668</ele><time>2026-04-28T13:35:34.2Z</time></trkpt><trkpt lat="38.154465" lon="14.8149683"><ele>18.0</ele><time>2026-04-28T13:35:35.2Z</time></trkpt><trkpt lat="38.1544667" lon="14.8151767"><ele>23.0</ele><time>2026-04-28T13:35:36.2Z</time></trkpt><trkpt lat="38.154465" lon="14.8153717"><ele>28.0</ele><time>2026-04-28T13:35:37.2Z</time></trkpt><trkpt lat="38.1544617" lon="14.81556"><ele>33.0</ele><time>2026-04-28T13:35:38.2Z</time></trkpt><trkpt lat="38.1544767" lon="14.8157467"><ele>38.0</ele><time>2026-04-28T13:35:39.2Z</time></trkpt><trkpt lat="38.1544917" lon="14.8159283"><ele>39.5</ele><time>2026-04-28T13:35:40.2Z</time></trkpt><trkpt lat="38.15451" lon="14.81611"><ele>41.0</ele><time>2026-04-28T13:35:41.2Z</time></trkpt><trkpt lat="38.15453" lon="14.8162833"><ele>42.5</ele><time>2026-04-28T13:35:42.2Z</time></trkpt><trkpt lat="38.1545483" lon="14.8164617"><ele>44.0</ele><time>2026-04-28T13:35:43.2Z</time></trkpt><trkpt lat="38.1545717" lon="14.81664"><ele>44.0</ele><time>2026-04-28T13:35:44.201Z</time></trkpt><trkpt lat="38.154615" lon="14.8168"><ele>44.0</ele><time>2026-04-28T13:35:45.2Z</time></trkpt><trkpt lat="38.1546733" lon="14.81696"><ele>44.0</ele><time>2026-04-28T13:35:46.2Z</time></trkpt><trkpt lat="38.1547283" lon="14.8170983"><ele>44.0</ele><time>2026-04-28T13:35:47.201Z</time></trkpt><trkpt lat="38.1547767" lon="14.8172367"><ele>47.0</ele><time>2026-04-28T13:35:48.2Z</time></trkpt><trkpt lat="38.154825" lon="14.817375"><ele>50.0</ele><time>2026-04-28T13:35:49.2Z</time></trkpt><trkpt lat="38.15487" lon="14.8175183"><ele>53.0</ele><time>2026-04-28T13:35:50.2Z</time></trkpt><trkpt lat="38.1549133" lon="14.8176567"><ele>56.0</ele><time>2026-04-28T13:35:51.2Z</time></trkpt><trkpt lat="38.1549783" lon="14.8177983"><ele>48.599999999999994</ele><time>2026-04-28T13:35:52.2Z</time></trkpt><trkpt lat="38.1550283" lon="14.8179233"><ele>41.199999999999996</ele><time>2026-04-28T13:35:53.2Z</time></trkpt><trkpt lat="38.1550733" lon="14.818045"><ele>33.8</ele><time>2026-04-28T13:35:54.2Z</time></trkpt><trkpt lat="38.1551117" lon="14.8181633"><ele>26.4</ele><time>2026-04-28T13:35:55.2Z</time></trkpt><trkpt lat="38.15515" lon="14.818275"><ele>19.0</ele><time>2026-04-28T13:35:56.201Z</time></trkpt><trkpt lat="38.1551867" lon="14.818385"><ele>21.4</ele><time>2026-04-28T13:35:57.2Z</time></trkpt><trkpt lat="38.15522" lon="14.818495"><ele>23.799999999999997</ele><time>2026-04-28T13:35:58.201Z</time></trkpt><trkpt lat="38.1552517" lon="14.81861"><ele>26.200000000000003</ele><time>2026-04-28T13:35:59.2Z</time></trkpt><trkpt lat="38.1552817" lon="14.818725"><ele>28.6</ele><time>2026-04-28T13:36:00.2Z</time></trkpt><trkpt lat="38.1553033" lon="14.818845"><ele>31.0</ele><time>2026-04-28T13:36:01.2Z</time></trkpt><trkpt lat="38.1553217" lon="14.8189583"><ele>31.0</ele><time>2026-04-28T13:36:02.2Z</time></trkpt><trkpt lat="38.155335" lon="14.8190667"><ele>31.0</ele><time>2026-04-28T13:36:03.2Z</time></trkpt><trkpt lat="38.1553767" lon="14.8191633"><ele>31.0</ele><time>2026-04-28T13:36:04.2Z</time></trkpt><trkpt lat="38.1554383" lon="14.819255"><ele>31.0</ele><time>2026-04-28T13:36:05.2Z</time></trkpt><trkpt lat="38.1555" lon="14.8193433"><ele>31.0</ele><time>2026-04-28T13:36:06.201Z</time></trkpt><trkpt lat="38.1555567" lon="14.8194483"><ele>27.400000000000002</ele><time>2026-04-28T13:36:07.2Z</time></trkpt><trkpt lat="38.1556133" lon="14.81955"><ele>23.8</ele><time>2026-04-28T13:36:08.201Z</time></trkpt><trkpt lat="38.15566" lon="14.8196667"><ele>20.200000000000003</ele><time>2026-04-28T13:36:09.201Z</time></trkpt><trkpt lat="38.1556983" lon="14.81979"><ele>16.6</ele><time>2026-04-28T13:36:10.2Z</time></trkpt><trkpt lat="38.1557433" lon="14.8199217"><ele>13.0</ele><time>2026-04-28T13:36:11.2Z</time></trkpt><trkpt lat="38.155775" lon="14.820055"><ele>14.5</ele><time>2026-04-28T13:36:12.201Z</time></trkpt><trkpt lat="38.1557983" lon="14.8202017"><ele>16.0</ele><time>2026-04-28T13:36:13.201Z</time></trkpt><trkpt lat="38.1558033" lon="14.820355"><ele>17.5</ele><time>2026-04-28T13:36:14.2Z</time></trkpt><trkpt lat="38.1558217" lon="14.820515"><ele>19.0</ele><time>2026-04-28T13:36:15.2Z</time></trkpt><trkpt lat="38.1558367" lon="14.82068"><ele>19.0</ele><time>2026-04-28T13:36:16.2Z</time></trkpt><trkpt lat="38.1558583" lon="14.820845"><ele>19.0</ele><time>2026-04-28T13:36:17.201Z</time></trkpt><trkpt lat="38.15588" lon="14.8210067"><ele>19.0</ele><time>2026-04-28T13:36:18.201Z</time></trkpt><trkpt lat="38.1559017" lon="14.8211683"><ele>19.0</ele><time>2026-04-28T13:36:19.2Z</time></trkpt><trkpt lat="38.1559333" lon="14.8213167"><ele>19.5</ele><time>2026-04-28T13:36:20.2Z</time></trkpt><trkpt lat="38.1559767" lon="14.8214633"><ele>20.0</ele><time>2026-04-28T13:36:21.2Z</time></trkpt><trkpt lat="38.1560383" lon="14.8216067"><ele>20.5</ele><time>2026-04-28T13:36:22.2Z</time></trkpt><trkpt lat="38.1561067" lon="14.8217417"><ele>21.0</ele><time>2026-04-28T13:36:23.201Z</time></trkpt><trkpt lat="38.156185" lon="14.8218767"><ele>21.0</ele><time>2026-04-28T13:36:24.2Z</time></trkpt><trkpt lat="38.15626" lon="14.8220083"><ele>21.0</ele><time>2026-04-28T13:36:25.2Z</time></trkpt><trkpt lat="38.1563267" lon="14.8221383"><ele>21.0</ele><time>2026-04-28T13:36:26.2Z</time></trkpt><trkpt lat="38.1563883" lon="14.8222567"><ele>21.0</ele><time>2026-04-28T13:36:27.2Z</time></trkpt><trkpt lat="38.1564433" lon="14.8223733"><ele>21.0</ele><time>2026-04-28T13:36:28.2Z</time></trkpt><trkpt lat="38.15649" lon="14.8224917"><ele>21.0</ele><time>2026-04-28T13:36:29.2Z</time></trkpt><trkpt lat="38.1565333" lon="14.8226067"><ele>21.0</ele><time>2026-04-28T13:36:30.2Z</time></trkpt><trkpt lat="38.156565" lon="14.8227217"><ele>21.0</ele><time>2026-04-28T13:36:31.2Z</time></trkpt><trkpt lat="38.15657" lon="14.8228367"><ele>21.0</ele><time>2026-04-28T13:36:32.2Z</time></trkpt><trkpt lat="38.1565617" lon="14.8229433"><ele>20.5</ele><time>2026-04-28T13:36:33.2Z</time></trkpt><trkpt lat="38.1565517" lon="14.8230267"><ele>20.0</ele><time>2026-04-28T13:36:34.2Z</time></trkpt><trkpt lat="38.1565467" lon="14.8231617"><ele>19.5</ele><time>2026-04-28T13:36:36.2Z</time></trkpt><trkpt lat="38.1565317" lon="14.8232617"><ele>19.0</ele><time>2026-04-28T13:36:38.2Z</time></trkpt><trkpt lat="38.1565117" lon="14.8233483"><ele>18.5</ele><time>2026-04-28T13:36:40.2Z</time></trkpt><trkpt lat="38.1564767" lon="14.823465"><ele>18.0</ele><time>2026-04-28T13:36:43.2Z</time></trkpt><trkpt lat="38.1564183" lon="14.82353"><ele>18.0</ele><time>2026-04-28T13:36:45.2Z</time></trkpt><trkpt lat="38.1562967" lon="14.8235567"><ele>18.0</ele><time>2026-04-28T13:36:47.2Z</time></trkpt><trkpt lat="38.1562167" lon="14.8235467"><ele>18.0</ele><time>2026-04-28T13:36:48.2Z</time></trkpt><trkpt lat="38.15613" lon="14.82354"><ele>18.0</ele><time>2026-04-28T13:36:49.201Z</time></trkpt><trkpt lat="38.15603" lon="14.82354"><ele>18.0</ele><time>2026-04-28T13:36:50.2Z</time></trkpt><trkpt lat="38.1559233" lon="14.8235267"><ele>18.0</ele><time>2026-04-28T13:36:51.2Z</time></trkpt><trkpt lat="38.1558117" lon="14.8235033"><ele>18.0</ele><time>2026-04-28T13:36:52.2Z</time></trkpt><trkpt lat="38.155695" lon="14.8235067"><ele>18.0</ele><time>2026-04-28T13:36:53.2Z</time></trkpt><trkpt lat="38.1555733" lon="14.8235033"><ele>18.0</ele><time>2026-04-28T13:36:54.2Z</time></trkpt><trkpt lat="38.1554617" lon="14.8235133"><ele>17.5</ele><time>2026-04-28T13:36:55.201Z</time></trkpt><trkpt lat="38.1553467" lon="14.8235233"><ele>17.0</ele><time>2026-04-28T13:36:56.2Z</time></trkpt><trkpt lat="38.155225" lon="14.8235383"><ele>16.5</ele><time>2026-04-28T13:36:57.2Z</time></trkpt><trkpt lat="38.1551067" lon="14.8235533"><ele>16.0</ele><time>2026-04-28T13:36:58.201Z</time></trkpt><trkpt lat="38.154985" lon="14.8235617"><ele>17.0</ele><time>2026-04-28T13:36:59.201Z</time></trkpt><trkpt lat="38.154865" lon="14.823575"><ele>18.0</ele><time>2026-04-28T13:37:00.2Z</time></trkpt><trkpt lat="38.1547383" lon="14.823585"><ele>19.0</ele><time>2026-04-28T13:37:01.2Z</time></trkpt><trkpt lat="38.1546167" lon="14.8235967"><ele>20.0</ele><time>2026-04-28T13:37:02.2Z</time></trkpt><trkpt lat="38.1544867" lon="14.823605"><ele>20.0</ele><time>2026-04-28T13:37:03.201Z</time></trkpt><trkpt lat="38.1543567" lon="14.823615"><ele>20.0</ele><time>2026-04-28T13:37:04.2Z</time></trkpt><trkpt lat="38.1542267" lon="14.823625"><ele>20.0</ele><time>2026-04-28T13:37:05.2Z</time></trkpt><trkpt lat="38.1540983" lon="14.8236333"><ele>20.0</ele><time>2026-04-28T13:37:06.2Z</time></trkpt><trkpt lat="38.1539633" lon="14.8236483"><ele>20.75</ele><time>2026-04-28T13:37:07.201Z</time></trkpt><trkpt lat="38.1538317" lon="14.8236633"><ele>21.5</ele><time>2026-04-28T13:37:08.2Z</time></trkpt><trkpt lat="38.1536967" lon="14.823685"><ele>22.25</ele><time>2026-04-28T13:37:09.2Z</time></trkpt><trkpt lat="38.15357" lon="14.8237"><ele>23.0</ele><time>2026-04-28T13:37:10.2Z</time></trkpt><trkpt lat="38.1534383" lon="14.8237317"><ele>23.0</ele><time>2026-04-28T13:37:11.201Z</time></trkpt><trkpt lat="38.15331" lon="14.82377"><ele>23.0</ele><time>2026-04-28T13:37:12.2Z</time></trkpt><trkpt lat="38.1531917" lon="14.823815"><ele>23.0</ele><time>2026-04-28T13:37:13.2Z</time></trkpt><trkpt lat="38.153075" lon="14.8238617"><ele>23.0</ele><time>2026-04-28T13:37:14.2Z</time></trkpt><trkpt lat="38.152965" lon="14.8239367"><ele>24.4</ele><time>2026-04-28T13:37:15.2Z</time></trkpt><trkpt lat="38.1528667" lon="14.8240133"><ele>25.799999999999997</ele><time>2026-04-28T13:37:16.2Z</time></trkpt><trkpt lat="38.152775" lon="14.8240933"><ele>27.2</ele><time>2026-04-28T13:37:17.201Z</time></trkpt><trkpt lat="38.1527" lon="14.824185"><ele>28.6</ele><time>2026-04-28T13:37:18.201Z</time></trkpt><trkpt lat="38.1526217" lon="14.8242667"><ele>30.0</ele><time>2026-04-28T13:37:19.2Z</time></trkpt><trkpt lat="38.1525517" lon="14.824345"><ele>30.0</ele><time>2026-04-28T13:37:20.2Z</time></trkpt><trkpt lat="38.1524917" lon="14.82442"><ele>30.0</ele><time>2026-04-28T13:37:21.2Z</time></trkpt><trkpt lat="38.1524433" lon="14.8244917"><ele>30.0</ele><time>2026-04-28T13:37:22.2Z</time></trkpt><trkpt lat="38.152395" lon="14.824555"><ele>30.0</ele><time>2026-04-28T13:37:23.2Z</time></trkpt><trkpt lat="38.15234" lon="14.8246233"><ele>30.0</ele><time>2026-04-28T13:37:24.2Z</time></trkpt><trkpt lat="38.1522867" lon="14.8246933"><ele>30.0</ele><time>2026-04-28T13:37:25.2Z</time></trkpt><trkpt lat="38.15224" lon="14.82477"><ele>30.2</ele><time>2026-04-28T13:37:26.2Z</time></trkpt><trkpt lat="38.152215" lon="14.8248567"><ele>30.4</ele><time>2026-04-28T13:37:27.201Z</time></trkpt><trkpt lat="38.1522017" lon="14.8249583"><ele>30.6</ele><time>2026-04-28T13:37:28.2Z</time></trkpt><trkpt lat="38.15219" lon="14.8250817"><ele>30.8</ele><time>2026-04-28T13:37:29.201Z</time></trkpt><trkpt lat="38.15216" lon="14.8252217"><ele>31.0</ele><time>2026-04-28T13:37:30.2Z</time></trkpt><trkpt lat="38.1521167" lon="14.8253717"><ele>31.25</ele><time>2026-04-28T13:37:31.2Z</time></trkpt><trkpt lat="38.1520667" lon="14.8255317"><ele>31.5</ele><time>2026-04-28T13:37:32.201Z</time></trkpt><trkpt lat="38.1520067" lon="14.825685"><ele>31.75</ele><time>2026-04-28T13:37:33.2Z</time></trkpt><trkpt lat="38.1519467" lon="14.82584"><ele>32.0</ele><time>2026-04-28T13:37:34.2Z</time></trkpt><trkpt lat="38.1518933" lon="14.825995"><ele>33.5</ele><time>2026-04-28T13:37:35.2Z</time></trkpt><trkpt lat="38.15184" lon="14.8261467"><ele>35.0</ele><time>2026-04-28T13:37:36.2Z</time></trkpt><trkpt lat="38.151795" lon="14.8262967"><ele>36.5</ele><time>2026-04-28T13:37:37.2Z</time></trkpt><trkpt lat="38.15175" lon="14.8264433"><ele>38.0</ele><time>2026-04-28T13:37:38.2Z</time></trkpt><trkpt lat="38.1517033" lon="14.82659"><ele>38.0</ele><time>2026-04-28T13:37:39.2Z</time></trkpt><trkpt lat="38.1516433" lon="14.8267367"><ele>38.0</ele><time>2026-04-28T13:37:40.2Z</time></trkpt><trkpt lat="38.15157" lon="14.826875"><ele>38.0</ele><time>2026-04-28T13:37:41.2Z</time></trkpt><trkpt lat="38.1515167" lon="14.827015"><ele>38.0</ele><time>2026-04-28T13:37:42.2Z</time></trkpt><trkpt lat="38.151465" lon="14.8271583"><ele>38.25</ele><time>2026-04-28T13:37:43.2Z</time></trkpt><trkpt lat="38.1514317" lon="14.8273067"><ele>38.5</ele><time>2026-04-28T13:37:44.2Z</time></trkpt><trkpt lat="38.1514217" lon="14.827455"><ele>38.75</ele><time>2026-04-28T13:37:45.2Z</time></trkpt><trkpt lat="38.1514183" lon="14.8276167"><ele>39.0</ele><time>2026-04-28T13:37:46.2Z</time></trkpt><trkpt lat="38.151435" lon="14.8277583"><ele>39.0</ele><time>2026-04-28T13:37:47.2Z</time></trkpt><trkpt lat="38.1514683" lon="14.8279"><ele>39.0</ele><time>2026-04-28T13:37:48.2Z</time></trkpt><trkpt lat="38.1515083" lon="14.8280267"><ele>39.0</ele><time>2026-04-28T13:37:49.2Z</time></trkpt><trkpt lat="38.1515533" lon="14.8281517"><ele>39.0</ele><time>2026-04-28T13:37:50.2Z</time></trkpt><trkpt lat="38.151595" lon="14.828275"><ele>39.0</ele><time>2026-04-28T13:37:51.2Z</time></trkpt><trkpt lat="38.1516333" lon="14.82838"><ele>39.0</ele><time>2026-04-28T13:37:52.2Z</time></trkpt><trkpt lat="38.15165" lon="14.828485"><ele>39.0</ele><time>2026-04-28T13:37:53.2Z</time></trkpt><trkpt lat="38.1516483" lon="14.828575"><ele>39.0</ele><time>2026-04-28T13:37:54.2Z</time></trkpt><trkpt lat="38.1516133" lon="14.82865"><ele>39.0</ele><time>2026-04-28T13:37:55.2Z</time></trkpt><trkpt lat="38.1515683" lon="14.8287117"><ele>39.0</ele><time>2026-04-28T13:37:56.2Z</time></trkpt><trkpt lat="38.1515033" lon="14.828745"><ele>39.0</ele><time>2026-04-28T13:37:57.2Z</time></trkpt><trkpt lat="38.1514033" lon="14.828755"><ele>39.0</ele><time>2026-04-28T13:37:58.2Z</time></trkpt><trkpt lat="38.1512833" lon="14.828765"><ele>39.0</ele><time>2026-04-28T13:37:59.201Z</time></trkpt><trkpt lat="38.1511617" lon="14.82879"><ele>39.0</ele><time>2026-04-28T13:38:00.2Z</time></trkpt><trkpt lat="38.1510367" lon="14.8288183"><ele>39.0</ele><time>2026-04-28T13:38:01.201Z</time></trkpt><trkpt lat="38.150905" lon="14.82885"><ele>39.0</ele><time>2026-04-28T13:38:02.2Z</time></trkpt><trkpt lat="38.1507817" lon="14.828885"><ele>39.0</ele><time>2026-04-28T13:38:03.2Z</time></trkpt><trkpt lat="38.1506583" lon="14.8289317"><ele>39.0</ele><time>2026-04-28T13:38:04.201Z</time></trkpt><trkpt lat="38.1505433" lon="14.8289983"><ele>39.0</ele><time>2026-04-28T13:38:05.201Z</time></trkpt><trkpt lat="38.1504333" lon="14.82909"><ele>41.75</ele><time>2026-04-28T13:38:06.2Z</time></trkpt><trkpt lat="38.1503417" lon="14.8292033"><ele>44.5</ele><time>2026-04-28T13:38:07.2Z</time></trkpt><trkpt lat="38.1502733" lon="14.829345"><ele>47.25</ele><time>2026-04-28T13:38:08.201Z</time></trkpt><trkpt lat="38.1502017" lon="14.8294833"><ele>50.0</ele><time>2026-04-28T13:38:09.2Z</time></trkpt><trkpt lat="38.15014" lon="14.8296167"><ele>51.25</ele><time>2026-04-28T13:38:10.2Z</time></trkpt><trkpt lat="38.15008" lon="14.8297467"><ele>52.5</ele><time>2026-04-28T13:38:11.201Z</time></trkpt><trkpt lat="38.1500217" lon="14.8298733"><ele>53.75</ele><time>2026-04-28T13:38:12.201Z</time></trkpt><trkpt lat="38.149965" lon="14.829995"><ele>55.0</ele><time>2026-04-28T13:38:13.2Z</time></trkpt><trkpt lat="38.1499017" lon="14.8301167"><ele>56.6</ele><time>2026-04-28T13:38:14.201Z</time></trkpt><trkpt lat="38.14984" lon="14.8302317"><ele>58.2</ele><time>2026-04-28T13:38:15.2Z</time></trkpt><trkpt lat="38.149785" lon="14.83035"><ele>59.8</ele><time>2026-04-28T13:38:16.2Z</time></trkpt><trkpt lat="38.1497267" lon="14.8304733"><ele>61.4</ele><time>2026-04-28T13:38:17.2Z</time></trkpt><trkpt lat="38.1496533" lon="14.8305717"><ele>63.0</ele><time>2026-04-28T13:38:18.2Z</time></trkpt><trkpt lat="38.1495967" lon="14.83067"><ele>63.0</ele><time>2026-04-28T13:38:19.2Z</time></trkpt><trkpt lat="38.1495517" lon="14.8307667"><ele>63.0</ele><time>2026-04-28T13:38:20.2Z</time></trkpt><trkpt lat="38.1495183" lon="14.83085"><ele>63.0</ele><time>2026-04-28T13:38:21.201Z</time></trkpt><trkpt lat="38.1494867" lon="14.8309217"><ele>63.0</ele><time>2026-04-28T13:38:22.2Z</time></trkpt><trkpt lat="38.1494283" lon="14.8310167"><ele>63.0</ele><time>2026-04-28T13:38:24.2Z</time></trkpt><trkpt lat="38.149385" lon="14.831085"><ele>63.0</ele><time>2026-04-28T13:38:26.2Z</time></trkpt><trkpt lat="38.149355" lon="14.83116"><ele>64.16666666666667</ele><time>2026-04-28T13:38:29.2Z</time></trkpt><trkpt lat="38.1493233" lon="14.8312533"><ele>65.33333333333333</ele><time>2026-04-28T13:38:32.2Z</time></trkpt><trkpt lat="38.1493017" lon="14.831345"><ele>66.5</ele><time>2026-04-28T13:38:35.2Z</time></trkpt><trkpt lat="38.1492717" lon="14.8314383"><ele>67.66666666666666</ele><time>2026-04-28T13:38:38.2Z</time></trkpt><trkpt lat="38.1491933" lon="14.8314883"><ele>68.83333333333333</ele><time>2026-04-28T13:38:41.2Z</time></trkpt><trkpt lat="38.14912" lon="14.831515"><ele>70.0</ele><time>2026-04-28T13:38:43.2Z</time></trkpt><trkpt lat="38.1490117" lon="14.8315283"><ele>71.5</ele><time>2026-04-28T13:38:45.2Z</time></trkpt><trkpt lat="38.1489" lon="14.8315017"><ele>73.0</ele><time>2026-04-28T13:38:47.2Z</time></trkpt><trkpt lat="38.14881" lon="14.8314433"><ele>74.5</ele><time>2026-04-28T13:38:49.201Z</time></trkpt><trkpt lat="38.148705" lon="14.8313717"><ele>76.0</ele><time>2026-04-28T13:38:51.2Z</time></trkpt><trkpt lat="38.1485983" lon="14.831305"><ele>76.0</ele><time>2026-04-28T13:38:53.2Z</time></trkpt><trkpt lat="38.1484967" lon="14.8312167"><ele>76.0</ele><time>2026-04-28T13:38:55.2Z</time></trkpt><trkpt lat="38.1484183" lon="14.83112"><ele>76.0</ele><time>2026-04-28T13:38:57.201Z</time></trkpt><trkpt lat="38.14837" lon="14.83103"><ele>76.0</ele><time>2026-04-28T13:38:59.2Z</time></trkpt><trkpt lat="38.1483417" lon="14.8309417"><ele>76.0</ele><time>2026-04-28T13:39:02.2Z</time></trkpt><trkpt lat="38.1483183" lon="14.8308117"><ele>75.0</ele><time>2026-04-28T13:39:27.2Z</time></trkpt><trkpt lat="38.1483083" lon="14.8306667"><ele>74.0</ele><time>2026-04-28T13:39:29.2Z</time></trkpt><trkpt lat="38.1483083" lon="14.8305633"><ele>73.0</ele><time>2026-04-28T13:39:30.2Z</time></trkpt><trkpt lat="38.14832" lon="14.8304417"><ele>72.0</ele><time>2026-04-28T13:39:31.2Z</time></trkpt><trkpt lat="38.148345" lon="14.8303167"><ele>71.0</ele><time>2026-04-28T13:39:32.201Z</time></trkpt><trkpt lat="38.148375" lon="14.8301933"><ele>72.25</ele><time>2026-04-28T13:39:33.2Z</time></trkpt><trkpt lat="38.1484133" lon="14.8300567"><ele>73.5</ele><time>2026-04-28T13:39:34.2Z</time></trkpt><trkpt lat="38.14847" lon="14.829915"><ele>74.75</ele><time>2026-04-28T13:39:35.2Z</time></trkpt><trkpt lat="38.1485283" lon="14.8297717"><ele>76.0</ele><time>2026-04-28T13:39:36.2Z</time></trkpt><trkpt lat="38.148605" lon="14.8296183"><ele>76.0</ele><time>2026-04-28T13:39:37.2Z</time></trkpt><trkpt lat="38.1486833" lon="14.8294717"><ele>76.0</ele><time>2026-04-28T13:39:38.2Z</time></trkpt><trkpt lat="38.1487633" lon="14.8293233"><ele>76.0</ele><time>2026-04-28T13:39:39.2Z</time></trkpt><trkpt lat="38.1488433" lon="14.8291767"><ele>76.0</ele><time>2026-04-28T13:39:40.2Z</time></trkpt><trkpt lat="38.1489183" lon="14.8290283"><ele>76.0</ele><time>2026-04-28T13:39:41.2Z</time></trkpt><trkpt lat="38.1489983" lon="14.8288883"><ele>76.0</ele><time>2026-04-28T13:39:42.2Z</time></trkpt><trkpt lat="38.14906" lon="14.82874"><ele>76.0</ele><time>2026-04-28T13:39:43.201Z</time></trkpt><trkpt lat="38.1491217" lon="14.8285833"><ele>76.0</ele><time>2026-04-28T13:39:44.2Z</time></trkpt><trkpt lat="38.1491683" lon="14.8284167"><ele>76.0</ele><time>2026-04-28T13:39:45.2Z</time></trkpt><trkpt lat="38.149205" lon="14.8282533"><ele>76.0</ele><time>2026-04-28T13:39:46.2Z</time></trkpt><trkpt lat="38.1492233" lon="14.8280833"><ele>76.0</ele><time>2026-04-28T13:39:47.2Z</time></trkpt><trkpt lat="38.14924" lon="14.8279167"><ele>76.0</ele><time>2026-04-28T13:39:48.2Z</time></trkpt><trkpt lat="38.1492333" lon="14.8277517"><ele>76.0</ele><time>2026-04-28T13:39:49.2Z</time></trkpt><trkpt lat="38.149205" lon="14.8275833"><ele>76.0</ele><time>2026-04-28T13:39:50.2Z</time></trkpt><trkpt lat="38.1491567" lon="14.82743"><ele>76.0</ele><time>2026-04-28T13:39:51.201Z</time></trkpt><trkpt lat="38.14909" lon="14.8272683"><ele>76.0</ele><time>2026-04-28T13:39:52.2Z</time></trkpt><trkpt lat="38.1490133" lon="14.8271283"><ele>76.0</ele><time>2026-04-28T13:39:53.2Z</time></trkpt><trkpt lat="38.1489183" lon="14.8270067"><ele>76.0</ele><time>2026-04-28T13:39:54.2Z</time></trkpt><trkpt lat="38.1488117" lon="14.826905"><ele>76.0</ele><time>2026-04-28T13:39:55.2Z</time></trkpt><trkpt lat="38.1486967" lon="14.826825"><ele>76.0</ele><time>2026-04-28T13:39:56.2Z</time></trkpt><trkpt lat="38.1485633" lon="14.8267633"><ele>75.25</ele><time>2026-04-28T13:39:57.2Z</time></trkpt><trkpt lat="38.14842" lon="14.826725"><ele>74.5</ele><time>2026-04-28T13:39:58.2Z</time></trkpt><trkpt lat="38.148285" lon="14.8267117"><ele>73.75</ele><time>2026-04-28T13:39:59.2Z</time></trkpt><trkpt lat="38.14815" lon="14.8267267"><ele>73.0</ele><time>2026-04-28T13:40:00.201Z</time></trkpt><trkpt lat="38.1480217" lon="14.826775"><ele>73.0</ele><time>2026-04-28T13:40:01.2Z</time></trkpt><trkpt lat="38.147895" lon="14.8268483"><ele>73.0</ele><time>2026-04-28T13:40:02.2Z</time></trkpt><trkpt lat="38.14778" lon="14.8269417"><ele>73.0</ele><time>2026-04-28T13:40:03.2Z</time></trkpt><trkpt lat="38.1476867" lon="14.8270567"><ele>73.0</ele><time>2026-04-28T13:40:04.2Z</time></trkpt><trkpt lat="38.14762" lon="14.8272067"><ele>73.0</ele><time>2026-04-28T13:40:05.201Z</time></trkpt><trkpt lat="38.14758" lon="14.8273617"><ele>73.0</ele><time>2026-04-28T13:40:06.2Z</time></trkpt><trkpt lat="38.1475583" lon="14.82752"><ele>73.0</ele><time>2026-04-28T13:40:07.2Z</time></trkpt><trkpt lat="38.1475533" lon="14.8276917"><ele>73.0</ele><time>2026-04-28T13:40:08.2Z</time></trkpt><trkpt lat="38.1475717" lon="14.8278567"><ele>75.5</ele><time>2026-04-28T13:40:09.2Z</time></trkpt><trkpt lat="38.1476183" lon="14.8280067"><ele>78.0</ele><time>2026-04-28T13:40:10.2Z</time></trkpt><trkpt lat="38.1476883" lon="14.8281267"><ele>80.5</ele><time>2026-04-28T13:40:11.2Z</time></trkpt><trkpt lat="38.147785" lon="14.828225"><ele>83.0</ele><time>2026-04-28T13:40:12.2Z</time></trkpt><trkpt lat="38.147915" lon="14.8283033"><ele>83.0</ele><time>2026-04-28T13:40:13.2Z</time></trkpt><trkpt lat="38.14805" lon="14.8283667"><ele>83.0</ele><time>2026-04-28T13:40:14.2Z</time></trkpt><trkpt lat="38.1481767" lon="14.8284517"><ele>83.0</ele><time>2026-04-28T13:40:15.2Z</time></trkpt><trkpt lat="38.1482967" lon="14.828565"><ele>83.0</ele><time>2026-04-28T13:40:16.2Z</time></trkpt><trkpt lat="38.1484083" lon="14.8287"><ele>81.0</ele><time>2026-04-28T13:40:17.2Z</time></trkpt><trkpt lat="38.1485217" lon="14.8288533"><ele>79.0</ele><time>2026-04-28T13:40:18.2Z</time></trkpt><trkpt lat="38.14864" lon="14.82902"><ele>77.0</ele><time>2026-04-28T13:40:19.2Z</time></trkpt><trkpt lat="38.1487567" lon="14.829185"><ele>76.66666666666667</ele><time>2026-04-28T13:40:20.2Z</time></trkpt><trkpt lat="38.1488883" lon="14.8293617"><ele>76.33333333333333</ele><time>2026-04-28T13:40:21.2Z</time></trkpt><trkpt lat="38.14902" lon="14.82955"><ele>76.0</ele><time>2026-04-28T13:40:22.2Z</time></trkpt><trkpt lat="38.149155" lon="14.8297283"><ele>73.0</ele><time>2026-04-28T13:40:23.2Z</time></trkpt><trkpt lat="38.1492917" lon="14.8299283"><ele>70.0</ele><time>2026-04-28T13:40:24.2Z</time></trkpt><trkpt lat="38.1494383" lon="14.8301283"><ele>67.0</ele><time>2026-04-28T13:40:25.201Z</time></trkpt><trkpt lat="38.1495733" lon="14.83033"><ele>65.66666666666666</ele><time>2026-04-28T13:40:26.2Z</time></trkpt><trkpt lat="38.149715" lon="14.8305267"><ele>64.33333333333333</ele><time>2026-04-28T13:40:27.2Z</time></trkpt><trkpt lat="38.149855" lon="14.830735"><ele>63.0</ele><time>2026-04-28T13:40:28.2Z</time></trkpt><trkpt lat="38.14999" lon="14.8309317"><ele>64.66666666666667</ele><time>2026-04-28T13:40:29.2Z</time></trkpt><trkpt lat="38.1501367" lon="14.8311317"><ele>66.33333333333334</ele><time>2026-04-28T13:40:30.2Z</time></trkpt><trkpt lat="38.1502767" lon="14.83134"><ele>68.0</ele><time>2026-04-28T13:40:31.2Z</time></trkpt><trkpt lat="38.1504117" lon="14.8315467"><ele>68.0</ele><time>2026-04-28T13:40:32.201Z</time></trkpt><trkpt lat="38.1505433" lon="14.83174"><ele>68.0</ele><time>2026-04-28T13:40:33.2Z</time></trkpt><trkpt lat="38.1506683" lon="14.8319183"><ele>68.0</ele><time>2026-04-28T13:40:34.2Z</time></trkpt><trkpt lat="38.1507967" lon="14.8321"><ele>69.33333333333334</ele><time>2026-04-28T13:40:35.2Z</time></trkpt><trkpt lat="38.150915" lon="14.8322767"><ele>70.66666666666667</ele><time>2026-04-28T13:40:36.2Z</time></trkpt><trkpt lat="38.151035" lon="14.8324533"><ele>72.0</ele><time>2026-04-28T13:40:37.2Z</time></trkpt><trkpt lat="38.15116" lon="14.83263"><ele>72.66666666666667</ele><time>2026-04-28T13:40:38.2Z</time></trkpt><trkpt lat="38.1512767" lon="14.83281"><ele>73.33333333333334</ele><time>2026-04-28T13:40:39.2Z</time></trkpt><trkpt lat="38.1513883" lon="14.8329933"><ele>74.0</ele><time>2026-04-28T13:40:40.2Z</time></trkpt><trkpt lat="38.1515" lon="14.8331867"><ele>71.33333333333334</ele><time>2026-04-28T13:40:41.2Z</time></trkpt><trkpt lat="38.1516133" lon="14.8333867"><ele>68.66666666666667</ele><time>2026-04-28T13:40:42.2Z</time></trkpt><trkpt lat="38.1517217" lon="14.833585"><ele>66.0</ele><time>2026-04-28T13:40:43.2Z</time></trkpt><trkpt lat="38.1518283" lon="14.8337883"><ele>66.0</ele><time>2026-04-28T13:40:44.201Z</time></trkpt><trkpt lat="38.1519283" lon="14.8339983"><ele>66.0</ele><time>2026-04-28T13:40:45.2Z</time></trkpt><trkpt lat="38.1520233" lon="14.834215"><ele>66.0</ele><time>2026-04-28T13:40:46.2Z</time></trkpt><trkpt lat="38.1521167" lon="14.83444"><ele>67.0</ele><time>2026-04-28T13:40:47.2Z</time></trkpt><trkpt lat="38.152205" lon="14.8346683"><ele>68.0</ele><time>2026-04-28T13:40:48.2Z</time></trkpt><trkpt lat="38.1522867" lon="14.8349033"><ele>69.0</ele><time>2026-04-28T13:40:49.2Z</time></trkpt><trkpt lat="38.1523633" lon="14.8351383"><ele>69.33333333333333</ele><time>2026-04-28T13:40:50.201Z</time></trkpt><trkpt lat="38.152435" lon="14.8353767"><ele>69.66666666666666</ele><time>2026-04-28T13:40:51.2Z</time></trkpt><trkpt lat="38.1525017" lon="14.8356283"><ele>70.0</ele><time>2026-04-28T13:40:52.2Z</time></trkpt><trkpt lat="38.152565" lon="14.8358833"><ele>74.33333333333333</ele><time>2026-04-28T13:40:53.2Z</time></trkpt><trkpt lat="38.1526267" lon="14.8361417"><ele>78.66666666666667</ele><time>2026-04-28T13:40:54.2Z</time></trkpt><trkpt lat="38.1526833" lon="14.8364"><ele>83.0</ele><time>2026-04-28T13:40:55.2Z</time></trkpt><trkpt lat="38.152735" lon="14.83667"><ele>88.66666666666667</ele><time>2026-04-28T13:40:56.201Z</time></trkpt><trkpt lat="38.15279" lon="14.8369333"><ele>94.33333333333334</ele><time>2026-04-28T13:40:57.201Z</time></trkpt><trkpt lat="38.1528483" lon="14.8372133"><ele>100.0</ele><time>2026-04-28T13:40:58.2Z</time></trkpt><trkpt lat="38.1529" lon="14.8374883"><ele>100.0</ele><time>2026-04-28T13:40:59.2Z</time></trkpt><trkpt lat="38.1529517" lon="14.8377633"><ele>100.0</ele><time>2026-04-28T13:41:00.2Z</time></trkpt><trkpt lat="38.153005" lon="14.838035"><ele>100.0</ele><time>2026-04-28T13:41:01.2Z</time></trkpt><trkpt lat="38.1528576" lon="14.8371895"><ele>81.0</ele><time>2026-04-28T13:41:13.399Z</time></trkpt><trkpt lat="38.152804" lon="14.8450193"><ele>45.0</ele><time>2026-04-28T13:41:19.764Z</time></trkpt><trkpt lat="38.1533433" lon="14.8452717"><ele>45.0</ele><time>2026-04-28T13:41:28.205Z</time></trkpt><trkpt lat="38.1532917" lon="14.845525"><ele>45.0</ele><time>2026-04-28T13:41:29.205Z</time></trkpt><trkpt lat="38.1532267" lon="14.84578"><ele>45.0</ele><time>2026-04-28T13:41:30.205Z</time></trkpt><trkpt lat="38.15315" lon="14.84603"><ele>47.66666666666667</ele><time>2026-04-28T13:41:31.204Z</time></trkpt><trkpt lat="38.15307" lon="14.8462717"><ele>50.333333333333336</ele><time>2026-04-28T13:41:32.204Z</time></trkpt><trkpt lat="38.15298" lon="14.8465067"><ele>53.0</ele><time>2026-04-28T13:41:33.204Z</time></trkpt><trkpt lat="38.1528767" lon="14.8467367"><ele>50.0</ele><time>2026-04-28T13:41:34.204Z</time></trkpt><trkpt lat="38.1527767" lon="14.8469583"><ele>47.0</ele><time>2026-04-28T13:41:35.204Z</time></trkpt><trkpt lat="38.1526767" lon="14.84718"><ele>44.0</ele><time>2026-04-28T13:41:36.204Z</time></trkpt><trkpt lat="38.15256" lon="14.8474033"><ele>44.0</ele><time>2026-04-28T13:41:37.205Z</time></trkpt><trkpt lat="38.1524417" lon="14.847615"><ele>44.0</ele><time>2026-04-28T13:41:38.204Z</time></trkpt><trkpt lat="38.1523167" lon="14.84782"><ele>44.0</ele><time>2026-04-28T13:41:39.204Z</time></trkpt><trkpt lat="38.152195" lon="14.84803"><ele>45.33333333333333</ele><time>2026-04-28T13:41:40.204Z</time></trkpt><trkpt lat="38.1520783" lon="14.8482333"><ele>46.666666666666664</ele><time>2026-04-28T13:41:41.204Z</time></trkpt><trkpt lat="38.1519617" lon="14.8484283"><ele>48.0</ele><time>2026-04-28T13:41:42.204Z</time></trkpt><trkpt lat="38.1518383" lon="14.8486267"><ele>48.0</ele><time>2026-04-28T13:41:43.204Z</time></trkpt><trkpt lat="38.1517133" lon="14.8488217"><ele>48.0</ele><time>2026-04-28T13:41:44.204Z</time></trkpt><trkpt lat="38.1515883" lon="14.8490233"><ele>48.0</ele><time>2026-04-28T13:41:45.204Z</time></trkpt><trkpt lat="38.1514683" lon="14.8492233"><ele>49.33333333333333</ele><time>2026-04-28T13:41:46.204Z</time></trkpt><trkpt lat="38.1513483" lon="14.8494317"><ele>50.666666666666664</ele><time>2026-04-28T13:41:47.204Z</time></trkpt><trkpt lat="38.1512317" lon="14.8496383"><ele>52.0</ele><time>2026-04-28T13:41:48.204Z</time></trkpt><trkpt lat="38.1511217" lon="14.8498483"><ele>52.0</ele><time>2026-04-28T13:41:49.204Z</time></trkpt><trkpt lat="38.1510117" lon="14.85006"><ele>52.0</ele><time>2026-04-28T13:41:50.204Z</time></trkpt><trkpt lat="38.15091" lon="14.8502733"><ele>52.0</ele><time>2026-04-28T13:41:51.204Z</time></trkpt><trkpt lat="38.1508083" lon="14.8504833"><ele>52.33333333333333</ele><time>2026-04-28T13:41:52.204Z</time></trkpt><trkpt lat="38.1507167" lon="14.8506983"><ele>52.66666666666667</ele><time>2026-04-28T13:41:53.204Z</time></trkpt><trkpt lat="38.1506217" lon="14.8509167"><ele>53.0</ele><time>2026-04-28T13:41:54.204Z</time></trkpt><trkpt lat="38.150525" lon="14.8511267"><ele>57.0</ele><time>2026-04-28T13:41:55.204Z</time></trkpt><trkpt lat="38.15043" lon="14.8513433"><ele>61.0</ele><time>2026-04-28T13:41:56.204Z</time></trkpt><trkpt lat="38.150325" lon="14.8515633"><ele>65.0</ele><time>2026-04-28T13:41:57.204Z</time></trkpt><trkpt lat="38.1502133" lon="14.8517783"><ele>64.0</ele><time>2026-04-28T13:41:58.204Z</time></trkpt><trkpt lat="38.1501117" lon="14.8520083"><ele>63.0</ele><time>2026-04-28T13:41:59.204Z</time></trkpt><trkpt lat="38.150005" lon="14.852225"><ele>62.0</ele><time>2026-04-28T13:42:00.204Z</time></trkpt><trkpt lat="38.14989" lon="14.8524417"><ele>64.66666666666667</ele><time>2026-04-28T13:42:01.204Z</time></trkpt><trkpt lat="38.1497717" lon="14.8526567"><ele>67.33333333333333</ele><time>2026-04-28T13:42:02.204Z</time></trkpt><trkpt lat="38.1496483" lon="14.8528717"><ele>70.0</ele><time>2026-04-28T13:42:03.204Z</time></trkpt><trkpt lat="38.149525" lon="14.8530783"><ele>70.0</ele><time>2026-04-28T13:42:04.204Z</time></trkpt><trkpt lat="38.1494017" lon="14.853275"><ele>70.0</ele><time>2026-04-28T13:42:05.204Z</time></trkpt><trkpt lat="38.1492683" lon="14.853475"><ele>70.0</ele><time>2026-04-28T13:42:06.204Z</time></trkpt><trkpt lat="38.1491267" lon="14.853675"><ele>69.33333333333333</ele><time>2026-04-28T13:42:07.204Z</time></trkpt><trkpt lat="38.1489833" lon="14.8538717"><ele>68.66666666666667</ele><time>2026-04-28T13:42:08.204Z</time></trkpt><trkpt lat="38.1488383" lon="14.8540633"><ele>68.0</ele><time>2026-04-28T13:42:09.204Z</time></trkpt><trkpt lat="38.14869" lon="14.85425"><ele>67.33333333333334</ele><time>2026-04-28T13:42:10.204Z</time></trkpt><trkpt lat="38.14854" lon="14.85443"><ele>66.66666666666667</ele><time>2026-04-28T13:42:11.204Z</time></trkpt><trkpt lat="38.148375" lon="14.854605"><ele>66.0</ele><time>2026-04-28T13:42:12.204Z</time></trkpt><trkpt lat="38.148215" lon="14.8547817"><ele>67.66666666666667</ele><time>2026-04-28T13:42:13.205Z</time></trkpt><trkpt lat="38.1480583" lon="14.8549567"><ele>69.33333333333334</ele><time>2026-04-28T13:42:14.204Z</time></trkpt><trkpt lat="38.1479017" lon="14.85513"><ele>71.0</ele><time>2026-04-28T13:42:15.204Z</time></trkpt><trkpt lat="38.14775" lon="14.8552983"><ele>71.66666666666667</ele><time>2026-04-28T13:42:16.204Z</time></trkpt><trkpt lat="38.1475933" lon="14.8554717"><ele>72.33333333333333</ele><time>2026-04-28T13:42:17.204Z</time></trkpt><trkpt lat="38.1474383" lon="14.8556583"><ele>73.0</ele><time>2026-04-28T13:42:18.204Z</time></trkpt><trkpt lat="38.147285" lon="14.8558317"><ele>74.66666666666666</ele><time>2026-04-28T13:42:19.204Z</time></trkpt><trkpt lat="38.1471267" lon="14.856015"><ele>76.33333333333333</ele><time>2026-04-28T13:42:20.204Z</time></trkpt><trkpt lat="38.1469733" lon="14.8561917"><ele>78.0</ele><time>2026-04-28T13:42:21.204Z</time></trkpt><trkpt lat="38.146815" lon="14.8563817"><ele>78.0</ele><time>2026-04-28T13:42:22.204Z</time></trkpt><trkpt lat="38.146655" lon="14.8565883"><ele>78.0</ele><time>2026-04-28T13:42:23.204Z</time></trkpt><trkpt lat="38.1465233" lon="14.8568033"><ele>78.0</ele><time>2026-04-28T13:42:24.205Z</time></trkpt><trkpt lat="38.14639" lon="14.8570183"><ele>79.66666666666667</ele><time>2026-04-28T13:42:25.204Z</time></trkpt><trkpt lat="38.1462617" lon="14.8572383"><ele>81.33333333333334</ele><time>2026-04-28T13:42:26.205Z</time></trkpt><trkpt lat="38.1461383" lon="14.8574583"><ele>83.0</ele><time>2026-04-28T13:42:27.204Z</time></trkpt><trkpt lat="38.14602" lon="14.85769"><ele>83.0</ele><time>2026-04-28T13:42:28.204Z</time></trkpt><trkpt lat="38.1459117" lon="14.8579217"><ele>83.0</ele><time>2026-04-28T13:42:29.204Z</time></trkpt><trkpt lat="38.1458083" lon="14.85815"><ele>83.0</ele><time>2026-04-28T13:42:30.205Z</time></trkpt><trkpt lat="38.145715" lon="14.8583833"><ele>90.0</ele><time>2026-04-28T13:42:31.204Z</time></trkpt><trkpt lat="38.1456267" lon="14.8586167"><ele>97.0</ele><time>2026-04-28T13:42:32.204Z</time></trkpt><trkpt lat="38.1455517" lon="14.8588467"><ele>104.0</ele><time>2026-04-28T13:42:33.205Z</time></trkpt><trkpt lat="38.1454717" lon="14.85907"><ele>101.33333333333333</ele><time>2026-04-28T13:42:34.204Z</time></trkpt><trkpt lat="38.1453983" lon="14.8592967"><ele>98.66666666666666</ele><time>2026-04-28T13:42:35.204Z</time></trkpt><trkpt lat="38.145325" lon="14.8595183"><ele>96.0</ele><time>2026-04-28T13:42:36.204Z</time></trkpt><trkpt lat="38.145255" lon="14.85975"><ele>96.0</ele><time>2026-04-28T13:42:37.204Z</time></trkpt><trkpt lat="38.1451783" lon="14.8599833"><ele>96.0</ele><time>2026-04-28T13:42:38.205Z</time></trkpt><trkpt lat="38.1451017" lon="14.860225"><ele>96.0</ele><time>2026-04-28T13:42:39.204Z</time></trkpt><trkpt lat="38.1450117" lon="14.86046"><ele>92.66666666666667</ele><time>2026-04-28T13:42:40.204Z</time></trkpt><trkpt lat="38.1449233" lon="14.860705"><ele>89.33333333333334</ele><time>2026-04-28T13:42:41.205Z</time></trkpt><trkpt lat="38.14483" lon="14.860935"><ele>86.0</ele><time>2026-04-28T13:42:42.204Z</time></trkpt><trkpt lat="38.1447283" lon="14.8611667"><ele>89.0</ele><time>2026-04-28T13:42:43.204Z</time></trkpt><trkpt lat="38.1446233" lon="14.861395"><ele>92.0</ele><time>2026-04-28T13:42:44.204Z</time></trkpt><trkpt lat="38.144495" lon="14.8616067"><ele>95.0</ele><time>2026-04-28T13:42:45.204Z</time></trkpt><trkpt lat="38.144375" lon="14.86181"><ele>95.0</ele><time>2026-04-28T13:42:46.204Z</time></trkpt><trkpt lat="38.144255" lon="14.86201"><ele>95.0</ele><time>2026-04-28T13:42:47.204Z</time></trkpt><trkpt lat="38.1441467" lon="14.8622067"><ele>95.0</ele><time>2026-04-28T13:42:48.204Z</time></trkpt><trkpt lat="38.1439617" lon="14.8623883"><ele>95.66666666666667</ele><time>2026-04-28T13:42:49.204Z</time></trkpt><trkpt lat="38.14382" lon="14.8625633"><ele>96.33333333333334</ele><time>2026-04-28T13:42:50.204Z</time></trkpt><trkpt lat="38.14369" lon="14.8627517"><ele>97.0</ele><time>2026-04-28T13:42:51.205Z</time></trkpt><trkpt lat="38.1435467" lon="14.8629317"><ele>97.0</ele><time>2026-04-28T13:42:52.204Z</time></trkpt><trkpt lat="38.1433917" lon="14.8630983"><ele>97.0</ele><time>2026-04-28T13:42:53.204Z</time></trkpt><trkpt lat="38.1432283" lon="14.86326"><ele>97.0</ele><time>2026-04-28T13:42:54.204Z</time></trkpt><trkpt lat="38.1430733" lon="14.8634283"><ele>98.0</ele><time>2026-04-28T13:42:55.204Z</time></trkpt><trkpt lat="38.1429183" lon="14.8635817"><ele>99.0</ele><time>2026-04-28T13:42:56.204Z</time></trkpt><trkpt lat="38.1427617" lon="14.8637367"><ele>100.0</ele><time>2026-04-28T13:42:57.204Z</time></trkpt><trkpt lat="38.1426" lon="14.8638917"><ele>100.0</ele><time>2026-04-28T13:42:58.205Z</time></trkpt><trkpt lat="38.1424433" lon="14.8640567"><ele>100.0</ele><time>2026-04-28T13:42:59.204Z</time></trkpt><trkpt lat="38.1422917" lon="14.864225"><ele>100.0</ele><time>2026-04-28T13:43:00.204Z</time></trkpt><trkpt lat="38.1421333" lon="14.8644033"><ele>101.0</ele><time>2026-04-28T13:43:01.205Z</time></trkpt><trkpt lat="38.14197" lon="14.8645833"><ele>102.0</ele><time>2026-04-28T13:43:02.204Z</time></trkpt><trkpt lat="38.1418117" lon="14.8647833"><ele>103.0</ele><time>2026-04-28T13:43:03.204Z</time></trkpt><trkpt lat="38.1416567" lon="14.8649933"><ele>107.66666666666667</ele><time>2026-04-28T13:43:04.205Z</time></trkpt><trkpt lat="38.1415067" lon="14.8652067"><ele>112.33333333333334</ele><time>2026-04-28T13:43:05.204Z</time></trkpt><trkpt lat="38.14137" lon="14.865425"><ele>117.0</ele><time>2026-04-28T13:43:06.204Z</time></trkpt><trkpt lat="38.1412367" lon="14.86565"><ele>117.0</ele><time>2026-04-28T13:43:07.204Z</time></trkpt><trkpt lat="38.141105" lon="14.865875"><ele>117.0</ele><time>2026-04-28T13:43:08.205Z</time></trkpt><trkpt lat="38.1409817" lon="14.8661033"><ele>117.0</ele><time>2026-04-28T13:43:09.204Z</time></trkpt><trkpt lat="38.1408667" lon="14.86634"><ele>115.66666666666666</ele><time>2026-04-28T13:43:10.204Z</time></trkpt><trkpt lat="38.140755" lon="14.8665767"><ele>114.33333333333333</ele><time>2026-04-28T13:43:11.204Z</time></trkpt><trkpt lat="38.1406483" lon="14.8668167"><ele>113.0</ele><time>2026-04-28T13:43:12.204Z</time></trkpt><trkpt lat="38.140545" lon="14.8670617"><ele>118.0</ele><time>2026-04-28T13:43:13.204Z</time></trkpt><trkpt lat="38.1404483" lon="14.8673067"><ele>123.0</ele><time>2026-04-28T13:43:14.204Z</time></trkpt><trkpt lat="38.14036" lon="14.8675483"><ele>128.0</ele><time>2026-04-28T13:43:15.204Z</time></trkpt><trkpt lat="38.140285" lon="14.8678017"><ele>128.0</ele><time>2026-04-28T13:43:16.204Z</time></trkpt><trkpt lat="38.1402117" lon="14.86806"><ele>128.0</ele><time>2026-04-28T13:43:17.204Z</time></trkpt><trkpt lat="38.14014" lon="14.8683133"><ele>128.0</ele><time>2026-04-28T13:43:18.204Z</time></trkpt><trkpt lat="38.1400783" lon="14.8685583"><ele>127.0</ele><time>2026-04-28T13:43:19.204Z</time></trkpt><trkpt lat="38.1400283" lon="14.86881"><ele>126.0</ele><time>2026-04-28T13:43:20.204Z</time></trkpt><trkpt lat="38.1399817" lon="14.8690583"><ele>125.0</ele><time>2026-04-28T13:43:21.204Z</time></trkpt><trkpt lat="38.1399367" lon="14.8693067"><ele>123.33333333333333</ele><time>2026-04-28T13:43:22.204Z</time></trkpt><trkpt lat="38.13991" lon="14.8695483"><ele>121.66666666666666</ele><time>2026-04-28T13:43:23.204Z</time></trkpt><trkpt lat="38.1398717" lon="14.8697917"><ele>120.0</ele><time>2026-04-28T13:43:24.204Z</time></trkpt><trkpt lat="38.1398617" lon="14.870045"><ele>120.33333333333334</ele><time>2026-04-28T13:43:25.204Z</time></trkpt><trkpt lat="38.13986" lon="14.8702917"><ele>120.66666666666667</ele><time>2026-04-28T13:43:26.204Z</time></trkpt><trkpt lat="38.1398517" lon="14.8705233"><ele>121.0</ele><time>2026-04-28T13:43:27.204Z</time></trkpt><trkpt lat="38.1398367" lon="14.87074"><ele>121.66666666666667</ele><time>2026-04-28T13:43:28.204Z</time></trkpt><trkpt lat="38.1398267" lon="14.8709483"><ele>122.33333333333334</ele><time>2026-04-28T13:43:29.204Z</time></trkpt><trkpt lat="38.139825" lon="14.8711617"><ele>123.0</ele><time>2026-04-28T13:43:30.204Z</time></trkpt><trkpt lat="38.1398267" lon="14.87138"><ele>123.0</ele><time>2026-04-28T13:43:31.204Z</time></trkpt><trkpt lat="38.13984" lon="14.8715983"><ele>123.0</ele><time>2026-04-28T13:43:32.204Z</time></trkpt><trkpt lat="38.1398633" lon="14.871825"><ele>123.0</ele><time>2026-04-28T13:43:33.204Z</time></trkpt><trkpt lat="38.13989" lon="14.87205"><ele>126.33333333333334</ele><time>2026-04-28T13:43:34.204Z</time></trkpt><trkpt lat="38.1399167" lon="14.872285"><ele>129.66666666666669</ele><time>2026-04-28T13:43:35.204Z</time></trkpt><trkpt lat="38.1399517" lon="14.8725183"><ele>133.0</ele><time>2026-04-28T13:43:36.204Z</time></trkpt><trkpt lat="38.13999" lon="14.8727617"><ele>139.66666666666669</ele><time>2026-04-28T13:43:37.204Z</time></trkpt><trkpt lat="38.1400283" lon="14.8729967"><ele>146.33333333333334</ele><time>2026-04-28T13:43:38.204Z</time></trkpt><trkpt lat="38.1400633" lon="14.87323"><ele>153.0</ele><time>2026-04-28T13:43:39.204Z</time></trkpt><trkpt lat="38.1400983" lon="14.873465"><ele>141.5</ele><time>2026-04-28T13:43:40.204Z</time></trkpt><trkpt lat="38.140135" lon="14.8737"><ele>130.0</ele><time>2026-04-28T13:43:41.204Z</time></trkpt><trkpt lat="38.1574633" lon="14.9044067"><ele>130.0</ele><time>2026-04-28T13:46:01.205Z</time></trkpt><trkpt lat="38.1576267" lon="14.9046033"><ele>130.0</ele><time>2026-04-28T13:46:02.205Z</time></trkpt><trkpt lat="38.157765" lon="14.9048083"><ele>130.0</ele><time>2026-04-28T13:46:03.206Z</time></trkpt><trkpt lat="38.1578983" lon="14.905015"><ele>132.66666666666669</ele><time>2026-04-28T13:46:04.206Z</time></trkpt><trkpt lat="38.158025" lon="14.905235"><ele>135.33333333333334</ele><time>2026-04-28T13:46:05.206Z</time></trkpt><trkpt lat="38.1581467" lon="14.905455"><ele>138.0</ele><time>2026-04-28T13:46:06.205Z</time></trkpt><trkpt lat="38.15827" lon="14.9056767"><ele>138.0</ele><time>2026-04-28T13:46:07.205Z</time></trkpt><trkpt lat="38.1584017" lon="14.9058917"><ele>138.0</ele><time>2026-04-28T13:46:08.205Z</time></trkpt><trkpt lat="38.1585233" lon="14.906105"><ele>138.0</ele><time>2026-04-28T13:46:09.205Z</time></trkpt><trkpt lat="38.15864" lon="14.9063217"><ele>142.33333333333334</ele><time>2026-04-28T13:46:10.205Z</time></trkpt><trkpt lat="38.158765" lon="14.9065367"><ele>146.66666666666669</ele><time>2026-04-28T13:46:11.206Z</time></trkpt><trkpt lat="38.1588783" lon="14.9067567"><ele>151.0</ele><time>2026-04-28T13:46:12.205Z</time></trkpt><trkpt lat="38.1590033" lon="14.9069833"><ele>150.66666666666669</ele><time>2026-04-28T13:46:13.205Z</time></trkpt><trkpt lat="38.1591317" lon="14.90721"><ele>150.33333333333334</ele><time>2026-04-28T13:46:14.205Z</time></trkpt><trkpt lat="38.15925" lon="14.9074383"><ele>150.0</ele><time>2026-04-28T13:46:15.206Z</time></trkpt><trkpt lat="38.15936" lon="14.90767"><ele>150.0</ele><time>2026-04-28T13:46:16.205Z</time></trkpt><trkpt lat="38.159465" lon="14.9078917"><ele>150.0</ele><time>2026-04-28T13:46:17.205Z</time></trkpt><trkpt lat="38.1595667" lon="14.9081233"><ele>150.0</ele><time>2026-04-28T13:46:18.205Z</time></trkpt><trkpt lat="38.1596717" lon="14.9083567"><ele>156.0</ele><time>2026-04-28T13:46:19.205Z</time></trkpt><trkpt lat="38.1597833" lon="14.908595"><ele>162.0</ele><time>2026-04-28T13:46:20.205Z</time></trkpt><trkpt lat="38.1684683" lon="14.9410633"><ele>148.66666666666666</ele><time>2026-04-28T13:48:30.204Z</time></trkpt><trkpt lat="38.1684117" lon="14.9413233"><ele>135.33333333333331</ele><time>2026-04-28T13:48:31.204Z</time></trkpt><trkpt lat="38.16834" lon="14.9415817"><ele>122.0</ele><time>2026-04-28T13:48:32.204Z</time></trkpt><trkpt lat="38.1682633" lon="14.9418267"><ele>127.33333333333333</ele><time>2026-04-28T13:48:33.204Z</time></trkpt><trkpt lat="38.1681833" lon="14.9420683"><ele>132.66666666666666</ele><time>2026-04-28T13:48:34.204Z</time></trkpt><trkpt lat="38.1680983" lon="14.9423067"><ele>138.0</ele><time>2026-04-28T13:48:35.204Z</time></trkpt><trkpt lat="38.168" lon="14.9425433"><ele>124.0</ele><time>2026-04-28T13:48:36.204Z</time></trkpt><trkpt lat="38.16791" lon="14.9427833"><ele>110.0</ele><time>2026-04-28T13:48:37.205Z</time></trkpt><trkpt lat="38.1676" lon="14.943505"><ele>113.0</ele><time>2026-04-28T13:48:40.205Z</time></trkpt><trkpt lat="38.167375" lon="14.9437683"><ele>116.0</ele><time>2026-04-28T13:48:41.205Z</time></trkpt><trkpt lat="38.16716" lon="14.9439817"><ele>116.0</ele><time>2026-04-28T13:48:42.205Z</time></trkpt><trkpt lat="38.1670117" lon="14.944195"><ele>116.0</ele><time>2026-04-28T13:48:43.205Z</time></trkpt><trkpt lat="38.16686" lon="14.9444133"><ele>101.5</ele><time>2026-04-28T13:48:44.205Z</time></trkpt><trkpt lat="38.1667067" lon="14.9446233"><ele>87.0</ele><time>2026-04-28T13:48:45.206Z</time></trkpt><trkpt lat="38.16654" lon="14.94483"><ele>87.0</ele><time>2026-04-28T13:48:46.205Z</time></trkpt><trkpt lat="38.1663933" lon="14.9450467"><ele>87.0</ele><time>2026-04-28T13:48:47.205Z</time></trkpt><trkpt lat="38.1662433" lon="14.9452467"><ele>87.0</ele><time>2026-04-28T13:48:48.205Z</time></trkpt><trkpt lat="38.1660683" lon="14.9454533"><ele>87.0</ele><time>2026-04-28T13:48:49.205Z</time></trkpt><trkpt lat="38.1659067" lon="14.9456417"><ele>87.0</ele><time>2026-04-28T13:48:50.205Z</time></trkpt><trkpt lat="38.1657467" lon="14.9458467"><ele>87.0</ele><time>2026-04-28T13:48:51.205Z</time></trkpt><trkpt lat="38.1655817" lon="14.9460467"><ele>85.5</ele><time>2026-04-28T13:48:52.205Z</time></trkpt><trkpt lat="38.165405" lon="14.9462433"><ele>84.0</ele><time>2026-04-28T13:48:53.205Z</time></trkpt><trkpt lat="38.165235" lon="14.9464417"><ele>84.0</ele><time>2026-04-28T13:48:54.205Z</time></trkpt><trkpt lat="38.165065" lon="14.9466333"><ele>84.0</ele><time>2026-04-28T13:48:55.205Z</time></trkpt><trkpt lat="38.1648983" lon="14.9468267"><ele>81.0</ele><time>2026-04-28T13:48:56.205Z</time></trkpt><trkpt lat="38.164715" lon="14.9470017"><ele>78.0</ele><time>2026-04-28T13:48:57.206Z</time></trkpt><trkpt lat="38.1645317" lon="14.9471817"><ele>78.0</ele><time>2026-04-28T13:48:58.206Z</time></trkpt><trkpt lat="38.16436" lon="14.947375"><ele>78.0</ele><time>2026-04-28T13:48:59.205Z</time></trkpt><trkpt lat="38.1641867" lon="14.94757"><ele>73.0</ele><time>2026-04-28T13:49:00.206Z</time></trkpt><trkpt lat="38.164025" lon="14.9477667"><ele>68.0</ele><time>2026-04-28T13:49:01.205Z</time></trkpt><trkpt lat="38.1638667" lon="14.9479717"><ele>68.0</ele><time>2026-04-28T13:49:02.205Z</time></trkpt><trkpt lat="38.1637083" lon="14.9481783"><ele>68.0</ele><time>2026-04-28T13:49:03.205Z</time></trkpt><trkpt lat="38.163555" lon="14.948375"><ele>68.0</ele><time>2026-04-28T13:49:04.205Z</time></trkpt><trkpt lat="38.163385" lon="14.9485833"><ele>65.0</ele><time>2026-04-28T13:49:05.206Z</time></trkpt><trkpt lat="38.1632167" lon="14.94879"><ele>62.0</ele><time>2026-04-28T13:49:06.205Z</time></trkpt><trkpt lat="38.1630617" lon="14.949"><ele>59.333333333333336</ele><time>2026-04-28T13:49:07.205Z</time></trkpt><trkpt lat="38.1629133" lon="14.9492133"><ele>56.66666666666667</ele><time>2026-04-28T13:49:08.205Z</time></trkpt><trkpt lat="38.1627617" lon="14.9494217"><ele>54.0</ele><time>2026-04-28T13:49:09.205Z</time></trkpt><trkpt lat="38.1626133" lon="14.9496367"><ele>54.0</ele><time>2026-04-28T13:49:10.206Z</time></trkpt><trkpt lat="38.1624683" lon="14.94986"><ele>54.0</ele><time>2026-04-28T13:49:11.205Z</time></trkpt><trkpt lat="38.1623217" lon="14.95008"><ele>51.0</ele><time>2026-04-28T13:49:12.205Z</time></trkpt><trkpt lat="38.16218" lon="14.950305"><ele>48.0</ele><time>2026-04-28T13:49:13.206Z</time></trkpt><trkpt lat="38.1620383" lon="14.9505317"><ele>48.0</ele><time>2026-04-28T13:49:14.205Z</time></trkpt><trkpt lat="38.1618917" lon="14.9507617"><ele>48.0</ele><time>2026-04-28T13:49:15.205Z</time></trkpt><trkpt lat="38.1617483" lon="14.9509917"><ele>47.0</ele><time>2026-04-28T13:49:16.205Z</time></trkpt><trkpt lat="38.161615" lon="14.951225"><ele>46.0</ele><time>2026-04-28T13:49:17.205Z</time></trkpt><trkpt lat="38.1614783" lon="14.9514567"><ele>46.0</ele><time>2026-04-28T13:49:18.205Z</time></trkpt><trkpt lat="38.161345" lon="14.951685"><ele>46.0</ele><time>2026-04-28T13:49:19.205Z</time></trkpt><trkpt lat="38.1612117" lon="14.9519217"><ele>48.5</ele><time>2026-04-28T13:49:20.205Z</time></trkpt><trkpt lat="38.1610767" lon="14.952155"><ele>51.0</ele><time>2026-04-28T13:49:21.205Z</time></trkpt><trkpt lat="38.1609467" lon="14.9523883"><ele>53.5</ele><time>2026-04-28T13:49:22.205Z</time></trkpt><trkpt lat="38.1608167" lon="14.952625"><ele>56.0</ele><time>2026-04-28T13:49:23.205Z</time></trkpt><trkpt lat="38.1606767" lon="14.952855"><ele>56.0</ele><time>2026-04-28T13:49:24.205Z</time></trkpt><trkpt lat="38.16054" lon="14.9530933"><ele>56.0</ele><time>2026-04-28T13:49:25.205Z</time></trkpt><trkpt lat="38.160405" lon="14.95334"><ele>62.0</ele><time>2026-04-28T13:49:26.206Z</time></trkpt><trkpt lat="38.160265" lon="14.953595"><ele>68.0</ele><time>2026-04-28T13:49:27.205Z</time></trkpt><trkpt lat="38.1601183" lon="14.9538533"><ele>68.0</ele><time>2026-04-28T13:49:28.206Z</time></trkpt><trkpt lat="38.1599667" lon="14.95412"><ele>68.0</ele><time>2026-04-28T13:49:29.206Z</time></trkpt><trkpt lat="38.1598133" lon="14.9543917"><ele>77.0</ele><time>2026-04-28T13:49:30.205Z</time></trkpt><trkpt lat="38.1596617" lon="14.9546467"><ele>86.0</ele><time>2026-04-28T13:49:31.205Z</time></trkpt><trkpt lat="38.1594917" lon="14.9548883"><ele>93.5</ele><time>2026-04-28T13:49:32.205Z</time></trkpt><trkpt lat="38.15933" lon="14.9551433"><ele>101.0</ele><time>2026-04-28T13:49:33.205Z</time></trkpt><trkpt lat="38.1591717" lon="14.9554033"><ele>100.5</ele><time>2026-04-28T13:49:34.205Z</time></trkpt><trkpt lat="38.15901" lon="14.9556667"><ele>100.0</ele><time>2026-04-28T13:49:35.205Z</time></trkpt><trkpt lat="38.15885" lon="14.9559283"><ele>104.0</ele><time>2026-04-28T13:49:36.205Z</time></trkpt><trkpt lat="38.15869" lon="14.95619"><ele>108.0</ele><time>2026-04-28T13:49:37.206Z</time></trkpt><trkpt lat="38.155265" lon="14.9604383"><ele>70.5</ele><time>2026-04-28T13:49:56.205Z</time></trkpt><trkpt lat="38.155095" lon="14.9606783"><ele>33.0</ele><time>2026-04-28T13:49:57.205Z</time></trkpt><trkpt lat="38.1549283" lon="14.9608817"><ele>32.5</ele><time>2026-04-28T13:49:58.206Z</time></trkpt><trkpt lat="38.1547633" lon="14.9611017"><ele>32.0</ele><time>2026-04-28T13:49:59.205Z</time></trkpt><trkpt lat="38.1545933" lon="14.9613083"><ele>32.0</ele><time>2026-04-28T13:50:00.205Z</time></trkpt><trkpt lat="38.1544267" lon="14.9615133"><ele>32.0</ele><time>2026-04-28T13:50:01.205Z</time></trkpt><trkpt lat="38.1542617" lon="14.9617217"><ele>30.0</ele><time>2026-04-28T13:50:02.205Z</time></trkpt><trkpt lat="38.1541017" lon="14.961935"><ele>28.0</ele><time>2026-04-28T13:50:03.205Z</time></trkpt><trkpt lat="38.1539383" lon="14.96215"><ele>28.0</ele><time>2026-04-28T13:50:04.205Z</time></trkpt><trkpt lat="38.1537767" lon="14.962365"><ele>28.0</ele><time>2026-04-28T13:50:05.205Z</time></trkpt><trkpt lat="38.1536133" lon="14.9625833"><ele>24.5</ele><time>2026-04-28T13:50:06.206Z</time></trkpt><trkpt lat="38.15345" lon="14.9628"><ele>21.0</ele><time>2026-04-28T13:50:07.205Z</time></trkpt><trkpt lat="38.153285" lon="14.963005"><ele>20.5</ele><time>2026-04-28T13:50:08.205Z</time></trkpt><trkpt lat="38.15313" lon="14.9632167"><ele>20.0</ele><time>2026-04-28T13:50:09.205Z</time></trkpt><trkpt lat="38.1529717" lon="14.96343"><ele>20.0</ele><time>2026-04-28T13:50:10.205Z</time></trkpt><trkpt lat="38.1528083" lon="14.963645"><ele>20.0</ele><time>2026-04-28T13:50:11.205Z</time></trkpt><trkpt lat="38.15265" lon="14.96386"><ele>20.0</ele><time>2026-04-28T13:50:12.205Z</time></trkpt><trkpt lat="38.15249" lon="14.96407"><ele>20.0</ele><time>2026-04-28T13:50:13.205Z</time></trkpt><trkpt lat="38.1523317" lon="14.964285"><ele>21.5</ele><time>2026-04-28T13:50:14.205Z</time></trkpt><trkpt lat="38.1521683" lon="14.9644967"><ele>23.0</ele><time>2026-04-28T13:50:15.205Z</time></trkpt><trkpt lat="38.1520033" lon="14.964705"><ele>23.0</ele><time>2026-04-28T13:50:16.206Z</time></trkpt><trkpt lat="38.1518383" lon="14.964915"><ele>23.0</ele><time>2026-04-28T13:50:17.205Z</time></trkpt><trkpt lat="38.1516817" lon="14.96513"><ele>27.0</ele><time>2026-04-28T13:50:18.205Z</time></trkpt><trkpt lat="38.1515167" lon="14.9653367"><ele>31.0</ele><time>2026-04-28T13:50:19.205Z</time></trkpt><trkpt lat="38.1513533" lon="14.9655483"><ele>31.0</ele><time>2026-04-28T13:50:20.205Z</time></trkpt><trkpt lat="38.1511983" lon="14.9657667"><ele>31.0</ele><time>2026-04-28T13:50:21.205Z</time></trkpt><trkpt lat="38.1510483" lon="14.9659933"><ele>29.5</ele><time>2026-04-28T13:50:22.205Z</time></trkpt><trkpt lat="38.1509067" lon="14.9662267"><ele>28.0</ele><time>2026-04-28T13:50:23.206Z</time></trkpt><trkpt lat="38.1507717" lon="14.9664617"><ele>35.0</ele><time>2026-04-28T13:50:24.206Z</time></trkpt><trkpt lat="38.1506333" lon="14.9667"><ele>42.0</ele><time>2026-04-28T13:50:25.205Z</time></trkpt><trkpt lat="38.1505" lon="14.9669467"><ele>42.0</ele><time>2026-04-28T13:50:26.205Z</time></trkpt><trkpt lat="38.1503817" lon="14.9672033"><ele>42.0</ele><time>2026-04-28T13:50:27.205Z</time></trkpt><trkpt lat="38.15026" lon="14.9674517"><ele>38.5</ele><time>2026-04-28T13:50:28.205Z</time></trkpt><trkpt lat="38.1501517" lon="14.9677083"><ele>35.0</ele><time>2026-04-28T13:50:29.205Z</time></trkpt><trkpt lat="38.150045" lon="14.96797"><ele>35.0</ele><time>2026-04-28T13:50:30.205Z</time></trkpt><trkpt lat="38.149945" lon="14.9682433"><ele>35.0</ele><time>2026-04-28T13:50:31.205Z</time></trkpt><trkpt lat="38.1498533" lon="14.9685233"><ele>34.5</ele><time>2026-04-28T13:50:32.205Z</time></trkpt><trkpt lat="38.1497817" lon="14.9688017"><ele>34.0</ele><time>2026-04-28T13:50:33.205Z</time></trkpt><trkpt lat="38.149715" lon="14.96908"><ele>29.5</ele><time>2026-04-28T13:50:34.206Z</time></trkpt><trkpt lat="38.149655" lon="14.9693633"><ele>25.0</ele><time>2026-04-28T13:50:35.206Z</time></trkpt><trkpt lat="38.1496133" lon="14.9696483"><ele>25.0</ele><time>2026-04-28T13:50:36.205Z</time></trkpt><trkpt lat="38.1495783" lon="14.969935"><ele>25.0</ele><time>2026-04-28T13:50:37.205Z</time></trkpt><trkpt lat="38.149565" lon="14.970235"><ele>22.5</ele><time>2026-04-28T13:50:38.205Z</time></trkpt><trkpt lat="38.1495633" lon="14.9705317"><ele>20.0</ele><time>2026-04-28T13:50:39.205Z</time></trkpt><trkpt lat="38.1495617" lon="14.9708283"><ele>18.5</ele><time>2026-04-28T13:50:40.205Z</time></trkpt><trkpt lat="38.1495683" lon="14.97114"><ele>17.0</ele><time>2026-04-28T13:50:41.205Z</time></trkpt><trkpt lat="38.1495633" lon="14.971415"><ele>15.0</ele><time>2026-04-28T13:50:42.205Z</time></trkpt><trkpt lat="38.149555" lon="14.9717167"><ele>13.0</ele><time>2026-04-28T13:50:43.205Z</time></trkpt><trkpt lat="38.1495383" lon="14.97201"><ele>13.0</ele><time>2026-04-28T13:50:44.205Z</time></trkpt><trkpt lat="38.1494983" lon="14.9722867"><ele>13.0</ele><time>2026-04-28T13:50:45.205Z</time></trkpt><trkpt lat="38.1494467" lon="14.9725733"><ele>12.666666666666666</ele><time>2026-04-28T13:50:46.205Z</time></trkpt><trkpt lat="38.149385" lon="14.9728483"><ele>12.333333333333332</ele><time>2026-04-28T13:50:47.206Z</time></trkpt><trkpt lat="38.14931" lon="14.9731167"><ele>12.0</ele><time>2026-04-28T13:50:48.206Z</time></trkpt><trkpt lat="38.14923" lon="14.973385"><ele>12.0</ele><time>2026-04-28T13:50:49.205Z</time></trkpt><trkpt lat="38.14914" lon="14.9736567"><ele>12.0</ele><time>2026-04-28T13:50:50.206Z</time></trkpt><trkpt lat="38.1490367" lon="14.973925"><ele>11.5</ele><time>2026-04-28T13:50:51.205Z</time></trkpt><trkpt lat="38.1489183" lon="14.9741833"><ele>11.0</ele><time>2026-04-28T13:50:52.205Z</time></trkpt><trkpt lat="38.1487917" lon="14.9744317"><ele>11.0</ele><time>2026-04-28T13:50:53.206Z</time></trkpt><trkpt lat="38.1486533" lon="14.974665"><ele>11.0</ele><time>2026-04-28T13:50:54.205Z</time></trkpt><trkpt lat="38.14851" lon="14.9748983"><ele>10.0</ele><time>2026-04-28T13:50:55.205Z</time></trkpt><trkpt lat="38.1483633" lon="14.9751133"><ele>9.0</ele><time>2026-04-28T13:50:56.205Z</time></trkpt><trkpt lat="38.148215" lon="14.9753367"><ele>9.5</ele><time>2026-04-28T13:50:57.205Z</time></trkpt><trkpt lat="38.1480717" lon="14.9755667"><ele>10.0</ele><time>2026-04-28T13:50:58.205Z</time></trkpt><trkpt lat="38.1479383" lon="14.9758033"><ele>10.0</ele><time>2026-04-28T13:50:59.206Z</time></trkpt><trkpt lat="38.1478133" lon="14.9760517"><ele>10.0</ele><time>2026-04-28T13:51:00.205Z</time></trkpt><trkpt lat="38.1476967" lon="14.9763117"><ele>10.0</ele><time>2026-04-28T13:51:01.205Z</time></trkpt><trkpt lat="38.1475883" lon="14.9765717"><ele>10.0</ele><time>2026-04-28T13:51:02.205Z</time></trkpt><trkpt lat="38.14749" lon="14.9768383"><ele>10.5</ele><time>2026-04-28T13:51:03.205Z</time></trkpt><trkpt lat="38.1474033" lon="14.9771183"><ele>11.0</ele><time>2026-04-28T13:51:04.206Z</time></trkpt><trkpt lat="38.1473317" lon="14.9773967"><ele>10.5</ele><time>2026-04-28T13:51:05.206Z</time></trkpt><trkpt lat="38.14726" lon="14.9776917"><ele>10.0</ele><time>2026-04-28T13:51:06.206Z</time></trkpt><trkpt lat="38.1471967" lon="14.9779867"><ele>10.0</ele><time>2026-04-28T13:51:07.205Z</time></trkpt><trkpt lat="38.1471283" lon="14.9782583"><ele>10.0</ele><time>2026-04-28T13:51:08.205Z</time></trkpt><trkpt lat="38.14707" lon="14.9785417"><ele>8.5</ele><time>2026-04-28T13:51:09.205Z</time></trkpt><trkpt lat="38.1470133" lon="14.978825"><ele>7.0</ele><time>2026-04-28T13:51:10.205Z</time></trkpt><trkpt lat="38.1469567" lon="14.9791033"><ele>7.0</ele><time>2026-04-28T13:51:11.205Z</time></trkpt><trkpt lat="38.1468983" lon="14.9793867"><ele>7.0</ele><time>2026-04-28T13:51:12.206Z</time></trkpt><trkpt lat="38.14684" lon="14.97967"><ele>7.0</ele><time>2026-04-28T13:51:13.205Z</time></trkpt><trkpt lat="38.1467867" lon="14.9799617"><ele>7.0</ele><time>2026-04-28T13:51:14.205Z</time></trkpt><trkpt lat="38.14673" lon="14.98025"><ele>5.5</ele><time>2026-04-28T13:51:15.205Z</time></trkpt><trkpt lat="38.1466717" lon="14.980525"><ele>4.0</ele><time>2026-04-28T13:51:16.205Z</time></trkpt><trkpt lat="38.1466133" lon="14.980805"><ele>4.0</ele><time>2026-04-28T13:51:17.205Z</time></trkpt><trkpt lat="38.1465567" lon="14.98109"><ele>4.0</ele><time>2026-04-28T13:51:18.205Z</time></trkpt><trkpt lat="38.1465017" lon="14.9813733"><ele>5.5</ele><time>2026-04-28T13:51:19.206Z</time></trkpt><trkpt lat="38.1464467" lon="14.9816683"><ele>7.0</ele><time>2026-04-28T13:51:20.205Z</time></trkpt><trkpt lat="38.1463867" lon="14.9819433"><ele>7.0</ele><time>2026-04-28T13:51:21.206Z</time></trkpt><trkpt lat="38.14633" lon="14.9822267"><ele>7.0</ele><time>2026-04-28T13:51:22.205Z</time></trkpt><trkpt lat="38.1462717" lon="14.9825033"><ele>6.0</ele><time>2026-04-28T13:51:23.205Z</time></trkpt><trkpt lat="38.1462117" lon="14.9827933"><ele>5.0</ele><time>2026-04-28T13:51:24.206Z</time></trkpt><trkpt lat="38.1461567" lon="14.9830783"><ele>5.0</ele><time>2026-04-28T13:51:25.205Z</time></trkpt><trkpt lat="38.1461" lon="14.98337"><ele>5.0</ele><time>2026-04-28T13:51:26.206Z</time></trkpt><trkpt lat="38.146045" lon="14.983655"><ele>5.0</ele><time>2026-04-28T13:51:27.205Z</time></trkpt><trkpt lat="38.1459867" lon="14.983935"><ele>5.0</ele><time>2026-04-28T13:51:28.206Z</time></trkpt><trkpt lat="38.1459333" lon="14.984215"><ele>5.5</ele><time>2026-04-28T13:51:29.205Z</time></trkpt><trkpt lat="38.1458767" lon="14.9844983"><ele>6.0</ele><time>2026-04-28T13:51:30.205Z</time></trkpt><trkpt lat="38.1458217" lon="14.984785"><ele>5.5</ele><time>2026-04-28T13:51:31.206Z</time></trkpt><trkpt lat="38.1457667" lon="14.985075"><ele>5.0</ele><time>2026-04-28T13:51:32.206Z</time></trkpt><trkpt lat="38.1457117" lon="14.9853633"><ele>5.0</ele><time>2026-04-28T13:51:33.205Z</time></trkpt><trkpt lat="38.1456533" lon="14.9856483"><ele>5.0</ele><time>2026-04-28T13:51:34.205Z</time></trkpt><trkpt lat="38.1455967" lon="14.9859267"><ele>5.0</ele><time>2026-04-28T13:51:35.206Z</time></trkpt><trkpt lat="38.1455433" lon="14.9862083"><ele>5.0</ele><time>2026-04-28T13:51:36.205Z</time></trkpt><trkpt lat="38.1454883" lon="14.98649"><ele>5.0</ele><time>2026-04-28T13:51:37.205Z</time></trkpt><trkpt lat="38.1454283" lon="14.9867733"><ele>5.0</ele><time>2026-04-28T13:51:38.205Z</time></trkpt><trkpt lat="38.1453683" lon="14.9870467"><ele>5.0</ele><time>2026-04-28T13:51:39.205Z</time></trkpt><trkpt lat="38.14531" lon="14.9873367"><ele>5.0</ele><time>2026-04-28T13:51:40.205Z</time></trkpt><trkpt lat="38.1452533" lon="14.98763"><ele>5.5</ele><time>2026-04-28T13:51:41.205Z</time></trkpt><trkpt lat="38.145195" lon="14.98791"><ele>6.0</ele><time>2026-04-28T13:51:42.205Z</time></trkpt><trkpt lat="38.145135" lon="14.9881917"><ele>6.0</ele><time>2026-04-28T13:51:43.205Z</time></trkpt><trkpt lat="38.145075" lon="14.9884817"><ele>6.0</ele><time>2026-04-28T13:51:44.206Z</time></trkpt><trkpt lat="38.1450117" lon="14.9887617"><ele>6.0</ele><time>2026-04-28T13:51:45.206Z</time></trkpt><trkpt lat="38.1449433" lon="14.9890417"><ele>6.0</ele><time>2026-04-28T13:51:46.205Z</time></trkpt><trkpt lat="38.144865" lon="14.9893133"><ele>6.0</ele><time>2026-04-28T13:51:47.205Z</time></trkpt><trkpt lat="38.1447767" lon="14.98958"><ele>6.0</ele><time>2026-04-28T13:51:48.205Z</time></trkpt><trkpt lat="38.144685" lon="14.989855"><ele>6.5</ele><time>2026-04-28T13:51:49.205Z</time></trkpt><trkpt lat="38.144585" lon="14.99012"><ele>7.0</ele><time>2026-04-28T13:51:50.205Z</time></trkpt><trkpt lat="38.1444833" lon="14.99038"><ele>7.0</ele><time>2026-04-28T13:51:51.205Z</time></trkpt><trkpt lat="38.14438" lon="14.990645"><ele>7.0</ele><time>2026-04-28T13:51:52.205Z</time></trkpt><trkpt lat="38.1442733" lon="14.9909067"><ele>8.0</ele><time>2026-04-28T13:51:53.205Z</time></trkpt><trkpt lat="38.144165" lon="14.991155"><ele>9.0</ele><time>2026-04-28T13:51:54.205Z</time></trkpt><trkpt lat="38.14406" lon="14.9914183"><ele>9.5</ele><time>2026-04-28T13:51:55.205Z</time></trkpt><trkpt lat="38.1439567" lon="14.9916833"><ele>10.0</ele><time>2026-04-28T13:51:56.205Z</time></trkpt><trkpt lat="38.14385" lon="14.9919383"><ele>10.0</ele><time>2026-04-28T13:51:57.205Z</time></trkpt><trkpt lat="38.1437467" lon="14.9921967"><ele>10.0</ele><time>2026-04-28T13:51:58.205Z</time></trkpt><trkpt lat="38.1436467" lon="14.9924683"><ele>11.0</ele><time>2026-04-28T13:51:59.205Z</time></trkpt><trkpt lat="38.143545" lon="14.9927267"><ele>12.0</ele><time>2026-04-28T13:52:00.205Z</time></trkpt><trkpt lat="38.1434517" lon="14.9929917"><ele>12.0</ele><time>2026-04-28T13:52:01.205Z</time></trkpt><trkpt lat="38.1433617" lon="14.9932733"><ele>12.0</ele><time>2026-04-28T13:52:02.205Z</time></trkpt><trkpt lat="38.143275" lon="14.9935417"><ele>13.0</ele><time>2026-04-28T13:52:03.205Z</time></trkpt><trkpt lat="38.1431967" lon="14.9938133"><ele>14.0</ele><time>2026-04-28T13:52:04.205Z</time></trkpt><trkpt lat="38.1431317" lon="14.9941033"><ele>14.0</ele><time>2026-04-28T13:52:05.205Z</time></trkpt><trkpt lat="38.1430683" lon="14.9943883"><ele>14.0</ele><time>2026-04-28T13:52:06.205Z</time></trkpt><trkpt lat="38.1430133" lon="14.994675"><ele>14.0</ele><time>2026-04-28T13:52:07.205Z</time></trkpt><trkpt lat="38.1429617" lon="14.994965"><ele>14.0</ele><time>2026-04-28T13:52:08.205Z</time></trkpt><trkpt lat="38.142925" lon="14.9952483"><ele>14.0</ele><time>2026-04-28T13:52:09.205Z</time></trkpt><trkpt lat="38.1428967" lon="14.99554"><ele>14.0</ele><time>2026-04-28T13:52:10.205Z</time></trkpt><trkpt lat="38.1428767" lon="14.9958367"><ele>14.0</ele><time>2026-04-28T13:52:11.205Z</time></trkpt><trkpt lat="38.14286" lon="14.99613"><ele>14.0</ele><time>2026-04-28T13:52:12.205Z</time></trkpt><trkpt lat="38.1428567" lon="14.9964333"><ele>13.5</ele><time>2026-04-28T13:52:13.205Z</time></trkpt><trkpt lat="38.1428567" lon="14.9967267"><ele>13.0</ele><time>2026-04-28T13:52:14.205Z</time></trkpt><trkpt lat="38.14286" lon="14.9970183"><ele>13.0</ele><time>2026-04-28T13:52:15.205Z</time></trkpt><trkpt lat="38.1428733" lon="14.997315"><ele>13.0</ele><time>2026-04-28T13:52:16.205Z</time></trkpt><trkpt lat="38.14289" lon="14.9976067"><ele>13.5</ele><time>2026-04-28T13:52:17.205Z</time></trkpt><trkpt lat="38.142915" lon="14.9978933"><ele>14.0</ele><time>2026-04-28T13:52:18.205Z</time></trkpt><trkpt lat="38.14295" lon="14.99818"><ele>12.5</ele><time>2026-04-28T13:52:19.205Z</time></trkpt><trkpt lat="38.142985" lon="14.9984767"><ele>11.0</ele><time>2026-04-28T13:52:20.205Z</time></trkpt><trkpt lat="38.14303" lon="14.9987617"><ele>11.0</ele><time>2026-04-28T13:52:21.206Z</time></trkpt><trkpt lat="38.14307" lon="14.9990467"><ele>11.0</ele><time>2026-04-28T13:52:22.206Z</time></trkpt><trkpt lat="38.1431133" lon="14.9993383"><ele>10.5</ele><time>2026-04-28T13:52:23.205Z</time></trkpt><trkpt lat="38.1431533" lon="14.9996267"><ele>10.0</ele><time>2026-04-28T13:52:24.205Z</time></trkpt><trkpt lat="38.1431967" lon="14.9999133"><ele>10.5</ele><time>2026-04-28T13:52:25.205Z</time></trkpt><trkpt lat="38.1432417" lon="15.000205"><ele>11.0</ele><time>2026-04-28T13:52:26.205Z</time></trkpt><trkpt lat="38.14329" lon="15.0004983"><ele>11.0</ele><time>2026-04-28T13:52:27.205Z</time></trkpt><trkpt lat="38.1433333" lon="15.0007817"><ele>11.0</ele><time>2026-04-28T13:52:28.205Z</time></trkpt><trkpt lat="38.1433783" lon="15.00107"><ele>10.5</ele><time>2026-04-28T13:52:29.205Z</time></trkpt><trkpt lat="38.1434217" lon="15.0013683"><ele>10.0</ele><time>2026-04-28T13:52:30.205Z</time></trkpt><trkpt lat="38.143455" lon="15.001655"><ele>10.5</ele><time>2026-04-28T13:52:31.205Z</time></trkpt><trkpt lat="38.1434917" lon="15.0019417"><ele>11.0</ele><time>2026-04-28T13:52:32.205Z</time></trkpt><trkpt lat="38.1435333" lon="15.002235"><ele>10.0</ele><time>2026-04-28T13:52:33.205Z</time></trkpt><trkpt lat="38.1435717" lon="15.0025283"><ele>9.0</ele><time>2026-04-28T13:52:34.205Z</time></trkpt><trkpt lat="38.14361" lon="15.0028117"><ele>9.0</ele><time>2026-04-28T13:52:35.205Z</time></trkpt><trkpt lat="38.1436483" lon="15.0031"><ele>9.0</ele><time>2026-04-28T13:52:36.205Z</time></trkpt><trkpt lat="38.1436917" lon="15.00339"><ele>10.0</ele><time>2026-04-28T13:52:37.205Z</time></trkpt><trkpt lat="38.14373" lon="15.0036783"><ele>11.0</ele><time>2026-04-28T13:52:38.205Z</time></trkpt><trkpt lat="38.1437717" lon="15.0039667"><ele>10.5</ele><time>2026-04-28T13:52:39.205Z</time></trkpt><trkpt lat="38.14381" lon="15.0042583"><ele>10.0</ele><time>2026-04-28T13:52:40.205Z</time></trkpt><trkpt lat="38.1438483" lon="15.0045467"><ele>10.0</ele><time>2026-04-28T13:52:41.206Z</time></trkpt><trkpt lat="38.14389" lon="15.0048367"><ele>10.0</ele><time>2026-04-28T13:52:42.205Z</time></trkpt><trkpt lat="38.14393" lon="15.005125"><ele>10.0</ele><time>2026-04-28T13:52:43.205Z</time></trkpt><trkpt lat="38.14397" lon="15.0054133"><ele>10.0</ele><time>2026-04-28T13:52:44.205Z</time></trkpt><trkpt lat="38.1440183" lon="15.0057067"><ele>8.5</ele><time>2026-04-28T13:52:45.205Z</time></trkpt><trkpt lat="38.14407" lon="15.0059917"><ele>7.0</ele><time>2026-04-28T13:52:46.205Z</time></trkpt><trkpt lat="38.14412" lon="15.0062783"><ele>7.0</ele><time>2026-04-28T13:52:47.206Z</time></trkpt><trkpt lat="38.1441767" lon="15.0065633"><ele>7.0</ele><time>2026-04-28T13:52:48.205Z</time></trkpt><trkpt lat="38.1442333" lon="15.00685"><ele>8.0</ele><time>2026-04-28T13:52:49.205Z</time></trkpt><trkpt lat="38.1442967" lon="15.0071283"><ele>9.0</ele><time>2026-04-28T13:52:50.205Z</time></trkpt><trkpt lat="38.1443617" lon="15.0074083"><ele>8.0</ele><time>2026-04-28T13:52:51.206Z</time></trkpt><trkpt lat="38.1444267" lon="15.0076933"><ele>7.0</ele><time>2026-04-28T13:52:52.205Z</time></trkpt><trkpt lat="38.1444917" lon="15.0079783"><ele>7.0</ele><time>2026-04-28T13:52:53.205Z</time></trkpt><trkpt lat="38.1445567" lon="15.0082617"><ele>7.0</ele><time>2026-04-28T13:52:54.205Z</time></trkpt><trkpt lat="38.1446267" lon="15.008545"><ele>7.0</ele><time>2026-04-28T13:52:55.205Z</time></trkpt><trkpt lat="38.144695" lon="15.0088317"><ele>7.0</ele><time>2026-04-28T13:52:56.206Z</time></trkpt><trkpt lat="38.144765" lon="15.0091117"><ele>7.5</ele><time>2026-04-28T13:52:57.205Z</time></trkpt><trkpt lat="38.14483" lon="15.0093933"><ele>8.0</ele><time>2026-04-28T13:52:58.205Z</time></trkpt><trkpt lat="38.1448933" lon="15.0096717"><ele>7.5</ele><time>2026-04-28T13:52:59.205Z</time></trkpt><trkpt lat="38.1449567" lon="15.0099533"><ele>7.0</ele><time>2026-04-28T13:53:00.205Z</time></trkpt><trkpt lat="38.14502" lon="15.0102317"><ele>7.0</ele><time>2026-04-28T13:53:01.205Z</time></trkpt><trkpt lat="38.1450867" lon="15.0105133"><ele>7.0</ele><time>2026-04-28T13:53:02.206Z</time></trkpt><trkpt lat="38.14515" lon="15.0107933"><ele>8.0</ele><time>2026-04-28T13:53:03.205Z</time></trkpt><trkpt lat="38.1452167" lon="15.0110733"><ele>9.0</ele><time>2026-04-28T13:53:04.205Z</time></trkpt><trkpt lat="38.1452833" lon="15.011345"><ele>9.0</ele><time>2026-04-28T13:53:05.205Z</time></trkpt><trkpt lat="38.1453467" lon="15.0116233"><ele>9.0</ele><time>2026-04-28T13:53:06.205Z</time></trkpt><trkpt lat="38.1454117" lon="15.0119017"><ele>11.0</ele><time>2026-04-28T13:53:07.205Z</time></trkpt><trkpt lat="38.14548" lon="15.0121833"><ele>13.0</ele><time>2026-04-28T13:53:08.205Z</time></trkpt><trkpt lat="38.1455483" lon="15.012465"><ele>15.0</ele><time>2026-04-28T13:53:09.205Z</time></trkpt><trkpt lat="38.1456117" lon="15.0127467"><ele>17.0</ele><time>2026-04-28T13:53:10.205Z</time></trkpt><trkpt lat="38.1456783" lon="15.0130283"><ele>14.0</ele><time>2026-04-28T13:53:11.205Z</time></trkpt><trkpt lat="38.1457483" lon="15.0133117"><ele>11.0</ele><time>2026-04-28T13:53:12.205Z</time></trkpt><trkpt lat="38.145815" lon="15.0135867"><ele>11.0</ele><time>2026-04-28T13:53:13.205Z</time></trkpt><trkpt lat="38.14588" lon="15.0138683"><ele>11.0</ele><time>2026-04-28T13:53:14.205Z</time></trkpt><trkpt lat="38.1459483" lon="15.01415"><ele>11.5</ele><time>2026-04-28T13:53:15.205Z</time></trkpt><trkpt lat="38.1460167" lon="15.0144233"><ele>12.0</ele><time>2026-04-28T13:53:16.205Z</time></trkpt><trkpt lat="38.14609" lon="15.014705"><ele>12.0</ele><time>2026-04-28T13:53:17.205Z</time></trkpt><trkpt lat="38.1461667" lon="15.0149833"><ele>12.0</ele><time>2026-04-28T13:53:18.205Z</time></trkpt><trkpt lat="38.1462467" lon="15.01527"><ele>12.5</ele><time>2026-04-28T13:53:19.205Z</time></trkpt><trkpt lat="38.1463283" lon="15.0155433"><ele>13.0</ele><time>2026-04-28T13:53:20.205Z</time></trkpt><trkpt lat="38.14641" lon="15.0158217"><ele>13.0</ele><time>2026-04-28T13:53:21.205Z</time></trkpt><trkpt lat="38.1464917" lon="15.0161"><ele>13.0</ele><time>2026-04-28T13:53:22.205Z</time></trkpt><trkpt lat="38.14657" lon="15.0163733"><ele>12.5</ele><time>2026-04-28T13:53:23.205Z</time></trkpt><trkpt lat="38.1466517" lon="15.0166467"><ele>12.0</ele><time>2026-04-28T13:53:24.205Z</time></trkpt><trkpt lat="38.1467283" lon="15.016925"><ele>12.0</ele><time>2026-04-28T13:53:25.205Z</time></trkpt><trkpt lat="38.14681" lon="15.0172083"><ele>12.0</ele><time>2026-04-28T13:53:26.205Z</time></trkpt><trkpt lat="38.1468867" lon="15.0174817"><ele>12.0</ele><time>2026-04-28T13:53:27.205Z</time></trkpt><trkpt lat="38.1469633" lon="15.0177583"><ele>12.0</ele><time>2026-04-28T13:53:28.205Z</time></trkpt><trkpt lat="38.1470467" lon="15.0180317"><ele>12.0</ele><time>2026-04-28T13:53:29.205Z</time></trkpt><trkpt lat="38.1471283" lon="15.0183067"><ele>12.0</ele><time>2026-04-28T13:53:30.205Z</time></trkpt><trkpt lat="38.1472133" lon="15.018585"><ele>12.5</ele><time>2026-04-28T13:53:31.205Z</time></trkpt><trkpt lat="38.1472917" lon="15.018855"><ele>13.0</ele><time>2026-04-28T13:53:32.205Z</time></trkpt><trkpt lat="38.147375" lon="15.01913"><ele>12.0</ele><time>2026-04-28T13:53:33.205Z</time></trkpt><trkpt lat="38.1474517" lon="15.0194033"><ele>11.0</ele><time>2026-04-28T13:53:34.205Z</time></trkpt><trkpt lat="38.1475317" lon="15.019685"><ele>11.0</ele><time>2026-04-28T13:53:35.205Z</time></trkpt><trkpt lat="38.14761" lon="15.0199583"><ele>11.0</ele><time>2026-04-28T13:53:36.206Z</time></trkpt><trkpt lat="38.1476883" lon="15.0202367"><ele>12.0</ele><time>2026-04-28T13:53:37.205Z</time></trkpt><trkpt lat="38.1477683" lon="15.0205183"><ele>13.0</ele><time>2026-04-28T13:53:38.205Z</time></trkpt><trkpt lat="38.1478483" lon="15.02079"><ele>13.5</ele><time>2026-04-28T13:53:39.205Z</time></trkpt><trkpt lat="38.1479283" lon="15.02107"><ele>14.0</ele><time>2026-04-28T13:53:40.206Z</time></trkpt><trkpt lat="38.1480017" lon="15.021345"><ele>14.0</ele><time>2026-04-28T13:53:41.205Z</time></trkpt><trkpt lat="38.1480767" lon="15.02163"><ele>14.0</ele><time>2026-04-28T13:53:42.205Z</time></trkpt><trkpt lat="38.1481433" lon="15.021905"><ele>14.0</ele><time>2026-04-28T13:53:43.205Z</time></trkpt><trkpt lat="38.1482067" lon="15.022195"><ele>14.0</ele><time>2026-04-28T13:53:44.205Z</time></trkpt><trkpt lat="38.1482683" lon="15.022475"><ele>14.5</ele><time>2026-04-28T13:53:45.205Z</time></trkpt><trkpt lat="38.14833" lon="15.02276"><ele>15.0</ele><time>2026-04-28T13:53:46.205Z</time></trkpt><trkpt lat="38.1483883" lon="15.0230433"><ele>25.0</ele><time>2026-04-28T13:53:47.205Z</time></trkpt><trkpt lat="38.1484383" lon="15.023325"><ele>35.0</ele><time>2026-04-28T13:53:48.205Z</time></trkpt><trkpt lat="38.1484867" lon="15.0236067"><ele>35.0</ele><time>2026-04-28T13:53:49.206Z</time></trkpt><trkpt lat="38.148535" lon="15.023875"><ele>35.0</ele><time>2026-04-28T13:53:50.205Z</time></trkpt><trkpt lat="38.148585" lon="15.0241433"><ele>35.0</ele><time>2026-04-28T13:53:51.205Z</time></trkpt><trkpt lat="38.1486383" lon="15.0244083"><ele>14.0</ele><time>2026-04-28T13:53:52.206Z</time></trkpt><trkpt lat="38.1478759" lon="15.0215058"><ele>28.0</ele><time>2026-04-28T13:54:04.352Z</time></trkpt><trkpt lat="38.1474883" lon="15.0300717"><ele>50.5</ele><time>2026-04-28T13:54:12.206Z</time></trkpt><trkpt lat="38.14736" lon="15.03031"><ele>73.0</ele><time>2026-04-28T13:54:13.205Z</time></trkpt><trkpt lat="38.1472333" lon="15.0305683"><ele>58.5</ele><time>2026-04-28T13:54:14.205Z</time></trkpt><trkpt lat="38.1471067" lon="15.03082"><ele>44.0</ele><time>2026-04-28T13:54:15.205Z</time></trkpt><trkpt lat="38.14698" lon="15.0310683"><ele>44.0</ele><time>2026-04-28T13:54:16.205Z</time></trkpt><trkpt lat="38.1468583" lon="15.0313233"><ele>44.0</ele><time>2026-04-28T13:54:17.205Z</time></trkpt><trkpt lat="38.146735" lon="15.0315817"><ele>46.5</ele><time>2026-04-28T13:54:18.205Z</time></trkpt><trkpt lat="38.1466217" lon="15.0318367"><ele>49.0</ele><time>2026-04-28T13:54:19.205Z</time></trkpt><trkpt lat="38.1465067" lon="15.0320917"><ele>49.0</ele><time>2026-04-28T13:54:20.206Z</time></trkpt><trkpt lat="38.146395" lon="15.0323567"><ele>49.0</ele><time>2026-04-28T13:54:21.205Z</time></trkpt><trkpt lat="38.146285" lon="15.0326167"><ele>37.0</ele><time>2026-04-28T13:54:22.205Z</time></trkpt><trkpt lat="38.1461733" lon="15.032865"><ele>25.0</ele><time>2026-04-28T13:54:23.205Z</time></trkpt><trkpt lat="38.14607" lon="15.0331267"><ele>26.5</ele><time>2026-04-28T13:54:24.205Z</time></trkpt><trkpt lat="38.1459683" lon="15.0333967"><ele>28.0</ele><time>2026-04-28T13:54:25.206Z</time></trkpt><trkpt lat="38.1458717" lon="15.033665"><ele>28.0</ele><time>2026-04-28T13:54:26.206Z</time></trkpt><trkpt lat="38.14577" lon="15.03393"><ele>28.0</ele><time>2026-04-28T13:54:27.205Z</time></trkpt><trkpt lat="38.14567" lon="15.0341933"><ele>42.5</ele><time>2026-04-28T13:54:28.205Z</time></trkpt><trkpt lat="38.1455733" lon="15.03447"><ele>57.0</ele><time>2026-04-28T13:54:29.205Z</time></trkpt><trkpt lat="38.1454883" lon="15.03475"><ele>55.0</ele><time>2026-04-28T13:54:30.205Z</time></trkpt><trkpt lat="38.145385" lon="15.0350067"><ele>53.0</ele><time>2026-04-28T13:54:31.205Z</time></trkpt><trkpt lat="38.1452883" lon="15.035285"><ele>53.0</ele><time>2026-04-28T13:54:32.205Z</time></trkpt><trkpt lat="38.145195" lon="15.0355533"><ele>53.0</ele><time>2026-04-28T13:54:33.206Z</time></trkpt><trkpt lat="38.1451017" lon="15.03582"><ele>57.5</ele><time>2026-04-28T13:54:34.205Z</time></trkpt><trkpt lat="38.14501" lon="15.036085"><ele>62.0</ele><time>2026-04-28T13:54:35.205Z</time></trkpt><trkpt lat="38.1325733" lon="15.0519017"><ele>35.0</ele><time>2026-04-28T13:55:37.206Z</time></trkpt><trkpt lat="38.13227" lon="15.0520283"><ele>8.0</ele><time>2026-04-28T13:55:38.205Z</time></trkpt><trkpt lat="38.131995" lon="15.0521083"><ele>8.0</ele><time>2026-04-28T13:55:39.205Z</time></trkpt><trkpt lat="38.1317367" lon="15.0521767"><ele>8.0</ele><time>2026-04-28T13:55:40.205Z</time></trkpt><trkpt lat="38.1314767" lon="15.052245"><ele>7.0</ele><time>2026-04-28T13:55:41.205Z</time></trkpt><trkpt lat="38.1312133" lon="15.05231"><ele>6.0</ele><time>2026-04-28T13:55:42.205Z</time></trkpt><trkpt lat="38.1309483" lon="15.0523717"><ele>6.0</ele><time>2026-04-28T13:55:43.205Z</time></trkpt><trkpt lat="38.13068" lon="15.052435"><ele>6.0</ele><time>2026-04-28T13:55:44.205Z</time></trkpt><trkpt lat="38.1304217" lon="15.0525"><ele>6.0</ele><time>2026-04-28T13:55:45.205Z</time></trkpt><trkpt lat="38.1301617" lon="15.052555"><ele>6.0</ele><time>2026-04-28T13:55:46.205Z</time></trkpt><trkpt lat="38.1299033" lon="15.0526167"><ele>6.5</ele><time>2026-04-28T13:55:47.205Z</time></trkpt><trkpt lat="38.1296433" lon="15.0526833"><ele>7.0</ele><time>2026-04-28T13:55:48.206Z</time></trkpt><trkpt lat="38.129385" lon="15.0527467"><ele>7.0</ele><time>2026-04-28T13:55:49.205Z</time></trkpt><trkpt lat="38.1291283" lon="15.0528067"><ele>7.0</ele><time>2026-04-28T13:55:50.205Z</time></trkpt><trkpt lat="38.1288717" lon="15.0528683"><ele>8.5</ele><time>2026-04-28T13:55:51.205Z</time></trkpt><trkpt lat="38.1286117" lon="15.0529283"><ele>10.0</ele><time>2026-04-28T13:55:52.205Z</time></trkpt><trkpt lat="38.128355" lon="15.0529883"><ele>10.5</ele><time>2026-04-28T13:55:53.205Z</time></trkpt><trkpt lat="38.128095" lon="15.0530567"><ele>11.0</ele><time>2026-04-28T13:55:54.205Z</time></trkpt><trkpt lat="38.1278383" lon="15.0531167"><ele>11.0</ele><time>2026-04-28T13:55:55.205Z</time></trkpt><trkpt lat="38.12758" lon="15.0531767"><ele>11.0</ele><time>2026-04-28T13:55:56.205Z</time></trkpt><trkpt lat="38.12732" lon="15.0532383"><ele>11.5</ele><time>2026-04-28T13:55:57.206Z</time></trkpt><trkpt lat="38.12706" lon="15.053295"><ele>12.0</ele><time>2026-04-28T13:55:58.205Z</time></trkpt><trkpt lat="38.1268033" lon="15.0533517"><ele>11.0</ele><time>2026-04-28T13:55:59.205Z</time></trkpt><trkpt lat="38.1265467" lon="15.0534083"><ele>10.0</ele><time>2026-04-28T13:56:00.205Z</time></trkpt><trkpt lat="38.1262867" lon="15.053465"><ele>10.0</ele><time>2026-04-28T13:56:01.205Z</time></trkpt><trkpt lat="38.1260267" lon="15.053525"><ele>10.0</ele><time>2026-04-28T13:56:02.206Z</time></trkpt><trkpt lat="38.1257717" lon="15.0535867"><ele>11.5</ele><time>2026-04-28T13:56:03.205Z</time></trkpt><trkpt lat="38.1255117" lon="15.0536467"><ele>13.0</ele><time>2026-04-28T13:56:04.205Z</time></trkpt><trkpt lat="38.125255" lon="15.0537067"><ele>13.0</ele><time>2026-04-28T13:56:05.205Z</time></trkpt><trkpt lat="38.125" lon="15.0537633"><ele>13.0</ele><time>2026-04-28T13:56:06.205Z</time></trkpt><trkpt lat="38.1247433" lon="15.0538217"><ele>21.0</ele><time>2026-04-28T13:56:07.205Z</time></trkpt><trkpt lat="38.12449" lon="15.0538917"><ele>29.0</ele><time>2026-04-28T13:56:08.205Z</time></trkpt><trkpt lat="38.1242417" lon="15.0539717"><ele>38.5</ele><time>2026-04-28T13:56:09.206Z</time></trkpt><trkpt lat="38.1239933" lon="15.05406"><ele>48.0</ele><time>2026-04-28T13:56:10.205Z</time></trkpt><trkpt lat="38.1237467" lon="15.05416"><ele>48.0</ele><time>2026-04-28T13:56:11.205Z</time></trkpt><trkpt lat="38.1235033" lon="15.0542667"><ele>48.0</ele><time>2026-04-28T13:56:12.205Z</time></trkpt><trkpt lat="38.123255" lon="15.0543683"><ele>44.5</ele><time>2026-04-28T13:56:13.205Z</time></trkpt><trkpt lat="38.1230067" lon="15.05447"><ele>41.0</ele><time>2026-04-28T13:56:14.205Z</time></trkpt><trkpt lat="38.1227583" lon="15.0545733"><ele>41.0</ele><time>2026-04-28T13:56:15.205Z</time></trkpt><trkpt lat="38.1225083" lon="15.0547017"><ele>41.0</ele><time>2026-04-28T13:56:16.205Z</time></trkpt><trkpt lat="38.1222883" lon="15.054975"><ele>32.0</ele><time>2026-04-28T13:56:17.205Z</time></trkpt><trkpt lat="38.1220633" lon="15.0551833"><ele>23.0</ele><time>2026-04-28T13:56:18.205Z</time></trkpt><trkpt lat="38.12185" lon="15.05538"><ele>23.0</ele><time>2026-04-28T13:56:19.205Z</time></trkpt><trkpt lat="38.1216317" lon="15.05559"><ele>23.0</ele><time>2026-04-28T13:56:20.205Z</time></trkpt><trkpt lat="38.121415" lon="15.0557833"><ele>23.0</ele><time>2026-04-28T13:56:21.205Z</time></trkpt><trkpt lat="38.1212017" lon="15.0559767"><ele>23.0</ele><time>2026-04-28T13:56:22.205Z</time></trkpt><trkpt lat="38.1209783" lon="15.0561867"><ele>23.0</ele><time>2026-04-28T13:56:23.205Z</time></trkpt><trkpt lat="38.1207767" lon="15.0564683"><ele>23.0</ele><time>2026-04-28T13:56:24.206Z</time></trkpt><trkpt lat="38.120605" lon="15.0567383"><ele>20.0</ele><time>2026-04-28T13:56:25.205Z</time></trkpt><trkpt lat="38.1204383" lon="15.057015"><ele>17.0</ele><time>2026-04-28T13:56:26.205Z</time></trkpt><trkpt lat="38.1202717" lon="15.0572917"><ele>14.5</ele><time>2026-04-28T13:56:27.205Z</time></trkpt><trkpt lat="38.12011" lon="15.0575733"><ele>12.0</ele><time>2026-04-28T13:56:28.205Z</time></trkpt><trkpt lat="38.11994" lon="15.0578433"><ele>12.5</ele><time>2026-04-28T13:56:29.205Z</time></trkpt><trkpt lat="38.11977" lon="15.058115"><ele>13.0</ele><time>2026-04-28T13:56:30.205Z</time></trkpt><trkpt lat="38.1196" lon="15.058385"><ele>13.0</ele><time>2026-04-28T13:56:31.206Z</time></trkpt><trkpt lat="38.11943" lon="15.0586533"><ele>13.0</ele><time>2026-04-28T13:56:32.205Z</time></trkpt><trkpt lat="38.1192583" lon="15.0589233"><ele>13.5</ele><time>2026-04-28T13:56:33.205Z</time></trkpt><trkpt lat="38.119085" lon="15.0591917"><ele>14.0</ele><time>2026-04-28T13:56:34.205Z</time></trkpt><trkpt lat="38.1189117" lon="15.0594617"><ele>14.0</ele><time>2026-04-28T13:56:35.205Z</time></trkpt><trkpt lat="38.1187367" lon="15.0597333"><ele>14.0</ele><time>2026-04-28T13:56:36.206Z</time></trkpt><trkpt lat="38.118565" lon="15.0600033"><ele>14.0</ele><time>2026-04-28T13:56:37.205Z</time></trkpt><trkpt lat="38.118395" lon="15.060275"><ele>14.0</ele><time>2026-04-28T13:56:38.205Z</time></trkpt><trkpt lat="38.11822" lon="15.0605417"><ele>14.5</ele><time>2026-04-28T13:56:39.205Z</time></trkpt><trkpt lat="38.1180467" lon="15.06081"><ele>15.0</ele><time>2026-04-28T13:56:40.205Z</time></trkpt><trkpt lat="38.1178717" lon="15.0610767"><ele>15.0</ele><time>2026-04-28T13:56:41.205Z</time></trkpt><trkpt lat="38.1177" lon="15.0613417"><ele>15.0</ele><time>2026-04-28T13:56:42.206Z</time></trkpt><trkpt lat="38.1175283" lon="15.061615"><ele>15.0</ele><time>2026-04-28T13:56:43.205Z</time></trkpt><trkpt lat="38.1173567" lon="15.0618833"><ele>15.0</ele><time>2026-04-28T13:56:44.206Z</time></trkpt><trkpt lat="38.1171883" lon="15.0621483"><ele>15.0</ele><time>2026-04-28T13:56:45.205Z</time></trkpt><trkpt lat="38.1170217" lon="15.06241"><ele>15.0</ele><time>2026-04-28T13:56:46.205Z</time></trkpt><trkpt lat="38.1168533" lon="15.062675"><ele>14.5</ele><time>2026-04-28T13:56:47.205Z</time></trkpt><trkpt lat="38.1166867" lon="15.0629333"><ele>14.0</ele><time>2026-04-28T13:56:48.205Z</time></trkpt><trkpt lat="38.1165183" lon="15.0631883"><ele>17.0</ele><time>2026-04-28T13:56:49.205Z</time></trkpt><trkpt lat="38.11635" lon="15.0634417"><ele>20.0</ele><time>2026-04-28T13:56:50.205Z</time></trkpt><trkpt lat="38.11618" lon="15.063695"><ele>20.0</ele><time>2026-04-28T13:56:51.205Z</time></trkpt><trkpt lat="38.1160133" lon="15.06395"><ele>20.0</ele><time>2026-04-28T13:56:52.206Z</time></trkpt><trkpt lat="38.1158483" lon="15.0642033"><ele>23.0</ele><time>2026-04-28T13:56:53.205Z</time></trkpt><trkpt lat="38.1156917" lon="15.0644567"><ele>26.0</ele><time>2026-04-28T13:56:54.205Z</time></trkpt><trkpt lat="38.1155333" lon="15.0647083"><ele>23.5</ele><time>2026-04-28T13:56:55.205Z</time></trkpt><trkpt lat="38.1153783" lon="15.06496"><ele>21.0</ele><time>2026-04-28T13:56:56.205Z</time></trkpt><trkpt lat="38.115215" lon="15.0652083"><ele>21.0</ele><time>2026-04-28T13:56:57.206Z</time></trkpt><trkpt lat="38.1150533" lon="15.0654567"><ele>21.0</ele><time>2026-04-28T13:56:58.205Z</time></trkpt><trkpt lat="38.1148967" lon="15.0657133"><ele>20.0</ele><time>2026-04-28T13:56:59.205Z</time></trkpt><trkpt lat="38.1147533" lon="15.0659667"><ele>19.0</ele><time>2026-04-28T13:57:00.205Z</time></trkpt><trkpt lat="38.1146017" lon="15.0662217"><ele>19.0</ele><time>2026-04-28T13:57:01.206Z</time></trkpt><trkpt lat="38.1144667" lon="15.0664783"><ele>19.0</ele><time>2026-04-28T13:57:02.206Z</time></trkpt><trkpt lat="38.1143317" lon="15.0667367"><ele>19.0</ele><time>2026-04-28T13:57:03.205Z</time></trkpt><trkpt lat="38.1142067" lon="15.0670133"><ele>19.0</ele><time>2026-04-28T13:57:04.206Z</time></trkpt><trkpt lat="38.1140917" lon="15.067285"><ele>18.5</ele><time>2026-04-28T13:57:05.205Z</time></trkpt><trkpt lat="38.113975" lon="15.06756"><ele>18.0</ele><time>2026-04-28T13:57:06.205Z</time></trkpt><trkpt lat="38.1138683" lon="15.0678417"><ele>18.0</ele><time>2026-04-28T13:57:07.205Z</time></trkpt><trkpt lat="38.1137667" lon="15.0681233"><ele>18.0</ele><time>2026-04-28T13:57:08.205Z</time></trkpt><trkpt lat="38.1136683" lon="15.06841"><ele>18.0</ele><time>2026-04-28T13:57:09.205Z</time></trkpt><trkpt lat="38.113575" lon="15.06871"><ele>18.0</ele><time>2026-04-28T13:57:10.206Z</time></trkpt><trkpt lat="38.113485" lon="15.0690033"><ele>17.0</ele><time>2026-04-28T13:57:11.205Z</time></trkpt><trkpt lat="38.1134033" lon="15.0693"><ele>16.0</ele><time>2026-04-28T13:57:12.206Z</time></trkpt><trkpt lat="38.1133283" lon="15.0696033"><ele>16.0</ele><time>2026-04-28T13:57:13.205Z</time></trkpt><trkpt lat="38.1132583" lon="15.0699067"><ele>16.0</ele><time>2026-04-28T13:57:14.205Z</time></trkpt><trkpt lat="38.1131983" lon="15.0702233"><ele>17.5</ele><time>2026-04-28T13:57:15.205Z</time></trkpt><trkpt lat="38.1131367" lon="15.0705333"><ele>19.0</ele><time>2026-04-28T13:57:16.205Z</time></trkpt><trkpt lat="38.1130867" lon="15.0708633"><ele>19.0</ele><time>2026-04-28T13:57:17.205Z</time></trkpt><trkpt lat="38.1130467" lon="15.0711867"><ele>19.0</ele><time>2026-04-28T13:57:18.205Z</time></trkpt><trkpt lat="38.1130133" lon="15.0715267"><ele>17.0</ele><time>2026-04-28T13:57:19.205Z</time></trkpt><trkpt lat="38.11299" lon="15.0718633"><ele>15.0</ele><time>2026-04-28T13:57:20.205Z</time></trkpt><trkpt lat="38.1129767" lon="15.0721967"><ele>15.5</ele><time>2026-04-28T13:57:21.205Z</time></trkpt><trkpt lat="38.1129667" lon="15.0725367"><ele>16.0</ele><time>2026-04-28T13:57:22.206Z</time></trkpt><trkpt lat="38.1129633" lon="15.07286"><ele>16.0</ele><time>2026-04-28T13:57:23.206Z</time></trkpt><trkpt lat="38.1129667" lon="15.073195"><ele>16.0</ele><time>2026-04-28T13:57:24.205Z</time></trkpt><trkpt lat="38.11298" lon="15.07354"><ele>15.0</ele><time>2026-04-28T13:57:25.205Z</time></trkpt><trkpt lat="38.113005" lon="15.073885"><ele>14.0</ele><time>2026-04-28T13:57:26.205Z</time></trkpt><trkpt lat="38.11304" lon="15.0742167"><ele>12.5</ele><time>2026-04-28T13:57:27.205Z</time></trkpt><trkpt lat="38.11308" lon="15.0745533"><ele>11.0</ele><time>2026-04-28T13:57:28.206Z</time></trkpt><trkpt lat="38.11312" lon="15.0748867"><ele>12.5</ele><time>2026-04-28T13:57:29.206Z</time></trkpt><trkpt lat="38.1131633" lon="15.075225"><ele>14.0</ele><time>2026-04-28T13:57:30.205Z</time></trkpt><trkpt lat="38.113205" lon="15.07556"><ele>11.5</ele><time>2026-04-28T13:57:31.205Z</time></trkpt><trkpt lat="38.1132467" lon="15.075905"><ele>9.0</ele><time>2026-04-28T13:57:32.205Z</time></trkpt><trkpt lat="38.1132867" lon="15.076245"><ele>9.0</ele><time>2026-04-28T13:57:33.206Z</time></trkpt><trkpt lat="38.11333" lon="15.0765833"><ele>9.0</ele><time>2026-04-28T13:57:34.205Z</time></trkpt><trkpt lat="38.11337" lon="15.0769267"><ele>8.5</ele><time>2026-04-28T13:57:35.205Z</time></trkpt><trkpt lat="38.1134117" lon="15.0772667"><ele>8.0</ele><time>2026-04-28T13:57:36.205Z</time></trkpt><trkpt lat="38.1134533" lon="15.0776067"><ele>9.0</ele><time>2026-04-28T13:57:37.205Z</time></trkpt><trkpt lat="38.113495" lon="15.077945"><ele>10.0</ele><time>2026-04-28T13:57:38.205Z</time></trkpt><trkpt lat="38.1135367" lon="15.0782933"><ele>12.5</ele><time>2026-04-28T13:57:39.205Z</time></trkpt><trkpt lat="38.113575" lon="15.0786333"><ele>15.0</ele><time>2026-04-28T13:57:40.205Z</time></trkpt><trkpt lat="38.1136167" lon="15.07897"><ele>17.0</ele><time>2026-04-28T13:57:41.205Z</time></trkpt><trkpt lat="38.1136583" lon="15.079315"><ele>19.0</ele><time>2026-04-28T13:57:42.205Z</time></trkpt><trkpt lat="38.1136967" lon="15.0796517"><ele>20.5</ele><time>2026-04-28T13:57:43.205Z</time></trkpt><trkpt lat="38.1137333" lon="15.07999"><ele>22.0</ele><time>2026-04-28T13:57:44.206Z</time></trkpt><trkpt lat="38.1137683" lon="15.08033"><ele>22.0</ele><time>2026-04-28T13:57:45.205Z</time></trkpt><trkpt lat="38.1138033" lon="15.0806717"><ele>22.0</ele><time>2026-04-28T13:57:46.205Z</time></trkpt><trkpt lat="38.1138283" lon="15.0810167"><ele>22.5</ele><time>2026-04-28T13:57:47.206Z</time></trkpt><trkpt lat="38.113855" lon="15.08136"><ele>23.0</ele><time>2026-04-28T13:57:48.205Z</time></trkpt><trkpt lat="38.1138683" lon="15.0817017"><ele>22.0</ele><time>2026-04-28T13:57:49.206Z</time></trkpt><trkpt lat="38.11388" lon="15.0820433"><ele>21.0</ele><time>2026-04-28T13:57:50.205Z</time></trkpt><trkpt lat="38.1138883" lon="15.08239"><ele>20.5</ele><time>2026-04-28T13:57:51.205Z</time></trkpt><trkpt lat="38.11389" lon="15.08273"><ele>20.0</ele><time>2026-04-28T13:57:52.205Z</time></trkpt><trkpt lat="38.11389" lon="15.0830717"><ele>18.0</ele><time>2026-04-28T13:57:53.205Z</time></trkpt><trkpt lat="38.1138883" lon="15.0834167"><ele>16.0</ele><time>2026-04-28T13:57:54.205Z</time></trkpt><trkpt lat="38.1138833" lon="15.0837567"><ele>15.0</ele><time>2026-04-28T13:57:55.206Z</time></trkpt><trkpt lat="38.1138733" lon="15.0841033"><ele>14.0</ele><time>2026-04-28T13:57:56.206Z</time></trkpt><trkpt lat="38.1138533" lon="15.084445"><ele>14.0</ele><time>2026-04-28T13:57:57.205Z</time></trkpt><trkpt lat="38.1138367" lon="15.0847883"><ele>14.0</ele><time>2026-04-28T13:57:58.205Z</time></trkpt><trkpt lat="38.11382" lon="15.0851333"><ele>14.0</ele><time>2026-04-28T13:57:59.206Z</time></trkpt><trkpt lat="38.1137967" lon="15.0854817"><ele>14.0</ele><time>2026-04-28T13:58:00.205Z</time></trkpt><trkpt lat="38.11378" lon="15.0858267"><ele>14.0</ele><time>2026-04-28T13:58:01.206Z</time></trkpt><trkpt lat="38.11376" lon="15.0861733"><ele>14.0</ele><time>2026-04-28T13:58:02.205Z</time></trkpt><trkpt lat="38.1137383" lon="15.0865217"><ele>14.0</ele><time>2026-04-28T13:58:03.205Z</time></trkpt><trkpt lat="38.1137183" lon="15.0868633"><ele>14.0</ele><time>2026-04-28T13:58:04.205Z</time></trkpt><trkpt lat="38.1136967" lon="15.0872117"><ele>16.5</ele><time>2026-04-28T13:58:05.205Z</time></trkpt><trkpt lat="38.1136767" lon="15.0875533"><ele>19.0</ele><time>2026-04-28T13:58:06.205Z</time></trkpt><trkpt lat="38.1136567" lon="15.087895"><ele>19.0</ele><time>2026-04-28T13:58:07.206Z</time></trkpt><trkpt lat="38.1136367" lon="15.0882383"><ele>19.0</ele><time>2026-04-28T13:58:08.205Z</time></trkpt><trkpt lat="38.1136217" lon="15.0885817"><ele>20.0</ele><time>2026-04-28T13:58:09.206Z</time></trkpt><trkpt lat="38.113605" lon="15.0889267"><ele>21.0</ele><time>2026-04-28T13:58:10.205Z</time></trkpt><trkpt lat="38.11359" lon="15.0892783"><ele>21.0</ele><time>2026-04-28T13:58:11.205Z</time></trkpt><trkpt lat="38.1135667" lon="15.089615"><ele>21.0</ele><time>2026-04-28T13:58:12.205Z</time></trkpt><trkpt lat="38.1135467" lon="15.0899567"><ele>18.0</ele><time>2026-04-28T13:58:13.205Z</time></trkpt><trkpt lat="38.11352" lon="15.0902983"><ele>15.0</ele><time>2026-04-28T13:58:14.205Z</time></trkpt><trkpt lat="38.1135067" lon="15.09064"><ele>14.0</ele><time>2026-04-28T13:58:15.205Z</time></trkpt><trkpt lat="38.1134967" lon="15.0909867"><ele>13.0</ele><time>2026-04-28T13:58:16.206Z</time></trkpt><trkpt lat="38.1134883" lon="15.0913317"><ele>13.0</ele><time>2026-04-28T13:58:17.205Z</time></trkpt><trkpt lat="38.11349" lon="15.0916833"><ele>13.0</ele><time>2026-04-28T13:58:18.205Z</time></trkpt><trkpt lat="38.1134967" lon="15.0920317"><ele>13.0</ele><time>2026-04-28T13:58:19.205Z</time></trkpt><trkpt lat="38.1135033" lon="15.09238"><ele>13.0</ele><time>2026-04-28T13:58:20.205Z</time></trkpt><trkpt lat="38.11351" lon="15.092725"><ele>12.0</ele><time>2026-04-28T13:58:21.205Z</time></trkpt><trkpt lat="38.1135233" lon="15.0930633"><ele>11.0</ele><time>2026-04-28T13:58:22.205Z</time></trkpt><trkpt lat="38.11354" lon="15.0934033"><ele>10.5</ele><time>2026-04-28T13:58:23.205Z</time></trkpt><trkpt lat="38.1135617" lon="15.0937433"><ele>10.0</ele><time>2026-04-28T13:58:24.205Z</time></trkpt><trkpt lat="38.1135883" lon="15.0940833"><ele>10.5</ele><time>2026-04-28T13:58:25.205Z</time></trkpt><trkpt lat="38.1136133" lon="15.094425"><ele>11.0</ele><time>2026-04-28T13:58:26.205Z</time></trkpt><trkpt lat="38.1136417" lon="15.0947583"><ele>15.0</ele><time>2026-04-28T13:58:27.205Z</time></trkpt><trkpt lat="38.1136817" lon="15.0951033"><ele>19.0</ele><time>2026-04-28T13:58:28.205Z</time></trkpt><trkpt lat="38.1137183" lon="15.0954433"><ele>24.5</ele><time>2026-04-28T13:58:29.205Z</time></trkpt><trkpt lat="38.1137583" lon="15.0957833"><ele>30.0</ele><time>2026-04-28T13:58:30.205Z</time></trkpt><trkpt lat="38.1137933" lon="15.0961233"><ele>30.0</ele><time>2026-04-28T13:58:31.205Z</time></trkpt><trkpt lat="38.11383" lon="15.0964717"><ele>30.0</ele><time>2026-04-28T13:58:32.205Z</time></trkpt><trkpt lat="38.113875" lon="15.0968167"><ele>31.5</ele><time>2026-04-28T13:58:33.205Z</time></trkpt><trkpt lat="38.1139133" lon="15.0971517"><ele>33.0</ele><time>2026-04-28T13:58:34.206Z</time></trkpt><trkpt lat="38.1139517" lon="15.0974933"><ele>36.5</ele><time>2026-04-28T13:58:35.205Z</time></trkpt><trkpt lat="38.1139867" lon="15.09783"><ele>40.0</ele><time>2026-04-28T13:58:36.205Z</time></trkpt><trkpt lat="38.1140183" lon="15.098175"><ele>35.0</ele><time>2026-04-28T13:58:37.204Z</time></trkpt><trkpt lat="38.1140533" lon="15.0985167"><ele>30.0</ele><time>2026-04-28T13:58:38.205Z</time></trkpt><trkpt lat="38.1140917" lon="15.0988583"><ele>19.5</ele><time>2026-04-28T13:58:39.206Z</time></trkpt><trkpt lat="38.1141283" lon="15.0992"><ele>9.0</ele><time>2026-04-28T13:58:40.205Z</time></trkpt><trkpt lat="38.11417" lon="15.09954"><ele>9.0</ele><time>2026-04-28T13:58:41.205Z</time></trkpt><trkpt lat="38.1142083" lon="15.0998833"><ele>9.0</ele><time>2026-04-28T13:58:42.205Z</time></trkpt><trkpt lat="38.1142533" lon="15.100225"><ele>9.0</ele><time>2026-04-28T13:58:43.205Z</time></trkpt><trkpt lat="38.1142917" lon="15.1005683"><ele>9.0</ele><time>2026-04-28T13:58:44.205Z</time></trkpt><trkpt lat="38.1143283" lon="15.10091"><ele>9.0</ele><time>2026-04-28T13:58:45.205Z</time></trkpt><trkpt lat="38.114365" lon="15.1012483"><ele>9.0</ele><time>2026-04-28T13:58:46.205Z</time></trkpt><trkpt lat="38.1144017" lon="15.10159"><ele>9.0</ele><time>2026-04-28T13:58:47.205Z</time></trkpt><trkpt lat="38.1144417" lon="15.10193"><ele>9.0</ele><time>2026-04-28T13:58:48.205Z</time></trkpt><trkpt lat="38.11448" lon="15.1022683"><ele>8.5</ele><time>2026-04-28T13:58:49.205Z</time></trkpt><trkpt lat="38.1145167" lon="15.1026133"><ele>8.0</ele><time>2026-04-28T13:58:50.206Z</time></trkpt><trkpt lat="38.11455" lon="15.1029583"><ele>8.5</ele><time>2026-04-28T13:58:51.205Z</time></trkpt><trkpt lat="38.11458" lon="15.103295"><ele>9.0</ele><time>2026-04-28T13:58:52.205Z</time></trkpt><trkpt lat="38.11462" lon="15.1036367"><ele>9.0</ele><time>2026-04-28T13:58:53.205Z</time></trkpt><trkpt lat="38.1146567" lon="15.1039783"><ele>9.0</ele><time>2026-04-28T13:58:54.205Z</time></trkpt><trkpt lat="38.114695" lon="15.1043183"><ele>8.5</ele><time>2026-04-28T13:58:55.205Z</time></trkpt><trkpt lat="38.1147333" lon="15.1046583"><ele>8.0</ele><time>2026-04-28T13:58:56.205Z</time></trkpt><trkpt lat="38.1147683" lon="15.1049967"><ele>9.0</ele><time>2026-04-28T13:58:57.205Z</time></trkpt><trkpt lat="38.11481" lon="15.105335"><ele>10.0</ele><time>2026-04-28T13:58:58.205Z</time></trkpt><trkpt lat="38.1148517" lon="15.105675"><ele>9.5</ele><time>2026-04-28T13:58:59.205Z</time></trkpt><trkpt lat="38.1148983" lon="15.1060167"><ele>9.0</ele><time>2026-04-28T13:59:00.206Z</time></trkpt><trkpt lat="38.1149583" lon="15.1063533"><ele>9.0</ele><time>2026-04-28T13:59:01.205Z</time></trkpt><trkpt lat="38.11503" lon="15.106685"><ele>9.0</ele><time>2026-04-28T13:59:02.205Z</time></trkpt><trkpt lat="38.1151083" lon="15.1070117"><ele>9.0</ele><time>2026-04-28T13:59:03.205Z</time></trkpt><trkpt lat="38.1151933" lon="15.1073367"><ele>9.0</ele><time>2026-04-28T13:59:04.205Z</time></trkpt><trkpt lat="38.115285" lon="15.1076633"><ele>9.0</ele><time>2026-04-28T13:59:05.206Z</time></trkpt><trkpt lat="38.1153817" lon="15.1079833"><ele>9.0</ele><time>2026-04-28T13:59:06.205Z</time></trkpt><trkpt lat="38.1154917" lon="15.1083"><ele>9.0</ele><time>2026-04-28T13:59:07.205Z</time></trkpt><trkpt lat="38.1156033" lon="15.1086117"><ele>9.0</ele><time>2026-04-28T13:59:08.205Z</time></trkpt><trkpt lat="38.115725" lon="15.1089167"><ele>8.0</ele><time>2026-04-28T13:59:09.205Z</time></trkpt><trkpt lat="38.115855" lon="15.10922"><ele>7.0</ele><time>2026-04-28T13:59:10.205Z</time></trkpt><trkpt lat="38.11599" lon="15.1095217"><ele>7.0</ele><time>2026-04-28T13:59:11.206Z</time></trkpt><trkpt lat="38.1161333" lon="15.1098183"><ele>7.0</ele><time>2026-04-28T13:59:12.205Z</time></trkpt><trkpt lat="38.1162783" lon="15.11011"><ele>7.0</ele><time>2026-04-28T13:59:13.206Z</time></trkpt><trkpt lat="38.1164333" lon="15.11039"><ele>7.0</ele><time>2026-04-28T13:59:14.205Z</time></trkpt><trkpt lat="38.116595" lon="15.1106717"><ele>8.0</ele><time>2026-04-28T13:59:15.205Z</time></trkpt><trkpt lat="38.1167617" lon="15.110935"><ele>9.0</ele><time>2026-04-28T13:59:16.205Z</time></trkpt><trkpt lat="38.1169367" lon="15.1111933"><ele>9.0</ele><time>2026-04-28T13:59:17.205Z</time></trkpt><trkpt lat="38.117105" lon="15.1114367"><ele>9.0</ele><time>2026-04-28T13:59:18.205Z</time></trkpt><trkpt lat="38.1172733" lon="15.11168"><ele>8.0</ele><time>2026-04-28T13:59:19.205Z</time></trkpt><trkpt lat="38.1174433" lon="15.1119283"><ele>7.0</ele><time>2026-04-28T13:59:20.205Z</time></trkpt><trkpt lat="38.1176117" lon="15.112185"><ele>6.5</ele><time>2026-04-28T13:59:21.205Z</time></trkpt><trkpt lat="38.117785" lon="15.11243"><ele>6.0</ele><time>2026-04-28T13:59:22.205Z</time></trkpt><trkpt lat="38.1179533" lon="15.1126733"><ele>6.0</ele><time>2026-04-28T13:59:23.205Z</time></trkpt><trkpt lat="38.11812" lon="15.1129217"><ele>6.0</ele><time>2026-04-28T13:59:24.205Z</time></trkpt><trkpt lat="38.1182833" lon="15.11317"><ele>6.5</ele><time>2026-04-28T13:59:25.205Z</time></trkpt><trkpt lat="38.1184633" lon="15.1134267"><ele>7.0</ele><time>2026-04-28T13:59:26.205Z</time></trkpt><trkpt lat="38.11865" lon="15.11369"><ele>7.0</ele><time>2026-04-28T13:59:27.205Z</time></trkpt><trkpt lat="38.11884" lon="15.1139667"><ele>7.0</ele><time>2026-04-28T13:59:28.205Z</time></trkpt><trkpt lat="38.1190417" lon="15.1142533"><ele>7.5</ele><time>2026-04-28T13:59:29.205Z</time></trkpt><trkpt lat="38.1192483" lon="15.1145583"><ele>8.0</ele><time>2026-04-28T13:59:30.205Z</time></trkpt><trkpt lat="38.1194617" lon="15.1148683"><ele>8.5</ele><time>2026-04-28T13:59:31.206Z</time></trkpt><trkpt lat="38.119695" lon="15.1151967"><ele>9.0</ele><time>2026-04-28T13:59:32.205Z</time></trkpt><trkpt lat="38.1199417" lon="15.1155433"><ele>8.0</ele><time>2026-04-28T13:59:33.205Z</time></trkpt><trkpt lat="38.1201917" lon="15.1159033"><ele>7.0</ele><time>2026-04-28T13:59:34.205Z</time></trkpt><trkpt lat="38.1204467" lon="15.116285"><ele>6.5</ele><time>2026-04-28T13:59:35.206Z</time></trkpt><trkpt lat="38.12072" lon="15.11667"><ele>6.0</ele><time>2026-04-28T13:59:36.205Z</time></trkpt><trkpt lat="38.1209983" lon="15.1170717"><ele>6.5</ele><time>2026-04-28T13:59:37.205Z</time></trkpt><trkpt lat="38.12128" lon="15.1174817"><ele>7.0</ele><time>2026-04-28T13:59:38.206Z</time></trkpt><trkpt lat="38.12156" lon="15.1178833"><ele>6.5</ele><time>2026-04-28T13:59:39.205Z</time></trkpt><trkpt lat="38.1218283" lon="15.1182867"><ele>6.0</ele><time>2026-04-28T13:59:40.205Z</time></trkpt><trkpt lat="38.1220967" lon="15.1186933"><ele>6.0</ele><time>2026-04-28T13:59:41.205Z</time></trkpt><trkpt lat="38.12237" lon="15.1191167"><ele>6.0</ele><time>2026-04-28T13:59:42.205Z</time></trkpt><trkpt lat="38.12264" lon="15.119565"><ele>6.5</ele><time>2026-04-28T13:59:43.205Z</time></trkpt><trkpt lat="38.1229033" lon="15.120015"><ele>7.0</ele><time>2026-04-28T13:59:44.206Z</time></trkpt><trkpt lat="38.12318" lon="15.1204717"><ele>7.0</ele><time>2026-04-28T13:59:45.206Z</time></trkpt><trkpt lat="38.1234467" lon="15.1209317"><ele>7.0</ele><time>2026-04-28T13:59:46.205Z</time></trkpt><trkpt lat="38.1237017" lon="15.1213617"><ele>7.0</ele><time>2026-04-28T13:59:47.205Z</time></trkpt><trkpt lat="38.1239467" lon="15.1217767"><ele>8.5</ele><time>2026-04-28T13:59:48.205Z</time></trkpt><trkpt lat="38.1241833" lon="15.1221733"><ele>10.0</ele><time>2026-04-28T13:59:49.205Z</time></trkpt><trkpt lat="38.1244117" lon="15.1225667"><ele>10.0</ele><time>2026-04-28T13:59:50.205Z</time></trkpt><trkpt lat="38.1246367" lon="15.12295"><ele>10.0</ele><time>2026-04-28T13:59:51.205Z</time></trkpt><trkpt lat="38.12487" lon="15.1233417"><ele>10.5</ele><time>2026-04-28T13:59:52.205Z</time></trkpt><trkpt lat="38.1251" lon="15.1237167"><ele>11.0</ele><time>2026-04-28T13:59:53.205Z</time></trkpt><trkpt lat="38.1253267" lon="15.1240867"><ele>11.0</ele><time>2026-04-28T13:59:54.205Z</time></trkpt><trkpt lat="38.1255583" lon="15.1244667"><ele>11.0</ele><time>2026-04-28T13:59:55.205Z</time></trkpt><trkpt lat="38.1257917" lon="15.12486"><ele>11.0</ele><time>2026-04-28T13:59:56.206Z</time></trkpt><trkpt lat="38.1260233" lon="15.1252633"><ele>11.0</ele><time>2026-04-28T13:59:57.205Z</time></trkpt><trkpt lat="38.1262667" lon="15.12568"><ele>11.5</ele><time>2026-04-28T13:59:58.205Z</time></trkpt><trkpt lat="38.1265117" lon="15.1261033"><ele>12.0</ele><time>2026-04-28T13:59:59.206Z</time></trkpt><trkpt lat="38.1267667" lon="15.12654"><ele>11.5</ele><time>2026-04-28T14:00:00.206Z</time></trkpt><trkpt lat="38.1270317" lon="15.1269783"><ele>11.0</ele><time>2026-04-28T14:00:01.205Z</time></trkpt><trkpt lat="38.127295" lon="15.1274267"><ele>11.0</ele><time>2026-04-28T14:00:02.205Z</time></trkpt><trkpt lat="38.1275617" lon="15.1278717"><ele>11.0</ele><time>2026-04-28T14:00:03.205Z</time></trkpt><trkpt lat="38.1278317" lon="15.1283183"><ele>11.5</ele><time>2026-04-28T14:00:04.205Z</time></trkpt><trkpt lat="38.1281033" lon="15.1287717"><ele>12.0</ele><time>2026-04-28T14:00:05.205Z</time></trkpt><trkpt lat="38.1283733" lon="15.1292283"><ele>12.0</ele><time>2026-04-28T14:00:06.205Z</time></trkpt><trkpt lat="38.128645" lon="15.1296883"><ele>15.0</ele><time>2026-04-28T14:00:07.206Z</time></trkpt><trkpt lat="38.128915" lon="15.13015"><ele>14.0</ele><time>2026-04-28T14:00:08.205Z</time></trkpt><trkpt lat="38.1291917" lon="15.1306117"><ele>14.0</ele><time>2026-04-28T14:00:09.205Z</time></trkpt><trkpt lat="38.129465" lon="15.1310683"><ele>14.0</ele><time>2026-04-28T14:00:10.206Z</time></trkpt><trkpt lat="38.129735" lon="15.1315233"><ele>14.0</ele><time>2026-04-28T14:00:11.205Z</time></trkpt><trkpt lat="38.1300067" lon="15.1319867"><ele>13.5</ele><time>2026-04-28T14:00:12.205Z</time></trkpt><trkpt lat="38.13027" lon="15.13244"><ele>13.0</ele><time>2026-04-28T14:00:13.205Z</time></trkpt><trkpt lat="38.1305217" lon="15.1328617"><ele>13.5</ele><time>2026-04-28T14:00:14.205Z</time></trkpt><trkpt lat="38.1307633" lon="15.133265"><ele>14.0</ele><time>2026-04-28T14:00:15.205Z</time></trkpt><trkpt lat="38.1309883" lon="15.1336617"><ele>14.0</ele><time>2026-04-28T14:00:16.205Z</time></trkpt><trkpt lat="38.13121" lon="15.1340517"><ele>14.0</ele><time>2026-04-28T14:00:17.205Z</time></trkpt><trkpt lat="38.1314217" lon="15.134445"><ele>13.5</ele><time>2026-04-28T14:00:18.205Z</time></trkpt><trkpt lat="38.1316233" lon="15.134835"><ele>13.0</ele><time>2026-04-28T14:00:19.205Z</time></trkpt><trkpt lat="38.1318167" lon="15.1352267"><ele>12.0</ele><time>2026-04-28T14:00:20.205Z</time></trkpt><trkpt lat="38.1320017" lon="15.135615"><ele>11.0</ele><time>2026-04-28T14:00:21.206Z</time></trkpt><trkpt lat="38.1321767" lon="15.1360117"><ele>11.0</ele><time>2026-04-28T14:00:22.205Z</time></trkpt><trkpt lat="38.1323417" lon="15.1364033"><ele>11.0</ele><time>2026-04-28T14:00:23.206Z</time></trkpt><trkpt lat="38.132505" lon="15.1367933"><ele>12.5</ele><time>2026-04-28T14:00:24.205Z</time></trkpt><trkpt lat="38.132665" lon="15.1371817"><ele>14.0</ele><time>2026-04-28T14:00:25.205Z</time></trkpt><trkpt lat="38.1328183" lon="15.1375783"><ele>14.0</ele><time>2026-04-28T14:00:26.205Z</time></trkpt><trkpt lat="38.1329617" lon="15.1379867"><ele>14.0</ele><time>2026-04-28T14:00:27.205Z</time></trkpt><trkpt lat="38.1330917" lon="15.13839"><ele>13.0</ele><time>2026-04-28T14:00:28.205Z</time></trkpt><trkpt lat="38.1332183" lon="15.138805"><ele>12.0</ele><time>2026-04-28T14:00:29.205Z</time></trkpt><trkpt lat="38.133345" lon="15.13922"><ele>12.0</ele><time>2026-04-28T14:00:30.205Z</time></trkpt><trkpt lat="38.133465" lon="15.1396333"><ele>12.0</ele><time>2026-04-28T14:00:31.205Z</time></trkpt><trkpt lat="38.1335733" lon="15.14005"><ele>12.0</ele><time>2026-04-28T14:00:32.205Z</time></trkpt><trkpt lat="38.133685" lon="15.1404833"><ele>12.0</ele><time>2026-04-28T14:00:33.205Z</time></trkpt><trkpt lat="38.1337917" lon="15.140915"><ele>11.5</ele><time>2026-04-28T14:00:34.205Z</time></trkpt><trkpt lat="38.1338917" lon="15.14135"><ele>11.0</ele><time>2026-04-28T14:00:35.206Z</time></trkpt><trkpt lat="38.1339917" lon="15.1417733"><ele>10.5</ele><time>2026-04-28T14:00:36.206Z</time></trkpt><trkpt lat="38.1340967" lon="15.142205"><ele>10.0</ele><time>2026-04-28T14:00:37.205Z</time></trkpt><trkpt lat="38.1342" lon="15.1426317"><ele>9.5</ele><time>2026-04-28T14:00:38.205Z</time></trkpt><trkpt lat="38.1342933" lon="15.1430467"><ele>9.0</ele><time>2026-04-28T14:00:39.205Z</time></trkpt><trkpt lat="38.1343833" lon="15.1434567"><ele>8.5</ele><time>2026-04-28T14:00:40.205Z</time></trkpt><trkpt lat="38.1344783" lon="15.1438533"><ele>8.0</ele><time>2026-04-28T14:00:41.205Z</time></trkpt><trkpt lat="38.1345817" lon="15.1442333"><ele>7.5</ele><time>2026-04-28T14:00:42.205Z</time></trkpt><trkpt lat="38.13469" lon="15.1446083"><ele>7.0</ele><time>2026-04-28T14:00:43.205Z</time></trkpt><trkpt lat="38.13481" lon="15.1449833"><ele>7.0</ele><time>2026-04-28T14:00:44.205Z</time></trkpt><trkpt lat="38.13493" lon="15.14536"><ele>7.0</ele><time>2026-04-28T14:00:45.205Z</time></trkpt><trkpt lat="38.1350533" lon="15.1457267"><ele>6.5</ele><time>2026-04-28T14:00:46.205Z</time></trkpt><trkpt lat="38.1351833" lon="15.146085"><ele>6.0</ele><time>2026-04-28T14:00:47.205Z</time></trkpt><trkpt lat="38.1353183" lon="15.1464433"><ele>6.5</ele><time>2026-04-28T14:00:48.205Z</time></trkpt><trkpt lat="38.1354583" lon="15.146795"><ele>7.0</ele><time>2026-04-28T14:00:49.205Z</time></trkpt><trkpt lat="38.1356" lon="15.1471383"><ele>7.0</ele><time>2026-04-28T14:00:50.205Z</time></trkpt><trkpt lat="38.1357383" lon="15.147475"><ele>7.0</ele><time>2026-04-28T14:00:51.205Z</time></trkpt><trkpt lat="38.1358767" lon="15.1477933"><ele>7.0</ele><time>2026-04-28T14:00:52.205Z</time></trkpt><trkpt lat="38.136015" lon="15.148105"><ele>7.0</ele><time>2026-04-28T14:00:53.206Z</time></trkpt><trkpt lat="38.1361533" lon="15.1484167"><ele>7.5</ele><time>2026-04-28T14:00:54.205Z</time></trkpt><trkpt lat="38.1362917" lon="15.1487217"><ele>8.0</ele><time>2026-04-28T14:00:55.205Z</time></trkpt><trkpt lat="38.13643" lon="15.1490267"><ele>8.0</ele><time>2026-04-28T14:00:56.205Z</time></trkpt><trkpt lat="38.1365683" lon="15.14933"><ele>8.0</ele><time>2026-04-28T14:00:57.205Z</time></trkpt><trkpt lat="38.1367067" lon="15.14963"><ele>8.0</ele><time>2026-04-28T14:00:58.205Z</time></trkpt><trkpt lat="38.1368433" lon="15.149925"><ele>8.0</ele><time>2026-04-28T14:00:59.205Z</time></trkpt><trkpt lat="38.1369767" lon="15.1502233"><ele>8.0</ele><time>2026-04-28T14:01:00.205Z</time></trkpt><trkpt lat="38.1371067" lon="15.1505233"><ele>8.0</ele><time>2026-04-28T14:01:01.205Z</time></trkpt><trkpt lat="38.13724" lon="15.1508233"><ele>8.0</ele><time>2026-04-28T14:01:02.205Z</time></trkpt><trkpt lat="38.1373733" lon="15.1511167"><ele>8.0</ele><time>2026-04-28T14:01:03.205Z</time></trkpt><trkpt lat="38.1375067" lon="15.1514167"><ele>7.5</ele><time>2026-04-28T14:01:04.205Z</time></trkpt><trkpt lat="38.13764" lon="15.1517167"><ele>7.0</ele><time>2026-04-28T14:01:05.205Z</time></trkpt><trkpt lat="38.1377717" lon="15.152015"><ele>7.0</ele><time>2026-04-28T14:01:06.205Z</time></trkpt><trkpt lat="38.1379067" lon="15.1523133"><ele>7.0</ele><time>2026-04-28T14:01:07.205Z</time></trkpt><trkpt lat="38.1380367" lon="15.15261"><ele>7.5</ele><time>2026-04-28T14:01:08.205Z</time></trkpt><trkpt lat="38.1381683" lon="15.1529133"><ele>8.0</ele><time>2026-04-28T14:01:09.205Z</time></trkpt><trkpt lat="38.1383017" lon="15.15321"><ele>8.0</ele><time>2026-04-28T14:01:10.205Z</time></trkpt><trkpt lat="38.1384383" lon="15.1535083"><ele>8.0</ele><time>2026-04-28T14:01:11.205Z</time></trkpt><trkpt lat="38.1385767" lon="15.1538067"><ele>8.0</ele><time>2026-04-28T14:01:12.205Z</time></trkpt><trkpt lat="38.1387083" lon="15.15411"><ele>8.0</ele><time>2026-04-28T14:01:13.205Z</time></trkpt><trkpt lat="38.138845" lon="15.154405"><ele>8.0</ele><time>2026-04-28T14:01:14.205Z</time></trkpt><trkpt lat="38.13898" lon="15.1547033"><ele>8.0</ele><time>2026-04-28T14:01:15.205Z</time></trkpt><trkpt lat="38.139115" lon="15.1550083"><ele>8.0</ele><time>2026-04-28T14:01:16.205Z</time></trkpt><trkpt lat="38.1392483" lon="15.155305"><ele>8.0</ele><time>2026-04-28T14:01:17.206Z</time></trkpt><trkpt lat="38.1393783" lon="15.1555983"><ele>8.5</ele><time>2026-04-28T14:01:18.205Z</time></trkpt><trkpt lat="38.1395067" lon="15.155885"><ele>9.0</ele><time>2026-04-28T14:01:19.205Z</time></trkpt><trkpt lat="38.1396317" lon="15.1561683"><ele>9.0</ele><time>2026-04-28T14:01:20.205Z</time></trkpt><trkpt lat="38.1397517" lon="15.15643"><ele>9.0</ele><time>2026-04-28T14:01:21.206Z</time></trkpt><trkpt lat="38.1398733" lon="15.156705"><ele>10.0</ele><time>2026-04-28T14:01:22.205Z</time></trkpt><trkpt lat="38.1399933" lon="15.15698"><ele>11.0</ele><time>2026-04-28T14:01:23.205Z</time></trkpt><trkpt lat="38.1401133" lon="15.1572433"><ele>9.5</ele><time>2026-04-28T14:01:24.205Z</time></trkpt><trkpt lat="38.1402333" lon="15.157505"><ele>8.0</ele><time>2026-04-28T14:01:25.205Z</time></trkpt><trkpt lat="38.1403517" lon="15.1577667"><ele>8.0</ele><time>2026-04-28T14:01:26.206Z</time></trkpt><trkpt lat="38.1404683" lon="15.1580283"><ele>8.0</ele><time>2026-04-28T14:01:27.205Z</time></trkpt><trkpt lat="38.1405867" lon="15.1582933"><ele>8.5</ele><time>2026-04-28T14:01:28.205Z</time></trkpt><trkpt lat="38.140705" lon="15.1585583"><ele>9.0</ele><time>2026-04-28T14:01:29.205Z</time></trkpt><trkpt lat="38.140825" lon="15.1588267"><ele>8.5</ele><time>2026-04-28T14:01:30.205Z</time></trkpt><trkpt lat="38.140945" lon="15.1590867"><ele>8.0</ele><time>2026-04-28T14:01:31.206Z</time></trkpt><trkpt lat="38.141065" lon="15.1593567"><ele>8.0</ele><time>2026-04-28T14:01:32.205Z</time></trkpt><trkpt lat="38.1411867" lon="15.1596233"><ele>8.0</ele><time>2026-04-28T14:01:33.205Z</time></trkpt><trkpt lat="38.141305" lon="15.1598933"><ele>8.0</ele><time>2026-04-28T14:01:34.205Z</time></trkpt><trkpt lat="38.1414233" lon="15.1601567"><ele>8.0</ele><time>2026-04-28T14:01:35.205Z</time></trkpt><trkpt lat="38.1415383" lon="15.160415"><ele>8.5</ele><time>2026-04-28T14:01:36.205Z</time></trkpt><trkpt lat="38.1416683" lon="15.1606817"><ele>9.0</ele><time>2026-04-28T14:01:37.205Z</time></trkpt><trkpt lat="38.14178" lon="15.1609483"><ele>9.0</ele><time>2026-04-28T14:01:38.205Z</time></trkpt><trkpt lat="38.1419" lon="15.1612117"><ele>9.0</ele><time>2026-04-28T14:01:39.205Z</time></trkpt><trkpt lat="38.1420183" lon="15.16148"><ele>9.5</ele><time>2026-04-28T14:01:40.206Z</time></trkpt><trkpt lat="38.142135" lon="15.16174"><ele>10.0</ele><time>2026-04-28T14:01:41.205Z</time></trkpt><trkpt lat="38.1422533" lon="15.1619983"><ele>10.0</ele><time>2026-04-28T14:01:42.205Z</time></trkpt><trkpt lat="38.1423767" lon="15.1622633"><ele>10.0</ele><time>2026-04-28T14:01:43.205Z</time></trkpt><trkpt lat="38.1424983" lon="15.1625283"><ele>9.0</ele><time>2026-04-28T14:01:44.205Z</time></trkpt><trkpt lat="38.1426167" lon="15.162795"><ele>8.0</ele><time>2026-04-28T14:01:45.205Z</time></trkpt><trkpt lat="38.142735" lon="15.1630617"><ele>8.5</ele><time>2026-04-28T14:01:46.205Z</time></trkpt><trkpt lat="38.1428567" lon="15.1633283"><ele>9.0</ele><time>2026-04-28T14:01:47.205Z</time></trkpt><trkpt lat="38.1429783" lon="15.1635983"><ele>9.0</ele><time>2026-04-28T14:01:48.205Z</time></trkpt><trkpt lat="38.1431" lon="15.1638633"><ele>9.0</ele><time>2026-04-28T14:01:49.206Z</time></trkpt><trkpt lat="38.1432233" lon="15.1641283"><ele>10.0</ele><time>2026-04-28T14:01:50.206Z</time></trkpt><trkpt lat="38.1433467" lon="15.164395"><ele>11.0</ele><time>2026-04-28T14:01:51.205Z</time></trkpt><trkpt lat="38.1434717" lon="15.1646567"><ele>10.5</ele><time>2026-04-28T14:01:52.205Z</time></trkpt><trkpt lat="38.143595" lon="15.16492"><ele>10.0</ele><time>2026-04-28T14:01:53.205Z</time></trkpt><trkpt lat="38.1437267" lon="15.1651717"><ele>10.0</ele><time>2026-04-28T14:01:54.205Z</time></trkpt><trkpt lat="38.1438583" lon="15.1654267"><ele>10.0</ele><time>2026-04-28T14:01:55.205Z</time></trkpt><trkpt lat="38.1439933" lon="15.165675"><ele>10.5</ele><time>2026-04-28T14:01:56.205Z</time></trkpt><trkpt lat="38.1441317" lon="15.1659283"><ele>11.0</ele><time>2026-04-28T14:01:57.206Z</time></trkpt><trkpt lat="38.1442717" lon="15.16618"><ele>11.0</ele><time>2026-04-28T14:01:58.205Z</time></trkpt><trkpt lat="38.1444117" lon="15.16643"><ele>11.0</ele><time>2026-04-28T14:01:59.206Z</time></trkpt><trkpt lat="38.1445517" lon="15.1666767"><ele>11.5</ele><time>2026-04-28T14:02:00.205Z</time></trkpt><trkpt lat="38.1446933" lon="15.1669317"><ele>12.0</ele><time>2026-04-28T14:02:01.205Z</time></trkpt><trkpt lat="38.1448383" lon="15.16718"><ele>13.0</ele><time>2026-04-28T14:02:02.205Z</time></trkpt><trkpt lat="38.1449817" lon="15.1674183"><ele>14.0</ele><time>2026-04-28T14:02:03.205Z</time></trkpt><trkpt lat="38.1451317" lon="15.16766"><ele>14.0</ele><time>2026-04-28T14:02:04.205Z</time></trkpt><trkpt lat="38.1452833" lon="15.1678983"><ele>14.0</ele><time>2026-04-28T14:02:05.206Z</time></trkpt><trkpt lat="38.1454333" lon="15.168135"><ele>13.5</ele><time>2026-04-28T14:02:06.205Z</time></trkpt><trkpt lat="38.1455783" lon="15.168365"><ele>13.0</ele><time>2026-04-28T14:02:07.205Z</time></trkpt><trkpt lat="38.14573" lon="15.1685967"><ele>12.5</ele><time>2026-04-28T14:02:08.205Z</time></trkpt><trkpt lat="38.1458767" lon="15.1688267"><ele>12.0</ele><time>2026-04-28T14:02:09.205Z</time></trkpt><trkpt lat="38.1460233" lon="15.1690617"><ele>12.0</ele><time>2026-04-28T14:02:10.205Z</time></trkpt><trkpt lat="38.1461733" lon="15.1692967"><ele>12.0</ele><time>2026-04-28T14:02:11.205Z</time></trkpt><trkpt lat="38.146335" lon="15.1695417"><ele>12.0</ele><time>2026-04-28T14:02:12.205Z</time></trkpt><trkpt lat="38.146495" lon="15.1697917"><ele>12.0</ele><time>2026-04-28T14:02:13.205Z</time></trkpt><trkpt lat="38.1466567" lon="15.17005"><ele>12.5</ele><time>2026-04-28T14:02:14.206Z</time></trkpt><trkpt lat="38.146825" lon="15.17032"><ele>13.0</ele><time>2026-04-28T14:02:15.205Z</time></trkpt><trkpt lat="38.147" lon="15.1705983"><ele>13.0</ele><time>2026-04-28T14:02:16.205Z</time></trkpt><trkpt lat="38.1471767" lon="15.1708767"><ele>13.0</ele><time>2026-04-28T14:02:17.205Z</time></trkpt><trkpt lat="38.1473533" lon="15.1711667"><ele>12.5</ele><time>2026-04-28T14:02:18.205Z</time></trkpt><trkpt lat="38.147535" lon="15.1714567"><ele>12.0</ele><time>2026-04-28T14:02:19.205Z</time></trkpt><trkpt lat="38.1477133" lon="15.1717467"><ele>12.0</ele><time>2026-04-28T14:02:20.205Z</time></trkpt><trkpt lat="38.1478967" lon="15.172045"><ele>12.0</ele><time>2026-04-28T14:02:21.205Z</time></trkpt><trkpt lat="38.14807" lon="15.1723433"><ele>12.0</ele><time>2026-04-28T14:02:22.205Z</time></trkpt><trkpt lat="38.14824" lon="15.17265"><ele>12.0</ele><time>2026-04-28T14:02:23.205Z</time></trkpt><trkpt lat="38.1484067" lon="15.1729633"><ele>12.0</ele><time>2026-04-28T14:02:24.206Z</time></trkpt><trkpt lat="38.148575" lon="15.173275"><ele>12.0</ele><time>2026-04-28T14:02:25.205Z</time></trkpt><trkpt lat="38.1487417" lon="15.1735967"><ele>12.0</ele><time>2026-04-28T14:02:26.205Z</time></trkpt><trkpt lat="38.1489067" lon="15.173915"><ele>12.0</ele><time>2026-04-28T14:02:27.205Z</time></trkpt><trkpt lat="38.14907" lon="15.17424"><ele>12.5</ele><time>2026-04-28T14:02:28.205Z</time></trkpt><trkpt lat="38.1492317" lon="15.174565"><ele>13.0</ele><time>2026-04-28T14:02:29.205Z</time></trkpt><trkpt lat="38.1493883" lon="15.17489"><ele>13.0</ele><time>2026-04-28T14:02:30.205Z</time></trkpt><trkpt lat="38.1495417" lon="15.1752083"><ele>13.0</ele><time>2026-04-28T14:02:31.205Z</time></trkpt><trkpt lat="38.149695" lon="15.17553"><ele>13.0</ele><time>2026-04-28T14:02:32.205Z</time></trkpt><trkpt lat="38.149845" lon="15.17585"><ele>13.0</ele><time>2026-04-28T14:02:33.205Z</time></trkpt><trkpt lat="38.1499917" lon="15.1761767"><ele>12.0</ele><time>2026-04-28T14:02:34.205Z</time></trkpt><trkpt lat="38.1501367" lon="15.1765033"><ele>11.0</ele><time>2026-04-28T14:02:35.205Z</time></trkpt><trkpt lat="38.1502783" lon="15.1768317"><ele>11.0</ele><time>2026-04-28T14:02:36.206Z</time></trkpt><trkpt lat="38.15042" lon="15.1771567"><ele>11.0</ele><time>2026-04-28T14:02:37.205Z</time></trkpt><trkpt lat="38.1505633" lon="15.1774833"><ele>11.5</ele><time>2026-04-28T14:02:38.205Z</time></trkpt><trkpt lat="38.150715" lon="15.177815"><ele>12.0</ele><time>2026-04-28T14:02:39.205Z</time></trkpt><trkpt lat="38.1508733" lon="15.1781467"><ele>11.5</ele><time>2026-04-28T14:02:40.205Z</time></trkpt><trkpt lat="38.1510317" lon="15.178465"><ele>11.0</ele><time>2026-04-28T14:02:41.205Z</time></trkpt><trkpt lat="38.1511933" lon="15.1787667"><ele>10.5</ele><time>2026-04-28T14:02:42.205Z</time></trkpt><trkpt lat="38.1513567" lon="15.1790483"><ele>10.0</ele><time>2026-04-28T14:02:43.206Z</time></trkpt><trkpt lat="38.15151" lon="15.1793233"><ele>10.0</ele><time>2026-04-28T14:02:44.205Z</time></trkpt><trkpt lat="38.151675" lon="15.179615"><ele>10.0</ele><time>2026-04-28T14:02:45.205Z</time></trkpt><trkpt lat="38.1518383" lon="15.1798983"><ele>11.0</ele><time>2026-04-28T14:02:46.205Z</time></trkpt><trkpt lat="38.1519983" lon="15.1801717"><ele>12.0</ele><time>2026-04-28T14:02:47.205Z</time></trkpt><trkpt lat="38.15216" lon="15.1804367"><ele>12.0</ele><time>2026-04-28T14:02:48.205Z</time></trkpt><trkpt lat="38.1523033" lon="15.1807"><ele>12.0</ele><time>2026-04-28T14:02:49.205Z</time></trkpt><trkpt lat="38.1524483" lon="15.1809567"><ele>11.0</ele><time>2026-04-28T14:02:50.206Z</time></trkpt><trkpt lat="38.1525933" lon="15.181215"><ele>10.0</ele><time>2026-04-28T14:02:51.205Z</time></trkpt><trkpt lat="38.1527333" lon="15.1814717"><ele>10.0</ele><time>2026-04-28T14:02:52.205Z</time></trkpt><trkpt lat="38.1528667" lon="15.1817267"><ele>10.0</ele><time>2026-04-28T14:02:53.205Z</time></trkpt><trkpt lat="38.1529917" lon="15.181975"><ele>10.0</ele><time>2026-04-28T14:02:54.206Z</time></trkpt><trkpt lat="38.153115" lon="15.1822217"><ele>10.0</ele><time>2026-04-28T14:02:55.206Z</time></trkpt><trkpt lat="38.153235" lon="15.18247"><ele>10.0</ele><time>2026-04-28T14:02:56.206Z</time></trkpt><trkpt lat="38.1533533" lon="15.1827117"><ele>10.0</ele><time>2026-04-28T14:02:57.205Z</time></trkpt><trkpt lat="38.153465" lon="15.1829533"><ele>10.0</ele><time>2026-04-28T14:02:58.205Z</time></trkpt><trkpt lat="38.15358" lon="15.1831967"><ele>10.333333333333334</ele><time>2026-04-28T14:02:59.205Z</time></trkpt><trkpt lat="38.1536883" lon="15.1834417"><ele>10.666666666666666</ele><time>2026-04-28T14:03:00.205Z</time></trkpt><trkpt lat="38.1537983" lon="15.18368"><ele>11.0</ele><time>2026-04-28T14:03:01.205Z</time></trkpt><trkpt lat="38.1539117" lon="15.1839283"><ele>11.0</ele><time>2026-04-28T14:03:02.205Z</time></trkpt><trkpt lat="38.1540283" lon="15.184175"><ele>11.0</ele><time>2026-04-28T14:03:03.205Z</time></trkpt><trkpt lat="38.154145" lon="15.1844233"><ele>11.0</ele><time>2026-04-28T14:03:04.205Z</time></trkpt><trkpt lat="38.1542683" lon="15.18468"><ele>11.0</ele><time>2026-04-28T14:03:05.206Z</time></trkpt><trkpt lat="38.1543933" lon="15.1849283"><ele>11.0</ele><time>2026-04-28T14:03:06.205Z</time></trkpt><trkpt lat="38.1545217" lon="15.18518"><ele>11.0</ele><time>2026-04-28T14:03:07.205Z</time></trkpt><trkpt lat="38.1546583" lon="15.1854233"><ele>11.0</ele><time>2026-04-28T14:03:08.205Z</time></trkpt><trkpt lat="38.1547917" lon="15.1856733"><ele>11.0</ele><time>2026-04-28T14:03:09.205Z</time></trkpt><trkpt lat="38.1549283" lon="15.185925"><ele>11.0</ele><time>2026-04-28T14:03:10.206Z</time></trkpt><trkpt lat="38.1550683" lon="15.1861817"><ele>11.0</ele><time>2026-04-28T14:03:11.206Z</time></trkpt><trkpt lat="38.1552133" lon="15.1864483"><ele>10.5</ele><time>2026-04-28T14:03:12.206Z</time></trkpt><trkpt lat="38.1553617" lon="15.186715"><ele>10.0</ele><time>2026-04-28T14:03:13.205Z</time></trkpt><trkpt lat="38.155515" lon="15.1870133"><ele>10.0</ele><time>2026-04-28T14:03:14.206Z</time></trkpt><trkpt lat="38.1556817" lon="15.18731"><ele>10.0</ele><time>2026-04-28T14:03:15.205Z</time></trkpt><trkpt lat="38.1558567" lon="15.1876317"><ele>11.5</ele><time>2026-04-28T14:03:16.205Z</time></trkpt><trkpt lat="38.1560367" lon="15.1879617"><ele>13.0</ele><time>2026-04-28T14:03:17.205Z</time></trkpt><trkpt lat="38.156225" lon="15.188315"><ele>13.5</ele><time>2026-04-28T14:03:18.205Z</time></trkpt><trkpt lat="38.15642" lon="15.18868"><ele>14.0</ele><time>2026-04-28T14:03:19.205Z</time></trkpt><trkpt lat="38.156625" lon="15.1890567"><ele>13.5</ele><time>2026-04-28T14:03:20.205Z</time></trkpt><trkpt lat="38.1568367" lon="15.1894483"><ele>13.0</ele><time>2026-04-28T14:03:21.205Z</time></trkpt><trkpt lat="38.1570567" lon="15.1898533"><ele>13.0</ele><time>2026-04-28T14:03:22.205Z</time></trkpt><trkpt lat="38.1572783" lon="15.19027"><ele>13.0</ele><time>2026-04-28T14:03:23.206Z</time></trkpt><trkpt lat="38.15751" lon="15.1907067"><ele>13.0</ele><time>2026-04-28T14:03:24.205Z</time></trkpt><trkpt lat="38.157745" lon="15.191145"><ele>13.0</ele><time>2026-04-28T14:03:25.206Z</time></trkpt><trkpt lat="38.1579867" lon="15.191595"><ele>13.0</ele><time>2026-04-28T14:03:26.205Z</time></trkpt><trkpt lat="38.158235" lon="15.192055"><ele>13.0</ele><time>2026-04-28T14:03:27.205Z</time></trkpt><trkpt lat="38.1584867" lon="15.192525"><ele>13.0</ele><time>2026-04-28T14:03:28.205Z</time></trkpt><trkpt lat="38.15874" lon="15.1930017"><ele>15.0</ele><time>2026-04-28T14:03:29.205Z</time></trkpt><trkpt lat="38.1589933" lon="15.193475"><ele>13.0</ele><time>2026-04-28T14:03:30.205Z</time></trkpt><trkpt lat="38.159245" lon="15.1939633"><ele>14.0</ele><time>2026-04-28T14:03:31.206Z</time></trkpt><trkpt lat="38.1595" lon="15.1944583"><ele>16.0</ele><time>2026-04-28T14:03:32.205Z</time></trkpt><trkpt lat="38.1597517" lon="15.1949533"><ele>14.0</ele><time>2026-04-28T14:03:33.205Z</time></trkpt><trkpt lat="38.1600067" lon="15.195455"><ele>15.0</ele><time>2026-04-28T14:03:34.205Z</time></trkpt><trkpt lat="38.1602567" lon="15.1959567"><ele>15.0</ele><time>2026-04-28T14:03:35.205Z</time></trkpt><trkpt lat="38.1605083" lon="15.1964483"><ele>14.5</ele><time>2026-04-28T14:03:36.205Z</time></trkpt><trkpt lat="38.1607517" lon="15.1969067"><ele>14.0</ele><time>2026-04-28T14:03:37.206Z</time></trkpt><trkpt lat="38.16098" lon="15.1973283"><ele>14.5</ele><time>2026-04-28T14:03:38.205Z</time></trkpt><trkpt lat="38.1611883" lon="15.197705"><ele>15.0</ele><time>2026-04-28T14:03:39.205Z</time></trkpt><trkpt lat="38.1613833" lon="15.1980567"><ele>16.5</ele><time>2026-04-28T14:03:40.205Z</time></trkpt><trkpt lat="38.1615783" lon="15.1983883"><ele>18.0</ele><time>2026-04-28T14:03:41.205Z</time></trkpt><trkpt lat="38.1617683" lon="15.1987117"><ele>17.5</ele><time>2026-04-28T14:03:42.205Z</time></trkpt><trkpt lat="38.1619567" lon="15.1990317"><ele>17.0</ele><time>2026-04-28T14:03:43.205Z</time></trkpt><trkpt lat="38.1621367" lon="15.19935"><ele>17.0</ele><time>2026-04-28T14:03:44.205Z</time></trkpt><trkpt lat="38.16231" lon="15.19967"><ele>17.0</ele><time>2026-04-28T14:03:45.205Z</time></trkpt><trkpt lat="38.162475" lon="15.1999817"><ele>18.0</ele><time>2026-04-28T14:03:46.205Z</time></trkpt><trkpt lat="38.1626217" lon="15.200295"><ele>19.0</ele><time>2026-04-28T14:03:47.205Z</time></trkpt><trkpt lat="38.1627567" lon="15.2006117"><ele>20.0</ele><time>2026-04-28T14:03:48.205Z</time></trkpt><trkpt lat="38.162875" lon="15.2009133"><ele>21.0</ele><time>2026-04-28T14:03:49.205Z</time></trkpt><trkpt lat="38.1629833" lon="15.201225"><ele>20.0</ele><time>2026-04-28T14:03:50.205Z</time></trkpt><trkpt lat="38.1630867" lon="15.2015283"><ele>19.0</ele><time>2026-04-28T14:03:51.205Z</time></trkpt><trkpt lat="38.1631867" lon="15.2018367"><ele>18.0</ele><time>2026-04-28T14:03:52.206Z</time></trkpt><trkpt lat="38.163275" lon="15.2021467"><ele>17.0</ele><time>2026-04-28T14:03:53.205Z</time></trkpt><trkpt lat="38.1633517" lon="15.2024467"><ele>16.5</ele><time>2026-04-28T14:03:54.206Z</time></trkpt><trkpt lat="38.1634133" lon="15.2027333"><ele>16.0</ele><time>2026-04-28T14:03:55.205Z</time></trkpt><trkpt lat="38.1634733" lon="15.20301"><ele>16.0</ele><time>2026-04-28T14:03:56.205Z</time></trkpt><trkpt lat="38.1635233" lon="15.203275"><ele>16.0</ele><time>2026-04-28T14:03:57.206Z</time></trkpt><trkpt lat="38.163565" lon="15.2035317"><ele>16.0</ele><time>2026-04-28T14:03:58.205Z</time></trkpt><trkpt lat="38.1636033" lon="15.2037733"><ele>16.666666666666664</ele><time>2026-04-28T14:03:59.205Z</time></trkpt><trkpt lat="38.1636383" lon="15.204015"><ele>17.333333333333332</ele><time>2026-04-28T14:04:00.206Z</time></trkpt><trkpt lat="38.1636667" lon="15.2042617"><ele>18.0</ele><time>2026-04-28T14:04:01.205Z</time></trkpt><trkpt lat="38.1636917" lon="15.204495"><ele>18.0</ele><time>2026-04-28T14:04:02.205Z</time></trkpt><trkpt lat="38.1637133" lon="15.20472"><ele>18.0</ele><time>2026-04-28T14:04:03.205Z</time></trkpt><trkpt lat="38.163735" lon="15.2049467"><ele>18.0</ele><time>2026-04-28T14:04:04.205Z</time></trkpt><trkpt lat="38.1637533" lon="15.2051717"><ele>18.0</ele><time>2026-04-28T14:04:05.206Z</time></trkpt><trkpt lat="38.16377" lon="15.2053933"><ele>18.0</ele><time>2026-04-28T14:04:06.205Z</time></trkpt><trkpt lat="38.163785" lon="15.2056033"><ele>18.0</ele><time>2026-04-28T14:04:07.205Z</time></trkpt><trkpt lat="38.1638017" lon="15.2058033"><ele>17.666666666666668</ele><time>2026-04-28T14:04:08.205Z</time></trkpt><trkpt lat="38.1638183" lon="15.2060067"><ele>17.333333333333336</ele><time>2026-04-28T14:04:09.205Z</time></trkpt><trkpt lat="38.1638367" lon="15.2062167"><ele>17.0</ele><time>2026-04-28T14:04:10.205Z</time></trkpt><trkpt lat="38.163865" lon="15.2064433"><ele>17.333333333333336</ele><time>2026-04-28T14:04:11.206Z</time></trkpt><trkpt lat="38.1638833" lon="15.2066883"><ele>17.666666666666668</ele><time>2026-04-28T14:04:12.205Z</time></trkpt><trkpt lat="38.1639" lon="15.206945"><ele>18.0</ele><time>2026-04-28T14:04:13.206Z</time></trkpt><trkpt lat="38.16392" lon="15.2072117"><ele>18.666666666666668</ele><time>2026-04-28T14:04:14.205Z</time></trkpt><trkpt lat="38.1639417" lon="15.2074833"><ele>19.333333333333336</ele><time>2026-04-28T14:04:15.205Z</time></trkpt><trkpt lat="38.163965" lon="15.2077667"><ele>20.0</ele><time>2026-04-28T14:04:16.205Z</time></trkpt><trkpt lat="38.1639967" lon="15.208055"><ele>18.5</ele><time>2026-04-28T14:04:17.205Z</time></trkpt><trkpt lat="38.1640317" lon="15.208345"><ele>17.0</ele><time>2026-04-28T14:04:18.206Z</time></trkpt><trkpt lat="38.1640683" lon="15.20864"><ele>17.0</ele><time>2026-04-28T14:04:19.205Z</time></trkpt><trkpt lat="38.16411" lon="15.2089333"><ele>17.0</ele><time>2026-04-28T14:04:20.205Z</time></trkpt><trkpt lat="38.1641583" lon="15.20922"><ele>17.666666666666668</ele><time>2026-04-28T14:04:21.205Z</time></trkpt><trkpt lat="38.1642167" lon="15.2095033"><ele>18.333333333333332</ele><time>2026-04-28T14:04:22.206Z</time></trkpt><trkpt lat="38.1642767" lon="15.20977"><ele>19.0</ele><time>2026-04-28T14:04:23.205Z</time></trkpt><trkpt lat="38.164345" lon="15.2100417"><ele>20.0</ele><time>2026-04-28T14:04:24.205Z</time></trkpt><trkpt lat="38.164415" lon="15.2103"><ele>21.0</ele><time>2026-04-28T14:04:25.205Z</time></trkpt><trkpt lat="38.1644917" lon="15.2105617"><ele>22.0</ele><time>2026-04-28T14:04:26.205Z</time></trkpt><trkpt lat="38.1645633" lon="15.210825"><ele>22.0</ele><time>2026-04-28T14:04:27.205Z</time></trkpt><trkpt lat="38.1646517" lon="15.211085"><ele>22.0</ele><time>2026-04-28T14:04:28.205Z</time></trkpt><trkpt lat="38.1647483" lon="15.211355"><ele>22.0</ele><time>2026-04-28T14:04:29.205Z</time></trkpt><trkpt lat="38.1648533" lon="15.2116433"><ele>22.0</ele><time>2026-04-28T14:04:30.205Z</time></trkpt><trkpt lat="38.1649717" lon="15.2119383"><ele>21.0</ele><time>2026-04-28T14:04:31.205Z</time></trkpt><trkpt lat="38.1650983" lon="15.21224"><ele>20.0</ele><time>2026-04-28T14:04:32.206Z</time></trkpt><trkpt lat="38.165235" lon="15.2125383"><ele>20.0</ele><time>2026-04-28T14:04:33.206Z</time></trkpt><trkpt lat="38.165375" lon="15.2128383"><ele>20.0</ele><time>2026-04-28T14:04:34.205Z</time></trkpt><trkpt lat="38.16551" lon="15.2131317"><ele>20.0</ele><time>2026-04-28T14:04:35.205Z</time></trkpt><trkpt lat="38.1656467" lon="15.21342"><ele>20.0</ele><time>2026-04-28T14:04:36.206Z</time></trkpt><trkpt lat="38.16578" lon="15.2137033"><ele>20.0</ele><time>2026-04-28T14:04:37.205Z</time></trkpt><trkpt lat="38.1659067" lon="15.21397"><ele>20.0</ele><time>2026-04-28T14:04:38.205Z</time></trkpt><trkpt lat="38.1660267" lon="15.2142267"><ele>20.0</ele><time>2026-04-28T14:04:39.205Z</time></trkpt><trkpt lat="38.1661433" lon="15.21447"><ele>20.0</ele><time>2026-04-28T14:04:40.205Z</time></trkpt><trkpt lat="38.1662583" lon="15.21472"><ele>20.0</ele><time>2026-04-28T14:04:41.205Z</time></trkpt><trkpt lat="38.1663667" lon="15.2149633"><ele>20.0</ele><time>2026-04-28T14:04:42.205Z</time></trkpt><trkpt lat="38.1664683" lon="15.2152183"><ele>20.0</ele><time>2026-04-28T14:04:43.205Z</time></trkpt><trkpt lat="38.16657" lon="15.2154817"><ele>22.0</ele><time>2026-04-28T14:04:44.205Z</time></trkpt><trkpt lat="38.16669" lon="15.2157317"><ele>24.0</ele><time>2026-04-28T14:04:45.206Z</time></trkpt><trkpt lat="38.16682" lon="15.2159933"><ele>24.0</ele><time>2026-04-28T14:04:46.205Z</time></trkpt><trkpt lat="38.16693" lon="15.2162583"><ele>24.0</ele><time>2026-04-28T14:04:47.205Z</time></trkpt><trkpt lat="38.16701" lon="15.2165283"><ele>22.5</ele><time>2026-04-28T14:04:48.205Z</time></trkpt><trkpt lat="38.1670983" lon="15.2167983"><ele>21.0</ele><time>2026-04-28T14:04:49.205Z</time></trkpt><trkpt lat="38.1671817" lon="15.2170667"><ele>21.0</ele><time>2026-04-28T14:04:50.206Z</time></trkpt><trkpt lat="38.1672717" lon="15.2173367"><ele>21.0</ele><time>2026-04-28T14:04:51.205Z</time></trkpt><trkpt lat="38.1673567" lon="15.2176083"><ele>21.0</ele><time>2026-04-28T14:04:52.205Z</time></trkpt><trkpt lat="38.1674483" lon="15.2178733"><ele>21.0</ele><time>2026-04-28T14:04:53.205Z</time></trkpt><trkpt lat="38.1675333" lon="15.21814"><ele>20.5</ele><time>2026-04-28T14:04:54.206Z</time></trkpt><trkpt lat="38.1676217" lon="15.2184133"><ele>20.0</ele><time>2026-04-28T14:04:55.206Z</time></trkpt><trkpt lat="38.1677067" lon="15.2186733"><ele>20.0</ele><time>2026-04-28T14:04:56.205Z</time></trkpt><trkpt lat="38.1677933" lon="15.2189417"><ele>20.0</ele><time>2026-04-28T14:04:57.205Z</time></trkpt><trkpt lat="38.1678833" lon="15.2192133"><ele>20.5</ele><time>2026-04-28T14:04:58.205Z</time></trkpt><trkpt lat="38.167975" lon="15.2194883"><ele>21.0</ele><time>2026-04-28T14:04:59.205Z</time></trkpt><trkpt lat="38.16806" lon="15.2197467"><ele>21.5</ele><time>2026-04-28T14:05:00.206Z</time></trkpt><trkpt lat="38.1681483" lon="15.220015"><ele>22.0</ele><time>2026-04-28T14:05:01.205Z</time></trkpt><trkpt lat="38.1682333" lon="15.2202817"><ele>22.5</ele><time>2026-04-28T14:05:02.205Z</time></trkpt><trkpt lat="38.1683217" lon="15.220555"><ele>23.0</ele><time>2026-04-28T14:05:03.206Z</time></trkpt><trkpt lat="38.16841" lon="15.22083"><ele>23.0</ele><time>2026-04-28T14:05:04.206Z</time></trkpt><trkpt lat="38.1685" lon="15.2211"><ele>23.0</ele><time>2026-04-28T14:05:05.205Z</time></trkpt><trkpt lat="38.1685883" lon="15.2213683"><ele>23.5</ele><time>2026-04-28T14:05:06.205Z</time></trkpt><trkpt lat="38.168675" lon="15.2216383"><ele>24.0</ele><time>2026-04-28T14:05:07.206Z</time></trkpt><trkpt lat="38.1687583" lon="15.2219067"><ele>24.0</ele><time>2026-04-28T14:05:08.205Z</time></trkpt><trkpt lat="38.1688383" lon="15.2221767"><ele>24.0</ele><time>2026-04-28T14:05:09.205Z</time></trkpt><trkpt lat="38.1689233" lon="15.222455"><ele>24.0</ele><time>2026-04-28T14:05:10.206Z</time></trkpt><trkpt lat="38.1690067" lon="15.222725"><ele>24.0</ele><time>2026-04-28T14:05:11.205Z</time></trkpt><trkpt lat="38.1690917" lon="15.2229883"><ele>24.333333333333336</ele><time>2026-04-28T14:05:12.206Z</time></trkpt><trkpt lat="38.169175" lon="15.2232433"><ele>24.666666666666668</ele><time>2026-04-28T14:05:13.205Z</time></trkpt><trkpt lat="38.169255" lon="15.223495"><ele>25.0</ele><time>2026-04-28T14:05:14.206Z</time></trkpt><trkpt lat="38.16934" lon="15.22375"><ele>25.0</ele><time>2026-04-28T14:05:15.205Z</time></trkpt><trkpt lat="38.1694217" lon="15.2240083"><ele>25.0</ele><time>2026-04-28T14:05:16.206Z</time></trkpt><trkpt lat="38.1695033" lon="15.2242633"><ele>25.0</ele><time>2026-04-28T14:05:17.205Z</time></trkpt><trkpt lat="38.1695833" lon="15.2245117"><ele>25.0</ele><time>2026-04-28T14:05:18.206Z</time></trkpt><trkpt lat="38.1696667" lon="15.2247567"><ele>25.0</ele><time>2026-04-28T14:05:19.205Z</time></trkpt><trkpt lat="38.1697433" lon="15.2249983"><ele>25.0</ele><time>2026-04-28T14:05:20.205Z</time></trkpt><trkpt lat="38.1698217" lon="15.2252433"><ele>25.666666666666668</ele><time>2026-04-28T14:05:21.205Z</time></trkpt><trkpt lat="38.1699033" lon="15.2254883"><ele>26.333333333333336</ele><time>2026-04-28T14:05:22.205Z</time></trkpt><trkpt lat="38.169985" lon="15.225735"><ele>27.0</ele><time>2026-04-28T14:05:23.205Z</time></trkpt><trkpt lat="38.17007" lon="15.2259917"><ele>28.0</ele><time>2026-04-28T14:05:24.205Z</time></trkpt><trkpt lat="38.1701517" lon="15.2262433"><ele>29.0</ele><time>2026-04-28T14:05:25.205Z</time></trkpt><trkpt lat="38.1702367" lon="15.226505"><ele>30.0</ele><time>2026-04-28T14:05:26.205Z</time></trkpt><trkpt lat="38.1703217" lon="15.2267683"><ele>30.0</ele><time>2026-04-28T14:05:27.205Z</time></trkpt><trkpt lat="38.1704033" lon="15.2270283"><ele>30.0</ele><time>2026-04-28T14:05:28.205Z</time></trkpt><trkpt lat="38.1704917" lon="15.2273"><ele>29.666666666666664</ele><time>2026-04-28T14:05:29.205Z</time></trkpt><trkpt lat="38.1705783" lon="15.227565"><ele>29.333333333333332</ele><time>2026-04-28T14:05:30.206Z</time></trkpt><trkpt lat="38.1706633" lon="15.22782"><ele>29.0</ele><time>2026-04-28T14:05:31.206Z</time></trkpt><trkpt lat="38.1707467" lon="15.2280817"><ele>31.5</ele><time>2026-04-28T14:05:32.205Z</time></trkpt><trkpt lat="38.1708283" lon="15.2283533"><ele>34.0</ele><time>2026-04-28T14:05:33.205Z</time></trkpt><trkpt lat="38.1709133" lon="15.228625"><ele>34.0</ele><time>2026-04-28T14:05:34.205Z</time></trkpt><trkpt lat="38.170985" lon="15.2288967"><ele>34.0</ele><time>2026-04-28T14:05:35.205Z</time></trkpt><trkpt lat="38.1710517" lon="15.2291733"><ele>33.0</ele><time>2026-04-28T14:05:36.205Z</time></trkpt><trkpt lat="38.1711167" lon="15.229445"><ele>32.0</ele><time>2026-04-28T14:05:37.206Z</time></trkpt><trkpt lat="38.171185" lon="15.22972"><ele>32.5</ele><time>2026-04-28T14:05:38.205Z</time></trkpt><trkpt lat="38.1712517" lon="15.2300033"><ele>33.0</ele><time>2026-04-28T14:05:39.205Z</time></trkpt><trkpt lat="38.171315" lon="15.2302867"><ele>33.0</ele><time>2026-04-28T14:05:40.205Z</time></trkpt><trkpt lat="38.1713783" lon="15.2305683"><ele>33.0</ele><time>2026-04-28T14:05:41.205Z</time></trkpt><trkpt lat="38.1714467" lon="15.2308567"><ele>32.5</ele><time>2026-04-28T14:05:42.206Z</time></trkpt><trkpt lat="38.1715167" lon="15.2311417"><ele>32.0</ele><time>2026-04-28T14:05:43.206Z</time></trkpt><trkpt lat="38.1715917" lon="15.2314167"><ele>32.5</ele><time>2026-04-28T14:05:44.205Z</time></trkpt><trkpt lat="38.17167" lon="15.2316933"><ele>33.0</ele><time>2026-04-28T14:05:45.205Z</time></trkpt><trkpt lat="38.17176" lon="15.2319667"><ele>33.0</ele><time>2026-04-28T14:05:46.206Z</time></trkpt><trkpt lat="38.1718517" lon="15.23224"><ele>33.0</ele><time>2026-04-28T14:05:47.205Z</time></trkpt><trkpt lat="38.1719433" lon="15.2325"><ele>34.0</ele><time>2026-04-28T14:05:48.205Z</time></trkpt><trkpt lat="38.1720433" lon="15.2327633"><ele>35.0</ele><time>2026-04-28T14:05:49.205Z</time></trkpt><trkpt lat="38.1721467" lon="15.2330183"><ele>36.5</ele><time>2026-04-28T14:05:50.205Z</time></trkpt><trkpt lat="38.1722533" lon="15.2332717"><ele>38.0</ele><time>2026-04-28T14:05:51.205Z</time></trkpt><trkpt lat="38.172365" lon="15.2335183"><ele>38.33333333333333</ele><time>2026-04-28T14:05:52.205Z</time></trkpt><trkpt lat="38.17248" lon="15.2337583"><ele>38.666666666666664</ele><time>2026-04-28T14:05:53.205Z</time></trkpt><trkpt lat="38.172605" lon="15.23399"><ele>39.0</ele><time>2026-04-28T14:05:54.205Z</time></trkpt><trkpt lat="38.1727283" lon="15.234225"><ele>38.666666666666664</ele><time>2026-04-28T14:05:55.205Z</time></trkpt><trkpt lat="38.1728533" lon="15.2344567"><ele>38.33333333333333</ele><time>2026-04-28T14:05:56.205Z</time></trkpt><trkpt lat="38.17298" lon="15.2346867"><ele>38.0</ele><time>2026-04-28T14:05:57.205Z</time></trkpt><trkpt lat="38.1731" lon="15.2349167"><ele>37.666666666666664</ele><time>2026-04-28T14:05:58.205Z</time></trkpt><trkpt lat="38.1732267" lon="15.235145"><ele>37.333333333333336</ele><time>2026-04-28T14:05:59.205Z</time></trkpt><trkpt lat="38.1733517" lon="15.2353733"><ele>37.0</ele><time>2026-04-28T14:06:00.205Z</time></trkpt><trkpt lat="38.1734733" lon="15.2356033"><ele>38.0</ele><time>2026-04-28T14:06:01.206Z</time></trkpt><trkpt lat="38.1735983" lon="15.235835"><ele>39.0</ele><time>2026-04-28T14:06:02.205Z</time></trkpt><trkpt lat="38.1737217" lon="15.2360633"><ele>40.0</ele><time>2026-04-28T14:06:03.205Z</time></trkpt><trkpt lat="38.1738467" lon="15.23629"><ele>40.333333333333336</ele><time>2026-04-28T14:06:04.205Z</time></trkpt><trkpt lat="38.1739683" lon="15.23652"><ele>40.666666666666664</ele><time>2026-04-28T14:06:05.205Z</time></trkpt><trkpt lat="38.1740983" lon="15.236755"><ele>41.0</ele><time>2026-04-28T14:06:06.205Z</time></trkpt><trkpt lat="38.1742317" lon="15.23699"><ele>41.0</ele><time>2026-04-28T14:06:07.206Z</time></trkpt><trkpt lat="38.174365" lon="15.2372283"><ele>41.0</ele><time>2026-04-28T14:06:08.205Z</time></trkpt><trkpt lat="38.1744983" lon="15.2374717"><ele>41.0</ele><time>2026-04-28T14:06:09.205Z</time></trkpt><trkpt lat="38.1746317" lon="15.2377133"><ele>41.0</ele><time>2026-04-28T14:06:10.206Z</time></trkpt><trkpt lat="38.1747667" lon="15.2379533"><ele>42.5</ele><time>2026-04-28T14:06:11.205Z</time></trkpt><trkpt lat="38.1749" lon="15.2382017"><ele>44.0</ele><time>2026-04-28T14:06:12.205Z</time></trkpt><trkpt lat="38.175035" lon="15.238445"><ele>44.0</ele><time>2026-04-28T14:06:13.205Z</time></trkpt><trkpt lat="38.17517" lon="15.2386883"><ele>44.0</ele><time>2026-04-28T14:06:14.205Z</time></trkpt><trkpt lat="38.1753033" lon="15.2389367"><ele>44.0</ele><time>2026-04-28T14:06:15.205Z</time></trkpt><trkpt lat="38.1754333" lon="15.2391867"><ele>44.0</ele><time>2026-04-28T14:06:16.206Z</time></trkpt><trkpt lat="38.17556" lon="15.2394467"><ele>44.0</ele><time>2026-04-28T14:06:17.205Z</time></trkpt><trkpt lat="38.1756817" lon="15.2397067"><ele>44.0</ele><time>2026-04-28T14:06:18.205Z</time></trkpt><trkpt lat="38.1757933" lon="15.2399717"><ele>43.0</ele><time>2026-04-28T14:06:19.205Z</time></trkpt><trkpt lat="38.1758933" lon="15.2402417"><ele>42.0</ele><time>2026-04-28T14:06:20.206Z</time></trkpt><trkpt lat="38.1759817" lon="15.2405283"><ele>42.5</ele><time>2026-04-28T14:06:21.205Z</time></trkpt><trkpt lat="38.1760717" lon="15.2408083"><ele>43.0</ele><time>2026-04-28T14:06:22.205Z</time></trkpt><trkpt lat="38.1761567" lon="15.2410833"><ele>43.0</ele><time>2026-04-28T14:06:23.206Z</time></trkpt><trkpt lat="38.1762383" lon="15.24136"><ele>43.0</ele><time>2026-04-28T14:06:24.205Z</time></trkpt><trkpt lat="38.1763333" lon="15.2416567"><ele>42.0</ele><time>2026-04-28T14:06:25.206Z</time></trkpt><trkpt lat="38.176425" lon="15.2419583"><ele>41.0</ele><time>2026-04-28T14:06:26.205Z</time></trkpt><trkpt lat="38.1765233" lon="15.2422667"><ele>42.0</ele><time>2026-04-28T14:06:27.205Z</time></trkpt><trkpt lat="38.1766233" lon="15.24257"><ele>43.0</ele><time>2026-04-28T14:06:28.205Z</time></trkpt><trkpt lat="38.176735" lon="15.2428633"><ele>42.0</ele><time>2026-04-28T14:06:29.205Z</time></trkpt><trkpt lat="38.1768567" lon="15.243155"><ele>41.0</ele><time>2026-04-28T14:06:30.206Z</time></trkpt><trkpt lat="38.1769917" lon="15.243445"><ele>41.0</ele><time>2026-04-28T14:06:31.205Z</time></trkpt><trkpt lat="38.1771367" lon="15.2437233"><ele>41.0</ele><time>2026-04-28T14:06:32.206Z</time></trkpt><trkpt lat="38.1772917" lon="15.2440017"><ele>42.0</ele><time>2026-04-28T14:06:33.205Z</time></trkpt><trkpt lat="38.17745" lon="15.2442667"><ele>43.0</ele><time>2026-04-28T14:06:34.205Z</time></trkpt><trkpt lat="38.1776167" lon="15.2445233"><ele>43.0</ele><time>2026-04-28T14:06:35.205Z</time></trkpt><trkpt lat="38.1777917" lon="15.244785"><ele>43.0</ele><time>2026-04-28T14:06:36.205Z</time></trkpt><trkpt lat="38.17797" lon="15.245035"><ele>43.0</ele><time>2026-04-28T14:06:37.206Z</time></trkpt><trkpt lat="38.1781467" lon="15.24528"><ele>43.0</ele><time>2026-04-28T14:06:38.205Z</time></trkpt><trkpt lat="38.1783283" lon="15.2455233"><ele>43.5</ele><time>2026-04-28T14:06:39.205Z</time></trkpt><trkpt lat="38.178505" lon="15.2457733"><ele>44.0</ele><time>2026-04-28T14:06:40.205Z</time></trkpt><trkpt lat="38.1786767" lon="15.2460183"><ele>44.0</ele><time>2026-04-28T14:06:41.205Z</time></trkpt><trkpt lat="38.1788433" lon="15.2462633"><ele>44.0</ele><time>2026-04-28T14:06:42.205Z</time></trkpt><trkpt lat="38.179015" lon="15.2465067"><ele>45.5</ele><time>2026-04-28T14:06:43.205Z</time></trkpt><trkpt lat="38.1791867" lon="15.2467617"><ele>47.0</ele><time>2026-04-28T14:06:44.206Z</time></trkpt><trkpt lat="38.1793517" lon="15.2470267"><ele>47.0</ele><time>2026-04-28T14:06:45.205Z</time></trkpt><trkpt lat="38.1795217" lon="15.2472883"><ele>47.0</ele><time>2026-04-28T14:06:46.206Z</time></trkpt><trkpt lat="38.1796767" lon="15.2475667"><ele>47.0</ele><time>2026-04-28T14:06:47.205Z</time></trkpt><trkpt lat="38.1798283" lon="15.2478483"><ele>47.0</ele><time>2026-04-28T14:06:48.205Z</time></trkpt><trkpt lat="38.179975" lon="15.2481317"><ele>46.0</ele><time>2026-04-28T14:06:49.206Z</time></trkpt><trkpt lat="38.1801183" lon="15.24842"><ele>45.0</ele><time>2026-04-28T14:06:50.206Z</time></trkpt><trkpt lat="38.180255" lon="15.2487067"><ele>44.5</ele><time>2026-04-28T14:06:51.205Z</time></trkpt><trkpt lat="38.1803933" lon="15.248995"><ele>44.0</ele><time>2026-04-28T14:06:52.205Z</time></trkpt><trkpt lat="38.1805183" lon="15.2492817"><ele>44.0</ele><time>2026-04-28T14:06:53.205Z</time></trkpt><trkpt lat="38.1806317" lon="15.2495617"><ele>44.0</ele><time>2026-04-28T14:06:54.205Z</time></trkpt><trkpt lat="38.1807317" lon="15.2498233"><ele>43.666666666666664</ele><time>2026-04-28T14:06:55.205Z</time></trkpt><trkpt lat="38.18083" lon="15.2500733"><ele>43.333333333333336</ele><time>2026-04-28T14:06:56.206Z</time></trkpt><trkpt lat="38.1809217" lon="15.2503167"><ele>43.0</ele><time>2026-04-28T14:06:57.206Z</time></trkpt><trkpt lat="38.1810067" lon="15.2505417"><ele>43.0</ele><time>2026-04-28T14:06:58.206Z</time></trkpt><trkpt lat="38.181085" lon="15.2507517"><ele>43.0</ele><time>2026-04-28T14:06:59.205Z</time></trkpt><trkpt lat="38.1811633" lon="15.2509533"><ele>43.0</ele><time>2026-04-28T14:07:00.205Z</time></trkpt><trkpt lat="38.1812317" lon="15.2511417"><ele>43.0</ele><time>2026-04-28T14:07:01.205Z</time></trkpt><trkpt lat="38.1812933" lon="15.2513167"><ele>43.0</ele><time>2026-04-28T14:07:02.205Z</time></trkpt><trkpt lat="38.1813367" lon="15.2514817"><ele>43.0</ele><time>2026-04-28T14:07:03.205Z</time></trkpt><trkpt lat="38.1813683" lon="15.251645"><ele>43.0</ele><time>2026-04-28T14:07:04.205Z</time></trkpt><trkpt lat="38.1813983" lon="15.2518"><ele>43.2</ele><time>2026-04-28T14:07:05.205Z</time></trkpt><trkpt lat="38.1814233" lon="15.2519417"><ele>43.4</ele><time>2026-04-28T14:07:06.206Z</time></trkpt><trkpt lat="38.1814517" lon="15.2520733"><ele>43.6</ele><time>2026-04-28T14:07:07.206Z</time></trkpt><trkpt lat="38.1814867" lon="15.2521917"><ele>43.800000000000004</ele><time>2026-04-28T14:07:08.205Z</time></trkpt><trkpt lat="38.18152" lon="15.2523017"><ele>44.0</ele><time>2026-04-28T14:07:09.205Z</time></trkpt><trkpt lat="38.1815517" lon="15.25239"><ele>44.0</ele><time>2026-04-28T14:07:10.205Z</time></trkpt><trkpt lat="38.1815833" lon="15.25246"><ele>44.0</ele><time>2026-04-28T14:07:11.205Z</time></trkpt><trkpt lat="38.1816133" lon="15.25254"><ele>44.0</ele><time>2026-04-28T14:07:13.205Z</time></trkpt><trkpt lat="38.18166" lon="15.25261"><ele>44.0</ele><time>2026-04-28T14:27:19.205Z</time></trkpt><trkpt lat="38.1816883" lon="15.2527283"><ele>44.0</ele><time>2026-04-28T14:27:22.205Z</time></trkpt><trkpt lat="38.1817033" lon="15.2528333"><ele>44.0</ele><time>2026-04-28T14:27:24.205Z</time></trkpt><trkpt lat="38.1817283" lon="15.2529467"><ele>44.0</ele><time>2026-04-28T14:27:26.206Z</time></trkpt><trkpt lat="38.1817717" lon="15.2530767"><ele>44.0</ele><time>2026-04-28T14:27:28.205Z</time></trkpt><trkpt lat="38.1818233" lon="15.2532033"><ele>44.0</ele><time>2026-04-28T14:27:30.205Z</time></trkpt><trkpt lat="38.1818867" lon="15.2533267"><ele>44.0</ele><time>2026-04-28T14:27:32.205Z</time></trkpt><trkpt lat="38.18195" lon="15.2534317"><ele>44.0</ele><time>2026-04-28T14:27:34.205Z</time></trkpt><trkpt lat="38.18201" lon="15.253545"><ele>44.400000000000006</ele><time>2026-04-28T14:27:36.205Z</time></trkpt><trkpt lat="38.1820567" lon="15.2536617"><ele>44.8</ele><time>2026-04-28T14:27:38.205Z</time></trkpt><trkpt lat="38.1821083" lon="15.2537833"><ele>45.2</ele><time>2026-04-28T14:27:40.205Z</time></trkpt><trkpt lat="38.1821567" lon="15.2539017"><ele>45.599999999999994</ele><time>2026-04-28T14:27:42.205Z</time></trkpt><trkpt lat="38.182215" lon="15.2540333"><ele>46.0</ele><time>2026-04-28T14:27:44.204Z</time></trkpt><trkpt lat="38.182285" lon="15.2541567"><ele>45.599999999999994</ele><time>2026-04-28T14:27:46.204Z</time></trkpt><trkpt lat="38.182365" lon="15.25427"><ele>45.2</ele><time>2026-04-28T14:27:48.204Z</time></trkpt><trkpt lat="38.1824517" lon="15.2543817"><ele>44.8</ele><time>2026-04-28T14:27:50.204Z</time></trkpt><trkpt lat="38.1824967" lon="15.2544433"><ele>44.400000000000006</ele><time>2026-04-28T14:27:51.204Z</time></trkpt><trkpt lat="38.1825467" lon="15.2545083"><ele>44.0</ele><time>2026-04-28T14:27:52.205Z</time></trkpt><trkpt lat="38.18259" lon="15.2545783"><ele>44.0</ele><time>2026-04-28T14:27:53.204Z</time></trkpt><trkpt lat="38.182635" lon="15.2546533"><ele>44.0</ele><time>2026-04-28T14:27:54.204Z</time></trkpt><trkpt lat="38.1826717" lon="15.25474"><ele>44.0</ele><time>2026-04-28T14:27:55.204Z</time></trkpt><trkpt lat="38.1827117" lon="15.2548317"><ele>44.0</ele><time>2026-04-28T14:27:56.204Z</time></trkpt><trkpt lat="38.1827483" lon="15.2549217"><ele>44.0</ele><time>2026-04-28T14:27:57.205Z</time></trkpt><trkpt lat="38.1827867" lon="15.25502"><ele>44.0</ele><time>2026-04-28T14:27:58.204Z</time></trkpt><trkpt lat="38.1828267" lon="15.2551267"><ele>44.6</ele><time>2026-04-28T14:27:59.204Z</time></trkpt><trkpt lat="38.1828717" lon="15.2552433"><ele>45.2</ele><time>2026-04-28T14:28:00.204Z</time></trkpt><trkpt lat="38.18292" lon="15.2553617"><ele>45.800000000000004</ele><time>2026-04-28T14:28:01.204Z</time></trkpt><trkpt lat="38.1829717" lon="15.2554867"><ele>46.400000000000006</ele><time>2026-04-28T14:28:02.205Z</time></trkpt><trkpt lat="38.1830283" lon="15.2556233"><ele>47.0</ele><time>2026-04-28T14:28:03.204Z</time></trkpt><trkpt lat="38.1830883" lon="15.2557717"><ele>47.5</ele><time>2026-04-28T14:28:04.205Z</time></trkpt><trkpt lat="38.1831517" lon="15.2559283"><ele>48.0</ele><time>2026-04-28T14:28:05.204Z</time></trkpt><trkpt lat="38.18322" lon="15.256085"><ele>48.5</ele><time>2026-04-28T14:28:06.204Z</time></trkpt><trkpt lat="38.183295" lon="15.25625"><ele>49.0</ele><time>2026-04-28T14:28:07.204Z</time></trkpt><trkpt lat="38.1833717" lon="15.2564317"><ele>48.666666666666664</ele><time>2026-04-28T14:28:08.204Z</time></trkpt><trkpt lat="38.1834467" lon="15.2566183"><ele>48.33333333333333</ele><time>2026-04-28T14:28:09.204Z</time></trkpt><trkpt lat="38.1835233" lon="15.25681"><ele>48.0</ele><time>2026-04-28T14:28:10.205Z</time></trkpt><trkpt lat="38.1836017" lon="15.2570017"><ele>48.0</ele><time>2026-04-28T14:28:11.204Z</time></trkpt><trkpt lat="38.1836767" lon="15.2572017"><ele>48.0</ele><time>2026-04-28T14:28:12.205Z</time></trkpt><trkpt lat="38.1837617" lon="15.2574083"><ele>48.0</ele><time>2026-04-28T14:28:13.205Z</time></trkpt><trkpt lat="38.1838467" lon="15.257615"><ele>48.0</ele><time>2026-04-28T14:28:14.205Z</time></trkpt><trkpt lat="38.1839317" lon="15.25782"><ele>48.0</ele><time>2026-04-28T14:28:15.204Z</time></trkpt><trkpt lat="38.1840167" lon="15.25803"><ele>48.0</ele><time>2026-04-28T14:28:16.205Z</time></trkpt><trkpt lat="38.1841017" lon="15.2582417"><ele>48.0</ele><time>2026-04-28T14:28:17.204Z</time></trkpt><trkpt lat="38.1841917" lon="15.2584517"><ele>48.0</ele><time>2026-04-28T14:28:18.204Z</time></trkpt><trkpt lat="38.1842833" lon="15.2586633"><ele>48.0</ele><time>2026-04-28T14:28:19.204Z</time></trkpt><trkpt lat="38.1843733" lon="15.2588783"><ele>48.33333333333333</ele><time>2026-04-28T14:28:20.204Z</time></trkpt><trkpt lat="38.1844667" lon="15.2590917"><ele>48.666666666666664</ele><time>2026-04-28T14:28:21.204Z</time></trkpt><trkpt lat="38.1845667" lon="15.25931"><ele>49.0</ele><time>2026-04-28T14:28:22.204Z</time></trkpt><trkpt lat="38.1846667" lon="15.2595283"><ele>49.0</ele><time>2026-04-28T14:28:23.204Z</time></trkpt><trkpt lat="38.1847667" lon="15.25975"><ele>49.0</ele><time>2026-04-28T14:28:24.204Z</time></trkpt><trkpt lat="38.1848733" lon="15.25997"><ele>49.0</ele><time>2026-04-28T14:28:25.204Z</time></trkpt><trkpt lat="38.1849767" lon="15.2601933"><ele>48.666666666666664</ele><time>2026-04-28T14:28:26.205Z</time></trkpt><trkpt lat="38.1850783" lon="15.260415"><ele>48.33333333333333</ele><time>2026-04-28T14:28:27.204Z</time></trkpt><trkpt lat="38.18519" lon="15.2606383"><ele>48.0</ele><time>2026-04-28T14:28:28.204Z</time></trkpt><trkpt lat="38.185305" lon="15.2608567"><ele>49.33333333333333</ele><time>2026-04-28T14:28:29.205Z</time></trkpt><trkpt lat="38.1854183" lon="15.2610867"><ele>50.666666666666664</ele><time>2026-04-28T14:28:30.205Z</time></trkpt><trkpt lat="38.1855333" lon="15.2613183"><ele>52.0</ele><time>2026-04-28T14:28:31.204Z</time></trkpt><trkpt lat="38.1856517" lon="15.2615517"><ele>51.0</ele><time>2026-04-28T14:28:32.204Z</time></trkpt><trkpt lat="38.1857683" lon="15.2617867"><ele>50.0</ele><time>2026-04-28T14:28:33.204Z</time></trkpt><trkpt lat="38.1858933" lon="15.26202"><ele>49.0</ele><time>2026-04-28T14:28:34.204Z</time></trkpt><trkpt lat="38.1860233" lon="15.262255"><ele>49.0</ele><time>2026-04-28T14:28:35.204Z</time></trkpt><trkpt lat="38.1861533" lon="15.2624933"><ele>49.0</ele><time>2026-04-28T14:28:36.204Z</time></trkpt><trkpt lat="38.18628" lon="15.2627367"><ele>49.0</ele><time>2026-04-28T14:28:37.204Z</time></trkpt><trkpt lat="38.1864033" lon="15.26298"><ele>49.0</ele><time>2026-04-28T14:28:38.204Z</time></trkpt><trkpt lat="38.18653" lon="15.2632267"><ele>50.0</ele><time>2026-04-28T14:28:39.204Z</time></trkpt><trkpt lat="38.1866617" lon="15.2634767"><ele>51.0</ele><time>2026-04-28T14:28:40.204Z</time></trkpt><trkpt lat="38.18679" lon="15.26372"><ele>50.0</ele><time>2026-04-28T14:28:41.204Z</time></trkpt><trkpt lat="38.1869167" lon="15.26397"><ele>49.0</ele><time>2026-04-28T14:28:42.204Z</time></trkpt><trkpt lat="38.18704" lon="15.2642133"><ele>49.0</ele><time>2026-04-28T14:28:43.204Z</time></trkpt><trkpt lat="38.1871633" lon="15.2644567"><ele>49.0</ele><time>2026-04-28T14:28:44.204Z</time></trkpt><trkpt lat="38.18729" lon="15.2647067"><ele>46.0</ele><time>2026-04-28T14:28:45.205Z</time></trkpt><trkpt lat="38.187415" lon="15.2649617"><ele>43.0</ele><time>2026-04-28T14:28:46.204Z</time></trkpt><trkpt lat="38.187545" lon="15.2652117"><ele>43.0</ele><time>2026-04-28T14:28:47.204Z</time></trkpt><trkpt lat="38.1876733" lon="15.2654583"><ele>43.0</ele><time>2026-04-28T14:28:48.204Z</time></trkpt><trkpt lat="38.1878017" lon="15.2657083"><ele>43.0</ele><time>2026-04-28T14:28:49.204Z</time></trkpt><trkpt lat="38.1879267" lon="15.2659567"><ele>43.0</ele><time>2026-04-28T14:28:50.204Z</time></trkpt><trkpt lat="38.1880583" lon="15.266205"><ele>41.0</ele><time>2026-04-28T14:28:51.204Z</time></trkpt><trkpt lat="38.188185" lon="15.2664483"><ele>39.0</ele><time>2026-04-28T14:28:52.205Z</time></trkpt><trkpt lat="38.1883133" lon="15.2666933"><ele>39.0</ele><time>2026-04-28T14:28:53.204Z</time></trkpt><trkpt lat="38.18844" lon="15.2669383"><ele>39.0</ele><time>2026-04-28T14:28:54.204Z</time></trkpt><trkpt lat="38.188565" lon="15.267185"><ele>37.0</ele><time>2026-04-28T14:28:55.204Z</time></trkpt><trkpt lat="38.1886917" lon="15.2674317"><ele>35.0</ele><time>2026-04-28T14:28:56.204Z</time></trkpt><trkpt lat="38.18882" lon="15.2676783"><ele>35.0</ele><time>2026-04-28T14:28:57.204Z</time></trkpt><trkpt lat="38.1889467" lon="15.2679283"><ele>35.0</ele><time>2026-04-28T14:28:58.204Z</time></trkpt><trkpt lat="38.1890733" lon="15.2681717"><ele>35.0</ele><time>2026-04-28T14:28:59.204Z</time></trkpt><trkpt lat="38.1892017" lon="15.2684117"><ele>35.0</ele><time>2026-04-28T14:29:00.204Z</time></trkpt><trkpt lat="38.1893283" lon="15.2686533"><ele>35.0</ele><time>2026-04-28T14:29:01.204Z</time></trkpt><trkpt lat="38.1894533" lon="15.26889"><ele>35.0</ele><time>2026-04-28T14:29:02.205Z</time></trkpt><trkpt lat="38.1895833" lon="15.269135"><ele>35.5</ele><time>2026-04-28T14:29:03.204Z</time></trkpt><trkpt lat="38.1897117" lon="15.2693817"><ele>36.0</ele><time>2026-04-28T14:29:04.205Z</time></trkpt><trkpt lat="38.18984" lon="15.2696283"><ele>34.5</ele><time>2026-04-28T14:29:05.204Z</time></trkpt><trkpt lat="38.1899667" lon="15.2698733"><ele>33.0</ele><time>2026-04-28T14:29:06.204Z</time></trkpt><trkpt lat="38.1900933" lon="15.2701183"><ele>33.0</ele><time>2026-04-28T14:29:07.204Z</time></trkpt><trkpt lat="38.1902183" lon="15.2703667"><ele>33.0</ele><time>2026-04-28T14:29:08.204Z</time></trkpt><trkpt lat="38.1903433" lon="15.2706133"><ele>33.0</ele><time>2026-04-28T14:29:09.204Z</time></trkpt><trkpt lat="38.19047" lon="15.2708567"><ele>33.0</ele><time>2026-04-28T14:29:10.205Z</time></trkpt><trkpt lat="38.1905967" lon="15.2711033"><ele>33.5</ele><time>2026-04-28T14:29:11.204Z</time></trkpt><trkpt lat="38.1907233" lon="15.2713483"><ele>34.0</ele><time>2026-04-28T14:29:12.205Z</time></trkpt><trkpt lat="38.19085" lon="15.271595"><ele>34.0</ele><time>2026-04-28T14:29:13.204Z</time></trkpt><trkpt lat="38.19098" lon="15.27184"><ele>34.0</ele><time>2026-04-28T14:29:14.204Z</time></trkpt><trkpt lat="38.1911083" lon="15.2720833"><ele>33.5</ele><time>2026-04-28T14:29:15.205Z</time></trkpt><trkpt lat="38.191235" lon="15.2723267"><ele>33.0</ele><time>2026-04-28T14:29:16.204Z</time></trkpt><trkpt lat="38.1913617" lon="15.27258"><ele>33.0</ele><time>2026-04-28T14:29:17.204Z</time></trkpt><trkpt lat="38.1914867" lon="15.272825"><ele>33.0</ele><time>2026-04-28T14:29:18.204Z</time></trkpt><trkpt lat="38.191605" lon="15.2730767"><ele>32.5</ele><time>2026-04-28T14:29:19.205Z</time></trkpt><trkpt lat="38.1917167" lon="15.27333"><ele>32.0</ele><time>2026-04-28T14:29:20.204Z</time></trkpt><trkpt lat="38.19182" lon="15.2735933"><ele>32.0</ele><time>2026-04-28T14:29:21.204Z</time></trkpt><trkpt lat="38.1919167" lon="15.2738583"><ele>32.0</ele><time>2026-04-28T14:29:22.204Z</time></trkpt><trkpt lat="38.1920017" lon="15.274135"><ele>32.5</ele><time>2026-04-28T14:29:23.204Z</time></trkpt><trkpt lat="38.1920783" lon="15.2744117"><ele>33.0</ele><time>2026-04-28T14:29:24.204Z</time></trkpt><trkpt lat="38.1921517" lon="15.2746917"><ele>31.5</ele><time>2026-04-28T14:29:25.204Z</time></trkpt><trkpt lat="38.19222" lon="15.2749717"><ele>30.0</ele><time>2026-04-28T14:29:26.204Z</time></trkpt><trkpt lat="38.1922817" lon="15.2752533"><ele>30.0</ele><time>2026-04-28T14:29:27.205Z</time></trkpt><trkpt lat="38.1923333" lon="15.2755367"><ele>30.0</ele><time>2026-04-28T14:29:28.205Z</time></trkpt><trkpt lat="38.1923783" lon="15.27583"><ele>30.0</ele><time>2026-04-28T14:29:29.205Z</time></trkpt><trkpt lat="38.1924117" lon="15.2761233"><ele>30.0</ele><time>2026-04-28T14:29:30.204Z</time></trkpt><trkpt lat="38.1924367" lon="15.2764233"><ele>31.0</ele><time>2026-04-28T14:29:31.205Z</time></trkpt><trkpt lat="38.1924533" lon="15.27672"><ele>32.0</ele><time>2026-04-28T14:29:32.204Z</time></trkpt><trkpt lat="38.1924667" lon="15.2770133"><ele>32.5</ele><time>2026-04-28T14:29:33.204Z</time></trkpt><trkpt lat="38.1924717" lon="15.2773083"><ele>33.0</ele><time>2026-04-28T14:29:34.204Z</time></trkpt><trkpt lat="38.192475" lon="15.2776"><ele>33.0</ele><time>2026-04-28T14:29:35.204Z</time></trkpt><trkpt lat="38.1924833" lon="15.27789"><ele>33.0</ele><time>2026-04-28T14:29:36.204Z</time></trkpt><trkpt lat="38.1924917" lon="15.278185"><ele>34.5</ele><time>2026-04-28T14:29:37.204Z</time></trkpt><trkpt lat="38.192505" lon="15.2784667"><ele>36.0</ele><time>2026-04-28T14:29:38.204Z</time></trkpt><trkpt lat="38.1925183" lon="15.2787583"><ele>36.0</ele><time>2026-04-28T14:29:39.204Z</time></trkpt><trkpt lat="38.19253" lon="15.279055"><ele>36.0</ele><time>2026-04-28T14:29:40.205Z</time></trkpt><trkpt lat="38.19254" lon="15.279345"><ele>36.0</ele><time>2026-04-28T14:29:41.204Z</time></trkpt><trkpt lat="38.192555" lon="15.2796383"><ele>36.0</ele><time>2026-04-28T14:29:42.204Z</time></trkpt><trkpt lat="38.1925717" lon="15.27993"><ele>36.0</ele><time>2026-04-28T14:29:43.204Z</time></trkpt><trkpt lat="38.1925933" lon="15.2802233"><ele>36.0</ele><time>2026-04-28T14:29:44.204Z</time></trkpt><trkpt lat="38.192625" lon="15.2805233"><ele>37.5</ele><time>2026-04-28T14:29:45.204Z</time></trkpt><trkpt lat="38.1926617" lon="15.2808317"><ele>39.0</ele><time>2026-04-28T14:29:46.204Z</time></trkpt><trkpt lat="38.1927133" lon="15.2811433"><ele>43.5</ele><time>2026-04-28T14:29:47.205Z</time></trkpt><trkpt lat="38.192775" lon="15.281455"><ele>48.0</ele><time>2026-04-28T14:29:48.205Z</time></trkpt><trkpt lat="38.19284" lon="15.281765"><ele>48.0</ele><time>2026-04-28T14:29:49.204Z</time></trkpt><trkpt lat="38.192905" lon="15.2820717"><ele>48.0</ele><time>2026-04-28T14:29:50.205Z</time></trkpt><trkpt lat="38.192975" lon="15.2823833"><ele>51.5</ele><time>2026-04-28T14:29:51.204Z</time></trkpt><trkpt lat="38.1930517" lon="15.2826933"><ele>55.0</ele><time>2026-04-28T14:29:52.205Z</time></trkpt><trkpt lat="38.1931333" lon="15.28301"><ele>51.0</ele><time>2026-04-28T14:29:53.204Z</time></trkpt><trkpt lat="38.1932183" lon="15.28332"><ele>47.0</ele><time>2026-04-28T14:29:54.204Z</time></trkpt><trkpt lat="38.1933033" lon="15.2836283"><ele>52.0</ele><time>2026-04-28T14:29:55.204Z</time></trkpt><trkpt lat="38.1933917" lon="15.28394"><ele>57.0</ele><time>2026-04-28T14:29:56.204Z</time></trkpt><trkpt lat="38.193475" lon="15.2842567"><ele>57.0</ele><time>2026-04-28T14:29:57.205Z</time></trkpt><trkpt lat="38.1935533" lon="15.28457"><ele>57.0</ele><time>2026-04-28T14:29:58.204Z</time></trkpt><trkpt lat="38.1936283" lon="15.284885"><ele>53.5</ele><time>2026-04-28T14:29:59.204Z</time></trkpt><trkpt lat="38.1937" lon="15.2852067"><ele>50.0</ele><time>2026-04-28T14:30:00.204Z</time></trkpt><trkpt lat="38.1937683" lon="15.2855367"><ele>49.0</ele><time>2026-04-28T14:30:01.204Z</time></trkpt><trkpt lat="38.1938233" lon="15.2858683"><ele>48.0</ele><time>2026-04-28T14:30:02.204Z</time></trkpt><trkpt lat="38.1938767" lon="15.2862"><ele>51.0</ele><time>2026-04-28T14:30:03.204Z</time></trkpt><trkpt lat="38.1939317" lon="15.2865283"><ele>54.0</ele><time>2026-04-28T14:30:04.204Z</time></trkpt><trkpt lat="38.1939833" lon="15.2868567"><ele>56.0</ele><time>2026-04-28T14:30:05.205Z</time></trkpt><trkpt lat="38.19404" lon="15.2871717"><ele>58.0</ele><time>2026-04-28T14:30:06.204Z</time></trkpt><trkpt lat="38.194095" lon="15.287495"><ele>45.0</ele><time>2026-04-28T14:30:07.204Z</time></trkpt><trkpt lat="38.1944317" lon="15.28937"><ele>45.0</ele><time>2026-04-28T14:30:12.207Z</time></trkpt><trkpt lat="38.1944733" lon="15.2896967"><ele>45.0</ele><time>2026-04-28T14:30:13.207Z</time></trkpt><trkpt lat="38.1945183" lon="15.290045"><ele>37.5</ele><time>2026-04-28T14:30:14.207Z</time></trkpt><trkpt lat="38.1945633" lon="15.290385"><ele>30.0</ele><time>2026-04-28T14:30:15.207Z</time></trkpt><trkpt lat="38.1946117" lon="15.2907183"><ele>27.5</ele><time>2026-04-28T14:30:16.207Z</time></trkpt><trkpt lat="38.1946617" lon="15.29105"><ele>25.0</ele><time>2026-04-28T14:30:17.208Z</time></trkpt><trkpt lat="38.1947167" lon="15.2913783"><ele>26.5</ele><time>2026-04-28T14:30:18.207Z</time></trkpt><trkpt lat="38.1947717" lon="15.291715"><ele>28.0</ele><time>2026-04-28T14:30:19.207Z</time></trkpt><trkpt lat="38.19482" lon="15.2920483"><ele>27.0</ele><time>2026-04-28T14:30:20.207Z</time></trkpt><trkpt lat="38.194875" lon="15.2923667"><ele>26.0</ele><time>2026-04-28T14:30:21.207Z</time></trkpt><trkpt lat="38.194915" lon="15.29271"><ele>26.0</ele><time>2026-04-28T14:30:22.207Z</time></trkpt><trkpt lat="38.19495" lon="15.293055"><ele>26.0</ele><time>2026-04-28T14:30:23.207Z</time></trkpt><trkpt lat="38.19498" lon="15.2933983"><ele>26.5</ele><time>2026-04-28T14:30:24.207Z</time></trkpt><trkpt lat="38.1949967" lon="15.2937467"><ele>27.0</ele><time>2026-04-28T14:30:25.207Z</time></trkpt><trkpt lat="38.1950117" lon="15.2940883"><ele>28.5</ele><time>2026-04-28T14:30:26.207Z</time></trkpt><trkpt lat="38.1950183" lon="15.2944333"><ele>30.0</ele><time>2026-04-28T14:30:27.207Z</time></trkpt><trkpt lat="38.195015" lon="15.2947783"><ele>31.0</ele><time>2026-04-28T14:30:28.207Z</time></trkpt><trkpt lat="38.1950033" lon="15.2951233"><ele>32.0</ele><time>2026-04-28T14:30:29.207Z</time></trkpt><trkpt lat="38.1949833" lon="15.2954683"><ele>32.5</ele><time>2026-04-28T14:30:30.207Z</time></trkpt><trkpt lat="38.1949583" lon="15.29582"><ele>33.0</ele><time>2026-04-28T14:30:31.207Z</time></trkpt><trkpt lat="38.1949317" lon="15.2961683"><ele>32.0</ele><time>2026-04-28T14:30:32.207Z</time></trkpt><trkpt lat="38.1949" lon="15.296515"><ele>31.0</ele><time>2026-04-28T14:30:33.207Z</time></trkpt><trkpt lat="38.1948733" lon="15.2968533"><ele>31.0</ele><time>2026-04-28T14:30:34.207Z</time></trkpt><trkpt lat="38.194855" lon="15.2972033"><ele>31.0</ele><time>2026-04-28T14:30:35.207Z</time></trkpt><trkpt lat="38.1948333" lon="15.2975433"><ele>37.5</ele><time>2026-04-28T14:30:36.207Z</time></trkpt><trkpt lat="38.1948117" lon="15.2978817"><ele>44.0</ele><time>2026-04-28T14:30:37.207Z</time></trkpt><trkpt lat="38.1947867" lon="15.29822"><ele>45.5</ele><time>2026-04-28T14:30:38.208Z</time></trkpt><trkpt lat="38.1947667" lon="15.2985617"><ele>47.0</ele><time>2026-04-28T14:30:39.208Z</time></trkpt><trkpt lat="38.1947467" lon="15.298905"><ele>49.0</ele><time>2026-04-28T14:30:40.207Z</time></trkpt><trkpt lat="38.1947267" lon="15.2992417"><ele>51.0</ele><time>2026-04-28T14:30:41.207Z</time></trkpt><trkpt lat="38.194715" lon="15.2995783"><ele>51.0</ele><time>2026-04-28T14:30:42.207Z</time></trkpt><trkpt lat="38.1947133" lon="15.2999083"><ele>51.0</ele><time>2026-04-28T14:30:43.207Z</time></trkpt><trkpt lat="38.1947183" lon="15.3002467"><ele>51.0</ele><time>2026-04-28T14:30:44.207Z</time></trkpt><trkpt lat="38.19473" lon="15.30058"><ele>51.0</ele><time>2026-04-28T14:30:45.207Z</time></trkpt><trkpt lat="38.1947517" lon="15.3009133"><ele>51.5</ele><time>2026-04-28T14:30:46.207Z</time></trkpt><trkpt lat="38.1947783" lon="15.3012533"><ele>52.0</ele><time>2026-04-28T14:30:47.207Z</time></trkpt><trkpt lat="38.19482" lon="15.3015833"><ele>47.5</ele><time>2026-04-28T14:30:48.207Z</time></trkpt><trkpt lat="38.194865" lon="15.3019083"><ele>43.0</ele><time>2026-04-28T14:30:49.207Z</time></trkpt><trkpt lat="38.19491" lon="15.3022367"><ele>44.5</ele><time>2026-04-28T14:30:50.207Z</time></trkpt><trkpt lat="38.1949617" lon="15.302555"><ele>46.0</ele><time>2026-04-28T14:30:51.207Z</time></trkpt><trkpt lat="38.1950133" lon="15.30289"><ele>45.0</ele><time>2026-04-28T14:30:52.207Z</time></trkpt><trkpt lat="38.1950633" lon="15.3032267"><ele>44.0</ele><time>2026-04-28T14:30:53.207Z</time></trkpt><trkpt lat="38.1951117" lon="15.303565"><ele>44.0</ele><time>2026-04-28T14:30:54.207Z</time></trkpt><trkpt lat="38.1951583" lon="15.3038967"><ele>44.0</ele><time>2026-04-28T14:30:55.208Z</time></trkpt><trkpt lat="38.1952117" lon="15.3042333"><ele>45.5</ele><time>2026-04-28T14:30:56.207Z</time></trkpt><trkpt lat="38.1952617" lon="15.3045617"><ele>47.0</ele><time>2026-04-28T14:30:57.207Z</time></trkpt><trkpt lat="38.1953083" lon="15.3048917"><ele>47.5</ele><time>2026-04-28T14:30:58.208Z</time></trkpt><trkpt lat="38.195355" lon="15.3052183"><ele>48.0</ele><time>2026-04-28T14:30:59.207Z</time></trkpt><trkpt lat="38.1954" lon="15.3055483"><ele>49.0</ele><time>2026-04-28T14:31:00.208Z</time></trkpt><trkpt lat="38.195445" lon="15.3058867"><ele>50.0</ele><time>2026-04-28T14:31:01.207Z</time></trkpt><trkpt lat="38.1954933" lon="15.30621"><ele>50.0</ele><time>2026-04-28T14:31:02.207Z</time></trkpt><trkpt lat="38.1955417" lon="15.3065267"><ele>50.0</ele><time>2026-04-28T14:31:03.207Z</time></trkpt><trkpt lat="38.1955867" lon="15.306845"><ele>50.0</ele><time>2026-04-28T14:31:04.207Z</time></trkpt><trkpt lat="38.1956267" lon="15.3071467"><ele>50.0</ele><time>2026-04-28T14:31:05.207Z</time></trkpt><trkpt lat="38.1956683" lon="15.3074483"><ele>54.0</ele><time>2026-04-28T14:31:06.207Z</time></trkpt><trkpt lat="38.1957117" lon="15.3077367"><ele>58.0</ele><time>2026-04-28T14:31:07.208Z</time></trkpt><trkpt lat="38.195745" lon="15.3080183"><ele>58.666666666666664</ele><time>2026-04-28T14:31:08.207Z</time></trkpt><trkpt lat="38.195775" lon="15.3082867"><ele>59.33333333333333</ele><time>2026-04-28T14:31:09.207Z</time></trkpt><trkpt lat="38.1958017" lon="15.3085633"><ele>60.0</ele><time>2026-04-28T14:31:10.207Z</time></trkpt><trkpt lat="38.1958183" lon="15.3088333"><ele>59.33333333333333</ele><time>2026-04-28T14:31:11.207Z</time></trkpt><trkpt lat="38.1958267" lon="15.30908"><ele>58.666666666666664</ele><time>2026-04-28T14:31:12.207Z</time></trkpt><trkpt lat="38.1958283" lon="15.309325"><ele>58.0</ele><time>2026-04-28T14:31:13.207Z</time></trkpt><trkpt lat="38.1958183" lon="15.309565"><ele>57.33333333333333</ele><time>2026-04-28T14:31:14.207Z</time></trkpt><trkpt lat="38.195805" lon="15.30981"><ele>56.66666666666667</ele><time>2026-04-28T14:31:15.207Z</time></trkpt><trkpt lat="38.1957817" lon="15.3100567"><ele>56.0</ele><time>2026-04-28T14:31:16.207Z</time></trkpt><trkpt lat="38.19576" lon="15.31031"><ele>56.0</ele><time>2026-04-28T14:31:17.208Z</time></trkpt><trkpt lat="38.19574" lon="15.3105617"><ele>56.0</ele><time>2026-04-28T14:31:18.207Z</time></trkpt><trkpt lat="38.1957033" lon="15.3108233"><ele>56.0</ele><time>2026-04-28T14:31:19.207Z</time></trkpt><trkpt lat="38.1956767" lon="15.311085"><ele>59.0</ele><time>2026-04-28T14:31:20.207Z</time></trkpt><trkpt lat="38.1956483" lon="15.3113483"><ele>62.0</ele><time>2026-04-28T14:31:21.207Z</time></trkpt><trkpt lat="38.1956333" lon="15.3116117"><ele>65.0</ele><time>2026-04-28T14:31:22.207Z</time></trkpt><trkpt lat="38.19561" lon="15.3118767"><ele>65.66666666666667</ele><time>2026-04-28T14:31:23.207Z</time></trkpt><trkpt lat="38.1955883" lon="15.3121483"><ele>66.33333333333333</ele><time>2026-04-28T14:31:24.207Z</time></trkpt><trkpt lat="38.1955633" lon="15.3124317"><ele>67.0</ele><time>2026-04-28T14:31:25.207Z</time></trkpt><trkpt lat="38.1955533" lon="15.3127067"><ele>68.0</ele><time>2026-04-28T14:31:26.207Z</time></trkpt><trkpt lat="38.195535" lon="15.312995"><ele>69.0</ele><time>2026-04-28T14:31:27.207Z</time></trkpt><trkpt lat="38.1955167" lon="15.3132733"><ele>70.0</ele><time>2026-04-28T14:31:28.207Z</time></trkpt><trkpt lat="38.1954983" lon="15.3135517"><ele>50.0</ele><time>2026-04-28T14:31:29.208Z</time></trkpt><trkpt lat="38.19565" lon="15.314675"><ele>47.25</ele><time>2026-04-28T14:31:33.205Z</time></trkpt><trkpt lat="38.1957183" lon="15.3148783"><ele>44.5</ele><time>2026-04-28T14:31:34.205Z</time></trkpt><trkpt lat="38.19576" lon="15.31505"><ele>41.75</ele><time>2026-04-28T14:31:35.205Z</time></trkpt><trkpt lat="38.1957883" lon="15.3152"><ele>39.0</ele><time>2026-04-28T14:31:36.205Z</time></trkpt><trkpt lat="38.1958233" lon="15.315345"><ele>39.0</ele><time>2026-04-28T14:31:37.206Z</time></trkpt><trkpt lat="38.19586" lon="15.3154717"><ele>39.0</ele><time>2026-04-28T14:31:38.205Z</time></trkpt><trkpt lat="38.195895" lon="15.3156117"><ele>39.0</ele><time>2026-04-28T14:31:39.206Z</time></trkpt><trkpt lat="38.1959317" lon="15.3157533"><ele>39.0</ele><time>2026-04-28T14:31:40.205Z</time></trkpt><trkpt lat="38.195995" lon="15.3158867"><ele>37.0</ele><time>2026-04-28T14:31:41.205Z</time></trkpt><trkpt lat="38.19607" lon="15.3160183"><ele>35.0</ele><time>2026-04-28T14:31:42.204Z</time></trkpt><trkpt lat="38.1961483" lon="15.3161567"><ele>33.0</ele><time>2026-04-28T14:31:43.205Z</time></trkpt><trkpt lat="38.1962233" lon="15.3163017"><ele>31.0</ele><time>2026-04-28T14:31:44.206Z</time></trkpt><trkpt lat="38.1962883" lon="15.3164617"><ele>29.666666666666668</ele><time>2026-04-28T14:31:45.206Z</time></trkpt><trkpt lat="38.1963467" lon="15.3166317"><ele>28.333333333333336</ele><time>2026-04-28T14:31:46.205Z</time></trkpt><trkpt lat="38.1964067" lon="15.316815"><ele>27.0</ele><time>2026-04-28T14:31:47.205Z</time></trkpt><trkpt lat="38.19647" lon="15.3170033"><ele>26.666666666666664</ele><time>2026-04-28T14:31:48.205Z</time></trkpt><trkpt lat="38.1965383" lon="15.3171983"><ele>26.333333333333332</ele><time>2026-04-28T14:31:49.205Z</time></trkpt><trkpt lat="38.1966133" lon="15.3173967"><ele>26.0</ele><time>2026-04-28T14:31:50.205Z</time></trkpt><trkpt lat="38.1966867" lon="15.3176117"><ele>25.333333333333332</ele><time>2026-04-28T14:31:51.205Z</time></trkpt><trkpt lat="38.196765" lon="15.3178217"><ele>24.666666666666664</ele><time>2026-04-28T14:31:52.205Z</time></trkpt><trkpt lat="38.1968517" lon="15.3180383"><ele>24.0</ele><time>2026-04-28T14:31:53.205Z</time></trkpt><trkpt lat="38.1969333" lon="15.3182533"><ele>23.333333333333332</ele><time>2026-04-28T14:31:54.205Z</time></trkpt><trkpt lat="38.19701" lon="15.318475"><ele>22.666666666666664</ele><time>2026-04-28T14:31:55.205Z</time></trkpt><trkpt lat="38.197095" lon="15.3186883"><ele>22.0</ele><time>2026-04-28T14:31:56.205Z</time></trkpt><trkpt lat="38.1971767" lon="15.3188967"><ele>22.0</ele><time>2026-04-28T14:31:57.205Z</time></trkpt><trkpt lat="38.1972583" lon="15.3191133"><ele>22.0</ele><time>2026-04-28T14:31:58.205Z</time></trkpt><trkpt lat="38.197345" lon="15.31932"><ele>22.0</ele><time>2026-04-28T14:31:59.205Z</time></trkpt><trkpt lat="38.197425" lon="15.3195317"><ele>22.0</ele><time>2026-04-28T14:32:00.205Z</time></trkpt><trkpt lat="38.1975" lon="15.3197433"><ele>22.0</ele><time>2026-04-28T14:32:01.205Z</time></trkpt><trkpt lat="38.1975817" lon="15.3199567"><ele>22.0</ele><time>2026-04-28T14:32:02.205Z</time></trkpt><trkpt lat="38.1976683" lon="15.3201567"><ele>22.0</ele><time>2026-04-28T14:32:03.205Z</time></trkpt><trkpt lat="38.1977467" lon="15.3203667"><ele>22.0</ele><time>2026-04-28T14:32:04.205Z</time></trkpt><trkpt lat="38.1978233" lon="15.3205783"><ele>22.0</ele><time>2026-04-28T14:32:05.205Z</time></trkpt><trkpt lat="38.1979" lon="15.320785"><ele>21.666666666666664</ele><time>2026-04-28T14:32:06.205Z</time></trkpt><trkpt lat="38.197975" lon="15.3209883"><ele>21.333333333333332</ele><time>2026-04-28T14:32:07.205Z</time></trkpt><trkpt lat="38.1980583" lon="15.3211933"><ele>21.0</ele><time>2026-04-28T14:32:08.205Z</time></trkpt><trkpt lat="38.198145" lon="15.3214017"><ele>20.333333333333332</ele><time>2026-04-28T14:32:09.206Z</time></trkpt><trkpt lat="38.1982233" lon="15.3216133"><ele>19.666666666666664</ele><time>2026-04-28T14:32:10.206Z</time></trkpt><trkpt lat="38.1983017" lon="15.3218317"><ele>19.0</ele><time>2026-04-28T14:32:11.205Z</time></trkpt><trkpt lat="38.19838" lon="15.3220533"><ele>19.333333333333332</ele><time>2026-04-28T14:32:12.205Z</time></trkpt><trkpt lat="38.198455" lon="15.32227"><ele>19.666666666666668</ele><time>2026-04-28T14:32:13.205Z</time></trkpt><trkpt lat="38.19853" lon="15.3224917"><ele>20.0</ele><time>2026-04-28T14:32:14.205Z</time></trkpt><trkpt lat="38.1986017" lon="15.32272"><ele>20.0</ele><time>2026-04-28T14:32:15.205Z</time></trkpt><trkpt lat="38.19867" lon="15.3229517"><ele>20.0</ele><time>2026-04-28T14:32:16.205Z</time></trkpt><trkpt lat="38.1987367" lon="15.32318"><ele>20.0</ele><time>2026-04-28T14:32:17.205Z</time></trkpt><trkpt lat="38.1988" lon="15.32341"><ele>20.0</ele><time>2026-04-28T14:32:18.205Z</time></trkpt><trkpt lat="38.1988583" lon="15.3236617"><ele>20.0</ele><time>2026-04-28T14:32:19.205Z</time></trkpt><trkpt lat="38.19891" lon="15.3238983"><ele>20.0</ele><time>2026-04-28T14:32:20.205Z</time></trkpt><trkpt lat="38.1989567" lon="15.32415"><ele>20.333333333333336</ele><time>2026-04-28T14:32:21.205Z</time></trkpt><trkpt lat="38.199" lon="15.324405"><ele>20.666666666666668</ele><time>2026-04-28T14:32:22.205Z</time></trkpt><trkpt lat="38.1990417" lon="15.3246483"><ele>21.0</ele><time>2026-04-28T14:32:23.205Z</time></trkpt><trkpt lat="38.1990767" lon="15.3248967"><ele>22.0</ele><time>2026-04-28T14:32:24.206Z</time></trkpt><trkpt lat="38.1991033" lon="15.3251383"><ele>23.0</ele><time>2026-04-28T14:32:25.205Z</time></trkpt><trkpt lat="38.199135" lon="15.32538"><ele>24.0</ele><time>2026-04-28T14:32:26.205Z</time></trkpt><trkpt lat="38.1991633" lon="15.3256183"><ele>28.0</ele><time>2026-04-28T14:32:27.205Z</time></trkpt><trkpt lat="38.19918" lon="15.3258683"><ele>32.0</ele><time>2026-04-28T14:32:28.206Z</time></trkpt><trkpt lat="38.1991917" lon="15.3260583"><ele>36.0</ele><time>2026-04-28T14:32:29.205Z</time></trkpt><trkpt lat="38.199215" lon="15.3262967"><ele>34.333333333333336</ele><time>2026-04-28T14:32:30.205Z</time></trkpt><trkpt lat="38.19924" lon="15.326535"><ele>32.66666666666667</ele><time>2026-04-28T14:32:31.205Z</time></trkpt><trkpt lat="38.19927" lon="15.3267817"><ele>31.0</ele><time>2026-04-28T14:32:32.205Z</time></trkpt><trkpt lat="38.1997033" lon="15.3314233"><ele>31.0</ele><time>2026-04-28T14:32:58.205Z</time></trkpt><trkpt lat="38.1997133" lon="15.3315417"><ele>31.0</ele><time>2026-04-28T14:32:59.205Z</time></trkpt><trkpt lat="38.199735" lon="15.3316617"><ele>31.0</ele><time>2026-04-28T14:33:00.205Z</time></trkpt><trkpt lat="38.199765" lon="15.33178"><ele>31.0</ele><time>2026-04-28T14:33:01.205Z</time></trkpt><trkpt lat="38.1998" lon="15.3319083"><ele>31.0</ele><time>2026-04-28T14:33:02.206Z</time></trkpt><trkpt lat="38.199835" lon="15.33204"><ele>30.200000000000003</ele><time>2026-04-28T14:33:03.205Z</time></trkpt><trkpt lat="38.1998717" lon="15.33217"><ele>29.400000000000002</ele><time>2026-04-28T14:33:04.205Z</time></trkpt><trkpt lat="38.199905" lon="15.3323033"><ele>28.6</ele><time>2026-04-28T14:33:05.205Z</time></trkpt><trkpt lat="38.1999417" lon="15.332435"><ele>27.8</ele><time>2026-04-28T14:33:06.206Z</time></trkpt><trkpt lat="38.1999817" lon="15.3325517"><ele>27.0</ele><time>2026-04-28T14:33:07.205Z</time></trkpt><trkpt lat="38.2000183" lon="15.3326733"><ele>26.200000000000003</ele><time>2026-04-28T14:33:08.205Z</time></trkpt><trkpt lat="38.2000533" lon="15.3327883"><ele>25.400000000000002</ele><time>2026-04-28T14:33:09.206Z</time></trkpt><trkpt lat="38.2000833" lon="15.3329"><ele>24.6</ele><time>2026-04-28T14:33:10.205Z</time></trkpt><trkpt lat="38.2001133" lon="15.3330133"><ele>23.799999999999997</ele><time>2026-04-28T14:33:11.205Z</time></trkpt><trkpt lat="38.200135" lon="15.333125"><ele>23.0</ele><time>2026-04-28T14:33:12.205Z</time></trkpt><trkpt lat="38.200145" lon="15.33324"><ele>23.0</ele><time>2026-04-28T14:33:13.206Z</time></trkpt><trkpt lat="38.200155" lon="15.333355"><ele>23.0</ele><time>2026-04-28T14:33:14.205Z</time></trkpt><trkpt lat="38.2001633" lon="15.3334783"><ele>23.0</ele><time>2026-04-28T14:33:15.205Z</time></trkpt><trkpt lat="38.2001783" lon="15.3336083"><ele>23.0</ele><time>2026-04-28T14:33:16.205Z</time></trkpt><trkpt lat="38.20021" lon="15.33375"><ele>23.0</ele><time>2026-04-28T14:33:17.205Z</time></trkpt><trkpt lat="38.2002583" lon="15.3339067"><ele>23.0</ele><time>2026-04-28T14:33:18.205Z</time></trkpt><trkpt lat="38.20032" lon="15.334085"><ele>23.0</ele><time>2026-04-28T14:33:19.205Z</time></trkpt><trkpt lat="38.2003983" lon="15.33427"><ele>23.0</ele><time>2026-04-28T14:33:20.205Z</time></trkpt><trkpt lat="38.2004767" lon="15.3344683"><ele>23.0</ele><time>2026-04-28T14:33:21.206Z</time></trkpt><trkpt lat="38.2005567" lon="15.33468"><ele>23.0</ele><time>2026-04-28T14:33:22.205Z</time></trkpt><trkpt lat="38.2006417" lon="15.3348967"><ele>23.0</ele><time>2026-04-28T14:33:23.205Z</time></trkpt><trkpt lat="38.2007267" lon="15.33512"><ele>22.666666666666668</ele><time>2026-04-28T14:33:24.205Z</time></trkpt><trkpt lat="38.2008133" lon="15.3353467"><ele>22.333333333333332</ele><time>2026-04-28T14:33:25.205Z</time></trkpt><trkpt lat="38.2009033" lon="15.33558"><ele>22.0</ele><time>2026-04-28T14:33:26.205Z</time></trkpt><trkpt lat="38.2009967" lon="15.3358217"><ele>22.0</ele><time>2026-04-28T14:33:27.205Z</time></trkpt><trkpt lat="38.2010917" lon="15.3360783"><ele>22.0</ele><time>2026-04-28T14:33:28.205Z</time></trkpt><trkpt lat="38.2011883" lon="15.3363383"><ele>22.0</ele><time>2026-04-28T14:33:29.206Z</time></trkpt><trkpt lat="38.2012867" lon="15.3366033"><ele>21.5</ele><time>2026-04-28T14:33:30.205Z</time></trkpt><trkpt lat="38.2013867" lon="15.3368733"><ele>21.0</ele><time>2026-04-28T14:33:31.205Z</time></trkpt><trkpt lat="38.201485" lon="15.3371517"><ele>20.0</ele><time>2026-04-28T14:33:32.205Z</time></trkpt><trkpt lat="38.2015833" lon="15.33744"><ele>19.0</ele><time>2026-04-28T14:33:33.205Z</time></trkpt><trkpt lat="38.2016767" lon="15.3377317"><ele>19.0</ele><time>2026-04-28T14:33:34.205Z</time></trkpt><trkpt lat="38.2017683" lon="15.3380217"><ele>19.0</ele><time>2026-04-28T14:33:35.205Z</time></trkpt><trkpt lat="38.2018583" lon="15.33831"><ele>19.0</ele><time>2026-04-28T14:33:36.205Z</time></trkpt><trkpt lat="38.201945" lon="15.3386017"><ele>19.0</ele><time>2026-04-28T14:33:37.205Z</time></trkpt><trkpt lat="38.2020333" lon="15.3388917"><ele>19.0</ele><time>2026-04-28T14:33:38.205Z</time></trkpt><trkpt lat="38.20213" lon="15.33918"><ele>19.0</ele><time>2026-04-28T14:33:39.205Z</time></trkpt><trkpt lat="38.2022217" lon="15.3394617"><ele>19.5</ele><time>2026-04-28T14:33:40.205Z</time></trkpt><trkpt lat="38.202315" lon="15.3397483"><ele>20.0</ele><time>2026-04-28T14:33:41.205Z</time></trkpt><trkpt lat="38.2024033" lon="15.3400367"><ele>20.0</ele><time>2026-04-28T14:33:42.202Z</time></trkpt><trkpt lat="38.202495" lon="15.340325"><ele>20.0</ele><time>2026-04-28T14:33:43.205Z</time></trkpt><trkpt lat="38.2026017" lon="15.3406083"><ele>20.5</ele><time>2026-04-28T14:33:44.205Z</time></trkpt><trkpt lat="38.2027017" lon="15.34089"><ele>21.0</ele><time>2026-04-28T14:33:45.205Z</time></trkpt><trkpt lat="38.2028017" lon="15.3411833"><ele>21.0</ele><time>2026-04-28T14:33:46.205Z</time></trkpt><trkpt lat="38.2029167" lon="15.3414683"><ele>21.0</ele><time>2026-04-28T14:33:47.205Z</time></trkpt><trkpt lat="38.203035" lon="15.3417433"><ele>21.0</ele><time>2026-04-28T14:33:48.205Z</time></trkpt><trkpt lat="38.2031567" lon="15.3420133"><ele>21.0</ele><time>2026-04-28T14:33:49.205Z</time></trkpt><trkpt lat="38.203285" lon="15.3422833"><ele>20.0</ele><time>2026-04-28T14:33:50.206Z</time></trkpt><trkpt lat="38.203415" lon="15.3425517"><ele>19.0</ele><time>2026-04-28T14:33:51.206Z</time></trkpt><trkpt lat="38.20355" lon="15.342815"><ele>19.0</ele><time>2026-04-28T14:33:52.205Z</time></trkpt><trkpt lat="38.2036883" lon="15.3430717"><ele>19.0</ele><time>2026-04-28T14:33:53.205Z</time></trkpt><trkpt lat="38.2038333" lon="15.3433183"><ele>19.0</ele><time>2026-04-28T14:33:54.206Z</time></trkpt><trkpt lat="38.203985" lon="15.3435583"><ele>19.0</ele><time>2026-04-28T14:33:55.205Z</time></trkpt><trkpt lat="38.20414" lon="15.3437967"><ele>18.5</ele><time>2026-04-28T14:33:56.205Z</time></trkpt><trkpt lat="38.2042917" lon="15.344035"><ele>18.0</ele><time>2026-04-28T14:33:57.205Z</time></trkpt><trkpt lat="38.2044417" lon="15.3442733"><ele>18.0</ele><time>2026-04-28T14:33:58.205Z</time></trkpt><trkpt lat="38.2045917" lon="15.3445117"><ele>18.0</ele><time>2026-04-28T14:33:59.205Z</time></trkpt><trkpt lat="38.20474" lon="15.3447483"><ele>18.0</ele><time>2026-04-28T14:34:00.205Z</time></trkpt><trkpt lat="38.204885" lon="15.3449883"><ele>18.0</ele><time>2026-04-28T14:34:01.205Z</time></trkpt><trkpt lat="38.2050267" lon="15.34523"><ele>18.0</ele><time>2026-04-28T14:34:02.205Z</time></trkpt><trkpt lat="38.2051617" lon="15.3454733"><ele>18.0</ele><time>2026-04-28T14:34:03.205Z</time></trkpt><trkpt lat="38.20529" lon="15.345725"><ele>17.0</ele><time>2026-04-28T14:34:04.205Z</time></trkpt><trkpt lat="38.2054083" lon="15.345985"><ele>16.0</ele><time>2026-04-28T14:34:05.205Z</time></trkpt><trkpt lat="38.2055167" lon="15.3462467"><ele>17.0</ele><time>2026-04-28T14:34:06.205Z</time></trkpt><trkpt lat="38.2056183" lon="15.3465167"><ele>18.0</ele><time>2026-04-28T14:34:07.205Z</time></trkpt><trkpt lat="38.2057117" lon="15.3467917"><ele>18.0</ele><time>2026-04-28T14:34:08.206Z</time></trkpt><trkpt lat="38.2057983" lon="15.347075"><ele>18.0</ele><time>2026-04-28T14:34:09.205Z</time></trkpt><trkpt lat="38.2058783" lon="15.3473583"><ele>17.5</ele><time>2026-04-28T14:34:10.205Z</time></trkpt><trkpt lat="38.205945" lon="15.34765"><ele>17.0</ele><time>2026-04-28T14:34:11.205Z</time></trkpt><trkpt lat="38.2060067" lon="15.3479433"><ele>18.5</ele><time>2026-04-28T14:34:12.205Z</time></trkpt><trkpt lat="38.2060583" lon="15.3482367"><ele>20.0</ele><time>2026-04-28T14:34:13.205Z</time></trkpt><trkpt lat="38.2061033" lon="15.3485333"><ele>20.0</ele><time>2026-04-28T14:34:14.205Z</time></trkpt><trkpt lat="38.2061383" lon="15.3488333"><ele>20.0</ele><time>2026-04-28T14:34:15.205Z</time></trkpt><trkpt lat="38.206165" lon="15.3491333"><ele>20.0</ele><time>2026-04-28T14:34:16.205Z</time></trkpt><trkpt lat="38.206185" lon="15.349435"><ele>20.0</ele><time>2026-04-28T14:34:17.205Z</time></trkpt><trkpt lat="38.2061967" lon="15.3497367"><ele>20.0</ele><time>2026-04-28T14:34:18.205Z</time></trkpt><trkpt lat="38.2062083" lon="15.3500383"><ele>20.0</ele><time>2026-04-28T14:34:19.206Z</time></trkpt><trkpt lat="38.2062217" lon="15.3503367"><ele>19.5</ele><time>2026-04-28T14:34:20.205Z</time></trkpt><trkpt lat="38.206235" lon="15.350635"><ele>19.0</ele><time>2026-04-28T14:34:21.206Z</time></trkpt><trkpt lat="38.20625" lon="15.3509333"><ele>19.0</ele><time>2026-04-28T14:34:22.205Z</time></trkpt><trkpt lat="38.2062667" lon="15.35123"><ele>19.0</ele><time>2026-04-28T14:34:23.206Z</time></trkpt><trkpt lat="38.206285" lon="15.3515283"><ele>19.5</ele><time>2026-04-28T14:34:24.206Z</time></trkpt><trkpt lat="38.2062983" lon="15.3518267"><ele>20.0</ele><time>2026-04-28T14:34:25.205Z</time></trkpt><trkpt lat="38.2063117" lon="15.352125"><ele>21.0</ele><time>2026-04-28T14:34:26.205Z</time></trkpt><trkpt lat="38.2063283" lon="15.3524167"><ele>22.0</ele><time>2026-04-28T14:34:27.205Z</time></trkpt><trkpt lat="38.20635" lon="15.352715"><ele>22.0</ele><time>2026-04-28T14:34:28.205Z</time></trkpt><trkpt lat="38.206375" lon="15.35302"><ele>22.0</ele><time>2026-04-28T14:34:29.205Z</time></trkpt><trkpt lat="38.2064133" lon="15.3533183"><ele>24.5</ele><time>2026-04-28T14:34:30.205Z</time></trkpt><trkpt lat="38.2064617" lon="15.3536033"><ele>27.0</ele><time>2026-04-28T14:34:31.205Z</time></trkpt><trkpt lat="38.2065267" lon="15.3538883"><ele>30.0</ele><time>2026-04-28T14:34:32.205Z</time></trkpt><trkpt lat="38.2066" lon="15.35417"><ele>33.0</ele><time>2026-04-28T14:34:33.205Z</time></trkpt><trkpt lat="38.2066733" lon="15.3544517"><ele>32.5</ele><time>2026-04-28T14:34:34.205Z</time></trkpt><trkpt lat="38.2067517" lon="15.3547333"><ele>32.0</ele><time>2026-04-28T14:34:35.205Z</time></trkpt><trkpt lat="38.206825" lon="15.3550183"><ele>32.0</ele><time>2026-04-28T14:34:36.205Z</time></trkpt><trkpt lat="38.206895" lon="15.3553067"><ele>32.0</ele><time>2026-04-28T14:34:37.206Z</time></trkpt><trkpt lat="38.2069583" lon="15.355595"><ele>31.5</ele><time>2026-04-28T14:34:38.205Z</time></trkpt><trkpt lat="38.2070167" lon="15.3558883"><ele>31.0</ele><time>2026-04-28T14:34:39.206Z</time></trkpt><trkpt lat="38.2070717" lon="15.3561817"><ele>31.5</ele><time>2026-04-28T14:34:40.205Z</time></trkpt><trkpt lat="38.2071267" lon="15.3564733"><ele>32.0</ele><time>2026-04-28T14:34:41.205Z</time></trkpt><trkpt lat="38.20718" lon="15.3567633"><ele>32.0</ele><time>2026-04-28T14:34:42.206Z</time></trkpt><trkpt lat="38.2072333" lon="15.357055"><ele>32.0</ele><time>2026-04-28T14:34:43.205Z</time></trkpt><trkpt lat="38.207295" lon="15.357345"><ele>41.0</ele><time>2026-04-28T14:34:44.205Z</time></trkpt><trkpt lat="38.207365" lon="15.3576317"><ele>50.0</ele><time>2026-04-28T14:34:45.205Z</time></trkpt><trkpt lat="38.207435" lon="15.35791"><ele>54.5</ele><time>2026-04-28T14:34:46.205Z</time></trkpt><trkpt lat="38.2075083" lon="15.35819"><ele>59.0</ele><time>2026-04-28T14:34:47.205Z</time></trkpt><trkpt lat="38.2075783" lon="15.35846"><ele>59.0</ele><time>2026-04-28T14:34:48.205Z</time></trkpt><trkpt lat="38.2076483" lon="15.3587367"><ele>59.0</ele><time>2026-04-28T14:34:49.205Z</time></trkpt><trkpt lat="38.2077183" lon="15.3590133"><ele>63.0</ele><time>2026-04-28T14:34:50.205Z</time></trkpt><trkpt lat="38.2077867" lon="15.35929"><ele>67.0</ele><time>2026-04-28T14:34:51.205Z</time></trkpt><trkpt lat="38.2078517" lon="15.3595667"><ele>61.0</ele><time>2026-04-28T14:34:52.206Z</time></trkpt><trkpt lat="38.20799" lon="15.360175"><ele>61.0</ele><time>2026-04-28T14:34:54.206Z</time></trkpt><trkpt lat="38.2079983" lon="15.3605117"><ele>61.0</ele><time>2026-04-28T14:34:55.206Z</time></trkpt><trkpt lat="38.2080133" lon="15.3608117"><ele>64.5</ele><time>2026-04-28T14:34:56.206Z</time></trkpt><trkpt lat="38.2080367" lon="15.3611017"><ele>68.0</ele><time>2026-04-28T14:34:57.207Z</time></trkpt><trkpt lat="38.2080633" lon="15.3613917"><ele>62.0</ele><time>2026-04-28T14:34:58.206Z</time></trkpt><trkpt lat="38.2088983" lon="15.36548"><ele>51.0</ele><time>2026-04-28T14:35:13.205Z</time></trkpt><trkpt lat="38.2090033" lon="15.365765"><ele>40.0</ele><time>2026-04-28T14:35:14.205Z</time></trkpt><trkpt lat="38.2091217" lon="15.3660383"><ele>40.0</ele><time>2026-04-28T14:35:15.206Z</time></trkpt><trkpt lat="38.20925" lon="15.3663017"><ele>40.0</ele><time>2026-04-28T14:35:16.205Z</time></trkpt><trkpt lat="38.209385" lon="15.3665667"><ele>43.0</ele><time>2026-04-28T14:35:17.205Z</time></trkpt><trkpt lat="38.2095167" lon="15.3668333"><ele>46.0</ele><time>2026-04-28T14:35:18.205Z</time></trkpt><trkpt lat="38.20965" lon="15.3671083"><ele>50.0</ele><time>2026-04-28T14:35:19.205Z</time></trkpt><trkpt lat="38.2097833" lon="15.3673817"><ele>54.0</ele><time>2026-04-28T14:35:20.205Z</time></trkpt><trkpt lat="38.209915" lon="15.3676633"><ele>56.0</ele><time>2026-04-28T14:35:21.206Z</time></trkpt><trkpt lat="38.2100433" lon="15.367945"><ele>58.0</ele><time>2026-04-28T14:35:22.205Z</time></trkpt><trkpt lat="38.2101667" lon="15.3682233"><ele>62.5</ele><time>2026-04-28T14:35:23.205Z</time></trkpt><trkpt lat="38.2102833" lon="15.36851"><ele>67.0</ele><time>2026-04-28T14:35:24.205Z</time></trkpt><trkpt lat="38.2103883" lon="15.3688017"><ele>70.5</ele><time>2026-04-28T14:35:25.205Z</time></trkpt><trkpt lat="38.2104833" lon="15.369105"><ele>74.0</ele><time>2026-04-28T14:35:26.205Z</time></trkpt><trkpt lat="38.2105683" lon="15.3694167"><ele>74.5</ele><time>2026-04-28T14:35:27.206Z</time></trkpt><trkpt lat="38.210645" lon="15.3697333"><ele>75.0</ele><time>2026-04-28T14:35:28.205Z</time></trkpt><trkpt lat="38.2107183" lon="15.37005"><ele>67.5</ele><time>2026-04-28T14:35:29.205Z</time></trkpt><trkpt lat="38.210805" lon="15.3703633"><ele>60.0</ele><time>2026-04-28T14:35:30.205Z</time></trkpt><trkpt lat="38.2108983" lon="15.3706683"><ele>60.0</ele><time>2026-04-28T14:35:31.206Z</time></trkpt><trkpt lat="38.2109767" lon="15.370985"><ele>60.0</ele><time>2026-04-28T14:35:32.205Z</time></trkpt><trkpt lat="38.2110667" lon="15.3712883"><ele>68.5</ele><time>2026-04-28T14:35:33.205Z</time></trkpt><trkpt lat="38.2111467" lon="15.37159"><ele>77.0</ele><time>2026-04-28T14:35:34.206Z</time></trkpt><trkpt lat="38.211225" lon="15.3718783"><ele>77.0</ele><time>2026-04-28T14:35:35.205Z</time></trkpt><trkpt lat="38.2113017" lon="15.372165"><ele>77.0</ele><time>2026-04-28T14:35:36.206Z</time></trkpt><trkpt lat="38.21138" lon="15.3724517"><ele>70.0</ele><time>2026-04-28T14:35:37.206Z</time></trkpt><trkpt lat="38.2115417" lon="15.373055"><ele>70.0</ele><time>2026-04-28T14:35:39.205Z</time></trkpt><trkpt lat="38.21168" lon="15.3734367"><ele>70.0</ele><time>2026-04-28T14:35:40.206Z</time></trkpt><trkpt lat="38.2117633" lon="15.373825"><ele>61.0</ele><time>2026-04-28T14:35:41.205Z</time></trkpt><trkpt lat="38.211835" lon="15.3741633"><ele>52.0</ele><time>2026-04-28T14:35:42.206Z</time></trkpt><trkpt lat="38.2119017" lon="15.374485"><ele>46.5</ele><time>2026-04-28T14:35:43.205Z</time></trkpt><trkpt lat="38.21198" lon="15.3747917"><ele>41.0</ele><time>2026-04-28T14:35:44.205Z</time></trkpt><trkpt lat="38.212055" lon="15.3751"><ele>41.0</ele><time>2026-04-28T14:35:45.205Z</time></trkpt><trkpt lat="38.2121333" lon="15.3754117"><ele>41.0</ele><time>2026-04-28T14:35:46.205Z</time></trkpt><trkpt lat="38.2122133" lon="15.3757267"><ele>45.0</ele><time>2026-04-28T14:35:47.206Z</time></trkpt><trkpt lat="38.2122967" lon="15.3760333"><ele>49.0</ele><time>2026-04-28T14:35:48.205Z</time></trkpt><trkpt lat="38.212395" lon="15.3763283"><ele>61.5</ele><time>2026-04-28T14:35:49.205Z</time></trkpt><trkpt lat="38.2124917" lon="15.376635"><ele>74.0</ele><time>2026-04-28T14:35:50.205Z</time></trkpt><trkpt lat="38.2125933" lon="15.3769433"><ele>83.0</ele><time>2026-04-28T14:35:51.206Z</time></trkpt><trkpt lat="38.2126917" lon="15.3772517"><ele>92.0</ele><time>2026-04-28T14:35:52.205Z</time></trkpt><trkpt lat="38.2127917" lon="15.3775617"><ele>65.0</ele><time>2026-04-28T14:35:53.205Z</time></trkpt><trkpt lat="38.2140633" lon="15.3799517"><ele>65.0</ele><time>2026-04-28T14:36:02.205Z</time></trkpt><trkpt lat="38.2143367" lon="15.3801783"><ele>65.0</ele><time>2026-04-28T14:36:03.205Z</time></trkpt><trkpt lat="38.2145367" lon="15.3803717"><ele>63.5</ele><time>2026-04-28T14:36:04.205Z</time></trkpt><trkpt lat="38.21473" lon="15.3805517"><ele>62.0</ele><time>2026-04-28T14:36:05.205Z</time></trkpt><trkpt lat="38.2149133" lon="15.3807383"><ele>57.5</ele><time>2026-04-28T14:36:06.205Z</time></trkpt><trkpt lat="38.2150983" lon="15.38093"><ele>53.0</ele><time>2026-04-28T14:36:07.206Z</time></trkpt><trkpt lat="38.2152833" lon="15.381115"><ele>53.0</ele><time>2026-04-28T14:36:08.205Z</time></trkpt><trkpt lat="38.2154733" lon="15.3812967"><ele>53.0</ele><time>2026-04-28T14:36:09.206Z</time></trkpt><trkpt lat="38.215665" lon="15.3814783"><ele>57.0</ele><time>2026-04-28T14:36:10.205Z</time></trkpt><trkpt lat="38.21586" lon="15.381655"><ele>61.0</ele><time>2026-04-28T14:36:11.205Z</time></trkpt><trkpt lat="38.216055" lon="15.3818317"><ele>61.0</ele><time>2026-04-28T14:36:12.205Z</time></trkpt><trkpt lat="38.2162467" lon="15.3820067"><ele>61.0</ele><time>2026-04-28T14:36:13.205Z</time></trkpt><trkpt lat="38.2164383" lon="15.38219"><ele>59.5</ele><time>2026-04-28T14:36:14.205Z</time></trkpt><trkpt lat="38.2166317" lon="15.38238"><ele>58.0</ele><time>2026-04-28T14:36:15.205Z</time></trkpt><trkpt lat="38.2168333" lon="15.38255"><ele>58.0</ele><time>2026-04-28T14:36:16.205Z</time></trkpt><trkpt lat="38.2170233" lon="15.382725"><ele>58.0</ele><time>2026-04-28T14:36:17.205Z</time></trkpt><trkpt lat="38.2172133" lon="15.38291"><ele>53.5</ele><time>2026-04-28T14:36:18.205Z</time></trkpt><trkpt lat="38.217405" lon="15.383095"><ele>49.0</ele><time>2026-04-28T14:36:19.205Z</time></trkpt><trkpt lat="38.2175933" lon="15.3832783"><ele>49.0</ele><time>2026-04-28T14:36:20.205Z</time></trkpt><trkpt lat="38.2177833" lon="15.3834583"><ele>49.0</ele><time>2026-04-28T14:36:21.205Z</time></trkpt><trkpt lat="38.2179733" lon="15.3836367"><ele>50.5</ele><time>2026-04-28T14:36:22.205Z</time></trkpt><trkpt lat="38.2181617" lon="15.3838167"><ele>52.0</ele><time>2026-04-28T14:36:23.205Z</time></trkpt><trkpt lat="38.2183517" lon="15.3839967"><ele>52.0</ele><time>2026-04-28T14:36:24.205Z</time></trkpt><trkpt lat="38.2185467" lon="15.3841683"><ele>52.0</ele><time>2026-04-28T14:36:25.205Z</time></trkpt><trkpt lat="38.2187383" lon="15.3843583"><ele>52.0</ele><time>2026-04-28T14:36:26.205Z</time></trkpt><trkpt lat="38.2189283" lon="15.3845367"><ele>52.0</ele><time>2026-04-28T14:36:27.205Z</time></trkpt><trkpt lat="38.2191183" lon="15.3847133"><ele>53.0</ele><time>2026-04-28T14:36:28.205Z</time></trkpt><trkpt lat="38.219305" lon="15.38489"><ele>54.0</ele><time>2026-04-28T14:36:29.206Z</time></trkpt><trkpt lat="38.2195" lon="15.3850717"><ele>54.0</ele><time>2026-04-28T14:36:30.205Z</time></trkpt><trkpt lat="38.2196933" lon="15.385265"><ele>54.0</ele><time>2026-04-28T14:36:31.205Z</time></trkpt><trkpt lat="38.2198967" lon="15.3854483"><ele>55.5</ele><time>2026-04-28T14:36:32.205Z</time></trkpt><trkpt lat="38.2200933" lon="15.3856383"><ele>57.0</ele><time>2026-04-28T14:36:33.205Z</time></trkpt><trkpt lat="38.2202917" lon="15.38583"><ele>57.0</ele><time>2026-04-28T14:36:34.205Z</time></trkpt><trkpt lat="38.2204867" lon="15.3860217"><ele>57.0</ele><time>2026-04-28T14:36:35.206Z</time></trkpt><trkpt lat="38.2206817" lon="15.386225"><ele>60.0</ele><time>2026-04-28T14:36:36.205Z</time></trkpt><trkpt lat="38.2208733" lon="15.3864283"><ele>63.0</ele><time>2026-04-28T14:36:37.206Z</time></trkpt><trkpt lat="38.22106" lon="15.38663"><ele>63.0</ele><time>2026-04-28T14:36:38.205Z</time></trkpt><trkpt lat="38.2212467" lon="15.3868367"><ele>63.0</ele><time>2026-04-28T14:36:39.205Z</time></trkpt><trkpt lat="38.2214367" lon="15.38704"><ele>69.5</ele><time>2026-04-28T14:36:40.206Z</time></trkpt><trkpt lat="38.2216267" lon="15.3872483"><ele>76.0</ele><time>2026-04-28T14:36:41.205Z</time></trkpt><trkpt lat="38.2227817" lon="15.3889383"><ele>60.5</ele><time>2026-04-28T14:36:48.205Z</time></trkpt><trkpt lat="38.2227833" lon="15.3892883"><ele>45.0</ele><time>2026-04-28T14:36:49.205Z</time></trkpt><trkpt lat="38.2228567" lon="15.3895767"><ele>38.0</ele><time>2026-04-28T14:36:50.205Z</time></trkpt><trkpt lat="38.2229517" lon="15.3898567"><ele>31.0</ele><time>2026-04-28T14:36:51.205Z</time></trkpt><trkpt lat="38.2230433" lon="15.390125"><ele>31.0</ele><time>2026-04-28T14:36:52.205Z</time></trkpt><trkpt lat="38.2231267" lon="15.3903967"><ele>31.0</ele><time>2026-04-28T14:36:53.205Z</time></trkpt><trkpt lat="38.223215" lon="15.3906633"><ele>35.5</ele><time>2026-04-28T14:36:54.205Z</time></trkpt><trkpt lat="38.2232967" lon="15.3909417"><ele>40.0</ele><time>2026-04-28T14:36:55.205Z</time></trkpt><trkpt lat="38.2233933" lon="15.3912133"><ele>44.0</ele><time>2026-04-28T14:36:56.205Z</time></trkpt><trkpt lat="38.223485" lon="15.3914883"><ele>48.0</ele><time>2026-04-28T14:36:57.206Z</time></trkpt><trkpt lat="38.22358" lon="15.3917617"><ele>48.0</ele><time>2026-04-28T14:36:58.205Z</time></trkpt><trkpt lat="38.2236767" lon="15.3920383"><ele>48.0</ele><time>2026-04-28T14:36:59.205Z</time></trkpt><trkpt lat="38.2237833" lon="15.3923233"><ele>44.0</ele><time>2026-04-28T14:37:00.205Z</time></trkpt><trkpt lat="38.2238883" lon="15.3926067"><ele>40.0</ele><time>2026-04-28T14:37:01.205Z</time></trkpt><trkpt lat="38.22399" lon="15.392885"><ele>41.0</ele><time>2026-04-28T14:37:02.205Z</time></trkpt><trkpt lat="38.224065" lon="15.3931583"><ele>42.0</ele><time>2026-04-28T14:37:03.205Z</time></trkpt><trkpt lat="38.22414" lon="15.3934167"><ele>43.0</ele><time>2026-04-28T14:37:04.205Z</time></trkpt><trkpt lat="38.2242117" lon="15.393695"><ele>45.0</ele><time>2026-04-28T14:37:05.205Z</time></trkpt><trkpt lat="38.2242933" lon="15.3939783"><ele>47.0</ele><time>2026-04-28T14:37:06.206Z</time></trkpt><trkpt lat="38.2243633" lon="15.394265"><ele>47.0</ele><time>2026-04-28T14:37:07.205Z</time></trkpt><trkpt lat="38.2244217" lon="15.3945583"><ele>47.0</ele><time>2026-04-28T14:37:08.206Z</time></trkpt><trkpt lat="38.2244767" lon="15.39487"><ele>36.0</ele><time>2026-04-28T14:37:09.205Z</time></trkpt><trkpt lat="38.2245333" lon="15.395185"><ele>25.0</ele><time>2026-04-28T14:37:10.205Z</time></trkpt><trkpt lat="38.224585" lon="15.3954933"><ele>19.5</ele><time>2026-04-28T14:37:11.205Z</time></trkpt><trkpt lat="38.224635" lon="15.39579"><ele>14.0</ele><time>2026-04-28T14:37:12.206Z</time></trkpt><trkpt lat="38.2246883" lon="15.396095"><ele>19.0</ele><time>2026-04-28T14:37:13.205Z</time></trkpt><trkpt lat="38.2247433" lon="15.3964033"><ele>24.0</ele><time>2026-04-28T14:37:14.205Z</time></trkpt><trkpt lat="38.2247933" lon="15.3966983"><ele>28.5</ele><time>2026-04-28T14:37:15.205Z</time></trkpt><trkpt lat="38.2248517" lon="15.3970067"><ele>33.0</ele><time>2026-04-28T14:37:16.205Z</time></trkpt><trkpt lat="38.2249133" lon="15.39731"><ele>45.5</ele><time>2026-04-28T14:37:17.205Z</time></trkpt><trkpt lat="38.2249733" lon="15.3976217"><ele>58.0</ele><time>2026-04-28T14:37:18.205Z</time></trkpt><trkpt lat="38.2250317" lon="15.3979367"><ele>67.5</ele><time>2026-04-28T14:37:19.205Z</time></trkpt><trkpt lat="38.2250917" lon="15.3982533"><ele>77.0</ele><time>2026-04-28T14:37:20.205Z</time></trkpt><trkpt lat="38.2251517" lon="15.3985683"><ele>35.0</ele><time>2026-04-28T14:37:21.205Z</time></trkpt><trkpt lat="38.2254867" lon="15.4001333"><ele>33.0</ele><time>2026-04-28T14:37:26.206Z</time></trkpt><trkpt lat="38.22574" lon="15.400355"><ele>31.0</ele><time>2026-04-28T14:37:27.207Z</time></trkpt><trkpt lat="38.2259517" lon="15.4005917"><ele>28.0</ele><time>2026-04-28T14:37:28.206Z</time></trkpt><trkpt lat="38.2260967" lon="15.4008617"><ele>25.0</ele><time>2026-04-28T14:37:29.206Z</time></trkpt><trkpt lat="38.2262333" lon="15.4011283"><ele>37.0</ele><time>2026-04-28T14:37:30.206Z</time></trkpt><trkpt lat="38.2263633" lon="15.4013933"><ele>49.0</ele><time>2026-04-28T14:37:31.206Z</time></trkpt><trkpt lat="38.226475" lon="15.4016733"><ele>42.0</ele><time>2026-04-28T14:37:32.207Z</time></trkpt><trkpt lat="38.2265867" lon="15.4019567"><ele>35.0</ele><time>2026-04-28T14:37:33.206Z</time></trkpt><trkpt lat="38.2266967" lon="15.4022483"><ele>35.0</ele><time>2026-04-28T14:37:34.206Z</time></trkpt><trkpt lat="38.2268" lon="15.4025317"><ele>35.0</ele><time>2026-04-28T14:37:35.206Z</time></trkpt><trkpt lat="38.226895" lon="15.4028267"><ele>39.5</ele><time>2026-04-28T14:37:36.206Z</time></trkpt><trkpt lat="38.226985" lon="15.4031183"><ele>44.0</ele><time>2026-04-28T14:37:37.207Z</time></trkpt><trkpt lat="38.227075" lon="15.4034083"><ele>44.0</ele><time>2026-04-28T14:37:38.206Z</time></trkpt><trkpt lat="38.2271667" lon="15.4036983"><ele>44.0</ele><time>2026-04-28T14:37:39.206Z</time></trkpt><trkpt lat="38.227255" lon="15.4039917"><ele>33.0</ele><time>2026-04-28T14:37:40.206Z</time></trkpt><trkpt lat="38.2273367" lon="15.40428"><ele>22.0</ele><time>2026-04-28T14:37:41.206Z</time></trkpt><trkpt lat="38.2274117" lon="15.4045683"><ele>25.5</ele><time>2026-04-28T14:37:42.207Z</time></trkpt><trkpt lat="38.22748" lon="15.4048633"><ele>29.0</ele><time>2026-04-28T14:37:43.206Z</time></trkpt><trkpt lat="38.2275333" lon="15.4051617"><ele>29.0</ele><time>2026-04-28T14:37:44.207Z</time></trkpt><trkpt lat="38.2275767" lon="15.4054583"><ele>29.0</ele><time>2026-04-28T14:37:45.207Z</time></trkpt><trkpt lat="38.2276183" lon="15.4057583"><ele>34.0</ele><time>2026-04-28T14:37:46.206Z</time></trkpt><trkpt lat="38.22766" lon="15.4060633"><ele>39.0</ele><time>2026-04-28T14:37:47.207Z</time></trkpt><trkpt lat="38.2277017" lon="15.4063717"><ele>50.5</ele><time>2026-04-28T14:37:48.206Z</time></trkpt><trkpt lat="38.22774" lon="15.406685"><ele>62.0</ele><time>2026-04-28T14:37:49.206Z</time></trkpt><trkpt lat="38.22778" lon="15.4069983"><ele>27.0</ele><time>2026-04-28T14:37:50.206Z</time></trkpt><trkpt lat="38.2285983" lon="15.4092767"><ele>27.0</ele><time>2026-04-28T14:37:58.205Z</time></trkpt><trkpt lat="38.2287733" lon="15.4095333"><ele>27.0</ele><time>2026-04-28T14:37:59.206Z</time></trkpt><trkpt lat="38.22895" lon="15.40979"><ele>25.5</ele><time>2026-04-28T14:38:00.205Z</time></trkpt><trkpt lat="38.22915" lon="15.4100233"><ele>24.0</ele><time>2026-04-28T14:38:01.205Z</time></trkpt><trkpt lat="38.2293367" lon="15.4102717"><ele>33.5</ele><time>2026-04-28T14:38:02.206Z</time></trkpt><trkpt lat="38.22951" lon="15.41053"><ele>43.0</ele><time>2026-04-28T14:38:03.205Z</time></trkpt><trkpt lat="38.22968" lon="15.4107967"><ele>36.5</ele><time>2026-04-28T14:38:04.205Z</time></trkpt><trkpt lat="38.229835" lon="15.4110667"><ele>30.0</ele><time>2026-04-28T14:38:05.205Z</time></trkpt><trkpt lat="38.2299817" lon="15.41135"><ele>30.0</ele><time>2026-04-28T14:38:06.206Z</time></trkpt><trkpt lat="38.2301183" lon="15.4116367"><ele>30.0</ele><time>2026-04-28T14:38:07.205Z</time></trkpt><trkpt lat="38.230255" lon="15.4119217"><ele>33.5</ele><time>2026-04-28T14:38:08.205Z</time></trkpt><trkpt lat="38.2303867" lon="15.4122033"><ele>37.0</ele><time>2026-04-28T14:38:09.206Z</time></trkpt><trkpt lat="38.23052" lon="15.4124883"><ele>35.0</ele><time>2026-04-28T14:38:10.205Z</time></trkpt><trkpt lat="38.230645" lon="15.4127667"><ele>33.0</ele><time>2026-04-28T14:38:11.205Z</time></trkpt><trkpt lat="38.230775" lon="15.413045"><ele>33.0</ele><time>2026-04-28T14:38:12.205Z</time></trkpt><trkpt lat="38.2308983" lon="15.413325"><ele>33.0</ele><time>2026-04-28T14:38:13.205Z</time></trkpt><trkpt lat="38.231025" lon="15.4136"><ele>42.5</ele><time>2026-04-28T14:38:14.205Z</time></trkpt><trkpt lat="38.23114" lon="15.4138767"><ele>52.0</ele><time>2026-04-28T14:38:15.205Z</time></trkpt><trkpt lat="38.231265" lon="15.4141417"><ele>52.0</ele><time>2026-04-28T14:38:16.206Z</time></trkpt><trkpt lat="38.2313817" lon="15.41441"><ele>52.0</ele><time>2026-04-28T14:38:17.206Z</time></trkpt><trkpt lat="38.2314783" lon="15.4146867"><ele>38.0</ele><time>2026-04-28T14:38:18.205Z</time></trkpt><trkpt lat="38.231565" lon="15.41498"><ele>24.0</ele><time>2026-04-28T14:38:19.205Z</time></trkpt><trkpt lat="38.2316383" lon="15.4152817"><ele>28.0</ele><time>2026-04-28T14:38:20.206Z</time></trkpt><trkpt lat="38.2317017" lon="15.4155917"><ele>32.0</ele><time>2026-04-28T14:38:21.205Z</time></trkpt><trkpt lat="38.2317583" lon="15.4159017"><ele>32.0</ele><time>2026-04-28T14:38:22.205Z</time></trkpt><trkpt lat="38.2317967" lon="15.416215"><ele>32.0</ele><time>2026-04-28T14:38:23.205Z</time></trkpt><trkpt lat="38.231835" lon="15.416545"><ele>34.0</ele><time>2026-04-28T14:38:24.205Z</time></trkpt><trkpt lat="38.231855" lon="15.416865"><ele>36.0</ele><time>2026-04-28T14:38:25.205Z</time></trkpt><trkpt lat="38.2318567" lon="15.41718"><ele>37.0</ele><time>2026-04-28T14:38:26.205Z</time></trkpt><trkpt lat="38.2318417" lon="15.4175"><ele>38.0</ele><time>2026-04-28T14:38:27.205Z</time></trkpt><trkpt lat="38.2318283" lon="15.4178117"><ele>36.5</ele><time>2026-04-28T14:38:28.205Z</time></trkpt><trkpt lat="38.231805" lon="15.41812"><ele>35.0</ele><time>2026-04-28T14:38:29.206Z</time></trkpt><trkpt lat="38.231765" lon="15.4184267"><ele>35.0</ele><time>2026-04-28T14:38:30.205Z</time></trkpt><trkpt lat="38.23171" lon="15.4187333"><ele>35.0</ele><time>2026-04-28T14:38:31.205Z</time></trkpt><trkpt lat="38.2316467" lon="15.4190417"><ele>30.0</ele><time>2026-04-28T14:38:32.205Z</time></trkpt><trkpt lat="38.23157" lon="15.41935"><ele>25.0</ele><time>2026-04-28T14:38:33.205Z</time></trkpt><trkpt lat="38.2314867" lon="15.4196567"><ele>25.0</ele><time>2026-04-28T14:38:34.205Z</time></trkpt><trkpt lat="38.2313967" lon="15.419965"><ele>25.0</ele><time>2026-04-28T14:38:35.206Z</time></trkpt><trkpt lat="38.2313067" lon="15.4202717"><ele>26.0</ele><time>2026-04-28T14:38:36.205Z</time></trkpt><trkpt lat="38.23122" lon="15.420575"><ele>27.0</ele><time>2026-04-28T14:38:37.205Z</time></trkpt><trkpt lat="38.2311317" lon="15.4208767"><ele>27.0</ele><time>2026-04-28T14:38:38.205Z</time></trkpt><trkpt lat="38.2310433" lon="15.421175"><ele>27.0</ele><time>2026-04-28T14:38:39.205Z</time></trkpt><trkpt lat="38.2309567" lon="15.4214733"><ele>28.0</ele><time>2026-04-28T14:38:40.205Z</time></trkpt><trkpt lat="38.23087" lon="15.4217683"><ele>29.0</ele><time>2026-04-28T14:38:41.206Z</time></trkpt><trkpt lat="38.2307867" lon="15.4220567"><ele>28.5</ele><time>2026-04-28T14:38:42.205Z</time></trkpt><trkpt lat="38.2307067" lon="15.4223433"><ele>28.0</ele><time>2026-04-28T14:38:43.205Z</time></trkpt><trkpt lat="38.2306267" lon="15.4226317"><ele>28.5</ele><time>2026-04-28T14:38:44.205Z</time></trkpt><trkpt lat="38.2305483" lon="15.4229267"><ele>29.0</ele><time>2026-04-28T14:38:45.205Z</time></trkpt><trkpt lat="38.2304683" lon="15.4232233"><ele>29.0</ele><time>2026-04-28T14:38:46.206Z</time></trkpt><trkpt lat="38.2303967" lon="15.4235217"><ele>29.0</ele><time>2026-04-28T14:38:47.205Z</time></trkpt><trkpt lat="38.2303317" lon="15.423825"><ele>31.0</ele><time>2026-04-28T14:38:48.206Z</time></trkpt><trkpt lat="38.2302767" lon="15.42413"><ele>33.0</ele><time>2026-04-28T14:38:49.205Z</time></trkpt><trkpt lat="38.230225" lon="15.4244367"><ele>35.5</ele><time>2026-04-28T14:38:50.205Z</time></trkpt><trkpt lat="38.23018" lon="15.424745"><ele>38.0</ele><time>2026-04-28T14:38:51.205Z</time></trkpt><trkpt lat="38.2301433" lon="15.4250633"><ele>38.0</ele><time>2026-04-28T14:38:52.205Z</time></trkpt><trkpt lat="38.2300983" lon="15.4253633"><ele>38.0</ele><time>2026-04-28T14:38:53.205Z</time></trkpt><trkpt lat="38.2300617" lon="15.4256467"><ele>40.0</ele><time>2026-04-28T14:38:54.205Z</time></trkpt><trkpt lat="38.2300217" lon="15.425935"><ele>42.0</ele><time>2026-04-28T14:38:55.205Z</time></trkpt><trkpt lat="38.229985" lon="15.4262383"><ele>44.5</ele><time>2026-04-28T14:38:56.205Z</time></trkpt><trkpt lat="38.2299483" lon="15.4265383"><ele>47.0</ele><time>2026-04-28T14:38:57.205Z</time></trkpt><trkpt lat="38.23142" lon="15.4326683"><ele>42.5</ele><time>2026-04-28T14:39:18.206Z</time></trkpt><trkpt lat="38.2316067" lon="15.4329633"><ele>38.0</ele><time>2026-04-28T14:39:19.206Z</time></trkpt><trkpt lat="38.2318333" lon="15.4331917"><ele>38.0</ele><time>2026-04-28T14:39:20.205Z</time></trkpt><trkpt lat="38.2320533" lon="15.4334083"><ele>38.0</ele><time>2026-04-28T14:39:21.205Z</time></trkpt><trkpt lat="38.2322683" lon="15.4336167"><ele>41.5</ele><time>2026-04-28T14:39:22.205Z</time></trkpt><trkpt lat="38.2324717" lon="15.4338217"><ele>45.0</ele><time>2026-04-28T14:39:23.205Z</time></trkpt><trkpt lat="38.23267" lon="15.43403"><ele>45.0</ele><time>2026-04-28T14:39:24.206Z</time></trkpt><trkpt lat="38.23287" lon="15.434235"><ele>45.0</ele><time>2026-04-28T14:39:25.205Z</time></trkpt><trkpt lat="38.23307" lon="15.43444"><ele>39.5</ele><time>2026-04-28T14:39:26.206Z</time></trkpt><trkpt lat="38.2332683" lon="15.4346533"><ele>34.0</ele><time>2026-04-28T14:39:27.205Z</time></trkpt><trkpt lat="38.2334717" lon="15.4348533"><ele>34.0</ele><time>2026-04-28T14:39:28.205Z</time></trkpt><trkpt lat="38.233675" lon="15.4350567"><ele>34.0</ele><time>2026-04-28T14:39:29.205Z</time></trkpt><trkpt lat="38.233875" lon="15.43525"><ele>34.0</ele><time>2026-04-28T14:39:30.205Z</time></trkpt><trkpt lat="38.234085" lon="15.435445"><ele>34.0</ele><time>2026-04-28T14:39:31.205Z</time></trkpt><trkpt lat="38.2343017" lon="15.4356367"><ele>37.0</ele><time>2026-04-28T14:39:32.205Z</time></trkpt><trkpt lat="38.2345167" lon="15.4358117"><ele>40.0</ele><time>2026-04-28T14:39:33.205Z</time></trkpt><trkpt lat="38.2347367" lon="15.4359817"><ele>40.5</ele><time>2026-04-28T14:39:34.205Z</time></trkpt><trkpt lat="38.23495" lon="15.4361483"><ele>41.0</ele><time>2026-04-28T14:39:35.205Z</time></trkpt><trkpt lat="38.2351633" lon="15.43633"><ele>46.0</ele><time>2026-04-28T14:39:36.205Z</time></trkpt><trkpt lat="38.2353683" lon="15.4365067"><ele>51.0</ele><time>2026-04-28T14:39:37.205Z</time></trkpt><trkpt lat="38.23557" lon="15.4366883"><ele>49.5</ele><time>2026-04-28T14:39:38.205Z</time></trkpt><trkpt lat="38.2357667" lon="15.4368867"><ele>48.0</ele><time>2026-04-28T14:39:39.206Z</time></trkpt><trkpt lat="38.2359583" lon="15.43709"><ele>53.5</ele><time>2026-04-28T14:39:40.205Z</time></trkpt><trkpt lat="38.2361433" lon="15.437295"><ele>59.0</ele><time>2026-04-28T14:39:41.205Z</time></trkpt><trkpt lat="38.2363267" lon="15.4375017"><ele>55.5</ele><time>2026-04-28T14:39:42.206Z</time></trkpt><trkpt lat="38.2365017" lon="15.4377267"><ele>52.0</ele><time>2026-04-28T14:39:43.205Z</time></trkpt><trkpt lat="38.2366717" lon="15.4379483"><ele>53.5</ele><time>2026-04-28T14:39:44.205Z</time></trkpt><trkpt lat="38.2368383" lon="15.43818"><ele>55.0</ele><time>2026-04-28T14:39:45.205Z</time></trkpt><trkpt lat="38.237" lon="15.4384233"><ele>55.0</ele><time>2026-04-28T14:39:46.205Z</time></trkpt><trkpt lat="38.2371533" lon="15.4386717"><ele>55.0</ele><time>2026-04-28T14:39:47.205Z</time></trkpt><trkpt lat="38.23731" lon="15.4389133"><ele>55.0</ele><time>2026-04-28T14:39:48.205Z</time></trkpt><trkpt lat="38.2374617" lon="15.4391833"><ele>55.0</ele><time>2026-04-28T14:39:49.205Z</time></trkpt><trkpt lat="38.2376083" lon="15.43945"><ele>59.5</ele><time>2026-04-28T14:39:50.205Z</time></trkpt><trkpt lat="38.2377483" lon="15.4397267"><ele>64.0</ele><time>2026-04-28T14:39:51.206Z</time></trkpt><trkpt lat="38.23789" lon="15.44"><ele>64.0</ele><time>2026-04-28T14:39:52.206Z</time></trkpt><trkpt lat="38.2380233" lon="15.4402867"><ele>64.0</ele><time>2026-04-28T14:39:53.205Z</time></trkpt><trkpt lat="38.2381483" lon="15.4405783"><ele>60.5</ele><time>2026-04-28T14:39:54.205Z</time></trkpt><trkpt lat="38.238275" lon="15.4408833"><ele>57.0</ele><time>2026-04-28T14:39:55.205Z</time></trkpt><trkpt lat="38.238395" lon="15.4411833"><ele>52.0</ele><time>2026-04-28T14:39:56.205Z</time></trkpt><trkpt lat="38.2385167" lon="15.441485"><ele>47.0</ele><time>2026-04-28T14:39:57.205Z</time></trkpt><trkpt lat="38.2386317" lon="15.4417933"><ele>47.0</ele><time>2026-04-28T14:39:58.205Z</time></trkpt><trkpt lat="38.2387517" lon="15.4421"><ele>47.0</ele><time>2026-04-28T14:39:59.205Z</time></trkpt><trkpt lat="38.23887" lon="15.4424017"><ele>41.0</ele><time>2026-04-28T14:40:00.206Z</time></trkpt><trkpt lat="38.23899" lon="15.4427"><ele>35.0</ele><time>2026-04-28T14:40:01.205Z</time></trkpt><trkpt lat="38.23911" lon="15.4429967"><ele>33.0</ele><time>2026-04-28T14:40:02.205Z</time></trkpt><trkpt lat="38.2392317" lon="15.443295"><ele>31.0</ele><time>2026-04-28T14:40:03.205Z</time></trkpt><trkpt lat="38.2393483" lon="15.4435983"><ele>30.5</ele><time>2026-04-28T14:40:04.205Z</time></trkpt><trkpt lat="38.2394683" lon="15.44389"><ele>30.0</ele><time>2026-04-28T14:40:05.205Z</time></trkpt><trkpt lat="38.2395883" lon="15.4441883"><ele>30.0</ele><time>2026-04-28T14:40:06.205Z</time></trkpt><trkpt lat="38.2397067" lon="15.4444867"><ele>30.0</ele><time>2026-04-28T14:40:07.205Z</time></trkpt><trkpt lat="38.23983" lon="15.4447867"><ele>30.0</ele><time>2026-04-28T14:40:08.205Z</time></trkpt><trkpt lat="38.2399533" lon="15.4450867"><ele>30.0</ele><time>2026-04-28T14:40:09.205Z</time></trkpt><trkpt lat="38.24008" lon="15.445385"><ele>29.5</ele><time>2026-04-28T14:40:10.205Z</time></trkpt><trkpt lat="38.240205" lon="15.4456883"><ele>29.0</ele><time>2026-04-28T14:40:11.205Z</time></trkpt><trkpt lat="38.24033" lon="15.44599"><ele>29.0</ele><time>2026-04-28T14:40:12.205Z</time></trkpt><trkpt lat="38.2404583" lon="15.4462833"><ele>29.0</ele><time>2026-04-28T14:40:13.206Z</time></trkpt><trkpt lat="38.2405917" lon="15.4465633"><ele>28.0</ele><time>2026-04-28T14:40:14.205Z</time></trkpt><trkpt lat="38.2407283" lon="15.4468233"><ele>27.0</ele><time>2026-04-28T14:40:15.205Z</time></trkpt><trkpt lat="38.24087" lon="15.4470633"><ele>29.666666666666664</ele><time>2026-04-28T14:40:16.205Z</time></trkpt><trkpt lat="38.241015" lon="15.447285"><ele>32.33333333333333</ele><time>2026-04-28T14:40:17.205Z</time></trkpt><trkpt lat="38.24116" lon="15.44749"><ele>35.0</ele><time>2026-04-28T14:40:18.205Z</time></trkpt><trkpt lat="38.2413067" lon="15.4476783"><ele>35.0</ele><time>2026-04-28T14:40:19.205Z</time></trkpt><trkpt lat="38.2414533" lon="15.4478483"><ele>35.0</ele><time>2026-04-28T14:40:20.205Z</time></trkpt><trkpt lat="38.2415983" lon="15.4480017"><ele>35.0</ele><time>2026-04-28T14:40:21.205Z</time></trkpt><trkpt lat="38.24174" lon="15.44814"><ele>36.0</ele><time>2026-04-28T14:40:22.204Z</time></trkpt><trkpt lat="38.2418833" lon="15.4482683"><ele>37.0</ele><time>2026-04-28T14:40:23.205Z</time></trkpt><trkpt lat="38.2420267" lon="15.4483783"><ele>38.0</ele><time>2026-04-28T14:40:24.205Z</time></trkpt><trkpt lat="38.2421733" lon="15.4484967"><ele>37.666666666666664</ele><time>2026-04-28T14:40:25.205Z</time></trkpt><trkpt lat="38.2423233" lon="15.448605"><ele>37.333333333333336</ele><time>2026-04-28T14:40:26.205Z</time></trkpt><trkpt lat="38.2424667" lon="15.4487083"><ele>37.0</ele><time>2026-04-28T14:40:27.206Z</time></trkpt><trkpt lat="38.24261" lon="15.4488183"><ele>37.0</ele><time>2026-04-28T14:40:28.205Z</time></trkpt><trkpt lat="38.2427467" lon="15.4489217"><ele>37.0</ele><time>2026-04-28T14:40:29.205Z</time></trkpt><trkpt lat="38.2428917" lon="15.449025"><ele>37.0</ele><time>2026-04-28T14:40:30.205Z</time></trkpt><trkpt lat="38.2430367" lon="15.4491283"><ele>35.0</ele><time>2026-04-28T14:40:31.205Z</time></trkpt><trkpt lat="38.243195" lon="15.44924"><ele>33.0</ele><time>2026-04-28T14:40:32.205Z</time></trkpt><trkpt lat="38.2433633" lon="15.44935"><ele>31.0</ele><time>2026-04-28T14:40:33.205Z</time></trkpt><trkpt lat="38.2435417" lon="15.44947"><ele>31.0</ele><time>2026-04-28T14:40:34.206Z</time></trkpt><trkpt lat="38.2437183" lon="15.4495967"><ele>31.0</ele><time>2026-04-28T14:40:35.205Z</time></trkpt><trkpt lat="38.2438917" lon="15.449735"><ele>31.0</ele><time>2026-04-28T14:40:36.205Z</time></trkpt><trkpt lat="38.2440633" lon="15.4498783"><ele>29.666666666666668</ele><time>2026-04-28T14:40:37.205Z</time></trkpt><trkpt lat="38.24423" lon="15.4500233"><ele>28.333333333333336</ele><time>2026-04-28T14:40:38.205Z</time></trkpt><trkpt lat="38.2443917" lon="15.45017"><ele>27.0</ele><time>2026-04-28T14:40:39.205Z</time></trkpt><trkpt lat="38.244545" lon="15.4503133"><ele>27.333333333333336</ele><time>2026-04-28T14:40:40.205Z</time></trkpt><trkpt lat="38.2447033" lon="15.4504583"><ele>27.666666666666668</ele><time>2026-04-28T14:40:41.205Z</time></trkpt><trkpt lat="38.2448483" lon="15.4505983"><ele>28.0</ele><time>2026-04-28T14:40:42.205Z</time></trkpt><trkpt lat="38.2449883" lon="15.45074"><ele>29.333333333333336</ele><time>2026-04-28T14:40:43.206Z</time></trkpt><trkpt lat="38.2451217" lon="15.4508767"><ele>30.666666666666664</ele><time>2026-04-28T14:40:44.206Z</time></trkpt><trkpt lat="38.2452517" lon="15.4510083"><ele>32.0</ele><time>2026-04-28T14:40:45.205Z</time></trkpt><trkpt lat="38.2453767" lon="15.45113"><ele>32.0</ele><time>2026-04-28T14:40:46.205Z</time></trkpt><trkpt lat="38.2454883" lon="15.4512517"><ele>32.0</ele><time>2026-04-28T14:40:47.205Z</time></trkpt><trkpt lat="38.245595" lon="15.4513767"><ele>32.0</ele><time>2026-04-28T14:40:48.205Z</time></trkpt><trkpt lat="38.2457" lon="15.4514983"><ele>32.0</ele><time>2026-04-28T14:40:49.206Z</time></trkpt><trkpt lat="38.2457933" lon="15.4516083"><ele>33.0</ele><time>2026-04-28T14:40:50.205Z</time></trkpt><trkpt lat="38.2458783" lon="15.45171"><ele>34.0</ele><time>2026-04-28T14:40:51.205Z</time></trkpt><trkpt lat="38.2459583" lon="15.4518017"><ele>35.0</ele><time>2026-04-28T14:40:52.205Z</time></trkpt><trkpt lat="38.2460217" lon="15.4518767"><ele>36.0</ele><time>2026-04-28T14:40:53.206Z</time></trkpt><trkpt lat="38.2461" lon="15.4519767"><ele>37.0</ele><time>2026-04-28T14:40:55.205Z</time></trkpt><trkpt lat="38.2461567" lon="15.4520433"><ele>37.0</ele><time>2026-04-28T14:40:57.205Z</time></trkpt><trkpt lat="38.246205" lon="15.45211"><ele>37.0</ele><time>2026-04-28T14:41:30.205Z</time></trkpt><trkpt lat="38.2462783" lon="15.452215"><ele>37.0</ele><time>2026-04-28T14:41:32.205Z</time></trkpt><trkpt lat="38.24634" lon="15.452285"><ele>37.0</ele><time>2026-04-28T14:41:33.205Z</time></trkpt><trkpt lat="38.2464067" lon="15.4523517"><ele>37.0</ele><time>2026-04-28T14:41:34.205Z</time></trkpt><trkpt lat="38.2464767" lon="15.4524267"><ele>37.0</ele><time>2026-04-28T14:41:35.206Z</time></trkpt><trkpt lat="38.2465433" lon="15.4525117"><ele>37.6</ele><time>2026-04-28T14:41:36.206Z</time></trkpt><trkpt lat="38.2466083" lon="15.4525983"><ele>38.2</ele><time>2026-04-28T14:41:37.206Z</time></trkpt><trkpt lat="38.2466717" lon="15.4526933"><ele>38.8</ele><time>2026-04-28T14:41:38.205Z</time></trkpt><trkpt lat="38.2467417" lon="15.4527983"><ele>39.4</ele><time>2026-04-28T14:41:39.205Z</time></trkpt><trkpt lat="38.2468117" lon="15.4529133"><ele>40.0</ele><time>2026-04-28T14:41:40.205Z</time></trkpt><trkpt lat="38.246885" lon="15.4530367"><ele>40.0</ele><time>2026-04-28T14:41:41.206Z</time></trkpt><trkpt lat="38.2469617" lon="15.453155"><ele>40.0</ele><time>2026-04-28T14:41:42.205Z</time></trkpt><trkpt lat="38.2470417" lon="15.45327"><ele>40.0</ele><time>2026-04-28T14:41:43.205Z</time></trkpt><trkpt lat="38.2471217" lon="15.45338"><ele>40.0</ele><time>2026-04-28T14:41:44.205Z</time></trkpt><trkpt lat="38.2472" lon="15.4534933"><ele>40.0</ele><time>2026-04-28T14:41:45.205Z</time></trkpt><trkpt lat="38.2472733" lon="15.453615"><ele>40.0</ele><time>2026-04-28T14:41:46.205Z</time></trkpt><trkpt lat="38.2473433" lon="15.4537417"><ele>40.0</ele><time>2026-04-28T14:41:47.205Z</time></trkpt><trkpt lat="38.24741" lon="15.4538817"><ele>40.0</ele><time>2026-04-28T14:41:48.205Z</time></trkpt><trkpt lat="38.2474717" lon="15.4540417"><ele>37.0</ele><time>2026-04-28T14:41:49.205Z</time></trkpt><trkpt lat="38.24754" lon="15.454205"><ele>34.0</ele><time>2026-04-28T14:41:50.205Z</time></trkpt><trkpt lat="38.2476083" lon="15.4543733"><ele>31.0</ele><time>2026-04-28T14:41:51.205Z</time></trkpt><trkpt lat="38.247675" lon="15.454545"><ele>28.0</ele><time>2026-04-28T14:41:52.205Z</time></trkpt><trkpt lat="38.247735" lon="15.4547267"><ele>28.0</ele><time>2026-04-28T14:41:53.205Z</time></trkpt><trkpt lat="38.2477867" lon="15.454915"><ele>28.0</ele><time>2026-04-28T14:41:54.205Z</time></trkpt><trkpt lat="38.2478417" lon="15.4550967"><ele>28.0</ele><time>2026-04-28T14:41:55.205Z</time></trkpt><trkpt lat="38.24789" lon="15.4552783"><ele>32.66666666666667</ele><time>2026-04-28T14:41:56.205Z</time></trkpt><trkpt lat="38.24793" lon="15.45547"><ele>37.333333333333336</ele><time>2026-04-28T14:41:57.205Z</time></trkpt><trkpt lat="38.2479667" lon="15.45566"><ele>42.0</ele><time>2026-04-28T14:41:58.205Z</time></trkpt><trkpt lat="38.247995" lon="15.4558483"><ele>42.0</ele><time>2026-04-28T14:41:59.205Z</time></trkpt><trkpt lat="38.248015" lon="15.4560417"><ele>42.0</ele><time>2026-04-28T14:42:00.205Z</time></trkpt><trkpt lat="38.2480333" lon="15.4562317"><ele>42.0</ele><time>2026-04-28T14:42:01.206Z</time></trkpt><trkpt lat="38.2480483" lon="15.4564133"><ele>42.0</ele><time>2026-04-28T14:42:02.205Z</time></trkpt><trkpt lat="38.2480617" lon="15.4565983"><ele>45.33333333333333</ele><time>2026-04-28T14:42:03.205Z</time></trkpt><trkpt lat="38.2480783" lon="15.4567833"><ele>48.666666666666664</ele><time>2026-04-28T14:42:04.205Z</time></trkpt><trkpt lat="38.248095" lon="15.4569683"><ele>52.0</ele><time>2026-04-28T14:42:05.205Z</time></trkpt><trkpt lat="38.24829" lon="15.4595167"><ele>48.5</ele><time>2026-04-28T14:42:13.207Z</time></trkpt><trkpt lat="38.2482833" lon="15.4598417"><ele>45.0</ele><time>2026-04-28T14:42:14.206Z</time></trkpt><trkpt lat="38.248355" lon="15.4601033"><ele>45.0</ele><time>2026-04-28T14:42:15.206Z</time></trkpt><trkpt lat="38.2484367" lon="15.46033"><ele>45.0</ele><time>2026-04-28T14:42:16.207Z</time></trkpt><trkpt lat="38.248525" lon="15.4605533"><ele>45.0</ele><time>2026-04-28T14:42:17.207Z</time></trkpt><trkpt lat="38.24861" lon="15.4607683"><ele>47.33333333333333</ele><time>2026-04-28T14:42:18.207Z</time></trkpt><trkpt lat="38.2486933" lon="15.4609933"><ele>49.666666666666664</ele><time>2026-04-28T14:42:19.206Z</time></trkpt><trkpt lat="38.2487833" lon="15.461235"><ele>52.0</ele><time>2026-04-28T14:42:20.206Z</time></trkpt><trkpt lat="38.24887" lon="15.4614633"><ele>53.33333333333333</ele><time>2026-04-28T14:42:21.206Z</time></trkpt><trkpt lat="38.2489733" lon="15.4616867"><ele>54.66666666666667</ele><time>2026-04-28T14:42:22.206Z</time></trkpt><trkpt lat="38.249085" lon="15.461895"><ele>56.0</ele><time>2026-04-28T14:42:23.206Z</time></trkpt><trkpt lat="38.2492033" lon="15.462105"><ele>60.0</ele><time>2026-04-28T14:42:24.206Z</time></trkpt><trkpt lat="38.2493283" lon="15.4623117"><ele>64.0</ele><time>2026-04-28T14:42:25.206Z</time></trkpt><trkpt lat="38.2494483" lon="15.4625217"><ele>68.0</ele><time>2026-04-28T14:42:26.206Z</time></trkpt><trkpt lat="38.2495683" lon="15.4627333"><ele>68.0</ele><time>2026-04-28T14:42:27.206Z</time></trkpt><trkpt lat="38.249685" lon="15.462945"><ele>68.0</ele><time>2026-04-28T14:42:28.207Z</time></trkpt><trkpt lat="38.2498033" lon="15.4631533"><ele>68.0</ele><time>2026-04-28T14:42:29.206Z</time></trkpt><trkpt lat="38.2499283" lon="15.46336"><ele>69.66666666666667</ele><time>2026-04-28T14:42:30.206Z</time></trkpt><trkpt lat="38.2500517" lon="15.4635683"><ele>71.33333333333333</ele><time>2026-04-28T14:42:31.207Z</time></trkpt><trkpt lat="38.2501733" lon="15.4637733"><ele>73.0</ele><time>2026-04-28T14:42:32.207Z</time></trkpt><trkpt lat="38.2502883" lon="15.4639783"><ele>73.0</ele><time>2026-04-28T14:42:33.206Z</time></trkpt><trkpt lat="38.2503983" lon="15.464185"><ele>73.0</ele><time>2026-04-28T14:42:34.207Z</time></trkpt><trkpt lat="38.2505067" lon="15.46439"><ele>73.0</ele><time>2026-04-28T14:42:35.206Z</time></trkpt><trkpt lat="38.2506083" lon="15.464595"><ele>72.66666666666666</ele><time>2026-04-28T14:42:36.206Z</time></trkpt><trkpt lat="38.2507033" lon="15.4648"><ele>72.33333333333333</ele><time>2026-04-28T14:42:37.207Z</time></trkpt><trkpt lat="38.250795" lon="15.465005"><ele>72.0</ele><time>2026-04-28T14:42:38.206Z</time></trkpt><trkpt lat="38.2508767" lon="15.465205"><ele>72.0</ele><time>2026-04-28T14:42:39.207Z</time></trkpt><trkpt lat="38.2509483" lon="15.4654017"><ele>72.0</ele><time>2026-04-28T14:42:40.206Z</time></trkpt><trkpt lat="38.25101" lon="15.4655933"><ele>72.0</ele><time>2026-04-28T14:42:41.207Z</time></trkpt><trkpt lat="38.251065" lon="15.4657833"><ele>74.33333333333333</ele><time>2026-04-28T14:42:42.206Z</time></trkpt><trkpt lat="38.251105" lon="15.46597"><ele>76.66666666666666</ele><time>2026-04-28T14:42:43.206Z</time></trkpt><trkpt lat="38.2511517" lon="15.4661567"><ele>79.0</ele><time>2026-04-28T14:42:44.206Z</time></trkpt><trkpt lat="38.2511917" lon="15.4663467"><ele>80.75</ele><time>2026-04-28T14:42:45.206Z</time></trkpt><trkpt lat="38.2512217" lon="15.4665283"><ele>82.5</ele><time>2026-04-28T14:42:46.206Z</time></trkpt><trkpt lat="38.2512483" lon="15.4667133"><ele>84.25</ele><time>2026-04-28T14:42:47.206Z</time></trkpt><trkpt lat="38.2512717" lon="15.466885"><ele>86.0</ele><time>2026-04-28T14:42:48.206Z</time></trkpt><trkpt lat="38.2512883" lon="15.4670517"><ele>87.75</ele><time>2026-04-28T14:42:49.206Z</time></trkpt><trkpt lat="38.251305" lon="15.46721"><ele>89.5</ele><time>2026-04-28T14:42:50.206Z</time></trkpt><trkpt lat="38.25131" lon="15.4673783"><ele>91.25</ele><time>2026-04-28T14:42:51.206Z</time></trkpt><trkpt lat="38.251315" lon="15.46755"><ele>93.0</ele><time>2026-04-28T14:42:52.206Z</time></trkpt><trkpt lat="38.2513133" lon="15.467715"><ele>93.0</ele><time>2026-04-28T14:42:53.206Z</time></trkpt><trkpt lat="38.2513083" lon="15.4678867"><ele>93.0</ele><time>2026-04-28T14:42:54.206Z</time></trkpt><trkpt lat="38.2512933" lon="15.4680583"><ele>93.0</ele><time>2026-04-28T14:42:55.206Z</time></trkpt><trkpt lat="38.25128" lon="15.4682283"><ele>93.0</ele><time>2026-04-28T14:42:56.206Z</time></trkpt><trkpt lat="38.2512717" lon="15.4684033"><ele>93.25</ele><time>2026-04-28T14:42:57.206Z</time></trkpt><trkpt lat="38.25125" lon="15.4685783"><ele>93.5</ele><time>2026-04-28T14:42:58.206Z</time></trkpt><trkpt lat="38.2512117" lon="15.4687533"><ele>93.75</ele><time>2026-04-28T14:42:59.207Z</time></trkpt><trkpt lat="38.2511767" lon="15.4689333"><ele>94.0</ele><time>2026-04-28T14:43:00.207Z</time></trkpt><trkpt lat="38.2511383" lon="15.469105"><ele>90.75</ele><time>2026-04-28T14:43:01.206Z</time></trkpt><trkpt lat="38.2510933" lon="15.4692817"><ele>87.5</ele><time>2026-04-28T14:43:02.206Z</time></trkpt><trkpt lat="38.251045" lon="15.4694567"><ele>84.25</ele><time>2026-04-28T14:43:03.206Z</time></trkpt><trkpt lat="38.25099" lon="15.469625"><ele>81.0</ele><time>2026-04-28T14:43:04.206Z</time></trkpt><trkpt lat="38.2509333" lon="15.4697883"><ele>78.0</ele><time>2026-04-28T14:43:05.207Z</time></trkpt><trkpt lat="38.250875" lon="15.4699467"><ele>75.0</ele><time>2026-04-28T14:43:06.206Z</time></trkpt><trkpt lat="38.2508117" lon="15.4701017"><ele>72.0</ele><time>2026-04-28T14:43:07.206Z</time></trkpt><trkpt lat="38.2507467" lon="15.4702617"><ele>69.0</ele><time>2026-04-28T14:43:08.206Z</time></trkpt><trkpt lat="38.2506817" lon="15.4704167"><ele>68.25</ele><time>2026-04-28T14:43:09.206Z</time></trkpt><trkpt lat="38.2506133" lon="15.4705683"><ele>67.5</ele><time>2026-04-28T14:43:10.206Z</time></trkpt><trkpt lat="38.2505333" lon="15.470715"><ele>66.75</ele><time>2026-04-28T14:43:11.206Z</time></trkpt><trkpt lat="38.2504517" lon="15.470855"><ele>66.0</ele><time>2026-04-28T14:43:12.206Z</time></trkpt><trkpt lat="38.250365" lon="15.4709933"><ele>66.0</ele><time>2026-04-28T14:43:13.206Z</time></trkpt><trkpt lat="38.2502767" lon="15.4711267"><ele>66.0</ele><time>2026-04-28T14:43:14.207Z</time></trkpt><trkpt lat="38.2501967" lon="15.4712617"><ele>66.0</ele><time>2026-04-28T14:43:15.206Z</time></trkpt><trkpt lat="38.2501083" lon="15.471385"><ele>66.0</ele><time>2026-04-28T14:43:16.206Z</time></trkpt><trkpt lat="38.250015" lon="15.471515"><ele>67.0</ele><time>2026-04-28T14:43:17.206Z</time></trkpt><trkpt lat="38.24991" lon="15.471645"><ele>68.0</ele><time>2026-04-28T14:43:18.207Z</time></trkpt><trkpt lat="38.2497967" lon="15.471785"><ele>69.0</ele><time>2026-04-28T14:43:19.207Z</time></trkpt><trkpt lat="38.2496667" lon="15.47193"><ele>66.0</ele><time>2026-04-28T14:43:20.207Z</time></trkpt><trkpt lat="38.2495233" lon="15.47207"><ele>63.0</ele><time>2026-04-28T14:43:21.206Z</time></trkpt><trkpt lat="38.249365" lon="15.47221"><ele>60.0</ele><time>2026-04-28T14:43:22.206Z</time></trkpt><trkpt lat="38.2492033" lon="15.4723433"><ele>66.66666666666667</ele><time>2026-04-28T14:43:23.206Z</time></trkpt><trkpt lat="38.24903" lon="15.4724717"><ele>73.33333333333334</ele><time>2026-04-28T14:43:24.206Z</time></trkpt><trkpt lat="38.24885" lon="15.47259"><ele>80.0</ele><time>2026-04-28T14:43:25.206Z</time></trkpt><trkpt lat="38.24867" lon="15.4727133"><ele>80.33333333333334</ele><time>2026-04-28T14:43:26.206Z</time></trkpt><trkpt lat="38.2484867" lon="15.4728317"><ele>80.66666666666667</ele><time>2026-04-28T14:43:27.206Z</time></trkpt><trkpt lat="38.2483" lon="15.472955"><ele>81.0</ele><time>2026-04-28T14:43:28.206Z</time></trkpt><trkpt lat="38.2481183" lon="15.4730767"><ele>86.33333333333334</ele><time>2026-04-28T14:43:29.206Z</time></trkpt><trkpt lat="38.2479383" lon="15.473205"><ele>91.66666666666667</ele><time>2026-04-28T14:43:30.206Z</time></trkpt><trkpt lat="38.2477517" lon="15.4733267"><ele>97.0</ele><time>2026-04-28T14:43:31.206Z</time></trkpt><trkpt lat="38.2475683" lon="15.4734533"><ele>97.0</ele><time>2026-04-28T14:43:32.206Z</time></trkpt><trkpt lat="38.247385" lon="15.473585"><ele>97.0</ele><time>2026-04-28T14:43:33.206Z</time></trkpt><trkpt lat="38.2471933" lon="15.4737167"><ele>97.0</ele><time>2026-04-28T14:43:34.206Z</time></trkpt><trkpt lat="38.2470083" lon="15.47385"><ele>102.5</ele><time>2026-04-28T14:43:35.206Z</time></trkpt><trkpt lat="38.246815" lon="15.4739917"><ele>108.0</ele><time>2026-04-28T14:43:36.206Z</time></trkpt><trkpt lat="38.2466267" lon="15.4741533"><ele>97.5</ele><time>2026-04-28T14:43:37.206Z</time></trkpt><trkpt lat="38.2464283" lon="15.4743283"><ele>87.0</ele><time>2026-04-28T14:43:38.206Z</time></trkpt><trkpt lat="38.2462367" lon="15.4745233"><ele>96.5</ele><time>2026-04-28T14:43:39.206Z</time></trkpt><trkpt lat="38.246065" lon="15.4747467"><ele>106.0</ele><time>2026-04-28T14:43:40.206Z</time></trkpt><trkpt lat="38.2458967" lon="15.47499"><ele>106.0</ele><time>2026-04-28T14:43:41.207Z</time></trkpt><trkpt lat="38.2457383" lon="15.4752333"><ele>106.0</ele><time>2026-04-28T14:43:42.206Z</time></trkpt><trkpt lat="38.24559" lon="15.4754933"><ele>100.5</ele><time>2026-04-28T14:43:43.206Z</time></trkpt><trkpt lat="38.2454533" lon="15.47576"><ele>95.0</ele><time>2026-04-28T14:43:44.206Z</time></trkpt><trkpt lat="38.2453283" lon="15.4760317"><ele>106.0</ele><time>2026-04-28T14:43:45.206Z</time></trkpt><trkpt lat="38.2452167" lon="15.4763083"><ele>117.0</ele><time>2026-04-28T14:43:46.206Z</time></trkpt><trkpt lat="38.2451083" lon="15.4765883"><ele>117.0</ele><time>2026-04-28T14:43:47.206Z</time></trkpt><trkpt lat="38.2450067" lon="15.4768733"><ele>117.0</ele><time>2026-04-28T14:43:48.206Z</time></trkpt><trkpt lat="38.24491" lon="15.477165"><ele>122.0</ele><time>2026-04-28T14:43:49.206Z</time></trkpt><trkpt lat="38.2448183" lon="15.477455"><ele>127.0</ele><time>2026-04-28T14:43:50.206Z</time></trkpt><trkpt lat="38.2447267" lon="15.4777483"><ele>135.0</ele><time>2026-04-28T14:43:51.206Z</time></trkpt><trkpt lat="38.2446333" lon="15.4780483"><ele>143.0</ele><time>2026-04-28T14:43:52.206Z</time></trkpt><trkpt lat="38.244535" lon="15.4783417"><ele>143.0</ele><time>2026-04-28T14:43:53.206Z</time></trkpt><trkpt lat="38.2444383" lon="15.478635"><ele>143.0</ele><time>2026-04-28T14:43:54.206Z</time></trkpt><trkpt lat="38.2443383" lon="15.4789317"><ele>139.0</ele><time>2026-04-28T14:43:55.207Z</time></trkpt><trkpt lat="38.24397" lon="15.4793833"><ele>126.5</ele><time>2026-04-28T14:43:57.205Z</time></trkpt><trkpt lat="38.24379" lon="15.4796233"><ele>114.0</ele><time>2026-04-28T14:43:58.205Z</time></trkpt><trkpt lat="38.2436183" lon="15.479855"><ele>114.0</ele><time>2026-04-28T14:43:59.205Z</time></trkpt><trkpt lat="38.24343" lon="15.4800683"><ele>114.0</ele><time>2026-04-28T14:44:00.205Z</time></trkpt><trkpt lat="38.243245" lon="15.4802817"><ele>116.5</ele><time>2026-04-28T14:44:01.205Z</time></trkpt><trkpt lat="38.243065" lon="15.4805017"><ele>119.0</ele><time>2026-04-28T14:44:02.205Z</time></trkpt><trkpt lat="38.2428933" lon="15.4807167"><ele>119.0</ele><time>2026-04-28T14:44:03.206Z</time></trkpt><trkpt lat="38.24272" lon="15.4809417"><ele>119.0</ele><time>2026-04-28T14:44:04.205Z</time></trkpt><trkpt lat="38.242555" lon="15.4811883"><ele>128.0</ele><time>2026-04-28T14:44:05.205Z</time></trkpt><trkpt lat="38.2424017" lon="15.481435"><ele>137.0</ele><time>2026-04-28T14:44:06.205Z</time></trkpt><trkpt lat="38.242265" lon="15.4816917"><ele>143.0</ele><time>2026-04-28T14:44:07.205Z</time></trkpt><trkpt lat="38.2421433" lon="15.481955"><ele>149.0</ele><time>2026-04-28T14:44:08.205Z</time></trkpt><trkpt lat="38.242035" lon="15.4822283"><ele>151.5</ele><time>2026-04-28T14:44:09.206Z</time></trkpt><trkpt lat="38.2419283" lon="15.4825183"><ele>154.0</ele><time>2026-04-28T14:44:10.205Z</time></trkpt><trkpt lat="38.2418283" lon="15.4828117"><ele>153.0</ele><time>2026-04-28T14:44:11.205Z</time></trkpt><trkpt lat="38.2417417" lon="15.4831117"><ele>152.0</ele><time>2026-04-28T14:44:12.205Z</time></trkpt><trkpt lat="38.24167" lon="15.4834217"><ele>152.0</ele><time>2026-04-28T14:44:13.205Z</time></trkpt><trkpt lat="38.2416133" lon="15.4837317"><ele>152.0</ele><time>2026-04-28T14:44:14.205Z</time></trkpt><trkpt lat="38.2415617" lon="15.4840417"><ele>151.5</ele><time>2026-04-28T14:44:15.205Z</time></trkpt><trkpt lat="38.2415183" lon="15.48436"><ele>151.0</ele><time>2026-04-28T14:44:16.205Z</time></trkpt><trkpt lat="38.2414717" lon="15.48467"><ele>153.0</ele><time>2026-04-28T14:44:17.205Z</time></trkpt><trkpt lat="38.2414283" lon="15.484985"><ele>155.0</ele><time>2026-04-28T14:44:18.205Z</time></trkpt><trkpt lat="38.24138" lon="15.4852917"><ele>157.0</ele><time>2026-04-28T14:44:19.205Z</time></trkpt><trkpt lat="38.241335" lon="15.4856"><ele>159.0</ele><time>2026-04-28T14:44:20.205Z</time></trkpt><trkpt lat="38.241285" lon="15.4859067"><ele>159.0</ele><time>2026-04-28T14:44:21.205Z</time></trkpt><trkpt lat="38.24123" lon="15.48622"><ele>159.0</ele><time>2026-04-28T14:44:22.206Z</time></trkpt><trkpt lat="38.241165" lon="15.4865183"><ele>160.5</ele><time>2026-04-28T14:44:23.205Z</time></trkpt><trkpt lat="38.2410983" lon="15.486815"><ele>162.0</ele><time>2026-04-28T14:44:24.205Z</time></trkpt><trkpt lat="38.24102" lon="15.48712"><ele>163.0</ele><time>2026-04-28T14:44:25.205Z</time></trkpt><trkpt lat="38.2409417" lon="15.48742"><ele>164.0</ele><time>2026-04-28T14:44:26.206Z</time></trkpt><trkpt lat="38.240855" lon="15.4877167"><ele>169.5</ele><time>2026-04-28T14:44:27.205Z</time></trkpt><trkpt lat="38.2407683" lon="15.4880117"><ele>175.0</ele><time>2026-04-28T14:44:28.205Z</time></trkpt><trkpt lat="38.240675" lon="15.488305"><ele>167.5</ele><time>2026-04-28T14:44:29.205Z</time></trkpt><trkpt lat="38.2405817" lon="15.4886017"><ele>160.0</ele><time>2026-04-28T14:44:30.205Z</time></trkpt><trkpt lat="38.2404867" lon="15.4888867"><ele>160.0</ele><time>2026-04-28T14:44:31.205Z</time></trkpt><trkpt lat="38.2403917" lon="15.4891683"><ele>160.0</ele><time>2026-04-28T14:44:32.206Z</time></trkpt><trkpt lat="38.24029" lon="15.489455"><ele>164.0</ele><time>2026-04-28T14:44:33.205Z</time></trkpt><trkpt lat="38.2401983" lon="15.48974"><ele>168.0</ele><time>2026-04-28T14:44:34.205Z</time></trkpt><trkpt lat="38.2401017" lon="15.4900167"><ele>168.0</ele><time>2026-04-28T14:44:35.205Z</time></trkpt><trkpt lat="38.2400133" lon="15.4903017"><ele>168.0</ele><time>2026-04-28T14:44:36.205Z</time></trkpt><trkpt lat="38.2399317" lon="15.4905933"><ele>166.0</ele><time>2026-04-28T14:44:37.205Z</time></trkpt><trkpt lat="38.239855" lon="15.4908783"><ele>164.0</ele><time>2026-04-28T14:44:38.205Z</time></trkpt><trkpt lat="38.2397883" lon="15.4911783"><ele>164.0</ele><time>2026-04-28T14:44:39.205Z</time></trkpt><trkpt lat="38.2397233" lon="15.4914783"><ele>164.0</ele><time>2026-04-28T14:44:40.206Z</time></trkpt><trkpt lat="38.2396683" lon="15.4917783"><ele>164.0</ele><time>2026-04-28T14:44:41.205Z</time></trkpt><trkpt lat="38.239625" lon="15.492085"><ele>164.0</ele><time>2026-04-28T14:44:42.206Z</time></trkpt><trkpt lat="38.2395883" lon="15.492395"><ele>167.0</ele><time>2026-04-28T14:44:43.205Z</time></trkpt><trkpt lat="38.2395483" lon="15.4927033"><ele>170.0</ele><time>2026-04-28T14:44:44.205Z</time></trkpt><trkpt lat="38.2395183" lon="15.49301"><ele>175.0</ele><time>2026-04-28T14:44:45.205Z</time></trkpt><trkpt lat="38.239485" lon="15.4933183"><ele>180.0</ele><time>2026-04-28T14:44:46.205Z</time></trkpt><trkpt lat="38.2394483" lon="15.4936183"><ele>181.0</ele><time>2026-04-28T14:44:47.205Z</time></trkpt><trkpt lat="38.23941" lon="15.4939267"><ele>182.0</ele><time>2026-04-28T14:44:48.205Z</time></trkpt><trkpt lat="38.2393767" lon="15.4942417"><ele>182.0</ele><time>2026-04-28T14:44:49.205Z</time></trkpt><trkpt lat="38.23934" lon="15.4945483"><ele>182.0</ele><time>2026-04-28T14:44:50.205Z</time></trkpt><trkpt lat="38.2393017" lon="15.4948533"><ele>183.5</ele><time>2026-04-28T14:44:51.205Z</time></trkpt><trkpt lat="38.2392667" lon="15.4951683"><ele>185.0</ele><time>2026-04-28T14:44:52.205Z</time></trkpt><trkpt lat="38.2392233" lon="15.4954767"><ele>191.0</ele><time>2026-04-28T14:44:53.205Z</time></trkpt><trkpt lat="38.2391667" lon="15.4957783"><ele>197.0</ele><time>2026-04-28T14:44:54.205Z</time></trkpt><trkpt lat="38.23911" lon="15.4960733"><ele>194.0</ele><time>2026-04-28T14:44:55.205Z</time></trkpt><trkpt lat="38.2390317" lon="15.4963783"><ele>191.0</ele><time>2026-04-28T14:44:56.205Z</time></trkpt><trkpt lat="38.2389433" lon="15.4966733"><ele>191.0</ele><time>2026-04-28T14:44:57.205Z</time></trkpt><trkpt lat="38.2388333" lon="15.4969517"><ele>191.0</ele><time>2026-04-28T14:44:58.206Z</time></trkpt><trkpt lat="38.238715" lon="15.49722"><ele>195.0</ele><time>2026-04-28T14:44:59.205Z</time></trkpt><trkpt lat="38.2385833" lon="15.4974767"><ele>199.0</ele><time>2026-04-28T14:45:00.205Z</time></trkpt><trkpt lat="38.2384367" lon="15.4977367"><ele>199.0</ele><time>2026-04-28T14:45:01.205Z</time></trkpt><trkpt lat="38.2382867" lon="15.4979817"><ele>199.0</ele><time>2026-04-28T14:45:02.206Z</time></trkpt><trkpt lat="38.2381267" lon="15.4982217"><ele>199.0</ele><time>2026-04-28T14:45:03.205Z</time></trkpt><trkpt lat="38.23796" lon="15.4984533"><ele>199.0</ele><time>2026-04-28T14:45:04.206Z</time></trkpt><trkpt lat="38.2377733" lon="15.4986583"><ele>202.5</ele><time>2026-04-28T14:45:05.205Z</time></trkpt><trkpt lat="38.2375683" lon="15.4988433"><ele>206.0</ele><time>2026-04-28T14:45:06.205Z</time></trkpt><trkpt lat="38.2373683" lon="15.4990167"><ele>204.0</ele><time>2026-04-28T14:45:07.205Z</time></trkpt><trkpt lat="38.237165" lon="15.4991883"><ele>202.0</ele><time>2026-04-28T14:45:08.205Z</time></trkpt><trkpt lat="38.2369467" lon="15.4993433"><ele>202.0</ele><time>2026-04-28T14:45:09.206Z</time></trkpt><trkpt lat="38.2367383" lon="15.499505"><ele>202.0</ele><time>2026-04-28T14:45:10.205Z</time></trkpt><trkpt lat="38.236525" lon="15.4996433"><ele>205.0</ele><time>2026-04-28T14:45:11.206Z</time></trkpt><trkpt lat="38.236295" lon="15.4997767"><ele>208.0</ele><time>2026-04-28T14:45:12.205Z</time></trkpt><trkpt lat="38.2360717" lon="15.49991"><ele>208.0</ele><time>2026-04-28T14:45:13.205Z</time></trkpt><trkpt lat="38.23585" lon="15.500045"><ele>208.0</ele><time>2026-04-28T14:45:14.205Z</time></trkpt><trkpt lat="38.23564" lon="15.5001967"><ele>206.5</ele><time>2026-04-28T14:45:15.205Z</time></trkpt><trkpt lat="38.2354333" lon="15.5003567"><ele>205.0</ele><time>2026-04-28T14:45:16.205Z</time></trkpt><trkpt lat="38.2352367" lon="15.5005383"><ele>211.5</ele><time>2026-04-28T14:45:17.205Z</time></trkpt><trkpt lat="38.2350333" lon="15.5007217"><ele>218.0</ele><time>2026-04-28T14:45:18.205Z</time></trkpt><trkpt lat="38.2348317" lon="15.50091"><ele>218.0</ele><time>2026-04-28T14:45:19.205Z</time></trkpt><trkpt lat="38.2346183" lon="15.501085"><ele>218.0</ele><time>2026-04-28T14:45:20.205Z</time></trkpt><trkpt lat="38.2344283" lon="15.5012683"><ele>218.0</ele><time>2026-04-28T14:45:21.205Z</time></trkpt><trkpt lat="38.23423" lon="15.5014333"><ele>218.0</ele><time>2026-04-28T14:45:22.205Z</time></trkpt><trkpt lat="38.2340383" lon="15.50161"><ele>219.5</ele><time>2026-04-28T14:45:23.205Z</time></trkpt><trkpt lat="38.2338317" lon="15.501785"><ele>221.0</ele><time>2026-04-28T14:45:24.205Z</time></trkpt><trkpt lat="38.2336233" lon="15.5019617"><ele>223.5</ele><time>2026-04-28T14:45:25.205Z</time></trkpt><trkpt lat="38.2334167" lon="15.5021383"><ele>226.0</ele><time>2026-04-28T14:45:26.205Z</time></trkpt><trkpt lat="38.2332067" lon="15.5022917"><ele>227.0</ele><time>2026-04-28T14:45:27.205Z</time></trkpt><trkpt lat="38.2330017" lon="15.5024533"><ele>228.0</ele><time>2026-04-28T14:45:28.205Z</time></trkpt><trkpt lat="38.2327967" lon="15.5026117"><ele>228.0</ele><time>2026-04-28T14:45:29.205Z</time></trkpt><trkpt lat="38.2325883" lon="15.5027733"><ele>228.0</ele><time>2026-04-28T14:45:30.205Z</time></trkpt><trkpt lat="38.2323783" lon="15.5029283"><ele>232.0</ele><time>2026-04-28T14:45:31.205Z</time></trkpt><trkpt lat="38.23217" lon="15.50309"><ele>236.0</ele><time>2026-04-28T14:45:32.205Z</time></trkpt><trkpt lat="38.2319667" lon="15.5032633"><ele>236.0</ele><time>2026-04-28T14:45:33.205Z</time></trkpt><trkpt lat="38.231775" lon="15.5034617"><ele>236.0</ele><time>2026-04-28T14:45:34.205Z</time></trkpt><trkpt lat="38.23159" lon="15.5036633"><ele>238.5</ele><time>2026-04-28T14:45:35.205Z</time></trkpt><trkpt lat="38.23141" lon="15.503865"><ele>241.0</ele><time>2026-04-28T14:45:36.205Z</time></trkpt><trkpt lat="38.231245" lon="15.5040783"><ele>241.0</ele><time>2026-04-28T14:45:37.205Z</time></trkpt><trkpt lat="38.2310833" lon="15.5043067"><ele>241.0</ele><time>2026-04-28T14:45:38.205Z</time></trkpt><trkpt lat="38.2309417" lon="15.50455"><ele>246.0</ele><time>2026-04-28T14:45:39.205Z</time></trkpt><trkpt lat="38.2308017" lon="15.5047983"><ele>251.0</ele><time>2026-04-28T14:45:40.205Z</time></trkpt><trkpt lat="38.23067" lon="15.505055"><ele>251.5</ele><time>2026-04-28T14:45:41.205Z</time></trkpt><trkpt lat="38.2305433" lon="15.505335"><ele>252.0</ele><time>2026-04-28T14:45:42.206Z</time></trkpt><trkpt lat="38.2304333" lon="15.5056133"><ele>252.0</ele><time>2026-04-28T14:45:43.205Z</time></trkpt><trkpt lat="38.2303317" lon="15.5059017"><ele>252.0</ele><time>2026-04-28T14:45:44.205Z</time></trkpt><trkpt lat="38.2302267" lon="15.5061867"><ele>253.0</ele><time>2026-04-28T14:45:45.206Z</time></trkpt><trkpt lat="38.23013" lon="15.5064767"><ele>254.0</ele><time>2026-04-28T14:45:46.205Z</time></trkpt><trkpt lat="38.2300267" lon="15.5067533"><ele>254.0</ele><time>2026-04-28T14:45:47.205Z</time></trkpt><trkpt lat="38.22992" lon="15.507035"><ele>254.0</ele><time>2026-04-28T14:45:48.205Z</time></trkpt><trkpt lat="38.229815" lon="15.5073167"><ele>257.5</ele><time>2026-04-28T14:45:49.205Z</time></trkpt><trkpt lat="38.2297117" lon="15.5075967"><ele>261.0</ele><time>2026-04-28T14:45:50.205Z</time></trkpt><trkpt lat="38.229615" lon="15.507875"><ele>267.0</ele><time>2026-04-28T14:45:51.206Z</time></trkpt><trkpt lat="38.2295167" lon="15.5081683"><ele>273.0</ele><time>2026-04-28T14:45:52.205Z</time></trkpt><trkpt lat="38.2294183" lon="15.508455"><ele>279.5</ele><time>2026-04-28T14:45:53.205Z</time></trkpt><trkpt lat="38.2293167" lon="15.5087483"><ele>286.0</ele><time>2026-04-28T14:45:54.205Z</time></trkpt><trkpt lat="38.22922" lon="15.509045"><ele>286.0</ele><time>2026-04-28T14:45:55.205Z</time></trkpt><trkpt lat="38.2291183" lon="15.5093417"><ele>286.0</ele><time>2026-04-28T14:45:56.205Z</time></trkpt><trkpt lat="38.2290217" lon="15.5096317"><ele>304.5</ele><time>2026-04-28T14:45:57.205Z</time></trkpt><trkpt lat="38.2289233" lon="15.5099267"><ele>323.0</ele><time>2026-04-28T14:45:58.205Z</time></trkpt><trkpt lat="38.2288267" lon="15.510215"><ele>332.5</ele><time>2026-04-28T14:45:59.205Z</time></trkpt><trkpt lat="38.22873" lon="15.510505"><ele>342.0</ele><time>2026-04-28T14:46:00.205Z</time></trkpt><trkpt lat="38.2227637" lon="15.5241684"><ele>264.0</ele><time>2026-04-28T14:46:49.108Z</time></trkpt><trkpt lat="38.222205" lon="15.5245467"><ele>263.0</ele><time>2026-04-28T14:46:51.206Z</time></trkpt><trkpt lat="38.2220183" lon="15.5247833"><ele>262.0</ele><time>2026-04-28T14:46:52.206Z</time></trkpt><trkpt lat="38.2218633" lon="15.5250367"><ele>262.0</ele><time>2026-04-28T14:46:53.206Z</time></trkpt><trkpt lat="38.221685" lon="15.525285"><ele>262.0</ele><time>2026-04-28T14:46:54.207Z</time></trkpt><trkpt lat="38.2215" lon="15.525535"><ele>253.0</ele><time>2026-04-28T14:46:55.206Z</time></trkpt><trkpt lat="38.220515" lon="15.5271067"><ele>253.0</ele><time>2026-04-28T14:47:00.206Z</time></trkpt><trkpt lat="38.2204267" lon="15.5274567"><ele>253.0</ele><time>2026-04-28T14:47:01.205Z</time></trkpt><trkpt lat="38.220255" lon="15.527765"><ele>237.5</ele><time>2026-04-28T14:47:02.205Z</time></trkpt><trkpt lat="38.2201183" lon="15.5280417"><ele>222.0</ele><time>2026-04-28T14:47:03.205Z</time></trkpt><trkpt lat="38.2199817" lon="15.528295"><ele>222.0</ele><time>2026-04-28T14:47:04.205Z</time></trkpt><trkpt lat="38.2198417" lon="15.5285383"><ele>222.0</ele><time>2026-04-28T14:47:05.205Z</time></trkpt><trkpt lat="38.2196717" lon="15.5287733"><ele>228.0</ele><time>2026-04-28T14:47:06.205Z</time></trkpt><trkpt lat="38.2194817" lon="15.5290133"><ele>234.0</ele><time>2026-04-28T14:47:07.205Z</time></trkpt><trkpt lat="38.219305" lon="15.5292367"><ele>234.0</ele><time>2026-04-28T14:47:08.205Z</time></trkpt><trkpt lat="38.2190967" lon="15.52941"><ele>234.0</ele><time>2026-04-28T14:47:09.205Z</time></trkpt><trkpt lat="38.2188617" lon="15.5295867"><ele>248.5</ele><time>2026-04-28T14:47:10.205Z</time></trkpt><trkpt lat="38.2186533" lon="15.5297633"><ele>263.0</ele><time>2026-04-28T14:47:11.205Z</time></trkpt><trkpt lat="38.21845" lon="15.52995"><ele>184.0</ele><time>2026-04-28T14:47:12.205Z</time></trkpt><trkpt lat="38.215335" lon="15.5318067"><ele>184.0</ele><time>2026-04-28T14:47:24.205Z</time></trkpt><trkpt lat="38.2151767" lon="15.532055"><ele>184.0</ele><time>2026-04-28T14:47:25.205Z</time></trkpt><trkpt lat="38.21499" lon="15.5322733"><ele>170.5</ele><time>2026-04-28T14:47:26.205Z</time></trkpt><trkpt lat="38.2148033" lon="15.5324817"><ele>157.0</ele><time>2026-04-28T14:47:27.205Z</time></trkpt><trkpt lat="38.214615" lon="15.53269"><ele>158.0</ele><time>2026-04-28T14:47:28.205Z</time></trkpt><trkpt lat="38.214435" lon="15.5329017"><ele>159.0</ele><time>2026-04-28T14:47:29.205Z</time></trkpt><trkpt lat="38.21426" lon="15.533115"><ele>159.0</ele><time>2026-04-28T14:47:30.205Z</time></trkpt><trkpt lat="38.2140867" lon="15.5333367"><ele>159.0</ele><time>2026-04-28T14:47:31.205Z</time></trkpt><trkpt lat="38.2139167" lon="15.5335633"><ele>151.0</ele><time>2026-04-28T14:47:32.205Z</time></trkpt><trkpt lat="38.2137517" lon="15.5337967"><ele>143.0</ele><time>2026-04-28T14:47:33.206Z</time></trkpt><trkpt lat="38.2135883" lon="15.534035"><ele>143.0</ele><time>2026-04-28T14:47:34.205Z</time></trkpt><trkpt lat="38.2134283" lon="15.5342767"><ele>143.0</ele><time>2026-04-28T14:47:35.205Z</time></trkpt><trkpt lat="38.21327" lon="15.534525"><ele>155.0</ele><time>2026-04-28T14:47:36.205Z</time></trkpt><trkpt lat="38.21312" lon="15.53478"><ele>167.0</ele><time>2026-04-28T14:47:37.205Z</time></trkpt><trkpt lat="38.2129683" lon="15.5350317"><ele>167.0</ele><time>2026-04-28T14:47:38.206Z</time></trkpt><trkpt lat="38.21282" lon="15.5352817"><ele>167.0</ele><time>2026-04-28T14:47:39.205Z</time></trkpt><trkpt lat="38.21268" lon="15.535545"><ele>156.0</ele><time>2026-04-28T14:47:40.206Z</time></trkpt><trkpt lat="38.2125383" lon="15.53581"><ele>145.0</ele><time>2026-04-28T14:47:41.205Z</time></trkpt><trkpt lat="38.2124067" lon="15.5360733"><ele>134.0</ele><time>2026-04-28T14:47:42.205Z</time></trkpt><trkpt lat="38.2122733" lon="15.53634"><ele>123.0</ele><time>2026-04-28T14:47:43.205Z</time></trkpt><trkpt lat="38.212145" lon="15.5365967"><ele>123.0</ele><time>2026-04-28T14:47:44.205Z</time></trkpt><trkpt lat="38.212015" lon="15.5368667"><ele>123.0</ele><time>2026-04-28T14:47:45.206Z</time></trkpt><trkpt lat="38.2118817" lon="15.5371183"><ele>120.5</ele><time>2026-04-28T14:47:46.205Z</time></trkpt><trkpt lat="38.2117517" lon="15.5373733"><ele>118.0</ele><time>2026-04-28T14:47:47.205Z</time></trkpt><trkpt lat="38.2116217" lon="15.53763"><ele>119.0</ele><time>2026-04-28T14:47:48.205Z</time></trkpt><trkpt lat="38.211495" lon="15.5378867"><ele>120.0</ele><time>2026-04-28T14:47:49.205Z</time></trkpt><trkpt lat="38.2113717" lon="15.5381483"><ele>140.0</ele><time>2026-04-28T14:47:50.205Z</time></trkpt><trkpt lat="38.2112467" lon="15.538405"><ele>160.0</ele><time>2026-04-28T14:47:51.205Z</time></trkpt><trkpt lat="38.21111" lon="15.5386633"><ele>164.5</ele><time>2026-04-28T14:47:52.205Z</time></trkpt><trkpt lat="38.21098" lon="15.538915"><ele>169.0</ele><time>2026-04-28T14:47:53.205Z</time></trkpt><trkpt lat="38.2108467" lon="15.5391567"><ele>169.0</ele><time>2026-04-28T14:47:54.205Z</time></trkpt><trkpt lat="38.2107217" lon="15.5393967"><ele>169.0</ele><time>2026-04-28T14:47:55.205Z</time></trkpt><trkpt lat="38.2106" lon="15.5396383"><ele>174.5</ele><time>2026-04-28T14:47:56.205Z</time></trkpt><trkpt lat="38.210475" lon="15.5398817"><ele>180.0</ele><time>2026-04-28T14:47:57.206Z</time></trkpt><trkpt lat="38.2103583" lon="15.5401317"><ele>180.0</ele><time>2026-04-28T14:47:58.205Z</time></trkpt><trkpt lat="38.2102433" lon="15.54038"><ele>180.0</ele><time>2026-04-28T14:47:59.205Z</time></trkpt><trkpt lat="38.2101167" lon="15.540635"><ele>173.0</ele><time>2026-04-28T14:48:00.205Z</time></trkpt><trkpt lat="38.2099883" lon="15.5408917"><ele>166.0</ele><time>2026-04-28T14:48:01.206Z</time></trkpt><trkpt lat="38.20986" lon="15.54115"><ele>163.0</ele><time>2026-04-28T14:48:02.205Z</time></trkpt><trkpt lat="38.2097333" lon="15.541415"><ele>160.0</ele><time>2026-04-28T14:48:03.205Z</time></trkpt><trkpt lat="38.2096117" lon="15.5416867"><ele>160.0</ele><time>2026-04-28T14:48:04.205Z</time></trkpt><trkpt lat="38.2094933" lon="15.5419617"><ele>160.0</ele><time>2026-04-28T14:48:05.205Z</time></trkpt><trkpt lat="38.2093767" lon="15.542235"><ele>156.5</ele><time>2026-04-28T14:48:06.205Z</time></trkpt><trkpt lat="38.2092633" lon="15.5425083"><ele>153.0</ele><time>2026-04-28T14:48:07.205Z</time></trkpt><trkpt lat="38.20916" lon="15.5427783"><ele>148.0</ele><time>2026-04-28T14:48:08.205Z</time></trkpt><trkpt lat="38.209055" lon="15.54305"><ele>143.0</ele><time>2026-04-28T14:48:09.205Z</time></trkpt><trkpt lat="38.20895" lon="15.5433233"><ele>143.5</ele><time>2026-04-28T14:48:10.205Z</time></trkpt><trkpt lat="38.2088467" lon="15.5436"><ele>144.0</ele><time>2026-04-28T14:48:11.206Z</time></trkpt><trkpt lat="38.2087433" lon="15.5438783"><ele>144.0</ele><time>2026-04-28T14:48:12.206Z</time></trkpt><trkpt lat="38.20864" lon="15.5441517"><ele>144.0</ele><time>2026-04-28T14:48:13.205Z</time></trkpt><trkpt lat="38.2085383" lon="15.5444217"><ele>142.5</ele><time>2026-04-28T14:48:14.205Z</time></trkpt><trkpt lat="38.20843" lon="15.544685"><ele>141.0</ele><time>2026-04-28T14:48:15.205Z</time></trkpt><trkpt lat="38.2083117" lon="15.544945"><ele>141.0</ele><time>2026-04-28T14:48:16.206Z</time></trkpt><trkpt lat="38.2081817" lon="15.5451967"><ele>141.0</ele><time>2026-04-28T14:48:17.206Z</time></trkpt><trkpt lat="38.2080383" lon="15.54544"><ele>137.0</ele><time>2026-04-28T14:48:18.206Z</time></trkpt><trkpt lat="38.2078817" lon="15.5456683"><ele>133.0</ele><time>2026-04-28T14:48:19.205Z</time></trkpt><trkpt lat="38.2077117" lon="15.54588"><ele>133.0</ele><time>2026-04-28T14:48:20.205Z</time></trkpt><trkpt lat="38.20753" lon="15.54608"><ele>133.0</ele><time>2026-04-28T14:48:21.205Z</time></trkpt><trkpt lat="38.2073417" lon="15.5462667"><ele>120.0</ele><time>2026-04-28T14:48:22.205Z</time></trkpt><trkpt lat="38.2071433" lon="15.546435"><ele>107.0</ele><time>2026-04-28T14:48:23.205Z</time></trkpt><trkpt lat="38.2069367" lon="15.5465833"><ele>107.0</ele><time>2026-04-28T14:48:24.206Z</time></trkpt><trkpt lat="38.2067233" lon="15.5467133"><ele>107.0</ele><time>2026-04-28T14:48:25.205Z</time></trkpt><trkpt lat="38.2065" lon="15.5468267"><ele>93.0</ele><time>2026-04-28T14:48:26.205Z</time></trkpt><trkpt lat="38.2062717" lon="15.54692"><ele>79.0</ele><time>2026-04-28T14:48:27.205Z</time></trkpt><trkpt lat="38.2060383" lon="15.5469967"><ele>79.5</ele><time>2026-04-28T14:48:28.205Z</time></trkpt><trkpt lat="38.2057983" lon="15.5470567"><ele>80.0</ele><time>2026-04-28T14:48:29.205Z</time></trkpt><trkpt lat="38.2055583" lon="15.5470967"><ele>80.0</ele><time>2026-04-28T14:48:30.205Z</time></trkpt><trkpt lat="38.2053117" lon="15.5471133"><ele>80.0</ele><time>2026-04-28T14:48:31.205Z</time></trkpt><trkpt lat="38.2050667" lon="15.547115"><ele>80.0</ele><time>2026-04-28T14:48:32.205Z</time></trkpt><trkpt lat="38.2048367" lon="15.54708"><ele>80.0</ele><time>2026-04-28T14:48:33.205Z</time></trkpt><trkpt lat="38.2045967" lon="15.5470333"><ele>98.5</ele><time>2026-04-28T14:48:34.205Z</time></trkpt><trkpt lat="38.2043483" lon="15.546955"><ele>117.0</ele><time>2026-04-28T14:48:35.205Z</time></trkpt><trkpt lat="38.204105" lon="15.54686"><ele>114.5</ele><time>2026-04-28T14:48:36.206Z</time></trkpt><trkpt lat="38.2038683" lon="15.546755"><ele>112.0</ele><time>2026-04-28T14:48:37.205Z</time></trkpt><trkpt lat="38.203635" lon="15.54663"><ele>112.0</ele><time>2026-04-28T14:48:38.205Z</time></trkpt><trkpt lat="38.2034117" lon="15.546485"><ele>112.0</ele><time>2026-04-28T14:48:39.205Z</time></trkpt><trkpt lat="38.203205" lon="15.5463167"><ele>122.0</ele><time>2026-04-28T14:48:40.206Z</time></trkpt><trkpt lat="38.2029867" lon="15.54614"><ele>132.0</ele><time>2026-04-28T14:48:41.205Z</time></trkpt><trkpt lat="38.2027667" lon="15.5459633"><ele>132.0</ele><time>2026-04-28T14:48:42.205Z</time></trkpt><trkpt lat="38.2025483" lon="15.5457867"><ele>132.0</ele><time>2026-04-28T14:48:43.205Z</time></trkpt><trkpt lat="38.20233" lon="15.54561"><ele>130.5</ele><time>2026-04-28T14:48:44.205Z</time></trkpt><trkpt lat="38.20211" lon="15.5454333"><ele>129.0</ele><time>2026-04-28T14:48:45.205Z</time></trkpt><trkpt lat="38.20002" lon="15.5428967"><ele>117.0</ele><time>2026-04-28T14:48:56.205Z</time></trkpt><trkpt lat="38.19983" lon="15.542605"><ele>105.0</ele><time>2026-04-28T14:48:57.206Z</time></trkpt><trkpt lat="38.19967" lon="15.542335"><ele>105.0</ele><time>2026-04-28T14:48:58.205Z</time></trkpt><trkpt lat="38.199525" lon="15.5420633"><ele>105.0</ele><time>2026-04-28T14:48:59.205Z</time></trkpt><trkpt lat="38.1993783" lon="15.5417917"><ele>107.0</ele><time>2026-04-28T14:49:00.205Z</time></trkpt><trkpt lat="38.1992383" lon="15.541515"><ele>109.0</ele><time>2026-04-28T14:49:01.205Z</time></trkpt><trkpt lat="38.1991017" lon="15.5412367"><ele>107.0</ele><time>2026-04-28T14:49:02.205Z</time></trkpt><trkpt lat="38.19897" lon="15.5409567"><ele>105.0</ele><time>2026-04-28T14:49:03.205Z</time></trkpt><trkpt lat="38.198845" lon="15.5406783"><ele>105.0</ele><time>2026-04-28T14:49:04.205Z</time></trkpt><trkpt lat="38.1987217" lon="15.5404017"><ele>105.0</ele><time>2026-04-28T14:49:05.206Z</time></trkpt><trkpt lat="38.1986017" lon="15.5401283"><ele>103.0</ele><time>2026-04-28T14:49:06.205Z</time></trkpt><trkpt lat="38.1984817" lon="15.539855"><ele>101.0</ele><time>2026-04-28T14:49:07.205Z</time></trkpt><trkpt lat="38.198365" lon="15.53959"><ele>104.0</ele><time>2026-04-28T14:49:08.205Z</time></trkpt><trkpt lat="38.1982483" lon="15.5393367"><ele>107.0</ele><time>2026-04-28T14:49:09.205Z</time></trkpt><trkpt lat="38.1981383" lon="15.5390917"><ele>104.66666666666666</ele><time>2026-04-28T14:49:10.206Z</time></trkpt><trkpt lat="38.1980267" lon="15.5388517"><ele>102.33333333333334</ele><time>2026-04-28T14:49:11.205Z</time></trkpt><trkpt lat="38.19791" lon="15.5386067"><ele>100.0</ele><time>2026-04-28T14:49:12.205Z</time></trkpt><trkpt lat="38.1977883" lon="15.5383483"><ele>100.0</ele><time>2026-04-28T14:49:13.205Z</time></trkpt><trkpt lat="38.197665" lon="15.5380817"><ele>100.0</ele><time>2026-04-28T14:49:14.205Z</time></trkpt><trkpt lat="38.197545" lon="15.5378067"><ele>96.0</ele><time>2026-04-28T14:49:15.205Z</time></trkpt><trkpt lat="38.197425" lon="15.5375267"><ele>92.0</ele><time>2026-04-28T14:49:16.205Z</time></trkpt><trkpt lat="38.1973033" lon="15.537245"><ele>99.0</ele><time>2026-04-28T14:49:17.205Z</time></trkpt><trkpt lat="38.1971783" lon="15.5369617"><ele>106.0</ele><time>2026-04-28T14:49:18.206Z</time></trkpt><trkpt lat="38.1970517" lon="15.53668"><ele>106.0</ele><time>2026-04-28T14:49:19.205Z</time></trkpt><trkpt lat="38.1969333" lon="15.5363967"><ele>106.0</ele><time>2026-04-28T14:49:20.206Z</time></trkpt><trkpt lat="38.1968167" lon="15.53612"><ele>114.5</ele><time>2026-04-28T14:49:21.205Z</time></trkpt><trkpt lat="38.1967033" lon="15.535845"><ele>123.0</ele><time>2026-04-28T14:49:22.205Z</time></trkpt><trkpt lat="38.1965817" lon="15.53559"><ele>128.0</ele><time>2026-04-28T14:49:23.205Z</time></trkpt><trkpt lat="38.1964533" lon="15.5353183"><ele>133.0</ele><time>2026-04-28T14:49:24.205Z</time></trkpt><trkpt lat="38.19633" lon="15.5350417"><ele>133.0</ele><time>2026-04-28T14:49:25.205Z</time></trkpt><trkpt lat="38.1962083" lon="15.5347683"><ele>133.0</ele><time>2026-04-28T14:49:26.205Z</time></trkpt><trkpt lat="38.196085" lon="15.53449"><ele>138.5</ele><time>2026-04-28T14:49:27.206Z</time></trkpt><trkpt lat="38.1959583" lon="15.5342117"><ele>144.0</ele><time>2026-04-28T14:49:28.205Z</time></trkpt><trkpt lat="38.1958317" lon="15.5339283"><ele>149.0</ele><time>2026-04-28T14:49:29.205Z</time></trkpt><trkpt lat="38.1957017" lon="15.533645"><ele>154.0</ele><time>2026-04-28T14:49:30.205Z</time></trkpt><trkpt lat="38.1955733" lon="15.533365"><ele>170.5</ele><time>2026-04-28T14:49:31.205Z</time></trkpt><trkpt lat="38.1954517" lon="15.5330967"><ele>187.0</ele><time>2026-04-28T14:49:32.205Z</time></trkpt><trkpt lat="38.1953283" lon="15.5328233"><ele>129.0</ele><time>2026-04-28T14:49:33.205Z</time></trkpt><trkpt lat="38.1940083" lon="15.53114"><ele>130.5</ele><time>2026-04-28T14:49:40.206Z</time></trkpt><trkpt lat="38.1938367" lon="15.5309467"><ele>132.0</ele><time>2026-04-28T14:49:41.206Z</time></trkpt><trkpt lat="38.19364" lon="15.530785"><ele>132.0</ele><time>2026-04-28T14:49:42.207Z</time></trkpt><trkpt lat="38.193445" lon="15.5306167"><ele>132.0</ele><time>2026-04-28T14:49:43.207Z</time></trkpt><trkpt lat="38.1932517" lon="15.530445"><ele>120.5</ele><time>2026-04-28T14:49:44.206Z</time></trkpt><trkpt lat="38.19306" lon="15.5302767"><ele>109.0</ele><time>2026-04-28T14:49:45.207Z</time></trkpt><trkpt lat="38.1890717" lon="15.528925"><ele>108.0</ele><time>2026-04-28T14:50:02.205Z</time></trkpt><trkpt lat="38.188865" lon="15.52882"><ele>107.0</ele><time>2026-04-28T14:50:03.205Z</time></trkpt><trkpt lat="38.1886583" lon="15.528695"><ele>107.0</ele><time>2026-04-28T14:50:04.205Z</time></trkpt><trkpt lat="38.18846" lon="15.52856"><ele>107.0</ele><time>2026-04-28T14:50:05.206Z</time></trkpt><trkpt lat="38.188265" lon="15.5284117"><ele>107.5</ele><time>2026-04-28T14:50:06.205Z</time></trkpt><trkpt lat="38.1880733" lon="15.5282367"><ele>108.0</ele><time>2026-04-28T14:50:07.205Z</time></trkpt><trkpt lat="38.1878817" lon="15.5280533"><ele>111.5</ele><time>2026-04-28T14:50:08.205Z</time></trkpt><trkpt lat="38.1877033" lon="15.5278583"><ele>115.0</ele><time>2026-04-28T14:50:09.206Z</time></trkpt><trkpt lat="38.1875367" lon="15.527655"><ele>115.0</ele><time>2026-04-28T14:50:10.205Z</time></trkpt><trkpt lat="38.1873817" lon="15.527445"><ele>115.0</ele><time>2026-04-28T14:50:11.205Z</time></trkpt><trkpt lat="38.187225" lon="15.5272267"><ele>123.0</ele><time>2026-04-28T14:50:12.206Z</time></trkpt><trkpt lat="38.1870667" lon="15.5270133"><ele>131.0</ele><time>2026-04-28T14:50:13.205Z</time></trkpt><trkpt lat="38.1869167" lon="15.526795"><ele>131.0</ele><time>2026-04-28T14:50:14.205Z</time></trkpt><trkpt lat="38.1867517" lon="15.5265867"><ele>131.0</ele><time>2026-04-28T14:50:15.206Z</time></trkpt><trkpt lat="38.18659" lon="15.5263933"><ele>133.0</ele><time>2026-04-28T14:50:16.205Z</time></trkpt><trkpt lat="38.1864267" lon="15.5262067"><ele>135.0</ele><time>2026-04-28T14:50:17.205Z</time></trkpt><trkpt lat="38.186265" lon="15.526025"><ele>137.0</ele><time>2026-04-28T14:50:18.205Z</time></trkpt><trkpt lat="38.1861017" lon="15.5258583"><ele>137.0</ele><time>2026-04-28T14:50:19.205Z</time></trkpt><trkpt lat="38.1859367" lon="15.5257067"><ele>137.0</ele><time>2026-04-28T14:50:20.205Z</time></trkpt><trkpt lat="38.1857517" lon="15.525565"><ele>137.0</ele><time>2026-04-28T14:50:21.205Z</time></trkpt><trkpt lat="38.1855783" lon="15.5254367"><ele>139.33333333333331</ele><time>2026-04-28T14:50:22.206Z</time></trkpt><trkpt lat="38.185395" lon="15.52532"><ele>141.66666666666666</ele><time>2026-04-28T14:50:23.206Z</time></trkpt><trkpt lat="38.1852133" lon="15.5252233"><ele>144.0</ele><time>2026-04-28T14:50:24.205Z</time></trkpt><trkpt lat="38.1850283" lon="15.52514"><ele>148.33333333333334</ele><time>2026-04-28T14:50:25.205Z</time></trkpt><trkpt lat="38.1848383" lon="15.5250533"><ele>152.66666666666669</ele><time>2026-04-28T14:50:26.205Z</time></trkpt><trkpt lat="38.1846433" lon="15.5249767"><ele>157.0</ele><time>2026-04-28T14:50:27.205Z</time></trkpt><trkpt lat="38.184445" lon="15.5249067"><ele>157.0</ele><time>2026-04-28T14:50:28.206Z</time></trkpt><trkpt lat="38.1842467" lon="15.5248383"><ele>157.0</ele><time>2026-04-28T14:50:29.205Z</time></trkpt><trkpt lat="38.18404" lon="15.5247667"><ele>157.0</ele><time>2026-04-28T14:50:30.205Z</time></trkpt><trkpt lat="38.1838383" lon="15.5246917"><ele>156.0</ele><time>2026-04-28T14:50:31.206Z</time></trkpt><trkpt lat="38.1836367" lon="15.5246183"><ele>155.0</ele><time>2026-04-28T14:50:32.205Z</time></trkpt><trkpt lat="38.1803617" lon="15.52498"><ele>155.0</ele><time>2026-04-28T14:50:46.205Z</time></trkpt><trkpt lat="38.180035" lon="15.5251067"><ele>155.0</ele><time>2026-04-28T14:50:47.205Z</time></trkpt><trkpt lat="38.17976" lon="15.52509"><ele>150.0</ele><time>2026-04-28T14:50:48.205Z</time></trkpt><trkpt lat="38.1794967" lon="15.5250667"><ele>145.0</ele><time>2026-04-28T14:50:49.205Z</time></trkpt><trkpt lat="38.1792517" lon="15.525005"><ele>148.0</ele><time>2026-04-28T14:50:50.206Z</time></trkpt><trkpt lat="38.17901" lon="15.5249217"><ele>151.0</ele><time>2026-04-28T14:50:51.205Z</time></trkpt><trkpt lat="38.1787833" lon="15.524825"><ele>151.0</ele><time>2026-04-28T14:50:52.205Z</time></trkpt><trkpt lat="38.1785483" lon="15.52472"><ele>151.0</ele><time>2026-04-28T14:50:53.205Z</time></trkpt><trkpt lat="38.1783067" lon="15.5246083"><ele>167.5</ele><time>2026-04-28T14:50:54.205Z</time></trkpt><trkpt lat="38.178065" lon="15.524495"><ele>184.0</ele><time>2026-04-28T14:50:55.205Z</time></trkpt><trkpt lat="38.17783" lon="15.52438"><ele>184.0</ele><time>2026-04-28T14:50:56.205Z</time></trkpt><trkpt lat="38.1775967" lon="15.5242683"><ele>184.0</ele><time>2026-04-28T14:50:57.205Z</time></trkpt><trkpt lat="38.177365" lon="15.5241583"><ele>112.0</ele><time>2026-04-28T14:50:58.205Z</time></trkpt><trkpt lat="38.1765017" lon="15.5233067"><ele>113.0</ele><time>2026-04-28T14:51:02.206Z</time></trkpt><trkpt lat="38.1763567" lon="15.5228633"><ele>114.0</ele><time>2026-04-28T14:51:03.206Z</time></trkpt><trkpt lat="38.1762" lon="15.5225583"><ele>114.0</ele><time>2026-04-28T14:51:04.206Z</time></trkpt><trkpt lat="38.176045" lon="15.5223033"><ele>114.0</ele><time>2026-04-28T14:51:05.206Z</time></trkpt><trkpt lat="38.1759067" lon="15.5220333"><ele>114.5</ele><time>2026-04-28T14:51:06.207Z</time></trkpt><trkpt lat="38.1757767" lon="15.52176"><ele>115.0</ele><time>2026-04-28T14:51:07.207Z</time></trkpt><trkpt lat="38.1756483" lon="15.521495"><ele>118.0</ele><time>2026-04-28T14:51:08.206Z</time></trkpt><trkpt lat="38.17552" lon="15.5212283"><ele>121.0</ele><time>2026-04-28T14:51:09.206Z</time></trkpt><trkpt lat="38.175385" lon="15.5209533"><ele>121.0</ele><time>2026-04-28T14:51:10.206Z</time></trkpt><trkpt lat="38.1752433" lon="15.5206733"><ele>121.0</ele><time>2026-04-28T14:51:11.206Z</time></trkpt><trkpt lat="38.1751017" lon="15.52039"><ele>124.5</ele><time>2026-04-28T14:51:12.206Z</time></trkpt><trkpt lat="38.1749583" lon="15.520105"><ele>128.0</ele><time>2026-04-28T14:51:13.206Z</time></trkpt><trkpt lat="38.1748133" lon="15.5198167"><ele>131.0</ele><time>2026-04-28T14:51:14.206Z</time></trkpt><trkpt lat="38.1746683" lon="15.5195267"><ele>134.0</ele><time>2026-04-28T14:51:15.206Z</time></trkpt><trkpt lat="38.1745233" lon="15.51924"><ele>134.0</ele><time>2026-04-28T14:51:16.206Z</time></trkpt><trkpt lat="38.1743767" lon="15.5189567"><ele>134.0</ele><time>2026-04-28T14:51:17.206Z</time></trkpt><trkpt lat="38.1742317" lon="15.5186733"><ele>135.5</ele><time>2026-04-28T14:51:18.206Z</time></trkpt><trkpt lat="38.174085" lon="15.5183967"><ele>137.0</ele><time>2026-04-28T14:51:19.206Z</time></trkpt><trkpt lat="38.1739333" lon="15.5181283"><ele>140.0</ele><time>2026-04-28T14:51:20.206Z</time></trkpt><trkpt lat="38.1737733" lon="15.5178733"><ele>143.0</ele><time>2026-04-28T14:51:21.206Z</time></trkpt><trkpt lat="38.1736017" lon="15.517635"><ele>143.0</ele><time>2026-04-28T14:51:22.206Z</time></trkpt><trkpt lat="38.1734217" lon="15.51741"><ele>143.0</ele><time>2026-04-28T14:51:23.206Z</time></trkpt><trkpt lat="38.1732333" lon="15.5171983"><ele>143.5</ele><time>2026-04-28T14:51:24.207Z</time></trkpt><trkpt lat="38.17304" lon="15.5169967"><ele>144.0</ele><time>2026-04-28T14:51:25.206Z</time></trkpt><trkpt lat="38.1728417" lon="15.5168083"><ele>144.0</ele><time>2026-04-28T14:51:26.206Z</time></trkpt><trkpt lat="38.17264" lon="15.51663"><ele>144.0</ele><time>2026-04-28T14:51:27.206Z</time></trkpt><trkpt lat="38.1724317" lon="15.5164667"><ele>142.5</ele><time>2026-04-28T14:51:28.206Z</time></trkpt><trkpt lat="38.1722183" lon="15.5163183"><ele>141.0</ele><time>2026-04-28T14:51:29.206Z</time></trkpt><trkpt lat="38.1720017" lon="15.5161817"><ele>145.5</ele><time>2026-04-28T14:51:30.206Z</time></trkpt><trkpt lat="38.1717783" lon="15.5160567"><ele>150.0</ele><time>2026-04-28T14:51:31.206Z</time></trkpt><trkpt lat="38.1715517" lon="15.515945"><ele>153.5</ele><time>2026-04-28T14:51:32.206Z</time></trkpt><trkpt lat="38.1713183" lon="15.5158433"><ele>157.0</ele><time>2026-04-28T14:51:33.206Z</time></trkpt><trkpt lat="38.1710867" lon="15.51575"><ele>157.0</ele><time>2026-04-28T14:51:34.207Z</time></trkpt><trkpt lat="38.1708417" lon="15.51568"><ele>157.0</ele><time>2026-04-28T14:51:35.207Z</time></trkpt><trkpt lat="38.1705833" lon="15.5156083"><ele>164.0</ele><time>2026-04-28T14:51:36.206Z</time></trkpt><trkpt lat="38.1703167" lon="15.51553"><ele>171.0</ele><time>2026-04-28T14:51:37.206Z</time></trkpt><trkpt lat="38.17005" lon="15.5154483"><ele>180.0</ele><time>2026-04-28T14:51:38.206Z</time></trkpt><trkpt lat="38.1697817" lon="15.5153683"><ele>189.0</ele><time>2026-04-28T14:51:39.206Z</time></trkpt><trkpt lat="38.169515" lon="15.5152867"><ele>151.0</ele><time>2026-04-28T14:51:40.207Z</time></trkpt><trkpt lat="38.1639433" lon="15.514555"><ele>151.5</ele><time>2026-04-28T14:52:00.207Z</time></trkpt><trkpt lat="38.1636633" lon="15.5145767"><ele>152.0</ele><time>2026-04-28T14:52:01.206Z</time></trkpt><trkpt lat="38.1633867" lon="15.5145817"><ele>148.0</ele><time>2026-04-28T14:52:02.206Z</time></trkpt><trkpt lat="38.16312" lon="15.51458"><ele>144.0</ele><time>2026-04-28T14:52:03.207Z</time></trkpt><trkpt lat="38.1628567" lon="15.5145767"><ele>144.0</ele><time>2026-04-28T14:52:04.206Z</time></trkpt><trkpt lat="38.162595" lon="15.51457"><ele>144.0</ele><time>2026-04-28T14:52:05.206Z</time></trkpt><trkpt lat="38.1623383" lon="15.5145633"><ele>143.0</ele><time>2026-04-28T14:52:06.206Z</time></trkpt><trkpt lat="38.1620867" lon="15.5145567"><ele>142.0</ele><time>2026-04-28T14:52:07.206Z</time></trkpt><trkpt lat="38.16184" lon="15.5145517"><ele>142.0</ele><time>2026-04-28T14:52:08.206Z</time></trkpt><trkpt lat="38.1615967" lon="15.5145433"><ele>142.0</ele><time>2026-04-28T14:52:09.206Z</time></trkpt><trkpt lat="38.161355" lon="15.5145317"><ele>145.5</ele><time>2026-04-28T14:52:10.206Z</time></trkpt><trkpt lat="38.1611233" lon="15.5145117"><ele>149.0</ele><time>2026-04-28T14:52:11.206Z</time></trkpt><trkpt lat="38.1609" lon="15.514485"><ele>146.66666666666666</ele><time>2026-04-28T14:52:12.206Z</time></trkpt><trkpt lat="38.1606867" lon="15.5144533"><ele>144.33333333333334</ele><time>2026-04-28T14:52:13.206Z</time></trkpt><trkpt lat="38.160475" lon="15.5144183"><ele>142.0</ele><time>2026-04-28T14:52:14.207Z</time></trkpt><trkpt lat="38.160265" lon="15.5143783"><ele>142.0</ele><time>2026-04-28T14:52:15.206Z</time></trkpt><trkpt lat="38.1600667" lon="15.5143383"><ele>142.0</ele><time>2026-04-28T14:52:16.206Z</time></trkpt><trkpt lat="38.159875" lon="15.5142933"><ele>142.0</ele><time>2026-04-28T14:52:17.206Z</time></trkpt><trkpt lat="38.159685" lon="15.51424"><ele>137.0</ele><time>2026-04-28T14:52:18.206Z</time></trkpt><trkpt lat="38.1594933" lon="15.5141767"><ele>132.0</ele><time>2026-04-28T14:52:19.206Z</time></trkpt><trkpt lat="38.1592983" lon="15.5141083"><ele>127.0</ele><time>2026-04-28T14:52:20.207Z</time></trkpt><trkpt lat="38.1591" lon="15.514035"><ele>125.0</ele><time>2026-04-28T14:52:21.206Z</time></trkpt><trkpt lat="38.158905" lon="15.5139567"><ele>123.0</ele><time>2026-04-28T14:52:22.206Z</time></trkpt><trkpt lat="38.1587183" lon="15.5138733"><ele>121.0</ele><time>2026-04-28T14:52:23.206Z</time></trkpt><trkpt lat="38.1585333" lon="15.5137833"><ele>124.33333333333334</ele><time>2026-04-28T14:52:24.207Z</time></trkpt><trkpt lat="38.1583483" lon="15.5136883"><ele>127.66666666666666</ele><time>2026-04-28T14:52:25.206Z</time></trkpt><trkpt lat="38.1581617" lon="15.5135867"><ele>131.0</ele><time>2026-04-28T14:52:26.206Z</time></trkpt><trkpt lat="38.1579683" lon="15.5134783"><ele>131.33333333333331</ele><time>2026-04-28T14:52:27.206Z</time></trkpt><trkpt lat="38.1577733" lon="15.5133683"><ele>131.66666666666666</ele><time>2026-04-28T14:52:28.206Z</time></trkpt><trkpt lat="38.1575717" lon="15.5132583"><ele>132.0</ele><time>2026-04-28T14:52:29.206Z</time></trkpt><trkpt lat="38.1573617" lon="15.5131433"><ele>134.0</ele><time>2026-04-28T14:52:30.206Z</time></trkpt><trkpt lat="38.1571533" lon="15.5130217"><ele>136.0</ele><time>2026-04-28T14:52:31.206Z</time></trkpt><trkpt lat="38.1569433" lon="15.5128867"><ele>136.0</ele><time>2026-04-28T14:52:32.207Z</time></trkpt><trkpt lat="38.156725" lon="15.5127517"><ele>136.0</ele><time>2026-04-28T14:52:33.206Z</time></trkpt><trkpt lat="38.1565067" lon="15.5126167"><ele>131.5</ele><time>2026-04-28T14:52:34.206Z</time></trkpt><trkpt lat="38.1562833" lon="15.5124783"><ele>127.0</ele><time>2026-04-28T14:52:35.206Z</time></trkpt><trkpt lat="38.1560583" lon="15.51234"><ele>127.0</ele><time>2026-04-28T14:52:36.206Z</time></trkpt><trkpt lat="38.1558317" lon="15.5122033"><ele>127.0</ele><time>2026-04-28T14:52:37.206Z</time></trkpt><trkpt lat="38.1556017" lon="15.512065"><ele>128.5</ele><time>2026-04-28T14:52:38.206Z</time></trkpt><trkpt lat="38.1553683" lon="15.511925"><ele>130.0</ele><time>2026-04-28T14:52:39.206Z</time></trkpt><trkpt lat="38.1551333" lon="15.5117883"><ele>130.0</ele><time>2026-04-28T14:52:40.206Z</time></trkpt><trkpt lat="38.1548983" lon="15.5116483"><ele>130.0</ele><time>2026-04-28T14:52:41.206Z</time></trkpt><trkpt lat="38.1546583" lon="15.5115033"><ele>131.0</ele><time>2026-04-28T14:52:42.207Z</time></trkpt><trkpt lat="38.1544217" lon="15.5113617"><ele>132.0</ele><time>2026-04-28T14:52:43.207Z</time></trkpt><trkpt lat="38.1541883" lon="15.5112183"><ele>127.5</ele><time>2026-04-28T14:52:44.207Z</time></trkpt><trkpt lat="38.1539533" lon="15.5110767"><ele>123.0</ele><time>2026-04-28T14:52:45.206Z</time></trkpt><trkpt lat="38.1537167" lon="15.510935"><ele>123.0</ele><time>2026-04-28T14:52:46.206Z</time></trkpt><trkpt lat="38.1534817" lon="15.5107933"><ele>123.0</ele><time>2026-04-28T14:52:47.207Z</time></trkpt><trkpt lat="38.15324" lon="15.5106533"><ele>119.0</ele><time>2026-04-28T14:52:48.206Z</time></trkpt><trkpt lat="38.1529983" lon="15.5105283"><ele>115.0</ele><time>2026-04-28T14:52:49.206Z</time></trkpt><trkpt lat="38.152745" lon="15.5104133"><ele>114.5</ele><time>2026-04-28T14:52:50.206Z</time></trkpt><trkpt lat="38.152495" lon="15.5103267"><ele>114.0</ele><time>2026-04-28T14:52:51.207Z</time></trkpt><trkpt lat="38.1522417" lon="15.51026"><ele>111.5</ele><time>2026-04-28T14:52:52.206Z</time></trkpt><trkpt lat="38.151985" lon="15.510215"><ele>109.0</ele><time>2026-04-28T14:52:53.207Z</time></trkpt><trkpt lat="38.1517233" lon="15.5102067"><ele>106.0</ele><time>2026-04-28T14:52:54.206Z</time></trkpt><trkpt lat="38.1514633" lon="15.5102117"><ele>103.0</ele><time>2026-04-28T14:52:55.206Z</time></trkpt><trkpt lat="38.151205" lon="15.5102433"><ele>103.0</ele><time>2026-04-28T14:52:56.206Z</time></trkpt><trkpt lat="38.1509467" lon="15.5102933"><ele>103.0</ele><time>2026-04-28T14:52:57.206Z</time></trkpt><trkpt lat="38.1506833" lon="15.5103567"><ele>101.0</ele><time>2026-04-28T14:52:58.206Z</time></trkpt><trkpt lat="38.150425" lon="15.5104433"><ele>99.0</ele><time>2026-04-28T14:52:59.206Z</time></trkpt><trkpt lat="38.1501783" lon="15.5105633"><ele>99.0</ele><time>2026-04-28T14:53:00.206Z</time></trkpt><trkpt lat="38.1499417" lon="15.5107017"><ele>99.0</ele><time>2026-04-28T14:53:01.206Z</time></trkpt><trkpt lat="38.14971" lon="15.51086"><ele>98.5</ele><time>2026-04-28T14:53:02.206Z</time></trkpt><trkpt lat="38.1494867" lon="15.511045"><ele>98.0</ele><time>2026-04-28T14:53:03.206Z</time></trkpt><trkpt lat="38.1492733" lon="15.511255"><ele>99.0</ele><time>2026-04-28T14:53:04.206Z</time></trkpt><trkpt lat="38.1490633" lon="15.511485"><ele>100.0</ele><time>2026-04-28T14:53:05.207Z</time></trkpt><trkpt lat="38.14887" lon="15.5117267"><ele>100.0</ele><time>2026-04-28T14:53:06.206Z</time></trkpt><trkpt lat="38.1486933" lon="15.5119817"><ele>100.0</ele><time>2026-04-28T14:53:07.206Z</time></trkpt><trkpt lat="38.1485367" lon="15.512255"><ele>98.5</ele><time>2026-04-28T14:53:08.206Z</time></trkpt><trkpt lat="38.14839" lon="15.5125433"><ele>97.0</ele><time>2026-04-28T14:53:09.207Z</time></trkpt><trkpt lat="38.1482533" lon="15.5128333"><ele>101.5</ele><time>2026-04-28T14:53:10.207Z</time></trkpt><trkpt lat="38.1481183" lon="15.513135"><ele>106.0</ele><time>2026-04-28T14:53:11.206Z</time></trkpt><trkpt lat="38.1479983" lon="15.5134433"><ele>106.0</ele><time>2026-04-28T14:53:12.206Z</time></trkpt><trkpt lat="38.1478583" lon="15.5137383"><ele>106.0</ele><time>2026-04-28T14:53:13.206Z</time></trkpt><trkpt lat="38.1477267" lon="15.514035"><ele>99.0</ele><time>2026-04-28T14:53:14.206Z</time></trkpt><trkpt lat="38.1475883" lon="15.514325"><ele>92.0</ele><time>2026-04-28T14:53:15.206Z</time></trkpt><trkpt lat="38.1474533" lon="15.514615"><ele>87.5</ele><time>2026-04-28T14:53:16.206Z</time></trkpt><trkpt lat="38.1473233" lon="15.5149067"><ele>83.0</ele><time>2026-04-28T14:53:17.206Z</time></trkpt><trkpt lat="38.14719" lon="15.515195"><ele>79.5</ele><time>2026-04-28T14:53:18.206Z</time></trkpt><trkpt lat="38.1470533" lon="15.5154783"><ele>76.0</ele><time>2026-04-28T14:53:19.206Z</time></trkpt><trkpt lat="38.146915" lon="15.5157567"><ele>76.0</ele><time>2026-04-28T14:53:20.206Z</time></trkpt><trkpt lat="38.146765" lon="15.516025"><ele>76.0</ele><time>2026-04-28T14:53:21.207Z</time></trkpt><trkpt lat="38.146605" lon="15.5162767"><ele>81.0</ele><time>2026-04-28T14:53:22.206Z</time></trkpt><trkpt lat="38.146435" lon="15.5165133"><ele>86.0</ele><time>2026-04-28T14:53:23.206Z</time></trkpt><trkpt lat="38.1462517" lon="15.516735"><ele>86.0</ele><time>2026-04-28T14:53:24.206Z</time></trkpt><trkpt lat="38.1460617" lon="15.51694"><ele>86.0</ele><time>2026-04-28T14:53:25.206Z</time></trkpt><trkpt lat="38.1458617" lon="15.51713"><ele>80.0</ele><time>2026-04-28T14:53:26.207Z</time></trkpt><trkpt lat="38.1456517" lon="15.517305"><ele>74.0</ele><time>2026-04-28T14:53:27.207Z</time></trkpt><trkpt lat="38.145435" lon="15.5174633"><ele>74.0</ele><time>2026-04-28T14:53:28.206Z</time></trkpt><trkpt lat="38.14521" lon="15.5176067"><ele>74.0</ele><time>2026-04-28T14:53:29.206Z</time></trkpt><trkpt lat="38.14498" lon="15.5177333"><ele>69.5</ele><time>2026-04-28T14:53:30.206Z</time></trkpt><trkpt lat="38.144745" lon="15.517845"><ele>65.0</ele><time>2026-04-28T14:53:31.206Z</time></trkpt><trkpt lat="38.1445033" lon="15.5179367"><ele>61.5</ele><time>2026-04-28T14:53:32.206Z</time></trkpt><trkpt lat="38.14426" lon="15.51801"><ele>58.0</ele><time>2026-04-28T14:53:33.207Z</time></trkpt><trkpt lat="38.1440167" lon="15.5180667"><ele>58.0</ele><time>2026-04-28T14:53:34.206Z</time></trkpt><trkpt lat="38.14377" lon="15.5181033"><ele>58.0</ele><time>2026-04-28T14:53:35.206Z</time></trkpt><trkpt lat="38.1435217" lon="15.5181183"><ele>58.0</ele><time>2026-04-28T14:53:36.207Z</time></trkpt><trkpt lat="38.14327" lon="15.5181183"><ele>58.0</ele><time>2026-04-28T14:53:37.207Z</time></trkpt><trkpt lat="38.14302" lon="15.5181083"><ele>55.5</ele><time>2026-04-28T14:53:38.206Z</time></trkpt><trkpt lat="38.1427683" lon="15.51809"><ele>53.0</ele><time>2026-04-28T14:53:39.207Z</time></trkpt><trkpt lat="38.1425167" lon="15.5180617"><ele>52.5</ele><time>2026-04-28T14:53:40.206Z</time></trkpt><trkpt lat="38.1422667" lon="15.5180317"><ele>52.0</ele><time>2026-04-28T14:53:41.207Z</time></trkpt><trkpt lat="38.1420133" lon="15.518005"><ele>52.0</ele><time>2026-04-28T14:53:42.206Z</time></trkpt><trkpt lat="38.1417633" lon="15.5179883"><ele>52.0</ele><time>2026-04-28T14:53:43.207Z</time></trkpt><trkpt lat="38.1415133" lon="15.51799"><ele>51.0</ele><time>2026-04-28T14:53:44.206Z</time></trkpt><trkpt lat="38.1412633" lon="15.51801"><ele>50.0</ele><time>2026-04-28T14:53:45.207Z</time></trkpt><trkpt lat="38.1410133" lon="15.5180467"><ele>50.0</ele><time>2026-04-28T14:53:46.206Z</time></trkpt><trkpt lat="38.1407683" lon="15.518105"><ele>50.0</ele><time>2026-04-28T14:53:47.207Z</time></trkpt><trkpt lat="38.140525" lon="15.5181817"><ele>51.0</ele><time>2026-04-28T14:53:48.207Z</time></trkpt><trkpt lat="38.1402833" lon="15.518275"><ele>52.0</ele><time>2026-04-28T14:53:49.206Z</time></trkpt><trkpt lat="38.1400483" lon="15.5183883"><ele>52.0</ele><time>2026-04-28T14:53:50.207Z</time></trkpt><trkpt lat="38.13982" lon="15.5185183"><ele>52.0</ele><time>2026-04-28T14:53:51.206Z</time></trkpt><trkpt lat="38.139595" lon="15.5186667"><ele>48.0</ele><time>2026-04-28T14:53:52.207Z</time></trkpt><trkpt lat="38.139375" lon="15.5188183"><ele>44.0</ele><time>2026-04-28T14:53:53.206Z</time></trkpt><trkpt lat="38.1391517" lon="15.5189667"><ele>42.5</ele><time>2026-04-28T14:53:54.206Z</time></trkpt><trkpt lat="38.1389267" lon="15.5191"><ele>41.0</ele><time>2026-04-28T14:53:55.206Z</time></trkpt><trkpt lat="38.138705" lon="15.5192383"><ele>41.0</ele><time>2026-04-28T14:53:56.206Z</time></trkpt><trkpt lat="38.1384817" lon="15.5193783"><ele>41.0</ele><time>2026-04-28T14:53:57.206Z</time></trkpt><trkpt lat="38.1382533" lon="15.5195133"><ele>39.5</ele><time>2026-04-28T14:53:58.206Z</time></trkpt><trkpt lat="38.1380233" lon="15.5196367"><ele>38.0</ele><time>2026-04-28T14:53:59.206Z</time></trkpt><trkpt lat="38.1377917" lon="15.5197467"><ele>38.0</ele><time>2026-04-28T14:54:00.206Z</time></trkpt><trkpt lat="38.137555" lon="15.51984"><ele>38.0</ele><time>2026-04-28T14:54:01.206Z</time></trkpt><trkpt lat="38.137315" lon="15.5199167"><ele>36.0</ele><time>2026-04-28T14:54:02.206Z</time></trkpt><trkpt lat="38.1370733" lon="15.5199767"><ele>34.0</ele><time>2026-04-28T14:54:03.206Z</time></trkpt><trkpt lat="38.1368283" lon="15.520015"><ele>34.0</ele><time>2026-04-28T14:54:04.206Z</time></trkpt><trkpt lat="38.1365783" lon="15.5200317"><ele>34.0</ele><time>2026-04-28T14:54:05.206Z</time></trkpt><trkpt lat="38.1363283" lon="15.520035"><ele>34.0</ele><time>2026-04-28T14:54:06.206Z</time></trkpt><trkpt lat="38.1360767" lon="15.52003"><ele>34.0</ele><time>2026-04-28T14:54:07.207Z</time></trkpt><trkpt lat="38.135825" lon="15.5200133"><ele>34.0</ele><time>2026-04-28T14:54:08.206Z</time></trkpt><trkpt lat="38.135575" lon="15.5199933"><ele>34.0</ele><time>2026-04-28T14:54:09.207Z</time></trkpt><trkpt lat="38.1353233" lon="15.5199717"><ele>34.0</ele><time>2026-04-28T14:54:10.206Z</time></trkpt><trkpt lat="38.1350717" lon="15.51995"><ele>34.0</ele><time>2026-04-28T14:54:11.206Z</time></trkpt><trkpt lat="38.1348217" lon="15.5199267"><ele>34.0</ele><time>2026-04-28T14:54:12.206Z</time></trkpt><trkpt lat="38.1345733" lon="15.519905"><ele>34.0</ele><time>2026-04-28T14:54:13.206Z</time></trkpt><trkpt lat="38.1343233" lon="15.519885"><ele>34.0</ele><time>2026-04-28T14:54:14.206Z</time></trkpt><trkpt lat="38.1340733" lon="15.5198617"><ele>34.0</ele><time>2026-04-28T14:54:15.206Z</time></trkpt><trkpt lat="38.1338217" lon="15.5198367"><ele>33.5</ele><time>2026-04-28T14:54:16.206Z</time></trkpt><trkpt lat="38.13357" lon="15.51981"><ele>33.0</ele><time>2026-04-28T14:54:17.206Z</time></trkpt><trkpt lat="38.1333167" lon="15.5197817"><ele>29.5</ele><time>2026-04-28T14:54:18.207Z</time></trkpt><trkpt lat="38.1330667" lon="15.51975"><ele>26.0</ele><time>2026-04-28T14:54:19.207Z</time></trkpt><trkpt lat="38.1328167" lon="15.5197183"><ele>26.0</ele><time>2026-04-28T14:54:20.206Z</time></trkpt><trkpt lat="38.1325683" lon="15.5196767"><ele>26.0</ele><time>2026-04-28T14:54:21.206Z</time></trkpt><trkpt lat="38.1323183" lon="15.51963"><ele>24.5</ele><time>2026-04-28T14:54:22.206Z</time></trkpt><trkpt lat="38.13207" lon="15.5195767"><ele>23.0</ele><time>2026-04-28T14:54:23.206Z</time></trkpt><trkpt lat="38.1318233" lon="15.519515"><ele>27.5</ele><time>2026-04-28T14:54:24.206Z</time></trkpt><trkpt lat="38.13158" lon="15.51945"><ele>32.0</ele><time>2026-04-28T14:54:25.206Z</time></trkpt><trkpt lat="38.1313367" lon="15.51938"><ele>32.0</ele><time>2026-04-28T14:54:26.206Z</time></trkpt><trkpt lat="38.1310933" lon="15.5193083"><ele>32.0</ele><time>2026-04-28T14:54:27.206Z</time></trkpt><trkpt lat="38.1308483" lon="15.5192433"><ele>29.5</ele><time>2026-04-28T14:54:28.206Z</time></trkpt><trkpt lat="38.130605" lon="15.5191767"><ele>27.0</ele><time>2026-04-28T14:54:29.206Z</time></trkpt><trkpt lat="38.1303617" lon="15.5191067"><ele>27.0</ele><time>2026-04-28T14:54:30.206Z</time></trkpt><trkpt lat="38.1301183" lon="15.5190367"><ele>27.0</ele><time>2026-04-28T14:54:31.206Z</time></trkpt><trkpt lat="38.1298767" lon="15.5189633"><ele>26.0</ele><time>2026-04-28T14:54:32.206Z</time></trkpt><trkpt lat="38.1296367" lon="15.5188883"><ele>25.0</ele><time>2026-04-28T14:54:33.206Z</time></trkpt><trkpt lat="38.1293933" lon="15.5188217"><ele>25.0</ele><time>2026-04-28T14:54:34.206Z</time></trkpt><trkpt lat="38.1291467" lon="15.5187583"><ele>25.0</ele><time>2026-04-28T14:54:35.207Z</time></trkpt><trkpt lat="38.1289" lon="15.5186967"><ele>27.0</ele><time>2026-04-28T14:54:36.206Z</time></trkpt><trkpt lat="38.128655" lon="15.51863"><ele>29.0</ele><time>2026-04-28T14:54:37.206Z</time></trkpt><trkpt lat="38.128415" lon="15.5185567"><ele>24.0</ele><time>2026-04-28T14:54:38.206Z</time></trkpt><trkpt lat="38.12819" lon="15.5184733"><ele>19.0</ele><time>2026-04-28T14:54:39.206Z</time></trkpt><trkpt lat="38.127975" lon="15.5183767"><ele>19.0</ele><time>2026-04-28T14:54:40.206Z</time></trkpt><trkpt lat="38.1277683" lon="15.5182717"><ele>19.0</ele><time>2026-04-28T14:54:41.206Z</time></trkpt><trkpt lat="38.127575" lon="15.5181667"><ele>19.0</ele><time>2026-04-28T14:54:42.206Z</time></trkpt><trkpt lat="38.1273967" lon="15.51806"><ele>17.666666666666664</ele><time>2026-04-28T14:54:43.206Z</time></trkpt><trkpt lat="38.1272367" lon="15.5179617"><ele>16.333333333333332</ele><time>2026-04-28T14:54:44.206Z</time></trkpt><trkpt lat="38.1270967" lon="15.517875"><ele>15.0</ele><time>2026-04-28T14:54:45.206Z</time></trkpt><trkpt lat="38.1269783" lon="15.5177983"><ele>16.6</ele><time>2026-04-28T14:54:46.206Z</time></trkpt><trkpt lat="38.12688" lon="15.5177333"><ele>18.2</ele><time>2026-04-28T14:54:47.206Z</time></trkpt><trkpt lat="38.12679" lon="15.51767"><ele>19.799999999999997</ele><time>2026-04-28T14:54:48.206Z</time></trkpt><trkpt lat="38.1267017" lon="15.5176083"><ele>21.4</ele><time>2026-04-28T14:54:49.206Z</time></trkpt><trkpt lat="38.1266117" lon="15.5175417"><ele>23.0</ele><time>2026-04-28T14:54:50.206Z</time></trkpt><trkpt lat="38.1265117" lon="15.5174717"><ele>23.0</ele><time>2026-04-28T14:54:51.206Z</time></trkpt><trkpt lat="38.1263983" lon="15.5173983"><ele>23.0</ele><time>2026-04-28T14:54:52.206Z</time></trkpt><trkpt lat="38.126275" lon="15.5173183"><ele>23.0</ele><time>2026-04-28T14:54:53.206Z</time></trkpt><trkpt lat="38.126145" lon="15.5172467"><ele>23.0</ele><time>2026-04-28T14:54:54.206Z</time></trkpt><trkpt lat="38.126015" lon="15.5171883"><ele>23.0</ele><time>2026-04-28T14:54:55.206Z</time></trkpt><trkpt lat="38.12589" lon="15.5171383"><ele>23.0</ele><time>2026-04-28T14:54:56.206Z</time></trkpt><trkpt lat="38.1257717" lon="15.51709"><ele>23.0</ele><time>2026-04-28T14:54:57.206Z</time></trkpt><trkpt lat="38.1256517" lon="15.51704"><ele>23.0</ele><time>2026-04-28T14:54:58.206Z</time></trkpt><trkpt lat="38.1255333" lon="15.516985"><ele>23.799999999999997</ele><time>2026-04-28T14:54:59.206Z</time></trkpt><trkpt lat="38.1254183" lon="15.5169283"><ele>24.6</ele><time>2026-04-28T14:55:00.206Z</time></trkpt><trkpt lat="38.1253217" lon="15.5168883"><ele>25.400000000000002</ele><time>2026-04-28T14:55:01.206Z</time></trkpt><trkpt lat="38.1252383" lon="15.5168617"><ele>26.200000000000003</ele><time>2026-04-28T14:55:02.206Z</time></trkpt><trkpt lat="38.1251683" lon="15.516835"><ele>27.0</ele><time>2026-04-28T14:55:03.206Z</time></trkpt><trkpt lat="38.1250683" lon="15.5167967"><ele>27.0</ele><time>2026-04-28T14:55:05.206Z</time></trkpt><trkpt lat="38.1249733" lon="15.5167483"><ele>27.000000000000004</ele><time>2026-04-28T14:55:07.206Z</time></trkpt><trkpt lat="38.124885" lon="15.5167"><ele>27.000000000000004</ele><time>2026-04-28T14:55:09.207Z</time></trkpt><trkpt lat="38.1248" lon="15.5166417"><ele>27.0</ele><time>2026-04-28T14:55:11.207Z</time></trkpt><trkpt lat="38.124705" lon="15.5165817"><ele>27.0</ele><time>2026-04-28T14:55:13.206Z</time></trkpt><trkpt lat="38.1245933" lon="15.5164933"><ele>26.8</ele><time>2026-04-28T14:55:15.206Z</time></trkpt><trkpt lat="38.1245267" lon="15.5164467"><ele>26.6</ele><time>2026-04-28T14:55:16.207Z</time></trkpt><trkpt lat="38.1244433" lon="15.5163917"><ele>26.400000000000002</ele><time>2026-04-28T14:55:17.207Z</time></trkpt><trkpt lat="38.1243467" lon="15.5163267"><ele>26.200000000000003</ele><time>2026-04-28T14:55:18.206Z</time></trkpt><trkpt lat="38.1242333" lon="15.5162483"><ele>26.0</ele><time>2026-04-28T14:55:19.206Z</time></trkpt><trkpt lat="38.1241033" lon="15.5161567"><ele>26.333333333333332</ele><time>2026-04-28T14:55:20.206Z</time></trkpt><trkpt lat="38.1239617" lon="15.516065"><ele>26.666666666666664</ele><time>2026-04-28T14:55:21.206Z</time></trkpt><trkpt lat="38.1238083" lon="15.5159733"><ele>27.0</ele><time>2026-04-28T14:55:22.206Z</time></trkpt><trkpt lat="38.1236483" lon="15.51589"><ele>27.0</ele><time>2026-04-28T14:55:23.206Z</time></trkpt><trkpt lat="38.12348" lon="15.5158183"><ele>27.0</ele><time>2026-04-28T14:55:24.206Z</time></trkpt><trkpt lat="38.123305" lon="15.5157583"><ele>27.0</ele><time>2026-04-28T14:55:25.206Z</time></trkpt><trkpt lat="38.1231283" lon="15.5157"><ele>24.0</ele><time>2026-04-28T14:55:26.206Z</time></trkpt><trkpt lat="38.1229483" lon="15.5156467"><ele>21.0</ele><time>2026-04-28T14:55:27.206Z</time></trkpt><trkpt lat="38.122765" lon="15.5155933"><ele>18.0</ele><time>2026-04-28T14:55:28.206Z</time></trkpt><trkpt lat="38.12258" lon="15.51554"><ele>18.666666666666668</ele><time>2026-04-28T14:55:29.206Z</time></trkpt><trkpt lat="38.122395" lon="15.5154883"><ele>19.333333333333336</ele><time>2026-04-28T14:55:30.206Z</time></trkpt><trkpt lat="38.1222067" lon="15.5154367"><ele>20.0</ele><time>2026-04-28T14:55:31.206Z</time></trkpt><trkpt lat="38.1220167" lon="15.515385"><ele>20.0</ele><time>2026-04-28T14:55:32.206Z</time></trkpt><trkpt lat="38.121825" lon="15.5153333"><ele>20.0</ele><time>2026-04-28T14:55:33.207Z</time></trkpt><trkpt lat="38.1216317" lon="15.5152783"><ele>20.0</ele><time>2026-04-28T14:55:34.206Z</time></trkpt><trkpt lat="38.1214367" lon="15.51522"><ele>19.333333333333336</ele><time>2026-04-28T14:55:35.206Z</time></trkpt><trkpt lat="38.1212417" lon="15.51516"><ele>18.666666666666668</ele><time>2026-04-28T14:55:36.206Z</time></trkpt><trkpt lat="38.1210433" lon="15.515095"><ele>18.0</ele><time>2026-04-28T14:55:37.206Z</time></trkpt><trkpt lat="38.1208467" lon="15.5150233"><ele>17.333333333333332</ele><time>2026-04-28T14:55:38.206Z</time></trkpt><trkpt lat="38.1206517" lon="15.514945"><ele>16.666666666666664</ele><time>2026-04-28T14:55:39.206Z</time></trkpt><trkpt lat="38.1204567" lon="15.5148583"><ele>16.0</ele><time>2026-04-28T14:55:40.206Z</time></trkpt><trkpt lat="38.1202633" lon="15.514765"><ele>16.0</ele><time>2026-04-28T14:55:41.206Z</time></trkpt><trkpt lat="38.1200733" lon="15.5146667"><ele>16.0</ele><time>2026-04-28T14:55:42.206Z</time></trkpt><trkpt lat="38.1198867" lon="15.5145583"><ele>16.0</ele><time>2026-04-28T14:55:43.206Z</time></trkpt><trkpt lat="38.1197033" lon="15.514445"><ele>17.333333333333332</ele><time>2026-04-28T14:55:44.207Z</time></trkpt><trkpt lat="38.1195233" lon="15.5143317"><ele>18.666666666666668</ele><time>2026-04-28T14:55:45.206Z</time></trkpt><trkpt lat="38.1193467" lon="15.514215"><ele>20.0</ele><time>2026-04-28T14:55:46.206Z</time></trkpt><trkpt lat="38.11917" lon="15.5140967"><ele>19.333333333333336</ele><time>2026-04-28T14:55:47.206Z</time></trkpt><trkpt lat="38.118995" lon="15.51398"><ele>18.666666666666668</ele><time>2026-04-28T14:55:48.207Z</time></trkpt><trkpt lat="38.118815" lon="15.5138617"><ele>18.0</ele><time>2026-04-28T14:55:49.206Z</time></trkpt><trkpt lat="38.1186333" lon="15.5137417"><ele>18.333333333333332</ele><time>2026-04-28T14:55:50.206Z</time></trkpt><trkpt lat="38.11845" lon="15.5136217"><ele>18.666666666666664</ele><time>2026-04-28T14:55:51.206Z</time></trkpt><trkpt lat="38.118265" lon="15.5135017"><ele>19.0</ele><time>2026-04-28T14:55:52.207Z</time></trkpt><trkpt lat="38.1180767" lon="15.5133767"><ele>19.0</ele><time>2026-04-28T14:55:53.207Z</time></trkpt><trkpt lat="38.1178883" lon="15.5132517"><ele>19.0</ele><time>2026-04-28T14:55:54.206Z</time></trkpt><trkpt lat="38.1177" lon="15.5131267"><ele>19.0</ele><time>2026-04-28T14:55:55.206Z</time></trkpt><trkpt lat="38.11751" lon="15.5130017"><ele>20.0</ele><time>2026-04-28T14:55:56.206Z</time></trkpt><trkpt lat="38.11732" lon="15.5128783"><ele>21.0</ele><time>2026-04-28T14:55:57.206Z</time></trkpt><trkpt lat="38.11713" lon="15.5127533"><ele>22.0</ele><time>2026-04-28T14:55:58.206Z</time></trkpt><trkpt lat="38.1169433" lon="15.51263"><ele>22.0</ele><time>2026-04-28T14:55:59.206Z</time></trkpt><trkpt lat="38.116755" lon="15.5125033"><ele>22.0</ele><time>2026-04-28T14:56:00.206Z</time></trkpt><trkpt lat="38.1165717" lon="15.5123783"><ele>22.0</ele><time>2026-04-28T14:56:01.206Z</time></trkpt><trkpt lat="38.1163883" lon="15.512255"><ele>21.666666666666664</ele><time>2026-04-28T14:56:02.207Z</time></trkpt><trkpt lat="38.116205" lon="15.5121317"><ele>21.333333333333332</ele><time>2026-04-28T14:56:03.207Z</time></trkpt><trkpt lat="38.1160233" lon="15.5120117"><ele>21.0</ele><time>2026-04-28T14:56:04.206Z</time></trkpt><trkpt lat="38.1158433" lon="15.5118933"><ele>19.666666666666668</ele><time>2026-04-28T14:56:05.206Z</time></trkpt><trkpt lat="38.115665" lon="15.5117717"><ele>18.333333333333336</ele><time>2026-04-28T14:56:06.206Z</time></trkpt><trkpt lat="38.115485" lon="15.5116467"><ele>17.0</ele><time>2026-04-28T14:56:07.206Z</time></trkpt><trkpt lat="38.1153067" lon="15.511525"><ele>17.0</ele><time>2026-04-28T14:56:08.206Z</time></trkpt><trkpt lat="38.1151267" lon="15.5114017"><ele>17.0</ele><time>2026-04-28T14:56:09.206Z</time></trkpt><trkpt lat="38.1149483" lon="15.5112783"><ele>17.0</ele><time>2026-04-28T14:56:10.206Z</time></trkpt><trkpt lat="38.11477" lon="15.5111533"><ele>17.333333333333336</ele><time>2026-04-28T14:56:11.206Z</time></trkpt><trkpt lat="38.11459" lon="15.5110283"><ele>17.666666666666668</ele><time>2026-04-28T14:56:12.206Z</time></trkpt><trkpt lat="38.1144067" lon="15.5109017"><ele>18.0</ele><time>2026-04-28T14:56:13.206Z</time></trkpt><trkpt lat="38.1142233" lon="15.5107717"><ele>17.0</ele><time>2026-04-28T14:56:14.206Z</time></trkpt><trkpt lat="38.11404" lon="15.5106433"><ele>16.0</ele><time>2026-04-28T14:56:15.206Z</time></trkpt><trkpt lat="38.1138533" lon="15.5105117"><ele>15.0</ele><time>2026-04-28T14:56:16.206Z</time></trkpt><trkpt lat="38.1136667" lon="15.5103833"><ele>15.333333333333332</ele><time>2026-04-28T14:56:17.206Z</time></trkpt><trkpt lat="38.1134783" lon="15.5102533"><ele>15.666666666666666</ele><time>2026-04-28T14:56:18.207Z</time></trkpt><trkpt lat="38.1132917" lon="15.5101233"><ele>16.0</ele><time>2026-04-28T14:56:19.206Z</time></trkpt><trkpt lat="38.1131033" lon="15.509995"><ele>16.0</ele><time>2026-04-28T14:56:20.206Z</time></trkpt><trkpt lat="38.1129167" lon="15.509865"><ele>16.0</ele><time>2026-04-28T14:56:21.206Z</time></trkpt><trkpt lat="38.1127317" lon="15.509735"><ele>16.0</ele><time>2026-04-28T14:56:22.206Z</time></trkpt><trkpt lat="38.112545" lon="15.5096033"><ele>17.0</ele><time>2026-04-28T14:56:23.206Z</time></trkpt><trkpt lat="38.11236" lon="15.509475"><ele>18.0</ele><time>2026-04-28T14:56:24.206Z</time></trkpt><trkpt lat="38.1121733" lon="15.5093467"><ele>19.0</ele><time>2026-04-28T14:56:25.206Z</time></trkpt><trkpt lat="38.1119883" lon="15.5092167"><ele>19.0</ele><time>2026-04-28T14:56:26.207Z</time></trkpt><trkpt lat="38.1118067" lon="15.5090817"><ele>19.0</ele><time>2026-04-28T14:56:27.206Z</time></trkpt><trkpt lat="38.11163" lon="15.5089417"><ele>19.0</ele><time>2026-04-28T14:56:28.206Z</time></trkpt><trkpt lat="38.11146" lon="15.5087917"><ele>21.666666666666664</ele><time>2026-04-28T14:56:29.206Z</time></trkpt><trkpt lat="38.1112917" lon="15.5086367"><ele>24.333333333333332</ele><time>2026-04-28T14:56:30.206Z</time></trkpt><trkpt lat="38.111125" lon="15.5084783"><ele>27.0</ele><time>2026-04-28T14:56:31.207Z</time></trkpt><trkpt lat="38.1109583" lon="15.508315"><ele>27.0</ele><time>2026-04-28T14:56:32.206Z</time></trkpt><trkpt lat="38.1107883" lon="15.50815"><ele>27.0</ele><time>2026-04-28T14:56:33.206Z</time></trkpt><trkpt lat="38.11062" lon="15.5079867"><ele>27.0</ele><time>2026-04-28T14:56:34.207Z</time></trkpt><trkpt lat="38.1104533" lon="15.5078233"><ele>27.333333333333336</ele><time>2026-04-28T14:56:35.206Z</time></trkpt><trkpt lat="38.110285" lon="15.50766"><ele>27.666666666666668</ele><time>2026-04-28T14:56:36.206Z</time></trkpt><trkpt lat="38.110115" lon="15.5075033"><ele>28.0</ele><time>2026-04-28T14:56:37.206Z</time></trkpt><trkpt lat="38.1099433" lon="15.50735"><ele>25.333333333333336</ele><time>2026-04-28T14:56:38.206Z</time></trkpt><trkpt lat="38.10977" lon="15.5071967"><ele>22.666666666666668</ele><time>2026-04-28T14:56:39.206Z</time></trkpt><trkpt lat="38.1095983" lon="15.5070417"><ele>20.0</ele><time>2026-04-28T14:56:40.206Z</time></trkpt><trkpt lat="38.1094283" lon="15.5068833"><ele>20.0</ele><time>2026-04-28T14:56:41.206Z</time></trkpt><trkpt lat="38.10926" lon="15.506725"><ele>20.0</ele><time>2026-04-28T14:56:42.206Z</time></trkpt><trkpt lat="38.1090883" lon="15.50657"><ele>20.0</ele><time>2026-04-28T14:56:43.207Z</time></trkpt><trkpt lat="38.108915" lon="15.5064183"><ele>20.333333333333336</ele><time>2026-04-28T14:56:44.207Z</time></trkpt><trkpt lat="38.1087383" lon="15.5062783"><ele>20.666666666666668</ele><time>2026-04-28T14:56:45.207Z</time></trkpt><trkpt lat="38.1085567" lon="15.5061433"><ele>21.0</ele><time>2026-04-28T14:56:46.206Z</time></trkpt><trkpt lat="38.1083717" lon="15.5060217"><ele>21.0</ele><time>2026-04-28T14:56:47.206Z</time></trkpt><trkpt lat="38.1081833" lon="15.5059067"><ele>21.0</ele><time>2026-04-28T14:56:48.206Z</time></trkpt><trkpt lat="38.1079917" lon="15.5058033"><ele>21.0</ele><time>2026-04-28T14:56:49.206Z</time></trkpt><trkpt lat="38.1078" lon="15.505705"><ele>21.0</ele><time>2026-04-28T14:56:50.207Z</time></trkpt><trkpt lat="38.1076033" lon="15.5056133"><ele>21.0</ele><time>2026-04-28T14:56:51.206Z</time></trkpt><trkpt lat="38.107405" lon="15.50553"><ele>21.0</ele><time>2026-04-28T14:56:52.207Z</time></trkpt><trkpt lat="38.1072067" lon="15.5054517"><ele>25.0</ele><time>2026-04-28T14:56:53.206Z</time></trkpt><trkpt lat="38.10701" lon="15.5053783"><ele>29.0</ele><time>2026-04-28T14:56:54.206Z</time></trkpt><trkpt lat="38.1068083" lon="15.5053017"><ele>33.0</ele><time>2026-04-28T14:56:55.207Z</time></trkpt><trkpt lat="38.1066033" lon="15.5052217"><ele>32.0</ele><time>2026-04-28T14:56:56.206Z</time></trkpt><trkpt lat="38.1064" lon="15.505145"><ele>31.0</ele><time>2026-04-28T14:56:57.207Z</time></trkpt><trkpt lat="38.1062" lon="15.50507"><ele>30.0</ele><time>2026-04-28T14:56:58.206Z</time></trkpt><trkpt lat="38.1059967" lon="15.50499"><ele>30.0</ele><time>2026-04-28T14:56:59.206Z</time></trkpt><trkpt lat="38.1057983" lon="15.5049117"><ele>30.0</ele><time>2026-04-28T14:57:00.206Z</time></trkpt><trkpt lat="38.1055983" lon="15.504835"><ele>30.0</ele><time>2026-04-28T14:57:01.206Z</time></trkpt><trkpt lat="38.1054" lon="15.5047567"><ele>29.333333333333336</ele><time>2026-04-28T14:57:02.206Z</time></trkpt><trkpt lat="38.1051967" lon="15.50468"><ele>28.666666666666668</ele><time>2026-04-28T14:57:03.206Z</time></trkpt><trkpt lat="38.104995" lon="15.5046083"><ele>28.0</ele><time>2026-04-28T14:57:04.206Z</time></trkpt><trkpt lat="38.1047867" lon="15.50455"><ele>33.0</ele><time>2026-04-28T14:57:05.206Z</time></trkpt><trkpt lat="38.1045783" lon="15.5044967"><ele>38.0</ele><time>2026-04-28T14:57:06.206Z</time></trkpt><trkpt lat="38.1043717" lon="15.5044517"><ele>43.0</ele><time>2026-04-28T14:57:07.206Z</time></trkpt><trkpt lat="38.1041633" lon="15.50441"><ele>39.333333333333336</ele><time>2026-04-28T14:57:08.206Z</time></trkpt><trkpt lat="38.1039517" lon="15.5043667"><ele>35.666666666666664</ele><time>2026-04-28T14:57:09.206Z</time></trkpt><trkpt lat="38.10374" lon="15.5043217"><ele>32.0</ele><time>2026-04-28T14:57:10.207Z</time></trkpt><trkpt lat="38.10353" lon="15.5042767"><ele>32.0</ele><time>2026-04-28T14:57:11.207Z</time></trkpt><trkpt lat="38.10332" lon="15.504235"><ele>32.0</ele><time>2026-04-28T14:57:12.206Z</time></trkpt><trkpt lat="38.1031083" lon="15.5041933"><ele>32.0</ele><time>2026-04-28T14:57:13.206Z</time></trkpt><trkpt lat="38.1028983" lon="15.5041483"><ele>29.333333333333332</ele><time>2026-04-28T14:57:14.206Z</time></trkpt><trkpt lat="38.1026867" lon="15.5041067"><ele>26.666666666666664</ele><time>2026-04-28T14:57:15.206Z</time></trkpt><trkpt lat="38.1024783" lon="15.5040617"><ele>24.0</ele><time>2026-04-28T14:57:16.206Z</time></trkpt><trkpt lat="38.1022683" lon="15.5040167"><ele>23.0</ele><time>2026-04-28T14:57:17.206Z</time></trkpt><trkpt lat="38.1020583" lon="15.5039683"><ele>22.0</ele><time>2026-04-28T14:57:18.207Z</time></trkpt><trkpt lat="38.10185" lon="15.50392"><ele>21.0</ele><time>2026-04-28T14:57:19.206Z</time></trkpt><trkpt lat="38.1016417" lon="15.5038617"><ele>19.666666666666668</ele><time>2026-04-28T14:57:20.206Z</time></trkpt><trkpt lat="38.1014383" lon="15.5037967"><ele>18.333333333333336</ele><time>2026-04-28T14:57:21.206Z</time></trkpt><trkpt lat="38.1012383" lon="15.5037167"><ele>17.0</ele><time>2026-04-28T14:57:22.206Z</time></trkpt><trkpt lat="38.1010417" lon="15.503625"><ele>24.0</ele><time>2026-04-28T14:57:23.207Z</time></trkpt><trkpt lat="38.1008483" lon="15.503525"><ele>31.0</ele><time>2026-04-28T14:57:24.207Z</time></trkpt><trkpt lat="38.1006567" lon="15.5034117"><ele>38.0</ele><time>2026-04-28T14:57:25.206Z</time></trkpt><trkpt lat="38.1004667" lon="15.5032917"><ele>21.0</ele><time>2026-04-28T14:57:26.206Z</time></trkpt><trkpt lat="38.0981517" lon="15.5014983"><ele>21.0</ele><time>2026-04-28T14:57:39.205Z</time></trkpt><trkpt lat="38.0979533" lon="15.5013617"><ele>21.0</ele><time>2026-04-28T14:57:40.204Z</time></trkpt><trkpt lat="38.09776" lon="15.5012367"><ele>21.0</ele><time>2026-04-28T14:57:41.204Z</time></trkpt><trkpt lat="38.0975633" lon="15.5011217"><ele>21.333333333333332</ele><time>2026-04-28T14:57:42.204Z</time></trkpt><trkpt lat="38.0973667" lon="15.501015"><ele>21.666666666666664</ele><time>2026-04-28T14:57:43.204Z</time></trkpt><trkpt lat="38.0971683" lon="15.50091"><ele>22.0</ele><time>2026-04-28T14:57:44.204Z</time></trkpt><trkpt lat="38.096975" lon="15.5008117"><ele>22.0</ele><time>2026-04-28T14:57:45.204Z</time></trkpt><trkpt lat="38.0967783" lon="15.5007167"><ele>22.0</ele><time>2026-04-28T14:57:46.204Z</time></trkpt><trkpt lat="38.0965767" lon="15.50063"><ele>22.0</ele><time>2026-04-28T14:57:47.204Z</time></trkpt><trkpt lat="38.096375" lon="15.50055"><ele>22.0</ele><time>2026-04-28T14:57:48.204Z</time></trkpt><trkpt lat="38.0961733" lon="15.500475"><ele>22.0</ele><time>2026-04-28T14:57:49.204Z</time></trkpt><trkpt lat="38.09597" lon="15.5004067"><ele>22.0</ele><time>2026-04-28T14:57:50.205Z</time></trkpt><trkpt lat="38.0957667" lon="15.500345"><ele>30.0</ele><time>2026-04-28T14:57:51.204Z</time></trkpt><trkpt lat="38.09556" lon="15.50029"><ele>38.0</ele><time>2026-04-28T14:57:52.204Z</time></trkpt><trkpt lat="38.0953533" lon="15.50024"><ele>46.0</ele><time>2026-04-28T14:57:53.204Z</time></trkpt><trkpt lat="38.0951433" lon="15.5001883"><ele>46.0</ele><time>2026-04-28T14:57:54.204Z</time></trkpt><trkpt lat="38.0949283" lon="15.5001367"><ele>46.0</ele><time>2026-04-28T14:57:55.204Z</time></trkpt><trkpt lat="38.09228" lon="15.49932"><ele>38.5</ele><time>2026-04-28T14:58:07.205Z</time></trkpt><trkpt lat="38.0920783" lon="15.4991883"><ele>31.0</ele><time>2026-04-28T14:58:08.205Z</time></trkpt><trkpt lat="38.0918717" lon="15.499035"><ele>31.0</ele><time>2026-04-28T14:58:09.205Z</time></trkpt><trkpt lat="38.0916917" lon="15.4988817"><ele>31.0</ele><time>2026-04-28T14:58:10.206Z</time></trkpt><trkpt lat="38.0915183" lon="15.4987367"><ele>31.0</ele><time>2026-04-28T14:58:11.205Z</time></trkpt><trkpt lat="38.0913433" lon="15.4985917"><ele>32.66666666666667</ele><time>2026-04-28T14:58:12.205Z</time></trkpt><trkpt lat="38.091165" lon="15.4984517"><ele>34.333333333333336</ele><time>2026-04-28T14:58:13.205Z</time></trkpt><trkpt lat="38.090985" lon="15.4983133"><ele>36.0</ele><time>2026-04-28T14:58:14.205Z</time></trkpt><trkpt lat="38.090805" lon="15.4981717"><ele>39.0</ele><time>2026-04-28T14:58:15.205Z</time></trkpt><trkpt lat="38.090625" lon="15.4980317"><ele>42.0</ele><time>2026-04-28T14:58:16.205Z</time></trkpt><trkpt lat="38.0904433" lon="15.4978933"><ele>45.0</ele><time>2026-04-28T14:58:17.205Z</time></trkpt><trkpt lat="38.0902633" lon="15.4977533"><ele>45.333333333333336</ele><time>2026-04-28T14:58:18.205Z</time></trkpt><trkpt lat="38.0900817" lon="15.497615"><ele>45.66666666666667</ele><time>2026-04-28T14:58:19.205Z</time></trkpt><trkpt lat="38.0899017" lon="15.4974783"><ele>46.0</ele><time>2026-04-28T14:58:20.205Z</time></trkpt><trkpt lat="38.0897217" lon="15.4973383"><ele>34.0</ele><time>2026-04-28T14:58:21.205Z</time></trkpt><trkpt lat="38.0881467" lon="15.4963367"><ele>34.0</ele><time>2026-04-28T14:58:29.211Z</time></trkpt><trkpt lat="38.08798" lon="15.4962583"><ele>34.0</ele><time>2026-04-28T14:58:30.211Z</time></trkpt><trkpt lat="38.0878183" lon="15.4961633"><ele>34.0</ele><time>2026-04-28T14:58:31.212Z</time></trkpt><trkpt lat="38.0876317" lon="15.4960567"><ele>17.0</ele><time>2026-04-28T14:58:32.211Z</time></trkpt><trkpt lat="38.0852217" lon="15.49545"><ele>22.0</ele><time>2026-04-28T14:58:44.204Z</time></trkpt><trkpt lat="38.0849917" lon="15.4953917"><ele>27.0</ele><time>2026-04-28T14:58:45.204Z</time></trkpt><trkpt lat="38.0847917" lon="15.495345"><ele>32.0</ele><time>2026-04-28T14:58:46.204Z</time></trkpt><trkpt lat="38.0845933" lon="15.4952983"><ele>32.0</ele><time>2026-04-28T14:58:47.204Z</time></trkpt><trkpt lat="38.0843967" lon="15.495245"><ele>32.0</ele><time>2026-04-28T14:58:48.204Z</time></trkpt><trkpt lat="38.0841967" lon="15.49518"><ele>32.0</ele><time>2026-04-28T14:58:49.204Z</time></trkpt><trkpt lat="38.0839967" lon="15.4951067"><ele>28.333333333333332</ele><time>2026-04-28T14:58:50.204Z</time></trkpt><trkpt lat="38.0838" lon="15.4950217"><ele>24.666666666666664</ele><time>2026-04-28T14:58:51.204Z</time></trkpt><trkpt lat="38.083605" lon="15.4949283"><ele>21.0</ele><time>2026-04-28T14:58:52.205Z</time></trkpt><trkpt lat="38.0834167" lon="15.494825"><ele>19.0</ele><time>2026-04-28T14:58:53.204Z</time></trkpt><trkpt lat="38.083235" lon="15.49471"><ele>17.0</ele><time>2026-04-28T14:58:54.204Z</time></trkpt><trkpt lat="38.0830633" lon="15.4945817"><ele>15.0</ele><time>2026-04-28T14:58:55.204Z</time></trkpt><trkpt lat="38.082885" lon="15.494455"><ele>23.333333333333336</ele><time>2026-04-28T14:58:56.205Z</time></trkpt><trkpt lat="38.0827083" lon="15.4943267"><ele>31.666666666666668</ele><time>2026-04-28T14:58:57.204Z</time></trkpt><trkpt lat="38.08253" lon="15.494195"><ele>40.0</ele><time>2026-04-28T14:58:58.204Z</time></trkpt><trkpt lat="38.0823483" lon="15.494065"><ele>40.0</ele><time>2026-04-28T14:58:59.204Z</time></trkpt><trkpt lat="38.08217" lon="15.4939267"><ele>40.0</ele><time>2026-04-28T14:59:00.204Z</time></trkpt><trkpt lat="38.0813" lon="15.4931433"><ele>39.333333333333336</ele><time>2026-04-28T14:59:05.206Z</time></trkpt><trkpt lat="38.0811183" lon="15.493005"><ele>38.666666666666664</ele><time>2026-04-28T14:59:06.205Z</time></trkpt><trkpt lat="38.0809117" lon="15.492865"><ele>38.0</ele><time>2026-04-28T14:59:07.205Z</time></trkpt><trkpt lat="38.0806967" lon="15.4927333"><ele>43.5</ele><time>2026-04-28T14:59:08.205Z</time></trkpt><trkpt lat="38.080485" lon="15.4926083"><ele>49.0</ele><time>2026-04-28T14:59:09.205Z</time></trkpt><trkpt lat="38.0792717" lon="15.4922233"><ele>48.0</ele><time>2026-04-28T14:59:14.206Z</time></trkpt><trkpt lat="38.0790267" lon="15.4921817"><ele>47.0</ele><time>2026-04-28T14:59:15.205Z</time></trkpt><trkpt lat="38.0787767" lon="15.492135"><ele>65.0</ele><time>2026-04-28T14:59:16.205Z</time></trkpt><trkpt lat="38.0779717" lon="15.4919867"><ele>65.0</ele><time>2026-04-28T14:59:19.205Z</time></trkpt><trkpt lat="38.0776433" lon="15.4920083"><ele>65.0</ele><time>2026-04-28T14:59:20.205Z</time></trkpt><trkpt lat="38.0773733" lon="15.4920867"><ele>55.0</ele><time>2026-04-28T14:59:21.205Z</time></trkpt><trkpt lat="38.07711" lon="15.4921067"><ele>45.0</ele><time>2026-04-28T14:59:22.205Z</time></trkpt><trkpt lat="38.0768733" lon="15.492085"><ele>45.0</ele><time>2026-04-28T14:59:23.205Z</time></trkpt><trkpt lat="38.0766383" lon="15.492045"><ele>45.0</ele><time>2026-04-28T14:59:24.205Z</time></trkpt><trkpt lat="38.076415" lon="15.4919767"><ele>40.0</ele><time>2026-04-28T14:59:25.205Z</time></trkpt><trkpt lat="38.0761933" lon="15.4918967"><ele>35.0</ele><time>2026-04-28T14:59:26.205Z</time></trkpt><trkpt lat="38.0759767" lon="15.4917983"><ele>26.5</ele><time>2026-04-28T14:59:27.205Z</time></trkpt><trkpt lat="38.075765" lon="15.4916883"><ele>18.0</ele><time>2026-04-28T14:59:28.205Z</time></trkpt><trkpt lat="38.075555" lon="15.4915667"><ele>18.0</ele><time>2026-04-28T14:59:29.206Z</time></trkpt><trkpt lat="38.0753517" lon="15.4914367"><ele>18.0</ele><time>2026-04-28T14:59:30.205Z</time></trkpt><trkpt lat="38.075155" lon="15.4912967"><ele>21.666666666666664</ele><time>2026-04-28T14:59:31.205Z</time></trkpt><trkpt lat="38.0749667" lon="15.49115"><ele>25.333333333333332</ele><time>2026-04-28T14:59:32.205Z</time></trkpt><trkpt lat="38.0747867" lon="15.4909983"><ele>29.0</ele><time>2026-04-28T14:59:33.206Z</time></trkpt><trkpt lat="38.074605" lon="15.4908517"><ele>29.0</ele><time>2026-04-28T14:59:34.205Z</time></trkpt><trkpt lat="38.0744217" lon="15.4907117"><ele>29.0</ele><time>2026-04-28T14:59:35.205Z</time></trkpt><trkpt lat="38.074245" lon="15.4905283"><ele>29.0</ele><time>2026-04-28T14:59:36.205Z</time></trkpt><trkpt lat="38.0740883" lon="15.49032"><ele>39.0</ele><time>2026-04-28T14:59:37.205Z</time></trkpt><trkpt lat="38.0739217" lon="15.4901217"><ele>49.0</ele><time>2026-04-28T14:59:38.205Z</time></trkpt><trkpt lat="38.0737567" lon="15.4899017"><ele>49.0</ele><time>2026-04-28T14:59:39.206Z</time></trkpt><trkpt lat="38.07359" lon="15.489695"><ele>49.0</ele><time>2026-04-28T14:59:40.205Z</time></trkpt><trkpt lat="38.0734283" lon="15.48949"><ele>48.0</ele><time>2026-04-28T14:59:41.205Z</time></trkpt><trkpt lat="38.0732683" lon="15.4892867"><ele>47.0</ele><time>2026-04-28T14:59:42.205Z</time></trkpt><trkpt lat="38.0731133" lon="15.489085"><ele>46.0</ele><time>2026-04-28T14:59:43.205Z</time></trkpt><trkpt lat="38.0719833" lon="15.4875717"><ele>36.5</ele><time>2026-04-28T14:59:50.204Z</time></trkpt><trkpt lat="38.0718" lon="15.4873533"><ele>27.0</ele><time>2026-04-28T14:59:51.204Z</time></trkpt><trkpt lat="38.0716217" lon="15.487135"><ele>24.5</ele><time>2026-04-28T14:59:52.204Z</time></trkpt><trkpt lat="38.0714367" lon="15.4869383"><ele>22.0</ele><time>2026-04-28T14:59:53.204Z</time></trkpt><trkpt lat="38.071265" lon="15.4867367"><ele>22.0</ele><time>2026-04-28T14:59:54.205Z</time></trkpt><trkpt lat="38.0710867" lon="15.4865467"><ele>22.0</ele><time>2026-04-28T14:59:55.204Z</time></trkpt><trkpt lat="38.0709233" lon="15.4863683"><ele>22.0</ele><time>2026-04-28T14:59:56.204Z</time></trkpt><trkpt lat="38.0707617" lon="15.486195"><ele>29.333333333333332</ele><time>2026-04-28T14:59:57.204Z</time></trkpt><trkpt lat="38.070595" lon="15.486025"><ele>36.666666666666664</ele><time>2026-04-28T14:59:58.204Z</time></trkpt><trkpt lat="38.070425" lon="15.4858633"><ele>44.0</ele><time>2026-04-28T14:59:59.204Z</time></trkpt><trkpt lat="38.0702583" lon="15.4857067"><ele>35.0</ele><time>2026-04-28T15:00:00.204Z</time></trkpt><trkpt lat="38.06936" lon="15.4847333"><ele>35.0</ele><time>2026-04-28T15:00:06.206Z</time></trkpt><trkpt lat="38.0692433" lon="15.484625"><ele>35.0</ele><time>2026-04-28T15:00:07.205Z</time></trkpt><trkpt lat="38.0691267" lon="15.484435"><ele>35.0</ele><time>2026-04-28T15:00:08.205Z</time></trkpt><trkpt lat="38.0689917" lon="15.48425"><ele>37.666666666666664</ele><time>2026-04-28T15:00:09.205Z</time></trkpt><trkpt lat="38.06885" lon="15.4840767"><ele>40.333333333333336</ele><time>2026-04-28T15:00:10.205Z</time></trkpt><trkpt lat="38.0687033" lon="15.4839133"><ele>43.0</ele><time>2026-04-28T15:00:11.205Z</time></trkpt><trkpt lat="38.0685583" lon="15.48375"><ele>43.0</ele><time>2026-04-28T15:00:12.205Z</time></trkpt><trkpt lat="38.0684133" lon="15.4835883"><ele>43.0</ele><time>2026-04-28T15:00:13.205Z</time></trkpt><trkpt lat="38.0681467" lon="15.4832483"><ele>39.66666666666667</ele><time>2026-04-28T15:00:15.204Z</time></trkpt><trkpt lat="38.0680683" lon="15.4830083"><ele>36.333333333333336</ele><time>2026-04-28T15:00:16.205Z</time></trkpt><trkpt lat="38.0679367" lon="15.48281"><ele>33.0</ele><time>2026-04-28T15:00:17.204Z</time></trkpt><trkpt lat="38.0677967" lon="15.4826067"><ele>33.0</ele><time>2026-04-28T15:00:18.204Z</time></trkpt><trkpt lat="38.0676583" lon="15.4824083"><ele>33.0</ele><time>2026-04-28T15:00:19.204Z</time></trkpt><trkpt lat="38.067515" lon="15.4822217"><ele>33.0</ele><time>2026-04-28T15:00:20.204Z</time></trkpt><trkpt lat="38.0673767" lon="15.482035"><ele>30.0</ele><time>2026-04-28T15:00:21.204Z</time></trkpt><trkpt lat="38.0672567" lon="15.48187"><ele>27.0</ele><time>2026-04-28T15:00:22.204Z</time></trkpt><trkpt lat="38.06713" lon="15.48169"><ele>24.0</ele><time>2026-04-28T15:00:23.204Z</time></trkpt><trkpt lat="38.0669967" lon="15.48151"><ele>24.0</ele><time>2026-04-28T15:00:24.205Z</time></trkpt><trkpt lat="38.0668567" lon="15.4813417"><ele>24.0</ele><time>2026-04-28T15:00:25.205Z</time></trkpt><trkpt lat="38.0667133" lon="15.48118"><ele>24.0</ele><time>2026-04-28T15:00:26.204Z</time></trkpt><trkpt lat="38.0665667" lon="15.4810217"><ele>22.666666666666668</ele><time>2026-04-28T15:00:27.204Z</time></trkpt><trkpt lat="38.0664183" lon="15.480865"><ele>21.333333333333336</ele><time>2026-04-28T15:00:28.204Z</time></trkpt><trkpt lat="38.0662683" lon="15.48071"><ele>20.0</ele><time>2026-04-28T15:00:29.204Z</time></trkpt><trkpt lat="38.06612" lon="15.4805633"><ele>20.333333333333336</ele><time>2026-04-28T15:00:30.205Z</time></trkpt><trkpt lat="38.0659717" lon="15.4804183"><ele>20.666666666666668</ele><time>2026-04-28T15:00:31.204Z</time></trkpt><trkpt lat="38.065825" lon="15.4802683"><ele>21.0</ele><time>2026-04-28T15:00:32.204Z</time></trkpt><trkpt lat="38.0656783" lon="15.480115"><ele>21.0</ele><time>2026-04-28T15:00:33.204Z</time></trkpt><trkpt lat="38.0655367" lon="15.47996"><ele>21.0</ele><time>2026-04-28T15:00:34.205Z</time></trkpt><trkpt lat="38.0653967" lon="15.4798067"><ele>21.0</ele><time>2026-04-28T15:00:35.204Z</time></trkpt><trkpt lat="38.0652567" lon="15.479655"><ele>22.666666666666664</ele><time>2026-04-28T15:00:36.204Z</time></trkpt><trkpt lat="38.065115" lon="15.4795067"><ele>24.333333333333332</ele><time>2026-04-28T15:00:37.204Z</time></trkpt><trkpt lat="38.0649717" lon="15.47936"><ele>26.0</ele><time>2026-04-28T15:00:38.204Z</time></trkpt><trkpt lat="38.0648267" lon="15.4792117"><ele>26.0</ele><time>2026-04-28T15:00:39.204Z</time></trkpt><trkpt lat="38.06468" lon="15.4790617"><ele>26.0</ele><time>2026-04-28T15:00:40.204Z</time></trkpt><trkpt lat="38.064535" lon="15.4789133"><ele>26.0</ele><time>2026-04-28T15:00:41.204Z</time></trkpt><trkpt lat="38.064395" lon="15.47876"><ele>33.666666666666664</ele><time>2026-04-28T15:00:42.204Z</time></trkpt><trkpt lat="38.0642583" lon="15.4786067"><ele>41.33333333333333</ele><time>2026-04-28T15:00:43.204Z</time></trkpt><trkpt lat="38.0641233" lon="15.4784533"><ele>49.0</ele><time>2026-04-28T15:00:44.204Z</time></trkpt><trkpt lat="38.0640017" lon="15.4782917"><ele>49.0</ele><time>2026-04-28T15:00:45.205Z</time></trkpt><trkpt lat="38.0638733" lon="15.4781367"><ele>49.0</ele><time>2026-04-28T15:00:46.204Z</time></trkpt><trkpt lat="38.063745" lon="15.47798"><ele>49.0</ele><time>2026-04-28T15:00:47.205Z</time></trkpt><trkpt lat="38.0636167" lon="15.477825"><ele>44.0</ele><time>2026-04-28T15:00:48.204Z</time></trkpt><trkpt lat="38.06349" lon="15.4776683"><ele>39.0</ele><time>2026-04-28T15:00:49.204Z</time></trkpt><trkpt lat="38.0628367" lon="15.476985"><ele>33.0</ele><time>2026-04-28T15:00:54.205Z</time></trkpt><trkpt lat="38.0624233" lon="15.4771067"><ele>27.0</ele><time>2026-04-28T15:00:55.205Z</time></trkpt><trkpt lat="38.06221" lon="15.4769933"><ele>27.0</ele><time>2026-04-28T15:00:56.205Z</time></trkpt><trkpt lat="38.0620167" lon="15.47692"><ele>27.0</ele><time>2026-04-28T15:00:57.205Z</time></trkpt><trkpt lat="38.06183" lon="15.4768517"><ele>27.0</ele><time>2026-04-28T15:00:58.206Z</time></trkpt><trkpt lat="38.06164" lon="15.4767867"><ele>27.0</ele><time>2026-04-28T15:00:59.205Z</time></trkpt><trkpt lat="38.0614483" lon="15.4767183"><ele>27.0</ele><time>2026-04-28T15:01:00.205Z</time></trkpt><trkpt lat="38.061255" lon="15.4766517"><ele>27.0</ele><time>2026-04-28T15:01:01.205Z</time></trkpt><trkpt lat="38.061065" lon="15.4765833"><ele>27.0</ele><time>2026-04-28T15:01:02.205Z</time></trkpt><trkpt lat="38.0608817" lon="15.4765133"><ele>27.0</ele><time>2026-04-28T15:01:03.206Z</time></trkpt><trkpt lat="38.0606983" lon="15.4764417"><ele>27.0</ele><time>2026-04-28T15:01:04.205Z</time></trkpt><trkpt lat="38.06052" lon="15.4763767"><ele>29.333333333333336</ele><time>2026-04-28T15:01:05.205Z</time></trkpt><trkpt lat="38.0603433" lon="15.47631"><ele>31.666666666666668</ele><time>2026-04-28T15:01:06.205Z</time></trkpt><trkpt lat="38.060165" lon="15.476245"><ele>34.0</ele><time>2026-04-28T15:01:07.205Z</time></trkpt><trkpt lat="38.0599867" lon="15.4761783"><ele>40.66666666666667</ele><time>2026-04-28T15:01:08.205Z</time></trkpt><trkpt lat="38.05981" lon="15.47611"><ele>47.333333333333336</ele><time>2026-04-28T15:01:09.205Z</time></trkpt><trkpt lat="38.0596367" lon="15.4760383"><ele>54.0</ele><time>2026-04-28T15:01:10.205Z</time></trkpt><trkpt lat="38.05946" lon="15.4759667"><ele>54.0</ele><time>2026-04-28T15:01:11.205Z</time></trkpt><trkpt lat="38.0592833" lon="15.4758917"><ele>54.0</ele><time>2026-04-28T15:01:12.205Z</time></trkpt><trkpt lat="38.05911" lon="15.4758167"><ele>54.0</ele><time>2026-04-28T15:01:13.205Z</time></trkpt><trkpt lat="38.0589283" lon="15.47574"><ele>61.0</ele><time>2026-04-28T15:01:14.205Z</time></trkpt><trkpt lat="38.0587483" lon="15.4756617"><ele>68.0</ele><time>2026-04-28T15:01:15.205Z</time></trkpt><trkpt lat="38.058565" lon="15.47558"><ele>75.0</ele><time>2026-04-28T15:01:16.205Z</time></trkpt><trkpt lat="38.0583833" lon="15.4754967"><ele>79.0</ele><time>2026-04-28T15:01:17.206Z</time></trkpt><trkpt lat="38.0582" lon="15.4754133"><ele>83.0</ele><time>2026-04-28T15:01:18.206Z</time></trkpt><trkpt lat="38.0511017" lon="15.46972"><ele>71.66666666666667</ele><time>2026-04-28T15:02:08.205Z</time></trkpt><trkpt lat="38.0510017" lon="15.4695367"><ele>60.33333333333333</ele><time>2026-04-28T15:02:09.205Z</time></trkpt><trkpt lat="38.0509233" lon="15.4693733"><ele>49.0</ele><time>2026-04-28T15:02:10.204Z</time></trkpt><trkpt lat="38.0508383" lon="15.4692"><ele>44.0</ele><time>2026-04-28T15:02:11.204Z</time></trkpt><trkpt lat="38.0507383" lon="15.46902"><ele>39.0</ele><time>2026-04-28T15:02:12.204Z</time></trkpt><trkpt lat="38.050645" lon="15.4688383"><ele>34.0</ele><time>2026-04-28T15:02:13.204Z</time></trkpt><trkpt lat="38.05056" lon="15.46865"><ele>33.66666666666667</ele><time>2026-04-28T15:02:14.204Z</time></trkpt><trkpt lat="38.0504733" lon="15.4684667"><ele>33.333333333333336</ele><time>2026-04-28T15:02:15.204Z</time></trkpt><trkpt lat="38.050405" lon="15.4682417"><ele>33.0</ele><time>2026-04-28T15:02:16.204Z</time></trkpt><trkpt lat="38.0503033" lon="15.4680567"><ele>32.333333333333336</ele><time>2026-04-28T15:02:17.204Z</time></trkpt><trkpt lat="38.0501933" lon="15.467895"><ele>31.666666666666668</ele><time>2026-04-28T15:02:18.205Z</time></trkpt><trkpt lat="38.0500917" lon="15.4677083"><ele>31.0</ele><time>2026-04-28T15:02:19.204Z</time></trkpt><trkpt lat="38.0499933" lon="15.4675217"><ele>29.666666666666668</ele><time>2026-04-28T15:02:20.204Z</time></trkpt><trkpt lat="38.0498833" lon="15.4673317"><ele>28.333333333333336</ele><time>2026-04-28T15:02:21.204Z</time></trkpt><trkpt lat="38.04978" lon="15.46714"><ele>27.0</ele><time>2026-04-28T15:02:22.204Z</time></trkpt><trkpt lat="38.049675" lon="15.4669433"><ele>32.333333333333336</ele><time>2026-04-28T15:02:23.205Z</time></trkpt><trkpt lat="38.0495567" lon="15.46676"><ele>37.66666666666667</ele><time>2026-04-28T15:02:24.205Z</time></trkpt><trkpt lat="38.049435" lon="15.4665867"><ele>43.0</ele><time>2026-04-28T15:02:25.204Z</time></trkpt><trkpt lat="38.049315" lon="15.466415"><ele>50.0</ele><time>2026-04-28T15:02:26.204Z</time></trkpt><trkpt lat="38.0491917" lon="15.4662367"><ele>57.0</ele><time>2026-04-28T15:02:27.204Z</time></trkpt><trkpt lat="38.0490717" lon="15.4660583"><ele>64.0</ele><time>2026-04-28T15:02:28.204Z</time></trkpt><trkpt lat="38.04895" lon="15.46588"><ele>69.5</ele><time>2026-04-28T15:02:29.205Z</time></trkpt><trkpt lat="38.0488267" lon="15.4656983"><ele>75.0</ele><time>2026-04-28T15:02:30.204Z</time></trkpt><trkpt lat="38.0459167" lon="15.46268"><ele>58.666666666666664</ele><time>2026-04-28T15:02:48.204Z</time></trkpt><trkpt lat="38.045765" lon="15.462455"><ele>42.33333333333333</ele><time>2026-04-28T15:02:49.204Z</time></trkpt><trkpt lat="38.0456117" lon="15.4622767"><ele>26.0</ele><time>2026-04-28T15:02:50.204Z</time></trkpt><trkpt lat="38.0454667" lon="15.4621033"><ele>26.0</ele><time>2026-04-28T15:02:51.204Z</time></trkpt><trkpt lat="38.0453183" lon="15.4619233"><ele>26.0</ele><time>2026-04-28T15:02:52.204Z</time></trkpt><trkpt lat="38.0451783" lon="15.4617317"><ele>26.0</ele><time>2026-04-28T15:02:53.205Z</time></trkpt><trkpt lat="38.0450417" lon="15.4615367"><ele>23.333333333333332</ele><time>2026-04-28T15:02:54.204Z</time></trkpt><trkpt lat="38.0449" lon="15.4613367"><ele>20.666666666666664</ele><time>2026-04-28T15:02:55.205Z</time></trkpt><trkpt lat="38.044765" lon="15.4611383"><ele>18.0</ele><time>2026-04-28T15:02:56.204Z</time></trkpt><trkpt lat="38.04463" lon="15.4609367"><ele>18.0</ele><time>2026-04-28T15:02:57.204Z</time></trkpt><trkpt lat="38.0444933" lon="15.4607367"><ele>18.0</ele><time>2026-04-28T15:02:58.204Z</time></trkpt><trkpt lat="38.044355" lon="15.46054"><ele>18.0</ele><time>2026-04-28T15:02:59.205Z</time></trkpt><trkpt lat="38.0442167" lon="15.4603433"><ele>17.333333333333332</ele><time>2026-04-28T15:03:00.204Z</time></trkpt><trkpt lat="38.04408" lon="15.4601483"><ele>16.666666666666664</ele><time>2026-04-28T15:03:01.204Z</time></trkpt><trkpt lat="38.04394" lon="15.4599533"><ele>16.0</ele><time>2026-04-28T15:03:02.204Z</time></trkpt><trkpt lat="38.0438" lon="15.459755"><ele>19.666666666666664</ele><time>2026-04-28T15:03:03.204Z</time></trkpt><trkpt lat="38.04366" lon="15.4595583"><ele>23.333333333333332</ele><time>2026-04-28T15:03:04.204Z</time></trkpt><trkpt lat="38.0435133" lon="15.4593633"><ele>27.0</ele><time>2026-04-28T15:03:05.204Z</time></trkpt><trkpt lat="38.0433633" lon="15.4591733"><ele>25.666666666666668</ele><time>2026-04-28T15:03:06.204Z</time></trkpt><trkpt lat="38.043215" lon="15.4589883"><ele>24.333333333333336</ele><time>2026-04-28T15:03:07.204Z</time></trkpt><trkpt lat="38.04306" lon="15.4588083"><ele>23.0</ele><time>2026-04-28T15:03:08.204Z</time></trkpt><trkpt lat="38.04291" lon="15.458625"><ele>23.0</ele><time>2026-04-28T15:03:09.204Z</time></trkpt><trkpt lat="38.042755" lon="15.4584467"><ele>23.0</ele><time>2026-04-28T15:03:10.204Z</time></trkpt><trkpt lat="38.0424833" lon="15.4584167"><ele>22.0</ele><time>2026-04-28T15:03:11.205Z</time></trkpt><trkpt lat="38.0423567" lon="15.4582133"><ele>21.0</ele><time>2026-04-28T15:03:12.204Z</time></trkpt><trkpt lat="38.0422333" lon="15.4579833"><ele>20.0</ele><time>2026-04-28T15:03:13.204Z</time></trkpt><trkpt lat="38.0421017" lon="15.4577667"><ele>20.0</ele><time>2026-04-28T15:03:14.204Z</time></trkpt><trkpt lat="38.041965" lon="15.4575517"><ele>20.0</ele><time>2026-04-28T15:03:15.204Z</time></trkpt><trkpt lat="38.0418317" lon="15.4573433"><ele>20.0</ele><time>2026-04-28T15:03:16.204Z</time></trkpt><trkpt lat="38.04169" lon="15.4571567"><ele>19.666666666666668</ele><time>2026-04-28T15:03:17.204Z</time></trkpt><trkpt lat="38.0415417" lon="15.45697"><ele>19.333333333333332</ele><time>2026-04-28T15:03:18.204Z</time></trkpt><trkpt lat="38.0413933" lon="15.4567833"><ele>19.0</ele><time>2026-04-28T15:03:19.204Z</time></trkpt><trkpt lat="38.04125" lon="15.4565917"><ele>19.0</ele><time>2026-04-28T15:03:20.204Z</time></trkpt><trkpt lat="38.0411033" lon="15.456405"><ele>19.0</ele><time>2026-04-28T15:03:21.205Z</time></trkpt><trkpt lat="38.04096" lon="15.4562117"><ele>19.0</ele><time>2026-04-28T15:03:22.204Z</time></trkpt><trkpt lat="38.0407767" lon="15.456095"><ele>18.666666666666664</ele><time>2026-04-28T15:03:23.205Z</time></trkpt><trkpt lat="38.040625" lon="15.4559017"><ele>18.333333333333332</ele><time>2026-04-28T15:03:24.204Z</time></trkpt><trkpt lat="38.0404817" lon="15.4557067"><ele>18.0</ele><time>2026-04-28T15:03:25.204Z</time></trkpt><trkpt lat="38.0403433" lon="15.4555133"><ele>19.333333333333332</ele><time>2026-04-28T15:03:26.204Z</time></trkpt><trkpt lat="38.0402017" lon="15.455325"><ele>20.666666666666664</ele><time>2026-04-28T15:03:27.204Z</time></trkpt><trkpt lat="38.0400633" lon="15.4551317"><ele>22.0</ele><time>2026-04-28T15:03:28.204Z</time></trkpt><trkpt lat="38.0399233" lon="15.45494"><ele>22.0</ele><time>2026-04-28T15:03:29.205Z</time></trkpt><trkpt lat="38.03978" lon="15.4547483"><ele>22.0</ele><time>2026-04-28T15:03:30.204Z</time></trkpt><trkpt lat="38.0396433" lon="15.4545483"><ele>22.0</ele><time>2026-04-28T15:03:31.204Z</time></trkpt><trkpt lat="38.0394967" lon="15.4543633"><ele>22.333333333333332</ele><time>2026-04-28T15:03:32.204Z</time></trkpt><trkpt lat="38.0393467" lon="15.45418"><ele>22.666666666666668</ele><time>2026-04-28T15:03:33.204Z</time></trkpt><trkpt lat="38.0392017" lon="15.4539917"><ele>23.0</ele><time>2026-04-28T15:03:34.205Z</time></trkpt><trkpt lat="38.0390533" lon="15.4538083"><ele>23.333333333333336</ele><time>2026-04-28T15:03:35.204Z</time></trkpt><trkpt lat="38.0389083" lon="15.4536217"><ele>23.666666666666668</ele><time>2026-04-28T15:03:36.204Z</time></trkpt><trkpt lat="38.0387667" lon="15.4534317"><ele>24.0</ele><time>2026-04-28T15:03:37.204Z</time></trkpt><trkpt lat="38.0386233" lon="15.453245"><ele>24.0</ele><time>2026-04-28T15:03:38.205Z</time></trkpt><trkpt lat="38.0384767" lon="15.4530583"><ele>24.0</ele><time>2026-04-28T15:03:39.204Z</time></trkpt><trkpt lat="38.0383267" lon="15.4528767"><ele>24.0</ele><time>2026-04-28T15:03:40.204Z</time></trkpt><trkpt lat="38.0381717" lon="15.4527017"><ele>24.0</ele><time>2026-04-28T15:03:41.204Z</time></trkpt><trkpt lat="38.0380117" lon="15.4525317"><ele>24.0</ele><time>2026-04-28T15:03:42.204Z</time></trkpt><trkpt lat="38.0378483" lon="15.452365"><ele>24.0</ele><time>2026-04-28T15:03:43.204Z</time></trkpt><trkpt lat="38.0376817" lon="15.452205"><ele>25.333333333333336</ele><time>2026-04-28T15:03:44.205Z</time></trkpt><trkpt lat="38.0375133" lon="15.4520483"><ele>26.666666666666668</ele><time>2026-04-28T15:03:45.204Z</time></trkpt><trkpt lat="38.0373433" lon="15.451895"><ele>28.0</ele><time>2026-04-28T15:03:46.204Z</time></trkpt><trkpt lat="38.03717" lon="15.4517467"><ele>28.0</ele><time>2026-04-28T15:03:47.204Z</time></trkpt><trkpt lat="38.036995" lon="15.4516033"><ele>28.0</ele><time>2026-04-28T15:03:48.205Z</time></trkpt><trkpt lat="38.03682" lon="15.45146"><ele>28.0</ele><time>2026-04-28T15:03:49.204Z</time></trkpt><trkpt lat="38.0366417" lon="15.4513183"><ele>28.666666666666668</ele><time>2026-04-28T15:03:50.204Z</time></trkpt><trkpt lat="38.036465" lon="15.4511767"><ele>29.333333333333336</ele><time>2026-04-28T15:03:51.204Z</time></trkpt><trkpt lat="38.0362883" lon="15.4510333"><ele>30.0</ele><time>2026-04-28T15:03:52.204Z</time></trkpt><trkpt lat="38.0361117" lon="15.45089"><ele>30.0</ele><time>2026-04-28T15:03:53.205Z</time></trkpt><trkpt lat="38.0359383" lon="15.4507433"><ele>30.0</ele><time>2026-04-28T15:03:54.204Z</time></trkpt><trkpt lat="38.0357633" lon="15.4505967"><ele>30.0</ele><time>2026-04-28T15:03:55.205Z</time></trkpt><trkpt lat="38.0355917" lon="15.4504467"><ele>32.0</ele><time>2026-04-28T15:03:56.204Z</time></trkpt><trkpt lat="38.0354217" lon="15.4502933"><ele>34.0</ele><time>2026-04-28T15:03:57.205Z</time></trkpt><trkpt lat="38.0352533" lon="15.4501367"><ele>36.0</ele><time>2026-04-28T15:03:58.204Z</time></trkpt><trkpt lat="38.0350883" lon="15.449975"><ele>33.333333333333336</ele><time>2026-04-28T15:03:59.205Z</time></trkpt><trkpt lat="38.0349217" lon="15.4498083"><ele>30.666666666666668</ele><time>2026-04-28T15:04:00.204Z</time></trkpt><trkpt lat="38.0347533" lon="15.4496433"><ele>28.0</ele><time>2026-04-28T15:04:01.204Z</time></trkpt><trkpt lat="38.0345833" lon="15.449475"><ele>28.0</ele><time>2026-04-28T15:04:02.204Z</time></trkpt><trkpt lat="38.034415" lon="15.44931"><ele>28.0</ele><time>2026-04-28T15:04:03.204Z</time></trkpt><trkpt lat="38.034245" lon="15.4491383"><ele>28.0</ele><time>2026-04-28T15:04:04.204Z</time></trkpt><trkpt lat="38.0340817" lon="15.4489483"><ele>27.333333333333336</ele><time>2026-04-28T15:04:05.204Z</time></trkpt><trkpt lat="38.0339217" lon="15.4487967"><ele>26.666666666666664</ele><time>2026-04-28T15:04:06.204Z</time></trkpt><trkpt lat="38.0337617" lon="15.44864"><ele>26.0</ele><time>2026-04-28T15:04:07.204Z</time></trkpt><trkpt lat="38.0335983" lon="15.4484833"><ele>26.0</ele><time>2026-04-28T15:04:08.204Z</time></trkpt><trkpt lat="38.0334333" lon="15.4483283"><ele>26.0</ele><time>2026-04-28T15:04:09.204Z</time></trkpt><trkpt lat="38.03327" lon="15.44817"><ele>26.0</ele><time>2026-04-28T15:04:10.204Z</time></trkpt><trkpt lat="38.033105" lon="15.4480183"><ele>29.0</ele><time>2026-04-28T15:04:11.204Z</time></trkpt><trkpt lat="38.0329383" lon="15.4478667"><ele>32.0</ele><time>2026-04-28T15:04:12.205Z</time></trkpt><trkpt lat="38.032775" lon="15.4477133"><ele>35.0</ele><time>2026-04-28T15:04:13.204Z</time></trkpt><trkpt lat="38.0326117" lon="15.44756"><ele>37.33333333333333</ele><time>2026-04-28T15:04:14.204Z</time></trkpt><trkpt lat="38.0324467" lon="15.4474067"><ele>39.666666666666664</ele><time>2026-04-28T15:04:15.205Z</time></trkpt><trkpt lat="38.0322783" lon="15.447255"><ele>42.0</ele><time>2026-04-28T15:04:16.205Z</time></trkpt><trkpt lat="38.0321117" lon="15.4471033"><ele>42.0</ele><time>2026-04-28T15:04:17.204Z</time></trkpt><trkpt lat="38.0319417" lon="15.4469517"><ele>42.0</ele><time>2026-04-28T15:04:18.205Z</time></trkpt><trkpt lat="38.0317733" lon="15.4467967"><ele>42.0</ele><time>2026-04-28T15:04:19.204Z</time></trkpt><trkpt lat="38.0316083" lon="15.4466383"><ele>41.0</ele><time>2026-04-28T15:04:20.204Z</time></trkpt><trkpt lat="38.0314433" lon="15.4464783"><ele>40.0</ele><time>2026-04-28T15:04:21.204Z</time></trkpt><trkpt lat="38.0312833" lon="15.4463117"><ele>39.0</ele><time>2026-04-28T15:04:22.204Z</time></trkpt><trkpt lat="38.0311317" lon="15.4461367"><ele>39.0</ele><time>2026-04-28T15:04:23.204Z</time></trkpt><trkpt lat="38.0309833" lon="15.4459533"><ele>39.0</ele><time>2026-04-28T15:04:24.204Z</time></trkpt><trkpt lat="38.0308383" lon="15.4457683"><ele>39.0</ele><time>2026-04-28T15:04:25.204Z</time></trkpt><trkpt lat="38.0306967" lon="15.445575"><ele>38.333333333333336</ele><time>2026-04-28T15:04:26.204Z</time></trkpt><trkpt lat="38.03056" lon="15.445375"><ele>37.66666666666667</ele><time>2026-04-28T15:04:27.205Z</time></trkpt><trkpt lat="38.0304283" lon="15.44517"><ele>37.0</ele><time>2026-04-28T15:04:28.204Z</time></trkpt><trkpt lat="38.0303017" lon="15.44496"><ele>37.0</ele><time>2026-04-28T15:04:29.204Z</time></trkpt><trkpt lat="38.0301767" lon="15.44475"><ele>37.0</ele><time>2026-04-28T15:04:30.204Z</time></trkpt><trkpt lat="38.0300533" lon="15.4445383"><ele>37.0</ele><time>2026-04-28T15:04:31.204Z</time></trkpt><trkpt lat="38.0299333" lon="15.4443233"><ele>34.66666666666667</ele><time>2026-04-28T15:04:32.204Z</time></trkpt><trkpt lat="38.0298117" lon="15.4441083"><ele>32.333333333333336</ele><time>2026-04-28T15:04:33.204Z</time></trkpt><trkpt lat="38.0296867" lon="15.44389"><ele>30.0</ele><time>2026-04-28T15:04:34.205Z</time></trkpt><trkpt lat="38.029555" lon="15.44366"><ele>43.0</ele><time>2026-04-28T15:04:35.204Z</time></trkpt><trkpt lat="38.02942" lon="15.4434233"><ele>56.0</ele><time>2026-04-28T15:04:36.204Z</time></trkpt><trkpt lat="38.029285" lon="15.443185"><ele>54.5</ele><time>2026-04-28T15:04:37.205Z</time></trkpt><trkpt lat="38.0291517" lon="15.4429533"><ele>53.0</ele><time>2026-04-28T15:04:38.204Z</time></trkpt><trkpt lat="38.027266" lon="15.4408641"><ele>53.0</ele><time>2026-04-28T15:04:50.36Z</time></trkpt><trkpt lat="38.0268433" lon="15.4406667"><ele>53.0</ele><time>2026-04-28T15:04:52.204Z</time></trkpt><trkpt lat="38.02667" lon="15.4405817"><ele>53.0</ele><time>2026-04-28T15:04:53.204Z</time></trkpt><trkpt lat="38.0264867" lon="15.4404917"><ele>53.0</ele><time>2026-04-28T15:04:54.204Z</time></trkpt><trkpt lat="38.0262917" lon="15.4403867"><ele>53.66666666666667</ele><time>2026-04-28T15:04:55.204Z</time></trkpt><trkpt lat="38.0261083" lon="15.440285"><ele>54.33333333333333</ele><time>2026-04-28T15:04:56.205Z</time></trkpt><trkpt lat="38.0259233" lon="15.4401767"><ele>55.0</ele><time>2026-04-28T15:04:57.205Z</time></trkpt><trkpt lat="38.0257317" lon="15.4400717"><ele>55.0</ele><time>2026-04-28T15:04:58.204Z</time></trkpt><trkpt lat="38.0255367" lon="15.43997"><ele>55.0</ele><time>2026-04-28T15:04:59.204Z</time></trkpt><trkpt lat="38.0253433" lon="15.4398717"><ele>55.0</ele><time>2026-04-28T15:05:00.205Z</time></trkpt><trkpt lat="38.0251517" lon="15.4397667"><ele>56.0</ele><time>2026-04-28T15:05:01.204Z</time></trkpt><trkpt lat="38.0249567" lon="15.4396683"><ele>57.0</ele><time>2026-04-28T15:05:02.204Z</time></trkpt><trkpt lat="38.0247583" lon="15.4395717"><ele>58.0</ele><time>2026-04-28T15:05:03.204Z</time></trkpt><trkpt lat="38.02457" lon="15.4394717"><ele>58.0</ele><time>2026-04-28T15:05:04.204Z</time></trkpt><trkpt lat="38.0243783" lon="15.4393767"><ele>58.0</ele><time>2026-04-28T15:05:05.204Z</time></trkpt><trkpt lat="38.0241867" lon="15.4392783"><ele>58.0</ele><time>2026-04-28T15:05:06.204Z</time></trkpt><trkpt lat="38.0239933" lon="15.4391783"><ele>68.66666666666666</ele><time>2026-04-28T15:05:07.205Z</time></trkpt><trkpt lat="38.0237983" lon="15.43908"><ele>79.33333333333333</ele><time>2026-04-28T15:05:08.204Z</time></trkpt><trkpt lat="38.0236017" lon="15.4389883"><ele>90.0</ele><time>2026-04-28T15:05:09.204Z</time></trkpt><trkpt lat="38.023405" lon="15.4388983"><ele>85.66666666666667</ele><time>2026-04-28T15:05:10.204Z</time></trkpt><trkpt lat="38.0232067" lon="15.438805"><ele>81.33333333333334</ele><time>2026-04-28T15:05:11.204Z</time></trkpt><trkpt lat="38.0230067" lon="15.4387117"><ele>77.0</ele><time>2026-04-28T15:05:12.204Z</time></trkpt><trkpt lat="38.0170333" lon="15.4344983"><ele>77.0</ele><time>2026-04-28T15:05:45.205Z</time></trkpt><trkpt lat="38.0168967" lon="15.434425"><ele>77.0</ele><time>2026-04-28T15:05:46.206Z</time></trkpt><trkpt lat="38.0167483" lon="15.4342633"><ele>77.0</ele><time>2026-04-28T15:05:47.206Z</time></trkpt><trkpt lat="38.0165967" lon="15.4340967"><ele>86.66666666666667</ele><time>2026-04-28T15:05:48.205Z</time></trkpt><trkpt lat="38.0164467" lon="15.43392"><ele>96.33333333333334</ele><time>2026-04-28T15:05:49.205Z</time></trkpt><trkpt lat="38.016295" lon="15.4337367"><ele>106.0</ele><time>2026-04-28T15:05:50.205Z</time></trkpt><trkpt lat="38.016145" lon="15.433555"><ele>114.5</ele><time>2026-04-28T15:05:51.205Z</time></trkpt><trkpt lat="38.0159917" lon="15.4333733"><ele>123.0</ele><time>2026-04-28T15:05:52.206Z</time></trkpt><trkpt lat="38.0136583" lon="15.4293617"><ele>103.33333333333333</ele><time>2026-04-28T15:06:10.204Z</time></trkpt><trkpt lat="38.0134983" lon="15.4291867"><ele>83.66666666666666</ele><time>2026-04-28T15:06:11.205Z</time></trkpt><trkpt lat="38.0133517" lon="15.428965"><ele>64.0</ele><time>2026-04-28T15:06:12.204Z</time></trkpt><trkpt lat="38.0131917" lon="15.4287333"><ele>60.5</ele><time>2026-04-28T15:06:13.204Z</time></trkpt><trkpt lat="38.0130217" lon="15.4284917"><ele>57.0</ele><time>2026-04-28T15:06:14.204Z</time></trkpt><trkpt lat="38.012835" lon="15.4282583"><ele>57.0</ele><time>2026-04-28T15:06:15.204Z</time></trkpt><trkpt lat="38.0126567" lon="15.4280367"><ele>57.0</ele><time>2026-04-28T15:06:16.205Z</time></trkpt><trkpt lat="38.0124617" lon="15.4278133"><ele>70.0</ele><time>2026-04-28T15:06:17.204Z</time></trkpt><trkpt lat="38.012265" lon="15.4275983"><ele>83.0</ele><time>2026-04-28T15:06:18.204Z</time></trkpt><trkpt lat="38.0120633" lon="15.4273817"><ele>83.0</ele><time>2026-04-28T15:06:19.204Z</time></trkpt><trkpt lat="38.0118667" lon="15.4271667"><ele>83.0</ele><time>2026-04-28T15:06:20.204Z</time></trkpt><trkpt lat="38.01168" lon="15.4269533"><ele>78.5</ele><time>2026-04-28T15:06:21.204Z</time></trkpt><trkpt lat="38.0114917" lon="15.4267433"><ele>74.0</ele><time>2026-04-28T15:06:22.205Z</time></trkpt><trkpt lat="38.011305" lon="15.4265317"><ele>74.0</ele><time>2026-04-28T15:06:23.204Z</time></trkpt><trkpt lat="38.0111167" lon="15.4263217"><ele>74.0</ele><time>2026-04-28T15:06:24.204Z</time></trkpt><trkpt lat="38.010835" lon="15.4260983"><ele>67.5</ele><time>2026-04-28T15:06:25.204Z</time></trkpt><trkpt lat="38.01062" lon="15.4259217"><ele>61.0</ele><time>2026-04-28T15:06:26.205Z</time></trkpt><trkpt lat="38.0104067" lon="15.4257183"><ele>61.0</ele><time>2026-04-28T15:06:27.204Z</time></trkpt><trkpt lat="38.0101133" lon="15.4254833"><ele>61.0</ele><time>2026-04-28T15:06:28.204Z</time></trkpt><trkpt lat="38.0098417" lon="15.4252917"><ele>45.5</ele><time>2026-04-28T15:06:29.204Z</time></trkpt><trkpt lat="38.0095917" lon="15.42509"><ele>30.0</ele><time>2026-04-28T15:06:30.204Z</time></trkpt><trkpt lat="38.009365" lon="15.4248833"><ele>30.0</ele><time>2026-04-28T15:06:31.204Z</time></trkpt><trkpt lat="38.0091417" lon="15.4246733"><ele>30.0</ele><time>2026-04-28T15:06:32.204Z</time></trkpt><trkpt lat="38.0089183" lon="15.42447"><ele>30.0</ele><time>2026-04-28T15:06:33.204Z</time></trkpt><trkpt lat="38.008695" lon="15.424255"><ele>30.0</ele><time>2026-04-28T15:06:34.204Z</time></trkpt><trkpt lat="38.0084717" lon="15.4240433"><ele>28.0</ele><time>2026-04-28T15:06:35.204Z</time></trkpt><trkpt lat="38.0082483" lon="15.4238267"><ele>26.0</ele><time>2026-04-28T15:06:36.204Z</time></trkpt><trkpt lat="38.0080267" lon="15.4236067"><ele>31.5</ele><time>2026-04-28T15:06:37.204Z</time></trkpt><trkpt lat="38.0078067" lon="15.4233867"><ele>37.0</ele><time>2026-04-28T15:06:38.204Z</time></trkpt><trkpt lat="38.007585" lon="15.42317"><ele>42.0</ele><time>2026-04-28T15:06:39.204Z</time></trkpt><trkpt lat="38.0073633" lon="15.4229583"><ele>47.0</ele><time>2026-04-28T15:06:40.204Z</time></trkpt><trkpt lat="38.00714" lon="15.422755"><ele>47.0</ele><time>2026-04-28T15:06:41.204Z</time></trkpt><trkpt lat="38.0069183" lon="15.4225567"><ele>47.0</ele><time>2026-04-28T15:06:42.204Z</time></trkpt><trkpt lat="38.0066883" lon="15.4223617"><ele>38.5</ele><time>2026-04-28T15:06:43.204Z</time></trkpt><trkpt lat="38.0064583" lon="15.422175"><ele>30.0</ele><time>2026-04-28T15:06:44.205Z</time></trkpt><trkpt lat="38.0062233" lon="15.4220083"><ele>28.5</ele><time>2026-04-28T15:06:45.204Z</time></trkpt><trkpt lat="38.0059833" lon="15.421845"><ele>27.0</ele><time>2026-04-28T15:06:46.204Z</time></trkpt><trkpt lat="38.0057433" lon="15.4216917"><ele>23.0</ele><time>2026-04-28T15:06:47.204Z</time></trkpt><trkpt lat="38.0055033" lon="15.4215433"><ele>19.0</ele><time>2026-04-28T15:06:48.204Z</time></trkpt><trkpt lat="38.0052717" lon="15.421405"><ele>20.5</ele><time>2026-04-28T15:06:49.204Z</time></trkpt><trkpt lat="38.0050433" lon="15.421265"><ele>22.0</ele><time>2026-04-28T15:06:50.204Z</time></trkpt><trkpt lat="38.0048217" lon="15.4211283"><ele>27.5</ele><time>2026-04-28T15:06:51.204Z</time></trkpt><trkpt lat="38.0046017" lon="15.4209917"><ele>33.0</ele><time>2026-04-28T15:06:52.204Z</time></trkpt><trkpt lat="38.00438" lon="15.42086"><ele>33.0</ele><time>2026-04-28T15:06:53.204Z</time></trkpt><trkpt lat="38.0041583" lon="15.4207283"><ele>33.0</ele><time>2026-04-28T15:06:54.204Z</time></trkpt><trkpt lat="38.0039383" lon="15.4206017"><ele>40.0</ele><time>2026-04-28T15:06:55.204Z</time></trkpt><trkpt lat="38.0037233" lon="15.420465"><ele>47.0</ele><time>2026-04-28T15:06:56.204Z</time></trkpt><trkpt lat="38.0035067" lon="15.4203367"><ele>40.0</ele><time>2026-04-28T15:06:57.205Z</time></trkpt><trkpt lat="38.0032917" lon="15.4202"><ele>33.0</ele><time>2026-04-28T15:06:58.204Z</time></trkpt><trkpt lat="38.0030817" lon="15.4200517"><ele>33.0</ele><time>2026-04-28T15:06:59.205Z</time></trkpt><trkpt lat="38.00287" lon="15.4198917"><ele>33.0</ele><time>2026-04-28T15:07:00.205Z</time></trkpt><trkpt lat="38.00266" lon="15.4197167"><ele>31.5</ele><time>2026-04-28T15:07:01.204Z</time></trkpt><trkpt lat="38.0024567" lon="15.4195333"><ele>30.0</ele><time>2026-04-28T15:07:02.204Z</time></trkpt><trkpt lat="38.002265" lon="15.419325"><ele>30.0</ele><time>2026-04-28T15:07:03.205Z</time></trkpt><trkpt lat="38.0020767" lon="15.419105"><ele>30.0</ele><time>2026-04-28T15:07:04.204Z</time></trkpt><trkpt lat="38.001905" lon="15.4188783"><ele>26.5</ele><time>2026-04-28T15:07:05.204Z</time></trkpt><trkpt lat="38.0017533" lon="15.41864"><ele>23.0</ele><time>2026-04-28T15:07:06.205Z</time></trkpt><trkpt lat="38.0016117" lon="15.4184017"><ele>23.0</ele><time>2026-04-28T15:07:07.204Z</time></trkpt><trkpt lat="38.0014833" lon="15.4181533"><ele>23.0</ele><time>2026-04-28T15:07:08.204Z</time></trkpt><trkpt lat="38.0013617" lon="15.4178967"><ele>25.5</ele><time>2026-04-28T15:07:09.204Z</time></trkpt><trkpt lat="38.00125" lon="15.41762"><ele>28.0</ele><time>2026-04-28T15:07:10.204Z</time></trkpt><trkpt lat="38.0011417" lon="15.417325"><ele>29.5</ele><time>2026-04-28T15:07:11.204Z</time></trkpt><trkpt lat="38.0010333" lon="15.4170317"><ele>31.0</ele><time>2026-04-28T15:07:12.204Z</time></trkpt><trkpt lat="38.00094" lon="15.4167333"><ele>31.0</ele><time>2026-04-28T15:07:13.204Z</time></trkpt><trkpt lat="38.000835" lon="15.4164317"><ele>31.0</ele><time>2026-04-28T15:07:14.204Z</time></trkpt><trkpt lat="38.0007267" lon="15.4161333"><ele>25.0</ele><time>2026-04-28T15:07:15.204Z</time></trkpt><trkpt lat="38.0006233" lon="15.4158383"><ele>19.0</ele><time>2026-04-28T15:07:16.204Z</time></trkpt><trkpt lat="38.000505" lon="15.4155383"><ele>20.5</ele><time>2026-04-28T15:07:17.204Z</time></trkpt><trkpt lat="38.0003783" lon="15.4152433"><ele>22.0</ele><time>2026-04-28T15:07:18.205Z</time></trkpt><trkpt lat="38.0002417" lon="15.4149533"><ele>22.0</ele><time>2026-04-28T15:07:19.204Z</time></trkpt><trkpt lat="38.0001033" lon="15.4146767"><ele>22.0</ele><time>2026-04-28T15:07:20.204Z</time></trkpt><trkpt lat="37.9999567" lon="15.4144017"><ele>21.5</ele><time>2026-04-28T15:07:21.205Z</time></trkpt><trkpt lat="37.99981" lon="15.4141483"><ele>21.0</ele><time>2026-04-28T15:07:22.204Z</time></trkpt><trkpt lat="37.9996533" lon="15.413905"><ele>20.0</ele><time>2026-04-28T15:07:23.204Z</time></trkpt><trkpt lat="37.9994883" lon="15.4136683"><ele>19.0</ele><time>2026-04-28T15:07:24.205Z</time></trkpt><trkpt lat="37.999315" lon="15.4134417"><ele>19.5</ele><time>2026-04-28T15:07:25.204Z</time></trkpt><trkpt lat="37.9991383" lon="15.4132217"><ele>20.0</ele><time>2026-04-28T15:07:26.205Z</time></trkpt><trkpt lat="37.9989667" lon="15.4130133"><ele>20.5</ele><time>2026-04-28T15:07:27.204Z</time></trkpt><trkpt lat="37.998785" lon="15.412805"><ele>21.0</ele><time>2026-04-28T15:07:28.204Z</time></trkpt><trkpt lat="37.9986017" lon="15.4126183"><ele>21.0</ele><time>2026-04-28T15:07:29.204Z</time></trkpt><trkpt lat="37.9984067" lon="15.4124383"><ele>21.0</ele><time>2026-04-28T15:07:30.204Z</time></trkpt><trkpt lat="37.9982067" lon="15.4122633"><ele>20.5</ele><time>2026-04-28T15:07:31.205Z</time></trkpt><trkpt lat="37.9980083" lon="15.4121"><ele>20.0</ele><time>2026-04-28T15:07:32.204Z</time></trkpt><trkpt lat="37.9977967" lon="15.4119433"><ele>20.0</ele><time>2026-04-28T15:07:33.205Z</time></trkpt><trkpt lat="37.99758" lon="15.4117933"><ele>20.0</ele><time>2026-04-28T15:07:34.204Z</time></trkpt><trkpt lat="37.99736" lon="15.4116567"><ele>21.0</ele><time>2026-04-28T15:07:35.204Z</time></trkpt><trkpt lat="37.997135" lon="15.4115233"><ele>22.0</ele><time>2026-04-28T15:07:36.204Z</time></trkpt><trkpt lat="37.9969" lon="15.4113967"><ele>21.5</ele><time>2026-04-28T15:07:37.204Z</time></trkpt><trkpt lat="37.996665" lon="15.4112917"><ele>21.0</ele><time>2026-04-28T15:07:38.204Z</time></trkpt><trkpt lat="37.9964317" lon="15.4111933"><ele>21.0</ele><time>2026-04-28T15:07:39.204Z</time></trkpt><trkpt lat="37.996195" lon="15.411105"><ele>21.0</ele><time>2026-04-28T15:07:40.204Z</time></trkpt><trkpt lat="37.9959617" lon="15.4110283"><ele>22.0</ele><time>2026-04-28T15:07:41.204Z</time></trkpt><trkpt lat="37.995725" lon="15.410965"><ele>23.0</ele><time>2026-04-28T15:07:42.204Z</time></trkpt><trkpt lat="37.99549" lon="15.4109167"><ele>23.0</ele><time>2026-04-28T15:07:43.204Z</time></trkpt><trkpt lat="37.9952533" lon="15.4108683"><ele>23.0</ele><time>2026-04-28T15:07:44.204Z</time></trkpt><trkpt lat="37.99502" lon="15.4108233"><ele>24.0</ele><time>2026-04-28T15:07:45.205Z</time></trkpt><trkpt lat="37.994795" lon="15.4107833"><ele>25.0</ele><time>2026-04-28T15:07:46.204Z</time></trkpt><trkpt lat="37.9945667" lon="15.4107417"><ele>25.0</ele><time>2026-04-28T15:07:47.204Z</time></trkpt><trkpt lat="37.9943417" lon="15.4106983"><ele>25.0</ele><time>2026-04-28T15:07:48.204Z</time></trkpt><trkpt lat="37.9941167" lon="15.4106467"><ele>25.5</ele><time>2026-04-28T15:07:49.204Z</time></trkpt><trkpt lat="37.99389" lon="15.4105817"><ele>26.0</ele><time>2026-04-28T15:07:50.204Z</time></trkpt><trkpt lat="37.993665" lon="15.4105067"><ele>27.666666666666664</ele><time>2026-04-28T15:07:51.204Z</time></trkpt><trkpt lat="37.9934533" lon="15.4104183"><ele>29.333333333333336</ele><time>2026-04-28T15:07:52.204Z</time></trkpt><trkpt lat="37.9932617" lon="15.410325"><ele>31.0</ele><time>2026-04-28T15:07:53.205Z</time></trkpt><trkpt lat="37.9930733" lon="15.4102183"><ele>32.0</ele><time>2026-04-28T15:07:54.204Z</time></trkpt><trkpt lat="37.9928867" lon="15.4101033"><ele>33.0</ele><time>2026-04-28T15:07:55.204Z</time></trkpt><trkpt lat="37.9927033" lon="15.4099817"><ele>34.0</ele><time>2026-04-28T15:07:56.204Z</time></trkpt><trkpt lat="37.99252" lon="15.4098483"><ele>33.0</ele><time>2026-04-28T15:07:57.204Z</time></trkpt><trkpt lat="37.9923283" lon="15.4096967"><ele>32.0</ele><time>2026-04-28T15:07:58.204Z</time></trkpt><trkpt lat="37.9921433" lon="15.4095267"><ele>40.0</ele><time>2026-04-28T15:07:59.204Z</time></trkpt><trkpt lat="37.99196" lon="15.4093483"><ele>48.0</ele><time>2026-04-28T15:08:00.204Z</time></trkpt><trkpt lat="37.9917883" lon="15.409155"><ele>46.5</ele><time>2026-04-28T15:08:01.205Z</time></trkpt><trkpt lat="37.991615" lon="15.40894"><ele>45.0</ele><time>2026-04-28T15:08:02.204Z</time></trkpt><trkpt lat="37.99145" lon="15.4087167"><ele>45.0</ele><time>2026-04-28T15:08:03.204Z</time></trkpt><trkpt lat="37.99129" lon="15.408485"><ele>45.0</ele><time>2026-04-28T15:08:04.204Z</time></trkpt><trkpt lat="37.9911367" lon="15.408245"><ele>45.0</ele><time>2026-04-28T15:08:05.204Z</time></trkpt><trkpt lat="37.9909783" lon="15.4079983"><ele>45.0</ele><time>2026-04-28T15:08:06.204Z</time></trkpt><trkpt lat="37.9908133" lon="15.4077533"><ele>38.0</ele><time>2026-04-28T15:08:07.204Z</time></trkpt><trkpt lat="37.9906517" lon="15.4075017"><ele>31.0</ele><time>2026-04-28T15:08:08.204Z</time></trkpt><trkpt lat="37.9904883" lon="15.4072567"><ele>31.5</ele><time>2026-04-28T15:08:09.204Z</time></trkpt><trkpt lat="37.9903267" lon="15.4070167"><ele>32.0</ele><time>2026-04-28T15:08:10.204Z</time></trkpt><trkpt lat="37.990165" lon="15.4067783"><ele>34.0</ele><time>2026-04-28T15:08:11.205Z</time></trkpt><trkpt lat="37.990005" lon="15.40655"><ele>36.0</ele><time>2026-04-28T15:08:12.204Z</time></trkpt><trkpt lat="37.989835" lon="15.4063283"><ele>42.0</ele><time>2026-04-28T15:08:13.205Z</time></trkpt><trkpt lat="37.9896567" lon="15.4061133"><ele>48.0</ele><time>2026-04-28T15:08:14.204Z</time></trkpt><trkpt lat="37.9894633" lon="15.4059083"><ele>48.0</ele><time>2026-04-28T15:08:15.204Z</time></trkpt><trkpt lat="37.9892583" lon="15.40571"><ele>48.0</ele><time>2026-04-28T15:08:16.205Z</time></trkpt><trkpt lat="37.9890533" lon="15.4055233"><ele>56.5</ele><time>2026-04-28T15:08:17.204Z</time></trkpt><trkpt lat="37.9888417" lon="15.405345"><ele>65.0</ele><time>2026-04-28T15:08:18.204Z</time></trkpt><trkpt lat="37.9886283" lon="15.4051667"><ele>65.0</ele><time>2026-04-28T15:08:19.204Z</time></trkpt><trkpt lat="37.9884083" lon="15.404995"><ele>65.0</ele><time>2026-04-28T15:08:20.204Z</time></trkpt><trkpt lat="37.9882017" lon="15.4048"><ele>58.5</ele><time>2026-04-28T15:08:21.204Z</time></trkpt><trkpt lat="37.987985" lon="15.40461"><ele>52.0</ele><time>2026-04-28T15:08:22.204Z</time></trkpt><trkpt lat="37.9877667" lon="15.40442"><ele>52.0</ele><time>2026-04-28T15:08:23.204Z</time></trkpt><trkpt lat="37.9875567" lon="15.4042317"><ele>52.0</ele><time>2026-04-28T15:08:24.204Z</time></trkpt><trkpt lat="37.9873417" lon="15.4040483"><ele>51.0</ele><time>2026-04-28T15:08:25.205Z</time></trkpt><trkpt lat="37.98712" lon="15.403855"><ele>50.0</ele><time>2026-04-28T15:08:26.204Z</time></trkpt><trkpt lat="37.986895" lon="15.4036617"><ele>45.0</ele><time>2026-04-28T15:08:27.204Z</time></trkpt><trkpt lat="37.9866683" lon="15.4034667"><ele>40.0</ele><time>2026-04-28T15:08:28.204Z</time></trkpt><trkpt lat="37.9864417" lon="15.40327"><ele>40.0</ele><time>2026-04-28T15:08:29.204Z</time></trkpt><trkpt lat="37.9862133" lon="15.4030783"><ele>40.0</ele><time>2026-04-28T15:08:30.204Z</time></trkpt><trkpt lat="37.9859917" lon="15.4028817"><ele>38.5</ele><time>2026-04-28T15:08:31.204Z</time></trkpt><trkpt lat="37.98577" lon="15.40269"><ele>37.0</ele><time>2026-04-28T15:08:32.204Z</time></trkpt><trkpt lat="37.9855533" lon="15.40249"><ele>37.0</ele><time>2026-04-28T15:08:33.204Z</time></trkpt><trkpt lat="37.9853367" lon="15.402295"><ele>37.0</ele><time>2026-04-28T15:08:34.205Z</time></trkpt><trkpt lat="37.9851217" lon="15.4021017"><ele>37.5</ele><time>2026-04-28T15:08:35.204Z</time></trkpt><trkpt lat="37.9849083" lon="15.401905"><ele>38.0</ele><time>2026-04-28T15:08:36.205Z</time></trkpt><trkpt lat="37.984695" lon="15.40171"><ele>38.0</ele><time>2026-04-28T15:08:37.204Z</time></trkpt><trkpt lat="37.9844883" lon="15.4015067"><ele>38.0</ele><time>2026-04-28T15:08:38.204Z</time></trkpt><trkpt lat="37.9842833" lon="15.4012983"><ele>40.5</ele><time>2026-04-28T15:08:39.204Z</time></trkpt><trkpt lat="37.9840883" lon="15.4010767"><ele>43.0</ele><time>2026-04-28T15:08:40.204Z</time></trkpt><trkpt lat="37.9839033" lon="15.4008567"><ele>43.0</ele><time>2026-04-28T15:08:41.204Z</time></trkpt><trkpt lat="37.9837267" lon="15.40063"><ele>43.0</ele><time>2026-04-28T15:08:42.204Z</time></trkpt><trkpt lat="37.9835417" lon="15.4004167"><ele>41.5</ele><time>2026-04-28T15:08:43.204Z</time></trkpt><trkpt lat="37.9833633" lon="15.4001883"><ele>40.0</ele><time>2026-04-28T15:08:44.204Z</time></trkpt><trkpt lat="37.9831917" lon="15.3999667"><ele>33.0</ele><time>2026-04-28T15:08:45.204Z</time></trkpt><trkpt lat="37.9830133" lon="15.3997433"><ele>26.0</ele><time>2026-04-28T15:08:46.205Z</time></trkpt><trkpt lat="37.9828283" lon="15.399525"><ele>26.0</ele><time>2026-04-28T15:08:47.204Z</time></trkpt><trkpt lat="37.9826367" lon="15.3993033"><ele>26.0</ele><time>2026-04-28T15:08:48.204Z</time></trkpt><trkpt lat="37.9824417" lon="15.3990933"><ele>25.0</ele><time>2026-04-28T15:08:49.204Z</time></trkpt><trkpt lat="37.982235" lon="15.3988883"><ele>24.0</ele><time>2026-04-28T15:08:50.204Z</time></trkpt><trkpt lat="37.9820217" lon="15.39868"><ele>24.0</ele><time>2026-04-28T15:08:51.204Z</time></trkpt><trkpt lat="37.9818067" lon="15.398485"><ele>24.0</ele><time>2026-04-28T15:08:52.205Z</time></trkpt><trkpt lat="37.981585" lon="15.3982983"><ele>23.0</ele><time>2026-04-28T15:08:53.204Z</time></trkpt><trkpt lat="37.9813583" lon="15.3981167"><ele>22.0</ele><time>2026-04-28T15:08:54.204Z</time></trkpt><trkpt lat="37.9811317" lon="15.3979483"><ele>22.0</ele><time>2026-04-28T15:08:55.204Z</time></trkpt><trkpt lat="37.9809" lon="15.3977733"><ele>22.0</ele><time>2026-04-28T15:08:56.204Z</time></trkpt><trkpt lat="37.9806667" lon="15.3976033"><ele>20.5</ele><time>2026-04-28T15:08:57.204Z</time></trkpt><trkpt lat="37.9804283" lon="15.397435"><ele>19.0</ele><time>2026-04-28T15:08:58.204Z</time></trkpt><trkpt lat="37.9801933" lon="15.3972683"><ele>20.5</ele><time>2026-04-28T15:08:59.204Z</time></trkpt><trkpt lat="37.9799633" lon="15.3970983"><ele>22.0</ele><time>2026-04-28T15:09:00.204Z</time></trkpt><trkpt lat="37.9797383" lon="15.39692"><ele>22.0</ele><time>2026-04-28T15:09:01.204Z</time></trkpt><trkpt lat="37.97951" lon="15.3967383"><ele>22.0</ele><time>2026-04-28T15:09:02.204Z</time></trkpt><trkpt lat="37.9792833" lon="15.396545"><ele>23.0</ele><time>2026-04-28T15:09:03.204Z</time></trkpt><trkpt lat="37.9790583" lon="15.39634"><ele>24.0</ele><time>2026-04-28T15:09:04.204Z</time></trkpt><trkpt lat="37.9788417" lon="15.39612"><ele>26.5</ele><time>2026-04-28T15:09:05.204Z</time></trkpt><trkpt lat="37.9786283" lon="15.3958883"><ele>29.0</ele><time>2026-04-28T15:09:06.204Z</time></trkpt><trkpt lat="37.9784267" lon="15.3956583"><ele>38.5</ele><time>2026-04-28T15:09:07.204Z</time></trkpt><trkpt lat="37.9782217" lon="15.3954083"><ele>48.0</ele><time>2026-04-28T15:09:08.204Z</time></trkpt><trkpt lat="37.9780217" lon="15.3951617"><ele>48.0</ele><time>2026-04-28T15:09:09.204Z</time></trkpt><trkpt lat="37.9778183" lon="15.3949133"><ele>48.0</ele><time>2026-04-28T15:09:10.204Z</time></trkpt><trkpt lat="37.9776033" lon="15.3946517"><ele>48.5</ele><time>2026-04-28T15:09:11.204Z</time></trkpt><trkpt lat="37.9773917" lon="15.3943933"><ele>49.0</ele><time>2026-04-28T15:09:12.205Z</time></trkpt><trkpt lat="37.97719" lon="15.394135"><ele>49.0</ele><time>2026-04-28T15:09:13.204Z</time></trkpt><trkpt lat="37.9769817" lon="15.3938833"><ele>49.0</ele><time>2026-04-28T15:09:14.204Z</time></trkpt><trkpt lat="37.976785" lon="15.3936317"><ele>45.0</ele><time>2026-04-28T15:09:15.205Z</time></trkpt><trkpt lat="37.9765767" lon="15.3933983"><ele>41.0</ele><time>2026-04-28T15:09:16.204Z</time></trkpt><trkpt lat="37.9763567" lon="15.3931717"><ele>47.0</ele><time>2026-04-28T15:09:17.204Z</time></trkpt><trkpt lat="37.97613" lon="15.3929433"><ele>53.0</ele><time>2026-04-28T15:09:18.204Z</time></trkpt><trkpt lat="37.9759033" lon="15.392725"><ele>47.5</ele><time>2026-04-28T15:09:19.204Z</time></trkpt><trkpt lat="37.9756733" lon="15.3925117"><ele>42.0</ele><time>2026-04-28T15:09:20.204Z</time></trkpt><trkpt lat="37.975445" lon="15.392305"><ele>46.0</ele><time>2026-04-28T15:09:21.204Z</time></trkpt><trkpt lat="37.9752133" lon="15.3921133"><ele>50.0</ele><time>2026-04-28T15:09:22.205Z</time></trkpt><trkpt lat="37.9749783" lon="15.3919233"><ele>50.0</ele><time>2026-04-28T15:09:23.204Z</time></trkpt><trkpt lat="37.9747433" lon="15.3917317"><ele>50.0</ele><time>2026-04-28T15:09:24.204Z</time></trkpt><trkpt lat="37.9745133" lon="15.3915367"><ele>49.0</ele><time>2026-04-28T15:09:25.205Z</time></trkpt><trkpt lat="37.9742833" lon="15.39133"><ele>48.0</ele><time>2026-04-28T15:09:26.204Z</time></trkpt><trkpt lat="37.974055" lon="15.3911267"><ele>48.0</ele><time>2026-04-28T15:09:27.204Z</time></trkpt><trkpt lat="37.9738267" lon="15.3909267"><ele>48.0</ele><time>2026-04-28T15:09:28.204Z</time></trkpt><trkpt lat="37.9735933" lon="15.390715"><ele>50.5</ele><time>2026-04-28T15:09:29.204Z</time></trkpt><trkpt lat="37.973365" lon="15.390485"><ele>53.0</ele><time>2026-04-28T15:09:30.205Z</time></trkpt><trkpt lat="37.9731467" lon="15.3902433"><ele>48.0</ele><time>2026-04-28T15:09:31.205Z</time></trkpt><trkpt lat="37.9729283" lon="15.3899967"><ele>43.0</ele><time>2026-04-28T15:09:32.204Z</time></trkpt><trkpt lat="37.9727183" lon="15.3897417"><ele>42.0</ele><time>2026-04-28T15:09:33.204Z</time></trkpt><trkpt lat="37.9725233" lon="15.3894833"><ele>41.0</ele><time>2026-04-28T15:09:34.204Z</time></trkpt><trkpt lat="37.97234" lon="15.389215"><ele>41.0</ele><time>2026-04-28T15:09:35.204Z</time></trkpt><trkpt lat="37.9721667" lon="15.3889333"><ele>41.0</ele><time>2026-04-28T15:09:36.204Z</time></trkpt><trkpt lat="37.972" lon="15.3886383"><ele>45.0</ele><time>2026-04-28T15:09:37.204Z</time></trkpt><trkpt lat="37.9718483" lon="15.388345"><ele>49.0</ele><time>2026-04-28T15:09:38.204Z</time></trkpt><trkpt lat="37.9716933" lon="15.3880433"><ele>47.5</ele><time>2026-04-28T15:09:39.204Z</time></trkpt><trkpt lat="37.9715483" lon="15.38774"><ele>46.0</ele><time>2026-04-28T15:09:40.204Z</time></trkpt><trkpt lat="37.9714033" lon="15.387435"><ele>49.5</ele><time>2026-04-28T15:09:41.204Z</time></trkpt><trkpt lat="37.97126" lon="15.3871283"><ele>53.0</ele><time>2026-04-28T15:09:42.205Z</time></trkpt><trkpt lat="37.9711133" lon="15.3868283"><ele>53.0</ele><time>2026-04-28T15:09:43.204Z</time></trkpt><trkpt lat="37.9709633" lon="15.3865417"><ele>53.0</ele><time>2026-04-28T15:09:44.204Z</time></trkpt><trkpt lat="37.9708067" lon="15.386245"><ele>43.0</ele><time>2026-04-28T15:09:45.204Z</time></trkpt><trkpt lat="37.9706467" lon="15.3859667"><ele>33.0</ele><time>2026-04-28T15:09:46.204Z</time></trkpt><trkpt lat="37.9704783" lon="15.3856967"><ele>32.5</ele><time>2026-04-28T15:09:47.204Z</time></trkpt><trkpt lat="37.9703" lon="15.385435"><ele>32.0</ele><time>2026-04-28T15:09:48.204Z</time></trkpt><trkpt lat="37.9701083" lon="15.38518"><ele>31.0</ele><time>2026-04-28T15:09:49.204Z</time></trkpt><trkpt lat="37.9699283" lon="15.38494"><ele>30.0</ele><time>2026-04-28T15:09:50.204Z</time></trkpt><trkpt lat="37.9697317" lon="15.3847033"><ele>31.0</ele><time>2026-04-28T15:09:51.204Z</time></trkpt><trkpt lat="37.9695333" lon="15.3844833"><ele>32.0</ele><time>2026-04-28T15:09:52.204Z</time></trkpt><trkpt lat="37.969325" lon="15.3842683"><ele>31.0</ele><time>2026-04-28T15:09:53.204Z</time></trkpt><trkpt lat="37.9691117" lon="15.3840633"><ele>30.0</ele><time>2026-04-28T15:09:54.204Z</time></trkpt><trkpt lat="37.9688967" lon="15.3838717"><ele>32.0</ele><time>2026-04-28T15:09:55.204Z</time></trkpt><trkpt lat="37.96867" lon="15.383685"><ele>34.0</ele><time>2026-04-28T15:09:56.204Z</time></trkpt><trkpt lat="37.9684417" lon="15.3835133"><ele>32.5</ele><time>2026-04-28T15:09:57.204Z</time></trkpt><trkpt lat="37.96821" lon="15.38334"><ele>31.0</ele><time>2026-04-28T15:09:58.204Z</time></trkpt><trkpt lat="37.967975" lon="15.3831733"><ele>31.0</ele><time>2026-04-28T15:09:59.205Z</time></trkpt><trkpt lat="37.9677433" lon="15.383015"><ele>31.0</ele><time>2026-04-28T15:10:00.204Z</time></trkpt><trkpt lat="37.9675117" lon="15.3828567"><ele>31.0</ele><time>2026-04-28T15:10:01.204Z</time></trkpt><trkpt lat="37.9672833" lon="15.3826967"><ele>31.0</ele><time>2026-04-28T15:10:02.204Z</time></trkpt><trkpt lat="37.9670533" lon="15.3825367"><ele>31.0</ele><time>2026-04-28T15:10:03.205Z</time></trkpt><trkpt lat="37.96683" lon="15.3823783"><ele>31.0</ele><time>2026-04-28T15:10:04.204Z</time></trkpt><trkpt lat="37.9666" lon="15.3822183"><ele>30.5</ele><time>2026-04-28T15:10:05.204Z</time></trkpt><trkpt lat="37.96637" lon="15.3820567"><ele>30.0</ele><time>2026-04-28T15:10:06.204Z</time></trkpt><trkpt lat="37.9661367" lon="15.3818967"><ele>30.0</ele><time>2026-04-28T15:10:07.204Z</time></trkpt><trkpt lat="37.9659067" lon="15.38174"><ele>30.0</ele><time>2026-04-28T15:10:08.204Z</time></trkpt><trkpt lat="37.9656683" lon="15.3815783"><ele>30.5</ele><time>2026-04-28T15:10:09.204Z</time></trkpt><trkpt lat="37.9654367" lon="15.3814217"><ele>31.0</ele><time>2026-04-28T15:10:10.205Z</time></trkpt><trkpt lat="37.965205" lon="15.38126"><ele>37.0</ele><time>2026-04-28T15:10:11.204Z</time></trkpt><trkpt lat="37.9649717" lon="15.3811017"><ele>43.0</ele><time>2026-04-28T15:10:12.204Z</time></trkpt><trkpt lat="37.9647317" lon="15.38095"><ele>43.0</ele><time>2026-04-28T15:10:13.204Z</time></trkpt><trkpt lat="37.9644983" lon="15.38079"><ele>43.0</ele><time>2026-04-28T15:10:14.204Z</time></trkpt><trkpt lat="37.9642767" lon="15.38062"><ele>48.5</ele><time>2026-04-28T15:10:15.204Z</time></trkpt><trkpt lat="37.9640567" lon="15.3804383"><ele>54.0</ele><time>2026-04-28T15:10:16.204Z</time></trkpt><trkpt lat="37.96384" lon="15.380235"><ele>54.0</ele><time>2026-04-28T15:10:17.204Z</time></trkpt><trkpt lat="37.96364" lon="15.3800067"><ele>54.0</ele><time>2026-04-28T15:10:18.204Z</time></trkpt><trkpt lat="37.9634383" lon="15.37975"><ele>52.0</ele><time>2026-04-28T15:10:19.204Z</time></trkpt><trkpt lat="37.963265" lon="15.3794983"><ele>50.0</ele><time>2026-04-28T15:10:20.204Z</time></trkpt><trkpt lat="37.963085" lon="15.3792267"><ele>50.0</ele><time>2026-04-28T15:10:21.204Z</time></trkpt><trkpt lat="37.9629033" lon="15.3789533"><ele>50.0</ele><time>2026-04-28T15:10:22.205Z</time></trkpt><trkpt lat="37.9627283" lon="15.37868"><ele>51.0</ele><time>2026-04-28T15:10:23.205Z</time></trkpt><trkpt lat="37.96255" lon="15.3783933"><ele>52.0</ele><time>2026-04-28T15:10:24.204Z</time></trkpt><trkpt lat="37.96237" lon="15.3781167"><ele>41.0</ele><time>2026-04-28T15:10:25.205Z</time></trkpt><trkpt lat="37.9621917" lon="15.3778383"><ele>30.0</ele><time>2026-04-28T15:10:26.204Z</time></trkpt><trkpt lat="37.9620133" lon="15.3775517"><ele>30.0</ele><time>2026-04-28T15:10:27.204Z</time></trkpt><trkpt lat="37.9618383" lon="15.37727"><ele>30.0</ele><time>2026-04-28T15:10:28.204Z</time></trkpt><trkpt lat="37.961645" lon="15.376985"><ele>26.0</ele><time>2026-04-28T15:10:29.204Z</time></trkpt><trkpt lat="37.961445" lon="15.3767167"><ele>22.0</ele><time>2026-04-28T15:10:30.204Z</time></trkpt><trkpt lat="37.9612383" lon="15.3764583"><ele>21.0</ele><time>2026-04-28T15:10:31.204Z</time></trkpt><trkpt lat="37.96102" lon="15.3762017"><ele>20.0</ele><time>2026-04-28T15:10:32.204Z</time></trkpt><trkpt lat="37.960795" lon="15.375965"><ele>20.0</ele><time>2026-04-28T15:10:33.205Z</time></trkpt><trkpt lat="37.96057" lon="15.3757317"><ele>20.0</ele><time>2026-04-28T15:10:34.204Z</time></trkpt><trkpt lat="37.9603417" lon="15.3755"><ele>20.0</ele><time>2026-04-28T15:10:35.205Z</time></trkpt><trkpt lat="37.96012" lon="15.3752583"><ele>20.0</ele><time>2026-04-28T15:10:36.204Z</time></trkpt><trkpt lat="37.9599033" lon="15.3750267"><ele>20.0</ele><time>2026-04-28T15:10:37.205Z</time></trkpt><trkpt lat="37.9596883" lon="15.3747967"><ele>20.0</ele><time>2026-04-28T15:10:38.204Z</time></trkpt><trkpt lat="37.95948" lon="15.3745717"><ele>20.0</ele><time>2026-04-28T15:10:39.204Z</time></trkpt><trkpt lat="37.959265" lon="15.374345"><ele>20.0</ele><time>2026-04-28T15:10:40.204Z</time></trkpt><trkpt lat="37.9590467" lon="15.3741167"><ele>21.0</ele><time>2026-04-28T15:10:41.204Z</time></trkpt><trkpt lat="37.9588283" lon="15.3738817"><ele>22.0</ele><time>2026-04-28T15:10:42.204Z</time></trkpt><trkpt lat="37.95861" lon="15.3736533"><ele>22.5</ele><time>2026-04-28T15:10:43.205Z</time></trkpt><trkpt lat="37.958395" lon="15.373415"><ele>23.0</ele><time>2026-04-28T15:10:44.205Z</time></trkpt><trkpt lat="37.9581717" lon="15.37318"><ele>23.5</ele><time>2026-04-28T15:10:45.204Z</time></trkpt><trkpt lat="37.957955" lon="15.3729483"><ele>24.0</ele><time>2026-04-28T15:10:46.205Z</time></trkpt><trkpt lat="37.957735" lon="15.3727183"><ele>23.5</ele><time>2026-04-28T15:10:47.205Z</time></trkpt><trkpt lat="37.957515" lon="15.3724783"><ele>23.0</ele><time>2026-04-28T15:10:48.204Z</time></trkpt><trkpt lat="37.9573" lon="15.3722367"><ele>23.5</ele><time>2026-04-28T15:10:49.204Z</time></trkpt><trkpt lat="37.9570883" lon="15.3719967"><ele>24.0</ele><time>2026-04-28T15:10:50.205Z</time></trkpt><trkpt lat="37.9568817" lon="15.3717517"><ele>24.5</ele><time>2026-04-28T15:10:51.204Z</time></trkpt><trkpt lat="37.9566733" lon="15.3715217"><ele>25.0</ele><time>2026-04-28T15:10:52.204Z</time></trkpt><trkpt lat="37.9564683" lon="15.3713117"><ele>25.0</ele><time>2026-04-28T15:10:53.204Z</time></trkpt><trkpt lat="37.9562567" lon="15.37111"><ele>25.0</ele><time>2026-04-28T15:10:54.204Z</time></trkpt><trkpt lat="37.9560367" lon="15.3709217"><ele>26.0</ele><time>2026-04-28T15:10:55.205Z</time></trkpt><trkpt lat="37.955815" lon="15.37075"><ele>27.0</ele><time>2026-04-28T15:10:56.205Z</time></trkpt><trkpt lat="37.95559" lon="15.3705917"><ele>27.0</ele><time>2026-04-28T15:10:57.204Z</time></trkpt><trkpt lat="37.95536" lon="15.37044"><ele>27.0</ele><time>2026-04-28T15:10:58.204Z</time></trkpt><trkpt lat="37.9551333" lon="15.3703017"><ele>25.0</ele><time>2026-04-28T15:10:59.204Z</time></trkpt><trkpt lat="37.9549033" lon="15.3701733"><ele>23.0</ele><time>2026-04-28T15:11:00.204Z</time></trkpt><trkpt lat="37.9546617" lon="15.370055"><ele>23.0</ele><time>2026-04-28T15:11:01.204Z</time></trkpt><trkpt lat="37.9544233" lon="15.3699333"><ele>23.0</ele><time>2026-04-28T15:11:02.204Z</time></trkpt><trkpt lat="37.9541767" lon="15.3698"><ele>25.0</ele><time>2026-04-28T15:11:03.204Z</time></trkpt><trkpt lat="37.9539367" lon="15.36968"><ele>27.0</ele><time>2026-04-28T15:11:04.204Z</time></trkpt><trkpt lat="37.9536867" lon="15.3695517"><ele>27.0</ele><time>2026-04-28T15:11:05.204Z</time></trkpt><trkpt lat="37.9534383" lon="15.3694167"><ele>27.0</ele><time>2026-04-28T15:11:06.204Z</time></trkpt><trkpt lat="37.9531917" lon="15.3692833"><ele>29.0</ele><time>2026-04-28T15:11:07.205Z</time></trkpt><trkpt lat="37.9529467" lon="15.3691433"><ele>31.0</ele><time>2026-04-28T15:11:08.204Z</time></trkpt><trkpt lat="37.9527067" lon="15.368995"><ele>47.0</ele><time>2026-04-28T15:11:09.205Z</time></trkpt><trkpt lat="37.9524717" lon="15.3688383"><ele>63.0</ele><time>2026-04-28T15:11:10.204Z</time></trkpt><trkpt lat="37.9522433" lon="15.3686633"><ele>63.0</ele><time>2026-04-28T15:11:11.204Z</time></trkpt><trkpt lat="37.9520183" lon="15.36847"><ele>63.0</ele><time>2026-04-28T15:11:12.204Z</time></trkpt><trkpt lat="37.9518067" lon="15.3682533"><ele>62.0</ele><time>2026-04-28T15:11:13.204Z</time></trkpt><trkpt lat="37.9515983" lon="15.368035"><ele>61.0</ele><time>2026-04-28T15:11:14.204Z</time></trkpt><trkpt lat="37.9513933" lon="15.3678033"><ele>61.0</ele><time>2026-04-28T15:11:15.204Z</time></trkpt><trkpt lat="37.95119" lon="15.3675667"><ele>61.0</ele><time>2026-04-28T15:11:16.204Z</time></trkpt><trkpt lat="37.9509867" lon="15.367325"><ele>65.0</ele><time>2026-04-28T15:11:17.204Z</time></trkpt><trkpt lat="37.9507817" lon="15.3670933"><ele>69.0</ele><time>2026-04-28T15:11:18.205Z</time></trkpt><trkpt lat="37.9505767" lon="15.3668767"><ele>69.0</ele><time>2026-04-28T15:11:19.204Z</time></trkpt><trkpt lat="37.9503617" lon="15.3666717"><ele>69.0</ele><time>2026-04-28T15:11:20.204Z</time></trkpt><trkpt lat="37.950135" lon="15.366485"><ele>69.5</ele><time>2026-04-28T15:11:21.204Z</time></trkpt><trkpt lat="37.9499083" lon="15.366305"><ele>70.0</ele><time>2026-04-28T15:11:22.204Z</time></trkpt><trkpt lat="37.9496733" lon="15.366125"><ele>70.0</ele><time>2026-04-28T15:11:23.204Z</time></trkpt><trkpt lat="37.9494333" lon="15.365965"><ele>70.0</ele><time>2026-04-28T15:11:24.205Z</time></trkpt><trkpt lat="37.9491933" lon="15.3658033"><ele>71.5</ele><time>2026-04-28T15:11:25.204Z</time></trkpt><trkpt lat="37.9489417" lon="15.3656333"><ele>73.0</ele><time>2026-04-28T15:11:26.204Z</time></trkpt><trkpt lat="37.948695" lon="15.3654683"><ele>73.0</ele><time>2026-04-28T15:11:27.204Z</time></trkpt><trkpt lat="37.9484583" lon="15.365305"><ele>73.0</ele><time>2026-04-28T15:11:28.205Z</time></trkpt><trkpt lat="37.9482183" lon="15.3651417"><ele>69.0</ele><time>2026-04-28T15:11:29.205Z</time></trkpt><trkpt lat="37.9479717" lon="15.3649867"><ele>65.0</ele><time>2026-04-28T15:11:30.204Z</time></trkpt><trkpt lat="37.9477283" lon="15.3648267"><ele>64.5</ele><time>2026-04-28T15:11:31.205Z</time></trkpt><trkpt lat="37.9474833" lon="15.3646617"><ele>64.0</ele><time>2026-04-28T15:11:32.204Z</time></trkpt><trkpt lat="37.9472433" lon="15.3644983"><ele>64.0</ele><time>2026-04-28T15:11:33.204Z</time></trkpt><trkpt lat="37.947005" lon="15.3643383"><ele>64.0</ele><time>2026-04-28T15:11:34.205Z</time></trkpt><trkpt lat="37.946765" lon="15.364175"><ele>65.5</ele><time>2026-04-28T15:11:35.204Z</time></trkpt><trkpt lat="37.9465283" lon="15.364015"><ele>67.0</ele><time>2026-04-28T15:11:36.204Z</time></trkpt><trkpt lat="37.9462883" lon="15.3638567"><ele>67.0</ele><time>2026-04-28T15:11:37.204Z</time></trkpt><trkpt lat="37.9460567" lon="15.3636967"><ele>67.0</ele><time>2026-04-28T15:11:38.204Z</time></trkpt><trkpt lat="37.9458183" lon="15.3635417"><ele>63.5</ele><time>2026-04-28T15:11:39.204Z</time></trkpt><trkpt lat="37.9455833" lon="15.3633783"><ele>60.0</ele><time>2026-04-28T15:11:40.204Z</time></trkpt><trkpt lat="37.94535" lon="15.36321"><ele>60.0</ele><time>2026-04-28T15:11:41.204Z</time></trkpt><trkpt lat="37.9451167" lon="15.3630317"><ele>60.0</ele><time>2026-04-28T15:11:42.204Z</time></trkpt><trkpt lat="37.944875" lon="15.362845"><ele>59.0</ele><time>2026-04-28T15:11:43.204Z</time></trkpt><trkpt lat="37.944645" lon="15.3626517"><ele>58.0</ele><time>2026-04-28T15:11:44.204Z</time></trkpt><trkpt lat="37.9444083" lon="15.3624617"><ele>56.0</ele><time>2026-04-28T15:11:45.205Z</time></trkpt><trkpt lat="37.944175" lon="15.36227"><ele>54.0</ele><time>2026-04-28T15:11:46.204Z</time></trkpt><trkpt lat="37.94394" lon="15.3620817"><ele>60.5</ele><time>2026-04-28T15:11:47.205Z</time></trkpt><trkpt lat="37.9437" lon="15.3618883"><ele>67.0</ele><time>2026-04-28T15:11:48.204Z</time></trkpt><trkpt lat="37.943465" lon="15.3616967"><ele>64.5</ele><time>2026-04-28T15:11:49.204Z</time></trkpt><trkpt lat="37.94323" lon="15.3615117"><ele>62.0</ele><time>2026-04-28T15:11:50.204Z</time></trkpt><trkpt lat="37.9429983" lon="15.36132"><ele>61.5</ele><time>2026-04-28T15:11:51.204Z</time></trkpt><trkpt lat="37.9427633" lon="15.361125"><ele>61.0</ele><time>2026-04-28T15:11:52.204Z</time></trkpt><trkpt lat="37.94253" lon="15.360925"><ele>50.0</ele><time>2026-04-28T15:11:53.204Z</time></trkpt><trkpt lat="37.9422983" lon="15.360725"><ele>39.0</ele><time>2026-04-28T15:11:54.204Z</time></trkpt><trkpt lat="37.9420817" lon="15.3605183"><ele>39.0</ele><time>2026-04-28T15:11:55.204Z</time></trkpt><trkpt lat="37.9418717" lon="15.3602917"><ele>39.0</ele><time>2026-04-28T15:11:56.204Z</time></trkpt><trkpt lat="37.9416617" lon="15.36006"><ele>39.5</ele><time>2026-04-28T15:11:57.204Z</time></trkpt><trkpt lat="37.94146" lon="15.3598117"><ele>40.0</ele><time>2026-04-28T15:11:58.204Z</time></trkpt><trkpt lat="37.94126" lon="15.3595567"><ele>40.0</ele><time>2026-04-28T15:11:59.204Z</time></trkpt><trkpt lat="37.9410533" lon="15.3592967"><ele>40.0</ele><time>2026-04-28T15:12:00.204Z</time></trkpt><trkpt lat="37.9408483" lon="15.3590367"><ele>41.5</ele><time>2026-04-28T15:12:01.204Z</time></trkpt><trkpt lat="37.9406483" lon="15.358775"><ele>43.0</ele><time>2026-04-28T15:12:02.204Z</time></trkpt><trkpt lat="37.9404467" lon="15.3585133"><ele>43.0</ele><time>2026-04-28T15:12:03.204Z</time></trkpt><trkpt lat="37.9402417" lon="15.358245"><ele>43.0</ele><time>2026-04-28T15:12:04.204Z</time></trkpt><trkpt lat="37.9400417" lon="15.35798"><ele>47.5</ele><time>2026-04-28T15:12:05.204Z</time></trkpt><trkpt lat="37.93984" lon="15.357715"><ele>52.0</ele><time>2026-04-28T15:12:06.204Z</time></trkpt><trkpt lat="37.9396317" lon="15.357455"><ele>54.0</ele><time>2026-04-28T15:12:07.204Z</time></trkpt><trkpt lat="37.9394233" lon="15.3571933"><ele>56.0</ele><time>2026-04-28T15:12:08.204Z</time></trkpt><trkpt lat="37.9392167" lon="15.3569183"><ele>53.5</ele><time>2026-04-28T15:12:09.204Z</time></trkpt><trkpt lat="37.9390117" lon="15.3566383"><ele>51.0</ele><time>2026-04-28T15:12:10.204Z</time></trkpt><trkpt lat="37.9388067" lon="15.3563683"><ele>51.0</ele><time>2026-04-28T15:12:11.204Z</time></trkpt><trkpt lat="37.9386" lon="15.3561033"><ele>51.0</ele><time>2026-04-28T15:12:12.204Z</time></trkpt><trkpt lat="37.9383983" lon="15.3558417"><ele>45.5</ele><time>2026-04-28T15:12:13.204Z</time></trkpt><trkpt lat="37.9381933" lon="15.3555717"><ele>40.0</ele><time>2026-04-28T15:12:14.204Z</time></trkpt><trkpt lat="37.9379917" lon="15.3552983"><ele>38.0</ele><time>2026-04-28T15:12:15.204Z</time></trkpt><trkpt lat="37.9377883" lon="15.3550283"><ele>36.0</ele><time>2026-04-28T15:12:16.205Z</time></trkpt><trkpt lat="37.9375817" lon="15.3547617"><ele>33.5</ele><time>2026-04-28T15:12:17.204Z</time></trkpt><trkpt lat="37.9373817" lon="15.3544883"><ele>31.0</ele><time>2026-04-28T15:12:18.205Z</time></trkpt><trkpt lat="37.9371833" lon="15.3542267"><ele>31.0</ele><time>2026-04-28T15:12:19.204Z</time></trkpt><trkpt lat="37.93698" lon="15.35396"><ele>31.0</ele><time>2026-04-28T15:12:20.204Z</time></trkpt><trkpt lat="37.93677" lon="15.3537067"><ele>29.0</ele><time>2026-04-28T15:12:21.204Z</time></trkpt><trkpt lat="37.9365417" lon="15.3534733"><ele>27.0</ele><time>2026-04-28T15:12:22.204Z</time></trkpt><trkpt lat="37.9363117" lon="15.353255"><ele>27.0</ele><time>2026-04-28T15:12:23.204Z</time></trkpt><trkpt lat="37.9360783" lon="15.35305"><ele>27.0</ele><time>2026-04-28T15:12:24.205Z</time></trkpt><trkpt lat="37.9358383" lon="15.3528517"><ele>22.5</ele><time>2026-04-28T15:12:25.204Z</time></trkpt><trkpt lat="37.9355983" lon="15.352665"><ele>18.0</ele><time>2026-04-28T15:12:26.205Z</time></trkpt><trkpt lat="37.9353533" lon="15.3524817"><ele>18.0</ele><time>2026-04-28T15:12:27.204Z</time></trkpt><trkpt lat="37.9351083" lon="15.35231"><ele>18.0</ele><time>2026-04-28T15:12:28.204Z</time></trkpt><trkpt lat="37.9348633" lon="15.352155"><ele>16.5</ele><time>2026-04-28T15:12:29.204Z</time></trkpt><trkpt lat="37.9346133" lon="15.3520033"><ele>15.0</ele><time>2026-04-28T15:12:30.204Z</time></trkpt><trkpt lat="37.9343683" lon="15.3518617"><ele>13.5</ele><time>2026-04-28T15:12:31.204Z</time></trkpt><trkpt lat="37.934125" lon="15.3517183"><ele>12.0</ele><time>2026-04-28T15:12:32.204Z</time></trkpt><trkpt lat="37.9338783" lon="15.3515783"><ele>12.0</ele><time>2026-04-28T15:12:33.204Z</time></trkpt><trkpt lat="37.93363" lon="15.35143"><ele>12.0</ele><time>2026-04-28T15:12:34.204Z</time></trkpt><trkpt lat="37.93339" lon="15.3512883"><ele>14.5</ele><time>2026-04-28T15:12:35.204Z</time></trkpt><trkpt lat="37.9331467" lon="15.3511517"><ele>17.0</ele><time>2026-04-28T15:12:36.205Z</time></trkpt><trkpt lat="37.9329033" lon="15.3510317"><ele>17.0</ele><time>2026-04-28T15:12:37.204Z</time></trkpt><trkpt lat="37.9326383" lon="15.3509317"><ele>17.0</ele><time>2026-04-28T15:12:38.205Z</time></trkpt><trkpt lat="37.9323767" lon="15.35086"><ele>17.5</ele><time>2026-04-28T15:12:39.205Z</time></trkpt><trkpt lat="37.9321083" lon="15.3508033"><ele>18.0</ele><time>2026-04-28T15:12:40.204Z</time></trkpt><trkpt lat="37.9318417" lon="15.35076"><ele>19.0</ele><time>2026-04-28T15:12:41.204Z</time></trkpt><trkpt lat="37.9315717" lon="15.3507333"><ele>20.0</ele><time>2026-04-28T15:12:42.204Z</time></trkpt><trkpt lat="37.9312967" lon="15.3507267"><ele>20.0</ele><time>2026-04-28T15:12:43.204Z</time></trkpt><trkpt lat="37.9310183" lon="15.350735"><ele>20.0</ele><time>2026-04-28T15:12:44.204Z</time></trkpt><trkpt lat="37.93074" lon="15.3507383"><ele>22.5</ele><time>2026-04-28T15:12:45.204Z</time></trkpt><trkpt lat="37.9304617" lon="15.35075"><ele>25.0</ele><time>2026-04-28T15:12:46.205Z</time></trkpt><trkpt lat="37.930185" lon="15.3507583"><ele>26.0</ele><time>2026-04-28T15:12:47.204Z</time></trkpt><trkpt lat="37.92991" lon="15.3507667"><ele>27.0</ele><time>2026-04-28T15:12:48.204Z</time></trkpt><trkpt lat="37.92963" lon="15.3507683"><ele>27.0</ele><time>2026-04-28T15:12:49.204Z</time></trkpt><trkpt lat="37.92936" lon="15.3507417"><ele>27.0</ele><time>2026-04-28T15:12:50.204Z</time></trkpt><trkpt lat="37.929085" lon="15.35069"><ele>25.5</ele><time>2026-04-28T15:12:51.204Z</time></trkpt><trkpt lat="37.92881" lon="15.350625"><ele>24.0</ele><time>2026-04-28T15:12:52.204Z</time></trkpt><trkpt lat="37.9285383" lon="15.350535"><ele>35.5</ele><time>2026-04-28T15:12:53.204Z</time></trkpt><trkpt lat="37.9282733" lon="15.350425"><ele>47.0</ele><time>2026-04-28T15:12:54.204Z</time></trkpt><trkpt lat="37.9280083" lon="15.3502933"><ele>47.0</ele><time>2026-04-28T15:12:55.204Z</time></trkpt><trkpt lat="37.92775" lon="15.3501417"><ele>47.0</ele><time>2026-04-28T15:12:56.204Z</time></trkpt><trkpt lat="37.9275017" lon="15.349965"><ele>46.5</ele><time>2026-04-28T15:12:57.204Z</time></trkpt><trkpt lat="37.927265" lon="15.3497667"><ele>46.0</ele><time>2026-04-28T15:12:58.204Z</time></trkpt><trkpt lat="37.9270383" lon="15.3495533"><ele>46.0</ele><time>2026-04-28T15:12:59.204Z</time></trkpt><trkpt lat="37.9268217" lon="15.3493183"><ele>46.0</ele><time>2026-04-28T15:13:00.204Z</time></trkpt><trkpt lat="37.9266083" lon="15.3490833"><ele>44.5</ele><time>2026-04-28T15:13:01.204Z</time></trkpt><trkpt lat="37.9264017" lon="15.3488517"><ele>43.0</ele><time>2026-04-28T15:13:02.204Z</time></trkpt><trkpt lat="37.9261883" lon="15.3486267"><ele>43.0</ele><time>2026-04-28T15:13:03.204Z</time></trkpt><trkpt lat="37.925975" lon="15.348395"><ele>43.0</ele><time>2026-04-28T15:13:04.204Z</time></trkpt><trkpt lat="37.9257533" lon="15.3481633"><ele>35.5</ele><time>2026-04-28T15:13:05.204Z</time></trkpt><trkpt lat="37.9255317" lon="15.3479217"><ele>28.0</ele><time>2026-04-28T15:13:06.204Z</time></trkpt><trkpt lat="37.9253017" lon="15.34768"><ele>28.0</ele><time>2026-04-28T15:13:07.204Z</time></trkpt><trkpt lat="37.9250817" lon="15.3474333"><ele>28.0</ele><time>2026-04-28T15:13:08.204Z</time></trkpt><trkpt lat="37.9248633" lon="15.3471867"><ele>39.0</ele><time>2026-04-28T15:13:09.205Z</time></trkpt><trkpt lat="37.92465" lon="15.346925"><ele>50.0</ele><time>2026-04-28T15:13:10.205Z</time></trkpt><trkpt lat="37.9244467" lon="15.3466583"><ele>50.0</ele><time>2026-04-28T15:13:11.204Z</time></trkpt><trkpt lat="37.9242383" lon="15.3463883"><ele>50.0</ele><time>2026-04-28T15:13:12.204Z</time></trkpt><trkpt lat="37.9240267" lon="15.3461283"><ele>51.5</ele><time>2026-04-28T15:13:13.204Z</time></trkpt><trkpt lat="37.9238117" lon="15.3458667"><ele>53.0</ele><time>2026-04-28T15:13:14.205Z</time></trkpt><trkpt lat="37.9236017" lon="15.3456083"><ele>47.5</ele><time>2026-04-28T15:13:15.205Z</time></trkpt><trkpt lat="37.923385" lon="15.3453533"><ele>42.0</ele><time>2026-04-28T15:13:16.204Z</time></trkpt><trkpt lat="37.9231667" lon="15.3451183"><ele>42.0</ele><time>2026-04-28T15:13:17.204Z</time></trkpt><trkpt lat="37.9229417" lon="15.3449083"><ele>42.0</ele><time>2026-04-28T15:13:18.204Z</time></trkpt><trkpt lat="37.9227167" lon="15.3447"><ele>44.0</ele><time>2026-04-28T15:13:19.204Z</time></trkpt><trkpt lat="37.9225017" lon="15.344505"><ele>46.0</ele><time>2026-04-28T15:13:20.204Z</time></trkpt><trkpt lat="37.9222483" lon="15.3443683"><ele>46.0</ele><time>2026-04-28T15:13:21.204Z</time></trkpt><trkpt lat="37.9219783" lon="15.344225"><ele>46.0</ele><time>2026-04-28T15:13:22.205Z</time></trkpt><trkpt lat="37.9217167" lon="15.344115"><ele>39.0</ele><time>2026-04-28T15:13:23.204Z</time></trkpt><trkpt lat="37.9214517" lon="15.3440117"><ele>32.0</ele><time>2026-04-28T15:13:24.204Z</time></trkpt><trkpt lat="37.9211833" lon="15.343935"><ele>35.0</ele><time>2026-04-28T15:13:25.204Z</time></trkpt><trkpt lat="37.9209" lon="15.3438783"><ele>38.0</ele><time>2026-04-28T15:13:26.204Z</time></trkpt><trkpt lat="37.9206083" lon="15.3438417"><ele>43.5</ele><time>2026-04-28T15:13:27.204Z</time></trkpt><trkpt lat="37.9203233" lon="15.34381"><ele>49.0</ele><time>2026-04-28T15:13:28.204Z</time></trkpt><trkpt lat="37.9200383" lon="15.3437833"><ele>49.0</ele><time>2026-04-28T15:13:29.204Z</time></trkpt><trkpt lat="37.9197567" lon="15.3437567"><ele>49.0</ele><time>2026-04-28T15:13:30.204Z</time></trkpt><trkpt lat="37.9194783" lon="15.3437167"><ele>48.0</ele><time>2026-04-28T15:13:31.204Z</time></trkpt><trkpt lat="37.91921" lon="15.3436833"><ele>47.0</ele><time>2026-04-28T15:13:32.204Z</time></trkpt><trkpt lat="37.9189433" lon="15.3436517"><ele>47.0</ele><time>2026-04-28T15:13:33.204Z</time></trkpt><trkpt lat="37.918685" lon="15.3436017"><ele>47.0</ele><time>2026-04-28T15:13:34.204Z</time></trkpt><trkpt lat="37.91842" lon="15.3435517"><ele>41.5</ele><time>2026-04-28T15:13:35.204Z</time></trkpt><trkpt lat="37.9181633" lon="15.3434783"><ele>36.0</ele><time>2026-04-28T15:13:36.205Z</time></trkpt><trkpt lat="37.9179117" lon="15.343395"><ele>36.0</ele><time>2026-04-28T15:13:37.204Z</time></trkpt><trkpt lat="37.9176667" lon="15.3433067"><ele>36.0</ele><time>2026-04-28T15:13:38.204Z</time></trkpt><trkpt lat="37.9174267" lon="15.3432117"><ele>32.0</ele><time>2026-04-28T15:13:39.204Z</time></trkpt><trkpt lat="37.91719" lon="15.343105"><ele>28.0</ele><time>2026-04-28T15:13:40.204Z</time></trkpt><trkpt lat="37.91695" lon="15.3429833"><ele>44.0</ele><time>2026-04-28T15:13:41.204Z</time></trkpt><trkpt lat="37.91671" lon="15.3428567"><ele>60.0</ele><time>2026-04-28T15:13:42.204Z</time></trkpt><trkpt lat="37.9164683" lon="15.3427283"><ele>60.0</ele><time>2026-04-28T15:13:43.204Z</time></trkpt><trkpt lat="37.916225" lon="15.3426067"><ele>60.0</ele><time>2026-04-28T15:13:44.205Z</time></trkpt><trkpt lat="37.9159767" lon="15.34249"><ele>71.5</ele><time>2026-04-28T15:13:45.204Z</time></trkpt><trkpt lat="37.9157417" lon="15.3423817"><ele>83.0</ele><time>2026-04-28T15:13:46.204Z</time></trkpt><trkpt lat="37.9155" lon="15.3422667"><ele>108.0</ele><time>2026-04-28T15:13:47.204Z</time></trkpt><trkpt lat="37.9152583" lon="15.34215"><ele>133.0</ele><time>2026-04-28T15:13:48.204Z</time></trkpt><trkpt lat="37.9150183" lon="15.342035"><ele>60.0</ele><time>2026-04-28T15:13:49.204Z</time></trkpt><trkpt lat="37.9161949" lon="15.3425918"><ele>59.0</ele><time>2026-04-28T15:14:14.2Z</time></trkpt><trkpt lat="37.9079317" lon="15.3353417"><ele>59.0</ele><time>2026-04-28T15:14:20.204Z</time></trkpt><trkpt lat="37.9077417" lon="15.3350717"><ele>59.0</ele><time>2026-04-28T15:14:21.204Z</time></trkpt><trkpt lat="37.907565" lon="15.3347833"><ele>47.5</ele><time>2026-04-28T15:14:22.204Z</time></trkpt><trkpt lat="37.90738" lon="15.3344967"><ele>36.0</ele><time>2026-04-28T15:14:23.204Z</time></trkpt><trkpt lat="37.9072033" lon="15.3342067"><ele>36.0</ele><time>2026-04-28T15:14:24.204Z</time></trkpt><trkpt lat="37.9070283" lon="15.3339317"><ele>36.0</ele><time>2026-04-28T15:14:25.205Z</time></trkpt><trkpt lat="37.9068583" lon="15.3336517"><ele>29.0</ele><time>2026-04-28T15:14:26.204Z</time></trkpt><trkpt lat="37.9066917" lon="15.333375"><ele>22.0</ele><time>2026-04-28T15:14:27.204Z</time></trkpt><trkpt lat="37.9065267" lon="15.3331083"><ele>22.0</ele><time>2026-04-28T15:14:28.205Z</time></trkpt><trkpt lat="37.9063617" lon="15.3328483"><ele>22.0</ele><time>2026-04-28T15:14:29.204Z</time></trkpt><trkpt lat="37.9061917" lon="15.332595"><ele>22.0</ele><time>2026-04-28T15:14:30.205Z</time></trkpt><trkpt lat="37.9060133" lon="15.33235"><ele>22.0</ele><time>2026-04-28T15:14:31.204Z</time></trkpt><trkpt lat="37.90583" lon="15.3321133"><ele>37.0</ele><time>2026-04-28T15:14:32.204Z</time></trkpt><trkpt lat="37.90564" lon="15.3318817"><ele>52.0</ele><time>2026-04-28T15:14:33.204Z</time></trkpt><trkpt lat="37.9054433" lon="15.331655"><ele>52.0</ele><time>2026-04-28T15:14:34.204Z</time></trkpt><trkpt lat="37.90525" lon="15.33143"><ele>52.0</ele><time>2026-04-28T15:14:35.204Z</time></trkpt><trkpt lat="37.90506" lon="15.3312083"><ele>76.0</ele><time>2026-04-28T15:14:36.204Z</time></trkpt><trkpt lat="37.90487" lon="15.3309883"><ele>100.0</ele><time>2026-04-28T15:14:37.204Z</time></trkpt><trkpt lat="37.9046833" lon="15.3307717"><ele>100.0</ele><time>2026-04-28T15:14:38.204Z</time></trkpt><trkpt lat="37.9045" lon="15.3305583"><ele>100.0</ele><time>2026-04-28T15:14:39.204Z</time></trkpt><trkpt lat="37.9043133" lon="15.3303417"><ele>91.0</ele><time>2026-04-28T15:14:40.204Z</time></trkpt><trkpt lat="37.9041267" lon="15.3301233"><ele>82.0</ele><time>2026-04-28T15:14:41.204Z</time></trkpt><trkpt lat="37.90394" lon="15.3299067"><ele>82.5</ele><time>2026-04-28T15:14:42.204Z</time></trkpt><trkpt lat="37.9036617" lon="15.3296917"><ele>83.0</ele><time>2026-04-28T15:14:43.204Z</time></trkpt><trkpt lat="37.9034" lon="15.3295717"><ele>77.0</ele><time>2026-04-28T15:14:44.204Z</time></trkpt><trkpt lat="37.9031483" lon="15.3294583"><ele>71.0</ele><time>2026-04-28T15:14:45.204Z</time></trkpt><trkpt lat="37.90288" lon="15.3294217"><ele>71.0</ele><time>2026-04-28T15:14:46.204Z</time></trkpt><trkpt lat="37.902665" lon="15.3293133"><ele>71.0</ele><time>2026-04-28T15:14:47.204Z</time></trkpt><trkpt lat="37.9024467" lon="15.3291783"><ele>66.0</ele><time>2026-04-28T15:14:48.204Z</time></trkpt><trkpt lat="37.9022383" lon="15.329035"><ele>61.0</ele><time>2026-04-28T15:14:49.204Z</time></trkpt><trkpt lat="37.90203" lon="15.32889"><ele>63.0</ele><time>2026-04-28T15:14:50.204Z</time></trkpt><trkpt lat="37.9018067" lon="15.32875"><ele>65.0</ele><time>2026-04-28T15:14:51.204Z</time></trkpt><trkpt lat="37.9015917" lon="15.3286033"><ele>65.0</ele><time>2026-04-28T15:14:52.204Z</time></trkpt><trkpt lat="37.9013767" lon="15.3284567"><ele>65.0</ele><time>2026-04-28T15:14:53.204Z</time></trkpt><trkpt lat="37.9011617" lon="15.3283083"><ele>65.0</ele><time>2026-04-28T15:14:54.204Z</time></trkpt><trkpt lat="37.90095" lon="15.328165"><ele>65.0</ele><time>2026-04-28T15:14:55.204Z</time></trkpt><trkpt lat="37.9007367" lon="15.3280083"><ele>64.5</ele><time>2026-04-28T15:14:56.204Z</time></trkpt><trkpt lat="37.900525" lon="15.3278433"><ele>64.0</ele><time>2026-04-28T15:14:57.204Z</time></trkpt><trkpt lat="37.9003167" lon="15.3276817"><ele>64.0</ele><time>2026-04-28T15:14:58.204Z</time></trkpt><trkpt lat="37.9001183" lon="15.327495"><ele>64.0</ele><time>2026-04-28T15:14:59.204Z</time></trkpt><trkpt lat="37.899925" lon="15.3273067"><ele>68.0</ele><time>2026-04-28T15:15:00.205Z</time></trkpt><trkpt lat="37.8997333" lon="15.3271083"><ele>72.0</ele><time>2026-04-28T15:15:01.205Z</time></trkpt><trkpt lat="37.8995417" lon="15.326905"><ele>72.0</ele><time>2026-04-28T15:15:02.204Z</time></trkpt><trkpt lat="37.8993567" lon="15.3266983"><ele>72.0</ele><time>2026-04-28T15:15:03.205Z</time></trkpt><trkpt lat="37.899175" lon="15.326485"><ele>68.5</ele><time>2026-04-28T15:15:04.205Z</time></trkpt><trkpt lat="37.8989883" lon="15.3262583"><ele>65.0</ele><time>2026-04-28T15:15:05.204Z</time></trkpt><trkpt lat="37.8987967" lon="15.326025"><ele>65.0</ele><time>2026-04-28T15:15:06.204Z</time></trkpt><trkpt lat="37.8986067" lon="15.3257933"><ele>65.0</ele><time>2026-04-28T15:15:07.204Z</time></trkpt><trkpt lat="37.8984217" lon="15.3255567"><ele>56.0</ele><time>2026-04-28T15:15:08.204Z</time></trkpt><trkpt lat="37.8982333" lon="15.3253267"><ele>47.0</ele><time>2026-04-28T15:15:09.204Z</time></trkpt><trkpt lat="37.8980383" lon="15.3251083"><ele>47.0</ele><time>2026-04-28T15:15:10.204Z</time></trkpt><trkpt lat="37.897835" lon="15.3248983"><ele>47.0</ele><time>2026-04-28T15:15:11.204Z</time></trkpt><trkpt lat="37.8976317" lon="15.3246933"><ele>55.5</ele><time>2026-04-28T15:15:12.204Z</time></trkpt><trkpt lat="37.8974217" lon="15.3245"><ele>64.0</ele><time>2026-04-28T15:15:13.204Z</time></trkpt><trkpt lat="37.8972083" lon="15.3243017"><ele>64.0</ele><time>2026-04-28T15:15:14.204Z</time></trkpt><trkpt lat="37.8969983" lon="15.324105"><ele>64.0</ele><time>2026-04-28T15:15:15.205Z</time></trkpt><trkpt lat="37.896775" lon="15.323915"><ele>62.5</ele><time>2026-04-28T15:15:16.204Z</time></trkpt><trkpt lat="37.8965483" lon="15.3237283"><ele>61.0</ele><time>2026-04-28T15:15:17.204Z</time></trkpt><trkpt lat="37.8963167" lon="15.3235383"><ele>61.0</ele><time>2026-04-28T15:15:18.204Z</time></trkpt><trkpt lat="37.896095" lon="15.323345"><ele>61.0</ele><time>2026-04-28T15:15:19.204Z</time></trkpt><trkpt lat="37.8958767" lon="15.3231467"><ele>64.0</ele><time>2026-04-28T15:15:20.205Z</time></trkpt><trkpt lat="37.8956567" lon="15.3229467"><ele>67.0</ele><time>2026-04-28T15:15:21.205Z</time></trkpt><trkpt lat="37.8954383" lon="15.32275"><ele>67.0</ele><time>2026-04-28T15:15:22.204Z</time></trkpt><trkpt lat="37.8952267" lon="15.322555"><ele>67.0</ele><time>2026-04-28T15:15:23.205Z</time></trkpt><trkpt lat="37.89502" lon="15.3223617"><ele>65.0</ele><time>2026-04-28T15:15:24.204Z</time></trkpt><trkpt lat="37.8948217" lon="15.3221583"><ele>63.0</ele><time>2026-04-28T15:15:25.204Z</time></trkpt><trkpt lat="37.8946167" lon="15.3219467"><ele>63.0</ele><time>2026-04-28T15:15:26.204Z</time></trkpt><trkpt lat="37.8944133" lon="15.32173"><ele>63.0</ele><time>2026-04-28T15:15:27.205Z</time></trkpt><trkpt lat="37.894205" lon="15.32152"><ele>63.5</ele><time>2026-04-28T15:15:28.204Z</time></trkpt><trkpt lat="37.8940017" lon="15.3213067"><ele>64.0</ele><time>2026-04-28T15:15:29.204Z</time></trkpt><trkpt lat="37.8937933" lon="15.3210867"><ele>64.0</ele><time>2026-04-28T15:15:30.204Z</time></trkpt><trkpt lat="37.8935883" lon="15.3208717"><ele>64.0</ele><time>2026-04-28T15:15:31.204Z</time></trkpt><trkpt lat="37.8933883" lon="15.3206517"><ele>58.5</ele><time>2026-04-28T15:15:32.204Z</time></trkpt><trkpt lat="37.8931883" lon="15.3204367"><ele>53.0</ele><time>2026-04-28T15:15:33.204Z</time></trkpt><trkpt lat="37.8929783" lon="15.3202217"><ele>53.0</ele><time>2026-04-28T15:15:34.204Z</time></trkpt><trkpt lat="37.89278" lon="15.3200067"><ele>53.0</ele><time>2026-04-28T15:15:35.204Z</time></trkpt><trkpt lat="37.8925767" lon="15.3198033"><ele>49.5</ele><time>2026-04-28T15:15:36.204Z</time></trkpt><trkpt lat="37.8923717" lon="15.3196017"><ele>46.0</ele><time>2026-04-28T15:15:37.204Z</time></trkpt><trkpt lat="37.892165" lon="15.3193867"><ele>46.0</ele><time>2026-04-28T15:15:38.205Z</time></trkpt><trkpt lat="37.891965" lon="15.3191667"><ele>46.0</ele><time>2026-04-28T15:15:39.204Z</time></trkpt><trkpt lat="37.8917667" lon="15.31894"><ele>54.5</ele><time>2026-04-28T15:15:40.204Z</time></trkpt><trkpt lat="37.8915667" lon="15.3187133"><ele>63.0</ele><time>2026-04-28T15:15:41.204Z</time></trkpt><trkpt lat="37.891365" lon="15.318485"><ele>63.0</ele><time>2026-04-28T15:15:42.204Z</time></trkpt><trkpt lat="37.891165" lon="15.3182567"><ele>63.0</ele><time>2026-04-28T15:15:43.204Z</time></trkpt><trkpt lat="37.8909533" lon="15.3180767"><ele>57.5</ele><time>2026-04-28T15:15:44.204Z</time></trkpt><trkpt lat="37.8907417" lon="15.3178733"><ele>52.0</ele><time>2026-04-28T15:15:45.204Z</time></trkpt><trkpt lat="37.890525" lon="15.3176667"><ele>52.0</ele><time>2026-04-28T15:15:46.204Z</time></trkpt><trkpt lat="37.89032" lon="15.3174533"><ele>52.0</ele><time>2026-04-28T15:15:47.204Z</time></trkpt><trkpt lat="37.8901233" lon="15.3172333"><ele>52.0</ele><time>2026-04-28T15:15:48.205Z</time></trkpt><trkpt lat="37.88993" lon="15.3170083"><ele>52.0</ele><time>2026-04-28T15:15:49.204Z</time></trkpt><trkpt lat="37.8897483" lon="15.3167767"><ele>52.0</ele><time>2026-04-28T15:15:50.204Z</time></trkpt><trkpt lat="37.8895833" lon="15.316535"><ele>52.0</ele><time>2026-04-28T15:15:51.204Z</time></trkpt><trkpt lat="37.889415" lon="15.3162983"><ele>53.5</ele><time>2026-04-28T15:15:52.205Z</time></trkpt><trkpt lat="37.8892517" lon="15.3160483"><ele>55.0</ele><time>2026-04-28T15:15:53.204Z</time></trkpt><trkpt lat="37.88909" lon="15.3157983"><ele>59.0</ele><time>2026-04-28T15:15:54.204Z</time></trkpt><trkpt lat="37.8889333" lon="15.3155467"><ele>63.0</ele><time>2026-04-28T15:15:55.204Z</time></trkpt><trkpt lat="37.8887833" lon="15.3152933"><ele>63.0</ele><time>2026-04-28T15:15:56.204Z</time></trkpt><trkpt lat="37.888635" lon="15.315035"><ele>63.0</ele><time>2026-04-28T15:15:57.205Z</time></trkpt><trkpt lat="37.8884867" lon="15.3147617"><ele>51.5</ele><time>2026-04-28T15:15:58.204Z</time></trkpt><trkpt lat="37.8883433" lon="15.3144983"><ele>40.0</ele><time>2026-04-28T15:15:59.204Z</time></trkpt><trkpt lat="37.8881967" lon="15.3142333"><ele>40.0</ele><time>2026-04-28T15:16:00.205Z</time></trkpt><trkpt lat="37.88805" lon="15.31397"><ele>40.0</ele><time>2026-04-28T15:16:01.204Z</time></trkpt><trkpt lat="37.8879" lon="15.3137067"><ele>40.0</ele><time>2026-04-28T15:16:02.205Z</time></trkpt><trkpt lat="37.8877483" lon="15.3134483"><ele>40.0</ele><time>2026-04-28T15:16:03.204Z</time></trkpt><trkpt lat="37.88759" lon="15.313195"><ele>53.0</ele><time>2026-04-28T15:16:04.204Z</time></trkpt><trkpt lat="37.887425" lon="15.3129533"><ele>66.0</ele><time>2026-04-28T15:16:05.204Z</time></trkpt><trkpt lat="37.88725" lon="15.3127233"><ele>66.0</ele><time>2026-04-28T15:16:06.204Z</time></trkpt><trkpt lat="37.88707" lon="15.3125"><ele>66.0</ele><time>2026-04-28T15:16:07.204Z</time></trkpt><trkpt lat="37.8868833" lon="15.31228"><ele>68.5</ele><time>2026-04-28T15:16:08.204Z</time></trkpt><trkpt lat="37.8866967" lon="15.3120633"><ele>71.0</ele><time>2026-04-28T15:16:09.204Z</time></trkpt><trkpt lat="37.8865067" lon="15.3118483"><ele>71.0</ele><time>2026-04-28T15:16:10.204Z</time></trkpt><trkpt lat="37.88632" lon="15.3116333"><ele>71.0</ele><time>2026-04-28T15:16:11.205Z</time></trkpt><trkpt lat="37.8861317" lon="15.311415"><ele>68.0</ele><time>2026-04-28T15:16:12.204Z</time></trkpt><trkpt lat="37.8859433" lon="15.3111983"><ele>65.0</ele><time>2026-04-28T15:16:13.204Z</time></trkpt><trkpt lat="37.885755" lon="15.3109783"><ele>65.0</ele><time>2026-04-28T15:16:14.204Z</time></trkpt><trkpt lat="37.885565" lon="15.3107617"><ele>65.0</ele><time>2026-04-28T15:16:15.205Z</time></trkpt><trkpt lat="37.8853767" lon="15.3105467"><ele>62.5</ele><time>2026-04-28T15:16:16.204Z</time></trkpt><trkpt lat="37.8851883" lon="15.31033"><ele>60.0</ele><time>2026-04-28T15:16:17.204Z</time></trkpt><trkpt lat="37.885" lon="15.3101117"><ele>60.0</ele><time>2026-04-28T15:16:18.204Z</time></trkpt><trkpt lat="37.8848117" lon="15.3098933"><ele>60.0</ele><time>2026-04-28T15:16:19.204Z</time></trkpt><trkpt lat="37.8846233" lon="15.3096767"><ele>56.0</ele><time>2026-04-28T15:16:20.204Z</time></trkpt><trkpt lat="37.8844333" lon="15.30946"><ele>52.0</ele><time>2026-04-28T15:16:21.204Z</time></trkpt><trkpt lat="37.8842417" lon="15.309245"><ele>52.0</ele><time>2026-04-28T15:16:22.204Z</time></trkpt><trkpt lat="37.88405" lon="15.30903"><ele>52.0</ele><time>2026-04-28T15:16:23.204Z</time></trkpt><trkpt lat="37.88386" lon="15.3088117"><ele>52.0</ele><time>2026-04-28T15:16:24.204Z</time></trkpt><trkpt lat="37.8836717" lon="15.308595"><ele>52.0</ele><time>2026-04-28T15:16:25.204Z</time></trkpt><trkpt lat="37.883485" lon="15.3083783"><ele>45.0</ele><time>2026-04-28T15:16:26.204Z</time></trkpt><trkpt lat="37.883305" lon="15.308165"><ele>38.0</ele><time>2026-04-28T15:16:27.204Z</time></trkpt><trkpt lat="37.883135" lon="15.307955"><ele>53.5</ele><time>2026-04-28T15:16:28.204Z</time></trkpt><trkpt lat="37.882975" lon="15.3077383"><ele>69.0</ele><time>2026-04-28T15:16:29.204Z</time></trkpt><trkpt lat="37.88283" lon="15.3075117"><ele>69.0</ele><time>2026-04-28T15:16:30.204Z</time></trkpt><trkpt lat="37.8826967" lon="15.3072783"><ele>69.0</ele><time>2026-04-28T15:16:31.204Z</time></trkpt><trkpt lat="37.8825733" lon="15.3070383"><ele>66.0</ele><time>2026-04-28T15:16:32.204Z</time></trkpt><trkpt lat="37.88246" lon="15.3068"><ele>63.0</ele><time>2026-04-28T15:16:33.204Z</time></trkpt><trkpt lat="37.8823483" lon="15.306565"><ele>60.0</ele><time>2026-04-28T15:16:34.204Z</time></trkpt><trkpt lat="37.88224" lon="15.3063333"><ele>57.0</ele><time>2026-04-28T15:16:35.205Z</time></trkpt><trkpt lat="37.882135" lon="15.3061067"><ele>54.0</ele><time>2026-04-28T15:16:36.204Z</time></trkpt><trkpt lat="37.8820317" lon="15.3058867"><ele>51.0</ele><time>2026-04-28T15:16:37.204Z</time></trkpt><trkpt lat="37.88193" lon="15.3056717"><ele>46.666666666666664</ele><time>2026-04-28T15:16:38.204Z</time></trkpt><trkpt lat="37.88183" lon="15.3054667"><ele>42.33333333333333</ele><time>2026-04-28T15:16:39.205Z</time></trkpt><trkpt lat="37.8817333" lon="15.3052683"><ele>38.0</ele><time>2026-04-28T15:16:40.204Z</time></trkpt><trkpt lat="37.8816333" lon="15.3050783"><ele>36.33333333333333</ele><time>2026-04-28T15:16:41.205Z</time></trkpt><trkpt lat="37.8815267" lon="15.3048967"><ele>34.666666666666664</ele><time>2026-04-28T15:16:42.204Z</time></trkpt><trkpt lat="37.8814183" lon="15.3047233"><ele>33.0</ele><time>2026-04-28T15:16:43.204Z</time></trkpt><trkpt lat="37.881305" lon="15.3045583"><ele>33.0</ele><time>2026-04-28T15:16:44.204Z</time></trkpt><trkpt lat="37.8811867" lon="15.3044"><ele>33.0</ele><time>2026-04-28T15:16:45.204Z</time></trkpt><trkpt lat="37.881065" lon="15.3042483"><ele>33.0</ele><time>2026-04-28T15:16:46.204Z</time></trkpt><trkpt lat="37.8809417" lon="15.3041033"><ele>33.0</ele><time>2026-04-28T15:16:47.204Z</time></trkpt><trkpt lat="37.8808133" lon="15.303965"><ele>33.0</ele><time>2026-04-28T15:16:48.204Z</time></trkpt><trkpt lat="37.8806783" lon="15.30383"><ele>33.0</ele><time>2026-04-28T15:16:49.204Z</time></trkpt><trkpt lat="37.880535" lon="15.3037017"><ele>30.333333333333336</ele><time>2026-04-28T15:16:50.204Z</time></trkpt><trkpt lat="37.8803833" lon="15.303575"><ele>27.666666666666668</ele><time>2026-04-28T15:16:51.204Z</time></trkpt><trkpt lat="37.8802283" lon="15.3034517"><ele>25.0</ele><time>2026-04-28T15:16:52.204Z</time></trkpt><trkpt lat="37.880065" lon="15.3033333"><ele>25.0</ele><time>2026-04-28T15:16:53.204Z</time></trkpt><trkpt lat="37.8798967" lon="15.303225"><ele>25.0</ele><time>2026-04-28T15:16:54.204Z</time></trkpt><trkpt lat="37.8797233" lon="15.3031233"><ele>25.0</ele><time>2026-04-28T15:16:55.205Z</time></trkpt><trkpt lat="37.8795433" lon="15.3030283"><ele>25.0</ele><time>2026-04-28T15:16:56.205Z</time></trkpt><trkpt lat="37.8793583" lon="15.3029367"><ele>25.0</ele><time>2026-04-28T15:16:57.204Z</time></trkpt><trkpt lat="37.8791717" lon="15.3028533"><ele>25.0</ele><time>2026-04-28T15:16:58.205Z</time></trkpt><trkpt lat="37.8789817" lon="15.3027683"><ele>29.333333333333336</ele><time>2026-04-28T15:16:59.204Z</time></trkpt><trkpt lat="37.87879" lon="15.30268"><ele>33.666666666666664</ele><time>2026-04-28T15:17:00.204Z</time></trkpt><trkpt lat="37.8785967" lon="15.3025917"><ele>38.0</ele><time>2026-04-28T15:17:01.204Z</time></trkpt><trkpt lat="37.878395" lon="15.3025"><ele>38.0</ele><time>2026-04-28T15:17:02.204Z</time></trkpt><trkpt lat="37.878205" lon="15.3024133"><ele>38.0</ele><time>2026-04-28T15:17:03.204Z</time></trkpt><trkpt lat="37.8780117" lon="15.302325"><ele>38.0</ele><time>2026-04-28T15:17:04.204Z</time></trkpt><trkpt lat="37.8778183" lon="15.30224"><ele>43.0</ele><time>2026-04-28T15:17:05.204Z</time></trkpt><trkpt lat="37.8776283" lon="15.3021583"><ele>48.0</ele><time>2026-04-28T15:17:06.204Z</time></trkpt><trkpt lat="37.8774383" lon="15.3020683"><ele>53.0</ele><time>2026-04-28T15:17:07.204Z</time></trkpt><trkpt lat="37.877245" lon="15.30198"><ele>53.0</ele><time>2026-04-28T15:17:08.204Z</time></trkpt><trkpt lat="37.8770517" lon="15.3018917"><ele>53.0</ele><time>2026-04-28T15:17:09.204Z</time></trkpt><trkpt lat="37.8768567" lon="15.3018017"><ele>53.0</ele><time>2026-04-28T15:17:10.204Z</time></trkpt><trkpt lat="37.8766583" lon="15.3017117"><ele>44.333333333333336</ele><time>2026-04-28T15:17:11.204Z</time></trkpt><trkpt lat="37.87646" lon="15.301625"><ele>35.66666666666667</ele><time>2026-04-28T15:17:12.204Z</time></trkpt><trkpt lat="37.8762617" lon="15.3015417"><ele>27.0</ele><time>2026-04-28T15:17:13.204Z</time></trkpt><trkpt lat="37.8760633" lon="15.3014583"><ele>33.0</ele><time>2026-04-28T15:17:14.204Z</time></trkpt><trkpt lat="37.875865" lon="15.3013733"><ele>39.0</ele><time>2026-04-28T15:17:15.204Z</time></trkpt><trkpt lat="37.875665" lon="15.3012867"><ele>45.0</ele><time>2026-04-28T15:17:16.204Z</time></trkpt><trkpt lat="37.8754583" lon="15.3012"><ele>45.0</ele><time>2026-04-28T15:17:17.204Z</time></trkpt><trkpt lat="37.8752467" lon="15.3011117"><ele>45.0</ele><time>2026-04-28T15:17:18.204Z</time></trkpt><trkpt lat="37.8750333" lon="15.3010183"><ele>45.0</ele><time>2026-04-28T15:17:19.204Z</time></trkpt><trkpt lat="37.8748167" lon="15.3009167"><ele>49.5</ele><time>2026-04-28T15:17:20.205Z</time></trkpt><trkpt lat="37.8745983" lon="15.30081"><ele>54.0</ele><time>2026-04-28T15:17:21.204Z</time></trkpt><trkpt lat="37.8743817" lon="15.3006933"><ele>56.5</ele><time>2026-04-28T15:17:22.204Z</time></trkpt><trkpt lat="37.874165" lon="15.3005667"><ele>59.0</ele><time>2026-04-28T15:17:23.204Z</time></trkpt><trkpt lat="37.87395" lon="15.3004317"><ele>59.0</ele><time>2026-04-28T15:17:24.204Z</time></trkpt><trkpt lat="37.873735" lon="15.3002917"><ele>59.0</ele><time>2026-04-28T15:17:25.204Z</time></trkpt><trkpt lat="37.87352" lon="15.30015"><ele>44.0</ele><time>2026-04-28T15:17:26.204Z</time></trkpt><trkpt lat="37.8733017" lon="15.300005"><ele>29.0</ele><time>2026-04-28T15:17:27.202Z</time></trkpt><trkpt lat="37.8730817" lon="15.2998567"><ele>40.0</ele><time>2026-04-28T15:17:28.204Z</time></trkpt><trkpt lat="37.8728617" lon="15.2997083"><ele>51.0</ele><time>2026-04-28T15:17:29.204Z</time></trkpt><trkpt lat="37.8726417" lon="15.2995617"><ele>44.0</ele><time>2026-04-28T15:17:30.204Z</time></trkpt><trkpt lat="37.87242" lon="15.2994217"><ele>37.0</ele><time>2026-04-28T15:17:31.204Z</time></trkpt><trkpt lat="37.872195" lon="15.2992883"><ele>37.0</ele><time>2026-04-28T15:17:32.204Z</time></trkpt><trkpt lat="37.87197" lon="15.2991633"><ele>37.0</ele><time>2026-04-28T15:17:33.204Z</time></trkpt><trkpt lat="37.8717433" lon="15.2990433"><ele>31.0</ele><time>2026-04-28T15:17:34.204Z</time></trkpt><trkpt lat="37.8715167" lon="15.2989283"><ele>25.0</ele><time>2026-04-28T15:17:35.205Z</time></trkpt><trkpt lat="37.87129" lon="15.298815"><ele>37.0</ele><time>2026-04-28T15:17:36.204Z</time></trkpt><trkpt lat="37.8710617" lon="15.2987033"><ele>49.0</ele><time>2026-04-28T15:17:37.204Z</time></trkpt><trkpt lat="37.8708317" lon="15.2985967"><ele>49.5</ele><time>2026-04-28T15:17:38.204Z</time></trkpt><trkpt lat="37.8706" lon="15.2984917"><ele>50.0</ele><time>2026-04-28T15:17:39.204Z</time></trkpt><trkpt lat="37.8703733" lon="15.2983867"><ele>50.0</ele><time>2026-04-28T15:17:40.205Z</time></trkpt><trkpt lat="37.8701567" lon="15.2982833"><ele>50.0</ele><time>2026-04-28T15:17:41.205Z</time></trkpt><trkpt lat="37.8699517" lon="15.2981833"><ele>44.0</ele><time>2026-04-28T15:17:42.204Z</time></trkpt><trkpt lat="37.8697517" lon="15.2980917"><ele>38.0</ele><time>2026-04-28T15:17:43.204Z</time></trkpt><trkpt lat="37.869555" lon="15.2979983"><ele>32.0</ele><time>2026-04-28T15:17:44.204Z</time></trkpt><trkpt lat="37.8693583" lon="15.2979033"><ele>39.666666666666664</ele><time>2026-04-28T15:17:45.205Z</time></trkpt><trkpt lat="37.8691683" lon="15.2978067"><ele>47.33333333333333</ele><time>2026-04-28T15:17:46.204Z</time></trkpt><trkpt lat="37.8689817" lon="15.2977067"><ele>55.0</ele><time>2026-04-28T15:17:47.204Z</time></trkpt><trkpt lat="37.868795" lon="15.2976033"><ele>55.0</ele><time>2026-04-28T15:17:48.204Z</time></trkpt><trkpt lat="37.8686067" lon="15.2975"><ele>55.0</ele><time>2026-04-28T15:17:49.204Z</time></trkpt><trkpt lat="37.8684217" lon="15.29739"><ele>55.0</ele><time>2026-04-28T15:17:50.204Z</time></trkpt><trkpt lat="37.8682383" lon="15.2972783"><ele>61.33333333333333</ele><time>2026-04-28T15:17:51.204Z</time></trkpt><trkpt lat="37.868055" lon="15.297165"><ele>67.66666666666667</ele><time>2026-04-28T15:17:52.204Z</time></trkpt><trkpt lat="37.8678717" lon="15.2970517"><ele>74.0</ele><time>2026-04-28T15:17:53.204Z</time></trkpt><trkpt lat="37.8676867" lon="15.2969367"><ele>70.0</ele><time>2026-04-28T15:17:54.204Z</time></trkpt><trkpt lat="37.8675" lon="15.296805"><ele>66.0</ele><time>2026-04-28T15:17:55.204Z</time></trkpt><trkpt lat="37.8673017" lon="15.2966867"><ele>62.0</ele><time>2026-04-28T15:17:56.204Z</time></trkpt><trkpt lat="37.867105" lon="15.296575"><ele>62.0</ele><time>2026-04-28T15:17:57.204Z</time></trkpt><trkpt lat="37.8669117" lon="15.29646"><ele>62.0</ele><time>2026-04-28T15:17:58.204Z</time></trkpt><trkpt lat="37.8667117" lon="15.2963533"><ele>62.0</ele><time>2026-04-28T15:17:59.204Z</time></trkpt><trkpt lat="37.8665083" lon="15.2962417"><ele>60.66666666666667</ele><time>2026-04-28T15:18:00.204Z</time></trkpt><trkpt lat="37.8663083" lon="15.2961317"><ele>59.33333333333333</ele><time>2026-04-28T15:18:01.204Z</time></trkpt><trkpt lat="37.8660967" lon="15.2960233"><ele>58.0</ele><time>2026-04-28T15:18:02.204Z</time></trkpt><trkpt lat="37.8658917" lon="15.2959167"><ele>55.5</ele><time>2026-04-28T15:18:03.204Z</time></trkpt><trkpt lat="37.8656783" lon="15.2958067"><ele>53.0</ele><time>2026-04-28T15:18:04.204Z</time></trkpt><trkpt lat="37.8654617" lon="15.2957017"><ele>53.0</ele><time>2026-04-28T15:18:05.204Z</time></trkpt><trkpt lat="37.865245" lon="15.2955883"><ele>53.0</ele><time>2026-04-28T15:18:06.205Z</time></trkpt><trkpt lat="37.8650267" lon="15.295475"><ele>62.0</ele><time>2026-04-28T15:18:07.204Z</time></trkpt><trkpt lat="37.86481" lon="15.2953583"><ele>71.0</ele><time>2026-04-28T15:18:08.205Z</time></trkpt><trkpt lat="37.8645883" lon="15.29524"><ele>71.0</ele><time>2026-04-28T15:18:09.204Z</time></trkpt><trkpt lat="37.8643667" lon="15.2951267"><ele>71.0</ele><time>2026-04-28T15:18:10.205Z</time></trkpt><trkpt lat="37.86414" lon="15.295005"><ele>61.0</ele><time>2026-04-28T15:18:11.204Z</time></trkpt><trkpt lat="37.8639183" lon="15.2948783"><ele>51.0</ele><time>2026-04-28T15:18:12.204Z</time></trkpt><trkpt lat="37.8637117" lon="15.29476"><ele>61.0</ele><time>2026-04-28T15:18:13.204Z</time></trkpt><trkpt lat="37.863505" lon="15.294645"><ele>71.0</ele><time>2026-04-28T15:18:14.204Z</time></trkpt><trkpt lat="37.863295" lon="15.2945367"><ele>71.0</ele><time>2026-04-28T15:18:15.204Z</time></trkpt><trkpt lat="37.863085" lon="15.2944333"><ele>71.0</ele><time>2026-04-28T15:18:16.204Z</time></trkpt><trkpt lat="37.8628633" lon="15.2943367"><ele>71.0</ele><time>2026-04-28T15:18:17.204Z</time></trkpt><trkpt lat="37.8626433" lon="15.2942317"><ele>71.0</ele><time>2026-04-28T15:18:18.204Z</time></trkpt><trkpt lat="37.862425" lon="15.2941283"><ele>78.5</ele><time>2026-04-28T15:18:19.204Z</time></trkpt><trkpt lat="37.862205" lon="15.294025"><ele>86.0</ele><time>2026-04-28T15:18:20.204Z</time></trkpt><trkpt lat="37.86198" lon="15.2939167"><ele>88.0</ele><time>2026-04-28T15:18:21.204Z</time></trkpt><trkpt lat="37.8618083" lon="15.2938533"><ele>90.0</ele><time>2026-04-28T15:18:22.204Z</time></trkpt><trkpt lat="37.8616083" lon="15.293705"><ele>92.0</ele><time>2026-04-28T15:18:23.204Z</time></trkpt><trkpt lat="37.8614067" lon="15.2935783"><ele>75.0</ele><time>2026-04-28T15:18:24.204Z</time></trkpt><trkpt lat="37.8612" lon="15.2934633"><ele>58.0</ele><time>2026-04-28T15:18:25.204Z</time></trkpt><trkpt lat="37.86099" lon="15.2933417"><ele>57.5</ele><time>2026-04-28T15:18:26.204Z</time></trkpt><trkpt lat="37.8607883" lon="15.2932117"><ele>57.0</ele><time>2026-04-28T15:18:27.204Z</time></trkpt><trkpt lat="37.86059" lon="15.2930717"><ele>57.0</ele><time>2026-04-28T15:18:28.204Z</time></trkpt><trkpt lat="37.8603883" lon="15.292925"><ele>57.0</ele><time>2026-04-28T15:18:29.204Z</time></trkpt><trkpt lat="37.8601867" lon="15.29277"><ele>62.5</ele><time>2026-04-28T15:18:30.204Z</time></trkpt><trkpt lat="37.8599867" lon="15.2926133"><ele>68.0</ele><time>2026-04-28T15:18:31.204Z</time></trkpt><trkpt lat="37.8597983" lon="15.2924517"><ele>68.0</ele><time>2026-04-28T15:18:32.204Z</time></trkpt><trkpt lat="37.859615" lon="15.292285"><ele>68.0</ele><time>2026-04-28T15:18:33.204Z</time></trkpt><trkpt lat="37.859435" lon="15.2921067"><ele>74.0</ele><time>2026-04-28T15:18:34.204Z</time></trkpt><trkpt lat="37.859255" lon="15.2919283"><ele>80.0</ele><time>2026-04-28T15:18:35.204Z</time></trkpt><trkpt lat="37.859075" lon="15.2917433"><ele>80.0</ele><time>2026-04-28T15:18:36.204Z</time></trkpt><trkpt lat="37.8589" lon="15.29155"><ele>80.0</ele><time>2026-04-28T15:18:37.204Z</time></trkpt><trkpt lat="37.85873" lon="15.2913467"><ele>91.0</ele><time>2026-04-28T15:18:38.204Z</time></trkpt><trkpt lat="37.8585683" lon="15.2911333"><ele>102.0</ele><time>2026-04-28T15:18:39.204Z</time></trkpt><trkpt lat="37.8583983" lon="15.29093"><ele>102.0</ele><time>2026-04-28T15:18:40.204Z</time></trkpt><trkpt lat="37.8582467" lon="15.2907183"><ele>102.0</ele><time>2026-04-28T15:18:41.204Z</time></trkpt><trkpt lat="37.8580933" lon="15.2904967"><ele>110.0</ele><time>2026-04-28T15:18:42.204Z</time></trkpt><trkpt lat="37.857935" lon="15.2902733"><ele>118.0</ele><time>2026-04-28T15:18:43.204Z</time></trkpt><trkpt lat="37.8577817" lon="15.290055"><ele>118.0</ele><time>2026-04-28T15:18:44.204Z</time></trkpt><trkpt lat="37.8576283" lon="15.2898383"><ele>118.0</ele><time>2026-04-28T15:18:45.204Z</time></trkpt><trkpt lat="37.8581282" lon="15.290487"><ele>78.0</ele><time>2026-04-28T15:19:22.902Z</time></trkpt><trkpt lat="37.850585" lon="15.2761567"><ele>78.0</ele><time>2026-04-28T15:19:31.204Z</time></trkpt><trkpt lat="37.85036" lon="15.2758767"><ele>78.0</ele><time>2026-04-28T15:19:32.205Z</time></trkpt><trkpt lat="37.8501367" lon="15.2756183"><ele>79.5</ele><time>2026-04-28T15:19:33.204Z</time></trkpt><trkpt lat="37.8499217" lon="15.27539"><ele>81.0</ele><time>2026-04-28T15:19:34.204Z</time></trkpt><trkpt lat="37.8497183" lon="15.2751567"><ele>81.0</ele><time>2026-04-28T15:19:35.204Z</time></trkpt><trkpt lat="37.849515" lon="15.27492"><ele>81.0</ele><time>2026-04-28T15:19:36.204Z</time></trkpt><trkpt lat="37.8493" lon="15.2746917"><ele>95.5</ele><time>2026-04-28T15:19:37.204Z</time></trkpt><trkpt lat="37.8490883" lon="15.2744667"><ele>110.0</ele><time>2026-04-28T15:19:38.205Z</time></trkpt><trkpt lat="37.8488717" lon="15.2742417"><ele>110.0</ele><time>2026-04-28T15:19:39.204Z</time></trkpt><trkpt lat="37.8486517" lon="15.2740233"><ele>110.0</ele><time>2026-04-28T15:19:40.205Z</time></trkpt><trkpt lat="37.8484283" lon="15.2738083"><ele>113.5</ele><time>2026-04-28T15:19:41.204Z</time></trkpt><trkpt lat="37.8482" lon="15.2735917"><ele>117.0</ele><time>2026-04-28T15:19:42.204Z</time></trkpt><trkpt lat="37.84797" lon="15.2733767"><ele>117.0</ele><time>2026-04-28T15:19:43.204Z</time></trkpt><trkpt lat="37.8477333" lon="15.2731667"><ele>117.0</ele><time>2026-04-28T15:19:44.204Z</time></trkpt><trkpt lat="37.847495" lon="15.27296"><ele>112.0</ele><time>2026-04-28T15:19:45.204Z</time></trkpt><trkpt lat="37.84725" lon="15.272755"><ele>107.0</ele><time>2026-04-28T15:19:46.204Z</time></trkpt><trkpt lat="37.847" lon="15.2725583"><ele>114.0</ele><time>2026-04-28T15:19:47.204Z</time></trkpt><trkpt lat="37.846755" lon="15.2723567"><ele>121.0</ele><time>2026-04-28T15:19:48.204Z</time></trkpt><trkpt lat="37.8465117" lon="15.2721517"><ele>133.0</ele><time>2026-04-28T15:19:49.204Z</time></trkpt><trkpt lat="37.8462683" lon="15.271945"><ele>145.0</ele><time>2026-04-28T15:19:50.204Z</time></trkpt><trkpt lat="37.8460233" lon="15.271735"><ele>135.5</ele><time>2026-04-28T15:19:51.204Z</time></trkpt><trkpt lat="37.84578" lon="15.2715267"><ele>126.0</ele><time>2026-04-28T15:19:52.204Z</time></trkpt><trkpt lat="37.841835" lon="15.2689267"><ele>116.5</ele><time>2026-04-28T15:20:07.205Z</time></trkpt><trkpt lat="37.8416017" lon="15.26874"><ele>107.0</ele><time>2026-04-28T15:20:08.206Z</time></trkpt><trkpt lat="37.8413867" lon="15.2685333"><ele>107.0</ele><time>2026-04-28T15:20:09.205Z</time></trkpt><trkpt lat="37.84118" lon="15.2683283"><ele>107.0</ele><time>2026-04-28T15:20:10.206Z</time></trkpt><trkpt lat="37.8410033" lon="15.2681117"><ele>99.0</ele><time>2026-04-28T15:20:11.205Z</time></trkpt><trkpt lat="37.8408167" lon="15.267875"><ele>91.0</ele><time>2026-04-28T15:20:12.205Z</time></trkpt><trkpt lat="37.8406517" lon="15.2676167"><ele>91.0</ele><time>2026-04-28T15:20:13.205Z</time></trkpt><trkpt lat="37.84048" lon="15.2673567"><ele>91.0</ele><time>2026-04-28T15:20:14.206Z</time></trkpt><trkpt lat="37.8403317" lon="15.2670833"><ele>85.5</ele><time>2026-04-28T15:20:15.205Z</time></trkpt><trkpt lat="37.8401983" lon="15.2667867"><ele>80.0</ele><time>2026-04-28T15:20:16.205Z</time></trkpt><trkpt lat="37.8400667" lon="15.2664917"><ele>63.0</ele><time>2026-04-28T15:20:17.205Z</time></trkpt><trkpt lat="37.8399617" lon="15.2661883"><ele>46.0</ele><time>2026-04-28T15:20:18.206Z</time></trkpt><trkpt lat="37.8398667" lon="15.2658717"><ele>59.5</ele><time>2026-04-28T15:20:19.205Z</time></trkpt><trkpt lat="37.8397817" lon="15.2655467"><ele>73.0</ele><time>2026-04-28T15:20:20.205Z</time></trkpt><trkpt lat="37.8397167" lon="15.26522"><ele>73.0</ele><time>2026-04-28T15:20:21.206Z</time></trkpt><trkpt lat="37.839655" lon="15.2648933"><ele>73.0</ele><time>2026-04-28T15:20:22.205Z</time></trkpt><trkpt lat="37.8396033" lon="15.2645617"><ele>82.0</ele><time>2026-04-28T15:20:23.205Z</time></trkpt><trkpt lat="37.83956" lon="15.2642183"><ele>91.0</ele><time>2026-04-28T15:20:24.205Z</time></trkpt><trkpt lat="37.8395217" lon="15.263865"><ele>93.0</ele><time>2026-04-28T15:20:25.206Z</time></trkpt><trkpt lat="37.8394783" lon="15.2635083"><ele>95.0</ele><time>2026-04-28T15:20:26.205Z</time></trkpt><trkpt lat="37.8394333" lon="15.263135"><ele>88.5</ele><time>2026-04-28T15:20:27.205Z</time></trkpt><trkpt lat="37.8393767" lon="15.2627683"><ele>82.0</ele><time>2026-04-28T15:20:28.205Z</time></trkpt><trkpt lat="37.8393133" lon="15.262405"><ele>72.0</ele><time>2026-04-28T15:20:29.205Z</time></trkpt><trkpt lat="37.839235" lon="15.26205"><ele>62.0</ele><time>2026-04-28T15:20:30.205Z</time></trkpt><trkpt lat="37.8391267" lon="15.2617"><ele>66.0</ele><time>2026-04-28T15:20:31.205Z</time></trkpt><trkpt lat="37.83901" lon="15.261365"><ele>70.0</ele><time>2026-04-28T15:20:32.205Z</time></trkpt><trkpt lat="37.83888" lon="15.261045"><ele>70.0</ele><time>2026-04-28T15:20:33.205Z</time></trkpt><trkpt lat="37.8387483" lon="15.2607467"><ele>70.0</ele><time>2026-04-28T15:20:34.206Z</time></trkpt><trkpt lat="37.8385933" lon="15.2604617"><ele>70.0</ele><time>2026-04-28T15:20:35.205Z</time></trkpt><trkpt lat="37.838435" lon="15.260215"><ele>70.0</ele><time>2026-04-28T15:20:36.205Z</time></trkpt><trkpt lat="37.8382783" lon="15.259985"><ele>76.5</ele><time>2026-04-28T15:20:37.205Z</time></trkpt><trkpt lat="37.83812" lon="15.2597733"><ele>83.0</ele><time>2026-04-28T15:20:38.205Z</time></trkpt><trkpt lat="37.837955" lon="15.25958"><ele>83.0</ele><time>2026-04-28T15:20:39.205Z</time></trkpt><trkpt lat="37.83779" lon="15.2594067"><ele>83.0</ele><time>2026-04-28T15:20:40.205Z</time></trkpt><trkpt lat="37.8376167" lon="15.2592483"><ele>83.0</ele><time>2026-04-28T15:20:41.205Z</time></trkpt><trkpt lat="37.8374367" lon="15.259095"><ele>77.0</ele><time>2026-04-28T15:20:42.205Z</time></trkpt><trkpt lat="37.8372517" lon="15.2589383"><ele>71.0</ele><time>2026-04-28T15:20:43.206Z</time></trkpt><trkpt lat="37.837065" lon="15.258795"><ele>65.0</ele><time>2026-04-28T15:20:44.205Z</time></trkpt><trkpt lat="37.8368817" lon="15.2586617"><ele>60.66666666666667</ele><time>2026-04-28T15:20:45.205Z</time></trkpt><trkpt lat="37.836705" lon="15.2585383"><ele>56.33333333333333</ele><time>2026-04-28T15:20:46.205Z</time></trkpt><trkpt lat="37.8365333" lon="15.2584117"><ele>52.0</ele><time>2026-04-28T15:20:47.205Z</time></trkpt><trkpt lat="37.836375" lon="15.2582867"><ele>52.0</ele><time>2026-04-28T15:20:48.205Z</time></trkpt><trkpt lat="37.8362117" lon="15.25815"><ele>52.0</ele><time>2026-04-28T15:20:49.205Z</time></trkpt><trkpt lat="37.8360483" lon="15.2580133"><ele>52.0</ele><time>2026-04-28T15:20:50.205Z</time></trkpt><trkpt lat="37.8358917" lon="15.2578833"><ele>53.666666666666664</ele><time>2026-04-28T15:20:51.205Z</time></trkpt><trkpt lat="37.8357283" lon="15.25774"><ele>55.33333333333333</ele><time>2026-04-28T15:20:52.205Z</time></trkpt><trkpt lat="37.8355783" lon="15.257595"><ele>57.0</ele><time>2026-04-28T15:20:53.205Z</time></trkpt><trkpt lat="37.83543" lon="15.25744"><ele>57.33333333333333</ele><time>2026-04-28T15:20:54.205Z</time></trkpt><trkpt lat="37.8352867" lon="15.2572783"><ele>57.666666666666664</ele><time>2026-04-28T15:20:55.205Z</time></trkpt><trkpt lat="37.835145" lon="15.257115"><ele>58.0</ele><time>2026-04-28T15:20:56.205Z</time></trkpt><trkpt lat="37.8350017" lon="15.2569567"><ele>57.33333333333333</ele><time>2026-04-28T15:20:57.205Z</time></trkpt><trkpt lat="37.834865" lon="15.2567967"><ele>56.66666666666667</ele><time>2026-04-28T15:20:58.205Z</time></trkpt><trkpt lat="37.8347483" lon="15.2566417"><ele>56.0</ele><time>2026-04-28T15:20:59.206Z</time></trkpt><trkpt lat="37.83463" lon="15.25647"><ele>55.66666666666667</ele><time>2026-04-28T15:21:00.205Z</time></trkpt><trkpt lat="37.8345283" lon="15.256295"><ele>55.33333333333333</ele><time>2026-04-28T15:21:01.205Z</time></trkpt><trkpt lat="37.8344383" lon="15.2561233"><ele>55.0</ele><time>2026-04-28T15:21:02.205Z</time></trkpt><trkpt lat="37.8343683" lon="15.255955"><ele>55.0</ele><time>2026-04-28T15:21:03.205Z</time></trkpt><trkpt lat="37.8343183" lon="15.2557733"><ele>55.0</ele><time>2026-04-28T15:21:04.205Z</time></trkpt><trkpt lat="37.8342817" lon="15.255585"><ele>55.0</ele><time>2026-04-28T15:21:05.205Z</time></trkpt><trkpt lat="37.83427" lon="15.2553933"><ele>55.33333333333333</ele><time>2026-04-28T15:21:06.205Z</time></trkpt><trkpt lat="37.8342933" lon="15.2551983"><ele>55.66666666666667</ele><time>2026-04-28T15:21:07.205Z</time></trkpt><trkpt lat="37.8343217" lon="15.2550033"><ele>56.0</ele><time>2026-04-28T15:21:08.205Z</time></trkpt><trkpt lat="37.83437" lon="15.2548117"><ele>58.66666666666667</ele><time>2026-04-28T15:21:09.205Z</time></trkpt><trkpt lat="37.834425" lon="15.2546017"><ele>61.33333333333333</ele><time>2026-04-28T15:21:10.205Z</time></trkpt><trkpt lat="37.8344633" lon="15.2544067"><ele>64.0</ele><time>2026-04-28T15:21:11.205Z</time></trkpt><trkpt lat="37.8345033" lon="15.254215"><ele>64.0</ele><time>2026-04-28T15:21:12.205Z</time></trkpt><trkpt lat="37.8345483" lon="15.2540217"><ele>64.0</ele><time>2026-04-28T15:21:13.205Z</time></trkpt><trkpt lat="37.834575" lon="15.2538433"><ele>64.0</ele><time>2026-04-28T15:21:14.205Z</time></trkpt><trkpt lat="37.8346" lon="15.253665"><ele>64.0</ele><time>2026-04-28T15:21:15.205Z</time></trkpt><trkpt lat="37.8346167" lon="15.253495"><ele>64.0</ele><time>2026-04-28T15:21:16.206Z</time></trkpt><trkpt lat="37.83461" lon="15.25334"><ele>64.0</ele><time>2026-04-28T15:21:17.206Z</time></trkpt><trkpt lat="37.8345783" lon="15.2532017"><ele>64.0</ele><time>2026-04-28T15:21:18.205Z</time></trkpt><trkpt lat="37.8345333" lon="15.253075"><ele>64.0</ele><time>2026-04-28T15:21:19.205Z</time></trkpt><trkpt lat="37.83447" lon="15.2529467"><ele>63.25</ele><time>2026-04-28T15:21:20.205Z</time></trkpt><trkpt lat="37.8343983" lon="15.2528283"><ele>62.5</ele><time>2026-04-28T15:21:21.205Z</time></trkpt><trkpt lat="37.8343" lon="15.25272"><ele>61.75</ele><time>2026-04-28T15:21:22.205Z</time></trkpt><trkpt lat="37.8341933" lon="15.2526467"><ele>61.0</ele><time>2026-04-28T15:21:23.205Z</time></trkpt><trkpt lat="37.834065" lon="15.2525967"><ele>61.0</ele><time>2026-04-28T15:21:24.205Z</time></trkpt><trkpt lat="37.8339233" lon="15.2525783"><ele>61.0</ele><time>2026-04-28T15:21:25.205Z</time></trkpt><trkpt lat="37.833775" lon="15.25258"><ele>61.0</ele><time>2026-04-28T15:21:26.205Z</time></trkpt><trkpt lat="37.8336233" lon="15.2526117"><ele>61.0</ele><time>2026-04-28T15:21:27.205Z</time></trkpt><trkpt lat="37.83349" lon="15.2526883"><ele>61.0</ele><time>2026-04-28T15:21:28.205Z</time></trkpt><trkpt lat="37.8333667" lon="15.2528017"><ele>61.0</ele><time>2026-04-28T15:21:29.206Z</time></trkpt><trkpt lat="37.8332533" lon="15.25294"><ele>61.0</ele><time>2026-04-28T15:21:30.205Z</time></trkpt><trkpt lat="37.8331533" lon="15.2531067"><ele>62.666666666666664</ele><time>2026-04-28T15:21:31.205Z</time></trkpt><trkpt lat="37.8330583" lon="15.253275"><ele>64.33333333333333</ele><time>2026-04-28T15:21:32.205Z</time></trkpt><trkpt lat="37.8329617" lon="15.253445"><ele>66.0</ele><time>2026-04-28T15:21:33.205Z</time></trkpt><trkpt lat="37.8328517" lon="15.25362"><ele>66.0</ele><time>2026-04-28T15:21:34.206Z</time></trkpt><trkpt lat="37.8327433" lon="15.2538067"><ele>66.0</ele><time>2026-04-28T15:21:35.205Z</time></trkpt><trkpt lat="37.8326383" lon="15.2539917"><ele>66.0</ele><time>2026-04-28T15:21:36.205Z</time></trkpt><trkpt lat="37.832525" lon="15.254165"><ele>62.66666666666667</ele><time>2026-04-28T15:21:37.205Z</time></trkpt><trkpt lat="37.8324167" lon="15.2543367"><ele>59.333333333333336</ele><time>2026-04-28T15:21:38.206Z</time></trkpt><trkpt lat="37.8323117" lon="15.254515"><ele>56.0</ele><time>2026-04-28T15:21:39.206Z</time></trkpt><trkpt lat="37.83221" lon="15.2546883"><ele>55.333333333333336</ele><time>2026-04-28T15:21:40.205Z</time></trkpt><trkpt lat="37.8321083" lon="15.25485"><ele>54.66666666666667</ele><time>2026-04-28T15:21:41.205Z</time></trkpt><trkpt lat="37.832005" lon="15.2550083"><ele>54.0</ele><time>2026-04-28T15:21:42.205Z</time></trkpt><trkpt lat="37.831895" lon="15.25516"><ele>52.33333333333333</ele><time>2026-04-28T15:21:43.206Z</time></trkpt><trkpt lat="37.8317767" lon="15.25531"><ele>50.666666666666664</ele><time>2026-04-28T15:21:44.205Z</time></trkpt><trkpt lat="37.8316467" lon="15.255455"><ele>49.0</ele><time>2026-04-28T15:21:45.205Z</time></trkpt><trkpt lat="37.8315083" lon="15.2556033"><ele>48.666666666666664</ele><time>2026-04-28T15:21:46.205Z</time></trkpt><trkpt lat="37.8313683" lon="15.2557433"><ele>48.33333333333333</ele><time>2026-04-28T15:21:47.205Z</time></trkpt><trkpt lat="37.8312267" lon="15.2558767"><ele>48.0</ele><time>2026-04-28T15:21:48.205Z</time></trkpt><trkpt lat="37.83108" lon="15.2560133"><ele>47.666666666666664</ele><time>2026-04-28T15:21:49.205Z</time></trkpt><trkpt lat="37.8309283" lon="15.2561533"><ele>47.33333333333333</ele><time>2026-04-28T15:21:50.205Z</time></trkpt><trkpt lat="37.8307817" lon="15.256295"><ele>47.0</ele><time>2026-04-28T15:21:51.206Z</time></trkpt><trkpt lat="37.8306367" lon="15.2564333"><ele>46.33333333333333</ele><time>2026-04-28T15:21:52.205Z</time></trkpt><trkpt lat="37.8305" lon="15.256565"><ele>45.666666666666664</ele><time>2026-04-28T15:21:53.205Z</time></trkpt><trkpt lat="37.830375" lon="15.2567033"><ele>45.0</ele><time>2026-04-28T15:21:54.205Z</time></trkpt><trkpt lat="37.8302467" lon="15.2568433"><ele>44.0</ele><time>2026-04-28T15:21:55.205Z</time></trkpt><trkpt lat="37.8301283" lon="15.25699"><ele>43.0</ele><time>2026-04-28T15:21:56.205Z</time></trkpt><trkpt lat="37.830005" lon="15.2571367"><ele>42.0</ele><time>2026-04-28T15:21:57.206Z</time></trkpt><trkpt lat="37.8298817" lon="15.2572933"><ele>42.0</ele><time>2026-04-28T15:21:58.206Z</time></trkpt><trkpt lat="37.8297633" lon="15.2574433"><ele>42.0</ele><time>2026-04-28T15:21:59.205Z</time></trkpt><trkpt lat="37.8296433" lon="15.257585"><ele>42.0</ele><time>2026-04-28T15:22:00.205Z</time></trkpt><trkpt lat="37.8295267" lon="15.2577317"><ele>42.0</ele><time>2026-04-28T15:22:01.205Z</time></trkpt><trkpt lat="37.829415" lon="15.2578767"><ele>42.0</ele><time>2026-04-28T15:22:02.205Z</time></trkpt><trkpt lat="37.8293117" lon="15.25802"><ele>42.0</ele><time>2026-04-28T15:22:03.205Z</time></trkpt><trkpt lat="37.8292133" lon="15.2581533"><ele>41.5</ele><time>2026-04-28T15:22:04.205Z</time></trkpt><trkpt lat="37.8291267" lon="15.2582783"><ele>41.0</ele><time>2026-04-28T15:22:05.205Z</time></trkpt><trkpt lat="37.82905" lon="15.2583883"><ele>40.5</ele><time>2026-04-28T15:22:06.205Z</time></trkpt><trkpt lat="37.828985" lon="15.2585"><ele>40.0</ele><time>2026-04-28T15:22:07.205Z</time></trkpt><trkpt lat="37.8289233" lon="15.2586083"><ele>40.0</ele><time>2026-04-28T15:22:08.205Z</time></trkpt><trkpt lat="37.82887" lon="15.25871"><ele>40.0</ele><time>2026-04-28T15:22:09.205Z</time></trkpt><trkpt lat="37.8288217" lon="15.2588017"><ele>40.0</ele><time>2026-04-28T15:22:10.206Z</time></trkpt><trkpt lat="37.8287717" lon="15.25889"><ele>40.0</ele><time>2026-04-28T15:22:11.205Z</time></trkpt><trkpt lat="37.8287233" lon="15.2589617"><ele>40.0</ele><time>2026-04-28T15:22:12.205Z</time></trkpt><trkpt lat="37.828675" lon="15.259025"><ele>40.0</ele><time>2026-04-28T15:22:13.205Z</time></trkpt><trkpt lat="37.8285883" lon="15.25913"><ele>40.4</ele><time>2026-04-28T15:22:15.205Z</time></trkpt><trkpt lat="37.8285" lon="15.25922"><ele>40.8</ele><time>2026-04-28T15:22:17.205Z</time></trkpt><trkpt lat="37.8284067" lon="15.2592817"><ele>41.2</ele><time>2026-04-28T15:22:19.206Z</time></trkpt><trkpt lat="37.82831" lon="15.2593083"><ele>41.6</ele><time>2026-04-28T15:22:21.205Z</time></trkpt><trkpt lat="37.8282033" lon="15.2593233"><ele>42.0</ele><time>2026-04-28T15:22:23.206Z</time></trkpt><trkpt lat="37.8281067" lon="15.2593633"><ele>40.6</ele><time>2026-04-28T15:22:25.205Z</time></trkpt><trkpt lat="37.8280483" lon="15.25942"><ele>39.2</ele><time>2026-04-28T15:22:27.205Z</time></trkpt><trkpt lat="37.827975" lon="15.259485"><ele>37.8</ele><time>2026-04-28T15:24:31.205Z</time></trkpt><trkpt lat="37.8279133" lon="15.2595717"><ele>36.4</ele><time>2026-04-28T15:24:33.205Z</time></trkpt><trkpt lat="37.8278417" lon="15.259695"><ele>35.0</ele><time>2026-04-28T15:24:35.205Z</time></trkpt><trkpt lat="37.827745" lon="15.2597817"><ele>34.666666666666664</ele><time>2026-04-28T15:24:37.205Z</time></trkpt><trkpt lat="37.8276317" lon="15.2598133"><ele>34.33333333333333</ele><time>2026-04-28T15:24:39.205Z</time></trkpt><trkpt lat="37.827545" lon="15.2598167"><ele>34.0</ele><time>2026-04-28T15:24:41.205Z</time></trkpt><trkpt lat="37.82744" lon="15.2598083"><ele>33.666666666666664</ele><time>2026-04-28T15:24:43.206Z</time></trkpt><trkpt lat="37.8273767" lon="15.2597883"><ele>33.333333333333336</ele><time>2026-04-28T15:24:44.205Z</time></trkpt><trkpt lat="37.8273067" lon="15.2597617"><ele>33.0</ele><time>2026-04-28T15:24:45.206Z</time></trkpt><trkpt lat="37.8272233" lon="15.259735"><ele>33.0</ele><time>2026-04-28T15:24:46.205Z</time></trkpt><trkpt lat="37.8271417" lon="15.2597083"><ele>33.0</ele><time>2026-04-28T15:24:47.205Z</time></trkpt><trkpt lat="37.8270483" lon="15.2597033"><ele>33.0</ele><time>2026-04-28T15:24:48.205Z</time></trkpt><trkpt lat="37.826955" lon="15.259725"><ele>33.0</ele><time>2026-04-28T15:24:49.205Z</time></trkpt><trkpt lat="37.82686" lon="15.2598"><ele>33.0</ele><time>2026-04-28T15:24:50.205Z</time></trkpt><trkpt lat="37.82677" lon="15.25991"><ele>33.0</ele><time>2026-04-28T15:24:51.205Z</time></trkpt><trkpt lat="37.8266883" lon="15.2600267"><ele>33.0</ele><time>2026-04-28T15:24:52.206Z</time></trkpt><trkpt lat="37.8265917" lon="15.2601517"><ele>33.0</ele><time>2026-04-28T15:24:53.206Z</time></trkpt><trkpt lat="37.8265017" lon="15.26029"><ele>33.0</ele><time>2026-04-28T15:24:54.206Z</time></trkpt><trkpt lat="37.8264533" lon="15.2604433"><ele>33.0</ele><time>2026-04-28T15:24:55.206Z</time></trkpt><trkpt lat="37.826435" lon="15.2606017"><ele>33.0</ele><time>2026-04-28T15:24:56.206Z</time></trkpt><trkpt lat="37.8264283" lon="15.2607633"><ele>33.0</ele><time>2026-04-28T15:24:57.205Z</time></trkpt><trkpt lat="37.8264333" lon="15.2609117"><ele>33.0</ele><time>2026-04-28T15:24:58.205Z</time></trkpt><trkpt lat="37.82646" lon="15.26105"><ele>32.6</ele><time>2026-04-28T15:24:59.205Z</time></trkpt><trkpt lat="37.8264917" lon="15.261175"><ele>32.199999999999996</ele><time>2026-04-28T15:25:00.206Z</time></trkpt><trkpt lat="37.8265317" lon="15.2613"><ele>31.8</ele><time>2026-04-28T15:25:01.206Z</time></trkpt><trkpt lat="37.8265617" lon="15.2614083"><ele>31.4</ele><time>2026-04-28T15:25:02.205Z</time></trkpt><trkpt lat="37.8265817" lon="15.261505"><ele>31.0</ele><time>2026-04-28T15:25:03.205Z</time></trkpt><trkpt lat="37.8265783" lon="15.261605"><ele>31.0</ele><time>2026-04-28T15:25:04.205Z</time></trkpt><trkpt lat="37.8265583" lon="15.2617033"><ele>31.0</ele><time>2026-04-28T15:25:05.206Z</time></trkpt><trkpt lat="37.82651" lon="15.2617967"><ele>31.0</ele><time>2026-04-28T15:25:06.205Z</time></trkpt><trkpt lat="37.8264483" lon="15.2619083"><ele>31.0</ele><time>2026-04-28T15:25:07.205Z</time></trkpt><trkpt lat="37.8263683" lon="15.2620233"><ele>31.0</ele><time>2026-04-28T15:25:08.206Z</time></trkpt><trkpt lat="37.8262917" lon="15.26213"><ele>31.0</ele><time>2026-04-28T15:25:09.205Z</time></trkpt><trkpt lat="37.8262133" lon="15.2622433"><ele>31.0</ele><time>2026-04-28T15:25:10.206Z</time></trkpt><trkpt lat="37.8261383" lon="15.2623717"><ele>31.0</ele><time>2026-04-28T15:25:11.205Z</time></trkpt><trkpt lat="37.82606" lon="15.2624883"><ele>31.0</ele><time>2026-04-28T15:25:12.205Z</time></trkpt><trkpt lat="37.8259817" lon="15.2625917"><ele>31.0</ele><time>2026-04-28T15:25:13.205Z</time></trkpt><trkpt lat="37.8259117" lon="15.2627033"><ele>31.0</ele><time>2026-04-28T15:25:14.205Z</time></trkpt><trkpt lat="37.82584" lon="15.2628167"><ele>31.0</ele><time>2026-04-28T15:25:15.205Z</time></trkpt><trkpt lat="37.8257733" lon="15.2629117"><ele>31.0</ele><time>2026-04-28T15:25:16.205Z</time></trkpt><trkpt lat="37.8257033" lon="15.2630117"><ele>31.0</ele><time>2026-04-28T15:25:17.206Z</time></trkpt><trkpt lat="37.82564" lon="15.263115"><ele>31.75</ele><time>2026-04-28T15:25:18.205Z</time></trkpt><trkpt lat="37.8255683" lon="15.2632183"><ele>32.5</ele><time>2026-04-28T15:25:19.205Z</time></trkpt><trkpt lat="37.8254933" lon="15.2633217"><ele>33.25</ele><time>2026-04-28T15:25:20.206Z</time></trkpt><trkpt lat="37.8254133" lon="15.2634367"><ele>34.0</ele><time>2026-04-28T15:25:21.205Z</time></trkpt><trkpt lat="37.825345" lon="15.26356"><ele>34.0</ele><time>2026-04-28T15:25:22.205Z</time></trkpt><trkpt lat="37.8252583" lon="15.26368"><ele>34.0</ele><time>2026-04-28T15:25:23.205Z</time></trkpt><trkpt lat="37.8251733" lon="15.2638167"><ele>34.0</ele><time>2026-04-28T15:25:24.205Z</time></trkpt><trkpt lat="37.8250883" lon="15.26396"><ele>34.0</ele><time>2026-04-28T15:25:25.206Z</time></trkpt><trkpt lat="37.8249867" lon="15.26411"><ele>33.333333333333336</ele><time>2026-04-28T15:25:26.205Z</time></trkpt><trkpt lat="37.8248883" lon="15.26427"><ele>32.666666666666664</ele><time>2026-04-28T15:25:27.205Z</time></trkpt><trkpt lat="37.8247833" lon="15.2644217"><ele>32.0</ele><time>2026-04-28T15:25:28.205Z</time></trkpt><trkpt lat="37.8246817" lon="15.264565"><ele>32.0</ele><time>2026-04-28T15:25:29.205Z</time></trkpt><trkpt lat="37.82459" lon="15.2647067"><ele>32.0</ele><time>2026-04-28T15:25:30.205Z</time></trkpt><trkpt lat="37.824505" lon="15.2648417"><ele>32.0</ele><time>2026-04-28T15:25:31.206Z</time></trkpt><trkpt lat="37.8244267" lon="15.2649767"><ele>32.0</ele><time>2026-04-28T15:25:32.205Z</time></trkpt><trkpt lat="37.824355" lon="15.2651167"><ele>31.0</ele><time>2026-04-28T15:25:33.205Z</time></trkpt><trkpt lat="37.8242933" lon="15.265255"><ele>30.0</ele><time>2026-04-28T15:25:34.205Z</time></trkpt><trkpt lat="37.82424" lon="15.2654033"><ele>29.0</ele><time>2026-04-28T15:25:35.205Z</time></trkpt><trkpt lat="37.8241917" lon="15.265545"><ele>28.0</ele><time>2026-04-28T15:25:36.205Z</time></trkpt><trkpt lat="37.8241433" lon="15.26569"><ele>27.2</ele><time>2026-04-28T15:25:37.205Z</time></trkpt><trkpt lat="37.8241017" lon="15.2658233"><ele>26.4</ele><time>2026-04-28T15:25:38.205Z</time></trkpt><trkpt lat="37.8240617" lon="15.2659567"><ele>25.599999999999998</ele><time>2026-04-28T15:25:39.205Z</time></trkpt><trkpt lat="37.8240217" lon="15.2660817"><ele>24.799999999999997</ele><time>2026-04-28T15:25:40.205Z</time></trkpt><trkpt lat="37.8239767" lon="15.2662067"><ele>24.0</ele><time>2026-04-28T15:25:41.205Z</time></trkpt><trkpt lat="37.8239367" lon="15.26633"><ele>23.4</ele><time>2026-04-28T15:25:42.205Z</time></trkpt><trkpt lat="37.8238983" lon="15.2664533"><ele>22.799999999999997</ele><time>2026-04-28T15:25:43.205Z</time></trkpt><trkpt lat="37.8238717" lon="15.2665767"><ele>22.200000000000003</ele><time>2026-04-28T15:25:44.205Z</time></trkpt><trkpt lat="37.823865" lon="15.2666917"><ele>21.6</ele><time>2026-04-28T15:25:45.205Z</time></trkpt><trkpt lat="37.8238667" lon="15.266805"><ele>21.0</ele><time>2026-04-28T15:25:46.205Z</time></trkpt><trkpt lat="37.8238817" lon="15.266915"><ele>21.0</ele><time>2026-04-28T15:25:47.205Z</time></trkpt><trkpt lat="37.823905" lon="15.2670233"><ele>21.0</ele><time>2026-04-28T15:25:48.206Z</time></trkpt><trkpt lat="37.8239417" lon="15.2671233"><ele>21.0</ele><time>2026-04-28T15:25:49.205Z</time></trkpt><trkpt lat="37.8239933" lon="15.2672083"><ele>21.0</ele><time>2026-04-28T15:25:50.205Z</time></trkpt><trkpt lat="37.824055" lon="15.2672883"><ele>21.0</ele><time>2026-04-28T15:25:51.205Z</time></trkpt><trkpt lat="37.8241433" lon="15.2673633"><ele>20.400000000000002</ele><time>2026-04-28T15:25:52.206Z</time></trkpt><trkpt lat="37.8242417" lon="15.2674133"><ele>19.8</ele><time>2026-04-28T15:25:53.206Z</time></trkpt><trkpt lat="37.82434" lon="15.2674467"><ele>19.200000000000003</ele><time>2026-04-28T15:25:54.205Z</time></trkpt><trkpt lat="37.824435" lon="15.2674517"><ele>18.6</ele><time>2026-04-28T15:25:55.205Z</time></trkpt><trkpt lat="37.8245217" lon="15.2674367"><ele>18.0</ele><time>2026-04-28T15:25:56.206Z</time></trkpt><trkpt lat="37.8246017" lon="15.26741"><ele>18.0</ele><time>2026-04-28T15:25:57.205Z</time></trkpt><trkpt lat="37.824675" lon="15.2673717"><ele>18.0</ele><time>2026-04-28T15:25:58.205Z</time></trkpt><trkpt lat="37.8247417" lon="15.26732"><ele>18.0</ele><time>2026-04-28T15:25:59.205Z</time></trkpt><trkpt lat="37.824805" lon="15.2672567"><ele>18.0</ele><time>2026-04-28T15:26:00.205Z</time></trkpt><trkpt lat="37.82487" lon="15.2671867"><ele>18.0</ele><time>2026-04-28T15:26:01.206Z</time></trkpt><trkpt lat="37.8249167" lon="15.267115"><ele>18.0</ele><time>2026-04-28T15:26:02.206Z</time></trkpt><trkpt lat="37.8249483" lon="15.2670433"><ele>18.333333333333332</ele><time>2026-04-28T15:26:03.205Z</time></trkpt><trkpt lat="37.8249783" lon="15.26697"><ele>18.666666666666668</ele><time>2026-04-28T15:26:04.205Z</time></trkpt><trkpt lat="37.8250083" lon="15.2668967"><ele>19.0</ele><time>2026-04-28T15:26:05.205Z</time></trkpt><trkpt lat="37.8250633" lon="15.2667667"><ele>19.333333333333336</ele><time>2026-04-28T15:26:07.205Z</time></trkpt><trkpt lat="37.8251133" lon="15.2666617"><ele>19.666666666666668</ele><time>2026-04-28T15:26:09.206Z</time></trkpt><trkpt lat="37.8251533" lon="15.26659"><ele>20.0</ele><time>2026-04-28T15:26:11.205Z</time></trkpt><trkpt lat="37.8251717" lon="15.2664983"><ele>19.8</ele><time>2026-04-28T15:26:15.205Z</time></trkpt><trkpt lat="37.825155" lon="15.26641"><ele>19.6</ele><time>2026-04-28T15:26:23.205Z</time></trkpt><trkpt lat="37.8250883" lon="15.2663033"><ele>19.4</ele><time>2026-04-28T15:26:25.205Z</time></trkpt><trkpt lat="37.825015" lon="15.2662433"><ele>19.2</ele><time>2026-04-28T15:26:26.205Z</time></trkpt><trkpt lat="37.8249233" lon="15.2661817"><ele>19.0</ele><time>2026-04-28T15:26:27.205Z</time></trkpt><trkpt lat="37.82481" lon="15.26612"><ele>19.5</ele><time>2026-04-28T15:26:28.205Z</time></trkpt><trkpt lat="37.8246967" lon="15.2660633"><ele>20.0</ele><time>2026-04-28T15:26:29.205Z</time></trkpt><trkpt lat="37.824595" lon="15.26601"><ele>20.5</ele><time>2026-04-28T15:26:30.205Z</time></trkpt><trkpt lat="37.8244917" lon="15.26596"><ele>21.0</ele><time>2026-04-28T15:26:31.205Z</time></trkpt><trkpt lat="37.8243833" lon="15.265905"><ele>21.75</ele><time>2026-04-28T15:26:32.205Z</time></trkpt><trkpt lat="37.82427" lon="15.26585"><ele>22.5</ele><time>2026-04-28T15:26:33.205Z</time></trkpt><trkpt lat="37.82416" lon="15.2657933"><ele>23.25</ele><time>2026-04-28T15:26:34.205Z</time></trkpt><trkpt lat="37.82403" lon="15.2657367"><ele>24.0</ele><time>2026-04-28T15:26:35.205Z</time></trkpt><trkpt lat="37.8239083" lon="15.2656767"><ele>24.0</ele><time>2026-04-28T15:26:36.205Z</time></trkpt><trkpt lat="37.8238133" lon="15.2656317"><ele>24.0</ele><time>2026-04-28T15:26:37.205Z</time></trkpt><trkpt lat="37.823715" lon="15.2655833"><ele>24.0</ele><time>2026-04-28T15:26:38.205Z</time></trkpt><trkpt lat="37.8236017" lon="15.265525"><ele>24.0</ele><time>2026-04-28T15:26:39.205Z</time></trkpt><trkpt lat="37.82349" lon="15.2654667"><ele>24.0</ele><time>2026-04-28T15:26:40.205Z</time></trkpt><trkpt lat="37.823365" lon="15.2653883"><ele>24.0</ele><time>2026-04-28T15:26:41.205Z</time></trkpt><trkpt lat="37.8232567" lon="15.26531"><ele>24.0</ele><time>2026-04-28T15:26:42.205Z</time></trkpt><trkpt lat="37.823165" lon="15.26523"><ele>24.0</ele><time>2026-04-28T15:26:43.205Z</time></trkpt><trkpt lat="37.8230817" lon="15.2651433"><ele>24.0</ele><time>2026-04-28T15:26:44.205Z</time></trkpt><trkpt lat="37.822995" lon="15.2650483"><ele>24.0</ele><time>2026-04-28T15:26:45.205Z</time></trkpt><trkpt lat="37.82291" lon="15.2649483"><ele>24.0</ele><time>2026-04-28T15:26:46.206Z</time></trkpt><trkpt lat="37.8228233" lon="15.2648533"><ele>24.0</ele><time>2026-04-28T15:26:47.206Z</time></trkpt><trkpt lat="37.8227483" lon="15.26476"><ele>23.4</ele><time>2026-04-28T15:26:48.205Z</time></trkpt><trkpt lat="37.8226767" lon="15.264665"><ele>22.799999999999997</ele><time>2026-04-28T15:26:49.205Z</time></trkpt><trkpt lat="37.8226067" lon="15.2645767"><ele>22.200000000000003</ele><time>2026-04-28T15:26:50.205Z</time></trkpt><trkpt lat="37.822535" lon="15.2644983"><ele>21.6</ele><time>2026-04-28T15:26:51.205Z</time></trkpt><trkpt lat="37.8224717" lon="15.2644233"><ele>21.0</ele><time>2026-04-28T15:26:52.205Z</time></trkpt><trkpt lat="37.8224083" lon="15.2643533"><ele>21.0</ele><time>2026-04-28T15:26:53.205Z</time></trkpt><trkpt lat="37.8223533" lon="15.2642767"><ele>21.0</ele><time>2026-04-28T15:26:54.206Z</time></trkpt><trkpt lat="37.8222883" lon="15.264195"><ele>21.0</ele><time>2026-04-28T15:26:55.205Z</time></trkpt><trkpt lat="37.822215" lon="15.2641033"><ele>21.0</ele><time>2026-04-28T15:26:56.205Z</time></trkpt><trkpt lat="37.8221233" lon="15.2639983"><ele>21.0</ele><time>2026-04-28T15:26:57.205Z</time></trkpt><trkpt lat="37.8220133" lon="15.2638667"><ele>21.333333333333332</ele><time>2026-04-28T15:26:58.206Z</time></trkpt><trkpt lat="37.8219" lon="15.263725"><ele>21.666666666666664</ele><time>2026-04-28T15:26:59.206Z</time></trkpt><trkpt lat="37.8217917" lon="15.2635783"><ele>22.0</ele><time>2026-04-28T15:27:00.205Z</time></trkpt><trkpt lat="37.8216817" lon="15.2634483"><ele>22.0</ele><time>2026-04-28T15:27:01.205Z</time></trkpt><trkpt lat="37.8215867" lon="15.26333"><ele>22.0</ele><time>2026-04-28T15:27:02.205Z</time></trkpt><trkpt lat="37.8214967" lon="15.2632017"><ele>22.0</ele><time>2026-04-28T15:27:03.205Z</time></trkpt><trkpt lat="37.8214167" lon="15.2630883"><ele>22.0</ele><time>2026-04-28T15:27:04.205Z</time></trkpt><trkpt lat="37.8213367" lon="15.2629683"><ele>21.8</ele><time>2026-04-28T15:27:05.205Z</time></trkpt><trkpt lat="37.8212733" lon="15.262865"><ele>21.6</ele><time>2026-04-28T15:27:06.206Z</time></trkpt><trkpt lat="37.8212133" lon="15.262755"><ele>21.400000000000002</ele><time>2026-04-28T15:27:07.206Z</time></trkpt><trkpt lat="37.82118" lon="15.2626517"><ele>21.200000000000003</ele><time>2026-04-28T15:27:08.205Z</time></trkpt><trkpt lat="37.8211467" lon="15.262555"><ele>21.0</ele><time>2026-04-28T15:27:09.205Z</time></trkpt><trkpt lat="37.8211167" lon="15.262445"><ele>21.0</ele><time>2026-04-28T15:27:10.205Z</time></trkpt><trkpt lat="37.82109" lon="15.2623517"><ele>21.0</ele><time>2026-04-28T15:27:11.205Z</time></trkpt><trkpt lat="37.8210617" lon="15.2622633"><ele>21.0</ele><time>2026-04-28T15:27:12.205Z</time></trkpt><trkpt lat="37.8210233" lon="15.2621433"><ele>21.0</ele><time>2026-04-28T15:27:14.205Z</time></trkpt><trkpt lat="37.821005" lon="15.262055"><ele>21.0</ele><time>2026-04-28T15:27:17.205Z</time></trkpt><trkpt lat="37.8209517" lon="15.2619983"><ele>21.0</ele><time>2026-04-28T15:27:23.205Z</time></trkpt><trkpt lat="37.82083" lon="15.2620217"><ele>21.0</ele><time>2026-04-28T15:27:25.205Z</time></trkpt><trkpt lat="37.8207517" lon="15.262065"><ele>21.0</ele><time>2026-04-28T15:27:26.205Z</time></trkpt><trkpt lat="37.8206667" lon="15.2621183"><ele>21.0</ele><time>2026-04-28T15:27:27.205Z</time></trkpt><trkpt lat="37.82057" lon="15.2621817"><ele>21.0</ele><time>2026-04-28T15:27:28.206Z</time></trkpt><trkpt lat="37.82046" lon="15.26224"><ele>21.0</ele><time>2026-04-28T15:27:29.205Z</time></trkpt><trkpt lat="37.8203483" lon="15.262305"><ele>21.5</ele><time>2026-04-28T15:27:30.205Z</time></trkpt><trkpt lat="37.82023" lon="15.2623667"><ele>22.0</ele><time>2026-04-28T15:27:31.205Z</time></trkpt><trkpt lat="37.8201183" lon="15.2624233"><ele>22.5</ele><time>2026-04-28T15:27:32.205Z</time></trkpt><trkpt lat="37.82002" lon="15.2624817"><ele>23.0</ele><time>2026-04-28T15:27:33.205Z</time></trkpt><trkpt lat="37.81992" lon="15.2625383"><ele>23.0</ele><time>2026-04-28T15:27:34.205Z</time></trkpt><trkpt lat="37.81982" lon="15.262595"><ele>23.0</ele><time>2026-04-28T15:27:35.205Z</time></trkpt><trkpt lat="37.8197283" lon="15.26265"><ele>23.0</ele><time>2026-04-28T15:27:36.206Z</time></trkpt><trkpt lat="37.8196483" lon="15.26268"><ele>23.0</ele><time>2026-04-28T15:27:37.205Z</time></trkpt><trkpt lat="37.81958" lon="15.2626967"><ele>23.0</ele><time>2026-04-28T15:27:38.206Z</time></trkpt><trkpt lat="37.8194867" lon="15.262675"><ele>23.0</ele><time>2026-04-28T15:27:40.205Z</time></trkpt><trkpt lat="37.8194217" lon="15.262645"><ele>23.0</ele><time>2026-04-28T15:27:42.205Z</time></trkpt><trkpt lat="37.819345" lon="15.2626367"><ele>23.0</ele><time>2026-04-28T15:27:46.206Z</time></trkpt><trkpt lat="37.8192883" lon="15.26268"><ele>23.0</ele><time>2026-04-28T15:27:50.206Z</time></trkpt><trkpt lat="37.819155" lon="15.26282"><ele>23.0</ele><time>2026-04-28T15:33:57.205Z</time></trkpt><trkpt lat="37.8190917" lon="15.2629117"><ele>22.599999999999998</ele><time>2026-04-28T15:33:59.205Z</time></trkpt><trkpt lat="37.81898" lon="15.26301"><ele>22.2</ele><time>2026-04-28T15:34:01.205Z</time></trkpt><trkpt lat="37.8189017" lon="15.2630583"><ele>21.8</ele><time>2026-04-28T15:34:02.205Z</time></trkpt><trkpt lat="37.8188133" lon="15.26312"><ele>21.4</ele><time>2026-04-28T15:34:03.206Z</time></trkpt><trkpt lat="37.8187233" lon="15.2631917"><ele>21.0</ele><time>2026-04-28T15:34:04.205Z</time></trkpt><trkpt lat="37.8186583" lon="15.2632833"><ele>21.0</ele><time>2026-04-28T15:34:05.205Z</time></trkpt><trkpt lat="37.8186017" lon="15.2633983"><ele>21.0</ele><time>2026-04-28T15:34:06.205Z</time></trkpt><trkpt lat="37.8185567" lon="15.263505"><ele>21.0</ele><time>2026-04-28T15:34:07.206Z</time></trkpt><trkpt lat="37.81852" lon="15.2636217"><ele>21.0</ele><time>2026-04-28T15:34:08.205Z</time></trkpt><trkpt lat="37.8184967" lon="15.26374"><ele>21.0</ele><time>2026-04-28T15:34:09.205Z</time></trkpt><trkpt lat="37.8184933" lon="15.26387"><ele>20.8</ele><time>2026-04-28T15:34:10.205Z</time></trkpt><trkpt lat="37.8184967" lon="15.2640067"><ele>20.6</ele><time>2026-04-28T15:34:11.205Z</time></trkpt><trkpt lat="37.8185133" lon="15.264145"><ele>20.4</ele><time>2026-04-28T15:34:12.205Z</time></trkpt><trkpt lat="37.8185533" lon="15.2642783"><ele>20.2</ele><time>2026-04-28T15:34:13.206Z</time></trkpt><trkpt lat="37.81859" lon="15.2644033"><ele>20.0</ele><time>2026-04-28T15:34:14.205Z</time></trkpt><trkpt lat="37.8186283" lon="15.264515"><ele>20.0</ele><time>2026-04-28T15:34:15.205Z</time></trkpt><trkpt lat="37.81867" lon="15.2646267"><ele>20.0</ele><time>2026-04-28T15:34:16.205Z</time></trkpt><trkpt lat="37.818705" lon="15.264735"><ele>20.0</ele><time>2026-04-28T15:34:17.205Z</time></trkpt><trkpt lat="37.818735" lon="15.2648483"><ele>20.0</ele><time>2026-04-28T15:34:18.206Z</time></trkpt><trkpt lat="37.8187433" lon="15.264965"><ele>20.0</ele><time>2026-04-28T15:34:19.205Z</time></trkpt><trkpt lat="37.8187417" lon="15.2650917"><ele>19.6</ele><time>2026-04-28T15:34:20.205Z</time></trkpt><trkpt lat="37.8187267" lon="15.26522"><ele>19.2</ele><time>2026-04-28T15:34:21.205Z</time></trkpt><trkpt lat="37.8187033" lon="15.2653483"><ele>18.8</ele><time>2026-04-28T15:34:22.205Z</time></trkpt><trkpt lat="37.8186633" lon="15.2654817"><ele>18.4</ele><time>2026-04-28T15:34:23.206Z</time></trkpt><trkpt lat="37.8186267" lon="15.2656117"><ele>18.0</ele><time>2026-04-28T15:34:24.205Z</time></trkpt><trkpt lat="37.8185933" lon="15.26574"><ele>18.0</ele><time>2026-04-28T15:34:25.205Z</time></trkpt><trkpt lat="37.81857" lon="15.2658617"><ele>18.0</ele><time>2026-04-28T15:34:26.205Z</time></trkpt><trkpt lat="37.818545" lon="15.26597"><ele>18.0</ele><time>2026-04-28T15:34:27.205Z</time></trkpt><trkpt lat="37.81852" lon="15.2660683"><ele>18.0</ele><time>2026-04-28T15:34:28.205Z</time></trkpt><trkpt lat="37.8185" lon="15.2661583"><ele>18.0</ele><time>2026-04-28T15:34:29.206Z</time></trkpt><trkpt lat="37.8184633" lon="15.266285"><ele>17.6</ele><time>2026-04-28T15:34:31.205Z</time></trkpt><trkpt lat="37.8184517" lon="15.2663867"><ele>17.200000000000003</ele><time>2026-04-28T15:34:34.205Z</time></trkpt><trkpt lat="37.8185117" lon="15.2664583"><ele>16.8</ele><time>2026-04-28T15:34:36.205Z</time></trkpt><trkpt lat="37.818645" lon="15.2665067"><ele>16.400000000000002</ele><time>2026-04-28T15:34:38.205Z</time></trkpt><trkpt lat="37.818735" lon="15.2665367"><ele>16.0</ele><time>2026-04-28T15:34:39.205Z</time></trkpt><trkpt lat="37.8188433" lon="15.2665683"><ele>16.0</ele><time>2026-04-28T15:34:40.205Z</time></trkpt><trkpt lat="37.8189583" lon="15.2666033"><ele>16.0</ele><time>2026-04-28T15:34:41.206Z</time></trkpt><trkpt lat="37.8190717" lon="15.2666367"><ele>16.0</ele><time>2026-04-28T15:34:42.205Z</time></trkpt><trkpt lat="37.8191833" lon="15.26667"><ele>16.0</ele><time>2026-04-28T15:34:43.206Z</time></trkpt><trkpt lat="37.8192967" lon="15.2667233"><ele>16.0</ele><time>2026-04-28T15:34:44.205Z</time></trkpt><trkpt lat="37.8194117" lon="15.2667583"><ele>16.0</ele><time>2026-04-28T15:34:45.205Z</time></trkpt><trkpt lat="37.8195283" lon="15.2667933"><ele>16.0</ele><time>2026-04-28T15:34:46.205Z</time></trkpt><trkpt lat="37.8196367" lon="15.266825"><ele>16.0</ele><time>2026-04-28T15:34:47.205Z</time></trkpt><trkpt lat="37.81974" lon="15.26685"><ele>16.0</ele><time>2026-04-28T15:34:48.206Z</time></trkpt><trkpt lat="37.8198383" lon="15.2668817"><ele>16.0</ele><time>2026-04-28T15:34:49.205Z</time></trkpt><trkpt lat="37.8199333" lon="15.2669083"><ele>16.0</ele><time>2026-04-28T15:34:50.205Z</time></trkpt><trkpt lat="37.8200267" lon="15.266935"><ele>16.0</ele><time>2026-04-28T15:34:51.205Z</time></trkpt><trkpt lat="37.820115" lon="15.2669717"><ele>16.0</ele><time>2026-04-28T15:34:52.205Z</time></trkpt><trkpt lat="37.8201983" lon="15.267005"><ele>15.999999999999998</ele><time>2026-04-28T15:34:53.205Z</time></trkpt><trkpt lat="37.8202783" lon="15.2670217"><ele>16.0</ele><time>2026-04-28T15:34:54.205Z</time></trkpt><trkpt lat="37.8203517" lon="15.2670567"><ele>16.0</ele><time>2026-04-28T15:34:55.206Z</time></trkpt><trkpt lat="37.8204183" lon="15.267115"><ele>16.0</ele><time>2026-04-28T15:34:56.205Z</time></trkpt><trkpt lat="37.8204867" lon="15.2671733"><ele>15.999999999999998</ele><time>2026-04-28T15:34:57.206Z</time></trkpt><trkpt lat="37.820555" lon="15.2672267"><ele>16.0</ele><time>2026-04-28T15:34:58.205Z</time></trkpt><trkpt lat="37.8206283" lon="15.2672867"><ele>15.999999999999998</ele><time>2026-04-28T15:34:59.205Z</time></trkpt><trkpt lat="37.8206967" lon="15.2673467"><ele>16.0</ele><time>2026-04-28T15:35:00.205Z</time></trkpt><trkpt lat="37.8207683" lon="15.2673983"><ele>16.0</ele><time>2026-04-28T15:35:01.205Z</time></trkpt><trkpt lat="37.820835" lon="15.26747"><ele>16.0</ele><time>2026-04-28T15:35:02.205Z</time></trkpt><trkpt lat="37.8209017" lon="15.26753"><ele>15.999999999999998</ele><time>2026-04-28T15:35:03.205Z</time></trkpt><trkpt lat="37.820965" lon="15.26761"><ele>16.0</ele><time>2026-04-28T15:35:04.205Z</time></trkpt><trkpt lat="37.821025" lon="15.2676933"><ele>16.0</ele><time>2026-04-28T15:35:05.206Z</time></trkpt><trkpt lat="37.8210783" lon="15.2677783"><ele>16.0</ele><time>2026-04-28T15:35:06.206Z</time></trkpt><trkpt lat="37.82113" lon="15.2678783"><ele>16.0</ele><time>2026-04-28T15:35:07.205Z</time></trkpt><trkpt lat="37.8211817" lon="15.2679867"><ele>16.0</ele><time>2026-04-28T15:35:08.205Z</time></trkpt><trkpt lat="37.8212367" lon="15.268105"><ele>16.0</ele><time>2026-04-28T15:35:09.205Z</time></trkpt><trkpt lat="37.82128" lon="15.2682233"><ele>15.8</ele><time>2026-04-28T15:35:10.205Z</time></trkpt><trkpt lat="37.8213233" lon="15.268345"><ele>15.600000000000001</ele><time>2026-04-28T15:35:11.205Z</time></trkpt><trkpt lat="37.8213667" lon="15.2684717"><ele>15.4</ele><time>2026-04-28T15:35:12.206Z</time></trkpt><trkpt lat="37.82141" lon="15.2685917"><ele>15.2</ele><time>2026-04-28T15:35:13.205Z</time></trkpt><trkpt lat="37.8214533" lon="15.2687183"><ele>15.0</ele><time>2026-04-28T15:35:14.205Z</time></trkpt><trkpt lat="37.821505" lon="15.2688417"><ele>15.0</ele><time>2026-04-28T15:35:15.206Z</time></trkpt><trkpt lat="37.821555" lon="15.268975"><ele>15.0</ele><time>2026-04-28T15:35:16.205Z</time></trkpt><trkpt lat="37.821605" lon="15.2691183"><ele>15.0</ele><time>2026-04-28T15:35:17.205Z</time></trkpt><trkpt lat="37.8216583" lon="15.26928"><ele>15.0</ele><time>2026-04-28T15:35:18.205Z</time></trkpt><trkpt lat="37.8217183" lon="15.2694367"><ele>15.0</ele><time>2026-04-28T15:35:19.205Z</time></trkpt><trkpt lat="37.82178" lon="15.2695867"><ele>15.0</ele><time>2026-04-28T15:35:20.205Z</time></trkpt><trkpt lat="37.8218467" lon="15.2697267"><ele>15.0</ele><time>2026-04-28T15:35:21.205Z</time></trkpt><trkpt lat="37.82192" lon="15.2698483"><ele>15.0</ele><time>2026-04-28T15:35:22.205Z</time></trkpt><trkpt lat="37.822" lon="15.2699467"><ele>14.8</ele><time>2026-04-28T15:35:23.205Z</time></trkpt><trkpt lat="37.822085" lon="15.2700283"><ele>14.6</ele><time>2026-04-28T15:35:24.205Z</time></trkpt><trkpt lat="37.822175" lon="15.270095"><ele>14.399999999999999</ele><time>2026-04-28T15:35:25.206Z</time></trkpt><trkpt lat="37.8222717" lon="15.2701533"><ele>14.2</ele><time>2026-04-28T15:35:26.205Z</time></trkpt><trkpt lat="37.8223717" lon="15.2702017"><ele>14.0</ele><time>2026-04-28T15:35:27.205Z</time></trkpt><trkpt lat="37.8224617" lon="15.270245"><ele>14.000000000000002</ele><time>2026-04-28T15:35:28.205Z</time></trkpt><trkpt lat="37.8225417" lon="15.27028"><ele>14.0</ele><time>2026-04-28T15:35:29.206Z</time></trkpt><trkpt lat="37.8226117" lon="15.270315"><ele>14.0</ele><time>2026-04-28T15:35:30.205Z</time></trkpt><trkpt lat="37.82269" lon="15.2703517"><ele>14.0</ele><time>2026-04-28T15:35:31.205Z</time></trkpt><trkpt lat="37.82277" lon="15.2703867"><ele>14.000000000000002</ele><time>2026-04-28T15:35:32.206Z</time></trkpt><trkpt lat="37.8228567" lon="15.2704233"><ele>14.0</ele><time>2026-04-28T15:35:33.205Z</time></trkpt><trkpt lat="37.822945" lon="15.27046"><ele>14.333333333333334</ele><time>2026-04-28T15:35:34.205Z</time></trkpt><trkpt lat="37.8230317" lon="15.27048"><ele>14.666666666666668</ele><time>2026-04-28T15:35:35.205Z</time></trkpt><trkpt lat="37.8231183" lon="15.27048"><ele>15.0</ele><time>2026-04-28T15:35:36.205Z</time></trkpt><trkpt lat="37.8232083" lon="15.270475"><ele>15.333333333333332</ele><time>2026-04-28T15:35:37.205Z</time></trkpt><trkpt lat="37.8232883" lon="15.2704417"><ele>15.666666666666666</ele><time>2026-04-28T15:35:38.205Z</time></trkpt><trkpt lat="37.8233633" lon="15.2704033"><ele>16.0</ele><time>2026-04-28T15:35:39.206Z</time></trkpt><trkpt lat="37.823425" lon="15.27037"><ele>15.833333333333332</ele><time>2026-04-28T15:35:40.205Z</time></trkpt><trkpt lat="37.823485" lon="15.270345"><ele>15.666666666666666</ele><time>2026-04-28T15:35:41.206Z</time></trkpt><trkpt lat="37.82358" lon="15.2703133"><ele>15.5</ele><time>2026-04-28T15:35:43.206Z</time></trkpt><trkpt lat="37.8236533" lon="15.27035"><ele>15.333333333333332</ele><time>2026-04-28T15:35:45.206Z</time></trkpt><trkpt lat="37.8237367" lon="15.27046"><ele>15.166666666666666</ele><time>2026-04-28T15:35:47.205Z</time></trkpt><trkpt lat="37.82377" lon="15.2705283"><ele>15.0</ele><time>2026-04-28T15:35:48.206Z</time></trkpt><trkpt lat="37.8237983" lon="15.2706633"><ele>13.833333333333334</ele><time>2026-04-28T15:35:50.205Z</time></trkpt><trkpt lat="37.8238383" lon="15.270765"><ele>12.666666666666666</ele><time>2026-04-28T15:35:52.206Z</time></trkpt><trkpt lat="37.8238667" lon="15.2708617"><ele>11.5</ele><time>2026-04-28T15:35:54.205Z</time></trkpt><trkpt lat="37.8238917" lon="15.2709533"><ele>10.333333333333332</ele><time>2026-04-28T15:35:57.205Z</time></trkpt><trkpt lat="37.8239083" lon="15.271045"><ele>9.166666666666666</ele><time>2026-04-28T15:36:00.205Z</time></trkpt><trkpt lat="37.8238533" lon="15.2711417"><ele>8.0</ele><time>2026-04-28T15:36:02.205Z</time></trkpt><trkpt lat="37.823805" lon="15.2712933"><ele>7.2</ele><time>2026-04-28T15:36:04.205Z</time></trkpt><trkpt lat="37.82379" lon="15.2714583"><ele>6.4</ele><time>2026-04-28T15:36:06.205Z</time></trkpt><trkpt lat="37.8238" lon="15.2715517"><ele>5.6000000000000005</ele><time>2026-04-28T15:36:07.205Z</time></trkpt><trkpt lat="37.823825" lon="15.2716533"><ele>4.800000000000001</ele><time>2026-04-28T15:36:08.205Z</time></trkpt><trkpt lat="37.8238467" lon="15.27177"><ele>4.0</ele><time>2026-04-28T15:36:09.205Z</time></trkpt><trkpt lat="37.823865" lon="15.2718967"><ele>4.0</ele><time>2026-04-28T15:36:10.205Z</time></trkpt><trkpt lat="37.82388" lon="15.2720317"><ele>4.0</ele><time>2026-04-28T15:36:11.205Z</time></trkpt><trkpt lat="37.8238967" lon="15.2721733"><ele>4.0</ele><time>2026-04-28T15:36:12.205Z</time></trkpt><trkpt lat="37.8239133" lon="15.2723267"><ele>4.0</ele><time>2026-04-28T15:36:13.205Z</time></trkpt><trkpt lat="37.8239283" lon="15.2724817"><ele>3.8000000000000003</ele><time>2026-04-28T15:36:14.205Z</time></trkpt><trkpt lat="37.823945" lon="15.27263"><ele>3.6000000000000005</ele><time>2026-04-28T15:36:15.205Z</time></trkpt><trkpt lat="37.8239633" lon="15.272775"><ele>3.4</ele><time>2026-04-28T15:36:16.205Z</time></trkpt><trkpt lat="37.8239783" lon="15.27291"><ele>3.2</ele><time>2026-04-28T15:36:17.205Z</time></trkpt><trkpt lat="37.823995" lon="15.2730333"><ele>3.0</ele><time>2026-04-28T15:36:18.205Z</time></trkpt><trkpt lat="37.8240083" lon="15.2731567"><ele>3.0</ele><time>2026-04-28T15:36:19.206Z</time></trkpt><trkpt lat="37.8240233" lon="15.273275"><ele>3.0</ele><time>2026-04-28T15:36:20.206Z</time></trkpt><trkpt lat="37.8240383" lon="15.2733833"><ele>3.0</ele><time>2026-04-28T15:36:21.205Z</time></trkpt><trkpt lat="37.8240483" lon="15.273475"><ele>3.0</ele><time>2026-04-28T15:36:22.205Z</time></trkpt><trkpt lat="37.8240667" lon="15.2735583"><ele>3.0</ele><time>2026-04-28T15:36:23.205Z</time></trkpt><trkpt lat="37.8240867" lon="15.2736483"><ele>3.0</ele><time>2026-04-28T15:36:24.205Z</time></trkpt><trkpt lat="37.8241183" lon="15.2737367"><ele>3.0</ele><time>2026-04-28T15:36:25.205Z</time></trkpt><trkpt lat="37.82417" lon="15.2738283"><ele>3.0</ele><time>2026-04-28T15:36:26.205Z</time></trkpt><trkpt lat="37.8242333" lon="15.2739167"><ele>3.0</ele><time>2026-04-28T15:36:27.205Z</time></trkpt><trkpt lat="37.8242933" lon="15.2739967"><ele>3.0</ele><time>2026-04-28T15:36:28.206Z</time></trkpt><trkpt lat="37.824365" lon="15.274065"><ele>3.0</ele><time>2026-04-28T15:36:29.205Z</time></trkpt><trkpt lat="37.8244267" lon="15.2741233"><ele>3.0</ele><time>2026-04-28T15:36:30.206Z</time></trkpt><trkpt lat="37.8244883" lon="15.2741767"><ele>2.5</ele><time>2026-04-28T15:36:31.206Z</time></trkpt><trkpt lat="37.8245433" lon="15.27423"><ele>2.0</ele><time>2026-04-28T15:36:32.205Z</time></trkpt><trkpt lat="37.8246167" lon="15.2743017"><ele>1.5</ele><time>2026-04-28T15:36:34.205Z</time></trkpt><trkpt lat="37.8246717" lon="15.2744083"><ele>1.0</ele><time>2026-04-28T15:36:45.205Z</time></trkpt><trkpt lat="37.824685" lon="15.274505"><ele>0.5</ele><time>2026-04-28T15:36:47.205Z</time></trkpt><trkpt lat="37.8246583" lon="15.2746017"><ele>0.0</ele><time>2026-04-28T15:36:49.205Z</time></trkpt><trkpt lat="37.8245767" lon="15.2746733"><ele>0.0</ele><time>2026-04-28T15:36:51.206Z</time></trkpt><trkpt lat="37.8244833" lon="15.2747183"><ele>0.0</ele><time>2026-04-28T15:36:53.205Z</time></trkpt><trkpt lat="37.8243867" lon="15.274755"><ele>0.0</ele><time>2026-04-28T15:36:55.205Z</time></trkpt><trkpt lat="37.8242917" lon="15.2748033"><ele>0.0</ele><time>2026-04-28T15:36:57.205Z</time></trkpt><trkpt lat="37.8241933" lon="15.2748433"><ele>0.0</ele><time>2026-04-28T15:36:59.205Z</time></trkpt><trkpt lat="37.8240883" lon="15.2748783"><ele>0.5</ele><time>2026-04-28T15:37:01.206Z</time></trkpt><trkpt lat="37.8239767" lon="15.27492"><ele>1.0</ele><time>2026-04-28T15:37:03.205Z</time></trkpt><trkpt lat="37.823885" lon="15.27495"><ele>1.5</ele><time>2026-04-28T15:37:05.205Z</time></trkpt><trkpt lat="37.823815" lon="15.2749517"><ele>2.0</ele><time>2026-04-28T15:37:08.206Z</time></trkpt><trkpt lat="37.8238633" lon="15.27501"><ele>2.5</ele><time>2026-04-28T15:38:26.205Z</time></trkpt><trkpt lat="37.8239317" lon="15.2749767"><ele>3.0</ele><time>2026-04-28T15:38:28.205Z</time></trkpt><trkpt lat="37.8240133" lon="15.2749417"><ele>3.0</ele><time>2026-04-28T15:38:30.205Z</time></trkpt><trkpt lat="37.8241" lon="15.2749167"><ele>3.0</ele><time>2026-04-28T15:38:32.205Z</time></trkpt><trkpt lat="37.8241817" lon="15.2748817"><ele>3.0</ele><time>2026-04-28T15:38:34.205Z</time></trkpt><trkpt lat="37.8242517" lon="15.2748517"><ele>3.0</ele><time>2026-04-28T15:38:36.205Z</time></trkpt><trkpt lat="37.82431" lon="15.2748183"><ele>3.0</ele><time>2026-04-28T15:38:38.205Z</time></trkpt><trkpt lat="37.824365" lon="15.2747633"><ele>3.0</ele><time>2026-04-28T15:38:40.205Z</time></trkpt><trkpt lat="37.824435" lon="15.2747983"><ele>2.6666666666666665</ele><time>2026-04-28T15:53:30.206Z</time></trkpt><trkpt lat="37.8245117" lon="15.2747817"><ele>2.3333333333333335</ele><time>2026-04-28T15:53:32.207Z</time></trkpt><trkpt lat="37.824595" lon="15.2747517"><ele>2.0</ele><time>2026-04-28T15:53:34.206Z</time></trkpt><trkpt lat="37.8246667" lon="15.274715"><ele>1.6666666666666665</ele><time>2026-04-28T15:53:36.206Z</time></trkpt><trkpt lat="37.8247167" lon="15.2746633"><ele>1.3333333333333333</ele><time>2026-04-28T15:53:39.206Z</time></trkpt><trkpt lat="37.8247417" lon="15.2745633"><ele>1.0</ele><time>2026-04-28T15:53:52.206Z</time></trkpt><trkpt lat="37.8247317" lon="15.2744633"><ele>0.8333333333333333</ele><time>2026-04-28T15:53:54.206Z</time></trkpt><trkpt lat="37.8247133" lon="15.2743733"><ele>0.6666666666666666</ele><time>2026-04-28T15:53:56.206Z</time></trkpt><trkpt lat="37.8246717" lon="15.2742883"><ele>0.5</ele><time>2026-04-28T15:53:58.206Z</time></trkpt><trkpt lat="37.8245867" lon="15.2742117"><ele>0.3333333333333333</ele><time>2026-04-28T15:54:00.206Z</time></trkpt><trkpt lat="37.8245333" lon="15.274165"><ele>0.16666666666666666</ele><time>2026-04-28T15:54:01.206Z</time></trkpt><trkpt lat="37.8244783" lon="15.2741183"><ele>0.0</ele><time>2026-04-28T15:54:02.206Z</time></trkpt><trkpt lat="37.8244183" lon="15.2740683"><ele>0.0</ele><time>2026-04-28T15:54:03.206Z</time></trkpt><trkpt lat="37.82436" lon="15.27402"><ele>0.0</ele><time>2026-04-28T15:54:04.206Z</time></trkpt><trkpt lat="37.8243033" lon="15.2739683"><ele>0.0</ele><time>2026-04-28T15:54:05.206Z</time></trkpt><trkpt lat="37.8242483" lon="15.2739117"><ele>0.0</ele><time>2026-04-28T15:54:06.207Z</time></trkpt><trkpt lat="37.8242033" lon="15.273845"><ele>0.0</ele><time>2026-04-28T15:54:07.206Z</time></trkpt><trkpt lat="37.8241667" lon="15.2737683"><ele>0.0</ele><time>2026-04-28T15:54:08.206Z</time></trkpt><trkpt lat="37.8241383" lon="15.2736917"><ele>0.0</ele><time>2026-04-28T15:54:09.206Z</time></trkpt><trkpt lat="37.824115" lon="15.2736067"><ele>0.42857142857142855</ele><time>2026-04-28T15:54:10.206Z</time></trkpt><trkpt lat="37.8240933" lon="15.273515"><ele>0.8571428571428571</ele><time>2026-04-28T15:54:11.206Z</time></trkpt><trkpt lat="37.8240733" lon="15.273425"><ele>1.2857142857142856</ele><time>2026-04-28T15:54:12.206Z</time></trkpt><trkpt lat="37.82406" lon="15.2733333"><ele>1.7142857142857142</ele><time>2026-04-28T15:54:13.206Z</time></trkpt><trkpt lat="37.8240467" lon="15.2732417"><ele>2.142857142857143</ele><time>2026-04-28T15:54:14.206Z</time></trkpt><trkpt lat="37.82403" lon="15.2731467"><ele>2.571428571428571</ele><time>2026-04-28T15:54:15.206Z</time></trkpt><trkpt lat="37.824015" lon="15.2730633"><ele>3.0</ele><time>2026-04-28T15:54:16.206Z</time></trkpt><trkpt lat="37.8240083" lon="15.272975"><ele>2.9999999999999996</ele><time>2026-04-28T15:54:17.206Z</time></trkpt><trkpt lat="37.8239933" lon="15.2728817"><ele>3.0</ele><time>2026-04-28T15:54:18.206Z</time></trkpt><trkpt lat="37.8239867" lon="15.27279"><ele>3.0</ele><time>2026-04-28T15:54:19.206Z</time></trkpt><trkpt lat="37.8239683" lon="15.2727033"><ele>3.0</ele><time>2026-04-28T15:54:20.206Z</time></trkpt><trkpt lat="37.8239617" lon="15.2726133"><ele>3.0</ele><time>2026-04-28T15:54:21.206Z</time></trkpt><trkpt lat="37.82395" lon="15.2725167"><ele>2.9999999999999996</ele><time>2026-04-28T15:54:22.206Z</time></trkpt><trkpt lat="37.82394" lon="15.272415"><ele>3.0</ele><time>2026-04-28T15:54:23.206Z</time></trkpt><trkpt lat="37.8239317" lon="15.2723167"><ele>3.1666666666666665</ele><time>2026-04-28T15:54:24.206Z</time></trkpt><trkpt lat="37.8239183" lon="15.2722283"><ele>3.333333333333333</ele><time>2026-04-28T15:54:25.206Z</time></trkpt><trkpt lat="37.8239067" lon="15.2721433"><ele>3.5</ele><time>2026-04-28T15:54:26.206Z</time></trkpt><trkpt lat="37.823895" lon="15.2720633"><ele>3.6666666666666665</ele><time>2026-04-28T15:54:27.207Z</time></trkpt><trkpt lat="37.8238933" lon="15.2719733"><ele>3.833333333333333</ele><time>2026-04-28T15:54:28.206Z</time></trkpt><trkpt lat="37.8238883" lon="15.2718267"><ele>4.0</ele><time>2026-04-28T15:54:30.207Z</time></trkpt><trkpt lat="37.82387" lon="15.2716967"><ele>4.0</ele><time>2026-04-28T15:54:32.206Z</time></trkpt><trkpt lat="37.8238567" lon="15.271565"><ele>4.0</ele><time>2026-04-28T15:54:34.206Z</time></trkpt><trkpt lat="37.823845" lon="15.2714467"><ele>4.0</ele><time>2026-04-28T15:54:36.207Z</time></trkpt><trkpt lat="37.8238567" lon="15.27135"><ele>4.0</ele><time>2026-04-28T15:54:38.207Z</time></trkpt><trkpt lat="37.8238867" lon="15.2712517"><ele>4.0</ele><time>2026-04-28T15:54:40.206Z</time></trkpt><trkpt lat="37.82393" lon="15.2711367"><ele>4.800000000000001</ele><time>2026-04-28T15:54:42.207Z</time></trkpt><trkpt lat="37.8239767" lon="15.27102"><ele>5.6000000000000005</ele><time>2026-04-28T15:54:44.206Z</time></trkpt><trkpt lat="37.824025" lon="15.2709333"><ele>6.4</ele><time>2026-04-28T15:54:46.206Z</time></trkpt><trkpt lat="37.8240333" lon="15.270835"><ele>7.2</ele><time>2026-04-28T15:54:48.206Z</time></trkpt><trkpt lat="37.8239933" lon="15.27073"><ele>8.0</ele><time>2026-04-28T15:54:50.206Z</time></trkpt><trkpt lat="37.8239517" lon="15.2706067"><ele>9.166666666666666</ele><time>2026-04-28T15:54:52.206Z</time></trkpt><trkpt lat="37.8239283" lon="15.2705317"><ele>10.333333333333332</ele><time>2026-04-28T15:54:53.206Z</time></trkpt><trkpt lat="37.8238783" lon="15.2704"><ele>11.5</ele><time>2026-04-28T15:54:55.207Z</time></trkpt><trkpt lat="37.82384" lon="15.2702983"><ele>12.666666666666666</ele><time>2026-04-28T15:54:57.206Z</time></trkpt><trkpt lat="37.8238033" lon="15.2702267"><ele>13.833333333333334</ele><time>2026-04-28T15:55:02.206Z</time></trkpt><trkpt lat="37.823705" lon="15.2702283"><ele>15.0</ele><time>2026-04-28T15:55:05.206Z</time></trkpt><trkpt lat="37.8236333" lon="15.27023"><ele>15.0</ele><time>2026-04-28T15:55:07.206Z</time></trkpt><trkpt lat="37.8236217" lon="15.2701183"><ele>15.0</ele><time>2026-04-28T15:55:10.206Z</time></trkpt><trkpt lat="37.8236533" lon="15.2699817"><ele>15.0</ele><time>2026-04-28T15:55:12.206Z</time></trkpt><trkpt lat="37.82367" lon="15.2698567"><ele>15.0</ele><time>2026-04-28T15:55:14.206Z</time></trkpt><trkpt lat="37.8236583" lon="15.2697783"><ele>15.0</ele><time>2026-04-28T15:55:15.207Z</time></trkpt><trkpt lat="37.823645" lon="15.26968"><ele>15.0</ele><time>2026-04-28T15:55:16.206Z</time></trkpt><trkpt lat="37.82363" lon="15.2695867"><ele>15.0</ele><time>2026-04-28T15:55:17.206Z</time></trkpt><trkpt lat="37.82362" lon="15.2694917"><ele>15.0</ele><time>2026-04-28T15:55:18.206Z</time></trkpt><trkpt lat="37.8236317" lon="15.2693933"><ele>15.0</ele><time>2026-04-28T15:55:19.206Z</time></trkpt><trkpt lat="37.82365" lon="15.26929"><ele>15.0</ele><time>2026-04-28T15:55:20.206Z</time></trkpt><trkpt lat="37.8236733" lon="15.2691817"><ele>15.0</ele><time>2026-04-28T15:55:21.206Z</time></trkpt><trkpt lat="37.8236967" lon="15.2690767"><ele>15.0</ele><time>2026-04-28T15:55:22.206Z</time></trkpt><trkpt lat="37.8237133" lon="15.2689767"><ele>15.2</ele><time>2026-04-28T15:55:23.206Z</time></trkpt><trkpt lat="37.8237267" lon="15.2688633"><ele>15.4</ele><time>2026-04-28T15:55:24.207Z</time></trkpt><trkpt lat="37.8237333" lon="15.2687433"><ele>15.600000000000001</ele><time>2026-04-28T15:55:25.207Z</time></trkpt><trkpt lat="37.8237333" lon="15.2686183"><ele>15.8</ele><time>2026-04-28T15:55:26.206Z</time></trkpt><trkpt lat="37.8237233" lon="15.2684917"><ele>16.0</ele><time>2026-04-28T15:55:27.206Z</time></trkpt><trkpt lat="37.8237" lon="15.26837"><ele>16.0</ele><time>2026-04-28T15:55:28.206Z</time></trkpt><trkpt lat="37.8236783" lon="15.2682517"><ele>16.0</ele><time>2026-04-28T15:55:29.206Z</time></trkpt><trkpt lat="37.82364" lon="15.26813"><ele>16.0</ele><time>2026-04-28T15:55:30.206Z</time></trkpt><trkpt lat="37.8236" lon="15.2680083"><ele>16.0</ele><time>2026-04-28T15:55:31.206Z</time></trkpt><trkpt lat="37.82355" lon="15.26789"><ele>16.0</ele><time>2026-04-28T15:55:32.206Z</time></trkpt><trkpt lat="37.823505" lon="15.267765"><ele>16.8</ele><time>2026-04-28T15:55:33.206Z</time></trkpt><trkpt lat="37.8234567" lon="15.267635"><ele>17.6</ele><time>2026-04-28T15:55:34.206Z</time></trkpt><trkpt lat="37.8234217" lon="15.26751"><ele>18.4</ele><time>2026-04-28T15:55:35.206Z</time></trkpt><trkpt lat="37.8233767" lon="15.2673933"><ele>19.2</ele><time>2026-04-28T15:55:36.207Z</time></trkpt><trkpt lat="37.82332" lon="15.2672667"><ele>20.0</ele><time>2026-04-28T15:55:37.206Z</time></trkpt><trkpt lat="37.8232633" lon="15.267135"><ele>21.0</ele><time>2026-04-28T15:55:38.207Z</time></trkpt><trkpt lat="37.8232083" lon="15.2670017"><ele>22.0</ele><time>2026-04-28T15:55:39.206Z</time></trkpt><trkpt lat="37.8231567" lon="15.26687"><ele>23.0</ele><time>2026-04-28T15:55:40.207Z</time></trkpt><trkpt lat="37.8231167" lon="15.266745"><ele>24.0</ele><time>2026-04-28T15:55:41.206Z</time></trkpt><trkpt lat="37.8230833" lon="15.266625"><ele>25.0</ele><time>2026-04-28T15:55:42.206Z</time></trkpt><trkpt lat="37.8230483" lon="15.266515"><ele>25.0</ele><time>2026-04-28T15:55:43.206Z</time></trkpt><trkpt lat="37.8230283" lon="15.2663967"><ele>25.0</ele><time>2026-04-28T15:55:44.206Z</time></trkpt><trkpt lat="37.82302" lon="15.266285"><ele>25.0</ele><time>2026-04-28T15:55:45.206Z</time></trkpt><trkpt lat="37.8230167" lon="15.2661717"><ele>25.0</ele><time>2026-04-28T15:55:46.206Z</time></trkpt><trkpt lat="37.8230383" lon="15.26605"><ele>25.0</ele><time>2026-04-28T15:55:47.206Z</time></trkpt><trkpt lat="37.8230633" lon="15.2659217"><ele>25.000000000000004</ele><time>2026-04-28T15:55:48.206Z</time></trkpt><trkpt lat="37.8230933" lon="15.2658"><ele>25.0</ele><time>2026-04-28T15:55:49.207Z</time></trkpt><trkpt lat="37.8231383" lon="15.2656917"><ele>25.0</ele><time>2026-04-28T15:55:50.206Z</time></trkpt><trkpt lat="37.8231783" lon="15.2656017"><ele>25.0</ele><time>2026-04-28T15:55:51.206Z</time></trkpt><trkpt lat="37.8232133" lon="15.265525"><ele>25.000000000000004</ele><time>2026-04-28T15:55:52.206Z</time></trkpt><trkpt lat="37.82326" lon="15.2654267"><ele>25.0</ele><time>2026-04-28T15:55:54.206Z</time></trkpt><trkpt lat="37.82323" lon="15.265305"><ele>24.8</ele><time>2026-04-28T15:55:58.207Z</time></trkpt><trkpt lat="37.8231817" lon="15.2652367"><ele>24.6</ele><time>2026-04-28T15:55:59.206Z</time></trkpt><trkpt lat="37.82311" lon="15.2651533"><ele>24.4</ele><time>2026-04-28T15:56:00.206Z</time></trkpt><trkpt lat="37.8230167" lon="15.26506"><ele>24.2</ele><time>2026-04-28T15:56:01.206Z</time></trkpt><trkpt lat="37.8229133" lon="15.2649533"><ele>24.0</ele><time>2026-04-28T15:56:02.206Z</time></trkpt><trkpt lat="37.822815" lon="15.2648417"><ele>23.25</ele><time>2026-04-28T15:56:03.206Z</time></trkpt><trkpt lat="37.8227233" lon="15.2647183"><ele>22.5</ele><time>2026-04-28T15:56:04.206Z</time></trkpt><trkpt lat="37.8226317" lon="15.2646017"><ele>21.75</ele><time>2026-04-28T15:56:05.206Z</time></trkpt><trkpt lat="37.8225467" lon="15.2644983"><ele>21.0</ele><time>2026-04-28T15:56:06.206Z</time></trkpt><trkpt lat="37.822465" lon="15.264395"><ele>21.0</ele><time>2026-04-28T15:56:07.206Z</time></trkpt><trkpt lat="37.8223917" lon="15.264305"><ele>21.0</ele><time>2026-04-28T15:56:08.207Z</time></trkpt><trkpt lat="37.82232" lon="15.2642133"><ele>21.0</ele><time>2026-04-28T15:56:09.206Z</time></trkpt><trkpt lat="37.8222467" lon="15.26413"><ele>21.0</ele><time>2026-04-28T15:56:10.206Z</time></trkpt><trkpt lat="37.8221767" lon="15.264045"><ele>21.0</ele><time>2026-04-28T15:56:11.207Z</time></trkpt><trkpt lat="37.8221117" lon="15.2639633"><ele>21.200000000000003</ele><time>2026-04-28T15:56:12.206Z</time></trkpt><trkpt lat="37.8220433" lon="15.26388"><ele>21.400000000000002</ele><time>2026-04-28T15:56:13.206Z</time></trkpt><trkpt lat="37.8219717" lon="15.2637983"><ele>21.6</ele><time>2026-04-28T15:56:14.207Z</time></trkpt><trkpt lat="37.8219033" lon="15.2637117"><ele>21.8</ele><time>2026-04-28T15:56:15.207Z</time></trkpt><trkpt lat="37.82183" lon="15.2636233"><ele>22.0</ele><time>2026-04-28T15:56:16.207Z</time></trkpt><trkpt lat="37.821755" lon="15.263545"><ele>22.0</ele><time>2026-04-28T15:56:17.206Z</time></trkpt><trkpt lat="37.8216867" lon="15.2634617"><ele>22.0</ele><time>2026-04-28T15:56:18.206Z</time></trkpt><trkpt lat="37.8216233" lon="15.2633833"><ele>22.0</ele><time>2026-04-28T15:56:19.206Z</time></trkpt><trkpt lat="37.8215617" lon="15.2633017"><ele>22.0</ele><time>2026-04-28T15:56:20.206Z</time></trkpt><trkpt lat="37.8214983" lon="15.2632183"><ele>22.0</ele><time>2026-04-28T15:56:21.207Z</time></trkpt><trkpt lat="37.8214383" lon="15.2631317"><ele>21.833333333333332</ele><time>2026-04-28T15:56:22.206Z</time></trkpt><trkpt lat="37.8213817" lon="15.26305"><ele>21.666666666666664</ele><time>2026-04-28T15:56:23.206Z</time></trkpt><trkpt lat="37.8213333" lon="15.2629633"><ele>21.5</ele><time>2026-04-28T15:56:24.207Z</time></trkpt><trkpt lat="37.8212833" lon="15.2628633"><ele>21.333333333333332</ele><time>2026-04-28T15:56:25.207Z</time></trkpt><trkpt lat="37.8212483" lon="15.262765"><ele>21.166666666666668</ele><time>2026-04-28T15:56:26.207Z</time></trkpt><trkpt lat="37.8212217" lon="15.2626733"><ele>21.0</ele><time>2026-04-28T15:56:27.206Z</time></trkpt><trkpt lat="37.8211933" lon="15.2625733"><ele>21.0</ele><time>2026-04-28T15:56:28.206Z</time></trkpt><trkpt lat="37.82117" lon="15.2624917"><ele>21.0</ele><time>2026-04-28T15:56:29.206Z</time></trkpt><trkpt lat="37.82115" lon="15.2624033"><ele>21.0</ele><time>2026-04-28T15:56:30.206Z</time></trkpt><trkpt lat="37.82113" lon="15.2623167"><ele>21.0</ele><time>2026-04-28T15:56:31.206Z</time></trkpt><trkpt lat="37.8210967" lon="15.2622183"><ele>21.0</ele><time>2026-04-28T15:56:32.206Z</time></trkpt><trkpt lat="37.8210683" lon="15.2621133"><ele>21.0</ele><time>2026-04-28T15:56:33.206Z</time></trkpt><trkpt lat="37.8210367" lon="15.262005"><ele>21.0</ele><time>2026-04-28T15:56:34.206Z</time></trkpt><trkpt lat="37.8209917" lon="15.2618783"><ele>21.0</ele><time>2026-04-28T15:56:35.206Z</time></trkpt><trkpt lat="37.8209467" lon="15.2617417"><ele>21.0</ele><time>2026-04-28T15:56:36.206Z</time></trkpt><trkpt lat="37.8208933" lon="15.2615883"><ele>21.0</ele><time>2026-04-28T15:56:37.206Z</time></trkpt><trkpt lat="37.82084" lon="15.2614333"><ele>21.5</ele><time>2026-04-28T15:56:38.207Z</time></trkpt><trkpt lat="37.8207967" lon="15.2612767"><ele>22.0</ele><time>2026-04-28T15:56:39.206Z</time></trkpt><trkpt lat="37.82075" lon="15.26112"><ele>22.5</ele><time>2026-04-28T15:56:40.206Z</time></trkpt><trkpt lat="37.8206983" lon="15.2609467"><ele>23.0</ele><time>2026-04-28T15:56:41.206Z</time></trkpt><trkpt lat="37.82065" lon="15.260785"><ele>23.0</ele><time>2026-04-28T15:56:42.206Z</time></trkpt><trkpt lat="37.820595" lon="15.2606233"><ele>23.0</ele><time>2026-04-28T15:56:43.206Z</time></trkpt><trkpt lat="37.8205483" lon="15.2604583"><ele>23.0</ele><time>2026-04-28T15:56:44.206Z</time></trkpt><trkpt lat="37.8205033" lon="15.2602933"><ele>23.0</ele><time>2026-04-28T15:56:45.206Z</time></trkpt><trkpt lat="37.8204717" lon="15.2601317"><ele>23.0</ele><time>2026-04-28T15:56:46.206Z</time></trkpt><trkpt lat="37.8204367" lon="15.259955"><ele>23.0</ele><time>2026-04-28T15:56:47.206Z</time></trkpt><trkpt lat="37.8203983" lon="15.2597933"><ele>23.0</ele><time>2026-04-28T15:56:48.207Z</time></trkpt><trkpt lat="37.8203733" lon="15.25962"><ele>23.0</ele><time>2026-04-28T15:56:49.206Z</time></trkpt><trkpt lat="37.8203367" lon="15.2594517"><ele>23.5</ele><time>2026-04-28T15:56:50.206Z</time></trkpt><trkpt lat="37.8203233" lon="15.259295"><ele>24.0</ele><time>2026-04-28T15:56:51.207Z</time></trkpt><trkpt lat="37.8203083" lon="15.259145"><ele>24.5</ele><time>2026-04-28T15:56:52.207Z</time></trkpt><trkpt lat="37.8202917" lon="15.25899"><ele>25.0</ele><time>2026-04-28T15:56:53.206Z</time></trkpt><trkpt lat="37.820295" lon="15.2588383"><ele>25.2</ele><time>2026-04-28T15:56:54.206Z</time></trkpt><trkpt lat="37.820285" lon="15.258695"><ele>25.4</ele><time>2026-04-28T15:56:55.206Z</time></trkpt><trkpt lat="37.820275" lon="15.2585517"><ele>25.6</ele><time>2026-04-28T15:56:56.206Z</time></trkpt><trkpt lat="37.820275" lon="15.2584217"><ele>25.8</ele><time>2026-04-28T15:56:57.207Z</time></trkpt><trkpt lat="37.82028" lon="15.2582933"><ele>26.0</ele><time>2026-04-28T15:56:58.206Z</time></trkpt><trkpt lat="37.8202817" lon="15.2581733"><ele>25.833333333333332</ele><time>2026-04-28T15:56:59.206Z</time></trkpt><trkpt lat="37.82028" lon="15.2580583"><ele>25.666666666666664</ele><time>2026-04-28T15:57:00.207Z</time></trkpt><trkpt lat="37.8202833" lon="15.2579467"><ele>25.5</ele><time>2026-04-28T15:57:01.206Z</time></trkpt><trkpt lat="37.82029" lon="15.25784"><ele>25.333333333333336</ele><time>2026-04-28T15:57:02.206Z</time></trkpt><trkpt lat="37.8203017" lon="15.25773"><ele>25.166666666666668</ele><time>2026-04-28T15:57:03.206Z</time></trkpt><trkpt lat="37.8203117" lon="15.2576267"><ele>25.0</ele><time>2026-04-28T15:57:04.206Z</time></trkpt><trkpt lat="37.82032" lon="15.2575267"><ele>25.000000000000004</ele><time>2026-04-28T15:57:05.206Z</time></trkpt><trkpt lat="37.820325" lon="15.25743"><ele>25.0</ele><time>2026-04-28T15:57:06.206Z</time></trkpt><trkpt lat="37.820335" lon="15.2573433"><ele>25.0</ele><time>2026-04-28T15:57:07.206Z</time></trkpt><trkpt lat="37.8203533" lon="15.2572517"><ele>25.0</ele><time>2026-04-28T15:57:08.206Z</time></trkpt><trkpt lat="37.8203667" lon="15.257155"><ele>25.000000000000004</ele><time>2026-04-28T15:57:09.206Z</time></trkpt><trkpt lat="37.8203817" lon="15.2570583"><ele>25.0</ele><time>2026-04-28T15:57:10.206Z</time></trkpt><trkpt lat="37.8203917" lon="15.25696"><ele>24.833333333333336</ele><time>2026-04-28T15:57:11.206Z</time></trkpt><trkpt lat="37.820405" lon="15.2568617"><ele>24.666666666666668</ele><time>2026-04-28T15:57:12.206Z</time></trkpt><trkpt lat="37.82042" lon="15.2567617"><ele>24.5</ele><time>2026-04-28T15:57:13.206Z</time></trkpt><trkpt lat="37.820435" lon="15.2566567"><ele>24.333333333333336</ele><time>2026-04-28T15:57:14.206Z</time></trkpt><trkpt lat="37.8204483" lon="15.2565467"><ele>24.166666666666668</ele><time>2026-04-28T15:57:15.207Z</time></trkpt><trkpt lat="37.820465" lon="15.2564267"><ele>24.0</ele><time>2026-04-28T15:57:16.206Z</time></trkpt><trkpt lat="37.8204867" lon="15.2563017"><ele>24.4</ele><time>2026-04-28T15:57:17.206Z</time></trkpt><trkpt lat="37.8205033" lon="15.2561883"><ele>24.799999999999997</ele><time>2026-04-28T15:57:18.206Z</time></trkpt><trkpt lat="37.8205183" lon="15.2560733"><ele>25.200000000000003</ele><time>2026-04-28T15:57:19.206Z</time></trkpt><trkpt lat="37.820535" lon="15.2559567"><ele>25.6</ele><time>2026-04-28T15:57:20.206Z</time></trkpt><trkpt lat="37.8205517" lon="15.2558367"><ele>26.0</ele><time>2026-04-28T15:57:21.206Z</time></trkpt><trkpt lat="37.8205733" lon="15.255705"><ele>26.0</ele><time>2026-04-28T15:57:22.206Z</time></trkpt><trkpt lat="37.8205933" lon="15.2555717"><ele>26.0</ele><time>2026-04-28T15:57:23.206Z</time></trkpt><trkpt lat="37.8206183" lon="15.2554367"><ele>26.0</ele><time>2026-04-28T15:57:24.207Z</time></trkpt><trkpt lat="37.82064" lon="15.2553133"><ele>26.0</ele><time>2026-04-28T15:57:25.206Z</time></trkpt><trkpt lat="37.8206517" lon="15.2551817"><ele>26.0</ele><time>2026-04-28T15:57:26.206Z</time></trkpt><trkpt lat="37.8206733" lon="15.25505"><ele>26.0</ele><time>2026-04-28T15:57:27.206Z</time></trkpt><trkpt lat="37.8206917" lon="15.25492"><ele>26.0</ele><time>2026-04-28T15:57:28.206Z</time></trkpt><trkpt lat="37.8207067" lon="15.2547867"><ele>26.0</ele><time>2026-04-28T15:57:29.206Z</time></trkpt><trkpt lat="37.8207183" lon="15.25464"><ele>26.0</ele><time>2026-04-28T15:57:30.206Z</time></trkpt><trkpt lat="37.8207383" lon="15.2544867"><ele>26.0</ele><time>2026-04-28T15:57:31.206Z</time></trkpt><trkpt lat="37.8207633" lon="15.2543417"><ele>26.0</ele><time>2026-04-28T15:57:32.206Z</time></trkpt><trkpt lat="37.8207967" lon="15.2541817"><ele>26.0</ele><time>2026-04-28T15:57:33.206Z</time></trkpt><trkpt lat="37.8208167" lon="15.2540383"><ele>26.0</ele><time>2026-04-28T15:57:34.206Z</time></trkpt><trkpt lat="37.8208333" lon="15.2538967"><ele>26.0</ele><time>2026-04-28T15:57:35.206Z</time></trkpt><trkpt lat="37.8208517" lon="15.253765"><ele>26.0</ele><time>2026-04-28T15:57:36.206Z</time></trkpt><trkpt lat="37.8208683" lon="15.2536367"><ele>26.0</ele><time>2026-04-28T15:57:37.206Z</time></trkpt><trkpt lat="37.8208733" lon="15.2535183"><ele>26.0</ele><time>2026-04-28T15:57:38.206Z</time></trkpt><trkpt lat="37.82088" lon="15.2534067"><ele>26.0</ele><time>2026-04-28T15:57:39.206Z</time></trkpt><trkpt lat="37.82088" lon="15.2533017"><ele>25.999999999999996</ele><time>2026-04-28T15:57:40.206Z</time></trkpt><trkpt lat="37.8208717" lon="15.2532033"><ele>26.0</ele><time>2026-04-28T15:57:41.207Z</time></trkpt><trkpt lat="37.8208617" lon="15.253045"><ele>26.0</ele><time>2026-04-28T15:57:43.206Z</time></trkpt><trkpt lat="37.820845" lon="15.252935"><ele>26.0</ele><time>2026-04-28T15:57:45.207Z</time></trkpt><trkpt lat="37.8208267" lon="15.25284"><ele>25.999999999999996</ele><time>2026-04-28T15:57:47.206Z</time></trkpt><trkpt lat="37.820805" lon="15.2527533"><ele>26.0</ele><time>2026-04-28T15:57:49.207Z</time></trkpt><trkpt lat="37.820785" lon="15.2526467"><ele>26.4</ele><time>2026-04-28T15:57:52.206Z</time></trkpt><trkpt lat="37.8207567" lon="15.2525267"><ele>26.8</ele><time>2026-04-28T15:57:55.207Z</time></trkpt><trkpt lat="37.8207167" lon="15.252415"><ele>27.199999999999996</ele><time>2026-04-28T15:57:57.206Z</time></trkpt><trkpt lat="37.8206517" lon="15.2522783"><ele>27.599999999999998</ele><time>2026-04-28T15:57:59.206Z</time></trkpt><trkpt lat="37.8206083" lon="15.2522017"><ele>28.0</ele><time>2026-04-28T15:58:00.206Z</time></trkpt><trkpt lat="37.8205733" lon="15.2521117"><ele>28.666666666666668</ele><time>2026-04-28T15:58:01.207Z</time></trkpt><trkpt lat="37.8205183" lon="15.25198"><ele>29.333333333333336</ele><time>2026-04-28T15:58:03.206Z</time></trkpt><trkpt lat="37.8204667" lon="15.2518733"><ele>30.0</ele><time>2026-04-28T15:58:05.206Z</time></trkpt><trkpt lat="37.8204267" lon="15.2518083"><ele>30.666666666666664</ele><time>2026-04-28T15:58:06.206Z</time></trkpt><trkpt lat="37.82039" lon="15.251735"><ele>31.333333333333332</ele><time>2026-04-28T15:58:07.206Z</time></trkpt><trkpt lat="37.8203583" lon="15.2516567"><ele>32.0</ele><time>2026-04-28T15:58:08.205Z</time></trkpt><trkpt lat="37.8203233" lon="15.2515867"><ele>31.999999999999996</ele><time>2026-04-28T15:58:09.205Z</time></trkpt><trkpt lat="37.820265" lon="15.2514683"><ele>32.0</ele><time>2026-04-28T15:58:11.205Z</time></trkpt><trkpt lat="37.8202217" lon="15.251375"><ele>32.0</ele><time>2026-04-28T15:58:13.205Z</time></trkpt><trkpt lat="37.8201617" lon="15.2512617"><ele>32.0</ele><time>2026-04-28T15:58:15.206Z</time></trkpt><trkpt lat="37.8201233" lon="15.2511867"><ele>31.999999999999996</ele><time>2026-04-28T15:58:16.205Z</time></trkpt><trkpt lat="37.8200867" lon="15.251105"><ele>32.0</ele><time>2026-04-28T15:58:17.206Z</time></trkpt><trkpt lat="37.82003" lon="15.2509817"><ele>32.0</ele><time>2026-04-28T15:58:19.206Z</time></trkpt><trkpt lat="37.819955" lon="15.2508433"><ele>32.0</ele><time>2026-04-28T15:58:21.205Z</time></trkpt><trkpt lat="37.8199033" lon="15.25076"><ele>32.0</ele><time>2026-04-28T15:58:22.205Z</time></trkpt><trkpt lat="37.81985" lon="15.2506533"><ele>32.0</ele><time>2026-04-28T15:58:23.205Z</time></trkpt><trkpt lat="37.81979" lon="15.2505383"><ele>32.0</ele><time>2026-04-28T15:58:24.205Z</time></trkpt><trkpt lat="37.8197283" lon="15.25042"><ele>32.0</ele><time>2026-04-28T15:58:25.206Z</time></trkpt><trkpt lat="37.819675" lon="15.2502917"><ele>32.0</ele><time>2026-04-28T15:58:26.205Z</time></trkpt><trkpt lat="37.819625" lon="15.2501717"><ele>32.0</ele><time>2026-04-28T15:58:27.205Z</time></trkpt><trkpt lat="37.8195667" lon="15.2500717"><ele>32.0</ele><time>2026-04-28T15:58:28.205Z</time></trkpt><trkpt lat="37.8195183" lon="15.2499633"><ele>32.0</ele><time>2026-04-28T15:58:29.205Z</time></trkpt><trkpt lat="37.8194667" lon="15.2498633"><ele>31.833333333333332</ele><time>2026-04-28T15:58:30.205Z</time></trkpt><trkpt lat="37.81942" lon="15.2497667"><ele>31.666666666666664</ele><time>2026-04-28T15:58:31.205Z</time></trkpt><trkpt lat="37.819365" lon="15.249675"><ele>31.5</ele><time>2026-04-28T15:58:32.206Z</time></trkpt><trkpt lat="37.8193167" lon="15.249585"><ele>31.333333333333336</ele><time>2026-04-28T15:58:33.205Z</time></trkpt><trkpt lat="37.8192717" lon="15.2495017"><ele>31.166666666666668</ele><time>2026-04-28T15:58:34.205Z</time></trkpt><trkpt lat="37.8192317" lon="15.2494167"><ele>31.0</ele><time>2026-04-28T15:58:35.205Z</time></trkpt><trkpt lat="37.8191767" lon="15.24933"><ele>31.0</ele><time>2026-04-28T15:58:36.205Z</time></trkpt><trkpt lat="37.8191267" lon="15.2492333"><ele>31.0</ele><time>2026-04-28T15:58:37.205Z</time></trkpt><trkpt lat="37.8190717" lon="15.2491317"><ele>31.0</ele><time>2026-04-28T15:58:38.205Z</time></trkpt><trkpt lat="37.81902" lon="15.249015"><ele>31.0</ele><time>2026-04-28T15:58:39.205Z</time></trkpt><trkpt lat="37.818965" lon="15.2489"><ele>31.0</ele><time>2026-04-28T15:58:40.205Z</time></trkpt><trkpt lat="37.8189117" lon="15.2487867"><ele>31.0</ele><time>2026-04-28T15:58:41.205Z</time></trkpt><trkpt lat="37.8188517" lon="15.248675"><ele>31.0</ele><time>2026-04-28T15:58:42.205Z</time></trkpt><trkpt lat="37.818795" lon="15.24856"><ele>31.0</ele><time>2026-04-28T15:58:43.205Z</time></trkpt><trkpt lat="37.8187333" lon="15.2484417"><ele>31.0</ele><time>2026-04-28T15:58:44.205Z</time></trkpt><trkpt lat="37.8186633" lon="15.2483233"><ele>31.0</ele><time>2026-04-28T15:58:45.205Z</time></trkpt><trkpt lat="37.8186067" lon="15.2482033"><ele>30.5</ele><time>2026-04-28T15:58:46.205Z</time></trkpt><trkpt lat="37.8185433" lon="15.2480767"><ele>30.0</ele><time>2026-04-28T15:58:47.205Z</time></trkpt><trkpt lat="37.8184783" lon="15.2479567"><ele>29.5</ele><time>2026-04-28T15:58:48.205Z</time></trkpt><trkpt lat="37.8184167" lon="15.247835"><ele>29.0</ele><time>2026-04-28T15:58:49.205Z</time></trkpt><trkpt lat="37.8183583" lon="15.2477117"><ele>28.6</ele><time>2026-04-28T15:58:50.205Z</time></trkpt><trkpt lat="37.81831" lon="15.247585"><ele>28.2</ele><time>2026-04-28T15:58:51.206Z</time></trkpt><trkpt lat="37.8182667" lon="15.2474583"><ele>27.800000000000004</ele><time>2026-04-28T15:58:52.206Z</time></trkpt><trkpt lat="37.818235" lon="15.247345"><ele>27.400000000000002</ele><time>2026-04-28T15:58:53.205Z</time></trkpt><trkpt lat="37.8182033" lon="15.24724"><ele>27.0</ele><time>2026-04-28T15:58:54.205Z</time></trkpt><trkpt lat="37.8181767" lon="15.2471367"><ele>26.200000000000003</ele><time>2026-04-28T15:58:55.205Z</time></trkpt><trkpt lat="37.81815" lon="15.247035"><ele>25.400000000000002</ele><time>2026-04-28T15:58:56.205Z</time></trkpt><trkpt lat="37.8181317" lon="15.24693"><ele>24.6</ele><time>2026-04-28T15:58:57.205Z</time></trkpt><trkpt lat="37.8181017" lon="15.2468017"><ele>23.799999999999997</ele><time>2026-04-28T15:58:58.205Z</time></trkpt><trkpt lat="37.8180717" lon="15.2466667"><ele>23.0</ele><time>2026-04-28T15:58:59.205Z</time></trkpt><trkpt lat="37.8180383" lon="15.2465217"><ele>23.75</ele><time>2026-04-28T15:59:00.205Z</time></trkpt><trkpt lat="37.8180117" lon="15.2463817"><ele>24.5</ele><time>2026-04-28T15:59:01.205Z</time></trkpt><trkpt lat="37.8179867" lon="15.2462367"><ele>25.25</ele><time>2026-04-28T15:59:02.205Z</time></trkpt><trkpt lat="37.8179483" lon="15.246085"><ele>26.0</ele><time>2026-04-28T15:59:03.205Z</time></trkpt><trkpt lat="37.8179017" lon="15.2459317"><ele>26.0</ele><time>2026-04-28T15:59:04.206Z</time></trkpt><trkpt lat="37.817855" lon="15.24578"><ele>26.0</ele><time>2026-04-28T15:59:05.205Z</time></trkpt><trkpt lat="37.8178067" lon="15.2456333"><ele>26.0</ele><time>2026-04-28T15:59:06.205Z</time></trkpt><trkpt lat="37.8177683" lon="15.245495"><ele>26.0</ele><time>2026-04-28T15:59:07.205Z</time></trkpt><trkpt lat="37.8177283" lon="15.2453633"><ele>26.200000000000003</ele><time>2026-04-28T15:59:08.205Z</time></trkpt><trkpt lat="37.8176933" lon="15.2452317"><ele>26.400000000000002</ele><time>2026-04-28T15:59:09.205Z</time></trkpt><trkpt lat="37.8176533" lon="15.24511"><ele>26.6</ele><time>2026-04-28T15:59:10.205Z</time></trkpt><trkpt lat="37.8176" lon="15.2449867"><ele>26.8</ele><time>2026-04-28T15:59:11.205Z</time></trkpt><trkpt lat="37.81754" lon="15.2448667"><ele>27.0</ele><time>2026-04-28T15:59:12.206Z</time></trkpt><trkpt lat="37.8174717" lon="15.2447517"><ele>27.0</ele><time>2026-04-28T15:59:13.205Z</time></trkpt><trkpt lat="37.8173933" lon="15.2446383"><ele>27.0</ele><time>2026-04-28T15:59:14.205Z</time></trkpt><trkpt lat="37.8173167" lon="15.244535"><ele>27.0</ele><time>2026-04-28T15:59:15.205Z</time></trkpt><trkpt lat="37.8172433" lon="15.2444267"><ele>27.0</ele><time>2026-04-28T15:59:16.205Z</time></trkpt><trkpt lat="37.817165" lon="15.24432"><ele>27.0</ele><time>2026-04-28T15:59:17.205Z</time></trkpt><trkpt lat="37.8170833" lon="15.2442133"><ele>27.0</ele><time>2026-04-28T15:59:18.205Z</time></trkpt><trkpt lat="37.816995" lon="15.2440967"><ele>27.0</ele><time>2026-04-28T15:59:19.206Z</time></trkpt><trkpt lat="37.8169033" lon="15.243975"><ele>27.0</ele><time>2026-04-28T15:59:20.206Z</time></trkpt><trkpt lat="37.8168133" lon="15.24385"><ele>26.5</ele><time>2026-04-28T15:59:21.205Z</time></trkpt><trkpt lat="37.8167217" lon="15.243725"><ele>26.0</ele><time>2026-04-28T15:59:22.205Z</time></trkpt><trkpt lat="37.8166233" lon="15.2435933"><ele>25.5</ele><time>2026-04-28T15:59:23.205Z</time></trkpt><trkpt lat="37.81652" lon="15.243455"><ele>25.0</ele><time>2026-04-28T15:59:24.206Z</time></trkpt><trkpt lat="37.81642" lon="15.2433083"><ele>25.0</ele><time>2026-04-28T15:59:25.206Z</time></trkpt><trkpt lat="37.8163167" lon="15.2431617"><ele>25.0</ele><time>2026-04-28T15:59:26.205Z</time></trkpt><trkpt lat="37.8162317" lon="15.2430317"><ele>25.0</ele><time>2026-04-28T15:59:27.205Z</time></trkpt><trkpt lat="37.81614" lon="15.242905"><ele>25.0</ele><time>2026-04-28T15:59:28.205Z</time></trkpt><trkpt lat="37.816055" lon="15.2427783"><ele>25.0</ele><time>2026-04-28T15:59:29.205Z</time></trkpt><trkpt lat="37.8159667" lon="15.242655"><ele>25.0</ele><time>2026-04-28T15:59:30.205Z</time></trkpt><trkpt lat="37.815885" lon="15.242535"><ele>25.0</ele><time>2026-04-28T15:59:31.205Z</time></trkpt><trkpt lat="37.8157983" lon="15.2424117"><ele>25.0</ele><time>2026-04-28T15:59:32.205Z</time></trkpt><trkpt lat="37.8157117" lon="15.24229"><ele>25.0</ele><time>2026-04-28T15:59:33.206Z</time></trkpt><trkpt lat="37.8156183" lon="15.24216"><ele>25.0</ele><time>2026-04-28T15:59:34.206Z</time></trkpt><trkpt lat="37.8155183" lon="15.2420283"><ele>25.0</ele><time>2026-04-28T15:59:35.205Z</time></trkpt><trkpt lat="37.815415" lon="15.24189"><ele>25.0</ele><time>2026-04-28T15:59:36.205Z</time></trkpt><trkpt lat="37.81532" lon="15.2417567"><ele>25.0</ele><time>2026-04-28T15:59:37.205Z</time></trkpt><trkpt lat="37.815225" lon="15.241625"><ele>25.0</ele><time>2026-04-28T15:59:38.205Z</time></trkpt><trkpt lat="37.815135" lon="15.2414933"><ele>25.0</ele><time>2026-04-28T15:59:39.205Z</time></trkpt><trkpt lat="37.8150517" lon="15.241375"><ele>25.0</ele><time>2026-04-28T15:59:40.206Z</time></trkpt><trkpt lat="37.8149717" lon="15.2412583"><ele>25.5</ele><time>2026-04-28T15:59:41.206Z</time></trkpt><trkpt lat="37.81489" lon="15.24114"><ele>26.0</ele><time>2026-04-28T15:59:42.205Z</time></trkpt><trkpt lat="37.8148083" lon="15.2410233"><ele>26.5</ele><time>2026-04-28T15:59:43.205Z</time></trkpt><trkpt lat="37.8147233" lon="15.2409033"><ele>27.0</ele><time>2026-04-28T15:59:44.205Z</time></trkpt><trkpt lat="37.8146367" lon="15.2407767"><ele>27.0</ele><time>2026-04-28T15:59:45.205Z</time></trkpt><trkpt lat="37.8145467" lon="15.240655"><ele>27.0</ele><time>2026-04-28T15:59:46.205Z</time></trkpt><trkpt lat="37.8144567" lon="15.2405267"><ele>27.0</ele><time>2026-04-28T15:59:47.206Z</time></trkpt><trkpt lat="37.8143667" lon="15.2404017"><ele>27.0</ele><time>2026-04-28T15:59:48.205Z</time></trkpt><trkpt lat="37.8142883" lon="15.2402767"><ele>27.5</ele><time>2026-04-28T15:59:49.205Z</time></trkpt><trkpt lat="37.814205" lon="15.2401517"><ele>28.0</ele><time>2026-04-28T15:59:50.205Z</time></trkpt><trkpt lat="37.8141167" lon="15.2400267"><ele>28.5</ele><time>2026-04-28T15:59:51.205Z</time></trkpt><trkpt lat="37.8140333" lon="15.2399033"><ele>29.0</ele><time>2026-04-28T15:59:52.205Z</time></trkpt><trkpt lat="37.8139567" lon="15.2397783"><ele>29.0</ele><time>2026-04-28T15:59:53.205Z</time></trkpt><trkpt lat="37.8138917" lon="15.2396383"><ele>29.0</ele><time>2026-04-28T15:59:54.205Z</time></trkpt><trkpt lat="37.8138317" lon="15.239485"><ele>29.0</ele><time>2026-04-28T15:59:55.205Z</time></trkpt><trkpt lat="37.81379" lon="15.23932"><ele>29.0</ele><time>2026-04-28T15:59:56.206Z</time></trkpt><trkpt lat="37.813755" lon="15.2391583"><ele>29.0</ele><time>2026-04-28T15:59:57.205Z</time></trkpt><trkpt lat="37.81371" lon="15.2389967"><ele>29.0</ele><time>2026-04-28T15:59:58.205Z</time></trkpt><trkpt lat="37.8136633" lon="15.2388283"><ele>29.0</ele><time>2026-04-28T15:59:59.205Z</time></trkpt><trkpt lat="37.8136283" lon="15.2386583"><ele>29.0</ele><time>2026-04-28T16:00:00.205Z</time></trkpt><trkpt lat="37.8135883" lon="15.2384933"><ele>29.25</ele><time>2026-04-28T16:00:01.205Z</time></trkpt><trkpt lat="37.81355" lon="15.238335"><ele>29.5</ele><time>2026-04-28T16:00:02.205Z</time></trkpt><trkpt lat="37.813505" lon="15.238175"><ele>29.75</ele><time>2026-04-28T16:00:03.205Z</time></trkpt><trkpt lat="37.813465" lon="15.2380333"><ele>30.0</ele><time>2026-04-28T16:00:04.206Z</time></trkpt><trkpt lat="37.8134267" lon="15.2378867"><ele>29.5</ele><time>2026-04-28T16:00:05.205Z</time></trkpt><trkpt lat="37.8133833" lon="15.2377483"><ele>29.0</ele><time>2026-04-28T16:00:06.205Z</time></trkpt><trkpt lat="37.8133433" lon="15.2375967"><ele>28.5</ele><time>2026-04-28T16:00:07.205Z</time></trkpt><trkpt lat="37.8132933" lon="15.237415"><ele>28.0</ele><time>2026-04-28T16:00:08.205Z</time></trkpt><trkpt lat="37.813235" lon="15.2372067"><ele>29.333333333333336</ele><time>2026-04-28T16:00:09.206Z</time></trkpt><trkpt lat="37.8131683" lon="15.23699"><ele>30.666666666666664</ele><time>2026-04-28T16:00:10.205Z</time></trkpt><trkpt lat="37.813105" lon="15.2367833"><ele>32.0</ele><time>2026-04-28T16:00:11.205Z</time></trkpt><trkpt lat="37.8130433" lon="15.236595"><ele>33.0</ele><time>2026-04-28T16:00:12.205Z</time></trkpt><trkpt lat="37.8129967" lon="15.2364317"><ele>34.0</ele><time>2026-04-28T16:00:13.205Z</time></trkpt><trkpt lat="37.812945" lon="15.23627"><ele>35.0</ele><time>2026-04-28T16:00:14.205Z</time></trkpt><trkpt lat="37.8128983" lon="15.2361267"><ele>36.0</ele><time>2026-04-28T16:00:15.205Z</time></trkpt><trkpt lat="37.8128617" lon="15.2359967"><ele>36.0</ele><time>2026-04-28T16:00:16.205Z</time></trkpt><trkpt lat="37.8128283" lon="15.2358933"><ele>36.0</ele><time>2026-04-28T16:00:17.205Z</time></trkpt><trkpt lat="37.8127983" lon="15.235815"><ele>36.0</ele><time>2026-04-28T16:00:18.205Z</time></trkpt><trkpt lat="37.8127467" lon="15.2356783"><ele>36.0</ele><time>2026-04-28T16:00:20.205Z</time></trkpt><trkpt lat="37.812715" lon="15.2356017"><ele>36.0</ele><time>2026-04-28T16:00:21.205Z</time></trkpt><trkpt lat="37.8126767" lon="15.2355233"><ele>36.0</ele><time>2026-04-28T16:00:22.205Z</time></trkpt><trkpt lat="37.812625" lon="15.2354333"><ele>35.25</ele><time>2026-04-28T16:00:23.205Z</time></trkpt><trkpt lat="37.812555" lon="15.2353367"><ele>34.5</ele><time>2026-04-28T16:00:24.205Z</time></trkpt><trkpt lat="37.8124667" lon="15.235205"><ele>33.75</ele><time>2026-04-28T16:00:25.205Z</time></trkpt><trkpt lat="37.812375" lon="15.23506"><ele>33.0</ele><time>2026-04-28T16:00:26.205Z</time></trkpt><trkpt lat="37.8122833" lon="15.23491"><ele>33.0</ele><time>2026-04-28T16:00:27.205Z</time></trkpt><trkpt lat="37.8122067" lon="15.2347767"><ele>33.0</ele><time>2026-04-28T16:00:28.205Z</time></trkpt><trkpt lat="37.8121233" lon="15.2346383"><ele>33.0</ele><time>2026-04-28T16:00:29.205Z</time></trkpt><trkpt lat="37.8120467" lon="15.2345117"><ele>33.0</ele><time>2026-04-28T16:00:30.205Z</time></trkpt><trkpt lat="37.8119683" lon="15.2343817"><ele>33.0</ele><time>2026-04-28T16:00:31.205Z</time></trkpt><trkpt lat="37.8118917" lon="15.23426"><ele>33.0</ele><time>2026-04-28T16:00:32.205Z</time></trkpt><trkpt lat="37.8118167" lon="15.2341467"><ele>33.0</ele><time>2026-04-28T16:00:33.206Z</time></trkpt><trkpt lat="37.8117467" lon="15.23403"><ele>33.0</ele><time>2026-04-28T16:00:34.205Z</time></trkpt><trkpt lat="37.8116817" lon="15.2339217"><ele>33.4</ele><time>2026-04-28T16:00:35.205Z</time></trkpt><trkpt lat="37.8116117" lon="15.2338183"><ele>33.8</ele><time>2026-04-28T16:00:36.205Z</time></trkpt><trkpt lat="37.811545" lon="15.233715"><ele>34.2</ele><time>2026-04-28T16:00:37.205Z</time></trkpt><trkpt lat="37.8114833" lon="15.2336067"><ele>34.6</ele><time>2026-04-28T16:00:38.205Z</time></trkpt><trkpt lat="37.8114033" lon="15.2334917"><ele>35.0</ele><time>2026-04-28T16:00:39.206Z</time></trkpt><trkpt lat="37.8113017" lon="15.23334"><ele>35.0</ele><time>2026-04-28T16:00:40.205Z</time></trkpt><trkpt lat="37.8111983" lon="15.2331733"><ele>35.0</ele><time>2026-04-28T16:00:41.205Z</time></trkpt><trkpt lat="37.8110917" lon="15.2329783"><ele>35.0</ele><time>2026-04-28T16:00:42.205Z</time></trkpt><trkpt lat="37.81097" lon="15.2327783"><ele>35.33333333333333</ele><time>2026-04-28T16:00:43.205Z</time></trkpt><trkpt lat="37.8108483" lon="15.2325817"><ele>35.666666666666664</ele><time>2026-04-28T16:00:44.205Z</time></trkpt><trkpt lat="37.8107233" lon="15.2323833"><ele>36.0</ele><time>2026-04-28T16:00:45.205Z</time></trkpt><trkpt lat="37.8106017" lon="15.232195"><ele>36.0</ele><time>2026-04-28T16:00:46.205Z</time></trkpt><trkpt lat="37.8104833" lon="15.2320117"><ele>36.0</ele><time>2026-04-28T16:00:47.206Z</time></trkpt><trkpt lat="37.8103817" lon="15.23184"><ele>36.0</ele><time>2026-04-28T16:00:48.205Z</time></trkpt><trkpt lat="37.8102783" lon="15.2316767"><ele>36.0</ele><time>2026-04-28T16:00:49.205Z</time></trkpt><trkpt lat="37.8101833" lon="15.23152"><ele>36.0</ele><time>2026-04-28T16:00:50.205Z</time></trkpt><trkpt lat="37.8100833" lon="15.2313683"><ele>36.0</ele><time>2026-04-28T16:00:51.205Z</time></trkpt><trkpt lat="37.809985" lon="15.231215"><ele>36.666666666666664</ele><time>2026-04-28T16:00:52.205Z</time></trkpt><trkpt lat="37.8098867" lon="15.2310583"><ele>37.33333333333333</ele><time>2026-04-28T16:00:53.205Z</time></trkpt><trkpt lat="37.8097817" lon="15.2309033"><ele>38.0</ele><time>2026-04-28T16:00:54.205Z</time></trkpt><trkpt lat="37.8096867" lon="15.2307517"><ele>38.25</ele><time>2026-04-28T16:00:55.205Z</time></trkpt><trkpt lat="37.8095933" lon="15.230605"><ele>38.5</ele><time>2026-04-28T16:00:56.203Z</time></trkpt><trkpt lat="37.8095083" lon="15.2304717"><ele>38.75</ele><time>2026-04-28T16:00:57.205Z</time></trkpt><trkpt lat="37.8094233" lon="15.2303417"><ele>39.0</ele><time>2026-04-28T16:00:58.205Z</time></trkpt><trkpt lat="37.8093433" lon="15.2302183"><ele>39.0</ele><time>2026-04-28T16:00:59.205Z</time></trkpt><trkpt lat="37.8092617" lon="15.2300933"><ele>39.0</ele><time>2026-04-28T16:01:00.205Z</time></trkpt><trkpt lat="37.8091917" lon="15.2299783"><ele>39.0</ele><time>2026-04-28T16:01:01.205Z</time></trkpt><trkpt lat="37.8091167" lon="15.2298567"><ele>39.0</ele><time>2026-04-28T16:01:02.205Z</time></trkpt><trkpt lat="37.80904" lon="15.2297383"><ele>39.0</ele><time>2026-04-28T16:01:03.206Z</time></trkpt><trkpt lat="37.8089633" lon="15.2296133"><ele>39.0</ele><time>2026-04-28T16:01:04.205Z</time></trkpt><trkpt lat="37.80888" lon="15.229485"><ele>39.0</ele><time>2026-04-28T16:01:05.205Z</time></trkpt><trkpt lat="37.8087983" lon="15.2293667"><ele>39.0</ele><time>2026-04-28T16:01:06.206Z</time></trkpt><trkpt lat="37.8087267" lon="15.2292417"><ele>39.0</ele><time>2026-04-28T16:01:07.205Z</time></trkpt><trkpt lat="37.8086483" lon="15.2291167"><ele>39.0</ele><time>2026-04-28T16:01:08.205Z</time></trkpt><trkpt lat="37.8085733" lon="15.229"><ele>39.0</ele><time>2026-04-28T16:01:09.205Z</time></trkpt><trkpt lat="37.8085067" lon="15.2288967"><ele>39.0</ele><time>2026-04-28T16:01:10.205Z</time></trkpt><trkpt lat="37.8084433" lon="15.228795"><ele>39.6</ele><time>2026-04-28T16:01:11.205Z</time></trkpt><trkpt lat="37.808385" lon="15.228705"><ele>40.2</ele><time>2026-04-28T16:01:12.205Z</time></trkpt><trkpt lat="37.8083183" lon="15.22861"><ele>40.800000000000004</ele><time>2026-04-28T16:01:13.205Z</time></trkpt><trkpt lat="37.8082533" lon="15.2285033"><ele>41.4</ele><time>2026-04-28T16:01:14.205Z</time></trkpt><trkpt lat="37.8081833" lon="15.2283917"><ele>42.0</ele><time>2026-04-28T16:01:15.205Z</time></trkpt><trkpt lat="37.8081217" lon="15.2282733"><ele>42.0</ele><time>2026-04-28T16:01:16.205Z</time></trkpt><trkpt lat="37.80805" lon="15.228165"><ele>42.0</ele><time>2026-04-28T16:01:17.205Z</time></trkpt><trkpt lat="37.8079817" lon="15.2280567"><ele>42.0</ele><time>2026-04-28T16:01:18.205Z</time></trkpt><trkpt lat="37.80792" lon="15.2279633"><ele>42.0</ele><time>2026-04-28T16:01:19.206Z</time></trkpt><trkpt lat="37.8078667" lon="15.2278733"><ele>42.0</ele><time>2026-04-28T16:01:20.205Z</time></trkpt><trkpt lat="37.8078167" lon="15.2277917"><ele>42.2</ele><time>2026-04-28T16:01:21.205Z</time></trkpt><trkpt lat="37.807775" lon="15.2277167"><ele>42.400000000000006</ele><time>2026-04-28T16:01:22.205Z</time></trkpt><trkpt lat="37.8077067" lon="15.2276183"><ele>42.599999999999994</ele><time>2026-04-28T16:01:24.205Z</time></trkpt><trkpt lat="37.80765" lon="15.2275483"><ele>42.8</ele><time>2026-04-28T16:01:26.205Z</time></trkpt><trkpt lat="37.8075767" lon="15.2274667"><ele>43.0</ele><time>2026-04-28T16:01:28.205Z</time></trkpt><trkpt lat="37.8074783" lon="15.2273783"><ele>43.0</ele><time>2026-04-28T16:01:30.205Z</time></trkpt><trkpt lat="37.8074167" lon="15.2273283"><ele>43.0</ele><time>2026-04-28T16:01:31.205Z</time></trkpt><trkpt lat="37.80735" lon="15.2272783"><ele>43.0</ele><time>2026-04-28T16:01:32.205Z</time></trkpt><trkpt lat="37.8072867" lon="15.2272367"><ele>43.0</ele><time>2026-04-28T16:01:33.205Z</time></trkpt><trkpt lat="37.8072233" lon="15.2272017"><ele>43.0</ele><time>2026-04-28T16:01:34.206Z</time></trkpt><trkpt lat="37.8071117" lon="15.227135"><ele>43.0</ele><time>2026-04-28T16:01:36.205Z</time></trkpt><trkpt lat="37.8070417" lon="15.2271083"><ele>42.833333333333336</ele><time>2026-04-28T16:01:37.205Z</time></trkpt><trkpt lat="37.8069783" lon="15.2270817"><ele>42.66666666666667</ele><time>2026-04-28T16:01:38.205Z</time></trkpt><trkpt lat="37.8069067" lon="15.2270517"><ele>42.5</ele><time>2026-04-28T16:01:39.205Z</time></trkpt><trkpt lat="37.80683" lon="15.2270217"><ele>42.333333333333336</ele><time>2026-04-28T16:01:40.205Z</time></trkpt><trkpt lat="37.80675" lon="15.226985"><ele>42.166666666666664</ele><time>2026-04-28T16:01:41.206Z</time></trkpt><trkpt lat="37.80667" lon="15.2269483"><ele>42.0</ele><time>2026-04-28T16:01:42.205Z</time></trkpt><trkpt lat="37.8065917" lon="15.226915"><ele>42.0</ele><time>2026-04-28T16:01:43.205Z</time></trkpt><trkpt lat="37.8065317" lon="15.22687"><ele>42.0</ele><time>2026-04-28T16:01:44.205Z</time></trkpt><trkpt lat="37.8064917" lon="15.2268017"><ele>42.0</ele><time>2026-04-28T16:01:45.206Z</time></trkpt><trkpt lat="37.8064583" lon="15.2267183"><ele>42.0</ele><time>2026-04-28T16:01:46.205Z</time></trkpt><trkpt lat="37.8064333" lon="15.22661"><ele>42.0</ele><time>2026-04-28T16:01:47.205Z</time></trkpt><trkpt lat="37.80641" lon="15.22649"><ele>42.0</ele><time>2026-04-28T16:01:48.206Z</time></trkpt><trkpt lat="37.806395" lon="15.226375"><ele>43.0</ele><time>2026-04-28T16:01:49.205Z</time></trkpt><trkpt lat="37.8063767" lon="15.2262633"><ele>44.0</ele><time>2026-04-28T16:01:50.205Z</time></trkpt><trkpt lat="37.806355" lon="15.2261633"><ele>45.0</ele><time>2026-04-28T16:01:51.205Z</time></trkpt><trkpt lat="37.8063367" lon="15.2260617"><ele>46.0</ele><time>2026-04-28T16:01:52.206Z</time></trkpt><trkpt lat="37.8063133" lon="15.2259617"><ele>47.0</ele><time>2026-04-28T16:01:53.205Z</time></trkpt><trkpt lat="37.806295" lon="15.2258533"><ele>48.0</ele><time>2026-04-28T16:01:54.205Z</time></trkpt><trkpt lat="37.806285" lon="15.2257233"><ele>49.66666666666667</ele><time>2026-04-28T16:01:55.205Z</time></trkpt><trkpt lat="37.8062767" lon="15.2255533"><ele>51.333333333333336</ele><time>2026-04-28T16:01:56.205Z</time></trkpt><trkpt lat="37.8062783" lon="15.2253583"><ele>53.0</ele><time>2026-04-28T16:01:57.206Z</time></trkpt><trkpt lat="37.8062833" lon="15.2251533"><ele>53.0</ele><time>2026-04-28T16:01:58.205Z</time></trkpt><trkpt lat="37.80629" lon="15.2249567"><ele>53.0</ele><time>2026-04-28T16:01:59.205Z</time></trkpt><trkpt lat="37.8062783" lon="15.2247633"><ele>53.0</ele><time>2026-04-28T16:02:00.205Z</time></trkpt><trkpt lat="37.8062583" lon="15.22459"><ele>53.0</ele><time>2026-04-28T16:02:01.205Z</time></trkpt><trkpt lat="37.8062383" lon="15.2244267"><ele>53.4</ele><time>2026-04-28T16:02:02.205Z</time></trkpt><trkpt lat="37.8061967" lon="15.2242783"><ele>53.8</ele><time>2026-04-28T16:02:03.206Z</time></trkpt><trkpt lat="37.8061617" lon="15.2241433"><ele>54.2</ele><time>2026-04-28T16:02:04.205Z</time></trkpt><trkpt lat="37.80613" lon="15.22402"><ele>54.6</ele><time>2026-04-28T16:02:05.205Z</time></trkpt><trkpt lat="37.8061083" lon="15.2238967"><ele>55.0</ele><time>2026-04-28T16:02:06.205Z</time></trkpt><trkpt lat="37.80607" lon="15.2237883"><ele>55.166666666666664</ele><time>2026-04-28T16:02:07.205Z</time></trkpt><trkpt lat="37.8060433" lon="15.2236767"><ele>55.33333333333333</ele><time>2026-04-28T16:02:08.205Z</time></trkpt><trkpt lat="37.8060083" lon="15.2235833"><ele>55.5</ele><time>2026-04-28T16:02:09.205Z</time></trkpt><trkpt lat="37.80599" lon="15.2234933"><ele>55.66666666666667</ele><time>2026-04-28T16:02:10.205Z</time></trkpt><trkpt lat="37.8059683" lon="15.2234167"><ele>55.833333333333336</ele><time>2026-04-28T16:02:11.205Z</time></trkpt><trkpt lat="37.8059367" lon="15.2232767"><ele>56.0</ele><time>2026-04-28T16:02:13.205Z</time></trkpt><trkpt lat="37.8059383" lon="15.2231317"><ele>56.16666666666667</ele><time>2026-04-28T16:02:15.206Z</time></trkpt><trkpt lat="37.805945" lon="15.2230283"><ele>56.333333333333336</ele><time>2026-04-28T16:02:16.205Z</time></trkpt><trkpt lat="37.80596" lon="15.222915"><ele>56.5</ele><time>2026-04-28T16:02:17.205Z</time></trkpt><trkpt lat="37.8059817" lon="15.2228"><ele>56.66666666666667</ele><time>2026-04-28T16:02:18.206Z</time></trkpt><trkpt lat="37.8059917" lon="15.2226967"><ele>56.833333333333336</ele><time>2026-04-28T16:02:19.205Z</time></trkpt><trkpt lat="37.8060017" lon="15.22261"><ele>57.0</ele><time>2026-04-28T16:02:20.206Z</time></trkpt><trkpt lat="37.8060283" lon="15.2224583"><ele>57.0</ele><time>2026-04-28T16:02:22.205Z</time></trkpt><trkpt lat="37.80604" lon="15.2223233"><ele>57.0</ele><time>2026-04-28T16:02:24.205Z</time></trkpt><trkpt lat="37.8060383" lon="15.222195"><ele>57.0</ele><time>2026-04-28T16:02:26.205Z</time></trkpt><trkpt lat="37.8060683" lon="15.2220383"><ele>57.0</ele><time>2026-04-28T16:02:28.205Z</time></trkpt><trkpt lat="37.80608" lon="15.2219533"><ele>57.0</ele><time>2026-04-28T16:02:29.205Z</time></trkpt><trkpt lat="37.8060967" lon="15.2218733"><ele>57.2</ele><time>2026-04-28T16:02:30.205Z</time></trkpt><trkpt lat="37.8061083" lon="15.2217833"><ele>57.400000000000006</ele><time>2026-04-28T16:02:31.206Z</time></trkpt><trkpt lat="37.8061233" lon="15.221675"><ele>57.599999999999994</ele><time>2026-04-28T16:02:32.206Z</time></trkpt><trkpt lat="37.8061367" lon="15.2215583"><ele>57.8</ele><time>2026-04-28T16:02:33.205Z</time></trkpt><trkpt lat="37.8061567" lon="15.2214283"><ele>58.0</ele><time>2026-04-28T16:02:34.205Z</time></trkpt><trkpt lat="37.8061733" lon="15.22129"><ele>58.33333333333333</ele><time>2026-04-28T16:02:35.205Z</time></trkpt><trkpt lat="37.8061883" lon="15.2211617"><ele>58.666666666666664</ele><time>2026-04-28T16:02:36.206Z</time></trkpt><trkpt lat="37.8062067" lon="15.2210467"><ele>59.0</ele><time>2026-04-28T16:02:37.205Z</time></trkpt><trkpt lat="37.806235" lon="15.220955"><ele>59.33333333333333</ele><time>2026-04-28T16:02:38.205Z</time></trkpt><trkpt lat="37.8062433" lon="15.22087"><ele>59.666666666666664</ele><time>2026-04-28T16:02:39.205Z</time></trkpt><trkpt lat="37.806235" lon="15.22079"><ele>60.0</ele><time>2026-04-28T16:02:40.206Z</time></trkpt><trkpt lat="37.806175" lon="15.2206633"><ele>59.666666666666664</ele><time>2026-04-28T16:02:42.205Z</time></trkpt><trkpt lat="37.8061217" lon="15.2206017"><ele>59.33333333333333</ele><time>2026-04-28T16:02:43.205Z</time></trkpt><trkpt lat="37.8060683" lon="15.2205367"><ele>59.0</ele><time>2026-04-28T16:02:44.205Z</time></trkpt><trkpt lat="37.8059983" lon="15.2204583"><ele>58.666666666666664</ele><time>2026-04-28T16:02:45.205Z</time></trkpt><trkpt lat="37.8059317" lon="15.2203717"><ele>58.33333333333333</ele><time>2026-04-28T16:02:46.205Z</time></trkpt><trkpt lat="37.8058583" lon="15.2202817"><ele>58.0</ele><time>2026-04-28T16:02:47.205Z</time></trkpt><trkpt lat="37.8057783" lon="15.22018"><ele>58.0</ele><time>2026-04-28T16:02:48.205Z</time></trkpt><trkpt lat="37.8056933" lon="15.2200683"><ele>58.0</ele><time>2026-04-28T16:02:49.206Z</time></trkpt><trkpt lat="37.8055983" lon="15.2199517"><ele>58.0</ele><time>2026-04-28T16:02:50.205Z</time></trkpt><trkpt lat="37.8055083" lon="15.2198317"><ele>58.0</ele><time>2026-04-28T16:02:51.205Z</time></trkpt><trkpt lat="37.8054167" lon="15.2197067"><ele>58.5</ele><time>2026-04-28T16:02:52.206Z</time></trkpt><trkpt lat="37.8053217" lon="15.219575"><ele>59.0</ele><time>2026-04-28T16:02:53.205Z</time></trkpt><trkpt lat="37.80524" lon="15.21943"><ele>59.5</ele><time>2026-04-28T16:02:54.205Z</time></trkpt><trkpt lat="37.8051533" lon="15.2192667"><ele>60.0</ele><time>2026-04-28T16:02:55.205Z</time></trkpt><trkpt lat="37.8050667" lon="15.2191033"><ele>60.33333333333333</ele><time>2026-04-28T16:02:56.205Z</time></trkpt><trkpt lat="37.8049783" lon="15.2189433"><ele>60.666666666666664</ele><time>2026-04-28T16:02:57.205Z</time></trkpt><trkpt lat="37.8048883" lon="15.218765"><ele>61.0</ele><time>2026-04-28T16:02:58.205Z</time></trkpt><trkpt lat="37.8047883" lon="15.2185883"><ele>61.0</ele><time>2026-04-28T16:02:59.205Z</time></trkpt><trkpt lat="37.80467" lon="15.2183917"><ele>61.0</ele><time>2026-04-28T16:03:00.205Z</time></trkpt><trkpt lat="37.8045483" lon="15.218175"><ele>61.0</ele><time>2026-04-28T16:03:01.205Z</time></trkpt><trkpt lat="37.8044333" lon="15.2179567"><ele>60.33333333333333</ele><time>2026-04-28T16:03:02.205Z</time></trkpt><trkpt lat="37.80431" lon="15.2177283"><ele>59.66666666666667</ele><time>2026-04-28T16:03:03.205Z</time></trkpt><trkpt lat="37.804165" lon="15.2175067"><ele>59.0</ele><time>2026-04-28T16:03:04.205Z</time></trkpt><trkpt lat="37.8039967" lon="15.217295"><ele>63.5</ele><time>2026-04-28T16:03:05.205Z</time></trkpt><trkpt lat="37.8038183" lon="15.21709"><ele>68.0</ele><time>2026-04-28T16:03:06.205Z</time></trkpt><trkpt lat="37.8036433" lon="15.2168883"><ele>61.0</ele><time>2026-04-28T16:03:07.205Z</time></trkpt><trkpt lat="37.80347" lon="15.2166833"><ele>54.0</ele><time>2026-04-28T16:03:08.205Z</time></trkpt><trkpt lat="37.8033117" lon="15.2164883"><ele>54.66666666666667</ele><time>2026-04-28T16:03:09.205Z</time></trkpt><trkpt lat="37.8031583" lon="15.2163117"><ele>55.333333333333336</ele><time>2026-04-28T16:03:10.206Z</time></trkpt><trkpt lat="37.803" lon="15.2161267"><ele>56.0</ele><time>2026-04-28T16:03:11.205Z</time></trkpt><trkpt lat="37.8028417" lon="15.2159367"><ele>56.0</ele><time>2026-04-28T16:03:12.205Z</time></trkpt><trkpt lat="37.8026767" lon="15.2157467"><ele>56.0</ele><time>2026-04-28T16:03:13.205Z</time></trkpt><trkpt lat="37.8025183" lon="15.21555"><ele>56.0</ele><time>2026-04-28T16:03:14.205Z</time></trkpt><trkpt lat="37.80237" lon="15.215355"><ele>56.66666666666667</ele><time>2026-04-28T16:03:15.205Z</time></trkpt><trkpt lat="37.8022267" lon="15.21515"><ele>57.33333333333333</ele><time>2026-04-28T16:03:16.205Z</time></trkpt><trkpt lat="37.802095" lon="15.214935"><ele>58.0</ele><time>2026-04-28T16:03:17.206Z</time></trkpt><trkpt lat="37.8019667" lon="15.2147167"><ele>58.0</ele><time>2026-04-28T16:03:18.205Z</time></trkpt><trkpt lat="37.801845" lon="15.2144917"><ele>58.0</ele><time>2026-04-28T16:03:19.205Z</time></trkpt><trkpt lat="37.8017233" lon="15.2142617"><ele>58.0</ele><time>2026-04-28T16:03:20.205Z</time></trkpt><trkpt lat="37.8015917" lon="15.2140433"><ele>60.0</ele><time>2026-04-28T16:03:21.205Z</time></trkpt><trkpt lat="37.801455" lon="15.2138417"><ele>62.0</ele><time>2026-04-28T16:03:22.205Z</time></trkpt><trkpt lat="37.8013083" lon="15.2136617"><ele>64.0</ele><time>2026-04-28T16:03:23.205Z</time></trkpt><trkpt lat="37.8011483" lon="15.2134967"><ele>67.0</ele><time>2026-04-28T16:03:24.205Z</time></trkpt><trkpt lat="37.800985" lon="15.2133467"><ele>70.0</ele><time>2026-04-28T16:03:25.205Z</time></trkpt><trkpt lat="37.8008183" lon="15.2132117"><ele>73.0</ele><time>2026-04-28T16:03:26.205Z</time></trkpt><trkpt lat="37.8006467" lon="15.2130683"><ele>73.0</ele><time>2026-04-28T16:03:27.206Z</time></trkpt><trkpt lat="37.80049" lon="15.2129333"><ele>73.0</ele><time>2026-04-28T16:03:28.205Z</time></trkpt><trkpt lat="37.8003233" lon="15.2127983"><ele>73.0</ele><time>2026-04-28T16:03:29.205Z</time></trkpt><trkpt lat="37.8001633" lon="15.2126783"><ele>72.66666666666666</ele><time>2026-04-28T16:03:30.205Z</time></trkpt><trkpt lat="37.8000083" lon="15.2125367"><ele>72.33333333333333</ele><time>2026-04-28T16:03:31.205Z</time></trkpt><trkpt lat="37.7998733" lon="15.2123867"><ele>72.0</ele><time>2026-04-28T16:03:32.205Z</time></trkpt><trkpt lat="37.79975" lon="15.2122367"><ele>72.0</ele><time>2026-04-28T16:03:33.205Z</time></trkpt><trkpt lat="37.7996283" lon="15.21208"><ele>72.0</ele><time>2026-04-28T16:03:34.206Z</time></trkpt><trkpt lat="37.7995183" lon="15.211935"><ele>72.0</ele><time>2026-04-28T16:03:35.205Z</time></trkpt><trkpt lat="37.7994117" lon="15.21179"><ele>71.75</ele><time>2026-04-28T16:03:36.206Z</time></trkpt><trkpt lat="37.79931" lon="15.2116583"><ele>71.5</ele><time>2026-04-28T16:03:37.205Z</time></trkpt><trkpt lat="37.7992233" lon="15.2115317"><ele>71.25</ele><time>2026-04-28T16:03:38.205Z</time></trkpt><trkpt lat="37.7991533" lon="15.21143"><ele>71.0</ele><time>2026-04-28T16:03:39.205Z</time></trkpt><trkpt lat="37.799085" lon="15.211335"><ele>71.0</ele><time>2026-04-28T16:03:40.205Z</time></trkpt><trkpt lat="37.7990183" lon="15.2112533"><ele>71.0</ele><time>2026-04-28T16:03:41.205Z</time></trkpt><trkpt lat="37.798955" lon="15.2111767"><ele>71.0</ele><time>2026-04-28T16:03:42.206Z</time></trkpt><trkpt lat="37.7988767" lon="15.2111117"><ele>71.0</ele><time>2026-04-28T16:03:43.206Z</time></trkpt><trkpt lat="37.79879" lon="15.2110633"><ele>71.0</ele><time>2026-04-28T16:03:44.205Z</time></trkpt><trkpt lat="37.7986867" lon="15.2110217"><ele>71.0</ele><time>2026-04-28T16:03:45.206Z</time></trkpt><trkpt lat="37.7985683" lon="15.2109767"><ele>71.0</ele><time>2026-04-28T16:03:46.206Z</time></trkpt><trkpt lat="37.7984483" lon="15.210945"><ele>71.0</ele><time>2026-04-28T16:03:47.205Z</time></trkpt><trkpt lat="37.7983367" lon="15.2109133"><ele>71.0</ele><time>2026-04-28T16:03:48.205Z</time></trkpt><trkpt lat="37.7982433" lon="15.2108767"><ele>71.6</ele><time>2026-04-28T16:03:49.206Z</time></trkpt><trkpt lat="37.79814" lon="15.2108517"><ele>72.19999999999999</ele><time>2026-04-28T16:03:50.205Z</time></trkpt><trkpt lat="37.7980367" lon="15.2108283"><ele>72.80000000000001</ele><time>2026-04-28T16:03:51.205Z</time></trkpt><trkpt lat="37.797955" lon="15.21079"><ele>73.4</ele><time>2026-04-28T16:03:52.205Z</time></trkpt><trkpt lat="37.79789" lon="15.210755"><ele>74.0</ele><time>2026-04-28T16:03:53.206Z</time></trkpt><trkpt lat="37.79778" lon="15.2107167"><ele>74.0</ele><time>2026-04-28T16:03:55.205Z</time></trkpt><trkpt lat="37.7976833" lon="15.2106817"><ele>74.0</ele><time>2026-04-28T16:03:57.205Z</time></trkpt><trkpt lat="37.797585" lon="15.210645"><ele>74.0</ele><time>2026-04-28T16:03:59.205Z</time></trkpt><trkpt lat="37.79748" lon="15.2106267"><ele>74.0</ele><time>2026-04-28T16:04:01.205Z</time></trkpt><trkpt lat="37.79737" lon="15.2106167"><ele>74.0</ele><time>2026-04-28T16:04:03.205Z</time></trkpt><trkpt lat="37.7972767" lon="15.2105983"><ele>73.66666666666667</ele><time>2026-04-28T16:04:05.205Z</time></trkpt><trkpt lat="37.7971883" lon="15.210585"><ele>73.33333333333334</ele><time>2026-04-28T16:04:07.206Z</time></trkpt><trkpt lat="37.797125" lon="15.2105717"><ele>73.0</ele><time>2026-04-28T16:04:08.205Z</time></trkpt><trkpt lat="37.79706" lon="15.21056"><ele>72.66666666666667</ele><time>2026-04-28T16:04:09.206Z</time></trkpt><trkpt lat="37.7969833" lon="15.2105617"><ele>72.33333333333333</ele><time>2026-04-28T16:04:10.205Z</time></trkpt><trkpt lat="37.7969083" lon="15.2105467"><ele>72.0</ele><time>2026-04-28T16:04:11.205Z</time></trkpt><trkpt lat="37.7968067" lon="15.2105417"><ele>71.6</ele><time>2026-04-28T16:04:12.205Z</time></trkpt><trkpt lat="37.796695" lon="15.2105383"><ele>71.2</ele><time>2026-04-28T16:04:13.205Z</time></trkpt><trkpt lat="37.796585" lon="15.2105167"><ele>70.8</ele><time>2026-04-28T16:04:14.205Z</time></trkpt><trkpt lat="37.79648" lon="15.2104983"><ele>70.4</ele><time>2026-04-28T16:04:15.205Z</time></trkpt><trkpt lat="37.7963817" lon="15.2104867"><ele>70.0</ele><time>2026-04-28T16:04:16.205Z</time></trkpt><trkpt lat="37.7962867" lon="15.2104683"><ele>70.0</ele><time>2026-04-28T16:04:17.206Z</time></trkpt><trkpt lat="37.7961967" lon="15.21045"><ele>70.0</ele><time>2026-04-28T16:04:18.206Z</time></trkpt><trkpt lat="37.7961033" lon="15.2104333"><ele>70.0</ele><time>2026-04-28T16:04:19.205Z</time></trkpt><trkpt lat="37.7960167" lon="15.2104183"><ele>70.0</ele><time>2026-04-28T16:04:20.205Z</time></trkpt><trkpt lat="37.79593" lon="15.2103983"><ele>70.0</ele><time>2026-04-28T16:04:21.206Z</time></trkpt><trkpt lat="37.7958417" lon="15.2103817"><ele>69.5</ele><time>2026-04-28T16:04:22.205Z</time></trkpt><trkpt lat="37.7957567" lon="15.2103767"><ele>69.0</ele><time>2026-04-28T16:04:23.205Z</time></trkpt><trkpt lat="37.7956733" lon="15.2103633"><ele>68.5</ele><time>2026-04-28T16:04:24.205Z</time></trkpt><trkpt lat="37.7955917" lon="15.21036"><ele>68.0</ele><time>2026-04-28T16:04:25.205Z</time></trkpt><trkpt lat="37.7955167" lon="15.210345"><ele>67.5</ele><time>2026-04-28T16:04:26.205Z</time></trkpt><trkpt lat="37.79544" lon="15.2103317"><ele>67.0</ele><time>2026-04-28T16:04:27.205Z</time></trkpt><trkpt lat="37.79536" lon="15.210305"><ele>67.0</ele><time>2026-04-28T16:04:28.205Z</time></trkpt><trkpt lat="37.7952683" lon="15.210265"><ele>67.0</ele><time>2026-04-28T16:04:29.205Z</time></trkpt><trkpt lat="37.7951683" lon="15.2102133"><ele>67.0</ele><time>2026-04-28T16:04:30.205Z</time></trkpt><trkpt lat="37.7950683" lon="15.2101383"><ele>67.0</ele><time>2026-04-28T16:04:31.205Z</time></trkpt><trkpt lat="37.7949883" lon="15.21007"><ele>67.0</ele><time>2026-04-28T16:04:32.205Z</time></trkpt><trkpt lat="37.7949367" lon="15.2100067"><ele>66.8</ele><time>2026-04-28T16:04:33.205Z</time></trkpt><trkpt lat="37.79486" lon="15.2099283"><ele>66.6</ele><time>2026-04-28T16:04:35.205Z</time></trkpt><trkpt lat="37.7948117" lon="15.20987"><ele>66.39999999999999</ele><time>2026-04-28T16:04:38.205Z</time></trkpt><trkpt lat="37.794735" lon="15.20982"><ele>66.2</ele><time>2026-04-28T16:04:40.205Z</time></trkpt><trkpt lat="37.7946233" lon="15.209715"><ele>66.0</ele><time>2026-04-28T16:04:42.206Z</time></trkpt><trkpt lat="37.7945567" lon="15.2096467"><ele>66.0</ele><time>2026-04-28T16:04:43.205Z</time></trkpt><trkpt lat="37.7944767" lon="15.2095783"><ele>66.0</ele><time>2026-04-28T16:04:44.205Z</time></trkpt><trkpt lat="37.794395" lon="15.2095033"><ele>66.0</ele><time>2026-04-28T16:04:45.205Z</time></trkpt><trkpt lat="37.79431" lon="15.20943"><ele>66.0</ele><time>2026-04-28T16:04:46.205Z</time></trkpt><trkpt lat="37.7942433" lon="15.2093567"><ele>66.0</ele><time>2026-04-28T16:04:47.205Z</time></trkpt><trkpt lat="37.794185" lon="15.2092833"><ele>66.0</ele><time>2026-04-28T16:04:48.205Z</time></trkpt><trkpt lat="37.7941417" lon="15.2091967"><ele>66.0</ele><time>2026-04-28T16:04:49.205Z</time></trkpt><trkpt lat="37.7941267" lon="15.2091167"><ele>66.0</ele><time>2026-04-28T16:04:50.205Z</time></trkpt><trkpt lat="37.7941317" lon="15.2090233"><ele>66.0</ele><time>2026-04-28T16:04:51.205Z</time></trkpt><trkpt lat="37.7941583" lon="15.208915"><ele>66.0</ele><time>2026-04-28T16:04:52.205Z</time></trkpt><trkpt lat="37.7942033" lon="15.2088067"><ele>66.0</ele><time>2026-04-28T16:04:53.205Z</time></trkpt><trkpt lat="37.7942617" lon="15.2086983"><ele>66.0</ele><time>2026-04-28T16:04:54.206Z</time></trkpt><trkpt lat="37.7943167" lon="15.2085767"><ele>66.0</ele><time>2026-04-28T16:04:55.205Z</time></trkpt><trkpt lat="37.7943583" lon="15.2084533"><ele>66.0</ele><time>2026-04-28T16:04:56.205Z</time></trkpt><trkpt lat="37.7944067" lon="15.2083283"><ele>66.0</ele><time>2026-04-28T16:04:57.205Z</time></trkpt><trkpt lat="37.794445" lon="15.2082067"><ele>66.0</ele><time>2026-04-28T16:04:58.205Z</time></trkpt><trkpt lat="37.7944783" lon="15.2080917"><ele>66.66666666666667</ele><time>2026-04-28T16:04:59.205Z</time></trkpt><trkpt lat="37.79452" lon="15.20799"><ele>67.33333333333333</ele><time>2026-04-28T16:05:00.205Z</time></trkpt><trkpt lat="37.7945533" lon="15.2078917"><ele>68.0</ele><time>2026-04-28T16:05:01.205Z</time></trkpt><trkpt lat="37.7945817" lon="15.2078017"><ele>68.66666666666666</ele><time>2026-04-28T16:05:02.206Z</time></trkpt><trkpt lat="37.7946067" lon="15.2077217"><ele>69.33333333333333</ele><time>2026-04-28T16:05:03.206Z</time></trkpt><trkpt lat="37.79465" lon="15.20759"><ele>70.0</ele><time>2026-04-28T16:05:05.205Z</time></trkpt><trkpt lat="37.794645" lon="15.207485"><ele>70.0</ele><time>2026-04-28T16:05:07.205Z</time></trkpt><trkpt lat="37.79462" lon="15.2073917"><ele>70.0</ele><time>2026-04-28T16:05:09.205Z</time></trkpt><trkpt lat="37.7945917" lon="15.2073117"><ele>70.0</ele><time>2026-04-28T16:05:11.205Z</time></trkpt><trkpt lat="37.7945633" lon="15.2072083"><ele>70.0</ele><time>2026-04-28T16:05:14.205Z</time></trkpt><trkpt lat="37.7945233" lon="15.2071117"><ele>70.0</ele><time>2026-04-28T16:05:17.205Z</time></trkpt><trkpt lat="37.7944667" lon="15.2070167"><ele>70.0</ele><time>2026-04-28T16:05:19.206Z</time></trkpt><trkpt lat="37.7943767" lon="15.20693"><ele>69.8</ele><time>2026-04-28T16:05:21.205Z</time></trkpt><trkpt lat="37.79427" lon="15.2068583"><ele>69.6</ele><time>2026-04-28T16:05:23.205Z</time></trkpt><trkpt lat="37.7941483" lon="15.2067833"><ele>69.4</ele><time>2026-04-28T16:05:25.205Z</time></trkpt><trkpt lat="37.7940783" lon="15.2067433"><ele>69.2</ele><time>2026-04-28T16:05:26.205Z</time></trkpt><trkpt lat="37.793995" lon="15.206695"><ele>69.0</ele><time>2026-04-28T16:05:27.205Z</time></trkpt><trkpt lat="37.7939033" lon="15.2066483"><ele>69.0</ele><time>2026-04-28T16:05:28.205Z</time></trkpt><trkpt lat="37.793825" lon="15.2065867"><ele>69.0</ele><time>2026-04-28T16:05:29.206Z</time></trkpt><trkpt lat="37.7937533" lon="15.2065467"><ele>69.0</ele><time>2026-04-28T16:05:30.205Z</time></trkpt><trkpt lat="37.79368" lon="15.2065083"><ele>69.0</ele><time>2026-04-28T16:05:31.205Z</time></trkpt><trkpt lat="37.793605" lon="15.2064683"><ele>69.0</ele><time>2026-04-28T16:05:32.205Z</time></trkpt><trkpt lat="37.7935283" lon="15.2064233"><ele>69.0</ele><time>2026-04-28T16:05:33.205Z</time></trkpt><trkpt lat="37.7934417" lon="15.2063767"><ele>69.5</ele><time>2026-04-28T16:05:34.205Z</time></trkpt><trkpt lat="37.79336" lon="15.2063333"><ele>70.0</ele><time>2026-04-28T16:05:35.205Z</time></trkpt><trkpt lat="37.793285" lon="15.2062983"><ele>70.5</ele><time>2026-04-28T16:05:36.205Z</time></trkpt><trkpt lat="37.79322" lon="15.2062467"><ele>71.0</ele><time>2026-04-28T16:05:37.204Z</time></trkpt><trkpt lat="37.7931483" lon="15.2062133"><ele>71.5</ele><time>2026-04-28T16:05:38.205Z</time></trkpt><trkpt lat="37.793085" lon="15.2061767"><ele>72.0</ele><time>2026-04-28T16:05:39.205Z</time></trkpt><trkpt lat="37.793025" lon="15.20614"><ele>72.0</ele><time>2026-04-28T16:05:40.205Z</time></trkpt><trkpt lat="37.7929633" lon="15.2061067"><ele>72.0</ele><time>2026-04-28T16:05:41.205Z</time></trkpt><trkpt lat="37.7929017" lon="15.2060783"><ele>72.0</ele><time>2026-04-28T16:05:42.206Z</time></trkpt><trkpt lat="37.7928017" lon="15.2060133"><ele>72.0</ele><time>2026-04-28T16:05:44.205Z</time></trkpt><trkpt lat="37.7927" lon="15.2059733"><ele>72.0</ele><time>2026-04-28T16:05:46.205Z</time></trkpt><trkpt lat="37.7925783" lon="15.20591"><ele>72.0</ele><time>2026-04-28T16:05:48.205Z</time></trkpt><trkpt lat="37.7924817" lon="15.2058567"><ele>72.0</ele><time>2026-04-28T16:05:49.205Z</time></trkpt><trkpt lat="37.79239" lon="15.20581"><ele>72.0</ele><time>2026-04-28T16:05:50.205Z</time></trkpt><trkpt lat="37.7922967" lon="15.20575"><ele>72.0</ele><time>2026-04-28T16:05:51.206Z</time></trkpt><trkpt lat="37.7922133" lon="15.2057033"><ele>72.0</ele><time>2026-04-28T16:05:52.205Z</time></trkpt><trkpt lat="37.7921333" lon="15.2056483"><ele>72.0</ele><time>2026-04-28T16:05:53.205Z</time></trkpt><trkpt lat="37.7920583" lon="15.20561"><ele>72.0</ele><time>2026-04-28T16:05:54.205Z</time></trkpt><trkpt lat="37.7919783" lon="15.2055683"><ele>72.0</ele><time>2026-04-28T16:05:55.205Z</time></trkpt><trkpt lat="37.7919" lon="15.205525"><ele>72.0</ele><time>2026-04-28T16:05:56.206Z</time></trkpt><trkpt lat="37.79182" lon="15.2054833"><ele>72.0</ele><time>2026-04-28T16:05:57.205Z</time></trkpt><trkpt lat="37.7917417" lon="15.205435"><ele>72.0</ele><time>2026-04-28T16:05:58.205Z</time></trkpt><trkpt lat="37.791665" lon="15.2053883"><ele>71.66666666666667</ele><time>2026-04-28T16:05:59.206Z</time></trkpt><trkpt lat="37.7915867" lon="15.205345"><ele>71.33333333333333</ele><time>2026-04-28T16:06:00.205Z</time></trkpt><trkpt lat="37.79152" lon="15.2053083"><ele>71.0</ele><time>2026-04-28T16:06:01.206Z</time></trkpt><trkpt lat="37.791455" lon="15.2052683"><ele>70.66666666666666</ele><time>2026-04-28T16:06:02.205Z</time></trkpt><trkpt lat="37.7913917" lon="15.20523"><ele>70.33333333333333</ele><time>2026-04-28T16:06:03.206Z</time></trkpt><trkpt lat="37.7913217" lon="15.2051867"><ele>70.0</ele><time>2026-04-28T16:06:04.205Z</time></trkpt><trkpt lat="37.791245" lon="15.20514"><ele>70.0</ele><time>2026-04-28T16:06:05.205Z</time></trkpt><trkpt lat="37.7911567" lon="15.2050967"><ele>70.0</ele><time>2026-04-28T16:06:06.205Z</time></trkpt><trkpt lat="37.7910567" lon="15.2050417"><ele>70.0</ele><time>2026-04-28T16:06:07.205Z</time></trkpt><trkpt lat="37.7909483" lon="15.2049833"><ele>70.0</ele><time>2026-04-28T16:06:08.205Z</time></trkpt><trkpt lat="37.790835" lon="15.2049117"><ele>70.0</ele><time>2026-04-28T16:06:09.205Z</time></trkpt><trkpt lat="37.7907167" lon="15.2048317"><ele>69.5</ele><time>2026-04-28T16:06:10.205Z</time></trkpt><trkpt lat="37.7906067" lon="15.2047717"><ele>69.0</ele><time>2026-04-28T16:06:11.206Z</time></trkpt><trkpt lat="37.7904867" lon="15.2047133"><ele>68.5</ele><time>2026-04-28T16:06:12.205Z</time></trkpt><trkpt lat="37.7903817" lon="15.2046483"><ele>68.0</ele><time>2026-04-28T16:06:13.206Z</time></trkpt><trkpt lat="37.7902817" lon="15.204595"><ele>68.0</ele><time>2026-04-28T16:06:14.205Z</time></trkpt><trkpt lat="37.7901767" lon="15.2045417"><ele>68.0</ele><time>2026-04-28T16:06:15.205Z</time></trkpt><trkpt lat="37.79006" lon="15.2044867"><ele>68.0</ele><time>2026-04-28T16:06:16.205Z</time></trkpt><trkpt lat="37.7899533" lon="15.2044117"><ele>68.0</ele><time>2026-04-28T16:06:17.205Z</time></trkpt><trkpt lat="37.78984" lon="15.2043667"><ele>67.8</ele><time>2026-04-28T16:06:18.205Z</time></trkpt><trkpt lat="37.78974" lon="15.2043133"><ele>67.6</ele><time>2026-04-28T16:06:19.205Z</time></trkpt><trkpt lat="37.78966" lon="15.204255"><ele>67.4</ele><time>2026-04-28T16:06:20.205Z</time></trkpt><trkpt lat="37.7895833" lon="15.2042017"><ele>67.2</ele><time>2026-04-28T16:06:21.205Z</time></trkpt><trkpt lat="37.7895117" lon="15.2041483"><ele>67.0</ele><time>2026-04-28T16:06:22.205Z</time></trkpt><trkpt lat="37.7894333" lon="15.2041167"><ele>67.0</ele><time>2026-04-28T16:06:23.205Z</time></trkpt><trkpt lat="37.7893667" lon="15.2040783"><ele>67.0</ele><time>2026-04-28T16:06:24.205Z</time></trkpt><trkpt lat="37.7893083" lon="15.2040317"><ele>67.0</ele><time>2026-04-28T16:06:25.205Z</time></trkpt><trkpt lat="37.7892517" lon="15.2039933"><ele>67.0</ele><time>2026-04-28T16:06:26.205Z</time></trkpt><trkpt lat="37.789155" lon="15.2039417"><ele>67.0</ele><time>2026-04-28T16:06:28.205Z</time></trkpt><trkpt lat="37.7890567" lon="15.2038733"><ele>67.0</ele><time>2026-04-28T16:06:30.205Z</time></trkpt><trkpt lat="37.78896" lon="15.2038133"><ele>67.0</ele><time>2026-04-28T16:06:32.205Z</time></trkpt><trkpt lat="37.7888683" lon="15.2037633"><ele>67.0</ele><time>2026-04-28T16:06:34.205Z</time></trkpt><trkpt lat="37.7887783" lon="15.2037083"><ele>67.0</ele><time>2026-04-28T16:06:36.205Z</time></trkpt><trkpt lat="37.78869" lon="15.203665"><ele>67.0</ele><time>2026-04-28T16:06:38.205Z</time></trkpt><trkpt lat="37.788595" lon="15.2036233"><ele>67.0</ele><time>2026-04-28T16:06:40.205Z</time></trkpt><trkpt lat="37.7884683" lon="15.203575"><ele>65.0</ele><time>2026-04-28T16:06:42.205Z</time></trkpt><trkpt lat="37.7883767" lon="15.2035417"><ele>63.0</ele><time>2026-04-28T16:06:43.205Z</time></trkpt><trkpt lat="37.7882717" lon="15.2034983"><ele>61.0</ele><time>2026-04-28T16:06:44.205Z</time></trkpt><trkpt lat="37.7881417" lon="15.203455"><ele>59.0</ele><time>2026-04-28T16:06:45.205Z</time></trkpt><trkpt lat="37.7880017" lon="15.2034"><ele>59.0</ele><time>2026-04-28T16:06:46.205Z</time></trkpt><trkpt lat="37.7878567" lon="15.2033733"><ele>59.0</ele><time>2026-04-28T16:06:47.205Z</time></trkpt><trkpt lat="37.7877033" lon="15.203345"><ele>59.0</ele><time>2026-04-28T16:06:48.205Z</time></trkpt><trkpt lat="37.7875417" lon="15.2033167"><ele>57.333333333333336</ele><time>2026-04-28T16:06:49.205Z</time></trkpt><trkpt lat="37.787385" lon="15.2032883"><ele>55.66666666666667</ele><time>2026-04-28T16:06:50.205Z</time></trkpt><trkpt lat="37.78724" lon="15.2032683"><ele>54.0</ele><time>2026-04-28T16:06:51.205Z</time></trkpt><trkpt lat="37.78709" lon="15.203245"><ele>54.0</ele><time>2026-04-28T16:06:52.205Z</time></trkpt><trkpt lat="37.7869433" lon="15.2032217"><ele>54.0</ele><time>2026-04-28T16:06:53.205Z</time></trkpt><trkpt lat="37.7868117" lon="15.2031883"><ele>54.0</ele><time>2026-04-28T16:06:54.205Z</time></trkpt><trkpt lat="37.7866767" lon="15.203165"><ele>54.0</ele><time>2026-04-28T16:06:55.205Z</time></trkpt><trkpt lat="37.7865483" lon="15.2031417"><ele>54.2</ele><time>2026-04-28T16:06:56.205Z</time></trkpt><trkpt lat="37.7864317" lon="15.2031233"><ele>54.400000000000006</ele><time>2026-04-28T16:06:57.205Z</time></trkpt><trkpt lat="37.7863333" lon="15.2031067"><ele>54.6</ele><time>2026-04-28T16:06:58.206Z</time></trkpt><trkpt lat="37.7862467" lon="15.203085"><ele>54.8</ele><time>2026-04-28T16:06:59.205Z</time></trkpt><trkpt lat="37.78617" lon="15.2030683"><ele>55.0</ele><time>2026-04-28T16:07:00.206Z</time></trkpt><trkpt lat="37.7861017" lon="15.203045"><ele>55.0</ele><time>2026-04-28T16:07:01.205Z</time></trkpt><trkpt lat="37.78603" lon="15.20304"><ele>55.0</ele><time>2026-04-28T16:07:02.205Z</time></trkpt><trkpt lat="37.7859567" lon="15.2030217"><ele>55.0</ele><time>2026-04-28T16:07:03.205Z</time></trkpt><trkpt lat="37.7858633" lon="15.2030033"><ele>55.0</ele><time>2026-04-28T16:07:04.206Z</time></trkpt><trkpt lat="37.7857483" lon="15.20298"><ele>55.0</ele><time>2026-04-28T16:07:05.205Z</time></trkpt><trkpt lat="37.7856383" lon="15.2029467"><ele>55.0</ele><time>2026-04-28T16:07:06.205Z</time></trkpt><trkpt lat="37.785505" lon="15.20293"><ele>55.0</ele><time>2026-04-28T16:07:07.206Z</time></trkpt><trkpt lat="37.7853683" lon="15.2028967"><ele>55.0</ele><time>2026-04-28T16:07:08.205Z</time></trkpt><trkpt lat="37.7852367" lon="15.2028567"><ele>55.0</ele><time>2026-04-28T16:07:09.205Z</time></trkpt><trkpt lat="37.7851133" lon="15.20282"><ele>55.0</ele><time>2026-04-28T16:07:10.205Z</time></trkpt><trkpt lat="37.7849967" lon="15.2027933"><ele>55.0</ele><time>2026-04-28T16:07:11.205Z</time></trkpt><trkpt lat="37.784885" lon="15.2027783"><ele>55.0</ele><time>2026-04-28T16:07:12.205Z</time></trkpt><trkpt lat="37.7847583" lon="15.20278"><ele>55.0</ele><time>2026-04-28T16:07:13.205Z</time></trkpt><trkpt lat="37.7846333" lon="15.2027533"><ele>55.0</ele><time>2026-04-28T16:07:14.205Z</time></trkpt><trkpt lat="37.784525" lon="15.2027317"><ele>55.0</ele><time>2026-04-28T16:07:15.205Z</time></trkpt><trkpt lat="37.7844167" lon="15.2026983"><ele>55.0</ele><time>2026-04-28T16:07:16.205Z</time></trkpt><trkpt lat="37.7843133" lon="15.2026667"><ele>55.0</ele><time>2026-04-28T16:07:17.205Z</time></trkpt><trkpt lat="37.7842033" lon="15.2026483"><ele>55.0</ele><time>2026-04-28T16:07:18.205Z</time></trkpt><trkpt lat="37.78409" lon="15.2026183"><ele>55.0</ele><time>2026-04-28T16:07:19.205Z</time></trkpt><trkpt lat="37.7839817" lon="15.2025917"><ele>55.0</ele><time>2026-04-28T16:07:20.205Z</time></trkpt><trkpt lat="37.78387" lon="15.2025783"><ele>55.0</ele><time>2026-04-28T16:07:21.205Z</time></trkpt><trkpt lat="37.7837483" lon="15.2025483"><ele>55.0</ele><time>2026-04-28T16:07:22.205Z</time></trkpt><trkpt lat="37.783625" lon="15.2025167"><ele>54.75</ele><time>2026-04-28T16:07:23.205Z</time></trkpt><trkpt lat="37.783495" lon="15.2025"><ele>54.5</ele><time>2026-04-28T16:07:24.205Z</time></trkpt><trkpt lat="37.7833733" lon="15.202475"><ele>54.25</ele><time>2026-04-28T16:07:25.205Z</time></trkpt><trkpt lat="37.78324" lon="15.2024483"><ele>54.0</ele><time>2026-04-28T16:07:26.205Z</time></trkpt><trkpt lat="37.7830917" lon="15.2024167"><ele>54.0</ele><time>2026-04-28T16:07:27.205Z</time></trkpt><trkpt lat="37.7829517" lon="15.2023817"><ele>54.0</ele><time>2026-04-28T16:07:28.205Z</time></trkpt><trkpt lat="37.782805" lon="15.2023467"><ele>54.0</ele><time>2026-04-28T16:07:29.205Z</time></trkpt><trkpt lat="37.7826683" lon="15.2023167"><ele>54.0</ele><time>2026-04-28T16:07:30.205Z</time></trkpt><trkpt lat="37.7825383" lon="15.2022783"><ele>54.0</ele><time>2026-04-28T16:07:31.205Z</time></trkpt><trkpt lat="37.782405" lon="15.202255"><ele>54.0</ele><time>2026-04-28T16:07:32.205Z</time></trkpt><trkpt lat="37.78227" lon="15.2022333"><ele>54.0</ele><time>2026-04-28T16:07:33.206Z</time></trkpt><trkpt lat="37.782135" lon="15.2022133"><ele>54.0</ele><time>2026-04-28T16:07:34.205Z</time></trkpt><trkpt lat="37.7820033" lon="15.2021867"><ele>54.0</ele><time>2026-04-28T16:07:35.205Z</time></trkpt><trkpt lat="37.7818717" lon="15.2021667"><ele>54.0</ele><time>2026-04-28T16:07:36.206Z</time></trkpt><trkpt lat="37.7817433" lon="15.2021483"><ele>54.0</ele><time>2026-04-28T16:07:37.206Z</time></trkpt><trkpt lat="37.7816183" lon="15.2021267"><ele>54.0</ele><time>2026-04-28T16:07:38.205Z</time></trkpt><trkpt lat="37.7815033" lon="15.20211"><ele>54.25</ele><time>2026-04-28T16:07:39.206Z</time></trkpt><trkpt lat="37.7813867" lon="15.2020867"><ele>54.5</ele><time>2026-04-28T16:07:40.205Z</time></trkpt><trkpt lat="37.7812617" lon="15.2020667"><ele>54.75</ele><time>2026-04-28T16:07:41.205Z</time></trkpt><trkpt lat="37.7811383" lon="15.2020433"><ele>55.0</ele><time>2026-04-28T16:07:42.205Z</time></trkpt><trkpt lat="37.7810117" lon="15.2020217"><ele>55.75</ele><time>2026-04-28T16:07:43.205Z</time></trkpt><trkpt lat="37.7808767" lon="15.20199"><ele>56.5</ele><time>2026-04-28T16:07:44.205Z</time></trkpt><trkpt lat="37.7807383" lon="15.2019667"><ele>57.25</ele><time>2026-04-28T16:07:45.205Z</time></trkpt><trkpt lat="37.7806017" lon="15.20194"><ele>58.0</ele><time>2026-04-28T16:07:46.205Z</time></trkpt><trkpt lat="37.7804733" lon="15.2019283"><ele>58.0</ele><time>2026-04-28T16:07:47.205Z</time></trkpt><trkpt lat="37.7803483" lon="15.2019167"><ele>58.0</ele><time>2026-04-28T16:07:48.205Z</time></trkpt><trkpt lat="37.780235" lon="15.2019017"><ele>58.0</ele><time>2026-04-28T16:07:49.205Z</time></trkpt><trkpt lat="37.780135" lon="15.2018833"><ele>58.0</ele><time>2026-04-28T16:07:50.205Z</time></trkpt><trkpt lat="37.7800433" lon="15.2018667"><ele>58.0</ele><time>2026-04-28T16:07:51.206Z</time></trkpt><trkpt lat="37.77996" lon="15.2018567"><ele>58.166666666666664</ele><time>2026-04-28T16:07:52.205Z</time></trkpt><trkpt lat="37.7798867" lon="15.201845"><ele>58.33333333333333</ele><time>2026-04-28T16:07:53.205Z</time></trkpt><trkpt lat="37.77981" lon="15.2018333"><ele>58.5</ele><time>2026-04-28T16:07:54.205Z</time></trkpt><trkpt lat="37.779725" lon="15.201815"><ele>58.66666666666667</ele><time>2026-04-28T16:07:55.206Z</time></trkpt><trkpt lat="37.7796433" lon="15.2018067"><ele>58.833333333333336</ele><time>2026-04-28T16:07:56.205Z</time></trkpt><trkpt lat="37.7795633" lon="15.20179"><ele>59.0</ele><time>2026-04-28T16:07:57.205Z</time></trkpt><trkpt lat="37.77949" lon="15.2017683"><ele>59.00000000000001</ele><time>2026-04-28T16:07:58.205Z</time></trkpt><trkpt lat="37.7794133" lon="15.201745"><ele>59.0</ele><time>2026-04-28T16:07:59.205Z</time></trkpt><trkpt lat="37.7793317" lon="15.2017233"><ele>59.0</ele><time>2026-04-28T16:08:00.205Z</time></trkpt><trkpt lat="37.7792467" lon="15.2016983"><ele>59.0</ele><time>2026-04-28T16:08:01.205Z</time></trkpt><trkpt lat="37.77916" lon="15.2016533"><ele>59.00000000000001</ele><time>2026-04-28T16:08:02.205Z</time></trkpt><trkpt lat="37.7790683" lon="15.2015967"><ele>59.0</ele><time>2026-04-28T16:08:03.206Z</time></trkpt><trkpt lat="37.7789717" lon="15.2015383"><ele>59.6</ele><time>2026-04-28T16:08:04.205Z</time></trkpt><trkpt lat="37.778875" lon="15.201485"><ele>60.2</ele><time>2026-04-28T16:08:05.206Z</time></trkpt><trkpt lat="37.778775" lon="15.2014367"><ele>60.800000000000004</ele><time>2026-04-28T16:08:06.205Z</time></trkpt><trkpt lat="37.7786867" lon="15.20138"><ele>61.400000000000006</ele><time>2026-04-28T16:08:07.205Z</time></trkpt><trkpt lat="37.7786067" lon="15.201315"><ele>62.0</ele><time>2026-04-28T16:08:08.205Z</time></trkpt><trkpt lat="37.778525" lon="15.20125"><ele>61.8</ele><time>2026-04-28T16:08:09.206Z</time></trkpt><trkpt lat="37.778445" lon="15.2011983"><ele>61.6</ele><time>2026-04-28T16:08:10.205Z</time></trkpt><trkpt lat="37.7783533" lon="15.2011633"><ele>61.39999999999999</ele><time>2026-04-28T16:08:11.205Z</time></trkpt><trkpt lat="37.77826" lon="15.2011317"><ele>61.199999999999996</ele><time>2026-04-28T16:08:12.205Z</time></trkpt><trkpt lat="37.7781533" lon="15.201115"><ele>61.0</ele><time>2026-04-28T16:08:13.206Z</time></trkpt><trkpt lat="37.7780433" lon="15.2011117"><ele>61.0</ele><time>2026-04-28T16:08:14.206Z</time></trkpt><trkpt lat="37.777925" lon="15.20111"><ele>61.0</ele><time>2026-04-28T16:08:15.205Z</time></trkpt><trkpt lat="37.7778083" lon="15.2011133"><ele>61.0</ele><time>2026-04-28T16:08:16.205Z</time></trkpt><trkpt lat="37.777675" lon="15.2011167"><ele>61.0</ele><time>2026-04-28T16:08:17.205Z</time></trkpt><trkpt lat="37.7775317" lon="15.20112"><ele>60.666666666666664</ele><time>2026-04-28T16:08:18.205Z</time></trkpt><trkpt lat="37.7773867" lon="15.2011383"><ele>60.33333333333333</ele><time>2026-04-28T16:08:19.205Z</time></trkpt><trkpt lat="37.77724" lon="15.2011433"><ele>60.0</ele><time>2026-04-28T16:08:20.206Z</time></trkpt><trkpt lat="37.7770783" lon="15.2011633"><ele>60.0</ele><time>2026-04-28T16:08:21.205Z</time></trkpt><trkpt lat="37.7769083" lon="15.2011833"><ele>60.0</ele><time>2026-04-28T16:08:22.205Z</time></trkpt><trkpt lat="37.7767283" lon="15.2012017"><ele>60.0</ele><time>2026-04-28T16:08:23.205Z</time></trkpt><trkpt lat="37.7765333" lon="15.2012183"><ele>59.33333333333333</ele><time>2026-04-28T16:08:24.205Z</time></trkpt><trkpt lat="37.7763233" lon="15.2012267"><ele>58.666666666666664</ele><time>2026-04-28T16:08:25.205Z</time></trkpt><trkpt lat="37.7761017" lon="15.2012133"><ele>58.0</ele><time>2026-04-28T16:08:26.205Z</time></trkpt><trkpt lat="37.7758767" lon="15.2011783"><ele>58.0</ele><time>2026-04-28T16:08:27.205Z</time></trkpt><trkpt lat="37.775655" lon="15.2011417"><ele>58.0</ele><time>2026-04-28T16:08:28.206Z</time></trkpt><trkpt lat="37.7754317" lon="15.2010883"><ele>58.0</ele><time>2026-04-28T16:08:29.205Z</time></trkpt><trkpt lat="37.77521" lon="15.2010233"><ele>58.0</ele><time>2026-04-28T16:08:30.206Z</time></trkpt><trkpt lat="37.7749917" lon="15.2009517"><ele>56.5</ele><time>2026-04-28T16:08:31.205Z</time></trkpt><trkpt lat="37.7747717" lon="15.2008617"><ele>55.0</ele><time>2026-04-28T16:08:32.205Z</time></trkpt><trkpt lat="37.7745583" lon="15.2007533"><ele>55.0</ele><time>2026-04-28T16:08:33.206Z</time></trkpt><trkpt lat="37.7743533" lon="15.200635"><ele>55.0</ele><time>2026-04-28T16:08:34.205Z</time></trkpt><trkpt lat="37.774145" lon="15.2005083"><ele>55.0</ele><time>2026-04-28T16:08:35.205Z</time></trkpt><trkpt lat="37.7739333" lon="15.20036"><ele>55.0</ele><time>2026-04-28T16:08:36.205Z</time></trkpt><trkpt lat="37.773725" lon="15.2002183"><ele>54.0</ele><time>2026-04-28T16:08:37.205Z</time></trkpt><trkpt lat="37.7735117" lon="15.2000833"><ele>53.0</ele><time>2026-04-28T16:08:38.206Z</time></trkpt><trkpt lat="37.7732983" lon="15.1999417"><ele>53.5</ele><time>2026-04-28T16:08:39.205Z</time></trkpt><trkpt lat="37.7730933" lon="15.19981"><ele>54.0</ele><time>2026-04-28T16:08:40.205Z</time></trkpt><trkpt lat="37.772895" lon="15.1996767"><ele>54.0</ele><time>2026-04-28T16:08:41.205Z</time></trkpt><trkpt lat="37.772705" lon="15.199545"><ele>54.0</ele><time>2026-04-28T16:08:42.206Z</time></trkpt><trkpt lat="37.77251" lon="15.1994167"><ele>54.0</ele><time>2026-04-28T16:08:43.205Z</time></trkpt><trkpt lat="37.7723117" lon="15.1992867"><ele>54.0</ele><time>2026-04-28T16:08:44.205Z</time></trkpt><trkpt lat="37.77211" lon="15.1991517"><ele>54.0</ele><time>2026-04-28T16:08:45.205Z</time></trkpt><trkpt lat="37.7719067" lon="15.1990217"><ele>52.0</ele><time>2026-04-28T16:08:46.205Z</time></trkpt><trkpt lat="37.7717217" lon="15.198905"><ele>50.0</ele><time>2026-04-28T16:08:47.205Z</time></trkpt><trkpt lat="37.7715383" lon="15.1987817"><ele>48.0</ele><time>2026-04-28T16:08:48.205Z</time></trkpt><trkpt lat="37.771355" lon="15.19865"><ele>48.0</ele><time>2026-04-28T16:08:49.205Z</time></trkpt><trkpt lat="37.7711867" lon="15.1985267"><ele>48.0</ele><time>2026-04-28T16:08:50.205Z</time></trkpt><trkpt lat="37.7710083" lon="15.1984017"><ele>48.0</ele><time>2026-04-28T16:08:51.205Z</time></trkpt><trkpt lat="37.7708317" lon="15.1982633"><ele>48.66666666666667</ele><time>2026-04-28T16:08:52.205Z</time></trkpt><trkpt lat="37.770655" lon="15.1981283"><ele>49.333333333333336</ele><time>2026-04-28T16:08:53.206Z</time></trkpt><trkpt lat="37.77048" lon="15.198005"><ele>50.0</ele><time>2026-04-28T16:08:54.205Z</time></trkpt><trkpt lat="37.7703183" lon="15.1978833"><ele>49.333333333333336</ele><time>2026-04-28T16:08:55.205Z</time></trkpt><trkpt lat="37.7701567" lon="15.1977633"><ele>48.66666666666667</ele><time>2026-04-28T16:08:56.205Z</time></trkpt><trkpt lat="37.7700117" lon="15.1976517"><ele>48.0</ele><time>2026-04-28T16:08:57.205Z</time></trkpt><trkpt lat="37.7698667" lon="15.1975467"><ele>48.0</ele><time>2026-04-28T16:08:58.205Z</time></trkpt><trkpt lat="37.7697233" lon="15.1974433"><ele>48.0</ele><time>2026-04-28T16:08:59.205Z</time></trkpt><trkpt lat="37.76958" lon="15.1973333"><ele>48.0</ele><time>2026-04-28T16:09:00.205Z</time></trkpt><trkpt lat="37.7694467" lon="15.1972317"><ele>49.33333333333333</ele><time>2026-04-28T16:09:01.205Z</time></trkpt><trkpt lat="37.7693183" lon="15.1971383"><ele>50.666666666666664</ele><time>2026-04-28T16:09:02.205Z</time></trkpt><trkpt lat="37.7691867" lon="15.19704"><ele>52.0</ele><time>2026-04-28T16:09:03.205Z</time></trkpt><trkpt lat="37.7690483" lon="15.19694"><ele>52.0</ele><time>2026-04-28T16:09:04.205Z</time></trkpt><trkpt lat="37.7688983" lon="15.1968383"><ele>52.0</ele><time>2026-04-28T16:09:05.206Z</time></trkpt><trkpt lat="37.7687417" lon="15.1967233"><ele>52.0</ele><time>2026-04-28T16:09:06.206Z</time></trkpt><trkpt lat="37.7685767" lon="15.1965933"><ele>52.666666666666664</ele><time>2026-04-28T16:09:07.205Z</time></trkpt><trkpt lat="37.76842" lon="15.1964683"><ele>53.33333333333333</ele><time>2026-04-28T16:09:08.205Z</time></trkpt><trkpt lat="37.7682633" lon="15.1963483"><ele>54.0</ele><time>2026-04-28T16:09:09.205Z</time></trkpt><trkpt lat="37.76811" lon="15.1962217"><ele>54.0</ele><time>2026-04-28T16:09:10.205Z</time></trkpt><trkpt lat="37.7679633" lon="15.1961067"><ele>54.0</ele><time>2026-04-28T16:09:11.205Z</time></trkpt><trkpt lat="37.767825" lon="15.196005"><ele>54.0</ele><time>2026-04-28T16:09:12.205Z</time></trkpt><trkpt lat="37.76769" lon="15.1959033"><ele>54.25</ele><time>2026-04-28T16:09:13.205Z</time></trkpt><trkpt lat="37.7675567" lon="15.195805"><ele>54.5</ele><time>2026-04-28T16:09:14.205Z</time></trkpt><trkpt lat="37.767425" lon="15.1957133"><ele>54.75</ele><time>2026-04-28T16:09:15.205Z</time></trkpt><trkpt lat="37.7673117" lon="15.1956333"><ele>55.0</ele><time>2026-04-28T16:09:16.205Z</time></trkpt><trkpt lat="37.7672083" lon="15.1955667"><ele>55.0</ele><time>2026-04-28T16:09:17.205Z</time></trkpt><trkpt lat="37.7671133" lon="15.1955017"><ele>55.0</ele><time>2026-04-28T16:09:18.205Z</time></trkpt><trkpt lat="37.7670167" lon="15.1954467"><ele>55.0</ele><time>2026-04-28T16:09:19.205Z</time></trkpt><trkpt lat="37.76691" lon="15.1953867"><ele>55.0</ele><time>2026-04-28T16:09:20.206Z</time></trkpt><trkpt lat="37.7668017" lon="15.1953183"><ele>54.25</ele><time>2026-04-28T16:09:21.205Z</time></trkpt><trkpt lat="37.7666917" lon="15.1952533"><ele>53.5</ele><time>2026-04-28T16:09:22.205Z</time></trkpt><trkpt lat="37.766585" lon="15.1951883"><ele>52.75</ele><time>2026-04-28T16:09:23.205Z</time></trkpt><trkpt lat="37.76648" lon="15.19512"><ele>52.0</ele><time>2026-04-28T16:09:24.205Z</time></trkpt><trkpt lat="37.76637" lon="15.1950533"><ele>52.0</ele><time>2026-04-28T16:09:25.205Z</time></trkpt><trkpt lat="37.76625" lon="15.1949817"><ele>52.0</ele><time>2026-04-28T16:09:26.205Z</time></trkpt><trkpt lat="37.7661117" lon="15.194905"><ele>52.0</ele><time>2026-04-28T16:09:27.206Z</time></trkpt><trkpt lat="37.765965" lon="15.1948167"><ele>52.0</ele><time>2026-04-28T16:09:28.205Z</time></trkpt><trkpt lat="37.7658233" lon="15.1947267"><ele>52.0</ele><time>2026-04-28T16:09:29.205Z</time></trkpt><trkpt lat="37.76568" lon="15.194645"><ele>52.0</ele><time>2026-04-28T16:09:30.205Z</time></trkpt><trkpt lat="37.7655467" lon="15.1945817"><ele>52.0</ele><time>2026-04-28T16:09:31.205Z</time></trkpt><trkpt lat="37.7653883" lon="15.194535"><ele>52.0</ele><time>2026-04-28T16:09:32.205Z</time></trkpt><trkpt lat="37.7652217" lon="15.1945117"><ele>52.0</ele><time>2026-04-28T16:09:33.205Z</time></trkpt><trkpt lat="37.7650533" lon="15.1945083"><ele>52.0</ele><time>2026-04-28T16:09:34.205Z</time></trkpt><trkpt lat="37.7649083" lon="15.19452"><ele>50.5</ele><time>2026-04-28T16:09:35.205Z</time></trkpt><trkpt lat="37.7647583" lon="15.1945267"><ele>49.0</ele><time>2026-04-28T16:09:36.205Z</time></trkpt><trkpt lat="37.764615" lon="15.194535"><ele>47.5</ele><time>2026-04-28T16:09:37.205Z</time></trkpt><trkpt lat="37.7644817" lon="15.1945367"><ele>46.0</ele><time>2026-04-28T16:09:38.205Z</time></trkpt><trkpt lat="37.7643433" lon="15.19453"><ele>45.5</ele><time>2026-04-28T16:09:39.205Z</time></trkpt><trkpt lat="37.7642167" lon="15.1945383"><ele>45.0</ele><time>2026-04-28T16:09:40.205Z</time></trkpt><trkpt lat="37.7640933" lon="15.1945433"><ele>44.5</ele><time>2026-04-28T16:09:41.205Z</time></trkpt><trkpt lat="37.763975" lon="15.194565"><ele>44.0</ele><time>2026-04-28T16:09:42.205Z</time></trkpt><trkpt lat="37.76387" lon="15.1946017"><ele>44.0</ele><time>2026-04-28T16:09:43.205Z</time></trkpt><trkpt lat="37.7637617" lon="15.1946383"><ele>44.0</ele><time>2026-04-28T16:09:44.205Z</time></trkpt><trkpt lat="37.763665" lon="15.1946883"><ele>44.0</ele><time>2026-04-28T16:09:45.205Z</time></trkpt><trkpt lat="37.7635633" lon="15.1947333"><ele>44.0</ele><time>2026-04-28T16:09:46.206Z</time></trkpt><trkpt lat="37.76347" lon="15.1947933"><ele>44.0</ele><time>2026-04-28T16:09:47.205Z</time></trkpt><trkpt lat="37.7633633" lon="15.1948617"><ele>43.5</ele><time>2026-04-28T16:09:48.205Z</time></trkpt><trkpt lat="37.763255" lon="15.1949333"><ele>43.0</ele><time>2026-04-28T16:09:49.206Z</time></trkpt><trkpt lat="37.76314" lon="15.1950067"><ele>42.5</ele><time>2026-04-28T16:09:50.206Z</time></trkpt><trkpt lat="37.7630233" lon="15.1950883"><ele>42.0</ele><time>2026-04-28T16:09:51.205Z</time></trkpt><trkpt lat="37.7629033" lon="15.1951783"><ele>42.0</ele><time>2026-04-28T16:09:52.206Z</time></trkpt><trkpt lat="37.7627767" lon="15.19527"><ele>42.0</ele><time>2026-04-28T16:09:53.205Z</time></trkpt><trkpt lat="37.7626433" lon="15.195335"><ele>42.0</ele><time>2026-04-28T16:09:54.205Z</time></trkpt><trkpt lat="37.7624933" lon="15.19539"><ele>42.0</ele><time>2026-04-28T16:09:55.205Z</time></trkpt><trkpt lat="37.7623417" lon="15.195445"><ele>42.0</ele><time>2026-04-28T16:09:56.205Z</time></trkpt><trkpt lat="37.76219" lon="15.19549"><ele>42.0</ele><time>2026-04-28T16:09:57.206Z</time></trkpt><trkpt lat="37.7620367" lon="15.1955383"><ele>42.0</ele><time>2026-04-28T16:09:58.205Z</time></trkpt><trkpt lat="37.76188" lon="15.1955783"><ele>40.666666666666664</ele><time>2026-04-28T16:09:59.205Z</time></trkpt><trkpt lat="37.7617167" lon="15.1956267"><ele>39.33333333333333</ele><time>2026-04-28T16:10:00.205Z</time></trkpt><trkpt lat="37.76156" lon="15.1956717"><ele>38.0</ele><time>2026-04-28T16:10:01.205Z</time></trkpt><trkpt lat="37.76141" lon="15.1957167"><ele>38.0</ele><time>2026-04-28T16:10:02.205Z</time></trkpt><trkpt lat="37.76126" lon="15.1957533"><ele>38.0</ele><time>2026-04-28T16:10:03.206Z</time></trkpt><trkpt lat="37.761105" lon="15.1957933"><ele>38.0</ele><time>2026-04-28T16:10:04.205Z</time></trkpt><trkpt lat="37.7609533" lon="15.195835"><ele>37.33333333333333</ele><time>2026-04-28T16:10:05.205Z</time></trkpt><trkpt lat="37.760805" lon="15.1958867"><ele>36.666666666666664</ele><time>2026-04-28T16:10:06.205Z</time></trkpt><trkpt lat="37.760655" lon="15.1959317"><ele>36.0</ele><time>2026-04-28T16:10:07.205Z</time></trkpt><trkpt lat="37.7605033" lon="15.1959783"><ele>36.0</ele><time>2026-04-28T16:10:08.206Z</time></trkpt><trkpt lat="37.7603517" lon="15.1960283"><ele>36.0</ele><time>2026-04-28T16:10:09.205Z</time></trkpt><trkpt lat="37.7601933" lon="15.1960783"><ele>36.0</ele><time>2026-04-28T16:10:10.205Z</time></trkpt><trkpt lat="37.7600417" lon="15.196145"><ele>35.333333333333336</ele><time>2026-04-28T16:10:11.205Z</time></trkpt><trkpt lat="37.7598933" lon="15.1962133"><ele>34.66666666666667</ele><time>2026-04-28T16:10:12.205Z</time></trkpt><trkpt lat="37.75974" lon="15.196285"><ele>34.0</ele><time>2026-04-28T16:10:13.205Z</time></trkpt><trkpt lat="37.759595" lon="15.1963567"><ele>34.0</ele><time>2026-04-28T16:10:14.206Z</time></trkpt><trkpt lat="37.7594483" lon="15.1964217"><ele>34.0</ele><time>2026-04-28T16:10:15.205Z</time></trkpt><trkpt lat="37.759295" lon="15.1964833"><ele>34.0</ele><time>2026-04-28T16:10:16.205Z</time></trkpt><trkpt lat="37.7591467" lon="15.1965283"><ele>32.25</ele><time>2026-04-28T16:10:17.205Z</time></trkpt><trkpt lat="37.7589883" lon="15.19655"><ele>30.5</ele><time>2026-04-28T16:10:18.205Z</time></trkpt><trkpt lat="37.7588533" lon="15.1965667"><ele>28.75</ele><time>2026-04-28T16:10:19.206Z</time></trkpt><trkpt lat="37.7587283" lon="15.196585"><ele>27.0</ele><time>2026-04-28T16:10:20.205Z</time></trkpt><trkpt lat="37.758605" lon="15.19659"><ele>27.200000000000003</ele><time>2026-04-28T16:10:21.205Z</time></trkpt><trkpt lat="37.7584717" lon="15.1965883"><ele>27.400000000000002</ele><time>2026-04-28T16:10:22.205Z</time></trkpt><trkpt lat="37.7583567" lon="15.1965867"><ele>27.599999999999998</ele><time>2026-04-28T16:10:23.206Z</time></trkpt><trkpt lat="37.7582717" lon="15.1965867"><ele>27.799999999999997</ele><time>2026-04-28T16:10:24.205Z</time></trkpt><trkpt lat="37.75816" lon="15.19658"><ele>28.0</ele><time>2026-04-28T16:10:26.205Z</time></trkpt><trkpt lat="37.758095" lon="15.1965633"><ele>28.0</ele><time>2026-04-28T16:10:28.206Z</time></trkpt><trkpt lat="37.7580117" lon="15.1965583"><ele>27.999999999999996</ele><time>2026-04-28T16:10:42.205Z</time></trkpt><trkpt lat="37.7579333" lon="15.196565"><ele>27.999999999999996</ele><time>2026-04-28T16:10:44.205Z</time></trkpt><trkpt lat="37.7578533" lon="15.1965633"><ele>28.0</ele><time>2026-04-28T16:10:46.205Z</time></trkpt><trkpt lat="37.7577483" lon="15.19653"><ele>28.0</ele><time>2026-04-28T16:10:53.205Z</time></trkpt><trkpt lat="37.757645" lon="15.1965267"><ele>27.599999999999998</ele><time>2026-04-28T16:10:56.205Z</time></trkpt><trkpt lat="37.7575617" lon="15.1965317"><ele>27.199999999999996</ele><time>2026-04-28T16:10:58.205Z</time></trkpt><trkpt lat="37.7574583" lon="15.1965317"><ele>26.8</ele><time>2026-04-28T16:11:00.206Z</time></trkpt><trkpt lat="37.7573483" lon="15.1965233"><ele>26.4</ele><time>2026-04-28T16:11:02.205Z</time></trkpt><trkpt lat="37.75724" lon="15.1965033"><ele>26.0</ele><time>2026-04-28T16:11:04.205Z</time></trkpt><trkpt lat="37.7571233" lon="15.1964883"><ele>25.999999999999996</ele><time>2026-04-28T16:11:06.206Z</time></trkpt><trkpt lat="37.7569933" lon="15.19648"><ele>26.0</ele><time>2026-04-28T16:11:08.205Z</time></trkpt><trkpt lat="37.756925" lon="15.1964633"><ele>26.0</ele><time>2026-04-28T16:11:09.206Z</time></trkpt><trkpt lat="37.7568567" lon="15.196455"><ele>26.0</ele><time>2026-04-28T16:11:10.206Z</time></trkpt><trkpt lat="37.75679" lon="15.1964433"><ele>25.999999999999996</ele><time>2026-04-28T16:11:11.205Z</time></trkpt><trkpt lat="37.7567233" lon="15.1964217"><ele>26.0</ele><time>2026-04-28T16:11:12.205Z</time></trkpt><trkpt lat="37.7566533" lon="15.1963983"><ele>25.666666666666664</ele><time>2026-04-28T16:11:13.205Z</time></trkpt><trkpt lat="37.756575" lon="15.196375"><ele>25.333333333333332</ele><time>2026-04-28T16:11:14.206Z</time></trkpt><trkpt lat="37.7564967" lon="15.1963633"><ele>25.0</ele><time>2026-04-28T16:11:15.206Z</time></trkpt><trkpt lat="37.756425" lon="15.196335"><ele>24.666666666666664</ele><time>2026-04-28T16:11:16.205Z</time></trkpt><trkpt lat="37.75635" lon="15.1963117"><ele>24.333333333333332</ele><time>2026-04-28T16:11:17.205Z</time></trkpt><trkpt lat="37.7562783" lon="15.19628"><ele>24.0</ele><time>2026-04-28T16:11:18.205Z</time></trkpt><trkpt lat="37.7562" lon="15.1962483"><ele>24.0</ele><time>2026-04-28T16:11:19.206Z</time></trkpt><trkpt lat="37.7561333" lon="15.1962133"><ele>24.0</ele><time>2026-04-28T16:11:20.205Z</time></trkpt><trkpt lat="37.75607" lon="15.19618"><ele>24.0</ele><time>2026-04-28T16:11:21.206Z</time></trkpt><trkpt lat="37.7559917" lon="15.1961467"><ele>24.0</ele><time>2026-04-28T16:11:22.205Z</time></trkpt><trkpt lat="37.7559117" lon="15.1961033"><ele>24.0</ele><time>2026-04-28T16:11:23.205Z</time></trkpt><trkpt lat="37.7558133" lon="15.1960667"><ele>24.0</ele><time>2026-04-28T16:11:24.205Z</time></trkpt><trkpt lat="37.7557067" lon="15.196015"><ele>23.0</ele><time>2026-04-28T16:11:25.205Z</time></trkpt><trkpt lat="37.7555717" lon="15.1959517"><ele>22.0</ele><time>2026-04-28T16:11:26.205Z</time></trkpt><trkpt lat="37.7554283" lon="15.195885"><ele>21.0</ele><time>2026-04-28T16:11:27.205Z</time></trkpt><trkpt lat="37.7553" lon="15.1958233"><ele>20.0</ele><time>2026-04-28T16:11:28.205Z</time></trkpt><trkpt lat="37.7551717" lon="15.195765"><ele>19.75</ele><time>2026-04-28T16:11:29.205Z</time></trkpt><trkpt lat="37.755045" lon="15.1957133"><ele>19.5</ele><time>2026-04-28T16:11:30.205Z</time></trkpt><trkpt lat="37.7549183" lon="15.19565"><ele>19.25</ele><time>2026-04-28T16:11:31.205Z</time></trkpt><trkpt lat="37.7548017" lon="15.1955983"><ele>19.0</ele><time>2026-04-28T16:11:32.205Z</time></trkpt><trkpt lat="37.7546967" lon="15.195535"><ele>19.0</ele><time>2026-04-28T16:11:33.205Z</time></trkpt><trkpt lat="37.7545817" lon="15.1954867"><ele>19.0</ele><time>2026-04-28T16:11:34.205Z</time></trkpt><trkpt lat="37.7544683" lon="15.19543"><ele>19.0</ele><time>2026-04-28T16:11:35.205Z</time></trkpt><trkpt lat="37.7543633" lon="15.195365"><ele>19.0</ele><time>2026-04-28T16:11:36.205Z</time></trkpt><trkpt lat="37.7542633" lon="15.1953117"><ele>19.0</ele><time>2026-04-28T16:11:37.205Z</time></trkpt><trkpt lat="37.754165" lon="15.1952683"><ele>19.0</ele><time>2026-04-28T16:11:38.205Z</time></trkpt><trkpt lat="37.75407" lon="15.1952267"><ele>19.0</ele><time>2026-04-28T16:11:39.205Z</time></trkpt><trkpt lat="37.7539667" lon="15.1951933"><ele>19.0</ele><time>2026-04-28T16:11:40.205Z</time></trkpt><trkpt lat="37.7538817" lon="15.1951433"><ele>19.0</ele><time>2026-04-28T16:11:41.206Z</time></trkpt><trkpt lat="37.753785" lon="15.1951067"><ele>19.0</ele><time>2026-04-28T16:11:42.206Z</time></trkpt><trkpt lat="37.75369" lon="15.1950617"><ele>19.0</ele><time>2026-04-28T16:11:43.205Z</time></trkpt><trkpt lat="37.7535983" lon="15.1950217"><ele>19.0</ele><time>2026-04-28T16:11:44.205Z</time></trkpt><trkpt lat="37.7535067" lon="15.1949833"><ele>19.0</ele><time>2026-04-28T16:11:45.206Z</time></trkpt><trkpt lat="37.7534233" lon="15.194945"><ele>19.0</ele><time>2026-04-28T16:11:46.205Z</time></trkpt><trkpt lat="37.7533317" lon="15.1949083"><ele>19.0</ele><time>2026-04-28T16:11:47.205Z</time></trkpt><trkpt lat="37.7532533" lon="15.1948733"><ele>19.0</ele><time>2026-04-28T16:11:48.205Z</time></trkpt><trkpt lat="37.753185" lon="15.194835"><ele>19.0</ele><time>2026-04-28T16:11:49.205Z</time></trkpt><trkpt lat="37.7531167" lon="15.1947917"><ele>19.0</ele><time>2026-04-28T16:11:50.205Z</time></trkpt><trkpt lat="37.7530583" lon="15.1947483"><ele>19.0</ele><time>2026-04-28T16:11:51.205Z</time></trkpt><trkpt lat="37.7529983" lon="15.1947133"><ele>19.0</ele><time>2026-04-28T16:11:52.205Z</time></trkpt><trkpt lat="37.752895" lon="15.1946483"><ele>19.0</ele><time>2026-04-28T16:11:54.206Z</time></trkpt><trkpt lat="37.7527867" lon="15.1945867"><ele>19.0</ele><time>2026-04-28T16:11:56.206Z</time></trkpt><trkpt lat="37.7527267" lon="15.1945583"><ele>19.0</ele><time>2026-04-28T16:11:57.205Z</time></trkpt><trkpt lat="37.7526717" lon="15.194515"><ele>19.0</ele><time>2026-04-28T16:11:58.205Z</time></trkpt><trkpt lat="37.7526183" lon="15.19447"><ele>19.0</ele><time>2026-04-28T16:11:59.205Z</time></trkpt><trkpt lat="37.75256" lon="15.1944233"><ele>19.0</ele><time>2026-04-28T16:12:00.205Z</time></trkpt><trkpt lat="37.7524983" lon="15.1943767"><ele>19.5</ele><time>2026-04-28T16:12:01.205Z</time></trkpt><trkpt lat="37.75242" lon="15.1943183"><ele>20.0</ele><time>2026-04-28T16:12:02.205Z</time></trkpt><trkpt lat="37.75232" lon="15.194255"><ele>20.5</ele><time>2026-04-28T16:12:03.205Z</time></trkpt><trkpt lat="37.75221" lon="15.19418"><ele>21.0</ele><time>2026-04-28T16:12:04.205Z</time></trkpt><trkpt lat="37.7521017" lon="15.194105"><ele>21.0</ele><time>2026-04-28T16:12:05.205Z</time></trkpt><trkpt lat="37.75201" lon="15.1940483"><ele>21.0</ele><time>2026-04-28T16:12:06.206Z</time></trkpt><trkpt lat="37.75192" lon="15.1939967"><ele>21.0</ele><time>2026-04-28T16:12:07.205Z</time></trkpt><trkpt lat="37.7518517" lon="15.1939517"><ele>21.0</ele><time>2026-04-28T16:12:08.205Z</time></trkpt><trkpt lat="37.7517583" lon="15.1939117"><ele>21.0</ele><time>2026-04-28T16:12:10.206Z</time></trkpt><trkpt lat="37.7516733" lon="15.1938633"><ele>20.8</ele><time>2026-04-28T16:12:13.205Z</time></trkpt><trkpt lat="37.7516117" lon="15.1938233"><ele>20.6</ele><time>2026-04-28T16:12:14.205Z</time></trkpt><trkpt lat="37.751535" lon="15.193765"><ele>20.4</ele><time>2026-04-28T16:12:15.206Z</time></trkpt><trkpt lat="37.7514233" lon="15.1936983"><ele>20.2</ele><time>2026-04-28T16:12:16.205Z</time></trkpt><trkpt lat="37.751275" lon="15.193615"><ele>20.0</ele><time>2026-04-28T16:12:17.205Z</time></trkpt><trkpt lat="37.751115" lon="15.1935417"><ele>20.0</ele><time>2026-04-28T16:12:18.205Z</time></trkpt><trkpt lat="37.7509467" lon="15.1934817"><ele>20.0</ele><time>2026-04-28T16:12:19.205Z</time></trkpt><trkpt lat="37.7507917" lon="15.19343"><ele>20.0</ele><time>2026-04-28T16:12:20.205Z</time></trkpt><trkpt lat="37.7506267" lon="15.1933983"><ele>20.0</ele><time>2026-04-28T16:12:21.206Z</time></trkpt><trkpt lat="37.750485" lon="15.1933433"><ele>20.0</ele><time>2026-04-28T16:12:22.205Z</time></trkpt><trkpt lat="37.7503383" lon="15.1933033"><ele>20.0</ele><time>2026-04-28T16:12:23.205Z</time></trkpt><trkpt lat="37.7502017" lon="15.1932667"><ele>20.0</ele><time>2026-04-28T16:12:24.206Z</time></trkpt><trkpt lat="37.7500533" lon="15.1932367"><ele>20.5</ele><time>2026-04-28T16:12:25.205Z</time></trkpt><trkpt lat="37.7499267" lon="15.1931833"><ele>21.0</ele><time>2026-04-28T16:12:26.206Z</time></trkpt><trkpt lat="37.7498" lon="15.1931383"><ele>21.5</ele><time>2026-04-28T16:12:27.205Z</time></trkpt><trkpt lat="37.7496733" lon="15.1931133"><ele>22.0</ele><time>2026-04-28T16:12:28.205Z</time></trkpt><trkpt lat="37.7495583" lon="15.193075"><ele>22.200000000000003</ele><time>2026-04-28T16:12:29.205Z</time></trkpt><trkpt lat="37.74945" lon="15.1930383"><ele>22.4</ele><time>2026-04-28T16:12:30.205Z</time></trkpt><trkpt lat="37.749335" lon="15.1930083"><ele>22.6</ele><time>2026-04-28T16:12:31.206Z</time></trkpt><trkpt lat="37.74923" lon="15.1929717"><ele>22.799999999999997</ele><time>2026-04-28T16:12:32.205Z</time></trkpt><trkpt lat="37.7491367" lon="15.1929267"><ele>23.0</ele><time>2026-04-28T16:12:33.205Z</time></trkpt><trkpt lat="37.74904" lon="15.1929033"><ele>23.0</ele><time>2026-04-28T16:12:34.205Z</time></trkpt><trkpt lat="37.7489483" lon="15.1928767"><ele>23.0</ele><time>2026-04-28T16:12:35.205Z</time></trkpt><trkpt lat="37.7488667" lon="15.1928617"><ele>23.0</ele><time>2026-04-28T16:12:36.206Z</time></trkpt><trkpt lat="37.7487967" lon="15.1928433"><ele>23.0</ele><time>2026-04-28T16:12:37.205Z</time></trkpt><trkpt lat="37.7487333" lon="15.1928317"><ele>23.0</ele><time>2026-04-28T16:12:38.205Z</time></trkpt><trkpt lat="37.7486183" lon="15.1928"><ele>23.0</ele><time>2026-04-28T16:12:40.206Z</time></trkpt><trkpt lat="37.7485067" lon="15.1927633"><ele>23.142857142857142</ele><time>2026-04-28T16:12:42.206Z</time></trkpt><trkpt lat="37.7484417" lon="15.19275"><ele>23.285714285714285</ele><time>2026-04-28T16:12:43.205Z</time></trkpt><trkpt lat="37.7483717" lon="15.19274"><ele>23.428571428571427</ele><time>2026-04-28T16:12:44.205Z</time></trkpt><trkpt lat="37.7482983" lon="15.1927167"><ele>23.57142857142857</ele><time>2026-04-28T16:12:45.205Z</time></trkpt><trkpt lat="37.7482333" lon="15.1926933"><ele>23.714285714285715</ele><time>2026-04-28T16:12:46.205Z</time></trkpt><trkpt lat="37.7481617" lon="15.1926633"><ele>23.857142857142854</ele><time>2026-04-28T16:12:47.206Z</time></trkpt><trkpt lat="37.748085" lon="15.192645"><ele>24.0</ele><time>2026-04-28T16:12:48.205Z</time></trkpt><trkpt lat="37.7480117" lon="15.19263"><ele>24.0</ele><time>2026-04-28T16:12:49.205Z</time></trkpt><trkpt lat="37.74794" lon="15.192615"><ele>24.0</ele><time>2026-04-28T16:12:50.205Z</time></trkpt><trkpt lat="37.7478617" lon="15.1926133"><ele>24.0</ele><time>2026-04-28T16:12:51.206Z</time></trkpt><trkpt lat="37.747765" lon="15.1926433"><ele>24.0</ele><time>2026-04-28T16:12:52.205Z</time></trkpt><trkpt lat="37.747635" lon="15.1926983"><ele>24.0</ele><time>2026-04-28T16:12:53.205Z</time></trkpt><trkpt lat="37.7474867" lon="15.192755"><ele>24.5</ele><time>2026-04-28T16:12:54.206Z</time></trkpt><trkpt lat="37.7473467" lon="15.1927717"><ele>25.0</ele><time>2026-04-28T16:12:55.206Z</time></trkpt><trkpt lat="37.747205" lon="15.1927783"><ele>25.5</ele><time>2026-04-28T16:12:56.205Z</time></trkpt><trkpt lat="37.7470717" lon="15.1927517"><ele>26.0</ele><time>2026-04-28T16:12:57.205Z</time></trkpt><trkpt lat="37.746945" lon="15.1926767"><ele>26.0</ele><time>2026-04-28T16:12:58.205Z</time></trkpt><trkpt lat="37.74682" lon="15.1925783"><ele>26.0</ele><time>2026-04-28T16:12:59.205Z</time></trkpt><trkpt lat="37.7467167" lon="15.1924483"><ele>26.0</ele><time>2026-04-28T16:13:00.205Z</time></trkpt><trkpt lat="37.7466467" lon="15.1922717"><ele>26.0</ele><time>2026-04-28T16:13:01.205Z</time></trkpt><trkpt lat="37.746585" lon="15.1920933"><ele>26.0</ele><time>2026-04-28T16:13:02.206Z</time></trkpt><trkpt lat="37.74651" lon="15.1919183"><ele>26.0</ele><time>2026-04-28T16:13:03.205Z</time></trkpt><trkpt lat="37.7464417" lon="15.1917583"><ele>26.0</ele><time>2026-04-28T16:13:04.205Z</time></trkpt><trkpt lat="37.7463683" lon="15.1915933"><ele>26.25</ele><time>2026-04-28T16:13:05.205Z</time></trkpt><trkpt lat="37.74631" lon="15.19145"><ele>26.5</ele><time>2026-04-28T16:13:06.206Z</time></trkpt><trkpt lat="37.7462433" lon="15.1913083"><ele>26.75</ele><time>2026-04-28T16:13:07.206Z</time></trkpt><trkpt lat="37.7461767" lon="15.19117"><ele>27.0</ele><time>2026-04-28T16:13:08.205Z</time></trkpt><trkpt lat="37.7461217" lon="15.1910383"><ele>27.0</ele><time>2026-04-28T16:13:09.205Z</time></trkpt><trkpt lat="37.7460633" lon="15.1909083"><ele>27.0</ele><time>2026-04-28T16:13:10.205Z</time></trkpt><trkpt lat="37.7459917" lon="15.1907817"><ele>27.0</ele><time>2026-04-28T16:13:11.206Z</time></trkpt><trkpt lat="37.7459367" lon="15.19065"><ele>27.0</ele><time>2026-04-28T16:13:12.205Z</time></trkpt><trkpt lat="37.7458767" lon="15.190515"><ele>27.200000000000003</ele><time>2026-04-28T16:13:13.205Z</time></trkpt><trkpt lat="37.7458183" lon="15.190385"><ele>27.400000000000002</ele><time>2026-04-28T16:13:14.205Z</time></trkpt><trkpt lat="37.7457633" lon="15.1902583"><ele>27.599999999999998</ele><time>2026-04-28T16:13:15.205Z</time></trkpt><trkpt lat="37.7457183" lon="15.19014"><ele>27.799999999999997</ele><time>2026-04-28T16:13:16.206Z</time></trkpt><trkpt lat="37.7456733" lon="15.1900333"><ele>28.0</ele><time>2026-04-28T16:13:17.205Z</time></trkpt><trkpt lat="37.74564" lon="15.1899367"><ele>28.166666666666668</ele><time>2026-04-28T16:13:18.205Z</time></trkpt><trkpt lat="37.7456083" lon="15.18984"><ele>28.333333333333336</ele><time>2026-04-28T16:13:19.206Z</time></trkpt><trkpt lat="37.745575" lon="15.18974"><ele>28.5</ele><time>2026-04-28T16:13:20.205Z</time></trkpt><trkpt lat="37.7455317" lon="15.1896333"><ele>28.666666666666664</ele><time>2026-04-28T16:13:21.205Z</time></trkpt><trkpt lat="37.7454917" lon="15.1895333"><ele>28.833333333333332</ele><time>2026-04-28T16:13:22.206Z</time></trkpt><trkpt lat="37.7454467" lon="15.1894333"><ele>29.0</ele><time>2026-04-28T16:13:23.205Z</time></trkpt><trkpt lat="37.745405" lon="15.18933"><ele>29.0</ele><time>2026-04-28T16:13:24.205Z</time></trkpt><trkpt lat="37.745365" lon="15.1892233"><ele>29.0</ele><time>2026-04-28T16:13:25.205Z</time></trkpt><trkpt lat="37.7453083" lon="15.1890933"><ele>29.0</ele><time>2026-04-28T16:13:26.205Z</time></trkpt><trkpt lat="37.7452467" lon="15.188965"><ele>29.0</ele><time>2026-04-28T16:13:27.205Z</time></trkpt><trkpt lat="37.7451783" lon="15.18883"><ele>29.0</ele><time>2026-04-28T16:13:28.205Z</time></trkpt><trkpt lat="37.7451017" lon="15.1887017"><ele>29.0</ele><time>2026-04-28T16:13:29.205Z</time></trkpt><trkpt lat="37.745005" lon="15.18859"><ele>29.0</ele><time>2026-04-28T16:13:30.205Z</time></trkpt><trkpt lat="37.7449117" lon="15.18849"><ele>29.0</ele><time>2026-04-28T16:13:31.206Z</time></trkpt><trkpt lat="37.7448183" lon="15.1884"><ele>29.0</ele><time>2026-04-28T16:13:32.205Z</time></trkpt><trkpt lat="37.74472" lon="15.18831"><ele>29.0</ele><time>2026-04-28T16:13:33.205Z</time></trkpt><trkpt lat="37.7446267" lon="15.1882183"><ele>29.0</ele><time>2026-04-28T16:13:34.205Z</time></trkpt><trkpt lat="37.7445367" lon="15.188135"><ele>29.0</ele><time>2026-04-28T16:13:35.205Z</time></trkpt><trkpt lat="37.7444533" lon="15.1880567"><ele>29.2</ele><time>2026-04-28T16:13:36.205Z</time></trkpt><trkpt lat="37.7443733" lon="15.187975"><ele>29.4</ele><time>2026-04-28T16:13:37.205Z</time></trkpt><trkpt lat="37.7442967" lon="15.187905"><ele>29.6</ele><time>2026-04-28T16:13:38.205Z</time></trkpt><trkpt lat="37.74422" lon="15.1878383"><ele>29.8</ele><time>2026-04-28T16:13:39.205Z</time></trkpt><trkpt lat="37.74415" lon="15.187765"><ele>30.0</ele><time>2026-04-28T16:13:40.205Z</time></trkpt><trkpt lat="37.7440783" lon="15.1876867"><ele>30.0</ele><time>2026-04-28T16:13:41.205Z</time></trkpt><trkpt lat="37.7440133" lon="15.1876183"><ele>30.0</ele><time>2026-04-28T16:13:42.205Z</time></trkpt><trkpt lat="37.7439433" lon="15.1875683"><ele>30.0</ele><time>2026-04-28T16:13:43.205Z</time></trkpt><trkpt lat="37.7438783" lon="15.1875183"><ele>30.0</ele><time>2026-04-28T16:13:44.205Z</time></trkpt><trkpt lat="37.7438167" lon="15.18748"><ele>30.0</ele><time>2026-04-28T16:13:45.205Z</time></trkpt><trkpt lat="37.743755" lon="15.18745"><ele>30.0</ele><time>2026-04-28T16:13:46.205Z</time></trkpt><trkpt lat="37.7436617" lon="15.1873917"><ele>30.0</ele><time>2026-04-28T16:13:48.205Z</time></trkpt><trkpt lat="37.7435933" lon="15.1873583"><ele>30.0</ele><time>2026-04-28T16:13:50.205Z</time></trkpt><trkpt lat="37.74352" lon="15.1873333"><ele>30.0</ele><time>2026-04-28T16:13:52.205Z</time></trkpt><trkpt lat="37.7434417" lon="15.187305"><ele>30.0</ele><time>2026-04-28T16:13:54.205Z</time></trkpt><trkpt lat="37.743345" lon="15.1872733"><ele>30.0</ele><time>2026-04-28T16:13:56.206Z</time></trkpt><trkpt lat="37.74323" lon="15.187215"><ele>30.333333333333332</ele><time>2026-04-28T16:13:58.206Z</time></trkpt><trkpt lat="37.7431667" lon="15.18719"><ele>30.666666666666664</ele><time>2026-04-28T16:13:59.205Z</time></trkpt><trkpt lat="37.7430933" lon="15.1871617"><ele>31.0</ele><time>2026-04-28T16:14:00.205Z</time></trkpt><trkpt lat="37.7430233" lon="15.1871317"><ele>31.333333333333332</ele><time>2026-04-28T16:14:01.205Z</time></trkpt><trkpt lat="37.7429517" lon="15.1871017"><ele>31.666666666666664</ele><time>2026-04-28T16:14:02.205Z</time></trkpt><trkpt lat="37.7428733" lon="15.18708"><ele>32.0</ele><time>2026-04-28T16:14:03.205Z</time></trkpt><trkpt lat="37.742785" lon="15.1870533"><ele>31.8</ele><time>2026-04-28T16:14:04.205Z</time></trkpt><trkpt lat="37.7426933" lon="15.187025"><ele>31.6</ele><time>2026-04-28T16:14:05.205Z</time></trkpt><trkpt lat="37.7426033" lon="15.1869917"><ele>31.400000000000002</ele><time>2026-04-28T16:14:06.205Z</time></trkpt><trkpt lat="37.7425017" lon="15.1869567"><ele>31.200000000000003</ele><time>2026-04-28T16:14:07.205Z</time></trkpt><trkpt lat="37.7424033" lon="15.18692"><ele>31.0</ele><time>2026-04-28T16:14:08.205Z</time></trkpt><trkpt lat="37.7423233" lon="15.1868817"><ele>31.0</ele><time>2026-04-28T16:14:09.205Z</time></trkpt><trkpt lat="37.7422417" lon="15.1868383"><ele>31.0</ele><time>2026-04-28T16:14:10.205Z</time></trkpt><trkpt lat="37.7421567" lon="15.1867867"><ele>31.0</ele><time>2026-04-28T16:14:11.205Z</time></trkpt><trkpt lat="37.7420683" lon="15.1867583"><ele>31.0</ele><time>2026-04-28T16:14:12.205Z</time></trkpt><trkpt lat="37.74198" lon="15.1867267"><ele>31.0</ele><time>2026-04-28T16:14:13.205Z</time></trkpt><trkpt lat="37.7418833" lon="15.1867"><ele>31.333333333333336</ele><time>2026-04-28T16:14:14.206Z</time></trkpt><trkpt lat="37.7417967" lon="15.1866717"><ele>31.666666666666668</ele><time>2026-04-28T16:14:15.205Z</time></trkpt><trkpt lat="37.741715" lon="15.1866517"><ele>32.0</ele><time>2026-04-28T16:14:16.206Z</time></trkpt><trkpt lat="37.7416383" lon="15.1866333"><ele>32.333333333333336</ele><time>2026-04-28T16:14:17.205Z</time></trkpt><trkpt lat="37.7415717" lon="15.1866167"><ele>32.666666666666664</ele><time>2026-04-28T16:14:18.205Z</time></trkpt><trkpt lat="37.741445" lon="15.1865867"><ele>33.0</ele><time>2026-04-28T16:14:20.206Z</time></trkpt><trkpt lat="37.74133" lon="15.1865617"><ele>33.0</ele><time>2026-04-28T16:14:22.205Z</time></trkpt><trkpt lat="37.74126" lon="15.1865483"><ele>33.0</ele><time>2026-04-28T16:14:24.206Z</time></trkpt><trkpt lat="37.7411783" lon="15.186545"><ele>33.0</ele><time>2026-04-28T16:14:29.205Z</time></trkpt><trkpt lat="37.74109" lon="15.1865233"><ele>33.0</ele><time>2026-04-28T16:14:31.205Z</time></trkpt><trkpt lat="37.741015" lon="15.1865083"><ele>33.0</ele><time>2026-04-28T16:14:33.205Z</time></trkpt><trkpt lat="37.740935" lon="15.18649"><ele>33.0</ele><time>2026-04-28T16:14:35.205Z</time></trkpt><trkpt lat="37.74083" lon="15.186465"><ele>33.6</ele><time>2026-04-28T16:14:37.205Z</time></trkpt><trkpt lat="37.7407117" lon="15.1864517"><ele>34.199999999999996</ele><time>2026-04-28T16:14:39.205Z</time></trkpt><trkpt lat="37.7406133" lon="15.1864417"><ele>34.8</ele><time>2026-04-28T16:14:41.205Z</time></trkpt><trkpt lat="37.740525" lon="15.1864233"><ele>35.4</ele><time>2026-04-28T16:14:43.205Z</time></trkpt><trkpt lat="37.7404383" lon="15.1864117"><ele>36.0</ele><time>2026-04-28T16:14:45.205Z</time></trkpt><trkpt lat="37.74033" lon="15.1863967"><ele>36.0</ele><time>2026-04-28T16:14:47.205Z</time></trkpt><trkpt lat="37.740215" lon="15.1863817"><ele>36.0</ele><time>2026-04-28T16:14:49.205Z</time></trkpt><trkpt lat="37.7400833" lon="15.1863533"><ele>36.0</ele><time>2026-04-28T16:14:51.205Z</time></trkpt><trkpt lat="37.740005" lon="15.18634"><ele>36.0</ele><time>2026-04-28T16:14:52.205Z</time></trkpt><trkpt lat="37.7399333" lon="15.1863267"><ele>36.0</ele><time>2026-04-28T16:14:53.205Z</time></trkpt><trkpt lat="37.7398533" lon="15.1863267"><ele>36.0</ele><time>2026-04-28T16:14:54.205Z</time></trkpt><trkpt lat="37.7397767" lon="15.1863167"><ele>36.0</ele><time>2026-04-28T16:14:55.205Z</time></trkpt><trkpt lat="37.7397083" lon="15.1863033"><ele>36.0</ele><time>2026-04-28T16:14:56.205Z</time></trkpt><trkpt lat="37.7396417" lon="15.1862883"><ele>36.0</ele><time>2026-04-28T16:14:57.205Z</time></trkpt><trkpt lat="37.7395267" lon="15.1862683"><ele>36.0</ele><time>2026-04-28T16:14:59.205Z</time></trkpt><trkpt lat="37.7394617" lon="15.1862533"><ele>36.0</ele><time>2026-04-28T16:15:00.205Z</time></trkpt><trkpt lat="37.7393933" lon="15.1862417"><ele>36.6</ele><time>2026-04-28T16:15:01.205Z</time></trkpt><trkpt lat="37.739315" lon="15.1862317"><ele>37.2</ele><time>2026-04-28T16:15:02.205Z</time></trkpt><trkpt lat="37.7392333" lon="15.1862267"><ele>37.8</ele><time>2026-04-28T16:15:03.205Z</time></trkpt><trkpt lat="37.7391317" lon="15.1862"><ele>38.4</ele><time>2026-04-28T16:15:04.205Z</time></trkpt><trkpt lat="37.7390183" lon="15.186165"><ele>39.0</ele><time>2026-04-28T16:15:05.205Z</time></trkpt><trkpt lat="37.7389033" lon="15.1861283"><ele>39.0</ele><time>2026-04-28T16:15:06.206Z</time></trkpt><trkpt lat="37.7387767" lon="15.18609"><ele>39.0</ele><time>2026-04-28T16:15:07.205Z</time></trkpt><trkpt lat="37.738655" lon="15.1860383"><ele>39.0</ele><time>2026-04-28T16:15:08.205Z</time></trkpt><trkpt lat="37.738525" lon="15.18599"><ele>39.0</ele><time>2026-04-28T16:15:09.205Z</time></trkpt><trkpt lat="37.7384067" lon="15.18594"><ele>39.25</ele><time>2026-04-28T16:15:10.205Z</time></trkpt><trkpt lat="37.7382967" lon="15.185905"><ele>39.5</ele><time>2026-04-28T16:15:11.205Z</time></trkpt><trkpt lat="37.7381833" lon="15.1858717"><ele>39.75</ele><time>2026-04-28T16:15:12.205Z</time></trkpt><trkpt lat="37.7380567" lon="15.1858267"><ele>40.0</ele><time>2026-04-28T16:15:13.205Z</time></trkpt><trkpt lat="37.7379383" lon="15.1857867"><ele>40.0</ele><time>2026-04-28T16:15:14.206Z</time></trkpt><trkpt lat="37.7378317" lon="15.18574"><ele>40.0</ele><time>2026-04-28T16:15:15.205Z</time></trkpt><trkpt lat="37.73773" lon="15.18569"><ele>40.0</ele><time>2026-04-28T16:15:16.205Z</time></trkpt><trkpt lat="37.7376267" lon="15.185645"><ele>40.0</ele><time>2026-04-28T16:15:17.205Z</time></trkpt><trkpt lat="37.7375317" lon="15.1855983"><ele>40.0</ele><time>2026-04-28T16:15:18.206Z</time></trkpt><trkpt lat="37.737435" lon="15.1855567"><ele>41.0</ele><time>2026-04-28T16:15:19.205Z</time></trkpt><trkpt lat="37.7373283" lon="15.1855317"><ele>42.0</ele><time>2026-04-28T16:15:20.205Z</time></trkpt><trkpt lat="37.7372133" lon="15.185505"><ele>43.0</ele><time>2026-04-28T16:15:21.205Z</time></trkpt><trkpt lat="37.7370883" lon="15.1854833"><ele>44.0</ele><time>2026-04-28T16:15:22.205Z</time></trkpt><trkpt lat="37.7369467" lon="15.1854683"><ele>43.33333333333333</ele><time>2026-04-28T16:15:23.205Z</time></trkpt><trkpt lat="37.7367917" lon="15.1854633"><ele>42.666666666666664</ele><time>2026-04-28T16:15:24.205Z</time></trkpt><trkpt lat="37.7366283" lon="15.1854733"><ele>42.0</ele><time>2026-04-28T16:15:25.206Z</time></trkpt><trkpt lat="37.7364633" lon="15.18549"><ele>42.0</ele><time>2026-04-28T16:15:26.205Z</time></trkpt><trkpt lat="37.7363083" lon="15.18551"><ele>42.0</ele><time>2026-04-28T16:15:27.205Z</time></trkpt><trkpt lat="37.7361617" lon="15.1855283"><ele>42.0</ele><time>2026-04-28T16:15:28.205Z</time></trkpt><trkpt lat="37.7360333" lon="15.1855417"><ele>42.0</ele><time>2026-04-28T16:15:29.205Z</time></trkpt><trkpt lat="37.7359233" lon="15.1855583"><ele>42.6</ele><time>2026-04-28T16:15:30.205Z</time></trkpt><trkpt lat="37.73582" lon="15.1855717"><ele>43.2</ele><time>2026-04-28T16:15:31.206Z</time></trkpt><trkpt lat="37.7357067" lon="15.185575"><ele>43.8</ele><time>2026-04-28T16:15:32.205Z</time></trkpt><trkpt lat="37.7356033" lon="15.1855883"><ele>44.4</ele><time>2026-04-28T16:15:33.205Z</time></trkpt><trkpt lat="37.7354933" lon="15.1855867"><ele>45.0</ele><time>2026-04-28T16:15:34.205Z</time></trkpt><trkpt lat="37.7353867" lon="15.185575"><ele>45.0</ele><time>2026-04-28T16:15:35.205Z</time></trkpt><trkpt lat="37.73528" lon="15.1855517"><ele>45.0</ele><time>2026-04-28T16:15:36.205Z</time></trkpt><trkpt lat="37.7351633" lon="15.1855217"><ele>45.0</ele><time>2026-04-28T16:15:37.205Z</time></trkpt><trkpt lat="37.73504" lon="15.1855017"><ele>45.0</ele><time>2026-04-28T16:15:38.205Z</time></trkpt><trkpt lat="37.734915" lon="15.1854733"><ele>45.5</ele><time>2026-04-28T16:15:39.205Z</time></trkpt><trkpt lat="37.7347867" lon="15.185445"><ele>46.0</ele><time>2026-04-28T16:15:40.205Z</time></trkpt><trkpt lat="37.7346433" lon="15.1854067"><ele>46.5</ele><time>2026-04-28T16:15:41.205Z</time></trkpt><trkpt lat="37.7344917" lon="15.18539"><ele>47.0</ele><time>2026-04-28T16:15:42.205Z</time></trkpt><trkpt lat="37.7343467" lon="15.1853733"><ele>48.75</ele><time>2026-04-28T16:15:43.205Z</time></trkpt><trkpt lat="37.7342" lon="15.185355"><ele>50.5</ele><time>2026-04-28T16:15:44.206Z</time></trkpt><trkpt lat="37.7340683" lon="15.1853383"><ele>52.25</ele><time>2026-04-28T16:15:45.205Z</time></trkpt><trkpt lat="37.733925" lon="15.1853267"><ele>54.0</ele><time>2026-04-28T16:15:46.206Z</time></trkpt><trkpt lat="37.7337767" lon="15.1853033"><ele>54.0</ele><time>2026-04-28T16:15:47.206Z</time></trkpt><trkpt lat="37.733635" lon="15.18527"><ele>54.0</ele><time>2026-04-28T16:15:48.205Z</time></trkpt><trkpt lat="37.7335067" lon="15.1852383"><ele>54.0</ele><time>2026-04-28T16:15:49.206Z</time></trkpt><trkpt lat="37.7333783" lon="15.185215"><ele>54.0</ele><time>2026-04-28T16:15:50.205Z</time></trkpt><trkpt lat="37.7332433" lon="15.1851983"><ele>55.0</ele><time>2026-04-28T16:15:51.205Z</time></trkpt><trkpt lat="37.7331217" lon="15.185175"><ele>56.0</ele><time>2026-04-28T16:15:52.205Z</time></trkpt><trkpt lat="37.7329917" lon="15.1851517"><ele>57.0</ele><time>2026-04-28T16:15:53.205Z</time></trkpt><trkpt lat="37.732865" lon="15.1851283"><ele>58.0</ele><time>2026-04-28T16:15:54.205Z</time></trkpt><trkpt lat="37.7327383" lon="15.185125"><ele>58.0</ele><time>2026-04-28T16:15:55.205Z</time></trkpt><trkpt lat="37.73261" lon="15.1850967"><ele>58.0</ele><time>2026-04-28T16:15:56.205Z</time></trkpt><trkpt lat="37.732495" lon="15.1850633"><ele>58.0</ele><time>2026-04-28T16:15:57.205Z</time></trkpt><trkpt lat="37.7323833" lon="15.18503"><ele>58.0</ele><time>2026-04-28T16:15:58.206Z</time></trkpt><trkpt lat="37.7322683" lon="15.1849967"><ele>58.0</ele><time>2026-04-28T16:15:59.205Z</time></trkpt><trkpt lat="37.7321633" lon="15.184975"><ele>58.0</ele><time>2026-04-28T16:16:00.205Z</time></trkpt><trkpt lat="37.7320683" lon="15.1849567"><ele>58.0</ele><time>2026-04-28T16:16:01.205Z</time></trkpt><trkpt lat="37.7319717" lon="15.18494"><ele>58.0</ele><time>2026-04-28T16:16:02.205Z</time></trkpt><trkpt lat="37.7318767" lon="15.18492"><ele>58.0</ele><time>2026-04-28T16:16:03.206Z</time></trkpt><trkpt lat="37.7317933" lon="15.18491"><ele>59.166666666666664</ele><time>2026-04-28T16:16:04.205Z</time></trkpt><trkpt lat="37.73171" lon="15.1848933"><ele>60.33333333333333</ele><time>2026-04-28T16:16:05.205Z</time></trkpt><trkpt lat="37.7316267" lon="15.1848883"><ele>61.5</ele><time>2026-04-28T16:16:06.205Z</time></trkpt><trkpt lat="37.7315417" lon="15.18488"><ele>62.66666666666667</ele><time>2026-04-28T16:16:07.205Z</time></trkpt><trkpt lat="37.7314583" lon="15.18487"><ele>63.833333333333336</ele><time>2026-04-28T16:16:08.205Z</time></trkpt><trkpt lat="37.7313883" lon="15.18486"><ele>65.0</ele><time>2026-04-28T16:16:09.205Z</time></trkpt><trkpt lat="37.73132" lon="15.184845"><ele>65.0</ele><time>2026-04-28T16:16:10.205Z</time></trkpt><trkpt lat="37.73125" lon="15.1848317"><ele>65.0</ele><time>2026-04-28T16:16:11.205Z</time></trkpt><trkpt lat="37.7311217" lon="15.1848033"><ele>65.0</ele><time>2026-04-28T16:16:13.205Z</time></trkpt><trkpt lat="37.7310017" lon="15.184775"><ele>65.0</ele><time>2026-04-28T16:16:15.205Z</time></trkpt><trkpt lat="37.73088" lon="15.1847583"><ele>65.0</ele><time>2026-04-28T16:16:17.205Z</time></trkpt><trkpt lat="37.7307817" lon="15.18473"><ele>65.5</ele><time>2026-04-28T16:16:19.206Z</time></trkpt><trkpt lat="37.7306967" lon="15.1847183"><ele>66.0</ele><time>2026-04-28T16:16:22.206Z</time></trkpt><trkpt lat="37.7306367" lon="15.18469"><ele>66.5</ele><time>2026-04-28T16:16:32.205Z</time></trkpt><trkpt lat="37.7305683" lon="15.1846667"><ele>67.0</ele><time>2026-04-28T16:16:34.205Z</time></trkpt><trkpt lat="37.7305017" lon="15.184655"><ele>67.5</ele><time>2026-04-28T16:16:36.205Z</time></trkpt><trkpt lat="37.7304183" lon="15.1846533"><ele>68.0</ele><time>2026-04-28T16:16:38.205Z</time></trkpt><trkpt lat="37.730335" lon="15.184635"><ele>68.0</ele><time>2026-04-28T16:16:40.205Z</time></trkpt><trkpt lat="37.7302483" lon="15.1846217"><ele>68.0</ele><time>2026-04-28T16:16:49.205Z</time></trkpt><trkpt lat="37.730185" lon="15.1845983"><ele>68.0</ele><time>2026-04-28T16:16:53.205Z</time></trkpt><trkpt lat="37.7301017" lon="15.1845967"><ele>68.0</ele><time>2026-04-28T16:16:55.205Z</time></trkpt><trkpt lat="37.7299883" lon="15.1845767"><ele>68.0</ele><time>2026-04-28T16:16:57.205Z</time></trkpt><trkpt lat="37.7299167" lon="15.184565"><ele>68.0</ele><time>2026-04-28T16:16:59.205Z</time></trkpt><trkpt lat="37.7298467" lon="15.18455"><ele>68.66666666666667</ele><time>2026-04-28T16:17:01.205Z</time></trkpt><trkpt lat="37.72977" lon="15.1845333"><ele>69.33333333333334</ele><time>2026-04-28T16:17:03.205Z</time></trkpt><trkpt lat="37.7297" lon="15.1845283"><ele>70.0</ele><time>2026-04-28T16:17:06.205Z</time></trkpt><trkpt lat="37.7296383" lon="15.1845067"><ele>70.66666666666667</ele><time>2026-04-28T16:17:17.205Z</time></trkpt><trkpt lat="37.7295783" lon="15.1844483"><ele>71.33333333333333</ele><time>2026-04-28T16:17:20.205Z</time></trkpt><trkpt lat="37.72957" lon="15.1843"><ele>72.0</ele><time>2026-04-28T16:17:22.205Z</time></trkpt><trkpt lat="37.7294867" lon="15.1841683"><ele>72.0</ele><time>2026-04-28T16:17:25.205Z</time></trkpt><trkpt lat="37.7294117" lon="15.18416"><ele>72.0</ele><time>2026-04-28T16:17:26.205Z</time></trkpt><trkpt lat="37.7293133" lon="15.1841533"><ele>72.0</ele><time>2026-04-28T16:17:27.205Z</time></trkpt><trkpt lat="37.7292233" lon="15.1841367"><ele>72.0</ele><time>2026-04-28T16:17:28.205Z</time></trkpt><trkpt lat="37.7291233" lon="15.184105"><ele>72.0</ele><time>2026-04-28T16:17:29.205Z</time></trkpt><trkpt lat="37.7290267" lon="15.1840617"><ele>71.6</ele><time>2026-04-28T16:17:30.205Z</time></trkpt><trkpt lat="37.72893" lon="15.18402"><ele>71.2</ele><time>2026-04-28T16:17:31.205Z</time></trkpt><trkpt lat="37.7288333" lon="15.1839767"><ele>70.8</ele><time>2026-04-28T16:17:32.205Z</time></trkpt><trkpt lat="37.7287383" lon="15.1839533"><ele>70.4</ele><time>2026-04-28T16:17:33.205Z</time></trkpt><trkpt lat="37.7286667" lon="15.1839267"><ele>70.0</ele><time>2026-04-28T16:17:34.206Z</time></trkpt><trkpt lat="37.7285917" lon="15.1839017"><ele>70.83333333333333</ele><time>2026-04-28T16:17:35.206Z</time></trkpt><trkpt lat="37.7284817" lon="15.1838683"><ele>71.66666666666666</ele><time>2026-04-28T16:17:37.205Z</time></trkpt><trkpt lat="37.7284017" lon="15.1838333"><ele>72.5</ele><time>2026-04-28T16:17:40.205Z</time></trkpt><trkpt lat="37.7283483" lon="15.18374"><ele>73.33333333333333</ele><time>2026-04-28T16:17:42.205Z</time></trkpt><trkpt lat="37.7283033" lon="15.1836617"><ele>74.16666666666667</ele><time>2026-04-28T16:17:44.205Z</time></trkpt><trkpt lat="37.7282417" lon="15.183625"><ele>75.0</ele><time>2026-04-28T16:17:46.205Z</time></trkpt><trkpt lat="37.728155" lon="15.183635"><ele>75.0</ele><time>2026-04-28T16:17:48.206Z</time></trkpt><trkpt lat="37.7280867" lon="15.1836517"><ele>75.0</ele><time>2026-04-28T16:17:50.205Z</time></trkpt><trkpt lat="37.72799" lon="15.1836433"><ele>75.0</ele><time>2026-04-28T16:17:58.206Z</time></trkpt><trkpt lat="37.7279367" lon="15.1837217"><ele>75.0</ele><time>2026-04-28T16:20:12.206Z</time></trkpt><trkpt lat="37.72802" lon="15.18363"><ele>75.0</ele><time>2026-04-28T16:21:31.205Z</time></trkpt><trkpt lat="37.7280917" lon="15.18371"><ele>75.0</ele><time>2026-04-28T16:21:50.205Z</time></trkpt></trkseg></trk></gpx>